<?xml version="1.0" encoding="UTF-8" standalone="no" ?>
<gpx xmlns="http://www.topografix.com/GPX/1/1" xmlns:xsi="http://www.w3.org/2001/XMLSchema-instance" xsi:schemaLocation="http://www.topografix.com/GPX/1/1 http://www.topografix.com/GPX/1/1/gpx.xsd" version="1.1" creator="VisuGPX - https://www.visugpx.com">
  <metadata>
    <name>séjour en étoile au val stura 8-13 mai 2018 CAF SLV</name>
    <desc><![CDATA[Depuis le refuge du Dahu à San  Bernolfo 

trace 1 : [b]col de la Gercha[/b] (2458m) mercredi 9 mai 2018
trace 2 :[b] cime de Colle Longue[/b] ( 2760m) jeudi 10 mai 2018
trace3 : [b]autour des lacs du Lausfer[/b]  ( ~2800 m)vendredi 11 mai 2018
trace4 : [b]pas de Colle Longue et cime ouest de la tête de l'Autaret [/b](2754m) samedi 12 mai 2018
]]></desc>
  </metadata>
  <trk>
    <name><![CDATA[20180514195401-MUPu9]]></name>
    <trkseg>
      <trkpt lat="44.26051" lon="7.04382">
        <ele>1687.5999755859</ele>
        <time>2018-05-09T06:02:25.000Z</time>
      </trkpt>
      <trkpt lat="44.2605" lon="7.04401">
        <ele>1687.5999755859</ele>
        <time>2018-05-09T06:02:26.000Z</time>
      </trkpt>
      <trkpt lat="44.26018" lon="7.04374">
        <ele>1686.5999755859</ele>
        <time>2018-05-09T06:02:56.000Z</time>
      </trkpt>
      <trkpt lat="44.26013" lon="7.04368">
        <ele>1686</ele>
        <time>2018-05-09T06:03:01.000Z</time>
      </trkpt>
      <trkpt lat="44.2601" lon="7.04364">
        <ele>1685.5999755859</ele>
        <time>2018-05-09T06:03:04.000Z</time>
      </trkpt>
      <trkpt lat="44.26007" lon="7.0436">
        <ele>1685.4000244141</ele>
        <time>2018-05-09T06:03:09.000Z</time>
      </trkpt>
      <trkpt lat="44.26006" lon="7.04358">
        <ele>1685.4000244141</ele>
        <time>2018-05-09T06:03:10.000Z</time>
      </trkpt>
      <trkpt lat="44.26004" lon="7.04355">
        <ele>1685.4000244141</ele>
        <time>2018-05-09T06:03:13.000Z</time>
      </trkpt>
      <trkpt lat="44.25997" lon="7.04346">
        <ele>1685</ele>
        <time>2018-05-09T06:03:20.000Z</time>
      </trkpt>
      <trkpt lat="44.25994" lon="7.04341">
        <ele>1684.8000488281</ele>
        <time>2018-05-09T06:03:24.000Z</time>
      </trkpt>
      <trkpt lat="44.25988" lon="7.04333">
        <ele>1684.4000244141</ele>
        <time>2018-05-09T06:03:30.000Z</time>
      </trkpt>
      <trkpt lat="44.25986" lon="7.04331">
        <ele>1684.4000244141</ele>
        <time>2018-05-09T06:03:32.000Z</time>
      </trkpt>
      <trkpt lat="44.25985" lon="7.04328">
        <ele>1684.4000244141</ele>
        <time>2018-05-09T06:03:34.000Z</time>
      </trkpt>
      <trkpt lat="44.25983" lon="7.04325">
        <ele>1684.4000244141</ele>
        <time>2018-05-09T06:03:37.000Z</time>
      </trkpt>
      <trkpt lat="44.25977" lon="7.04317">
        <ele>1684.1999511719</ele>
        <time>2018-05-09T06:03:44.000Z</time>
      </trkpt>
      <trkpt lat="44.25972" lon="7.04312">
        <ele>1684</ele>
        <time>2018-05-09T06:03:48.000Z</time>
      </trkpt>
      <trkpt lat="44.25967" lon="7.04307">
        <ele>1683.8000488281</ele>
        <time>2018-05-09T06:03:53.000Z</time>
      </trkpt>
      <trkpt lat="44.25968" lon="7.04307">
        <ele>1684</ele>
        <time>2018-05-09T06:03:58.000Z</time>
      </trkpt>
      <trkpt lat="44.25968" lon="7.04306">
        <ele>1684</ele>
        <time>2018-05-09T06:04:00.000Z</time>
      </trkpt>
      <trkpt lat="44.25967" lon="7.04305">
        <ele>1683.8000488281</ele>
        <time>2018-05-09T06:04:02.000Z</time>
      </trkpt>
      <trkpt lat="44.25964" lon="7.04301">
        <ele>1683.8000488281</ele>
        <time>2018-05-09T06:04:04.000Z</time>
      </trkpt>
      <trkpt lat="44.25963" lon="7.043">
        <ele>1683.8000488281</ele>
        <time>2018-05-09T06:04:05.000Z</time>
      </trkpt>
      <trkpt lat="44.25962" lon="7.04298">
        <ele>1683.5999755859</ele>
        <time>2018-05-09T06:04:06.000Z</time>
      </trkpt>
      <trkpt lat="44.25961" lon="7.04296">
        <ele>1683.5999755859</ele>
        <time>2018-05-09T06:04:07.000Z</time>
      </trkpt>
      <trkpt lat="44.25956" lon="7.04295">
        <ele>1683.4000244141</ele>
        <time>2018-05-09T06:04:12.000Z</time>
      </trkpt>
      <trkpt lat="44.25956" lon="7.04295">
        <ele>1683.4000244141</ele>
        <time>2018-05-09T06:04:13.000Z</time>
      </trkpt>
      <trkpt lat="44.2595" lon="7.04293">
        <ele>1683</ele>
        <time>2018-05-09T06:04:19.000Z</time>
      </trkpt>
      <trkpt lat="44.25943" lon="7.04288">
        <ele>1682.8000488281</ele>
        <time>2018-05-09T06:04:24.000Z</time>
      </trkpt>
      <trkpt lat="44.25938" lon="7.04288">
        <ele>1683</ele>
        <time>2018-05-09T06:04:28.000Z</time>
      </trkpt>
      <trkpt lat="44.25933" lon="7.04288">
        <ele>1683</ele>
        <time>2018-05-09T06:04:30.000Z</time>
      </trkpt>
      <trkpt lat="44.25933" lon="7.04286">
        <ele>1682.8000488281</ele>
        <time>2018-05-09T06:04:31.000Z</time>
      </trkpt>
      <trkpt lat="44.25932" lon="7.04285">
        <ele>1682.8000488281</ele>
        <time>2018-05-09T06:04:32.000Z</time>
      </trkpt>
      <trkpt lat="44.25929" lon="7.04284">
        <ele>1682.8000488281</ele>
        <time>2018-05-09T06:04:34.000Z</time>
      </trkpt>
      <trkpt lat="44.25928" lon="7.04283">
        <ele>1682.8000488281</ele>
        <time>2018-05-09T06:04:36.000Z</time>
      </trkpt>
      <trkpt lat="44.25928" lon="7.04281">
        <ele>1682.8000488281</ele>
        <time>2018-05-09T06:04:38.000Z</time>
      </trkpt>
      <trkpt lat="44.25927" lon="7.0428">
        <ele>1683</ele>
        <time>2018-05-09T06:04:41.000Z</time>
      </trkpt>
      <trkpt lat="44.25926" lon="7.04276">
        <ele>1683</ele>
        <time>2018-05-09T06:04:44.000Z</time>
      </trkpt>
      <trkpt lat="44.25926" lon="7.04274">
        <ele>1682.8000488281</ele>
        <time>2018-05-09T06:04:45.000Z</time>
      </trkpt>
      <trkpt lat="44.25924" lon="7.04273">
        <ele>1682.8000488281</ele>
        <time>2018-05-09T06:04:46.000Z</time>
      </trkpt>
      <trkpt lat="44.25922" lon="7.04271">
        <ele>1682.5999755859</ele>
        <time>2018-05-09T06:04:49.000Z</time>
      </trkpt>
      <trkpt lat="44.25921" lon="7.0427">
        <ele>1682.5999755859</ele>
        <time>2018-05-09T06:04:50.000Z</time>
      </trkpt>
      <trkpt lat="44.25915" lon="7.04261">
        <ele>1682.4000244141</ele>
        <time>2018-05-09T06:04:57.000Z</time>
      </trkpt>
      <trkpt lat="44.25907" lon="7.04257">
        <ele>1682</ele>
        <time>2018-05-09T06:05:03.000Z</time>
      </trkpt>
      <trkpt lat="44.25905" lon="7.04251">
        <ele>1681.4000244141</ele>
        <time>2018-05-09T06:05:09.000Z</time>
      </trkpt>
      <trkpt lat="44.25904" lon="7.0425">
        <ele>1681.4000244141</ele>
        <time>2018-05-09T06:05:10.000Z</time>
      </trkpt>
      <trkpt lat="44.25902" lon="7.04248">
        <ele>1681.1999511719</ele>
        <time>2018-05-09T06:05:12.000Z</time>
      </trkpt>
      <trkpt lat="44.259" lon="7.04245">
        <ele>1681</ele>
        <time>2018-05-09T06:05:14.000Z</time>
      </trkpt>
      <trkpt lat="44.25895" lon="7.04236">
        <ele>1680.5999755859</ele>
        <time>2018-05-09T06:05:20.000Z</time>
      </trkpt>
      <trkpt lat="44.25893" lon="7.04233">
        <ele>1680.4000244141</ele>
        <time>2018-05-09T06:05:22.000Z</time>
      </trkpt>
      <trkpt lat="44.25892" lon="7.04232">
        <ele>1680.1999511719</ele>
        <time>2018-05-09T06:05:23.000Z</time>
      </trkpt>
      <trkpt lat="44.25891" lon="7.04231">
        <ele>1680</ele>
        <time>2018-05-09T06:05:24.000Z</time>
      </trkpt>
      <trkpt lat="44.2589" lon="7.04231">
        <ele>1680</ele>
        <time>2018-05-09T06:05:25.000Z</time>
      </trkpt>
      <trkpt lat="44.25888" lon="7.0423">
        <ele>1679.8000488281</ele>
        <time>2018-05-09T06:05:27.000Z</time>
      </trkpt>
      <trkpt lat="44.25882" lon="7.04231">
        <ele>1679.8000488281</ele>
        <time>2018-05-09T06:05:31.000Z</time>
      </trkpt>
      <trkpt lat="44.25876" lon="7.04231">
        <ele>1680</ele>
        <time>2018-05-09T06:05:36.000Z</time>
      </trkpt>
      <trkpt lat="44.25874" lon="7.04231">
        <ele>1680</ele>
        <time>2018-05-09T06:05:39.000Z</time>
      </trkpt>
      <trkpt lat="44.25869" lon="7.04235">
        <ele>1679.8000488281</ele>
        <time>2018-05-09T06:05:42.000Z</time>
      </trkpt>
      <trkpt lat="44.25867" lon="7.04236">
        <ele>1679.8000488281</ele>
        <time>2018-05-09T06:05:43.000Z</time>
      </trkpt>
      <trkpt lat="44.25865" lon="7.04237">
        <ele>1679.8000488281</ele>
        <time>2018-05-09T06:05:44.000Z</time>
      </trkpt>
      <trkpt lat="44.25854" lon="7.04243">
        <ele>1679.8000488281</ele>
        <time>2018-05-09T06:05:50.000Z</time>
      </trkpt>
      <trkpt lat="44.25851" lon="7.04245">
        <ele>1679.5999755859</ele>
        <time>2018-05-09T06:05:52.000Z</time>
      </trkpt>
      <trkpt lat="44.25849" lon="7.04246">
        <ele>1679.5999755859</ele>
        <time>2018-05-09T06:05:53.000Z</time>
      </trkpt>
      <trkpt lat="44.25839" lon="7.04257">
        <ele>1679.4000244141</ele>
        <time>2018-05-09T06:06:01.000Z</time>
      </trkpt>
      <trkpt lat="44.25838" lon="7.04255">
        <ele>1679.1999511719</ele>
        <time>2018-05-09T06:06:04.000Z</time>
      </trkpt>
      <trkpt lat="44.25837" lon="7.04258">
        <ele>1679</ele>
        <time>2018-05-09T06:06:06.000Z</time>
      </trkpt>
      <trkpt lat="44.25839" lon="7.04258">
        <ele>1678.8000488281</ele>
        <time>2018-05-09T06:06:09.000Z</time>
      </trkpt>
      <trkpt lat="44.25839" lon="7.04257">
        <ele>1678.8000488281</ele>
        <time>2018-05-09T06:06:10.000Z</time>
      </trkpt>
      <trkpt lat="44.2584" lon="7.04255">
        <ele>1679.4000244141</ele>
        <time>2018-05-09T06:06:13.000Z</time>
      </trkpt>
      <trkpt lat="44.25837" lon="7.04258">
        <ele>1679.4000244141</ele>
        <time>2018-05-09T06:06:15.000Z</time>
      </trkpt>
      <trkpt lat="44.25835" lon="7.04259">
        <ele>1678.8000488281</ele>
        <time>2018-05-09T06:06:16.000Z</time>
      </trkpt>
      <trkpt lat="44.25833" lon="7.04261">
        <ele>1679</ele>
        <time>2018-05-09T06:06:18.000Z</time>
      </trkpt>
      <trkpt lat="44.25827" lon="7.04275">
        <ele>1678</ele>
        <time>2018-05-09T06:06:33.000Z</time>
      </trkpt>
      <trkpt lat="44.25828" lon="7.0428">
        <ele>1677.5999755859</ele>
        <time>2018-05-09T06:06:37.000Z</time>
      </trkpt>
      <trkpt lat="44.25828" lon="7.04285">
        <ele>1677.4000244141</ele>
        <time>2018-05-09T06:06:41.000Z</time>
      </trkpt>
      <trkpt lat="44.25827" lon="7.04287">
        <ele>1677.4000244141</ele>
        <time>2018-05-09T06:06:43.000Z</time>
      </trkpt>
      <trkpt lat="44.25828" lon="7.04297">
        <ele>1677.1999511719</ele>
        <time>2018-05-09T06:06:50.000Z</time>
      </trkpt>
      <trkpt lat="44.25827" lon="7.04297">
        <ele>1677.1999511719</ele>
        <time>2018-05-09T06:06:53.000Z</time>
      </trkpt>
      <trkpt lat="44.25827" lon="7.04297">
        <ele>1677.1999511719</ele>
        <time>2018-05-09T06:06:54.000Z</time>
      </trkpt>
      <trkpt lat="44.25826" lon="7.04298">
        <ele>1677</ele>
        <time>2018-05-09T06:06:56.000Z</time>
      </trkpt>
      <trkpt lat="44.25823" lon="7.04301">
        <ele>1676.8000488281</ele>
        <time>2018-05-09T06:07:03.000Z</time>
      </trkpt>
      <trkpt lat="44.25823" lon="7.04299">
        <ele>1676.8000488281</ele>
        <time>2018-05-09T06:07:07.000Z</time>
      </trkpt>
      <trkpt lat="44.25825" lon="7.04296">
        <ele>1677.1999511719</ele>
        <time>2018-05-09T06:07:14.000Z</time>
      </trkpt>
      <trkpt lat="44.25825" lon="7.04296">
        <ele>1677.1999511719</ele>
        <time>2018-05-09T06:07:17.000Z</time>
      </trkpt>
      <trkpt lat="44.25825" lon="7.04297">
        <ele>1677.1999511719</ele>
        <time>2018-05-09T06:07:19.000Z</time>
      </trkpt>
      <trkpt lat="44.2583" lon="7.04295">
        <ele>1677.1999511719</ele>
        <time>2018-05-09T06:07:28.000Z</time>
      </trkpt>
      <trkpt lat="44.2583" lon="7.04293">
        <ele>1677</ele>
        <time>2018-05-09T06:07:30.000Z</time>
      </trkpt>
      <trkpt lat="44.2583" lon="7.04292">
        <ele>1677.1999511719</ele>
        <time>2018-05-09T06:07:32.000Z</time>
      </trkpt>
      <trkpt lat="44.2583" lon="7.04293">
        <ele>1677.1999511719</ele>
        <time>2018-05-09T06:07:34.000Z</time>
      </trkpt>
      <trkpt lat="44.2583" lon="7.04294">
        <ele>1677.1999511719</ele>
        <time>2018-05-09T06:07:36.000Z</time>
      </trkpt>
      <trkpt lat="44.25829" lon="7.04293">
        <ele>1677.1999511719</ele>
        <time>2018-05-09T06:07:42.000Z</time>
      </trkpt>
      <trkpt lat="44.25828" lon="7.04291">
        <ele>1677.5999755859</ele>
        <time>2018-05-09T06:07:54.000Z</time>
      </trkpt>
      <trkpt lat="44.25829" lon="7.04289">
        <ele>1677.5999755859</ele>
        <time>2018-05-09T06:07:57.000Z</time>
      </trkpt>
      <trkpt lat="44.25829" lon="7.04288">
        <ele>1677.5999755859</ele>
        <time>2018-05-09T06:08:01.000Z</time>
      </trkpt>
      <trkpt lat="44.2583" lon="7.04298">
        <ele>1676.5999755859</ele>
        <time>2018-05-09T06:08:15.000Z</time>
      </trkpt>
      <trkpt lat="44.25832" lon="7.04306">
        <ele>1676</ele>
        <time>2018-05-09T06:08:19.000Z</time>
      </trkpt>
      <trkpt lat="44.25834" lon="7.0431">
        <ele>1676</ele>
        <time>2018-05-09T06:08:21.000Z</time>
      </trkpt>
      <trkpt lat="44.25836" lon="7.04318">
        <ele>1675.8000488281</ele>
        <time>2018-05-09T06:08:25.000Z</time>
      </trkpt>
      <trkpt lat="44.25837" lon="7.0432">
        <ele>1675.8000488281</ele>
        <time>2018-05-09T06:08:26.000Z</time>
      </trkpt>
      <trkpt lat="44.25838" lon="7.04325">
        <ele>1675.5999755859</ele>
        <time>2018-05-09T06:08:28.000Z</time>
      </trkpt>
      <trkpt lat="44.25839" lon="7.04332">
        <ele>1675.1999511719</ele>
        <time>2018-05-09T06:08:31.000Z</time>
      </trkpt>
      <trkpt lat="44.25839" lon="7.04334">
        <ele>1675.1999511719</ele>
        <time>2018-05-09T06:08:32.000Z</time>
      </trkpt>
      <trkpt lat="44.2584" lon="7.04341">
        <ele>1674.8000488281</ele>
        <time>2018-05-09T06:08:35.000Z</time>
      </trkpt>
      <trkpt lat="44.25841" lon="7.04346">
        <ele>1674.8000488281</ele>
        <time>2018-05-09T06:08:37.000Z</time>
      </trkpt>
      <trkpt lat="44.25843" lon="7.0435">
        <ele>1674.4000244141</ele>
        <time>2018-05-09T06:08:39.000Z</time>
      </trkpt>
      <trkpt lat="44.25848" lon="7.04358">
        <ele>1673.8000488281</ele>
        <time>2018-05-09T06:08:43.000Z</time>
      </trkpt>
      <trkpt lat="44.25851" lon="7.04362">
        <ele>1673.4000244141</ele>
        <time>2018-05-09T06:08:46.000Z</time>
      </trkpt>
      <trkpt lat="44.25852" lon="7.04363">
        <ele>1673.1999511719</ele>
        <time>2018-05-09T06:08:47.000Z</time>
      </trkpt>
      <trkpt lat="44.25854" lon="7.04367">
        <ele>1672.8000488281</ele>
        <time>2018-05-09T06:08:50.000Z</time>
      </trkpt>
      <trkpt lat="44.25855" lon="7.04372">
        <ele>1672.5999755859</ele>
        <time>2018-05-09T06:08:53.000Z</time>
      </trkpt>
      <trkpt lat="44.25861" lon="7.04395">
        <ele>1671.8000488281</ele>
        <time>2018-05-09T06:09:07.000Z</time>
      </trkpt>
      <trkpt lat="44.25861" lon="7.04397">
        <ele>1671.5999755859</ele>
        <time>2018-05-09T06:09:08.000Z</time>
      </trkpt>
      <trkpt lat="44.25862" lon="7.04409">
        <ele>1670.8000488281</ele>
        <time>2018-05-09T06:09:16.000Z</time>
      </trkpt>
      <trkpt lat="44.25862" lon="7.04415">
        <ele>1670.5999755859</ele>
        <time>2018-05-09T06:09:20.000Z</time>
      </trkpt>
      <trkpt lat="44.25863" lon="7.04429">
        <ele>1669.8000488281</ele>
        <time>2018-05-09T06:09:30.000Z</time>
      </trkpt>
      <trkpt lat="44.25864" lon="7.04431">
        <ele>1669.5999755859</ele>
        <time>2018-05-09T06:09:32.000Z</time>
      </trkpt>
      <trkpt lat="44.25866" lon="7.04436">
        <ele>1669.4000244141</ele>
        <time>2018-05-09T06:09:35.000Z</time>
      </trkpt>
      <trkpt lat="44.25866" lon="7.04442">
        <ele>1669</ele>
        <time>2018-05-09T06:09:39.000Z</time>
      </trkpt>
      <trkpt lat="44.25867" lon="7.04447">
        <ele>1668.8000488281</ele>
        <time>2018-05-09T06:09:42.000Z</time>
      </trkpt>
      <trkpt lat="44.25867" lon="7.04451">
        <ele>1668.5999755859</ele>
        <time>2018-05-09T06:09:44.000Z</time>
      </trkpt>
      <trkpt lat="44.25868" lon="7.04453">
        <ele>1668.5999755859</ele>
        <time>2018-05-09T06:09:45.000Z</time>
      </trkpt>
      <trkpt lat="44.25868" lon="7.04456">
        <ele>1668.5999755859</ele>
        <time>2018-05-09T06:09:46.000Z</time>
      </trkpt>
      <trkpt lat="44.25869" lon="7.04465">
        <ele>1668</ele>
        <time>2018-05-09T06:09:51.000Z</time>
      </trkpt>
      <trkpt lat="44.25869" lon="7.04471">
        <ele>1667.5999755859</ele>
        <time>2018-05-09T06:09:55.000Z</time>
      </trkpt>
      <trkpt lat="44.25868" lon="7.04472">
        <ele>1667.5999755859</ele>
        <time>2018-05-09T06:09:56.000Z</time>
      </trkpt>
      <trkpt lat="44.25868" lon="7.04473">
        <ele>1667.4000244141</ele>
        <time>2018-05-09T06:09:57.000Z</time>
      </trkpt>
      <trkpt lat="44.25868" lon="7.04475">
        <ele>1667.4000244141</ele>
        <time>2018-05-09T06:09:58.000Z</time>
      </trkpt>
      <trkpt lat="44.25868" lon="7.04477">
        <ele>1667.1999511719</ele>
        <time>2018-05-09T06:10:00.000Z</time>
      </trkpt>
      <trkpt lat="44.25868" lon="7.04483">
        <ele>1666.8000488281</ele>
        <time>2018-05-09T06:10:03.000Z</time>
      </trkpt>
      <trkpt lat="44.25867" lon="7.04487">
        <ele>1666.5999755859</ele>
        <time>2018-05-09T06:10:07.000Z</time>
      </trkpt>
      <trkpt lat="44.25867" lon="7.04489">
        <ele>1666.4000244141</ele>
        <time>2018-05-09T06:10:08.000Z</time>
      </trkpt>
      <trkpt lat="44.25864" lon="7.04496">
        <ele>1666</ele>
        <time>2018-05-09T06:10:14.000Z</time>
      </trkpt>
      <trkpt lat="44.25864" lon="7.04499">
        <ele>1666</ele>
        <time>2018-05-09T06:10:16.000Z</time>
      </trkpt>
      <trkpt lat="44.25864" lon="7.04501">
        <ele>1665.8000488281</ele>
        <time>2018-05-09T06:10:18.000Z</time>
      </trkpt>
      <trkpt lat="44.25861" lon="7.04505">
        <ele>1665.4000244141</ele>
        <time>2018-05-09T06:10:21.000Z</time>
      </trkpt>
      <trkpt lat="44.25858" lon="7.04508">
        <ele>1665.4000244141</ele>
        <time>2018-05-09T06:10:26.000Z</time>
      </trkpt>
      <trkpt lat="44.25857" lon="7.04508">
        <ele>1665.4000244141</ele>
        <time>2018-05-09T06:10:29.000Z</time>
      </trkpt>
      <trkpt lat="44.25858" lon="7.04508">
        <ele>1665.4000244141</ele>
        <time>2018-05-09T06:10:30.000Z</time>
      </trkpt>
      <trkpt lat="44.25859" lon="7.04507">
        <ele>1665.4000244141</ele>
        <time>2018-05-09T06:10:33.000Z</time>
      </trkpt>
      <trkpt lat="44.25859" lon="7.04506">
        <ele>1665.4000244141</ele>
        <time>2018-05-09T06:10:40.000Z</time>
      </trkpt>
      <trkpt lat="44.25859" lon="7.04507">
        <ele>1665.4000244141</ele>
        <time>2018-05-09T06:10:42.000Z</time>
      </trkpt>
      <trkpt lat="44.25859" lon="7.04507">
        <ele>1665.4000244141</ele>
        <time>2018-05-09T06:10:46.000Z</time>
      </trkpt>
      <trkpt lat="44.25858" lon="7.04506">
        <ele>1665.1999511719</ele>
        <time>2018-05-09T06:10:53.000Z</time>
      </trkpt>
      <trkpt lat="44.25858" lon="7.04506">
        <ele>1665.1999511719</ele>
        <time>2018-05-09T06:10:54.000Z</time>
      </trkpt>
      <trkpt lat="44.25858" lon="7.04507">
        <ele>1665.1999511719</ele>
        <time>2018-05-09T06:10:55.000Z</time>
      </trkpt>
      <trkpt lat="44.25856" lon="7.0451">
        <ele>1665.1999511719</ele>
        <time>2018-05-09T06:11:02.000Z</time>
      </trkpt>
      <trkpt lat="44.25855" lon="7.04511">
        <ele>1665.1999511719</ele>
        <time>2018-05-09T06:11:05.000Z</time>
      </trkpt>
      <trkpt lat="44.25853" lon="7.04514">
        <ele>1665.4000244141</ele>
        <time>2018-05-09T06:11:09.000Z</time>
      </trkpt>
      <trkpt lat="44.25852" lon="7.04515">
        <ele>1665.5999755859</ele>
        <time>2018-05-09T06:11:11.000Z</time>
      </trkpt>
      <trkpt lat="44.25851" lon="7.04516">
        <ele>1665.8000488281</ele>
        <time>2018-05-09T06:11:12.000Z</time>
      </trkpt>
      <trkpt lat="44.25847" lon="7.0452">
        <ele>1666</ele>
        <time>2018-05-09T06:11:16.000Z</time>
      </trkpt>
      <trkpt lat="44.25845" lon="7.04523">
        <ele>1666.5999755859</ele>
        <time>2018-05-09T06:11:19.000Z</time>
      </trkpt>
      <trkpt lat="44.25844" lon="7.04526">
        <ele>1667.1999511719</ele>
        <time>2018-05-09T06:11:24.000Z</time>
      </trkpt>
      <trkpt lat="44.25843" lon="7.04528">
        <ele>1667.4000244141</ele>
        <time>2018-05-09T06:11:25.000Z</time>
      </trkpt>
      <trkpt lat="44.25843" lon="7.04529">
        <ele>1667.5999755859</ele>
        <time>2018-05-09T06:11:26.000Z</time>
      </trkpt>
      <trkpt lat="44.25843" lon="7.04531">
        <ele>1667.5999755859</ele>
        <time>2018-05-09T06:11:27.000Z</time>
      </trkpt>
      <trkpt lat="44.25841" lon="7.04537">
        <ele>1668.5999755859</ele>
        <time>2018-05-09T06:11:33.000Z</time>
      </trkpt>
      <trkpt lat="44.25838" lon="7.04544">
        <ele>1669.5999755859</ele>
        <time>2018-05-09T06:11:39.000Z</time>
      </trkpt>
      <trkpt lat="44.25836" lon="7.04545">
        <ele>1669.8000488281</ele>
        <time>2018-05-09T06:11:41.000Z</time>
      </trkpt>
      <trkpt lat="44.25835" lon="7.04547">
        <ele>1670</ele>
        <time>2018-05-09T06:11:43.000Z</time>
      </trkpt>
      <trkpt lat="44.25835" lon="7.04552">
        <ele>1670.1999511719</ele>
        <time>2018-05-09T06:11:46.000Z</time>
      </trkpt>
      <trkpt lat="44.25835" lon="7.04553">
        <ele>1670.1999511719</ele>
        <time>2018-05-09T06:11:47.000Z</time>
      </trkpt>
      <trkpt lat="44.25836" lon="7.04556">
        <ele>1670.4000244141</ele>
        <time>2018-05-09T06:11:51.000Z</time>
      </trkpt>
      <trkpt lat="44.25835" lon="7.04555">
        <ele>1670.4000244141</ele>
        <time>2018-05-09T06:11:56.000Z</time>
      </trkpt>
      <trkpt lat="44.25835" lon="7.04554">
        <ele>1670.4000244141</ele>
        <time>2018-05-09T06:11:58.000Z</time>
      </trkpt>
      <trkpt lat="44.25832" lon="7.04558">
        <ele>1670.5999755859</ele>
        <time>2018-05-09T06:12:14.000Z</time>
      </trkpt>
      <trkpt lat="44.25831" lon="7.0456">
        <ele>1671</ele>
        <time>2018-05-09T06:12:15.000Z</time>
      </trkpt>
      <trkpt lat="44.25825" lon="7.04571">
        <ele>1671.4000244141</ele>
        <time>2018-05-09T06:12:21.000Z</time>
      </trkpt>
      <trkpt lat="44.25825" lon="7.04573">
        <ele>1671.5999755859</ele>
        <time>2018-05-09T06:12:22.000Z</time>
      </trkpt>
      <trkpt lat="44.25826" lon="7.04575">
        <ele>1671.5999755859</ele>
        <time>2018-05-09T06:12:23.000Z</time>
      </trkpt>
      <trkpt lat="44.25825" lon="7.04576">
        <ele>1671.8000488281</ele>
        <time>2018-05-09T06:12:24.000Z</time>
      </trkpt>
      <trkpt lat="44.25825" lon="7.04578">
        <ele>1672</ele>
        <time>2018-05-09T06:12:26.000Z</time>
      </trkpt>
      <trkpt lat="44.25828" lon="7.04578">
        <ele>1672.4000244141</ele>
        <time>2018-05-09T06:12:30.000Z</time>
      </trkpt>
      <trkpt lat="44.25826" lon="7.04577">
        <ele>1672.8000488281</ele>
        <time>2018-05-09T06:12:47.000Z</time>
      </trkpt>
      <trkpt lat="44.25824" lon="7.0458">
        <ele>1673</ele>
        <time>2018-05-09T06:12:52.000Z</time>
      </trkpt>
      <trkpt lat="44.25824" lon="7.04582">
        <ele>1673</ele>
        <time>2018-05-09T06:12:53.000Z</time>
      </trkpt>
      <trkpt lat="44.25822" lon="7.04586">
        <ele>1673.5999755859</ele>
        <time>2018-05-09T06:12:56.000Z</time>
      </trkpt>
      <trkpt lat="44.25822" lon="7.04587">
        <ele>1674.1999511719</ele>
        <time>2018-05-09T06:12:58.000Z</time>
      </trkpt>
      <trkpt lat="44.25819" lon="7.0459">
        <ele>1674.5999755859</ele>
        <time>2018-05-09T06:13:02.000Z</time>
      </trkpt>
      <trkpt lat="44.25817" lon="7.0459">
        <ele>1675.1999511719</ele>
        <time>2018-05-09T06:13:06.000Z</time>
      </trkpt>
      <trkpt lat="44.25816" lon="7.04592">
        <ele>1675.5999755859</ele>
        <time>2018-05-09T06:13:16.000Z</time>
      </trkpt>
      <trkpt lat="44.25813" lon="7.04594">
        <ele>1675.8000488281</ele>
        <time>2018-05-09T06:13:20.000Z</time>
      </trkpt>
      <trkpt lat="44.2581" lon="7.04597">
        <ele>1676.1999511719</ele>
        <time>2018-05-09T06:13:23.000Z</time>
      </trkpt>
      <trkpt lat="44.2581" lon="7.04597">
        <ele>1676.4000244141</ele>
        <time>2018-05-09T06:13:24.000Z</time>
      </trkpt>
      <trkpt lat="44.25808" lon="7.04602">
        <ele>1677.1999511719</ele>
        <time>2018-05-09T06:13:30.000Z</time>
      </trkpt>
      <trkpt lat="44.25808" lon="7.04603">
        <ele>1677.4000244141</ele>
        <time>2018-05-09T06:13:31.000Z</time>
      </trkpt>
      <trkpt lat="44.25807" lon="7.04606">
        <ele>1677.8000488281</ele>
        <time>2018-05-09T06:13:33.000Z</time>
      </trkpt>
      <trkpt lat="44.25807" lon="7.04608">
        <ele>1678</ele>
        <time>2018-05-09T06:13:35.000Z</time>
      </trkpt>
      <trkpt lat="44.25809" lon="7.0461">
        <ele>1678.4000244141</ele>
        <time>2018-05-09T06:13:38.000Z</time>
      </trkpt>
      <trkpt lat="44.25808" lon="7.04612">
        <ele>1678.5999755859</ele>
        <time>2018-05-09T06:13:40.000Z</time>
      </trkpt>
      <trkpt lat="44.25804" lon="7.04617">
        <ele>1678.8000488281</ele>
        <time>2018-05-09T06:13:45.000Z</time>
      </trkpt>
      <trkpt lat="44.25802" lon="7.0462">
        <ele>1679</ele>
        <time>2018-05-09T06:13:48.000Z</time>
      </trkpt>
      <trkpt lat="44.25801" lon="7.04622">
        <ele>1679.5999755859</ele>
        <time>2018-05-09T06:13:51.000Z</time>
      </trkpt>
      <trkpt lat="44.25802" lon="7.04622">
        <ele>1679.5999755859</ele>
        <time>2018-05-09T06:13:52.000Z</time>
      </trkpt>
      <trkpt lat="44.258" lon="7.04624">
        <ele>1679.8000488281</ele>
        <time>2018-05-09T06:13:56.000Z</time>
      </trkpt>
      <trkpt lat="44.25799" lon="7.04625">
        <ele>1680.5999755859</ele>
        <time>2018-05-09T06:14:01.000Z</time>
      </trkpt>
      <trkpt lat="44.25799" lon="7.04625">
        <ele>1680.5999755859</ele>
        <time>2018-05-09T06:14:02.000Z</time>
      </trkpt>
      <trkpt lat="44.25798" lon="7.04624">
        <ele>1680.5999755859</ele>
        <time>2018-05-09T06:14:11.000Z</time>
      </trkpt>
      <trkpt lat="44.25796" lon="7.04626">
        <ele>1681.1999511719</ele>
        <time>2018-05-09T06:14:17.000Z</time>
      </trkpt>
      <trkpt lat="44.25795" lon="7.04628">
        <ele>1681.1999511719</ele>
        <time>2018-05-09T06:14:18.000Z</time>
      </trkpt>
      <trkpt lat="44.25793" lon="7.04631">
        <ele>1681.5999755859</ele>
        <time>2018-05-09T06:14:20.000Z</time>
      </trkpt>
      <trkpt lat="44.2579" lon="7.04635">
        <ele>1682.5999755859</ele>
        <time>2018-05-09T06:14:26.000Z</time>
      </trkpt>
      <trkpt lat="44.2579" lon="7.04636">
        <ele>1682.5999755859</ele>
        <time>2018-05-09T06:14:27.000Z</time>
      </trkpt>
      <trkpt lat="44.25789" lon="7.04637">
        <ele>1682.8000488281</ele>
        <time>2018-05-09T06:14:28.000Z</time>
      </trkpt>
      <trkpt lat="44.25788" lon="7.04639">
        <ele>1683.4000244141</ele>
        <time>2018-05-09T06:14:31.000Z</time>
      </trkpt>
      <trkpt lat="44.25787" lon="7.0464">
        <ele>1683.8000488281</ele>
        <time>2018-05-09T06:14:33.000Z</time>
      </trkpt>
      <trkpt lat="44.25786" lon="7.04642">
        <ele>1684.1999511719</ele>
        <time>2018-05-09T06:14:36.000Z</time>
      </trkpt>
      <trkpt lat="44.25786" lon="7.04645">
        <ele>1684.8000488281</ele>
        <time>2018-05-09T06:14:41.000Z</time>
      </trkpt>
      <trkpt lat="44.25787" lon="7.04659">
        <ele>1686</ele>
        <time>2018-05-09T06:14:51.000Z</time>
      </trkpt>
      <trkpt lat="44.25788" lon="7.04662">
        <ele>1686.5999755859</ele>
        <time>2018-05-09T06:14:57.000Z</time>
      </trkpt>
      <trkpt lat="44.25786" lon="7.0466">
        <ele>1686.5999755859</ele>
        <time>2018-05-09T06:15:17.000Z</time>
      </trkpt>
      <trkpt lat="44.25788" lon="7.04657">
        <ele>1686.5999755859</ele>
        <time>2018-05-09T06:15:23.000Z</time>
      </trkpt>
      <trkpt lat="44.25787" lon="7.04656">
        <ele>1686.5999755859</ele>
        <time>2018-05-09T06:15:25.000Z</time>
      </trkpt>
      <trkpt lat="44.25787" lon="7.04655">
        <ele>1686.5999755859</ele>
        <time>2018-05-09T06:15:26.000Z</time>
      </trkpt>
      <trkpt lat="44.25786" lon="7.04655">
        <ele>1686.5999755859</ele>
        <time>2018-05-09T06:15:27.000Z</time>
      </trkpt>
      <trkpt lat="44.25786" lon="7.04655">
        <ele>1686.5999755859</ele>
        <time>2018-05-09T06:15:29.000Z</time>
      </trkpt>
      <trkpt lat="44.25783" lon="7.04649">
        <ele>1685.4000244141</ele>
        <time>2018-05-09T06:15:34.000Z</time>
      </trkpt>
      <trkpt lat="44.25784" lon="7.04649">
        <ele>1685.4000244141</ele>
        <time>2018-05-09T06:15:36.000Z</time>
      </trkpt>
      <trkpt lat="44.25786" lon="7.04649">
        <ele>1685.4000244141</ele>
        <time>2018-05-09T06:15:37.000Z</time>
      </trkpt>
      <trkpt lat="44.25784" lon="7.0465">
        <ele>1685.4000244141</ele>
        <time>2018-05-09T06:15:40.000Z</time>
      </trkpt>
      <trkpt lat="44.25784" lon="7.0465">
        <ele>1685.4000244141</ele>
        <time>2018-05-09T06:15:41.000Z</time>
      </trkpt>
      <trkpt lat="44.25783" lon="7.04648">
        <ele>1685.4000244141</ele>
        <time>2018-05-09T06:15:46.000Z</time>
      </trkpt>
      <trkpt lat="44.25783" lon="7.04647">
        <ele>1685.4000244141</ele>
        <time>2018-05-09T06:15:47.000Z</time>
      </trkpt>
      <trkpt lat="44.25783" lon="7.04646">
        <ele>1685.4000244141</ele>
        <time>2018-05-09T06:15:48.000Z</time>
      </trkpt>
      <trkpt lat="44.25781" lon="7.04656">
        <ele>1685.1999511719</ele>
        <time>2018-05-09T06:16:00.000Z</time>
      </trkpt>
      <trkpt lat="44.25779" lon="7.04658">
        <ele>1685.1999511719</ele>
        <time>2018-05-09T06:16:01.000Z</time>
      </trkpt>
      <trkpt lat="44.25781" lon="7.04664">
        <ele>1685.4000244141</ele>
        <time>2018-05-09T06:16:05.000Z</time>
      </trkpt>
      <trkpt lat="44.25781" lon="7.0467">
        <ele>1685.8000488281</ele>
        <time>2018-05-09T06:16:08.000Z</time>
      </trkpt>
      <trkpt lat="44.25783" lon="7.04674">
        <ele>1685.8000488281</ele>
        <time>2018-05-09T06:16:10.000Z</time>
      </trkpt>
      <trkpt lat="44.25782" lon="7.04674">
        <ele>1685.8000488281</ele>
        <time>2018-05-09T06:16:11.000Z</time>
      </trkpt>
      <trkpt lat="44.25782" lon="7.04677">
        <ele>1686</ele>
        <time>2018-05-09T06:16:13.000Z</time>
      </trkpt>
      <trkpt lat="44.25783" lon="7.04678">
        <ele>1686</ele>
        <time>2018-05-09T06:16:14.000Z</time>
      </trkpt>
      <trkpt lat="44.25785" lon="7.0468">
        <ele>1686.1999511719</ele>
        <time>2018-05-09T06:16:18.000Z</time>
      </trkpt>
      <trkpt lat="44.25785" lon="7.04681">
        <ele>1686.1999511719</ele>
        <time>2018-05-09T06:16:19.000Z</time>
      </trkpt>
      <trkpt lat="44.25783" lon="7.04684">
        <ele>1686.1999511719</ele>
        <time>2018-05-09T06:16:21.000Z</time>
      </trkpt>
      <trkpt lat="44.25782" lon="7.04686">
        <ele>1686.5999755859</ele>
        <time>2018-05-09T06:16:23.000Z</time>
      </trkpt>
      <trkpt lat="44.25781" lon="7.04689">
        <ele>1687.1999511719</ele>
        <time>2018-05-09T06:16:26.000Z</time>
      </trkpt>
      <trkpt lat="44.25779" lon="7.04692">
        <ele>1687.5999755859</ele>
        <time>2018-05-09T06:16:28.000Z</time>
      </trkpt>
      <trkpt lat="44.25776" lon="7.04696">
        <ele>1688.1999511719</ele>
        <time>2018-05-09T06:16:32.000Z</time>
      </trkpt>
      <trkpt lat="44.25771" lon="7.04699">
        <ele>1688.5999755859</ele>
        <time>2018-05-09T06:16:36.000Z</time>
      </trkpt>
      <trkpt lat="44.25768" lon="7.04705">
        <ele>1689.1999511719</ele>
        <time>2018-05-09T06:16:42.000Z</time>
      </trkpt>
      <trkpt lat="44.25769" lon="7.04707">
        <ele>1689.1999511719</ele>
        <time>2018-05-09T06:16:43.000Z</time>
      </trkpt>
      <trkpt lat="44.25768" lon="7.04708">
        <ele>1689.4000244141</ele>
        <time>2018-05-09T06:16:44.000Z</time>
      </trkpt>
      <trkpt lat="44.25768" lon="7.0471">
        <ele>1689.5999755859</ele>
        <time>2018-05-09T06:16:46.000Z</time>
      </trkpt>
      <trkpt lat="44.25767" lon="7.04713">
        <ele>1690.4000244141</ele>
        <time>2018-05-09T06:16:50.000Z</time>
      </trkpt>
      <trkpt lat="44.25769" lon="7.04722">
        <ele>1690.8000488281</ele>
        <time>2018-05-09T06:16:55.000Z</time>
      </trkpt>
      <trkpt lat="44.25769" lon="7.04724">
        <ele>1691</ele>
        <time>2018-05-09T06:16:57.000Z</time>
      </trkpt>
      <trkpt lat="44.2577" lon="7.04727">
        <ele>1691.4000244141</ele>
        <time>2018-05-09T06:17:00.000Z</time>
      </trkpt>
      <trkpt lat="44.25769" lon="7.04729">
        <ele>1691.8000488281</ele>
        <time>2018-05-09T06:17:02.000Z</time>
      </trkpt>
      <trkpt lat="44.2577" lon="7.04731">
        <ele>1692</ele>
        <time>2018-05-09T06:17:04.000Z</time>
      </trkpt>
      <trkpt lat="44.25771" lon="7.04733">
        <ele>1692.1999511719</ele>
        <time>2018-05-09T06:17:06.000Z</time>
      </trkpt>
      <trkpt lat="44.25769" lon="7.04734">
        <ele>1692.4000244141</ele>
        <time>2018-05-09T06:17:08.000Z</time>
      </trkpt>
      <trkpt lat="44.25766" lon="7.04741">
        <ele>1693</ele>
        <time>2018-05-09T06:17:15.000Z</time>
      </trkpt>
      <trkpt lat="44.25765" lon="7.04741">
        <ele>1693</ele>
        <time>2018-05-09T06:17:16.000Z</time>
      </trkpt>
      <trkpt lat="44.25763" lon="7.04743">
        <ele>1693.4000244141</ele>
        <time>2018-05-09T06:17:20.000Z</time>
      </trkpt>
      <trkpt lat="44.25762" lon="7.04743">
        <ele>1693.4000244141</ele>
        <time>2018-05-09T06:17:21.000Z</time>
      </trkpt>
      <trkpt lat="44.2576" lon="7.04744">
        <ele>1693.8000488281</ele>
        <time>2018-05-09T06:17:25.000Z</time>
      </trkpt>
      <trkpt lat="44.25758" lon="7.04745">
        <ele>1694.1999511719</ele>
        <time>2018-05-09T06:17:28.000Z</time>
      </trkpt>
      <trkpt lat="44.25755" lon="7.04747">
        <ele>1694.5999755859</ele>
        <time>2018-05-09T06:17:32.000Z</time>
      </trkpt>
      <trkpt lat="44.25754" lon="7.04748">
        <ele>1694.8000488281</ele>
        <time>2018-05-09T06:17:33.000Z</time>
      </trkpt>
      <trkpt lat="44.25753" lon="7.04748">
        <ele>1694.8000488281</ele>
        <time>2018-05-09T06:17:34.000Z</time>
      </trkpt>
      <trkpt lat="44.25752" lon="7.04748">
        <ele>1694.8000488281</ele>
        <time>2018-05-09T06:17:35.000Z</time>
      </trkpt>
      <trkpt lat="44.2575" lon="7.04752">
        <ele>1695.1999511719</ele>
        <time>2018-05-09T06:17:41.000Z</time>
      </trkpt>
      <trkpt lat="44.25748" lon="7.04754">
        <ele>1695.5999755859</ele>
        <time>2018-05-09T06:17:43.000Z</time>
      </trkpt>
      <trkpt lat="44.25747" lon="7.04761">
        <ele>1696.4000244141</ele>
        <time>2018-05-09T06:17:51.000Z</time>
      </trkpt>
      <trkpt lat="44.25744" lon="7.04763">
        <ele>1696.8000488281</ele>
        <time>2018-05-09T06:17:54.000Z</time>
      </trkpt>
      <trkpt lat="44.25743" lon="7.04766">
        <ele>1697</ele>
        <time>2018-05-09T06:17:56.000Z</time>
      </trkpt>
      <trkpt lat="44.25742" lon="7.04769">
        <ele>1697.1999511719</ele>
        <time>2018-05-09T06:17:59.000Z</time>
      </trkpt>
      <trkpt lat="44.25742" lon="7.04774">
        <ele>1697.8000488281</ele>
        <time>2018-05-09T06:18:03.000Z</time>
      </trkpt>
      <trkpt lat="44.25738" lon="7.04782">
        <ele>1698.8000488281</ele>
        <time>2018-05-09T06:18:12.000Z</time>
      </trkpt>
      <trkpt lat="44.25737" lon="7.04783">
        <ele>1699</ele>
        <time>2018-05-09T06:18:13.000Z</time>
      </trkpt>
      <trkpt lat="44.25731" lon="7.04791">
        <ele>1700</ele>
        <time>2018-05-09T06:18:20.000Z</time>
      </trkpt>
      <trkpt lat="44.2573" lon="7.04792">
        <ele>1700.1999511719</ele>
        <time>2018-05-09T06:18:23.000Z</time>
      </trkpt>
      <trkpt lat="44.25722" lon="7.04793">
        <ele>1701</ele>
        <time>2018-05-09T06:18:30.000Z</time>
      </trkpt>
      <trkpt lat="44.25717" lon="7.04798">
        <ele>1701.8000488281</ele>
        <time>2018-05-09T06:18:38.000Z</time>
      </trkpt>
      <trkpt lat="44.25716" lon="7.048">
        <ele>1702</ele>
        <time>2018-05-09T06:18:40.000Z</time>
      </trkpt>
      <trkpt lat="44.25715" lon="7.04801">
        <ele>1702</ele>
        <time>2018-05-09T06:18:41.000Z</time>
      </trkpt>
      <trkpt lat="44.25715" lon="7.04801">
        <ele>1702.8000488281</ele>
        <time>2018-05-09T06:18:47.000Z</time>
      </trkpt>
      <trkpt lat="44.25713" lon="7.04802">
        <ele>1703</ele>
        <time>2018-05-09T06:18:49.000Z</time>
      </trkpt>
      <trkpt lat="44.25713" lon="7.04803">
        <ele>1703.1999511719</ele>
        <time>2018-05-09T06:18:51.000Z</time>
      </trkpt>
      <trkpt lat="44.25709" lon="7.04808">
        <ele>1704</ele>
        <time>2018-05-09T06:18:58.000Z</time>
      </trkpt>
      <trkpt lat="44.25703" lon="7.04811">
        <ele>1704.5999755859</ele>
        <time>2018-05-09T06:19:04.000Z</time>
      </trkpt>
      <trkpt lat="44.25702" lon="7.04812">
        <ele>1705.1999511719</ele>
        <time>2018-05-09T06:19:07.000Z</time>
      </trkpt>
      <trkpt lat="44.25691" lon="7.04812">
        <ele>1706.1999511719</ele>
        <time>2018-05-09T06:19:16.000Z</time>
      </trkpt>
      <trkpt lat="44.25687" lon="7.04808">
        <ele>1706.8000488281</ele>
        <time>2018-05-09T06:19:22.000Z</time>
      </trkpt>
      <trkpt lat="44.25684" lon="7.04809">
        <ele>1707.1999511719</ele>
        <time>2018-05-09T06:19:26.000Z</time>
      </trkpt>
      <trkpt lat="44.2568" lon="7.0481">
        <ele>1707.5999755859</ele>
        <time>2018-05-09T06:19:31.000Z</time>
      </trkpt>
      <trkpt lat="44.25679" lon="7.04811">
        <ele>1707.5999755859</ele>
        <time>2018-05-09T06:19:32.000Z</time>
      </trkpt>
      <trkpt lat="44.25678" lon="7.04812">
        <ele>1707.8000488281</ele>
        <time>2018-05-09T06:19:33.000Z</time>
      </trkpt>
      <trkpt lat="44.25678" lon="7.04814">
        <ele>1708</ele>
        <time>2018-05-09T06:19:35.000Z</time>
      </trkpt>
      <trkpt lat="44.25677" lon="7.04815">
        <ele>1708.1999511719</ele>
        <time>2018-05-09T06:19:36.000Z</time>
      </trkpt>
      <trkpt lat="44.25677" lon="7.04815">
        <ele>1708.1999511719</ele>
        <time>2018-05-09T06:19:37.000Z</time>
      </trkpt>
      <trkpt lat="44.25673" lon="7.04817">
        <ele>1709.4000244141</ele>
        <time>2018-05-09T06:19:45.000Z</time>
      </trkpt>
      <trkpt lat="44.25671" lon="7.04819">
        <ele>1709.5999755859</ele>
        <time>2018-05-09T06:19:47.000Z</time>
      </trkpt>
      <trkpt lat="44.2567" lon="7.04819">
        <ele>1709.8000488281</ele>
        <time>2018-05-09T06:19:48.000Z</time>
      </trkpt>
      <trkpt lat="44.25668" lon="7.04822">
        <ele>1710.4000244141</ele>
        <time>2018-05-09T06:19:53.000Z</time>
      </trkpt>
      <trkpt lat="44.25665" lon="7.04824">
        <ele>1710.8000488281</ele>
        <time>2018-05-09T06:19:56.000Z</time>
      </trkpt>
      <trkpt lat="44.25664" lon="7.04826">
        <ele>1711</ele>
        <time>2018-05-09T06:19:58.000Z</time>
      </trkpt>
      <trkpt lat="44.25662" lon="7.04828">
        <ele>1711.4000244141</ele>
        <time>2018-05-09T06:20:03.000Z</time>
      </trkpt>
      <trkpt lat="44.25661" lon="7.04829">
        <ele>1711.5999755859</ele>
        <time>2018-05-09T06:20:04.000Z</time>
      </trkpt>
      <trkpt lat="44.25661" lon="7.04835">
        <ele>1711.8000488281</ele>
        <time>2018-05-09T06:20:09.000Z</time>
      </trkpt>
      <trkpt lat="44.2566" lon="7.04832">
        <ele>1712.5999755859</ele>
        <time>2018-05-09T06:20:20.000Z</time>
      </trkpt>
      <trkpt lat="44.25656" lon="7.04833">
        <ele>1713.1999511719</ele>
        <time>2018-05-09T06:20:26.000Z</time>
      </trkpt>
      <trkpt lat="44.25655" lon="7.04834">
        <ele>1713.1999511719</ele>
        <time>2018-05-09T06:20:27.000Z</time>
      </trkpt>
      <trkpt lat="44.25654" lon="7.04834">
        <ele>1713.5999755859</ele>
        <time>2018-05-09T06:20:29.000Z</time>
      </trkpt>
      <trkpt lat="44.25654" lon="7.04837">
        <ele>1713.8000488281</ele>
        <time>2018-05-09T06:20:32.000Z</time>
      </trkpt>
      <trkpt lat="44.2565" lon="7.04843">
        <ele>1714.5999755859</ele>
        <time>2018-05-09T06:20:41.000Z</time>
      </trkpt>
      <trkpt lat="44.25649" lon="7.04847">
        <ele>1715</ele>
        <time>2018-05-09T06:20:46.000Z</time>
      </trkpt>
      <trkpt lat="44.25648" lon="7.04848">
        <ele>1715.1999511719</ele>
        <time>2018-05-09T06:20:48.000Z</time>
      </trkpt>
      <trkpt lat="44.25646" lon="7.04853">
        <ele>1715.5999755859</ele>
        <time>2018-05-09T06:20:53.000Z</time>
      </trkpt>
      <trkpt lat="44.25644" lon="7.04856">
        <ele>1715.8000488281</ele>
        <time>2018-05-09T06:20:56.000Z</time>
      </trkpt>
      <trkpt lat="44.25644" lon="7.04856">
        <ele>1716</ele>
        <time>2018-05-09T06:20:57.000Z</time>
      </trkpt>
      <trkpt lat="44.25642" lon="7.04857">
        <ele>1716.1999511719</ele>
        <time>2018-05-09T06:20:59.000Z</time>
      </trkpt>
      <trkpt lat="44.25642" lon="7.04857">
        <ele>1716.4000244141</ele>
        <time>2018-05-09T06:21:00.000Z</time>
      </trkpt>
      <trkpt lat="44.25641" lon="7.04858">
        <ele>1716.5999755859</ele>
        <time>2018-05-09T06:21:02.000Z</time>
      </trkpt>
      <trkpt lat="44.25641" lon="7.04858">
        <ele>1716.5999755859</ele>
        <time>2018-05-09T06:21:03.000Z</time>
      </trkpt>
      <trkpt lat="44.2564" lon="7.04859">
        <ele>1716.5999755859</ele>
        <time>2018-05-09T06:21:04.000Z</time>
      </trkpt>
      <trkpt lat="44.25637" lon="7.04864">
        <ele>1717.4000244141</ele>
        <time>2018-05-09T06:21:11.000Z</time>
      </trkpt>
      <trkpt lat="44.25637" lon="7.04864">
        <ele>1717.5999755859</ele>
        <time>2018-05-09T06:21:13.000Z</time>
      </trkpt>
      <trkpt lat="44.25635" lon="7.04863">
        <ele>1717.5999755859</ele>
        <time>2018-05-09T06:21:15.000Z</time>
      </trkpt>
      <trkpt lat="44.2563" lon="7.04867">
        <ele>1718.8000488281</ele>
        <time>2018-05-09T06:21:23.000Z</time>
      </trkpt>
      <trkpt lat="44.25626" lon="7.04868">
        <ele>1719</ele>
        <time>2018-05-09T06:21:27.000Z</time>
      </trkpt>
      <trkpt lat="44.25621" lon="7.04869">
        <ele>1719.4000244141</ele>
        <time>2018-05-09T06:21:33.000Z</time>
      </trkpt>
      <trkpt lat="44.25621" lon="7.0487">
        <ele>1719.8000488281</ele>
        <time>2018-05-09T06:21:35.000Z</time>
      </trkpt>
      <trkpt lat="44.25621" lon="7.0487">
        <ele>1720</ele>
        <time>2018-05-09T06:21:36.000Z</time>
      </trkpt>
      <trkpt lat="44.25616" lon="7.04876">
        <ele>1720.8000488281</ele>
        <time>2018-05-09T06:21:42.000Z</time>
      </trkpt>
      <trkpt lat="44.25614" lon="7.04879">
        <ele>1721</ele>
        <time>2018-05-09T06:21:44.000Z</time>
      </trkpt>
      <trkpt lat="44.25611" lon="7.04881">
        <ele>1721.4000244141</ele>
        <time>2018-05-09T06:21:47.000Z</time>
      </trkpt>
      <trkpt lat="44.2561" lon="7.04882">
        <ele>1721.5999755859</ele>
        <time>2018-05-09T06:21:49.000Z</time>
      </trkpt>
      <trkpt lat="44.2561" lon="7.04883">
        <ele>1721.8000488281</ele>
        <time>2018-05-09T06:21:51.000Z</time>
      </trkpt>
      <trkpt lat="44.25609" lon="7.04884">
        <ele>1721.8000488281</ele>
        <time>2018-05-09T06:21:52.000Z</time>
      </trkpt>
      <trkpt lat="44.25609" lon="7.04883">
        <ele>1722</ele>
        <time>2018-05-09T06:21:54.000Z</time>
      </trkpt>
      <trkpt lat="44.25606" lon="7.04885">
        <ele>1722.5999755859</ele>
        <time>2018-05-09T06:21:59.000Z</time>
      </trkpt>
      <trkpt lat="44.25605" lon="7.04884">
        <ele>1722.5999755859</ele>
        <time>2018-05-09T06:22:00.000Z</time>
      </trkpt>
      <trkpt lat="44.256" lon="7.04884">
        <ele>1723</ele>
        <time>2018-05-09T06:22:05.000Z</time>
      </trkpt>
      <trkpt lat="44.25603" lon="7.04898">
        <ele>1723.5999755859</ele>
        <time>2018-05-09T06:22:13.000Z</time>
      </trkpt>
      <trkpt lat="44.25602" lon="7.04897">
        <ele>1723.8000488281</ele>
        <time>2018-05-09T06:22:15.000Z</time>
      </trkpt>
      <trkpt lat="44.256" lon="7.04898">
        <ele>1724.1999511719</ele>
        <time>2018-05-09T06:22:18.000Z</time>
      </trkpt>
      <trkpt lat="44.25595" lon="7.04899">
        <ele>1725.1999511719</ele>
        <time>2018-05-09T06:22:29.000Z</time>
      </trkpt>
      <trkpt lat="44.25595" lon="7.04902">
        <ele>1726.1999511719</ele>
        <time>2018-05-09T06:22:37.000Z</time>
      </trkpt>
      <trkpt lat="44.25597" lon="7.04903">
        <ele>1726.1999511719</ele>
        <time>2018-05-09T06:22:38.000Z</time>
      </trkpt>
      <trkpt lat="44.25599" lon="7.04907">
        <ele>1727.1999511719</ele>
        <time>2018-05-09T06:22:49.000Z</time>
      </trkpt>
      <trkpt lat="44.25599" lon="7.04907">
        <ele>1727.4000244141</ele>
        <time>2018-05-09T06:22:50.000Z</time>
      </trkpt>
      <trkpt lat="44.256" lon="7.0491">
        <ele>1727.4000244141</ele>
        <time>2018-05-09T06:22:52.000Z</time>
      </trkpt>
      <trkpt lat="44.25597" lon="7.04913">
        <ele>1727.5999755859</ele>
        <time>2018-05-09T06:22:56.000Z</time>
      </trkpt>
      <trkpt lat="44.2559" lon="7.04917">
        <ele>1728.4000244141</ele>
        <time>2018-05-09T06:23:02.000Z</time>
      </trkpt>
      <trkpt lat="44.25589" lon="7.04919">
        <ele>1728.5999755859</ele>
        <time>2018-05-09T06:23:03.000Z</time>
      </trkpt>
      <trkpt lat="44.25588" lon="7.04922">
        <ele>1728.5999755859</ele>
        <time>2018-05-09T06:23:05.000Z</time>
      </trkpt>
      <trkpt lat="44.25586" lon="7.04925">
        <ele>1729</ele>
        <time>2018-05-09T06:23:07.000Z</time>
      </trkpt>
      <trkpt lat="44.25586" lon="7.04926">
        <ele>1729.1999511719</ele>
        <time>2018-05-09T06:23:10.000Z</time>
      </trkpt>
      <trkpt lat="44.25586" lon="7.04927">
        <ele>1729.4000244141</ele>
        <time>2018-05-09T06:23:11.000Z</time>
      </trkpt>
      <trkpt lat="44.25585" lon="7.04928">
        <ele>1729.5999755859</ele>
        <time>2018-05-09T06:23:14.000Z</time>
      </trkpt>
      <trkpt lat="44.25581" lon="7.04932">
        <ele>1730.5999755859</ele>
        <time>2018-05-09T06:23:21.000Z</time>
      </trkpt>
      <trkpt lat="44.25578" lon="7.04936">
        <ele>1730.8000488281</ele>
        <time>2018-05-09T06:23:24.000Z</time>
      </trkpt>
      <trkpt lat="44.25578" lon="7.04937">
        <ele>1731.4000244141</ele>
        <time>2018-05-09T06:23:31.000Z</time>
      </trkpt>
      <trkpt lat="44.25579" lon="7.04939">
        <ele>1731.5999755859</ele>
        <time>2018-05-09T06:23:33.000Z</time>
      </trkpt>
      <trkpt lat="44.25578" lon="7.04941">
        <ele>1731.8000488281</ele>
        <time>2018-05-09T06:23:35.000Z</time>
      </trkpt>
      <trkpt lat="44.25578" lon="7.04942">
        <ele>1731.8000488281</ele>
        <time>2018-05-09T06:23:36.000Z</time>
      </trkpt>
      <trkpt lat="44.25571" lon="7.04951">
        <ele>1732.4000244141</ele>
        <time>2018-05-09T06:23:43.000Z</time>
      </trkpt>
      <trkpt lat="44.2557" lon="7.04953">
        <ele>1732.5999755859</ele>
        <time>2018-05-09T06:23:45.000Z</time>
      </trkpt>
      <trkpt lat="44.25568" lon="7.04953">
        <ele>1732.8000488281</ele>
        <time>2018-05-09T06:23:48.000Z</time>
      </trkpt>
      <trkpt lat="44.25563" lon="7.0496">
        <ele>1733.5999755859</ele>
        <time>2018-05-09T06:23:56.000Z</time>
      </trkpt>
      <trkpt lat="44.25562" lon="7.04962">
        <ele>1733.5999755859</ele>
        <time>2018-05-09T06:23:57.000Z</time>
      </trkpt>
      <trkpt lat="44.25562" lon="7.04964">
        <ele>1734.4000244141</ele>
        <time>2018-05-09T06:24:02.000Z</time>
      </trkpt>
      <trkpt lat="44.25561" lon="7.04965">
        <ele>1734.8000488281</ele>
        <time>2018-05-09T06:24:04.000Z</time>
      </trkpt>
      <trkpt lat="44.25561" lon="7.04966">
        <ele>1735</ele>
        <time>2018-05-09T06:24:06.000Z</time>
      </trkpt>
      <trkpt lat="44.25557" lon="7.0496">
        <ele>1735.4000244141</ele>
        <time>2018-05-09T06:24:21.000Z</time>
      </trkpt>
      <trkpt lat="44.25555" lon="7.04959">
        <ele>1735.1999511719</ele>
        <time>2018-05-09T06:24:29.000Z</time>
      </trkpt>
      <trkpt lat="44.25555" lon="7.04959">
        <ele>1735.1999511719</ele>
        <time>2018-05-09T06:24:30.000Z</time>
      </trkpt>
      <trkpt lat="44.25556" lon="7.04959">
        <ele>1735.4000244141</ele>
        <time>2018-05-09T06:24:31.000Z</time>
      </trkpt>
      <trkpt lat="44.25556" lon="7.04959">
        <ele>1735.4000244141</ele>
        <time>2018-05-09T06:24:32.000Z</time>
      </trkpt>
      <trkpt lat="44.2556" lon="7.04962">
        <ele>1735.5999755859</ele>
        <time>2018-05-09T06:24:45.000Z</time>
      </trkpt>
      <trkpt lat="44.2556" lon="7.04963">
        <ele>1735.4000244141</ele>
        <time>2018-05-09T06:24:47.000Z</time>
      </trkpt>
      <trkpt lat="44.25559" lon="7.04966">
        <ele>1735.5999755859</ele>
        <time>2018-05-09T06:24:54.000Z</time>
      </trkpt>
      <trkpt lat="44.25558" lon="7.04966">
        <ele>1735.4000244141</ele>
        <time>2018-05-09T06:24:56.000Z</time>
      </trkpt>
      <trkpt lat="44.25556" lon="7.04956">
        <ele>1735.1999511719</ele>
        <time>2018-05-09T06:25:06.000Z</time>
      </trkpt>
      <trkpt lat="44.25552" lon="7.04961">
        <ele>1735.4000244141</ele>
        <time>2018-05-09T06:25:17.000Z</time>
      </trkpt>
      <trkpt lat="44.25558" lon="7.04956">
        <ele>1735.1999511719</ele>
        <time>2018-05-09T06:25:25.000Z</time>
      </trkpt>
      <trkpt lat="44.2557" lon="7.04962">
        <ele>1735.1999511719</ele>
        <time>2018-05-09T06:25:32.000Z</time>
      </trkpt>
      <trkpt lat="44.2557" lon="7.04962">
        <ele>1735.4000244141</ele>
        <time>2018-05-09T06:25:33.000Z</time>
      </trkpt>
      <trkpt lat="44.2557" lon="7.04963">
        <ele>1735.5999755859</ele>
        <time>2018-05-09T06:25:35.000Z</time>
      </trkpt>
      <trkpt lat="44.2557" lon="7.04964">
        <ele>1735.5999755859</ele>
        <time>2018-05-09T06:25:37.000Z</time>
      </trkpt>
      <trkpt lat="44.25564" lon="7.04967">
        <ele>1735.4000244141</ele>
        <time>2018-05-09T06:25:45.000Z</time>
      </trkpt>
      <trkpt lat="44.25562" lon="7.04968">
        <ele>1735.5999755859</ele>
        <time>2018-05-09T06:25:48.000Z</time>
      </trkpt>
      <trkpt lat="44.25561" lon="7.04968">
        <ele>1735.5999755859</ele>
        <time>2018-05-09T06:25:49.000Z</time>
      </trkpt>
      <trkpt lat="44.2556" lon="7.04968">
        <ele>1735.5999755859</ele>
        <time>2018-05-09T06:25:50.000Z</time>
      </trkpt>
      <trkpt lat="44.25558" lon="7.04966">
        <ele>1735.8000488281</ele>
        <time>2018-05-09T06:25:52.000Z</time>
      </trkpt>
      <trkpt lat="44.25558" lon="7.04965">
        <ele>1735.8000488281</ele>
        <time>2018-05-09T06:25:53.000Z</time>
      </trkpt>
      <trkpt lat="44.25552" lon="7.04958">
        <ele>1735.8000488281</ele>
        <time>2018-05-09T06:25:59.000Z</time>
      </trkpt>
      <trkpt lat="44.25557" lon="7.0494">
        <ele>1736</ele>
        <time>2018-05-09T06:26:11.000Z</time>
      </trkpt>
      <trkpt lat="44.25557" lon="7.04936">
        <ele>1736.4000244141</ele>
        <time>2018-05-09T06:26:14.000Z</time>
      </trkpt>
      <trkpt lat="44.25557" lon="7.04933">
        <ele>1737</ele>
        <time>2018-05-09T06:26:16.000Z</time>
      </trkpt>
      <trkpt lat="44.25557" lon="7.04931">
        <ele>1737.1999511719</ele>
        <time>2018-05-09T06:26:17.000Z</time>
      </trkpt>
      <trkpt lat="44.25556" lon="7.04929">
        <ele>1737.5999755859</ele>
        <time>2018-05-09T06:26:19.000Z</time>
      </trkpt>
      <trkpt lat="44.25556" lon="7.04924">
        <ele>1737.8000488281</ele>
        <time>2018-05-09T06:26:23.000Z</time>
      </trkpt>
      <trkpt lat="44.25559" lon="7.0492">
        <ele>1737.8000488281</ele>
        <time>2018-05-09T06:26:26.000Z</time>
      </trkpt>
      <trkpt lat="44.2556" lon="7.04917">
        <ele>1737.8000488281</ele>
        <time>2018-05-09T06:26:28.000Z</time>
      </trkpt>
      <trkpt lat="44.25559" lon="7.04913">
        <ele>1737.8000488281</ele>
        <time>2018-05-09T06:26:30.000Z</time>
      </trkpt>
      <trkpt lat="44.25559" lon="7.04911">
        <ele>1738</ele>
        <time>2018-05-09T06:26:31.000Z</time>
      </trkpt>
      <trkpt lat="44.25562" lon="7.04904">
        <ele>1739</ele>
        <time>2018-05-09T06:26:36.000Z</time>
      </trkpt>
      <trkpt lat="44.25562" lon="7.04903">
        <ele>1739.5999755859</ele>
        <time>2018-05-09T06:26:38.000Z</time>
      </trkpt>
      <trkpt lat="44.25563" lon="7.04901">
        <ele>1740</ele>
        <time>2018-05-09T06:26:41.000Z</time>
      </trkpt>
      <trkpt lat="44.25563" lon="7.049">
        <ele>1740</ele>
        <time>2018-05-09T06:26:42.000Z</time>
      </trkpt>
      <trkpt lat="44.25563" lon="7.04898">
        <ele>1740</ele>
        <time>2018-05-09T06:26:44.000Z</time>
      </trkpt>
      <trkpt lat="44.25563" lon="7.04897">
        <ele>1740.1999511719</ele>
        <time>2018-05-09T06:26:45.000Z</time>
      </trkpt>
      <trkpt lat="44.25561" lon="7.04887">
        <ele>1741.1999511719</ele>
        <time>2018-05-09T06:27:07.000Z</time>
      </trkpt>
      <trkpt lat="44.25561" lon="7.04887">
        <ele>1741.1999511719</ele>
        <time>2018-05-09T06:27:08.000Z</time>
      </trkpt>
      <trkpt lat="44.25562" lon="7.04883">
        <ele>1742.4000244141</ele>
        <time>2018-05-09T06:27:16.000Z</time>
      </trkpt>
      <trkpt lat="44.25562" lon="7.04877">
        <ele>1742.8000488281</ele>
        <time>2018-05-09T06:27:24.000Z</time>
      </trkpt>
      <trkpt lat="44.25564" lon="7.04875">
        <ele>1743.4000244141</ele>
        <time>2018-05-09T06:27:28.000Z</time>
      </trkpt>
      <trkpt lat="44.25564" lon="7.04874">
        <ele>1743.4000244141</ele>
        <time>2018-05-09T06:27:29.000Z</time>
      </trkpt>
      <trkpt lat="44.25564" lon="7.04872">
        <ele>1743.8000488281</ele>
        <time>2018-05-09T06:27:32.000Z</time>
      </trkpt>
      <trkpt lat="44.25564" lon="7.04867">
        <ele>1744.4000244141</ele>
        <time>2018-05-09T06:27:35.000Z</time>
      </trkpt>
      <trkpt lat="44.25565" lon="7.04863">
        <ele>1744.5999755859</ele>
        <time>2018-05-09T06:27:37.000Z</time>
      </trkpt>
      <trkpt lat="44.25567" lon="7.04859">
        <ele>1744.8000488281</ele>
        <time>2018-05-09T06:27:40.000Z</time>
      </trkpt>
      <trkpt lat="44.25567" lon="7.04856">
        <ele>1745</ele>
        <time>2018-05-09T06:27:42.000Z</time>
      </trkpt>
      <trkpt lat="44.25567" lon="7.0485">
        <ele>1745.4000244141</ele>
        <time>2018-05-09T06:27:46.000Z</time>
      </trkpt>
      <trkpt lat="44.25567" lon="7.04849">
        <ele>1745.4000244141</ele>
        <time>2018-05-09T06:27:47.000Z</time>
      </trkpt>
      <trkpt lat="44.25567" lon="7.04847">
        <ele>1745.4000244141</ele>
        <time>2018-05-09T06:27:48.000Z</time>
      </trkpt>
      <trkpt lat="44.25568" lon="7.04846">
        <ele>1745.5999755859</ele>
        <time>2018-05-09T06:27:49.000Z</time>
      </trkpt>
      <trkpt lat="44.25569" lon="7.04843">
        <ele>1746.4000244141</ele>
        <time>2018-05-09T06:27:53.000Z</time>
      </trkpt>
      <trkpt lat="44.2557" lon="7.04842">
        <ele>1746.5999755859</ele>
        <time>2018-05-09T06:27:55.000Z</time>
      </trkpt>
      <trkpt lat="44.25571" lon="7.04836">
        <ele>1747.1999511719</ele>
        <time>2018-05-09T06:27:59.000Z</time>
      </trkpt>
      <trkpt lat="44.25571" lon="7.04834">
        <ele>1747.4000244141</ele>
        <time>2018-05-09T06:28:00.000Z</time>
      </trkpt>
      <trkpt lat="44.25572" lon="7.04831">
        <ele>1747.5999755859</ele>
        <time>2018-05-09T06:28:02.000Z</time>
      </trkpt>
      <trkpt lat="44.25573" lon="7.04829">
        <ele>1747.8000488281</ele>
        <time>2018-05-09T06:28:03.000Z</time>
      </trkpt>
      <trkpt lat="44.25576" lon="7.04826">
        <ele>1748.1999511719</ele>
        <time>2018-05-09T06:28:07.000Z</time>
      </trkpt>
      <trkpt lat="44.25577" lon="7.04822">
        <ele>1748.5999755859</ele>
        <time>2018-05-09T06:28:11.000Z</time>
      </trkpt>
      <trkpt lat="44.25578" lon="7.04822">
        <ele>1748.8000488281</ele>
        <time>2018-05-09T06:28:13.000Z</time>
      </trkpt>
      <trkpt lat="44.2558" lon="7.04822">
        <ele>1748.8000488281</ele>
        <time>2018-05-09T06:28:14.000Z</time>
      </trkpt>
      <trkpt lat="44.25581" lon="7.0482">
        <ele>1749</ele>
        <time>2018-05-09T06:28:16.000Z</time>
      </trkpt>
      <trkpt lat="44.25582" lon="7.0482">
        <ele>1749.1999511719</ele>
        <time>2018-05-09T06:28:17.000Z</time>
      </trkpt>
      <trkpt lat="44.25585" lon="7.04814">
        <ele>1749.8000488281</ele>
        <time>2018-05-09T06:28:21.000Z</time>
      </trkpt>
      <trkpt lat="44.25586" lon="7.04813">
        <ele>1749.8000488281</ele>
        <time>2018-05-09T06:28:22.000Z</time>
      </trkpt>
      <trkpt lat="44.25586" lon="7.04812">
        <ele>1750</ele>
        <time>2018-05-09T06:28:23.000Z</time>
      </trkpt>
      <trkpt lat="44.25588" lon="7.04806">
        <ele>1750.4000244141</ele>
        <time>2018-05-09T06:28:27.000Z</time>
      </trkpt>
      <trkpt lat="44.25589" lon="7.04804">
        <ele>1750.8000488281</ele>
        <time>2018-05-09T06:28:29.000Z</time>
      </trkpt>
      <trkpt lat="44.2559" lon="7.04804">
        <ele>1750.8000488281</ele>
        <time>2018-05-09T06:28:30.000Z</time>
      </trkpt>
      <trkpt lat="44.25591" lon="7.04803">
        <ele>1751</ele>
        <time>2018-05-09T06:28:32.000Z</time>
      </trkpt>
      <trkpt lat="44.25593" lon="7.04801">
        <ele>1751.4000244141</ele>
        <time>2018-05-09T06:28:37.000Z</time>
      </trkpt>
      <trkpt lat="44.25594" lon="7.048">
        <ele>1751.5999755859</ele>
        <time>2018-05-09T06:28:38.000Z</time>
      </trkpt>
      <trkpt lat="44.25594" lon="7.04799">
        <ele>1752</ele>
        <time>2018-05-09T06:28:41.000Z</time>
      </trkpt>
      <trkpt lat="44.25594" lon="7.04796">
        <ele>1753</ele>
        <time>2018-05-09T06:28:45.000Z</time>
      </trkpt>
      <trkpt lat="44.25596" lon="7.04794">
        <ele>1753.4000244141</ele>
        <time>2018-05-09T06:28:49.000Z</time>
      </trkpt>
      <trkpt lat="44.25601" lon="7.04791">
        <ele>1754</ele>
        <time>2018-05-09T06:28:54.000Z</time>
      </trkpt>
      <trkpt lat="44.25603" lon="7.04785">
        <ele>1755</ele>
        <time>2018-05-09T06:29:01.000Z</time>
      </trkpt>
      <trkpt lat="44.25601" lon="7.04786">
        <ele>1756.1999511719</ele>
        <time>2018-05-09T06:29:11.000Z</time>
      </trkpt>
      <trkpt lat="44.25594" lon="7.04798">
        <ele>1757.1999511719</ele>
        <time>2018-05-09T06:29:20.000Z</time>
      </trkpt>
      <trkpt lat="44.25589" lon="7.04805">
        <ele>1757.5999755859</ele>
        <time>2018-05-09T06:29:30.000Z</time>
      </trkpt>
      <trkpt lat="44.25581" lon="7.04809">
        <ele>1758.1999511719</ele>
        <time>2018-05-09T06:29:41.000Z</time>
      </trkpt>
      <trkpt lat="44.25575" lon="7.04809">
        <ele>1759.1999511719</ele>
        <time>2018-05-09T06:29:50.000Z</time>
      </trkpt>
      <trkpt lat="44.25574" lon="7.04815">
        <ele>1759.4000244141</ele>
        <time>2018-05-09T06:29:54.000Z</time>
      </trkpt>
      <trkpt lat="44.2557" lon="7.04816">
        <ele>1759.8000488281</ele>
        <time>2018-05-09T06:29:58.000Z</time>
      </trkpt>
      <trkpt lat="44.25566" lon="7.04818">
        <ele>1760.4000244141</ele>
        <time>2018-05-09T06:30:02.000Z</time>
      </trkpt>
      <trkpt lat="44.25563" lon="7.04818">
        <ele>1760.8000488281</ele>
        <time>2018-05-09T06:30:05.000Z</time>
      </trkpt>
      <trkpt lat="44.2556" lon="7.04818">
        <ele>1761.1999511719</ele>
        <time>2018-05-09T06:30:10.000Z</time>
      </trkpt>
      <trkpt lat="44.25558" lon="7.04819">
        <ele>1761.4000244141</ele>
        <time>2018-05-09T06:30:13.000Z</time>
      </trkpt>
      <trkpt lat="44.25558" lon="7.04818">
        <ele>1761.5999755859</ele>
        <time>2018-05-09T06:30:14.000Z</time>
      </trkpt>
      <trkpt lat="44.25551" lon="7.04825">
        <ele>1762.4000244141</ele>
        <time>2018-05-09T06:30:23.000Z</time>
      </trkpt>
      <trkpt lat="44.25548" lon="7.04829">
        <ele>1762.8000488281</ele>
        <time>2018-05-09T06:30:27.000Z</time>
      </trkpt>
      <trkpt lat="44.25548" lon="7.04834">
        <ele>1763</ele>
        <time>2018-05-09T06:30:31.000Z</time>
      </trkpt>
      <trkpt lat="44.25547" lon="7.04836">
        <ele>1763.4000244141</ele>
        <time>2018-05-09T06:30:34.000Z</time>
      </trkpt>
      <trkpt lat="44.25549" lon="7.04838">
        <ele>1763.8000488281</ele>
        <time>2018-05-09T06:30:53.000Z</time>
      </trkpt>
      <trkpt lat="44.2555" lon="7.04838">
        <ele>1763.8000488281</ele>
        <time>2018-05-09T06:30:54.000Z</time>
      </trkpt>
      <trkpt lat="44.2555" lon="7.04838">
        <ele>1763.8000488281</ele>
        <time>2018-05-09T06:30:55.000Z</time>
      </trkpt>
      <trkpt lat="44.2555" lon="7.04838">
        <ele>1763.8000488281</ele>
        <time>2018-05-09T06:30:56.000Z</time>
      </trkpt>
      <trkpt lat="44.25549" lon="7.04838">
        <ele>1763.8000488281</ele>
        <time>2018-05-09T06:31:01.000Z</time>
      </trkpt>
      <trkpt lat="44.25547" lon="7.04838">
        <ele>1764</ele>
        <time>2018-05-09T06:31:06.000Z</time>
      </trkpt>
      <trkpt lat="44.25551" lon="7.04838">
        <ele>1763.5999755859</ele>
        <time>2018-05-09T06:31:13.000Z</time>
      </trkpt>
      <trkpt lat="44.25552" lon="7.04838">
        <ele>1763.5999755859</ele>
        <time>2018-05-09T06:31:14.000Z</time>
      </trkpt>
      <trkpt lat="44.25553" lon="7.04838">
        <ele>1763.5999755859</ele>
        <time>2018-05-09T06:31:15.000Z</time>
      </trkpt>
      <trkpt lat="44.25554" lon="7.04837">
        <ele>1763.5999755859</ele>
        <time>2018-05-09T06:31:16.000Z</time>
      </trkpt>
      <trkpt lat="44.25554" lon="7.04837">
        <ele>1763.8000488281</ele>
        <time>2018-05-09T06:31:17.000Z</time>
      </trkpt>
      <trkpt lat="44.25553" lon="7.04834">
        <ele>1763.8000488281</ele>
        <time>2018-05-09T06:31:19.000Z</time>
      </trkpt>
      <trkpt lat="44.25553" lon="7.04834">
        <ele>1763.8000488281</ele>
        <time>2018-05-09T06:31:20.000Z</time>
      </trkpt>
      <trkpt lat="44.25553" lon="7.04832">
        <ele>1763.8000488281</ele>
        <time>2018-05-09T06:31:22.000Z</time>
      </trkpt>
      <trkpt lat="44.2555" lon="7.04835">
        <ele>1763.8000488281</ele>
        <time>2018-05-09T06:31:30.000Z</time>
      </trkpt>
      <trkpt lat="44.25549" lon="7.04836">
        <ele>1763.8000488281</ele>
        <time>2018-05-09T06:31:31.000Z</time>
      </trkpt>
      <trkpt lat="44.25549" lon="7.04837">
        <ele>1763.8000488281</ele>
        <time>2018-05-09T06:31:32.000Z</time>
      </trkpt>
      <trkpt lat="44.25552" lon="7.0484">
        <ele>1764</ele>
        <time>2018-05-09T06:31:35.000Z</time>
      </trkpt>
      <trkpt lat="44.25554" lon="7.04841">
        <ele>1764</ele>
        <time>2018-05-09T06:31:36.000Z</time>
      </trkpt>
      <trkpt lat="44.25556" lon="7.04842">
        <ele>1764</ele>
        <time>2018-05-09T06:31:39.000Z</time>
      </trkpt>
      <trkpt lat="44.25557" lon="7.04843">
        <ele>1764.1999511719</ele>
        <time>2018-05-09T06:31:40.000Z</time>
      </trkpt>
      <trkpt lat="44.25555" lon="7.04845">
        <ele>1764.1999511719</ele>
        <time>2018-05-09T06:31:41.000Z</time>
      </trkpt>
      <trkpt lat="44.25553" lon="7.04846">
        <ele>1764.4000244141</ele>
        <time>2018-05-09T06:31:43.000Z</time>
      </trkpt>
      <trkpt lat="44.25553" lon="7.04847">
        <ele>1764.5999755859</ele>
        <time>2018-05-09T06:31:44.000Z</time>
      </trkpt>
      <trkpt lat="44.25552" lon="7.04849">
        <ele>1764.5999755859</ele>
        <time>2018-05-09T06:31:45.000Z</time>
      </trkpt>
      <trkpt lat="44.2555" lon="7.04851">
        <ele>1764.8000488281</ele>
        <time>2018-05-09T06:31:47.000Z</time>
      </trkpt>
      <trkpt lat="44.25547" lon="7.04854">
        <ele>1765</ele>
        <time>2018-05-09T06:31:50.000Z</time>
      </trkpt>
      <trkpt lat="44.25546" lon="7.04855">
        <ele>1765.1999511719</ele>
        <time>2018-05-09T06:31:51.000Z</time>
      </trkpt>
      <trkpt lat="44.25545" lon="7.04857">
        <ele>1765.4000244141</ele>
        <time>2018-05-09T06:31:55.000Z</time>
      </trkpt>
      <trkpt lat="44.25544" lon="7.04857">
        <ele>1765.5999755859</ele>
        <time>2018-05-09T06:32:04.000Z</time>
      </trkpt>
      <trkpt lat="44.25543" lon="7.04857">
        <ele>1765.5999755859</ele>
        <time>2018-05-09T06:32:08.000Z</time>
      </trkpt>
      <trkpt lat="44.25541" lon="7.04858">
        <ele>1765.5999755859</ele>
        <time>2018-05-09T06:32:10.000Z</time>
      </trkpt>
      <trkpt lat="44.2554" lon="7.04859">
        <ele>1765.5999755859</ele>
        <time>2018-05-09T06:32:11.000Z</time>
      </trkpt>
      <trkpt lat="44.25533" lon="7.04861">
        <ele>1766.4000244141</ele>
        <time>2018-05-09T06:32:15.000Z</time>
      </trkpt>
      <trkpt lat="44.25532" lon="7.04862">
        <ele>1766.5999755859</ele>
        <time>2018-05-09T06:32:16.000Z</time>
      </trkpt>
      <trkpt lat="44.2553" lon="7.04861">
        <ele>1767.1999511719</ele>
        <time>2018-05-09T06:32:20.000Z</time>
      </trkpt>
      <trkpt lat="44.25527" lon="7.04861">
        <ele>1767.1999511719</ele>
        <time>2018-05-09T06:32:22.000Z</time>
      </trkpt>
      <trkpt lat="44.25524" lon="7.04862">
        <ele>1767.8000488281</ele>
        <time>2018-05-09T06:32:26.000Z</time>
      </trkpt>
      <trkpt lat="44.25522" lon="7.04862">
        <ele>1768</ele>
        <time>2018-05-09T06:32:28.000Z</time>
      </trkpt>
      <trkpt lat="44.25519" lon="7.04864">
        <ele>1768.8000488281</ele>
        <time>2018-05-09T06:32:32.000Z</time>
      </trkpt>
      <trkpt lat="44.25517" lon="7.04864">
        <ele>1769.1999511719</ele>
        <time>2018-05-09T06:32:35.000Z</time>
      </trkpt>
      <trkpt lat="44.25514" lon="7.04865">
        <ele>1769.5999755859</ele>
        <time>2018-05-09T06:32:37.000Z</time>
      </trkpt>
      <trkpt lat="44.25513" lon="7.04865">
        <ele>1769.8000488281</ele>
        <time>2018-05-09T06:32:38.000Z</time>
      </trkpt>
      <trkpt lat="44.2551" lon="7.04866">
        <ele>1770</ele>
        <time>2018-05-09T06:32:41.000Z</time>
      </trkpt>
      <trkpt lat="44.25506" lon="7.04867">
        <ele>1770.8000488281</ele>
        <time>2018-05-09T06:32:46.000Z</time>
      </trkpt>
      <trkpt lat="44.25504" lon="7.04871">
        <ele>1771.4000244141</ele>
        <time>2018-05-09T06:32:51.000Z</time>
      </trkpt>
      <trkpt lat="44.25504" lon="7.04873">
        <ele>1771.8000488281</ele>
        <time>2018-05-09T06:32:53.000Z</time>
      </trkpt>
      <trkpt lat="44.25504" lon="7.04875">
        <ele>1772</ele>
        <time>2018-05-09T06:32:54.000Z</time>
      </trkpt>
      <trkpt lat="44.25503" lon="7.04876">
        <ele>1772.1999511719</ele>
        <time>2018-05-09T06:32:55.000Z</time>
      </trkpt>
      <trkpt lat="44.25503" lon="7.04876">
        <ele>1772.4000244141</ele>
        <time>2018-05-09T06:32:56.000Z</time>
      </trkpt>
      <trkpt lat="44.25502" lon="7.04876">
        <ele>1772.5999755859</ele>
        <time>2018-05-09T06:32:57.000Z</time>
      </trkpt>
      <trkpt lat="44.255" lon="7.04875">
        <ele>1772.8000488281</ele>
        <time>2018-05-09T06:33:00.000Z</time>
      </trkpt>
      <trkpt lat="44.25498" lon="7.04871">
        <ele>1772.8000488281</ele>
        <time>2018-05-09T06:33:04.000Z</time>
      </trkpt>
      <trkpt lat="44.25497" lon="7.04868">
        <ele>1773</ele>
        <time>2018-05-09T06:33:07.000Z</time>
      </trkpt>
      <trkpt lat="44.25497" lon="7.04867">
        <ele>1773</ele>
        <time>2018-05-09T06:33:08.000Z</time>
      </trkpt>
      <trkpt lat="44.25493" lon="7.04861">
        <ele>1774.1999511719</ele>
        <time>2018-05-09T06:33:14.000Z</time>
      </trkpt>
      <trkpt lat="44.25493" lon="7.04859">
        <ele>1774.5999755859</ele>
        <time>2018-05-09T06:33:16.000Z</time>
      </trkpt>
      <trkpt lat="44.25492" lon="7.04859">
        <ele>1775.4000244141</ele>
        <time>2018-05-09T06:33:20.000Z</time>
      </trkpt>
      <trkpt lat="44.2549" lon="7.04862">
        <ele>1775.8000488281</ele>
        <time>2018-05-09T06:33:23.000Z</time>
      </trkpt>
      <trkpt lat="44.25487" lon="7.04866">
        <ele>1776.4000244141</ele>
        <time>2018-05-09T06:33:26.000Z</time>
      </trkpt>
      <trkpt lat="44.25485" lon="7.0487">
        <ele>1777</ele>
        <time>2018-05-09T06:33:29.000Z</time>
      </trkpt>
      <trkpt lat="44.25486" lon="7.04873">
        <ele>1777.1999511719</ele>
        <time>2018-05-09T06:33:32.000Z</time>
      </trkpt>
      <trkpt lat="44.25488" lon="7.04874">
        <ele>1777.5999755859</ele>
        <time>2018-05-09T06:33:34.000Z</time>
      </trkpt>
      <trkpt lat="44.25487" lon="7.04877">
        <ele>1778.8000488281</ele>
        <time>2018-05-09T06:33:41.000Z</time>
      </trkpt>
      <trkpt lat="44.25486" lon="7.04875">
        <ele>1779.8000488281</ele>
        <time>2018-05-09T06:33:46.000Z</time>
      </trkpt>
      <trkpt lat="44.25485" lon="7.04871">
        <ele>1780.4000244141</ele>
        <time>2018-05-09T06:33:50.000Z</time>
      </trkpt>
      <trkpt lat="44.25483" lon="7.04869">
        <ele>1780.8000488281</ele>
        <time>2018-05-09T06:33:52.000Z</time>
      </trkpt>
      <trkpt lat="44.25481" lon="7.04867">
        <ele>1781.5999755859</ele>
        <time>2018-05-09T06:33:56.000Z</time>
      </trkpt>
      <trkpt lat="44.25479" lon="7.04865">
        <ele>1782</ele>
        <time>2018-05-09T06:33:58.000Z</time>
      </trkpt>
      <trkpt lat="44.25477" lon="7.04862">
        <ele>1783.1999511719</ele>
        <time>2018-05-09T06:34:04.000Z</time>
      </trkpt>
      <trkpt lat="44.25474" lon="7.0485">
        <ele>1784.1999511719</ele>
        <time>2018-05-09T06:34:14.000Z</time>
      </trkpt>
      <trkpt lat="44.25473" lon="7.04845">
        <ele>1785.4000244141</ele>
        <time>2018-05-09T06:34:19.000Z</time>
      </trkpt>
      <trkpt lat="44.25474" lon="7.04838">
        <ele>1785.8000488281</ele>
        <time>2018-05-09T06:34:29.000Z</time>
      </trkpt>
      <trkpt lat="44.25475" lon="7.04837">
        <ele>1785.8000488281</ele>
        <time>2018-05-09T06:34:31.000Z</time>
      </trkpt>
      <trkpt lat="44.25474" lon="7.04835">
        <ele>1786.1999511719</ele>
        <time>2018-05-09T06:34:33.000Z</time>
      </trkpt>
      <trkpt lat="44.25474" lon="7.04836">
        <ele>1786.4000244141</ele>
        <time>2018-05-09T06:34:34.000Z</time>
      </trkpt>
      <trkpt lat="44.25474" lon="7.04836">
        <ele>1786.5999755859</ele>
        <time>2018-05-09T06:34:35.000Z</time>
      </trkpt>
      <trkpt lat="44.25475" lon="7.04832">
        <ele>1787</ele>
        <time>2018-05-09T06:34:41.000Z</time>
      </trkpt>
      <trkpt lat="44.25475" lon="7.04831">
        <ele>1787.1999511719</ele>
        <time>2018-05-09T06:34:42.000Z</time>
      </trkpt>
      <trkpt lat="44.25476" lon="7.0483">
        <ele>1787.4000244141</ele>
        <time>2018-05-09T06:34:43.000Z</time>
      </trkpt>
      <trkpt lat="44.25476" lon="7.0483">
        <ele>1787.4000244141</ele>
        <time>2018-05-09T06:34:44.000Z</time>
      </trkpt>
      <trkpt lat="44.25476" lon="7.04828">
        <ele>1787.5999755859</ele>
        <time>2018-05-09T06:34:45.000Z</time>
      </trkpt>
      <trkpt lat="44.25475" lon="7.04826">
        <ele>1788.4000244141</ele>
        <time>2018-05-09T06:34:52.000Z</time>
      </trkpt>
      <trkpt lat="44.25476" lon="7.04828">
        <ele>1789.5999755859</ele>
        <time>2018-05-09T06:35:07.000Z</time>
      </trkpt>
      <trkpt lat="44.25474" lon="7.04833">
        <ele>1789.4000244141</ele>
        <time>2018-05-09T06:35:14.000Z</time>
      </trkpt>
      <trkpt lat="44.25473" lon="7.04832">
        <ele>1789.8000488281</ele>
        <time>2018-05-09T06:35:17.000Z</time>
      </trkpt>
      <trkpt lat="44.25465" lon="7.04842">
        <ele>1790.5999755859</ele>
        <time>2018-05-09T06:35:23.000Z</time>
      </trkpt>
      <trkpt lat="44.25464" lon="7.04844">
        <ele>1790.8000488281</ele>
        <time>2018-05-09T06:35:25.000Z</time>
      </trkpt>
      <trkpt lat="44.25463" lon="7.04847">
        <ele>1791.5999755859</ele>
        <time>2018-05-09T06:35:28.000Z</time>
      </trkpt>
      <trkpt lat="44.25461" lon="7.04846">
        <ele>1792.8000488281</ele>
        <time>2018-05-09T06:35:37.000Z</time>
      </trkpt>
      <trkpt lat="44.2546" lon="7.0485">
        <ele>1793.5999755859</ele>
        <time>2018-05-09T06:35:46.000Z</time>
      </trkpt>
      <trkpt lat="44.2546" lon="7.0485">
        <ele>1793.8000488281</ele>
        <time>2018-05-09T06:35:47.000Z</time>
      </trkpt>
      <trkpt lat="44.2546" lon="7.0485">
        <ele>1793.8000488281</ele>
        <time>2018-05-09T06:35:48.000Z</time>
      </trkpt>
      <trkpt lat="44.25458" lon="7.0485">
        <ele>1794.8000488281</ele>
        <time>2018-05-09T06:35:54.000Z</time>
      </trkpt>
      <trkpt lat="44.25457" lon="7.0485">
        <ele>1795</ele>
        <time>2018-05-09T06:35:55.000Z</time>
      </trkpt>
      <trkpt lat="44.25456" lon="7.04854">
        <ele>1796</ele>
        <time>2018-05-09T06:36:02.000Z</time>
      </trkpt>
      <trkpt lat="44.25452" lon="7.04851">
        <ele>1797.1999511719</ele>
        <time>2018-05-09T06:36:08.000Z</time>
      </trkpt>
      <trkpt lat="44.25446" lon="7.0485">
        <ele>1798.4000244141</ele>
        <time>2018-05-09T06:36:14.000Z</time>
      </trkpt>
      <trkpt lat="44.25443" lon="7.04848">
        <ele>1799.4000244141</ele>
        <time>2018-05-09T06:36:18.000Z</time>
      </trkpt>
      <trkpt lat="44.2544" lon="7.04845">
        <ele>1800.4000244141</ele>
        <time>2018-05-09T06:36:24.000Z</time>
      </trkpt>
      <trkpt lat="44.25435" lon="7.04842">
        <ele>1801.5999755859</ele>
        <time>2018-05-09T06:36:31.000Z</time>
      </trkpt>
      <trkpt lat="44.25432" lon="7.0484">
        <ele>1802.5999755859</ele>
        <time>2018-05-09T06:36:36.000Z</time>
      </trkpt>
      <trkpt lat="44.25431" lon="7.0484">
        <ele>1802.8000488281</ele>
        <time>2018-05-09T06:36:37.000Z</time>
      </trkpt>
      <trkpt lat="44.25429" lon="7.04839">
        <ele>1804</ele>
        <time>2018-05-09T06:36:41.000Z</time>
      </trkpt>
      <trkpt lat="44.25428" lon="7.04838">
        <ele>1804.1999511719</ele>
        <time>2018-05-09T06:36:42.000Z</time>
      </trkpt>
      <trkpt lat="44.25427" lon="7.04838">
        <ele>1804.5999755859</ele>
        <time>2018-05-09T06:36:44.000Z</time>
      </trkpt>
      <trkpt lat="44.25424" lon="7.0484">
        <ele>1805</ele>
        <time>2018-05-09T06:36:47.000Z</time>
      </trkpt>
      <trkpt lat="44.25421" lon="7.04842">
        <ele>1805.4000244141</ele>
        <time>2018-05-09T06:36:49.000Z</time>
      </trkpt>
      <trkpt lat="44.25416" lon="7.04841">
        <ele>1806.1999511719</ele>
        <time>2018-05-09T06:36:55.000Z</time>
      </trkpt>
      <trkpt lat="44.25414" lon="7.0484">
        <ele>1806.5999755859</ele>
        <time>2018-05-09T06:36:59.000Z</time>
      </trkpt>
      <trkpt lat="44.25411" lon="7.04841">
        <ele>1807.1999511719</ele>
        <time>2018-05-09T06:37:04.000Z</time>
      </trkpt>
      <trkpt lat="44.2541" lon="7.04841">
        <ele>1808</ele>
        <time>2018-05-09T06:37:17.000Z</time>
      </trkpt>
      <trkpt lat="44.25405" lon="7.04844">
        <ele>1808.4000244141</ele>
        <time>2018-05-09T06:37:23.000Z</time>
      </trkpt>
      <trkpt lat="44.25403" lon="7.04828">
        <ele>1809.1999511719</ele>
        <time>2018-05-09T06:37:39.000Z</time>
      </trkpt>
      <trkpt lat="44.254" lon="7.04823">
        <ele>1808.8000488281</ele>
        <time>2018-05-09T06:37:43.000Z</time>
      </trkpt>
      <trkpt lat="44.25395" lon="7.04821">
        <ele>1808.5999755859</ele>
        <time>2018-05-09T06:37:48.000Z</time>
      </trkpt>
      <trkpt lat="44.25395" lon="7.04822">
        <ele>1808.8000488281</ele>
        <time>2018-05-09T06:37:49.000Z</time>
      </trkpt>
      <trkpt lat="44.25391" lon="7.04827">
        <ele>1809.4000244141</ele>
        <time>2018-05-09T06:37:52.000Z</time>
      </trkpt>
      <trkpt lat="44.25387" lon="7.0483">
        <ele>1809.5999755859</ele>
        <time>2018-05-09T06:37:55.000Z</time>
      </trkpt>
      <trkpt lat="44.25383" lon="7.04836">
        <ele>1810.1999511719</ele>
        <time>2018-05-09T06:38:00.000Z</time>
      </trkpt>
      <trkpt lat="44.25382" lon="7.04836">
        <ele>1810.5999755859</ele>
        <time>2018-05-09T06:38:02.000Z</time>
      </trkpt>
      <trkpt lat="44.2538" lon="7.04841">
        <ele>1811</ele>
        <time>2018-05-09T06:38:05.000Z</time>
      </trkpt>
      <trkpt lat="44.25379" lon="7.04836">
        <ele>1811.5999755859</ele>
        <time>2018-05-09T06:38:14.000Z</time>
      </trkpt>
      <trkpt lat="44.25382" lon="7.04826">
        <ele>1812.1999511719</ele>
        <time>2018-05-09T06:38:19.000Z</time>
      </trkpt>
      <trkpt lat="44.25383" lon="7.04816">
        <ele>1812.8000488281</ele>
        <time>2018-05-09T06:38:25.000Z</time>
      </trkpt>
      <trkpt lat="44.25383" lon="7.04807">
        <ele>1813.4000244141</ele>
        <time>2018-05-09T06:38:31.000Z</time>
      </trkpt>
      <trkpt lat="44.25383" lon="7.04806">
        <ele>1813.4000244141</ele>
        <time>2018-05-09T06:38:33.000Z</time>
      </trkpt>
      <trkpt lat="44.25381" lon="7.0481">
        <ele>1813.8000488281</ele>
        <time>2018-05-09T06:38:39.000Z</time>
      </trkpt>
      <trkpt lat="44.25379" lon="7.04812">
        <ele>1814.1999511719</ele>
        <time>2018-05-09T06:38:42.000Z</time>
      </trkpt>
      <trkpt lat="44.25376" lon="7.04817">
        <ele>1814.8000488281</ele>
        <time>2018-05-09T06:38:46.000Z</time>
      </trkpt>
      <trkpt lat="44.25376" lon="7.04818">
        <ele>1815</ele>
        <time>2018-05-09T06:38:47.000Z</time>
      </trkpt>
      <trkpt lat="44.25375" lon="7.04819">
        <ele>1815.1999511719</ele>
        <time>2018-05-09T06:38:49.000Z</time>
      </trkpt>
      <trkpt lat="44.25367" lon="7.04825">
        <ele>1815.8000488281</ele>
        <time>2018-05-09T06:38:56.000Z</time>
      </trkpt>
      <trkpt lat="44.25368" lon="7.04826">
        <ele>1816</ele>
        <time>2018-05-09T06:38:57.000Z</time>
      </trkpt>
      <trkpt lat="44.25367" lon="7.04828">
        <ele>1816.1999511719</ele>
        <time>2018-05-09T06:39:01.000Z</time>
      </trkpt>
      <trkpt lat="44.25366" lon="7.04831">
        <ele>1816.1999511719</ele>
        <time>2018-05-09T06:39:05.000Z</time>
      </trkpt>
      <trkpt lat="44.25364" lon="7.04835">
        <ele>1816.1999511719</ele>
        <time>2018-05-09T06:39:12.000Z</time>
      </trkpt>
      <trkpt lat="44.25363" lon="7.04836">
        <ele>1816.1999511719</ele>
        <time>2018-05-09T06:39:15.000Z</time>
      </trkpt>
      <trkpt lat="44.25364" lon="7.04842">
        <ele>1816.1999511719</ele>
        <time>2018-05-09T06:39:21.000Z</time>
      </trkpt>
      <trkpt lat="44.25363" lon="7.04844">
        <ele>1816.1999511719</ele>
        <time>2018-05-09T06:39:23.000Z</time>
      </trkpt>
      <trkpt lat="44.25364" lon="7.04844">
        <ele>1816.1999511719</ele>
        <time>2018-05-09T06:39:24.000Z</time>
      </trkpt>
      <trkpt lat="44.25365" lon="7.04844">
        <ele>1816.1999511719</ele>
        <time>2018-05-09T06:39:25.000Z</time>
      </trkpt>
      <trkpt lat="44.25366" lon="7.04843">
        <ele>1816.1999511719</ele>
        <time>2018-05-09T06:39:26.000Z</time>
      </trkpt>
      <trkpt lat="44.25366" lon="7.04843">
        <ele>1816.1999511719</ele>
        <time>2018-05-09T06:39:27.000Z</time>
      </trkpt>
      <trkpt lat="44.25368" lon="7.04843">
        <ele>1816.1999511719</ele>
        <time>2018-05-09T06:39:28.000Z</time>
      </trkpt>
      <trkpt lat="44.25368" lon="7.04843">
        <ele>1816.1999511719</ele>
        <time>2018-05-09T06:39:29.000Z</time>
      </trkpt>
      <trkpt lat="44.25371" lon="7.04842">
        <ele>1816.4000244141</ele>
        <time>2018-05-09T06:39:33.000Z</time>
      </trkpt>
      <trkpt lat="44.25372" lon="7.04842">
        <ele>1816.4000244141</ele>
        <time>2018-05-09T06:39:34.000Z</time>
      </trkpt>
      <trkpt lat="44.25374" lon="7.04843">
        <ele>1816.4000244141</ele>
        <time>2018-05-09T06:39:38.000Z</time>
      </trkpt>
      <trkpt lat="44.25374" lon="7.04838">
        <ele>1816.5999755859</ele>
        <time>2018-05-09T06:39:47.000Z</time>
      </trkpt>
      <trkpt lat="44.25374" lon="7.04838">
        <ele>1816.8000488281</ele>
        <time>2018-05-09T06:39:49.000Z</time>
      </trkpt>
      <trkpt lat="44.25375" lon="7.04836">
        <ele>1816.1999511719</ele>
        <time>2018-05-09T06:39:54.000Z</time>
      </trkpt>
      <trkpt lat="44.25375" lon="7.04835">
        <ele>1816.1999511719</ele>
        <time>2018-05-09T06:39:56.000Z</time>
      </trkpt>
      <trkpt lat="44.25375" lon="7.04835">
        <ele>1816</ele>
        <time>2018-05-09T06:39:57.000Z</time>
      </trkpt>
      <trkpt lat="44.25374" lon="7.04835">
        <ele>1816</ele>
        <time>2018-05-09T06:40:00.000Z</time>
      </trkpt>
      <trkpt lat="44.25373" lon="7.04835">
        <ele>1816</ele>
        <time>2018-05-09T06:40:02.000Z</time>
      </trkpt>
      <trkpt lat="44.25372" lon="7.04835">
        <ele>1816.1999511719</ele>
        <time>2018-05-09T06:40:05.000Z</time>
      </trkpt>
      <trkpt lat="44.25372" lon="7.04835">
        <ele>1816.1999511719</ele>
        <time>2018-05-09T06:40:08.000Z</time>
      </trkpt>
      <trkpt lat="44.25371" lon="7.04835">
        <ele>1816.1999511719</ele>
        <time>2018-05-09T06:40:10.000Z</time>
      </trkpt>
      <trkpt lat="44.2537" lon="7.04833">
        <ele>1816.1999511719</ele>
        <time>2018-05-09T06:40:17.000Z</time>
      </trkpt>
      <trkpt lat="44.25369" lon="7.04831">
        <ele>1816</ele>
        <time>2018-05-09T06:40:19.000Z</time>
      </trkpt>
      <trkpt lat="44.25369" lon="7.04831">
        <ele>1816</ele>
        <time>2018-05-09T06:40:20.000Z</time>
      </trkpt>
      <trkpt lat="44.25369" lon="7.04831">
        <ele>1816</ele>
        <time>2018-05-09T06:40:21.000Z</time>
      </trkpt>
      <trkpt lat="44.25369" lon="7.04831">
        <ele>1816</ele>
        <time>2018-05-09T06:40:31.000Z</time>
      </trkpt>
      <trkpt lat="44.25369" lon="7.04832">
        <ele>1816</ele>
        <time>2018-05-09T06:40:33.000Z</time>
      </trkpt>
      <trkpt lat="44.2537" lon="7.04833">
        <ele>1816</ele>
        <time>2018-05-09T06:40:39.000Z</time>
      </trkpt>
      <trkpt lat="44.25373" lon="7.0483">
        <ele>1816</ele>
        <time>2018-05-09T06:40:45.000Z</time>
      </trkpt>
      <trkpt lat="44.25376" lon="7.04829">
        <ele>1816.1999511719</ele>
        <time>2018-05-09T06:40:54.000Z</time>
      </trkpt>
      <trkpt lat="44.25373" lon="7.0483">
        <ele>1816</ele>
        <time>2018-05-09T06:41:01.000Z</time>
      </trkpt>
      <trkpt lat="44.25368" lon="7.04836">
        <ele>1816.1999511719</ele>
        <time>2018-05-09T06:41:09.000Z</time>
      </trkpt>
      <trkpt lat="44.2537" lon="7.04833">
        <ele>1816.1999511719</ele>
        <time>2018-05-09T06:41:13.000Z</time>
      </trkpt>
      <trkpt lat="44.25372" lon="7.04834">
        <ele>1816.1999511719</ele>
        <time>2018-05-09T06:41:17.000Z</time>
      </trkpt>
      <trkpt lat="44.25372" lon="7.04835">
        <ele>1816.1999511719</ele>
        <time>2018-05-09T06:41:18.000Z</time>
      </trkpt>
      <trkpt lat="44.25372" lon="7.04835">
        <ele>1816.1999511719</ele>
        <time>2018-05-09T06:41:19.000Z</time>
      </trkpt>
      <trkpt lat="44.25372" lon="7.04835">
        <ele>1816</ele>
        <time>2018-05-09T06:41:21.000Z</time>
      </trkpt>
      <trkpt lat="44.25372" lon="7.04836">
        <ele>1816</ele>
        <time>2018-05-09T06:41:23.000Z</time>
      </trkpt>
      <trkpt lat="44.25372" lon="7.04837">
        <ele>1816</ele>
        <time>2018-05-09T06:41:25.000Z</time>
      </trkpt>
      <trkpt lat="44.25373" lon="7.04834">
        <ele>1816</ele>
        <time>2018-05-09T06:41:32.000Z</time>
      </trkpt>
      <trkpt lat="44.25372" lon="7.04834">
        <ele>1816</ele>
        <time>2018-05-09T06:41:36.000Z</time>
      </trkpt>
      <trkpt lat="44.2537" lon="7.04834">
        <ele>1816</ele>
        <time>2018-05-09T06:41:41.000Z</time>
      </trkpt>
      <trkpt lat="44.2537" lon="7.04834">
        <ele>1816</ele>
        <time>2018-05-09T06:41:44.000Z</time>
      </trkpt>
      <trkpt lat="44.25369" lon="7.04834">
        <ele>1816</ele>
        <time>2018-05-09T06:41:47.000Z</time>
      </trkpt>
      <trkpt lat="44.25368" lon="7.04834">
        <ele>1816</ele>
        <time>2018-05-09T06:41:48.000Z</time>
      </trkpt>
      <trkpt lat="44.25369" lon="7.04834">
        <ele>1816</ele>
        <time>2018-05-09T06:41:50.000Z</time>
      </trkpt>
      <trkpt lat="44.25371" lon="7.04833">
        <ele>1816</ele>
        <time>2018-05-09T06:41:52.000Z</time>
      </trkpt>
      <trkpt lat="44.25372" lon="7.0483">
        <ele>1816</ele>
        <time>2018-05-09T06:41:53.000Z</time>
      </trkpt>
      <trkpt lat="44.25376" lon="7.04831">
        <ele>1816</ele>
        <time>2018-05-09T06:41:56.000Z</time>
      </trkpt>
      <trkpt lat="44.25377" lon="7.04831">
        <ele>1816</ele>
        <time>2018-05-09T06:41:58.000Z</time>
      </trkpt>
      <trkpt lat="44.2538" lon="7.04831">
        <ele>1816</ele>
        <time>2018-05-09T06:42:01.000Z</time>
      </trkpt>
      <trkpt lat="44.2538" lon="7.04832">
        <ele>1816</ele>
        <time>2018-05-09T06:42:04.000Z</time>
      </trkpt>
      <trkpt lat="44.25379" lon="7.04833">
        <ele>1816</ele>
        <time>2018-05-09T06:42:07.000Z</time>
      </trkpt>
      <trkpt lat="44.25378" lon="7.04834">
        <ele>1816</ele>
        <time>2018-05-09T06:42:08.000Z</time>
      </trkpt>
      <trkpt lat="44.25384" lon="7.04835">
        <ele>1816</ele>
        <time>2018-05-09T06:42:11.000Z</time>
      </trkpt>
      <trkpt lat="44.25389" lon="7.04836">
        <ele>1816</ele>
        <time>2018-05-09T06:42:12.000Z</time>
      </trkpt>
      <trkpt lat="44.2539" lon="7.04837">
        <ele>1816</ele>
        <time>2018-05-09T06:42:15.000Z</time>
      </trkpt>
      <trkpt lat="44.25388" lon="7.04838">
        <ele>1816</ele>
        <time>2018-05-09T06:42:19.000Z</time>
      </trkpt>
      <trkpt lat="44.25387" lon="7.04838">
        <ele>1816</ele>
        <time>2018-05-09T06:42:20.000Z</time>
      </trkpt>
      <trkpt lat="44.25387" lon="7.04835">
        <ele>1816</ele>
        <time>2018-05-09T06:42:26.000Z</time>
      </trkpt>
      <trkpt lat="44.25381" lon="7.04834">
        <ele>1816.1999511719</ele>
        <time>2018-05-09T06:42:31.000Z</time>
      </trkpt>
      <trkpt lat="44.25376" lon="7.04833">
        <ele>1816.1999511719</ele>
        <time>2018-05-09T06:42:38.000Z</time>
      </trkpt>
      <trkpt lat="44.25374" lon="7.04833">
        <ele>1816.1999511719</ele>
        <time>2018-05-09T06:42:39.000Z</time>
      </trkpt>
      <trkpt lat="44.25371" lon="7.04834">
        <ele>1816.1999511719</ele>
        <time>2018-05-09T06:42:42.000Z</time>
      </trkpt>
      <trkpt lat="44.25368" lon="7.04836">
        <ele>1816.1999511719</ele>
        <time>2018-05-09T06:42:47.000Z</time>
      </trkpt>
      <trkpt lat="44.25368" lon="7.04836">
        <ele>1816.1999511719</ele>
        <time>2018-05-09T06:42:48.000Z</time>
      </trkpt>
      <trkpt lat="44.25368" lon="7.04836">
        <ele>1816.1999511719</ele>
        <time>2018-05-09T06:42:49.000Z</time>
      </trkpt>
      <trkpt lat="44.25367" lon="7.04836">
        <ele>1816.1999511719</ele>
        <time>2018-05-09T06:42:50.000Z</time>
      </trkpt>
      <trkpt lat="44.25367" lon="7.04836">
        <ele>1816.1999511719</ele>
        <time>2018-05-09T06:42:51.000Z</time>
      </trkpt>
      <trkpt lat="44.25367" lon="7.04836">
        <ele>1816.1999511719</ele>
        <time>2018-05-09T06:42:52.000Z</time>
      </trkpt>
      <trkpt lat="44.25367" lon="7.04836">
        <ele>1816.1999511719</ele>
        <time>2018-05-09T06:42:53.000Z</time>
      </trkpt>
      <trkpt lat="44.25368" lon="7.04834">
        <ele>1816.1999511719</ele>
        <time>2018-05-09T06:42:59.000Z</time>
      </trkpt>
      <trkpt lat="44.25368" lon="7.04834">
        <ele>1816.1999511719</ele>
        <time>2018-05-09T06:43:00.000Z</time>
      </trkpt>
      <trkpt lat="44.25367" lon="7.04834">
        <ele>1816.1999511719</ele>
        <time>2018-05-09T06:43:03.000Z</time>
      </trkpt>
      <trkpt lat="44.25366" lon="7.04833">
        <ele>1816.1999511719</ele>
        <time>2018-05-09T06:43:06.000Z</time>
      </trkpt>
      <trkpt lat="44.25366" lon="7.04833">
        <ele>1816.1999511719</ele>
        <time>2018-05-09T06:43:07.000Z</time>
      </trkpt>
      <trkpt lat="44.25365" lon="7.04833">
        <ele>1816.1999511719</ele>
        <time>2018-05-09T06:43:12.000Z</time>
      </trkpt>
      <trkpt lat="44.25365" lon="7.04832">
        <ele>1816.1999511719</ele>
        <time>2018-05-09T06:43:15.000Z</time>
      </trkpt>
      <trkpt lat="44.25365" lon="7.04831">
        <ele>1816.1999511719</ele>
        <time>2018-05-09T06:43:17.000Z</time>
      </trkpt>
      <trkpt lat="44.25367" lon="7.04831">
        <ele>1816.1999511719</ele>
        <time>2018-05-09T06:43:21.000Z</time>
      </trkpt>
      <trkpt lat="44.25367" lon="7.04829">
        <ele>1816.1999511719</ele>
        <time>2018-05-09T06:43:24.000Z</time>
      </trkpt>
      <trkpt lat="44.25366" lon="7.04828">
        <ele>1816.1999511719</ele>
        <time>2018-05-09T06:43:26.000Z</time>
      </trkpt>
      <trkpt lat="44.25367" lon="7.04827">
        <ele>1816.1999511719</ele>
        <time>2018-05-09T06:43:29.000Z</time>
      </trkpt>
      <trkpt lat="44.25368" lon="7.04828">
        <ele>1816.1999511719</ele>
        <time>2018-05-09T06:43:33.000Z</time>
      </trkpt>
      <trkpt lat="44.25368" lon="7.04827">
        <ele>1816.1999511719</ele>
        <time>2018-05-09T06:43:34.000Z</time>
      </trkpt>
      <trkpt lat="44.25368" lon="7.04829">
        <ele>1816.1999511719</ele>
        <time>2018-05-09T06:43:36.000Z</time>
      </trkpt>
      <trkpt lat="44.25366" lon="7.04833">
        <ele>1816.1999511719</ele>
        <time>2018-05-09T06:43:38.000Z</time>
      </trkpt>
      <trkpt lat="44.25364" lon="7.04836">
        <ele>1816.1999511719</ele>
        <time>2018-05-09T06:43:41.000Z</time>
      </trkpt>
      <trkpt lat="44.25363" lon="7.04838">
        <ele>1816.1999511719</ele>
        <time>2018-05-09T06:43:42.000Z</time>
      </trkpt>
      <trkpt lat="44.25362" lon="7.04839">
        <ele>1816.1999511719</ele>
        <time>2018-05-09T06:43:43.000Z</time>
      </trkpt>
      <trkpt lat="44.25361" lon="7.0484">
        <ele>1816.1999511719</ele>
        <time>2018-05-09T06:43:44.000Z</time>
      </trkpt>
      <trkpt lat="44.2536" lon="7.04841">
        <ele>1816.1999511719</ele>
        <time>2018-05-09T06:43:46.000Z</time>
      </trkpt>
      <trkpt lat="44.25359" lon="7.04841">
        <ele>1816.1999511719</ele>
        <time>2018-05-09T06:43:48.000Z</time>
      </trkpt>
      <trkpt lat="44.2536" lon="7.04841">
        <ele>1816.1999511719</ele>
        <time>2018-05-09T06:43:51.000Z</time>
      </trkpt>
      <trkpt lat="44.2536" lon="7.04842">
        <ele>1816.1999511719</ele>
        <time>2018-05-09T06:44:05.000Z</time>
      </trkpt>
      <trkpt lat="44.25361" lon="7.04841">
        <ele>1816.1999511719</ele>
        <time>2018-05-09T06:44:08.000Z</time>
      </trkpt>
      <trkpt lat="44.25363" lon="7.04838">
        <ele>1816.1999511719</ele>
        <time>2018-05-09T06:44:12.000Z</time>
      </trkpt>
      <trkpt lat="44.25364" lon="7.04837">
        <ele>1816.1999511719</ele>
        <time>2018-05-09T06:44:15.000Z</time>
      </trkpt>
      <trkpt lat="44.25365" lon="7.04836">
        <ele>1816.1999511719</ele>
        <time>2018-05-09T06:44:17.000Z</time>
      </trkpt>
      <trkpt lat="44.25365" lon="7.04838">
        <ele>1816.1999511719</ele>
        <time>2018-05-09T06:44:22.000Z</time>
      </trkpt>
      <trkpt lat="44.25366" lon="7.04837">
        <ele>1816.1999511719</ele>
        <time>2018-05-09T06:44:24.000Z</time>
      </trkpt>
      <trkpt lat="44.25367" lon="7.04836">
        <ele>1816.1999511719</ele>
        <time>2018-05-09T06:44:26.000Z</time>
      </trkpt>
      <trkpt lat="44.25379" lon="7.04837">
        <ele>1816.1999511719</ele>
        <time>2018-05-09T06:44:30.000Z</time>
      </trkpt>
      <trkpt lat="44.2538" lon="7.04837">
        <ele>1816.1999511719</ele>
        <time>2018-05-09T06:44:32.000Z</time>
      </trkpt>
      <trkpt lat="44.25379" lon="7.04839">
        <ele>1816.4000244141</ele>
        <time>2018-05-09T06:44:35.000Z</time>
      </trkpt>
      <trkpt lat="44.25379" lon="7.04839">
        <ele>1816.4000244141</ele>
        <time>2018-05-09T06:44:36.000Z</time>
      </trkpt>
      <trkpt lat="44.25378" lon="7.0484">
        <ele>1816.5999755859</ele>
        <time>2018-05-09T06:44:37.000Z</time>
      </trkpt>
      <trkpt lat="44.25377" lon="7.0484">
        <ele>1816.5999755859</ele>
        <time>2018-05-09T06:44:38.000Z</time>
      </trkpt>
      <trkpt lat="44.25377" lon="7.04841">
        <ele>1816.5999755859</ele>
        <time>2018-05-09T06:44:39.000Z</time>
      </trkpt>
      <trkpt lat="44.25374" lon="7.04841">
        <ele>1816.5999755859</ele>
        <time>2018-05-09T06:44:44.000Z</time>
      </trkpt>
      <trkpt lat="44.25364" lon="7.0484">
        <ele>1816.5999755859</ele>
        <time>2018-05-09T06:44:57.000Z</time>
      </trkpt>
      <trkpt lat="44.25364" lon="7.04841">
        <ele>1816.4000244141</ele>
        <time>2018-05-09T06:45:00.000Z</time>
      </trkpt>
      <trkpt lat="44.25365" lon="7.04841">
        <ele>1816.4000244141</ele>
        <time>2018-05-09T06:45:02.000Z</time>
      </trkpt>
      <trkpt lat="44.25366" lon="7.0484">
        <ele>1816.4000244141</ele>
        <time>2018-05-09T06:45:03.000Z</time>
      </trkpt>
      <trkpt lat="44.25369" lon="7.04836">
        <ele>1816.5999755859</ele>
        <time>2018-05-09T06:45:05.000Z</time>
      </trkpt>
      <trkpt lat="44.25371" lon="7.04834">
        <ele>1816.5999755859</ele>
        <time>2018-05-09T06:45:07.000Z</time>
      </trkpt>
      <trkpt lat="44.25373" lon="7.04834">
        <ele>1816.5999755859</ele>
        <time>2018-05-09T06:45:10.000Z</time>
      </trkpt>
      <trkpt lat="44.25373" lon="7.04834">
        <ele>1816.5999755859</ele>
        <time>2018-05-09T06:45:12.000Z</time>
      </trkpt>
      <trkpt lat="44.25373" lon="7.04834">
        <ele>1816.5999755859</ele>
        <time>2018-05-09T06:45:13.000Z</time>
      </trkpt>
      <trkpt lat="44.25373" lon="7.04834">
        <ele>1816.5999755859</ele>
        <time>2018-05-09T06:45:14.000Z</time>
      </trkpt>
      <trkpt lat="44.25373" lon="7.04834">
        <ele>1816.5999755859</ele>
        <time>2018-05-09T06:45:15.000Z</time>
      </trkpt>
      <trkpt lat="44.25374" lon="7.04834">
        <ele>1816.4000244141</ele>
        <time>2018-05-09T06:45:21.000Z</time>
      </trkpt>
      <trkpt lat="44.25367" lon="7.04843">
        <ele>1816.8000488281</ele>
        <time>2018-05-09T06:45:33.000Z</time>
      </trkpt>
      <trkpt lat="44.25365" lon="7.04843">
        <ele>1816.8000488281</ele>
        <time>2018-05-09T06:45:35.000Z</time>
      </trkpt>
      <trkpt lat="44.25363" lon="7.04842">
        <ele>1817</ele>
        <time>2018-05-09T06:45:41.000Z</time>
      </trkpt>
      <trkpt lat="44.25363" lon="7.04842">
        <ele>1817</ele>
        <time>2018-05-09T06:45:42.000Z</time>
      </trkpt>
      <trkpt lat="44.25363" lon="7.04841">
        <ele>1817</ele>
        <time>2018-05-09T06:45:43.000Z</time>
      </trkpt>
      <trkpt lat="44.25363" lon="7.04841">
        <ele>1817</ele>
        <time>2018-05-09T06:45:44.000Z</time>
      </trkpt>
      <trkpt lat="44.25363" lon="7.04841">
        <ele>1817</ele>
        <time>2018-05-09T06:45:45.000Z</time>
      </trkpt>
      <trkpt lat="44.25362" lon="7.0484">
        <ele>1817</ele>
        <time>2018-05-09T06:45:46.000Z</time>
      </trkpt>
      <trkpt lat="44.25362" lon="7.0484">
        <ele>1817</ele>
        <time>2018-05-09T06:45:47.000Z</time>
      </trkpt>
      <trkpt lat="44.25361" lon="7.04839">
        <ele>1817</ele>
        <time>2018-05-09T06:45:48.000Z</time>
      </trkpt>
      <trkpt lat="44.2536" lon="7.04839">
        <ele>1817</ele>
        <time>2018-05-09T06:45:50.000Z</time>
      </trkpt>
      <trkpt lat="44.2536" lon="7.04839">
        <ele>1817</ele>
        <time>2018-05-09T06:45:51.000Z</time>
      </trkpt>
      <trkpt lat="44.25361" lon="7.04839">
        <ele>1817</ele>
        <time>2018-05-09T06:45:55.000Z</time>
      </trkpt>
      <trkpt lat="44.2536" lon="7.04836">
        <ele>1817</ele>
        <time>2018-05-09T06:46:02.000Z</time>
      </trkpt>
      <trkpt lat="44.25361" lon="7.04838">
        <ele>1817</ele>
        <time>2018-05-09T06:46:08.000Z</time>
      </trkpt>
      <trkpt lat="44.25361" lon="7.04838">
        <ele>1817</ele>
        <time>2018-05-09T06:46:11.000Z</time>
      </trkpt>
      <trkpt lat="44.25362" lon="7.04837">
        <ele>1817</ele>
        <time>2018-05-09T06:46:12.000Z</time>
      </trkpt>
      <trkpt lat="44.25363" lon="7.04836">
        <ele>1817</ele>
        <time>2018-05-09T06:46:14.000Z</time>
      </trkpt>
      <trkpt lat="44.25365" lon="7.04833">
        <ele>1817</ele>
        <time>2018-05-09T06:46:17.000Z</time>
      </trkpt>
      <trkpt lat="44.25365" lon="7.04833">
        <ele>1817</ele>
        <time>2018-05-09T06:46:19.000Z</time>
      </trkpt>
      <trkpt lat="44.25365" lon="7.04834">
        <ele>1817</ele>
        <time>2018-05-09T06:46:26.000Z</time>
      </trkpt>
      <trkpt lat="44.25365" lon="7.04833">
        <ele>1817</ele>
        <time>2018-05-09T06:46:27.000Z</time>
      </trkpt>
      <trkpt lat="44.25366" lon="7.04833">
        <ele>1817</ele>
        <time>2018-05-09T06:46:28.000Z</time>
      </trkpt>
      <trkpt lat="44.25366" lon="7.04834">
        <ele>1817</ele>
        <time>2018-05-09T06:46:32.000Z</time>
      </trkpt>
      <trkpt lat="44.25365" lon="7.04836">
        <ele>1816.8000488281</ele>
        <time>2018-05-09T06:46:34.000Z</time>
      </trkpt>
      <trkpt lat="44.25367" lon="7.04841">
        <ele>1817.4000244141</ele>
        <time>2018-05-09T06:46:42.000Z</time>
      </trkpt>
      <trkpt lat="44.25366" lon="7.04842">
        <ele>1817.4000244141</ele>
        <time>2018-05-09T06:46:44.000Z</time>
      </trkpt>
      <trkpt lat="44.25366" lon="7.04843">
        <ele>1816.8000488281</ele>
        <time>2018-05-09T06:46:47.000Z</time>
      </trkpt>
      <trkpt lat="44.25365" lon="7.04843">
        <ele>1817.4000244141</ele>
        <time>2018-05-09T06:46:50.000Z</time>
      </trkpt>
      <trkpt lat="44.25365" lon="7.04843">
        <ele>1817.1999511719</ele>
        <time>2018-05-09T06:46:52.000Z</time>
      </trkpt>
      <trkpt lat="44.25358" lon="7.04845">
        <ele>1817.4000244141</ele>
        <time>2018-05-09T06:46:59.000Z</time>
      </trkpt>
      <trkpt lat="44.25352" lon="7.04838">
        <ele>1817.4000244141</ele>
        <time>2018-05-09T06:47:12.000Z</time>
      </trkpt>
      <trkpt lat="44.25349" lon="7.04838">
        <ele>1818.1999511719</ele>
        <time>2018-05-09T06:47:19.000Z</time>
      </trkpt>
      <trkpt lat="44.25347" lon="7.04839">
        <ele>1818.5999755859</ele>
        <time>2018-05-09T06:47:21.000Z</time>
      </trkpt>
      <trkpt lat="44.25344" lon="7.0484">
        <ele>1818.8000488281</ele>
        <time>2018-05-09T06:47:23.000Z</time>
      </trkpt>
      <trkpt lat="44.25342" lon="7.0484">
        <ele>1818.8000488281</ele>
        <time>2018-05-09T06:47:24.000Z</time>
      </trkpt>
      <trkpt lat="44.25339" lon="7.0484">
        <ele>1819.1999511719</ele>
        <time>2018-05-09T06:47:27.000Z</time>
      </trkpt>
      <trkpt lat="44.25334" lon="7.04844">
        <ele>1819.8000488281</ele>
        <time>2018-05-09T06:47:30.000Z</time>
      </trkpt>
      <trkpt lat="44.25329" lon="7.04847">
        <ele>1820.1999511719</ele>
        <time>2018-05-09T06:47:34.000Z</time>
      </trkpt>
      <trkpt lat="44.25327" lon="7.04847">
        <ele>1820.4000244141</ele>
        <time>2018-05-09T06:47:36.000Z</time>
      </trkpt>
      <trkpt lat="44.25323" lon="7.04842">
        <ele>1821.4000244141</ele>
        <time>2018-05-09T06:47:42.000Z</time>
      </trkpt>
      <trkpt lat="44.2532" lon="7.04839">
        <ele>1821.8000488281</ele>
        <time>2018-05-09T06:47:47.000Z</time>
      </trkpt>
      <trkpt lat="44.25318" lon="7.04836">
        <ele>1822.4000244141</ele>
        <time>2018-05-09T06:47:51.000Z</time>
      </trkpt>
      <trkpt lat="44.25317" lon="7.04835">
        <ele>1822.5999755859</ele>
        <time>2018-05-09T06:47:52.000Z</time>
      </trkpt>
      <trkpt lat="44.25314" lon="7.04834">
        <ele>1823.5999755859</ele>
        <time>2018-05-09T06:47:58.000Z</time>
      </trkpt>
      <trkpt lat="44.25312" lon="7.04833">
        <ele>1823.8000488281</ele>
        <time>2018-05-09T06:48:01.000Z</time>
      </trkpt>
      <trkpt lat="44.25311" lon="7.04833">
        <ele>1824</ele>
        <time>2018-05-09T06:48:03.000Z</time>
      </trkpt>
      <trkpt lat="44.2531" lon="7.04833">
        <ele>1824.5999755859</ele>
        <time>2018-05-09T06:48:10.000Z</time>
      </trkpt>
      <trkpt lat="44.25309" lon="7.04841">
        <ele>1824.5999755859</ele>
        <time>2018-05-09T06:48:24.000Z</time>
      </trkpt>
      <trkpt lat="44.25308" lon="7.04838">
        <ele>1824.8000488281</ele>
        <time>2018-05-09T06:48:26.000Z</time>
      </trkpt>
      <trkpt lat="44.25307" lon="7.04837">
        <ele>1825</ele>
        <time>2018-05-09T06:48:27.000Z</time>
      </trkpt>
      <trkpt lat="44.25304" lon="7.04835">
        <ele>1825.8000488281</ele>
        <time>2018-05-09T06:48:30.000Z</time>
      </trkpt>
      <trkpt lat="44.25303" lon="7.04827">
        <ele>1826.8000488281</ele>
        <time>2018-05-09T06:48:37.000Z</time>
      </trkpt>
      <trkpt lat="44.25305" lon="7.04818">
        <ele>1828</ele>
        <time>2018-05-09T06:48:43.000Z</time>
      </trkpt>
      <trkpt lat="44.25305" lon="7.04815">
        <ele>1828.1999511719</ele>
        <time>2018-05-09T06:48:45.000Z</time>
      </trkpt>
      <trkpt lat="44.25303" lon="7.04814">
        <ele>1828.8000488281</ele>
        <time>2018-05-09T06:48:48.000Z</time>
      </trkpt>
      <trkpt lat="44.25302" lon="7.04813">
        <ele>1829</ele>
        <time>2018-05-09T06:48:49.000Z</time>
      </trkpt>
      <trkpt lat="44.25302" lon="7.04809">
        <ele>1829.8000488281</ele>
        <time>2018-05-09T06:48:53.000Z</time>
      </trkpt>
      <trkpt lat="44.253" lon="7.04807">
        <ele>1830.1999511719</ele>
        <time>2018-05-09T06:48:56.000Z</time>
      </trkpt>
      <trkpt lat="44.25299" lon="7.04808">
        <ele>1830.8000488281</ele>
        <time>2018-05-09T06:49:00.000Z</time>
      </trkpt>
      <trkpt lat="44.25297" lon="7.04808">
        <ele>1831.1999511719</ele>
        <time>2018-05-09T06:49:02.000Z</time>
      </trkpt>
      <trkpt lat="44.25297" lon="7.04809">
        <ele>1831.4000244141</ele>
        <time>2018-05-09T06:49:03.000Z</time>
      </trkpt>
      <trkpt lat="44.25295" lon="7.04812">
        <ele>1832.1999511719</ele>
        <time>2018-05-09T06:49:09.000Z</time>
      </trkpt>
      <trkpt lat="44.25292" lon="7.04816">
        <ele>1832.5999755859</ele>
        <time>2018-05-09T06:49:13.000Z</time>
      </trkpt>
      <trkpt lat="44.2529" lon="7.04818">
        <ele>1833.4000244141</ele>
        <time>2018-05-09T06:49:17.000Z</time>
      </trkpt>
      <trkpt lat="44.25285" lon="7.04827">
        <ele>1834</ele>
        <time>2018-05-09T06:49:26.000Z</time>
      </trkpt>
      <trkpt lat="44.25282" lon="7.04828">
        <ele>1834.1999511719</ele>
        <time>2018-05-09T06:49:35.000Z</time>
      </trkpt>
      <trkpt lat="44.25278" lon="7.04827">
        <ele>1834.4000244141</ele>
        <time>2018-05-09T06:49:39.000Z</time>
      </trkpt>
      <trkpt lat="44.25276" lon="7.04824">
        <ele>1835.4000244141</ele>
        <time>2018-05-09T06:49:43.000Z</time>
      </trkpt>
      <trkpt lat="44.25276" lon="7.04824">
        <ele>1835.5999755859</ele>
        <time>2018-05-09T06:49:44.000Z</time>
      </trkpt>
      <trkpt lat="44.25281" lon="7.04821">
        <ele>1836.1999511719</ele>
        <time>2018-05-09T06:49:51.000Z</time>
      </trkpt>
      <trkpt lat="44.25281" lon="7.04816">
        <ele>1836</ele>
        <time>2018-05-09T06:50:00.000Z</time>
      </trkpt>
      <trkpt lat="44.25282" lon="7.04811">
        <ele>1836.8000488281</ele>
        <time>2018-05-09T06:50:04.000Z</time>
      </trkpt>
      <trkpt lat="44.25281" lon="7.04811">
        <ele>1837</ele>
        <time>2018-05-09T06:50:05.000Z</time>
      </trkpt>
      <trkpt lat="44.25281" lon="7.0481">
        <ele>1837.1999511719</ele>
        <time>2018-05-09T06:50:06.000Z</time>
      </trkpt>
      <trkpt lat="44.25281" lon="7.04808">
        <ele>1837.5999755859</ele>
        <time>2018-05-09T06:50:08.000Z</time>
      </trkpt>
      <trkpt lat="44.2528" lon="7.04808">
        <ele>1838</ele>
        <time>2018-05-09T06:50:09.000Z</time>
      </trkpt>
      <trkpt lat="44.25279" lon="7.04808">
        <ele>1838.1999511719</ele>
        <time>2018-05-09T06:50:10.000Z</time>
      </trkpt>
      <trkpt lat="44.25278" lon="7.04807">
        <ele>1838.8000488281</ele>
        <time>2018-05-09T06:50:12.000Z</time>
      </trkpt>
      <trkpt lat="44.25278" lon="7.04807">
        <ele>1839</ele>
        <time>2018-05-09T06:50:13.000Z</time>
      </trkpt>
      <trkpt lat="44.25277" lon="7.04805">
        <ele>1840.1999511719</ele>
        <time>2018-05-09T06:50:18.000Z</time>
      </trkpt>
      <trkpt lat="44.25273" lon="7.04802">
        <ele>1840.5999755859</ele>
        <time>2018-05-09T06:50:22.000Z</time>
      </trkpt>
      <trkpt lat="44.25273" lon="7.04799">
        <ele>1840.8000488281</ele>
        <time>2018-05-09T06:50:24.000Z</time>
      </trkpt>
      <trkpt lat="44.25275" lon="7.04789">
        <ele>1841.1999511719</ele>
        <time>2018-05-09T06:50:30.000Z</time>
      </trkpt>
      <trkpt lat="44.25276" lon="7.04788">
        <ele>1841.4000244141</ele>
        <time>2018-05-09T06:50:31.000Z</time>
      </trkpt>
      <trkpt lat="44.25278" lon="7.04784">
        <ele>1842.4000244141</ele>
        <time>2018-05-09T06:50:35.000Z</time>
      </trkpt>
      <trkpt lat="44.25277" lon="7.04783">
        <ele>1842.5999755859</ele>
        <time>2018-05-09T06:50:36.000Z</time>
      </trkpt>
      <trkpt lat="44.25277" lon="7.04782">
        <ele>1842.5999755859</ele>
        <time>2018-05-09T06:50:37.000Z</time>
      </trkpt>
      <trkpt lat="44.25274" lon="7.04779">
        <ele>1843.1999511719</ele>
        <time>2018-05-09T06:50:41.000Z</time>
      </trkpt>
      <trkpt lat="44.25272" lon="7.0478">
        <ele>1843.4000244141</ele>
        <time>2018-05-09T06:50:42.000Z</time>
      </trkpt>
      <trkpt lat="44.2527" lon="7.04781">
        <ele>1844</ele>
        <time>2018-05-09T06:50:46.000Z</time>
      </trkpt>
      <trkpt lat="44.25268" lon="7.04783">
        <ele>1844.1999511719</ele>
        <time>2018-05-09T06:50:47.000Z</time>
      </trkpt>
      <trkpt lat="44.25267" lon="7.04784">
        <ele>1844.5999755859</ele>
        <time>2018-05-09T06:50:48.000Z</time>
      </trkpt>
      <trkpt lat="44.25265" lon="7.04785">
        <ele>1845.4000244141</ele>
        <time>2018-05-09T06:50:51.000Z</time>
      </trkpt>
      <trkpt lat="44.25264" lon="7.04786">
        <ele>1845.5999755859</ele>
        <time>2018-05-09T06:50:53.000Z</time>
      </trkpt>
      <trkpt lat="44.25264" lon="7.04787">
        <ele>1846</ele>
        <time>2018-05-09T06:50:56.000Z</time>
      </trkpt>
      <trkpt lat="44.25262" lon="7.0479">
        <ele>1846.1999511719</ele>
        <time>2018-05-09T06:50:59.000Z</time>
      </trkpt>
      <trkpt lat="44.2526" lon="7.04791">
        <ele>1846.8000488281</ele>
        <time>2018-05-09T06:51:04.000Z</time>
      </trkpt>
      <trkpt lat="44.25257" lon="7.04793">
        <ele>1847.8000488281</ele>
        <time>2018-05-09T06:51:10.000Z</time>
      </trkpt>
      <trkpt lat="44.25256" lon="7.04793">
        <ele>1847.8000488281</ele>
        <time>2018-05-09T06:51:11.000Z</time>
      </trkpt>
      <trkpt lat="44.25251" lon="7.04796">
        <ele>1848.8000488281</ele>
        <time>2018-05-09T06:51:17.000Z</time>
      </trkpt>
      <trkpt lat="44.25249" lon="7.04795">
        <ele>1849.4000244141</ele>
        <time>2018-05-09T06:51:20.000Z</time>
      </trkpt>
      <trkpt lat="44.25249" lon="7.0479">
        <ele>1850</ele>
        <time>2018-05-09T06:51:24.000Z</time>
      </trkpt>
      <trkpt lat="44.2525" lon="7.04784">
        <ele>1850.4000244141</ele>
        <time>2018-05-09T06:51:28.000Z</time>
      </trkpt>
      <trkpt lat="44.2525" lon="7.04777">
        <ele>1851</ele>
        <time>2018-05-09T06:51:33.000Z</time>
      </trkpt>
      <trkpt lat="44.2525" lon="7.04772">
        <ele>1851.8000488281</ele>
        <time>2018-05-09T06:51:38.000Z</time>
      </trkpt>
      <trkpt lat="44.25249" lon="7.04768">
        <ele>1852</ele>
        <time>2018-05-09T06:51:41.000Z</time>
      </trkpt>
      <trkpt lat="44.25248" lon="7.04761">
        <ele>1852</ele>
        <time>2018-05-09T06:51:51.000Z</time>
      </trkpt>
      <trkpt lat="44.25248" lon="7.0476">
        <ele>1852</ele>
        <time>2018-05-09T06:51:53.000Z</time>
      </trkpt>
      <trkpt lat="44.25247" lon="7.0476">
        <ele>1852</ele>
        <time>2018-05-09T06:51:55.000Z</time>
      </trkpt>
      <trkpt lat="44.25247" lon="7.04759">
        <ele>1852</ele>
        <time>2018-05-09T06:51:57.000Z</time>
      </trkpt>
      <trkpt lat="44.25248" lon="7.04758">
        <ele>1852</ele>
        <time>2018-05-09T06:52:00.000Z</time>
      </trkpt>
      <trkpt lat="44.25247" lon="7.04761">
        <ele>1852.8000488281</ele>
        <time>2018-05-09T06:52:05.000Z</time>
      </trkpt>
      <trkpt lat="44.25247" lon="7.04762">
        <ele>1853.1999511719</ele>
        <time>2018-05-09T06:52:06.000Z</time>
      </trkpt>
      <trkpt lat="44.25244" lon="7.04767">
        <ele>1853.5999755859</ele>
        <time>2018-05-09T06:52:10.000Z</time>
      </trkpt>
      <trkpt lat="44.25243" lon="7.04768">
        <ele>1854.1999511719</ele>
        <time>2018-05-09T06:52:12.000Z</time>
      </trkpt>
      <trkpt lat="44.25239" lon="7.04769">
        <ele>1855.4000244141</ele>
        <time>2018-05-09T06:52:17.000Z</time>
      </trkpt>
      <trkpt lat="44.25238" lon="7.04768">
        <ele>1855.5999755859</ele>
        <time>2018-05-09T06:52:18.000Z</time>
      </trkpt>
      <trkpt lat="44.25237" lon="7.04767">
        <ele>1855.8000488281</ele>
        <time>2018-05-09T06:52:20.000Z</time>
      </trkpt>
      <trkpt lat="44.25237" lon="7.04763">
        <ele>1856.4000244141</ele>
        <time>2018-05-09T06:52:23.000Z</time>
      </trkpt>
      <trkpt lat="44.25237" lon="7.04762">
        <ele>1856.5999755859</ele>
        <time>2018-05-09T06:52:24.000Z</time>
      </trkpt>
      <trkpt lat="44.25239" lon="7.0476">
        <ele>1857</ele>
        <time>2018-05-09T06:52:26.000Z</time>
      </trkpt>
      <trkpt lat="44.25241" lon="7.04756">
        <ele>1857.4000244141</ele>
        <time>2018-05-09T06:52:30.000Z</time>
      </trkpt>
      <trkpt lat="44.25242" lon="7.04754">
        <ele>1857.4000244141</ele>
        <time>2018-05-09T06:52:31.000Z</time>
      </trkpt>
      <trkpt lat="44.25242" lon="7.04752">
        <ele>1857.4000244141</ele>
        <time>2018-05-09T06:52:32.000Z</time>
      </trkpt>
      <trkpt lat="44.25242" lon="7.0475">
        <ele>1858</ele>
        <time>2018-05-09T06:52:34.000Z</time>
      </trkpt>
      <trkpt lat="44.25243" lon="7.04746">
        <ele>1858.4000244141</ele>
        <time>2018-05-09T06:52:37.000Z</time>
      </trkpt>
      <trkpt lat="44.25244" lon="7.04744">
        <ele>1858.5999755859</ele>
        <time>2018-05-09T06:52:39.000Z</time>
      </trkpt>
      <trkpt lat="44.25244" lon="7.04742">
        <ele>1859.4000244141</ele>
        <time>2018-05-09T06:52:42.000Z</time>
      </trkpt>
      <trkpt lat="44.25243" lon="7.04743">
        <ele>1859.8000488281</ele>
        <time>2018-05-09T06:52:44.000Z</time>
      </trkpt>
      <trkpt lat="44.25239" lon="7.04743">
        <ele>1860.8000488281</ele>
        <time>2018-05-09T06:52:50.000Z</time>
      </trkpt>
      <trkpt lat="44.25232" lon="7.04752">
        <ele>1861.1999511719</ele>
        <time>2018-05-09T06:52:57.000Z</time>
      </trkpt>
      <trkpt lat="44.25231" lon="7.04753">
        <ele>1861.4000244141</ele>
        <time>2018-05-09T06:52:59.000Z</time>
      </trkpt>
      <trkpt lat="44.25228" lon="7.04756">
        <ele>1861.8000488281</ele>
        <time>2018-05-09T06:53:01.000Z</time>
      </trkpt>
      <trkpt lat="44.25226" lon="7.04758">
        <ele>1862.5999755859</ele>
        <time>2018-05-09T06:53:05.000Z</time>
      </trkpt>
      <trkpt lat="44.25224" lon="7.04757">
        <ele>1863</ele>
        <time>2018-05-09T06:53:07.000Z</time>
      </trkpt>
      <trkpt lat="44.25224" lon="7.04756">
        <ele>1863.4000244141</ele>
        <time>2018-05-09T06:53:09.000Z</time>
      </trkpt>
      <trkpt lat="44.25223" lon="7.04755">
        <ele>1863.5999755859</ele>
        <time>2018-05-09T06:53:10.000Z</time>
      </trkpt>
      <trkpt lat="44.25223" lon="7.04755">
        <ele>1863.8000488281</ele>
        <time>2018-05-09T06:53:11.000Z</time>
      </trkpt>
      <trkpt lat="44.25222" lon="7.04756">
        <ele>1864</ele>
        <time>2018-05-09T06:53:12.000Z</time>
      </trkpt>
      <trkpt lat="44.25221" lon="7.04756">
        <ele>1864.1999511719</ele>
        <time>2018-05-09T06:53:13.000Z</time>
      </trkpt>
      <trkpt lat="44.25219" lon="7.04758">
        <ele>1864.5999755859</ele>
        <time>2018-05-09T06:53:15.000Z</time>
      </trkpt>
      <trkpt lat="44.25217" lon="7.04759">
        <ele>1865.1999511719</ele>
        <time>2018-05-09T06:53:17.000Z</time>
      </trkpt>
      <trkpt lat="44.25216" lon="7.04759">
        <ele>1865.1999511719</ele>
        <time>2018-05-09T06:53:18.000Z</time>
      </trkpt>
      <trkpt lat="44.25219" lon="7.04751">
        <ele>1865.5999755859</ele>
        <time>2018-05-09T06:53:29.000Z</time>
      </trkpt>
      <trkpt lat="44.2522" lon="7.04746">
        <ele>1866.1999511719</ele>
        <time>2018-05-09T06:53:36.000Z</time>
      </trkpt>
      <trkpt lat="44.25221" lon="7.04744">
        <ele>1866.4000244141</ele>
        <time>2018-05-09T06:53:38.000Z</time>
      </trkpt>
      <trkpt lat="44.25222" lon="7.0474">
        <ele>1866.5999755859</ele>
        <time>2018-05-09T06:53:41.000Z</time>
      </trkpt>
      <trkpt lat="44.25223" lon="7.04738">
        <ele>1866.8000488281</ele>
        <time>2018-05-09T06:53:43.000Z</time>
      </trkpt>
      <trkpt lat="44.25223" lon="7.04737">
        <ele>1867.1999511719</ele>
        <time>2018-05-09T06:53:46.000Z</time>
      </trkpt>
      <trkpt lat="44.25219" lon="7.04737">
        <ele>1868.4000244141</ele>
        <time>2018-05-09T06:53:52.000Z</time>
      </trkpt>
      <trkpt lat="44.25215" lon="7.0474">
        <ele>1869.1999511719</ele>
        <time>2018-05-09T06:53:56.000Z</time>
      </trkpt>
      <trkpt lat="44.25214" lon="7.0474">
        <ele>1869.5999755859</ele>
        <time>2018-05-09T06:53:57.000Z</time>
      </trkpt>
      <trkpt lat="44.25213" lon="7.04738">
        <ele>1870</ele>
        <time>2018-05-09T06:54:00.000Z</time>
      </trkpt>
      <trkpt lat="44.25212" lon="7.04735">
        <ele>1870.5999755859</ele>
        <time>2018-05-09T06:54:03.000Z</time>
      </trkpt>
      <trkpt lat="44.25212" lon="7.04733">
        <ele>1870.8000488281</ele>
        <time>2018-05-09T06:54:04.000Z</time>
      </trkpt>
      <trkpt lat="44.25213" lon="7.04732">
        <ele>1871</ele>
        <time>2018-05-09T06:54:05.000Z</time>
      </trkpt>
      <trkpt lat="44.25216" lon="7.04727">
        <ele>1871.5999755859</ele>
        <time>2018-05-09T06:54:09.000Z</time>
      </trkpt>
      <trkpt lat="44.25216" lon="7.04726">
        <ele>1871.8000488281</ele>
        <time>2018-05-09T06:54:10.000Z</time>
      </trkpt>
      <trkpt lat="44.25217" lon="7.04721">
        <ele>1872.1999511719</ele>
        <time>2018-05-09T06:54:13.000Z</time>
      </trkpt>
      <trkpt lat="44.25218" lon="7.04717">
        <ele>1872.8000488281</ele>
        <time>2018-05-09T06:54:17.000Z</time>
      </trkpt>
      <trkpt lat="44.25218" lon="7.04715">
        <ele>1873</ele>
        <time>2018-05-09T06:54:19.000Z</time>
      </trkpt>
      <trkpt lat="44.25218" lon="7.04714">
        <ele>1873.1999511719</ele>
        <time>2018-05-09T06:54:22.000Z</time>
      </trkpt>
      <trkpt lat="44.25218" lon="7.04708">
        <ele>1873.8000488281</ele>
        <time>2018-05-09T06:54:29.000Z</time>
      </trkpt>
      <trkpt lat="44.25218" lon="7.04704">
        <ele>1874.8000488281</ele>
        <time>2018-05-09T06:54:35.000Z</time>
      </trkpt>
      <trkpt lat="44.25218" lon="7.04704">
        <ele>1875</ele>
        <time>2018-05-09T06:54:36.000Z</time>
      </trkpt>
      <trkpt lat="44.25219" lon="7.04699">
        <ele>1875.8000488281</ele>
        <time>2018-05-09T06:54:43.000Z</time>
      </trkpt>
      <trkpt lat="44.25218" lon="7.04691">
        <ele>1877</ele>
        <time>2018-05-09T06:54:52.000Z</time>
      </trkpt>
      <trkpt lat="44.25216" lon="7.04689">
        <ele>1878</ele>
        <time>2018-05-09T06:54:57.000Z</time>
      </trkpt>
      <trkpt lat="44.25213" lon="7.04696">
        <ele>1879</ele>
        <time>2018-05-09T06:55:02.000Z</time>
      </trkpt>
      <trkpt lat="44.25208" lon="7.04702">
        <ele>1880</ele>
        <time>2018-05-09T06:55:08.000Z</time>
      </trkpt>
      <trkpt lat="44.25208" lon="7.04702">
        <ele>1880</ele>
        <time>2018-05-09T06:55:09.000Z</time>
      </trkpt>
      <trkpt lat="44.25207" lon="7.04703">
        <ele>1880.1999511719</ele>
        <time>2018-05-09T06:55:10.000Z</time>
      </trkpt>
      <trkpt lat="44.25206" lon="7.04703">
        <ele>1880.4000244141</ele>
        <time>2018-05-09T06:55:12.000Z</time>
      </trkpt>
      <trkpt lat="44.25195" lon="7.04713">
        <ele>1880.1999511719</ele>
        <time>2018-05-09T06:55:28.000Z</time>
      </trkpt>
      <trkpt lat="44.25194" lon="7.04713">
        <ele>1880.4000244141</ele>
        <time>2018-05-09T06:55:35.000Z</time>
      </trkpt>
      <trkpt lat="44.25193" lon="7.04714">
        <ele>1880.4000244141</ele>
        <time>2018-05-09T06:55:37.000Z</time>
      </trkpt>
      <trkpt lat="44.25189" lon="7.04725">
        <ele>1880.4000244141</ele>
        <time>2018-05-09T06:55:42.000Z</time>
      </trkpt>
      <trkpt lat="44.25189" lon="7.04726">
        <ele>1880.4000244141</ele>
        <time>2018-05-09T06:55:43.000Z</time>
      </trkpt>
      <trkpt lat="44.25188" lon="7.04726">
        <ele>1880.4000244141</ele>
        <time>2018-05-09T06:55:44.000Z</time>
      </trkpt>
      <trkpt lat="44.25186" lon="7.04722">
        <ele>1881.1999511719</ele>
        <time>2018-05-09T06:55:50.000Z</time>
      </trkpt>
      <trkpt lat="44.25187" lon="7.04719">
        <ele>1882</ele>
        <time>2018-05-09T06:55:52.000Z</time>
      </trkpt>
      <trkpt lat="44.25192" lon="7.0471">
        <ele>1882.4000244141</ele>
        <time>2018-05-09T06:55:53.000Z</time>
      </trkpt>
      <trkpt lat="44.25197" lon="7.04699">
        <ele>1882.8000488281</ele>
        <time>2018-05-09T06:55:56.000Z</time>
      </trkpt>
      <trkpt lat="44.25199" lon="7.04693">
        <ele>1883</ele>
        <time>2018-05-09T06:55:58.000Z</time>
      </trkpt>
      <trkpt lat="44.252" lon="7.04691">
        <ele>1883.4000244141</ele>
        <time>2018-05-09T06:56:00.000Z</time>
      </trkpt>
      <trkpt lat="44.252" lon="7.0469">
        <ele>1883.5999755859</ele>
        <time>2018-05-09T06:56:01.000Z</time>
      </trkpt>
      <trkpt lat="44.25201" lon="7.04684">
        <ele>1883.8000488281</ele>
        <time>2018-05-09T06:56:05.000Z</time>
      </trkpt>
      <trkpt lat="44.25201" lon="7.04682">
        <ele>1884</ele>
        <time>2018-05-09T06:56:06.000Z</time>
      </trkpt>
      <trkpt lat="44.25201" lon="7.04681">
        <ele>1884</ele>
        <time>2018-05-09T06:56:07.000Z</time>
      </trkpt>
      <trkpt lat="44.25201" lon="7.0468">
        <ele>1884.1999511719</ele>
        <time>2018-05-09T06:56:08.000Z</time>
      </trkpt>
      <trkpt lat="44.252" lon="7.04679">
        <ele>1884.4000244141</ele>
        <time>2018-05-09T06:56:10.000Z</time>
      </trkpt>
      <trkpt lat="44.25199" lon="7.04677">
        <ele>1885</ele>
        <time>2018-05-09T06:56:14.000Z</time>
      </trkpt>
      <trkpt lat="44.25199" lon="7.04676">
        <ele>1885.1999511719</ele>
        <time>2018-05-09T06:56:15.000Z</time>
      </trkpt>
      <trkpt lat="44.25198" lon="7.04677">
        <ele>1885.4000244141</ele>
        <time>2018-05-09T06:56:16.000Z</time>
      </trkpt>
      <trkpt lat="44.25196" lon="7.04678">
        <ele>1885.5999755859</ele>
        <time>2018-05-09T06:56:18.000Z</time>
      </trkpt>
      <trkpt lat="44.25196" lon="7.04678">
        <ele>1885.5999755859</ele>
        <time>2018-05-09T06:56:19.000Z</time>
      </trkpt>
      <trkpt lat="44.25193" lon="7.0468">
        <ele>1885.8000488281</ele>
        <time>2018-05-09T06:56:20.000Z</time>
      </trkpt>
      <trkpt lat="44.25193" lon="7.0468">
        <ele>1886</ele>
        <time>2018-05-09T06:56:21.000Z</time>
      </trkpt>
      <trkpt lat="44.25192" lon="7.04679">
        <ele>1886.5999755859</ele>
        <time>2018-05-09T06:56:24.000Z</time>
      </trkpt>
      <trkpt lat="44.25193" lon="7.04678">
        <ele>1886.8000488281</ele>
        <time>2018-05-09T06:56:25.000Z</time>
      </trkpt>
      <trkpt lat="44.25193" lon="7.04676">
        <ele>1887</ele>
        <time>2018-05-09T06:56:26.000Z</time>
      </trkpt>
      <trkpt lat="44.25194" lon="7.04675">
        <ele>1887.1999511719</ele>
        <time>2018-05-09T06:56:27.000Z</time>
      </trkpt>
      <trkpt lat="44.25194" lon="7.04673">
        <ele>1887.4000244141</ele>
        <time>2018-05-09T06:56:28.000Z</time>
      </trkpt>
      <trkpt lat="44.25195" lon="7.04667">
        <ele>1887.8000488281</ele>
        <time>2018-05-09T06:56:32.000Z</time>
      </trkpt>
      <trkpt lat="44.25195" lon="7.04666">
        <ele>1888</ele>
        <time>2018-05-09T06:56:33.000Z</time>
      </trkpt>
      <trkpt lat="44.25195" lon="7.04663">
        <ele>1888.1999511719</ele>
        <time>2018-05-09T06:56:35.000Z</time>
      </trkpt>
      <trkpt lat="44.25192" lon="7.04662">
        <ele>1888.5999755859</ele>
        <time>2018-05-09T06:56:41.000Z</time>
      </trkpt>
      <trkpt lat="44.25194" lon="7.04665">
        <ele>1888.5999755859</ele>
        <time>2018-05-09T06:56:49.000Z</time>
      </trkpt>
      <trkpt lat="44.25194" lon="7.04663">
        <ele>1888.5999755859</ele>
        <time>2018-05-09T06:56:54.000Z</time>
      </trkpt>
      <trkpt lat="44.25193" lon="7.04662">
        <ele>1888.5999755859</ele>
        <time>2018-05-09T06:56:55.000Z</time>
      </trkpt>
      <trkpt lat="44.25192" lon="7.04659">
        <ele>1888.8000488281</ele>
        <time>2018-05-09T06:56:57.000Z</time>
      </trkpt>
      <trkpt lat="44.25192" lon="7.04659">
        <ele>1889</ele>
        <time>2018-05-09T06:56:58.000Z</time>
      </trkpt>
      <trkpt lat="44.25191" lon="7.04659">
        <ele>1889.1999511719</ele>
        <time>2018-05-09T06:56:59.000Z</time>
      </trkpt>
      <trkpt lat="44.25188" lon="7.04658">
        <ele>1889.5999755859</ele>
        <time>2018-05-09T06:57:03.000Z</time>
      </trkpt>
      <trkpt lat="44.25187" lon="7.04658">
        <ele>1890</ele>
        <time>2018-05-09T06:57:05.000Z</time>
      </trkpt>
      <trkpt lat="44.25184" lon="7.04657">
        <ele>1890.5999755859</ele>
        <time>2018-05-09T06:57:09.000Z</time>
      </trkpt>
      <trkpt lat="44.25183" lon="7.04656">
        <ele>1890.8000488281</ele>
        <time>2018-05-09T06:57:11.000Z</time>
      </trkpt>
      <trkpt lat="44.25183" lon="7.04655">
        <ele>1891</ele>
        <time>2018-05-09T06:57:12.000Z</time>
      </trkpt>
      <trkpt lat="44.25178" lon="7.04652">
        <ele>1892.1999511719</ele>
        <time>2018-05-09T06:57:20.000Z</time>
      </trkpt>
      <trkpt lat="44.25177" lon="7.0465">
        <ele>1892.4000244141</ele>
        <time>2018-05-09T06:57:22.000Z</time>
      </trkpt>
      <trkpt lat="44.25175" lon="7.04646">
        <ele>1893.4000244141</ele>
        <time>2018-05-09T06:57:26.000Z</time>
      </trkpt>
      <trkpt lat="44.25173" lon="7.0464">
        <ele>1894.1999511719</ele>
        <time>2018-05-09T06:57:32.000Z</time>
      </trkpt>
      <trkpt lat="44.25172" lon="7.04639">
        <ele>1894.5999755859</ele>
        <time>2018-05-09T06:57:34.000Z</time>
      </trkpt>
      <trkpt lat="44.25171" lon="7.04638">
        <ele>1894.5999755859</ele>
        <time>2018-05-09T06:57:35.000Z</time>
      </trkpt>
      <trkpt lat="44.25171" lon="7.04637">
        <ele>1895</ele>
        <time>2018-05-09T06:57:36.000Z</time>
      </trkpt>
      <trkpt lat="44.2517" lon="7.04635">
        <ele>1895.5999755859</ele>
        <time>2018-05-09T06:57:38.000Z</time>
      </trkpt>
      <trkpt lat="44.25165" lon="7.04633">
        <ele>1896.8000488281</ele>
        <time>2018-05-09T06:57:46.000Z</time>
      </trkpt>
      <trkpt lat="44.25165" lon="7.04633">
        <ele>1897.1999511719</ele>
        <time>2018-05-09T06:57:47.000Z</time>
      </trkpt>
      <trkpt lat="44.25163" lon="7.0463">
        <ele>1898</ele>
        <time>2018-05-09T06:57:52.000Z</time>
      </trkpt>
      <trkpt lat="44.25162" lon="7.0463">
        <ele>1898.4000244141</ele>
        <time>2018-05-09T06:57:56.000Z</time>
      </trkpt>
      <trkpt lat="44.25149" lon="7.04648">
        <ele>1898.4000244141</ele>
        <time>2018-05-09T06:58:13.000Z</time>
      </trkpt>
      <trkpt lat="44.25147" lon="7.04652">
        <ele>1898.4000244141</ele>
        <time>2018-05-09T06:58:15.000Z</time>
      </trkpt>
      <trkpt lat="44.25146" lon="7.04654">
        <ele>1898.4000244141</ele>
        <time>2018-05-09T06:58:16.000Z</time>
      </trkpt>
      <trkpt lat="44.25158" lon="7.04634">
        <ele>1898.4000244141</ele>
        <time>2018-05-09T06:58:23.000Z</time>
      </trkpt>
      <trkpt lat="44.25161" lon="7.04629">
        <ele>1898.4000244141</ele>
        <time>2018-05-09T06:58:25.000Z</time>
      </trkpt>
      <trkpt lat="44.25161" lon="7.0463">
        <ele>1898.4000244141</ele>
        <time>2018-05-09T06:58:26.000Z</time>
      </trkpt>
      <trkpt lat="44.25162" lon="7.04626">
        <ele>1898.4000244141</ele>
        <time>2018-05-09T06:58:28.000Z</time>
      </trkpt>
      <trkpt lat="44.2516" lon="7.0462">
        <ele>1898.4000244141</ele>
        <time>2018-05-09T06:58:30.000Z</time>
      </trkpt>
      <trkpt lat="44.2516" lon="7.04619">
        <ele>1898.4000244141</ele>
        <time>2018-05-09T06:58:31.000Z</time>
      </trkpt>
      <trkpt lat="44.25164" lon="7.04624">
        <ele>1898.4000244141</ele>
        <time>2018-05-09T06:58:37.000Z</time>
      </trkpt>
      <trkpt lat="44.25164" lon="7.04625">
        <ele>1898.4000244141</ele>
        <time>2018-05-09T06:58:38.000Z</time>
      </trkpt>
      <trkpt lat="44.25165" lon="7.04628">
        <ele>1898.1999511719</ele>
        <time>2018-05-09T06:58:41.000Z</time>
      </trkpt>
      <trkpt lat="44.25167" lon="7.04623">
        <ele>1898.1999511719</ele>
        <time>2018-05-09T06:58:43.000Z</time>
      </trkpt>
      <trkpt lat="44.25166" lon="7.04623">
        <ele>1898.4000244141</ele>
        <time>2018-05-09T06:58:46.000Z</time>
      </trkpt>
      <trkpt lat="44.25161" lon="7.0462">
        <ele>1899.1999511719</ele>
        <time>2018-05-09T06:58:52.000Z</time>
      </trkpt>
      <trkpt lat="44.2516" lon="7.04619">
        <ele>1899.5999755859</ele>
        <time>2018-05-09T06:58:53.000Z</time>
      </trkpt>
      <trkpt lat="44.2516" lon="7.04617">
        <ele>1900</ele>
        <time>2018-05-09T06:58:55.000Z</time>
      </trkpt>
      <trkpt lat="44.25159" lon="7.04616">
        <ele>1900.4000244141</ele>
        <time>2018-05-09T06:58:57.000Z</time>
      </trkpt>
      <trkpt lat="44.25158" lon="7.04615">
        <ele>1900.5999755859</ele>
        <time>2018-05-09T06:58:58.000Z</time>
      </trkpt>
      <trkpt lat="44.25154" lon="7.04613">
        <ele>1901.1999511719</ele>
        <time>2018-05-09T06:59:01.000Z</time>
      </trkpt>
      <trkpt lat="44.25152" lon="7.04612">
        <ele>1901.4000244141</ele>
        <time>2018-05-09T06:59:04.000Z</time>
      </trkpt>
      <trkpt lat="44.25151" lon="7.04611">
        <ele>1901.5999755859</ele>
        <time>2018-05-09T06:59:05.000Z</time>
      </trkpt>
      <trkpt lat="44.25149" lon="7.04609">
        <ele>1902</ele>
        <time>2018-05-09T06:59:07.000Z</time>
      </trkpt>
      <trkpt lat="44.25146" lon="7.04607">
        <ele>1902.5999755859</ele>
        <time>2018-05-09T06:59:10.000Z</time>
      </trkpt>
      <trkpt lat="44.25144" lon="7.04606">
        <ele>1902.8000488281</ele>
        <time>2018-05-09T06:59:13.000Z</time>
      </trkpt>
      <trkpt lat="44.25144" lon="7.04606">
        <ele>1903</ele>
        <time>2018-05-09T06:59:14.000Z</time>
      </trkpt>
      <trkpt lat="44.25142" lon="7.04605">
        <ele>1903.4000244141</ele>
        <time>2018-05-09T06:59:16.000Z</time>
      </trkpt>
      <trkpt lat="44.25142" lon="7.04604">
        <ele>1903.5999755859</ele>
        <time>2018-05-09T06:59:17.000Z</time>
      </trkpt>
      <trkpt lat="44.25141" lon="7.04604">
        <ele>1903.8000488281</ele>
        <time>2018-05-09T06:59:18.000Z</time>
      </trkpt>
      <trkpt lat="44.2514" lon="7.04604">
        <ele>1904.1999511719</ele>
        <time>2018-05-09T06:59:20.000Z</time>
      </trkpt>
      <trkpt lat="44.25137" lon="7.04603">
        <ele>1904.8000488281</ele>
        <time>2018-05-09T06:59:23.000Z</time>
      </trkpt>
      <trkpt lat="44.25136" lon="7.04604">
        <ele>1905</ele>
        <time>2018-05-09T06:59:24.000Z</time>
      </trkpt>
      <trkpt lat="44.25133" lon="7.04603">
        <ele>1905.8000488281</ele>
        <time>2018-05-09T06:59:28.000Z</time>
      </trkpt>
      <trkpt lat="44.25128" lon="7.04603">
        <ele>1906.5999755859</ele>
        <time>2018-05-09T06:59:34.000Z</time>
      </trkpt>
      <trkpt lat="44.25127" lon="7.04603">
        <ele>1906.8000488281</ele>
        <time>2018-05-09T06:59:36.000Z</time>
      </trkpt>
      <trkpt lat="44.25124" lon="7.04604">
        <ele>1907.8000488281</ele>
        <time>2018-05-09T06:59:40.000Z</time>
      </trkpt>
      <trkpt lat="44.25124" lon="7.04604">
        <ele>1908</ele>
        <time>2018-05-09T06:59:41.000Z</time>
      </trkpt>
      <trkpt lat="44.2512" lon="7.04606">
        <ele>1909</ele>
        <time>2018-05-09T06:59:45.000Z</time>
      </trkpt>
      <trkpt lat="44.25119" lon="7.04606">
        <ele>1909.1999511719</ele>
        <time>2018-05-09T06:59:46.000Z</time>
      </trkpt>
      <trkpt lat="44.25117" lon="7.04606">
        <ele>1910</ele>
        <time>2018-05-09T06:59:49.000Z</time>
      </trkpt>
      <trkpt lat="44.25116" lon="7.04606">
        <ele>1910.1999511719</ele>
        <time>2018-05-09T06:59:51.000Z</time>
      </trkpt>
      <trkpt lat="44.25115" lon="7.04606">
        <ele>1910.4000244141</ele>
        <time>2018-05-09T06:59:52.000Z</time>
      </trkpt>
      <trkpt lat="44.2511" lon="7.04607">
        <ele>1911.4000244141</ele>
        <time>2018-05-09T07:00:00.000Z</time>
      </trkpt>
      <trkpt lat="44.25107" lon="7.04608">
        <ele>1912.1999511719</ele>
        <time>2018-05-09T07:00:05.000Z</time>
      </trkpt>
      <trkpt lat="44.25105" lon="7.0461">
        <ele>1912.5999755859</ele>
        <time>2018-05-09T07:00:08.000Z</time>
      </trkpt>
      <trkpt lat="44.25105" lon="7.04619">
        <ele>1913.5999755859</ele>
        <time>2018-05-09T07:00:19.000Z</time>
      </trkpt>
      <trkpt lat="44.25103" lon="7.04625">
        <ele>1914.4000244141</ele>
        <time>2018-05-09T07:00:23.000Z</time>
      </trkpt>
      <trkpt lat="44.25104" lon="7.04629">
        <ele>1914.5999755859</ele>
        <time>2018-05-09T07:00:26.000Z</time>
      </trkpt>
      <trkpt lat="44.25106" lon="7.04634">
        <ele>1915.8000488281</ele>
        <time>2018-05-09T07:00:34.000Z</time>
      </trkpt>
      <trkpt lat="44.25105" lon="7.04636">
        <ele>1916.1999511719</ele>
        <time>2018-05-09T07:00:37.000Z</time>
      </trkpt>
      <trkpt lat="44.25102" lon="7.04643">
        <ele>1916.4000244141</ele>
        <time>2018-05-09T07:00:43.000Z</time>
      </trkpt>
      <trkpt lat="44.25101" lon="7.04637">
        <ele>1916.5999755859</ele>
        <time>2018-05-09T07:00:50.000Z</time>
      </trkpt>
      <trkpt lat="44.25101" lon="7.0464">
        <ele>1916.8000488281</ele>
        <time>2018-05-09T07:00:54.000Z</time>
      </trkpt>
      <trkpt lat="44.25101" lon="7.0464">
        <ele>1917.1999511719</ele>
        <time>2018-05-09T07:00:56.000Z</time>
      </trkpt>
      <trkpt lat="44.251" lon="7.04643">
        <ele>1917.4000244141</ele>
        <time>2018-05-09T07:00:59.000Z</time>
      </trkpt>
      <trkpt lat="44.25097" lon="7.04646">
        <ele>1917.5999755859</ele>
        <time>2018-05-09T07:01:02.000Z</time>
      </trkpt>
      <trkpt lat="44.25094" lon="7.0465">
        <ele>1918</ele>
        <time>2018-05-09T07:01:05.000Z</time>
      </trkpt>
      <trkpt lat="44.25096" lon="7.0465">
        <ele>1918.5999755859</ele>
        <time>2018-05-09T07:01:13.000Z</time>
      </trkpt>
      <trkpt lat="44.25095" lon="7.04651">
        <ele>1918.5999755859</ele>
        <time>2018-05-09T07:01:21.000Z</time>
      </trkpt>
      <trkpt lat="44.25097" lon="7.04647">
        <ele>1918.5999755859</ele>
        <time>2018-05-09T07:01:23.000Z</time>
      </trkpt>
      <trkpt lat="44.25097" lon="7.04646">
        <ele>1918.4000244141</ele>
        <time>2018-05-09T07:01:24.000Z</time>
      </trkpt>
      <trkpt lat="44.25097" lon="7.04645">
        <ele>1918.4000244141</ele>
        <time>2018-05-09T07:01:25.000Z</time>
      </trkpt>
      <trkpt lat="44.25096" lon="7.04645">
        <ele>1918.4000244141</ele>
        <time>2018-05-09T07:01:26.000Z</time>
      </trkpt>
      <trkpt lat="44.25093" lon="7.04647">
        <ele>1918.4000244141</ele>
        <time>2018-05-09T07:01:29.000Z</time>
      </trkpt>
      <trkpt lat="44.25086" lon="7.04656">
        <ele>1919</ele>
        <time>2018-05-09T07:01:35.000Z</time>
      </trkpt>
      <trkpt lat="44.25083" lon="7.0466">
        <ele>1919</ele>
        <time>2018-05-09T07:01:37.000Z</time>
      </trkpt>
      <trkpt lat="44.25078" lon="7.04662">
        <ele>1919.4000244141</ele>
        <time>2018-05-09T07:01:41.000Z</time>
      </trkpt>
      <trkpt lat="44.25077" lon="7.04658">
        <ele>1919.8000488281</ele>
        <time>2018-05-09T07:01:44.000Z</time>
      </trkpt>
      <trkpt lat="44.25076" lon="7.04658">
        <ele>1919.8000488281</ele>
        <time>2018-05-09T07:01:45.000Z</time>
      </trkpt>
      <trkpt lat="44.25076" lon="7.04657">
        <ele>1920</ele>
        <time>2018-05-09T07:01:47.000Z</time>
      </trkpt>
      <trkpt lat="44.25074" lon="7.0466">
        <ele>1920.4000244141</ele>
        <time>2018-05-09T07:01:50.000Z</time>
      </trkpt>
      <trkpt lat="44.25073" lon="7.04662">
        <ele>1920.5999755859</ele>
        <time>2018-05-09T07:01:51.000Z</time>
      </trkpt>
      <trkpt lat="44.25072" lon="7.04665">
        <ele>1920.8000488281</ele>
        <time>2018-05-09T07:01:54.000Z</time>
      </trkpt>
      <trkpt lat="44.25069" lon="7.04668">
        <ele>1920.8000488281</ele>
        <time>2018-05-09T07:01:58.000Z</time>
      </trkpt>
      <trkpt lat="44.25067" lon="7.0467">
        <ele>1920.8000488281</ele>
        <time>2018-05-09T07:02:07.000Z</time>
      </trkpt>
      <trkpt lat="44.25064" lon="7.04677">
        <ele>1920.5999755859</ele>
        <time>2018-05-09T07:02:13.000Z</time>
      </trkpt>
      <trkpt lat="44.25067" lon="7.04673">
        <ele>1920.5999755859</ele>
        <time>2018-05-09T07:02:14.000Z</time>
      </trkpt>
      <trkpt lat="44.25067" lon="7.04672">
        <ele>1920.4000244141</ele>
        <time>2018-05-09T07:02:15.000Z</time>
      </trkpt>
      <trkpt lat="44.2507" lon="7.04665">
        <ele>1920.4000244141</ele>
        <time>2018-05-09T07:02:21.000Z</time>
      </trkpt>
      <trkpt lat="44.25069" lon="7.04665">
        <ele>1920.4000244141</ele>
        <time>2018-05-09T07:02:22.000Z</time>
      </trkpt>
      <trkpt lat="44.25069" lon="7.04665">
        <ele>1920.4000244141</ele>
        <time>2018-05-09T07:02:23.000Z</time>
      </trkpt>
      <trkpt lat="44.25067" lon="7.04666">
        <ele>1920.5999755859</ele>
        <time>2018-05-09T07:02:24.000Z</time>
      </trkpt>
      <trkpt lat="44.25066" lon="7.04666">
        <ele>1920.8000488281</ele>
        <time>2018-05-09T07:02:25.000Z</time>
      </trkpt>
      <trkpt lat="44.25065" lon="7.04667">
        <ele>1921.1999511719</ele>
        <time>2018-05-09T07:02:26.000Z</time>
      </trkpt>
      <trkpt lat="44.25064" lon="7.04667">
        <ele>1921.1999511719</ele>
        <time>2018-05-09T07:02:27.000Z</time>
      </trkpt>
      <trkpt lat="44.25063" lon="7.04667">
        <ele>1921.4000244141</ele>
        <time>2018-05-09T07:02:28.000Z</time>
      </trkpt>
      <trkpt lat="44.25061" lon="7.04668">
        <ele>1921.8000488281</ele>
        <time>2018-05-09T07:02:29.000Z</time>
      </trkpt>
      <trkpt lat="44.25061" lon="7.04668">
        <ele>1922</ele>
        <time>2018-05-09T07:02:30.000Z</time>
      </trkpt>
      <trkpt lat="44.25061" lon="7.04667">
        <ele>1922.1999511719</ele>
        <time>2018-05-09T07:02:31.000Z</time>
      </trkpt>
      <trkpt lat="44.25062" lon="7.04666">
        <ele>1922.1999511719</ele>
        <time>2018-05-09T07:02:32.000Z</time>
      </trkpt>
      <trkpt lat="44.25063" lon="7.04663">
        <ele>1922.4000244141</ele>
        <time>2018-05-09T07:02:34.000Z</time>
      </trkpt>
      <trkpt lat="44.25063" lon="7.04661">
        <ele>1922.4000244141</ele>
        <time>2018-05-09T07:02:36.000Z</time>
      </trkpt>
      <trkpt lat="44.25066" lon="7.04652">
        <ele>1922.4000244141</ele>
        <time>2018-05-09T07:02:45.000Z</time>
      </trkpt>
      <trkpt lat="44.25066" lon="7.04651">
        <ele>1922</ele>
        <time>2018-05-09T07:02:52.000Z</time>
      </trkpt>
      <trkpt lat="44.25066" lon="7.04651">
        <ele>1922</ele>
        <time>2018-05-09T07:02:53.000Z</time>
      </trkpt>
      <trkpt lat="44.25066" lon="7.0465">
        <ele>1922</ele>
        <time>2018-05-09T07:02:54.000Z</time>
      </trkpt>
      <trkpt lat="44.25064" lon="7.04653">
        <ele>1922</ele>
        <time>2018-05-09T07:02:58.000Z</time>
      </trkpt>
      <trkpt lat="44.25063" lon="7.04654">
        <ele>1922</ele>
        <time>2018-05-09T07:02:59.000Z</time>
      </trkpt>
      <trkpt lat="44.25059" lon="7.04661">
        <ele>1922</ele>
        <time>2018-05-09T07:03:03.000Z</time>
      </trkpt>
      <trkpt lat="44.25059" lon="7.04662">
        <ele>1922</ele>
        <time>2018-05-09T07:03:04.000Z</time>
      </trkpt>
      <trkpt lat="44.25058" lon="7.04663">
        <ele>1922</ele>
        <time>2018-05-09T07:03:05.000Z</time>
      </trkpt>
      <trkpt lat="44.2506" lon="7.04657">
        <ele>1922.1999511719</ele>
        <time>2018-05-09T07:03:11.000Z</time>
      </trkpt>
      <trkpt lat="44.2506" lon="7.04658">
        <ele>1922.1999511719</ele>
        <time>2018-05-09T07:03:13.000Z</time>
      </trkpt>
      <trkpt lat="44.25059" lon="7.04658">
        <ele>1922.1999511719</ele>
        <time>2018-05-09T07:03:14.000Z</time>
      </trkpt>
      <trkpt lat="44.25056" lon="7.04662">
        <ele>1923.1999511719</ele>
        <time>2018-05-09T07:03:19.000Z</time>
      </trkpt>
      <trkpt lat="44.25056" lon="7.04661">
        <ele>1923.4000244141</ele>
        <time>2018-05-09T07:03:21.000Z</time>
      </trkpt>
      <trkpt lat="44.2506" lon="7.04656">
        <ele>1923.4000244141</ele>
        <time>2018-05-09T07:03:34.000Z</time>
      </trkpt>
      <trkpt lat="44.2506" lon="7.04656">
        <ele>1923.4000244141</ele>
        <time>2018-05-09T07:03:36.000Z</time>
      </trkpt>
      <trkpt lat="44.25059" lon="7.04656">
        <ele>1923.4000244141</ele>
        <time>2018-05-09T07:03:38.000Z</time>
      </trkpt>
      <trkpt lat="44.25059" lon="7.04656">
        <ele>1923.4000244141</ele>
        <time>2018-05-09T07:03:39.000Z</time>
      </trkpt>
      <trkpt lat="44.25059" lon="7.04656">
        <ele>1923.1999511719</ele>
        <time>2018-05-09T07:03:42.000Z</time>
      </trkpt>
      <trkpt lat="44.25057" lon="7.04661">
        <ele>1923.4000244141</ele>
        <time>2018-05-09T07:03:51.000Z</time>
      </trkpt>
      <trkpt lat="44.25055" lon="7.04664">
        <ele>1923.4000244141</ele>
        <time>2018-05-09T07:03:54.000Z</time>
      </trkpt>
      <trkpt lat="44.25052" lon="7.04668">
        <ele>1924</ele>
        <time>2018-05-09T07:03:57.000Z</time>
      </trkpt>
      <trkpt lat="44.25049" lon="7.0467">
        <ele>1924.4000244141</ele>
        <time>2018-05-09T07:04:00.000Z</time>
      </trkpt>
      <trkpt lat="44.25049" lon="7.04671">
        <ele>1924.5999755859</ele>
        <time>2018-05-09T07:04:01.000Z</time>
      </trkpt>
      <trkpt lat="44.25048" lon="7.04671">
        <ele>1924.8000488281</ele>
        <time>2018-05-09T07:04:02.000Z</time>
      </trkpt>
      <trkpt lat="44.25049" lon="7.04676">
        <ele>1925.5999755859</ele>
        <time>2018-05-09T07:04:07.000Z</time>
      </trkpt>
      <trkpt lat="44.25045" lon="7.0468">
        <ele>1926.4000244141</ele>
        <time>2018-05-09T07:04:13.000Z</time>
      </trkpt>
      <trkpt lat="44.25045" lon="7.0468">
        <ele>1926.8000488281</ele>
        <time>2018-05-09T07:04:14.000Z</time>
      </trkpt>
      <trkpt lat="44.25046" lon="7.04679">
        <ele>1927.4000244141</ele>
        <time>2018-05-09T07:04:17.000Z</time>
      </trkpt>
      <trkpt lat="44.25048" lon="7.0468">
        <ele>1927.8000488281</ele>
        <time>2018-05-09T07:04:21.000Z</time>
      </trkpt>
      <trkpt lat="44.25046" lon="7.04684">
        <ele>1928.8000488281</ele>
        <time>2018-05-09T07:04:27.000Z</time>
      </trkpt>
      <trkpt lat="44.25046" lon="7.04685">
        <ele>1928.8000488281</ele>
        <time>2018-05-09T07:04:28.000Z</time>
      </trkpt>
      <trkpt lat="44.25044" lon="7.0469">
        <ele>1929.8000488281</ele>
        <time>2018-05-09T07:04:34.000Z</time>
      </trkpt>
      <trkpt lat="44.25046" lon="7.0469">
        <ele>1930</ele>
        <time>2018-05-09T07:04:36.000Z</time>
      </trkpt>
      <trkpt lat="44.25046" lon="7.04692">
        <ele>1930.4000244141</ele>
        <time>2018-05-09T07:04:39.000Z</time>
      </trkpt>
      <trkpt lat="44.25044" lon="7.04695">
        <ele>1930.4000244141</ele>
        <time>2018-05-09T07:04:41.000Z</time>
      </trkpt>
      <trkpt lat="44.25042" lon="7.04698">
        <ele>1930.8000488281</ele>
        <time>2018-05-09T07:04:47.000Z</time>
      </trkpt>
      <trkpt lat="44.25042" lon="7.04698">
        <ele>1930.8000488281</ele>
        <time>2018-05-09T07:04:48.000Z</time>
      </trkpt>
      <trkpt lat="44.25019" lon="7.04699">
        <ele>1931.5999755859</ele>
        <time>2018-05-09T07:04:53.000Z</time>
      </trkpt>
      <trkpt lat="44.25" lon="7.04697">
        <ele>1932</ele>
        <time>2018-05-09T07:04:56.000Z</time>
      </trkpt>
      <trkpt lat="44.25001" lon="7.04698">
        <ele>1933.1999511719</ele>
        <time>2018-05-09T07:05:04.000Z</time>
      </trkpt>
      <trkpt lat="44.25" lon="7.04702">
        <ele>1934.1999511719</ele>
        <time>2018-05-09T07:05:11.000Z</time>
      </trkpt>
      <trkpt lat="44.24996" lon="7.04704">
        <ele>1935.1999511719</ele>
        <time>2018-05-09T07:05:19.000Z</time>
      </trkpt>
      <trkpt lat="44.24991" lon="7.0471">
        <ele>1936.1999511719</ele>
        <time>2018-05-09T07:05:25.000Z</time>
      </trkpt>
      <trkpt lat="44.24988" lon="7.04713">
        <ele>1937.1999511719</ele>
        <time>2018-05-09T07:05:30.000Z</time>
      </trkpt>
      <trkpt lat="44.24988" lon="7.04713">
        <ele>1937.4000244141</ele>
        <time>2018-05-09T07:05:32.000Z</time>
      </trkpt>
      <trkpt lat="44.24984" lon="7.04713">
        <ele>1938.5999755859</ele>
        <time>2018-05-09T07:05:38.000Z</time>
      </trkpt>
      <trkpt lat="44.24979" lon="7.04716">
        <ele>1939.4000244141</ele>
        <time>2018-05-09T07:05:42.000Z</time>
      </trkpt>
      <trkpt lat="44.24977" lon="7.04716">
        <ele>1939.8000488281</ele>
        <time>2018-05-09T07:05:44.000Z</time>
      </trkpt>
      <trkpt lat="44.24971" lon="7.04717">
        <ele>1940.5999755859</ele>
        <time>2018-05-09T07:05:49.000Z</time>
      </trkpt>
      <trkpt lat="44.24969" lon="7.04718">
        <ele>1941</ele>
        <time>2018-05-09T07:05:51.000Z</time>
      </trkpt>
      <trkpt lat="44.24966" lon="7.04715">
        <ele>1942</ele>
        <time>2018-05-09T07:05:55.000Z</time>
      </trkpt>
      <trkpt lat="44.24958" lon="7.04718">
        <ele>1943.1999511719</ele>
        <time>2018-05-09T07:06:01.000Z</time>
      </trkpt>
      <trkpt lat="44.24953" lon="7.0472">
        <ele>1943.8000488281</ele>
        <time>2018-05-09T07:06:06.000Z</time>
      </trkpt>
      <trkpt lat="44.24951" lon="7.04719">
        <ele>1944</ele>
        <time>2018-05-09T07:06:08.000Z</time>
      </trkpt>
      <trkpt lat="44.2495" lon="7.04718">
        <ele>1944.1999511719</ele>
        <time>2018-05-09T07:06:09.000Z</time>
      </trkpt>
      <trkpt lat="44.24949" lon="7.04718">
        <ele>1944.5999755859</ele>
        <time>2018-05-09T07:06:11.000Z</time>
      </trkpt>
      <trkpt lat="44.24947" lon="7.04719">
        <ele>1945.1999511719</ele>
        <time>2018-05-09T07:06:15.000Z</time>
      </trkpt>
      <trkpt lat="44.24946" lon="7.04718">
        <ele>1945.5999755859</ele>
        <time>2018-05-09T07:06:16.000Z</time>
      </trkpt>
      <trkpt lat="44.24944" lon="7.04717">
        <ele>1945.8000488281</ele>
        <time>2018-05-09T07:06:18.000Z</time>
      </trkpt>
      <trkpt lat="44.24944" lon="7.04717">
        <ele>1946.4000244141</ele>
        <time>2018-05-09T07:06:34.000Z</time>
      </trkpt>
      <trkpt lat="44.24942" lon="7.04716">
        <ele>1946.4000244141</ele>
        <time>2018-05-09T07:06:40.000Z</time>
      </trkpt>
      <trkpt lat="44.2494" lon="7.0471">
        <ele>1946.4000244141</ele>
        <time>2018-05-09T07:06:43.000Z</time>
      </trkpt>
      <trkpt lat="44.2494" lon="7.04708">
        <ele>1946.4000244141</ele>
        <time>2018-05-09T07:06:44.000Z</time>
      </trkpt>
      <trkpt lat="44.24937" lon="7.04711">
        <ele>1946.4000244141</ele>
        <time>2018-05-09T07:06:46.000Z</time>
      </trkpt>
      <trkpt lat="44.24936" lon="7.04711">
        <ele>1946.4000244141</ele>
        <time>2018-05-09T07:06:47.000Z</time>
      </trkpt>
      <trkpt lat="44.24939" lon="7.04719">
        <ele>1946.4000244141</ele>
        <time>2018-05-09T07:06:52.000Z</time>
      </trkpt>
      <trkpt lat="44.24938" lon="7.04718">
        <ele>1946.4000244141</ele>
        <time>2018-05-09T07:06:53.000Z</time>
      </trkpt>
      <trkpt lat="44.24936" lon="7.04718">
        <ele>1946.5999755859</ele>
        <time>2018-05-09T07:06:55.000Z</time>
      </trkpt>
      <trkpt lat="44.24934" lon="7.04718">
        <ele>1947</ele>
        <time>2018-05-09T07:06:57.000Z</time>
      </trkpt>
      <trkpt lat="44.24932" lon="7.04718">
        <ele>1947.1999511719</ele>
        <time>2018-05-09T07:06:59.000Z</time>
      </trkpt>
      <trkpt lat="44.24926" lon="7.04718">
        <ele>1947.5999755859</ele>
        <time>2018-05-09T07:07:03.000Z</time>
      </trkpt>
      <trkpt lat="44.24925" lon="7.04719">
        <ele>1947.5999755859</ele>
        <time>2018-05-09T07:07:04.000Z</time>
      </trkpt>
      <trkpt lat="44.24923" lon="7.04719">
        <ele>1948</ele>
        <time>2018-05-09T07:07:06.000Z</time>
      </trkpt>
      <trkpt lat="44.24919" lon="7.04721">
        <ele>1949.1999511719</ele>
        <time>2018-05-09T07:07:09.000Z</time>
      </trkpt>
      <trkpt lat="44.24916" lon="7.04723">
        <ele>1949.1999511719</ele>
        <time>2018-05-09T07:07:11.000Z</time>
      </trkpt>
      <trkpt lat="44.24912" lon="7.04727">
        <ele>1949.4000244141</ele>
        <time>2018-05-09T07:07:13.000Z</time>
      </trkpt>
      <trkpt lat="44.24898" lon="7.04734">
        <ele>1948.8000488281</ele>
        <time>2018-05-09T07:07:25.000Z</time>
      </trkpt>
      <trkpt lat="44.24897" lon="7.04734">
        <ele>1948.8000488281</ele>
        <time>2018-05-09T07:07:28.000Z</time>
      </trkpt>
      <trkpt lat="44.24897" lon="7.04734">
        <ele>1948.8000488281</ele>
        <time>2018-05-09T07:07:29.000Z</time>
      </trkpt>
      <trkpt lat="44.24898" lon="7.04734">
        <ele>1948.8000488281</ele>
        <time>2018-05-09T07:07:31.000Z</time>
      </trkpt>
      <trkpt lat="44.24903" lon="7.04731">
        <ele>1948.8000488281</ele>
        <time>2018-05-09T07:07:37.000Z</time>
      </trkpt>
      <trkpt lat="44.249" lon="7.04734">
        <ele>1948.8000488281</ele>
        <time>2018-05-09T07:07:48.000Z</time>
      </trkpt>
      <trkpt lat="44.24899" lon="7.04735">
        <ele>1948.5999755859</ele>
        <time>2018-05-09T07:07:53.000Z</time>
      </trkpt>
      <trkpt lat="44.24898" lon="7.04737">
        <ele>1948.5999755859</ele>
        <time>2018-05-09T07:07:55.000Z</time>
      </trkpt>
      <trkpt lat="44.24894" lon="7.04738">
        <ele>1948.5999755859</ele>
        <time>2018-05-09T07:07:59.000Z</time>
      </trkpt>
      <trkpt lat="44.24888" lon="7.0474">
        <ele>1949.1999511719</ele>
        <time>2018-05-09T07:08:04.000Z</time>
      </trkpt>
      <trkpt lat="44.24886" lon="7.04741">
        <ele>1949.1999511719</ele>
        <time>2018-05-09T07:08:06.000Z</time>
      </trkpt>
      <trkpt lat="44.24873" lon="7.04744">
        <ele>1949.5999755859</ele>
        <time>2018-05-09T07:08:16.000Z</time>
      </trkpt>
      <trkpt lat="44.24867" lon="7.04744">
        <ele>1949.5999755859</ele>
        <time>2018-05-09T07:08:20.000Z</time>
      </trkpt>
      <trkpt lat="44.24859" lon="7.04746">
        <ele>1950</ele>
        <time>2018-05-09T07:08:28.000Z</time>
      </trkpt>
      <trkpt lat="44.24858" lon="7.04746">
        <ele>1950</ele>
        <time>2018-05-09T07:08:30.000Z</time>
      </trkpt>
      <trkpt lat="44.24858" lon="7.04745">
        <ele>1949.8000488281</ele>
        <time>2018-05-09T07:08:34.000Z</time>
      </trkpt>
      <trkpt lat="44.24857" lon="7.04745">
        <ele>1949.8000488281</ele>
        <time>2018-05-09T07:08:36.000Z</time>
      </trkpt>
      <trkpt lat="44.24855" lon="7.04745">
        <ele>1949.8000488281</ele>
        <time>2018-05-09T07:08:39.000Z</time>
      </trkpt>
      <trkpt lat="44.24849" lon="7.04741">
        <ele>1949.8000488281</ele>
        <time>2018-05-09T07:08:44.000Z</time>
      </trkpt>
      <trkpt lat="44.24849" lon="7.0474">
        <ele>1949.5999755859</ele>
        <time>2018-05-09T07:08:46.000Z</time>
      </trkpt>
      <trkpt lat="44.2485" lon="7.04739">
        <ele>1949.5999755859</ele>
        <time>2018-05-09T07:08:49.000Z</time>
      </trkpt>
      <trkpt lat="44.24852" lon="7.04737">
        <ele>1949.5999755859</ele>
        <time>2018-05-09T07:08:53.000Z</time>
      </trkpt>
      <trkpt lat="44.24852" lon="7.04739">
        <ele>1949.4000244141</ele>
        <time>2018-05-09T07:08:57.000Z</time>
      </trkpt>
      <trkpt lat="44.24829" lon="7.04728">
        <ele>1949.4000244141</ele>
        <time>2018-05-09T07:09:02.000Z</time>
      </trkpt>
      <trkpt lat="44.24832" lon="7.04733">
        <ele>1949.4000244141</ele>
        <time>2018-05-09T07:09:04.000Z</time>
      </trkpt>
      <trkpt lat="44.24837" lon="7.04737">
        <ele>1949.4000244141</ele>
        <time>2018-05-09T07:09:05.000Z</time>
      </trkpt>
      <trkpt lat="44.24843" lon="7.04739">
        <ele>1949.4000244141</ele>
        <time>2018-05-09T07:09:08.000Z</time>
      </trkpt>
      <trkpt lat="44.24845" lon="7.04739">
        <ele>1949.4000244141</ele>
        <time>2018-05-09T07:09:10.000Z</time>
      </trkpt>
      <trkpt lat="44.24847" lon="7.04742">
        <ele>1949.4000244141</ele>
        <time>2018-05-09T07:09:16.000Z</time>
      </trkpt>
      <trkpt lat="44.24846" lon="7.04744">
        <ele>1949.1999511719</ele>
        <time>2018-05-09T07:09:18.000Z</time>
      </trkpt>
      <trkpt lat="44.24846" lon="7.04745">
        <ele>1949.1999511719</ele>
        <time>2018-05-09T07:09:19.000Z</time>
      </trkpt>
      <trkpt lat="44.24845" lon="7.04745">
        <ele>1949.1999511719</ele>
        <time>2018-05-09T07:09:20.000Z</time>
      </trkpt>
      <trkpt lat="44.24844" lon="7.04746">
        <ele>1949.1999511719</ele>
        <time>2018-05-09T07:09:21.000Z</time>
      </trkpt>
      <trkpt lat="44.24843" lon="7.04746">
        <ele>1949.4000244141</ele>
        <time>2018-05-09T07:09:24.000Z</time>
      </trkpt>
      <trkpt lat="44.24843" lon="7.04746">
        <ele>1949.4000244141</ele>
        <time>2018-05-09T07:09:25.000Z</time>
      </trkpt>
      <trkpt lat="44.24843" lon="7.04745">
        <ele>1949.4000244141</ele>
        <time>2018-05-09T07:09:26.000Z</time>
      </trkpt>
      <trkpt lat="44.24844" lon="7.04745">
        <ele>1949.4000244141</ele>
        <time>2018-05-09T07:09:27.000Z</time>
      </trkpt>
      <trkpt lat="44.24844" lon="7.04744">
        <ele>1949.4000244141</ele>
        <time>2018-05-09T07:09:28.000Z</time>
      </trkpt>
      <trkpt lat="44.24846" lon="7.04741">
        <ele>1949.4000244141</ele>
        <time>2018-05-09T07:09:29.000Z</time>
      </trkpt>
      <trkpt lat="44.24847" lon="7.04735">
        <ele>1949.5999755859</ele>
        <time>2018-05-09T07:09:34.000Z</time>
      </trkpt>
      <trkpt lat="44.24849" lon="7.04731">
        <ele>1949.5999755859</ele>
        <time>2018-05-09T07:09:36.000Z</time>
      </trkpt>
      <trkpt lat="44.24852" lon="7.04725">
        <ele>1949.5999755859</ele>
        <time>2018-05-09T07:09:38.000Z</time>
      </trkpt>
      <trkpt lat="44.24853" lon="7.04726">
        <ele>1949.4000244141</ele>
        <time>2018-05-09T07:09:41.000Z</time>
      </trkpt>
      <trkpt lat="44.24858" lon="7.0472">
        <ele>1949.4000244141</ele>
        <time>2018-05-09T07:09:46.000Z</time>
      </trkpt>
      <trkpt lat="44.24861" lon="7.04726">
        <ele>1949.5999755859</ele>
        <time>2018-05-09T07:09:49.000Z</time>
      </trkpt>
      <trkpt lat="44.24858" lon="7.04733">
        <ele>1949.4000244141</ele>
        <time>2018-05-09T07:09:51.000Z</time>
      </trkpt>
      <trkpt lat="44.24857" lon="7.04735">
        <ele>1949.4000244141</ele>
        <time>2018-05-09T07:09:52.000Z</time>
      </trkpt>
      <trkpt lat="44.24856" lon="7.04737">
        <ele>1949.4000244141</ele>
        <time>2018-05-09T07:09:54.000Z</time>
      </trkpt>
      <trkpt lat="44.24855" lon="7.04738">
        <ele>1949.1999511719</ele>
        <time>2018-05-09T07:09:57.000Z</time>
      </trkpt>
      <trkpt lat="44.24853" lon="7.04738">
        <ele>1949.4000244141</ele>
        <time>2018-05-09T07:09:59.000Z</time>
      </trkpt>
      <trkpt lat="44.24853" lon="7.04738">
        <ele>1949.4000244141</ele>
        <time>2018-05-09T07:10:00.000Z</time>
      </trkpt>
      <trkpt lat="44.24853" lon="7.04738">
        <ele>1949.4000244141</ele>
        <time>2018-05-09T07:10:01.000Z</time>
      </trkpt>
      <trkpt lat="44.24852" lon="7.04739">
        <ele>1949.4000244141</ele>
        <time>2018-05-09T07:10:02.000Z</time>
      </trkpt>
      <trkpt lat="44.2485" lon="7.04741">
        <ele>1949.1999511719</ele>
        <time>2018-05-09T07:10:05.000Z</time>
      </trkpt>
      <trkpt lat="44.2485" lon="7.04741">
        <ele>1949.1999511719</ele>
        <time>2018-05-09T07:10:06.000Z</time>
      </trkpt>
      <trkpt lat="44.2485" lon="7.0474">
        <ele>1949.1999511719</ele>
        <time>2018-05-09T07:10:09.000Z</time>
      </trkpt>
      <trkpt lat="44.24851" lon="7.04738">
        <ele>1949</ele>
        <time>2018-05-09T07:10:14.000Z</time>
      </trkpt>
      <trkpt lat="44.24852" lon="7.04738">
        <ele>1949</ele>
        <time>2018-05-09T07:10:16.000Z</time>
      </trkpt>
      <trkpt lat="44.24852" lon="7.04738">
        <ele>1949</ele>
        <time>2018-05-09T07:10:17.000Z</time>
      </trkpt>
      <trkpt lat="44.24855" lon="7.04736">
        <ele>1949</ele>
        <time>2018-05-09T07:10:21.000Z</time>
      </trkpt>
      <trkpt lat="44.24855" lon="7.04736">
        <ele>1949</ele>
        <time>2018-05-09T07:10:22.000Z</time>
      </trkpt>
      <trkpt lat="44.24856" lon="7.04736">
        <ele>1949</ele>
        <time>2018-05-09T07:10:23.000Z</time>
      </trkpt>
      <trkpt lat="44.24856" lon="7.04735">
        <ele>1949</ele>
        <time>2018-05-09T07:10:24.000Z</time>
      </trkpt>
      <trkpt lat="44.24856" lon="7.04736">
        <ele>1948.8000488281</ele>
        <time>2018-05-09T07:10:25.000Z</time>
      </trkpt>
      <trkpt lat="44.24857" lon="7.04736">
        <ele>1948.8000488281</ele>
        <time>2018-05-09T07:10:27.000Z</time>
      </trkpt>
      <trkpt lat="44.24857" lon="7.04736">
        <ele>1948.8000488281</ele>
        <time>2018-05-09T07:10:29.000Z</time>
      </trkpt>
      <trkpt lat="44.2486" lon="7.04735">
        <ele>1948.8000488281</ele>
        <time>2018-05-09T07:10:31.000Z</time>
      </trkpt>
      <trkpt lat="44.2486" lon="7.04734">
        <ele>1948.8000488281</ele>
        <time>2018-05-09T07:10:33.000Z</time>
      </trkpt>
      <trkpt lat="44.24856" lon="7.04736">
        <ele>1948.8000488281</ele>
        <time>2018-05-09T07:10:34.000Z</time>
      </trkpt>
      <trkpt lat="44.24852" lon="7.04738">
        <ele>1948.5999755859</ele>
        <time>2018-05-09T07:10:36.000Z</time>
      </trkpt>
      <trkpt lat="44.24852" lon="7.04739">
        <ele>1948.5999755859</ele>
        <time>2018-05-09T07:10:37.000Z</time>
      </trkpt>
      <trkpt lat="44.24853" lon="7.0474">
        <ele>1948.5999755859</ele>
        <time>2018-05-09T07:10:40.000Z</time>
      </trkpt>
      <trkpt lat="44.24853" lon="7.04741">
        <ele>1948.5999755859</ele>
        <time>2018-05-09T07:10:42.000Z</time>
      </trkpt>
      <trkpt lat="44.24853" lon="7.04741">
        <ele>1948.5999755859</ele>
        <time>2018-05-09T07:10:43.000Z</time>
      </trkpt>
      <trkpt lat="44.2485" lon="7.04743">
        <ele>1948.8000488281</ele>
        <time>2018-05-09T07:10:45.000Z</time>
      </trkpt>
      <trkpt lat="44.24845" lon="7.04746">
        <ele>1949</ele>
        <time>2018-05-09T07:10:54.000Z</time>
      </trkpt>
      <trkpt lat="44.24845" lon="7.04745">
        <ele>1949</ele>
        <time>2018-05-09T07:10:56.000Z</time>
      </trkpt>
      <trkpt lat="44.24846" lon="7.04745">
        <ele>1949</ele>
        <time>2018-05-09T07:10:57.000Z</time>
      </trkpt>
      <trkpt lat="44.24847" lon="7.04743">
        <ele>1949</ele>
        <time>2018-05-09T07:11:01.000Z</time>
      </trkpt>
      <trkpt lat="44.24847" lon="7.04742">
        <ele>1949</ele>
        <time>2018-05-09T07:11:02.000Z</time>
      </trkpt>
      <trkpt lat="44.24847" lon="7.04742">
        <ele>1949</ele>
        <time>2018-05-09T07:11:03.000Z</time>
      </trkpt>
      <trkpt lat="44.24848" lon="7.04742">
        <ele>1949</ele>
        <time>2018-05-09T07:11:04.000Z</time>
      </trkpt>
      <trkpt lat="44.24846" lon="7.04746">
        <ele>1948.5999755859</ele>
        <time>2018-05-09T07:11:13.000Z</time>
      </trkpt>
      <trkpt lat="44.24847" lon="7.04742">
        <ele>1949</ele>
        <time>2018-05-09T07:11:19.000Z</time>
      </trkpt>
      <trkpt lat="44.24849" lon="7.04739">
        <ele>1948.8000488281</ele>
        <time>2018-05-09T07:11:25.000Z</time>
      </trkpt>
      <trkpt lat="44.24847" lon="7.04738">
        <ele>1948.5999755859</ele>
        <time>2018-05-09T07:11:30.000Z</time>
      </trkpt>
      <trkpt lat="44.24848" lon="7.04738">
        <ele>1948.5999755859</ele>
        <time>2018-05-09T07:11:31.000Z</time>
      </trkpt>
      <trkpt lat="44.24849" lon="7.04739">
        <ele>1948.8000488281</ele>
        <time>2018-05-09T07:11:35.000Z</time>
      </trkpt>
      <trkpt lat="44.24849" lon="7.04739">
        <ele>1948.8000488281</ele>
        <time>2018-05-09T07:11:37.000Z</time>
      </trkpt>
      <trkpt lat="44.24849" lon="7.04739">
        <ele>1948.8000488281</ele>
        <time>2018-05-09T07:11:43.000Z</time>
      </trkpt>
      <trkpt lat="44.24851" lon="7.0474">
        <ele>1948.5999755859</ele>
        <time>2018-05-09T07:11:47.000Z</time>
      </trkpt>
      <trkpt lat="44.24852" lon="7.04739">
        <ele>1948.4000244141</ele>
        <time>2018-05-09T07:11:51.000Z</time>
      </trkpt>
      <trkpt lat="44.24853" lon="7.04739">
        <ele>1948.4000244141</ele>
        <time>2018-05-09T07:11:52.000Z</time>
      </trkpt>
      <trkpt lat="44.24853" lon="7.04739">
        <ele>1948.4000244141</ele>
        <time>2018-05-09T07:11:53.000Z</time>
      </trkpt>
      <trkpt lat="44.24854" lon="7.04737">
        <ele>1948.4000244141</ele>
        <time>2018-05-09T07:11:55.000Z</time>
      </trkpt>
      <trkpt lat="44.24855" lon="7.04737">
        <ele>1948.4000244141</ele>
        <time>2018-05-09T07:11:56.000Z</time>
      </trkpt>
      <trkpt lat="44.24855" lon="7.04737">
        <ele>1948.4000244141</ele>
        <time>2018-05-09T07:11:57.000Z</time>
      </trkpt>
      <trkpt lat="44.24855" lon="7.04737">
        <ele>1948.4000244141</ele>
        <time>2018-05-09T07:11:58.000Z</time>
      </trkpt>
      <trkpt lat="44.24855" lon="7.04737">
        <ele>1948.4000244141</ele>
        <time>2018-05-09T07:11:59.000Z</time>
      </trkpt>
      <trkpt lat="44.24855" lon="7.04737">
        <ele>1948.4000244141</ele>
        <time>2018-05-09T07:12:00.000Z</time>
      </trkpt>
      <trkpt lat="44.24845" lon="7.04745">
        <ele>1948.4000244141</ele>
        <time>2018-05-09T07:12:17.000Z</time>
      </trkpt>
      <trkpt lat="44.24844" lon="7.04746">
        <ele>1948.4000244141</ele>
        <time>2018-05-09T07:12:19.000Z</time>
      </trkpt>
      <trkpt lat="44.24844" lon="7.04747">
        <ele>1948.4000244141</ele>
        <time>2018-05-09T07:12:20.000Z</time>
      </trkpt>
      <trkpt lat="44.24843" lon="7.04748">
        <ele>1948.4000244141</ele>
        <time>2018-05-09T07:12:21.000Z</time>
      </trkpt>
      <trkpt lat="44.24843" lon="7.04748">
        <ele>1948.4000244141</ele>
        <time>2018-05-09T07:12:22.000Z</time>
      </trkpt>
      <trkpt lat="44.24841" lon="7.04748">
        <ele>1948.1999511719</ele>
        <time>2018-05-09T07:12:23.000Z</time>
      </trkpt>
      <trkpt lat="44.24841" lon="7.04747">
        <ele>1948.4000244141</ele>
        <time>2018-05-09T07:12:24.000Z</time>
      </trkpt>
      <trkpt lat="44.24839" lon="7.04746">
        <ele>1948.4000244141</ele>
        <time>2018-05-09T07:12:28.000Z</time>
      </trkpt>
      <trkpt lat="44.24849" lon="7.04736">
        <ele>1948.4000244141</ele>
        <time>2018-05-09T07:12:32.000Z</time>
      </trkpt>
      <trkpt lat="44.24849" lon="7.04736">
        <ele>1948.1999511719</ele>
        <time>2018-05-09T07:12:33.000Z</time>
      </trkpt>
      <trkpt lat="44.24851" lon="7.04736">
        <ele>1948.1999511719</ele>
        <time>2018-05-09T07:12:39.000Z</time>
      </trkpt>
      <trkpt lat="44.24852" lon="7.04737">
        <ele>1948.4000244141</ele>
        <time>2018-05-09T07:12:41.000Z</time>
      </trkpt>
      <trkpt lat="44.24851" lon="7.04738">
        <ele>1948.4000244141</ele>
        <time>2018-05-09T07:12:44.000Z</time>
      </trkpt>
      <trkpt lat="44.24851" lon="7.04739">
        <ele>1948.4000244141</ele>
        <time>2018-05-09T07:12:45.000Z</time>
      </trkpt>
      <trkpt lat="44.24852" lon="7.04742">
        <ele>1948.1999511719</ele>
        <time>2018-05-09T07:12:51.000Z</time>
      </trkpt>
      <trkpt lat="44.24851" lon="7.04743">
        <ele>1948.1999511719</ele>
        <time>2018-05-09T07:12:54.000Z</time>
      </trkpt>
      <trkpt lat="44.24851" lon="7.04744">
        <ele>1948.1999511719</ele>
        <time>2018-05-09T07:12:56.000Z</time>
      </trkpt>
      <trkpt lat="44.24851" lon="7.04744">
        <ele>1948.1999511719</ele>
        <time>2018-05-09T07:12:57.000Z</time>
      </trkpt>
      <trkpt lat="44.24851" lon="7.04744">
        <ele>1948</ele>
        <time>2018-05-09T07:12:59.000Z</time>
      </trkpt>
      <trkpt lat="44.24851" lon="7.04744">
        <ele>1948</ele>
        <time>2018-05-09T07:13:00.000Z</time>
      </trkpt>
      <trkpt lat="44.24851" lon="7.04744">
        <ele>1948</ele>
        <time>2018-05-09T07:13:03.000Z</time>
      </trkpt>
      <trkpt lat="44.24852" lon="7.04741">
        <ele>1948.1999511719</ele>
        <time>2018-05-09T07:13:15.000Z</time>
      </trkpt>
      <trkpt lat="44.24851" lon="7.04741">
        <ele>1948.1999511719</ele>
        <time>2018-05-09T07:13:18.000Z</time>
      </trkpt>
      <trkpt lat="44.2485" lon="7.04741">
        <ele>1948.1999511719</ele>
        <time>2018-05-09T07:13:20.000Z</time>
      </trkpt>
      <trkpt lat="44.2485" lon="7.0474">
        <ele>1948.1999511719</ele>
        <time>2018-05-09T07:13:22.000Z</time>
      </trkpt>
      <trkpt lat="44.2485" lon="7.0474">
        <ele>1948.1999511719</ele>
        <time>2018-05-09T07:13:24.000Z</time>
      </trkpt>
      <trkpt lat="44.2485" lon="7.0474">
        <ele>1948.1999511719</ele>
        <time>2018-05-09T07:13:25.000Z</time>
      </trkpt>
      <trkpt lat="44.2485" lon="7.04739">
        <ele>1948.1999511719</ele>
        <time>2018-05-09T07:13:26.000Z</time>
      </trkpt>
      <trkpt lat="44.2485" lon="7.04739">
        <ele>1948.1999511719</ele>
        <time>2018-05-09T07:13:28.000Z</time>
      </trkpt>
      <trkpt lat="44.2485" lon="7.04739">
        <ele>1948.1999511719</ele>
        <time>2018-05-09T07:13:29.000Z</time>
      </trkpt>
      <trkpt lat="44.2485" lon="7.04739">
        <ele>1948.1999511719</ele>
        <time>2018-05-09T07:13:30.000Z</time>
      </trkpt>
      <trkpt lat="44.24849" lon="7.04739">
        <ele>1948.1999511719</ele>
        <time>2018-05-09T07:13:31.000Z</time>
      </trkpt>
      <trkpt lat="44.24849" lon="7.04739">
        <ele>1948.1999511719</ele>
        <time>2018-05-09T07:13:32.000Z</time>
      </trkpt>
      <trkpt lat="44.24847" lon="7.04742">
        <ele>1948</ele>
        <time>2018-05-09T07:13:36.000Z</time>
      </trkpt>
      <trkpt lat="44.24847" lon="7.04742">
        <ele>1948</ele>
        <time>2018-05-09T07:13:37.000Z</time>
      </trkpt>
      <trkpt lat="44.24847" lon="7.04742">
        <ele>1948</ele>
        <time>2018-05-09T07:13:38.000Z</time>
      </trkpt>
      <trkpt lat="44.24848" lon="7.04742">
        <ele>1948</ele>
        <time>2018-05-09T07:13:39.000Z</time>
      </trkpt>
      <trkpt lat="44.24848" lon="7.04741">
        <ele>1948</ele>
        <time>2018-05-09T07:13:41.000Z</time>
      </trkpt>
      <trkpt lat="44.24847" lon="7.04745">
        <ele>1948</ele>
        <time>2018-05-09T07:13:46.000Z</time>
      </trkpt>
      <trkpt lat="44.24847" lon="7.04744">
        <ele>1948</ele>
        <time>2018-05-09T07:13:49.000Z</time>
      </trkpt>
      <trkpt lat="44.24847" lon="7.04744">
        <ele>1948</ele>
        <time>2018-05-09T07:13:52.000Z</time>
      </trkpt>
      <trkpt lat="44.24847" lon="7.04745">
        <ele>1948.1999511719</ele>
        <time>2018-05-09T07:13:54.000Z</time>
      </trkpt>
      <trkpt lat="44.24847" lon="7.04744">
        <ele>1948.1999511719</ele>
        <time>2018-05-09T07:13:55.000Z</time>
      </trkpt>
      <trkpt lat="44.24847" lon="7.04744">
        <ele>1948.1999511719</ele>
        <time>2018-05-09T07:13:57.000Z</time>
      </trkpt>
      <trkpt lat="44.24847" lon="7.04744">
        <ele>1948.1999511719</ele>
        <time>2018-05-09T07:13:58.000Z</time>
      </trkpt>
      <trkpt lat="44.24847" lon="7.04744">
        <ele>1948</ele>
        <time>2018-05-09T07:13:59.000Z</time>
      </trkpt>
      <trkpt lat="44.24847" lon="7.04743">
        <ele>1948</ele>
        <time>2018-05-09T07:14:02.000Z</time>
      </trkpt>
      <trkpt lat="44.24848" lon="7.04743">
        <ele>1948</ele>
        <time>2018-05-09T07:14:06.000Z</time>
      </trkpt>
      <trkpt lat="44.24848" lon="7.04743">
        <ele>1948</ele>
        <time>2018-05-09T07:14:07.000Z</time>
      </trkpt>
      <trkpt lat="44.24847" lon="7.04742">
        <ele>1948</ele>
        <time>2018-05-09T07:14:09.000Z</time>
      </trkpt>
      <trkpt lat="44.24847" lon="7.04743">
        <ele>1948</ele>
        <time>2018-05-09T07:14:12.000Z</time>
      </trkpt>
      <trkpt lat="44.24847" lon="7.04743">
        <ele>1948</ele>
        <time>2018-05-09T07:14:13.000Z</time>
      </trkpt>
      <trkpt lat="44.24847" lon="7.04743">
        <ele>1948</ele>
        <time>2018-05-09T07:14:14.000Z</time>
      </trkpt>
      <trkpt lat="44.24847" lon="7.04744">
        <ele>1948</ele>
        <time>2018-05-09T07:14:16.000Z</time>
      </trkpt>
      <trkpt lat="44.24846" lon="7.04744">
        <ele>1948</ele>
        <time>2018-05-09T07:14:31.000Z</time>
      </trkpt>
      <trkpt lat="44.24849" lon="7.04741">
        <ele>1948</ele>
        <time>2018-05-09T07:14:35.000Z</time>
      </trkpt>
      <trkpt lat="44.24849" lon="7.04741">
        <ele>1948</ele>
        <time>2018-05-09T07:14:36.000Z</time>
      </trkpt>
      <trkpt lat="44.2485" lon="7.04742">
        <ele>1948</ele>
        <time>2018-05-09T07:14:38.000Z</time>
      </trkpt>
      <trkpt lat="44.24849" lon="7.04743">
        <ele>1948</ele>
        <time>2018-05-09T07:14:42.000Z</time>
      </trkpt>
      <trkpt lat="44.2485" lon="7.04741">
        <ele>1948.1999511719</ele>
        <time>2018-05-09T07:14:51.000Z</time>
      </trkpt>
      <trkpt lat="44.2485" lon="7.04741">
        <ele>1948.1999511719</ele>
        <time>2018-05-09T07:14:52.000Z</time>
      </trkpt>
      <trkpt lat="44.2485" lon="7.0474">
        <ele>1948.1999511719</ele>
        <time>2018-05-09T07:14:54.000Z</time>
      </trkpt>
      <trkpt lat="44.24849" lon="7.04739">
        <ele>1948.4000244141</ele>
        <time>2018-05-09T07:15:00.000Z</time>
      </trkpt>
      <trkpt lat="44.24845" lon="7.04737">
        <ele>1948.4000244141</ele>
        <time>2018-05-09T07:15:04.000Z</time>
      </trkpt>
      <trkpt lat="44.24844" lon="7.04737">
        <ele>1948.4000244141</ele>
        <time>2018-05-09T07:15:05.000Z</time>
      </trkpt>
      <trkpt lat="44.24844" lon="7.04736">
        <ele>1948.4000244141</ele>
        <time>2018-05-09T07:15:06.000Z</time>
      </trkpt>
      <trkpt lat="44.24844" lon="7.04736">
        <ele>1948.4000244141</ele>
        <time>2018-05-09T07:15:08.000Z</time>
      </trkpt>
      <trkpt lat="44.24846" lon="7.04737">
        <ele>1948.1999511719</ele>
        <time>2018-05-09T07:15:17.000Z</time>
      </trkpt>
      <trkpt lat="44.24846" lon="7.04737">
        <ele>1948.1999511719</ele>
        <time>2018-05-09T07:15:18.000Z</time>
      </trkpt>
      <trkpt lat="44.24846" lon="7.04737">
        <ele>1948.1999511719</ele>
        <time>2018-05-09T07:15:25.000Z</time>
      </trkpt>
      <trkpt lat="44.24846" lon="7.04737">
        <ele>1948.1999511719</ele>
        <time>2018-05-09T07:15:29.000Z</time>
      </trkpt>
      <trkpt lat="44.24847" lon="7.04737">
        <ele>1948</ele>
        <time>2018-05-09T07:15:30.000Z</time>
      </trkpt>
      <trkpt lat="44.24848" lon="7.04737">
        <ele>1948</ele>
        <time>2018-05-09T07:15:31.000Z</time>
      </trkpt>
      <trkpt lat="44.24848" lon="7.04737">
        <ele>1948</ele>
        <time>2018-05-09T07:15:32.000Z</time>
      </trkpt>
      <trkpt lat="44.24848" lon="7.04737">
        <ele>1948</ele>
        <time>2018-05-09T07:15:33.000Z</time>
      </trkpt>
      <trkpt lat="44.24848" lon="7.04738">
        <ele>1948</ele>
        <time>2018-05-09T07:15:34.000Z</time>
      </trkpt>
      <trkpt lat="44.24849" lon="7.04738">
        <ele>1948</ele>
        <time>2018-05-09T07:15:36.000Z</time>
      </trkpt>
      <trkpt lat="44.24849" lon="7.04739">
        <ele>1948.1999511719</ele>
        <time>2018-05-09T07:15:39.000Z</time>
      </trkpt>
      <trkpt lat="44.24847" lon="7.04739">
        <ele>1948.1999511719</ele>
        <time>2018-05-09T07:15:46.000Z</time>
      </trkpt>
      <trkpt lat="44.24846" lon="7.04741">
        <ele>1948.1999511719</ele>
        <time>2018-05-09T07:15:51.000Z</time>
      </trkpt>
      <trkpt lat="44.24848" lon="7.0474">
        <ele>1948.1999511719</ele>
        <time>2018-05-09T07:15:53.000Z</time>
      </trkpt>
      <trkpt lat="44.2485" lon="7.0474">
        <ele>1948.1999511719</ele>
        <time>2018-05-09T07:15:57.000Z</time>
      </trkpt>
      <trkpt lat="44.2485" lon="7.04739">
        <ele>1948.1999511719</ele>
        <time>2018-05-09T07:15:58.000Z</time>
      </trkpt>
      <trkpt lat="44.2485" lon="7.04738">
        <ele>1948.1999511719</ele>
        <time>2018-05-09T07:15:59.000Z</time>
      </trkpt>
      <trkpt lat="44.24851" lon="7.04738">
        <ele>1948.1999511719</ele>
        <time>2018-05-09T07:16:04.000Z</time>
      </trkpt>
      <trkpt lat="44.2485" lon="7.04738">
        <ele>1948.1999511719</ele>
        <time>2018-05-09T07:16:05.000Z</time>
      </trkpt>
      <trkpt lat="44.2485" lon="7.04738">
        <ele>1948.1999511719</ele>
        <time>2018-05-09T07:16:06.000Z</time>
      </trkpt>
      <trkpt lat="44.2485" lon="7.04738">
        <ele>1948.1999511719</ele>
        <time>2018-05-09T07:16:07.000Z</time>
      </trkpt>
      <trkpt lat="44.24849" lon="7.04738">
        <ele>1948.1999511719</ele>
        <time>2018-05-09T07:16:08.000Z</time>
      </trkpt>
      <trkpt lat="44.24849" lon="7.04738">
        <ele>1948.1999511719</ele>
        <time>2018-05-09T07:16:10.000Z</time>
      </trkpt>
      <trkpt lat="44.24849" lon="7.04738">
        <ele>1948.1999511719</ele>
        <time>2018-05-09T07:16:11.000Z</time>
      </trkpt>
      <trkpt lat="44.24851" lon="7.04738">
        <ele>1948.1999511719</ele>
        <time>2018-05-09T07:16:18.000Z</time>
      </trkpt>
      <trkpt lat="44.24851" lon="7.04736">
        <ele>1948.1999511719</ele>
        <time>2018-05-09T07:16:23.000Z</time>
      </trkpt>
      <trkpt lat="44.24851" lon="7.04737">
        <ele>1948.1999511719</ele>
        <time>2018-05-09T07:16:25.000Z</time>
      </trkpt>
      <trkpt lat="44.2485" lon="7.04737">
        <ele>1948.1999511719</ele>
        <time>2018-05-09T07:16:26.000Z</time>
      </trkpt>
      <trkpt lat="44.2485" lon="7.04738">
        <ele>1948.1999511719</ele>
        <time>2018-05-09T07:16:27.000Z</time>
      </trkpt>
      <trkpt lat="44.24845" lon="7.04746">
        <ele>1948.1999511719</ele>
        <time>2018-05-09T07:16:32.000Z</time>
      </trkpt>
      <trkpt lat="44.24845" lon="7.04747">
        <ele>1948.1999511719</ele>
        <time>2018-05-09T07:16:33.000Z</time>
      </trkpt>
      <trkpt lat="44.24845" lon="7.04748">
        <ele>1948.1999511719</ele>
        <time>2018-05-09T07:16:35.000Z</time>
      </trkpt>
      <trkpt lat="44.24845" lon="7.04748">
        <ele>1948.1999511719</ele>
        <time>2018-05-09T07:16:36.000Z</time>
      </trkpt>
      <trkpt lat="44.24845" lon="7.04748">
        <ele>1948.1999511719</ele>
        <time>2018-05-09T07:16:37.000Z</time>
      </trkpt>
      <trkpt lat="44.24846" lon="7.04747">
        <ele>1948.1999511719</ele>
        <time>2018-05-09T07:16:38.000Z</time>
      </trkpt>
      <trkpt lat="44.24846" lon="7.04746">
        <ele>1948.1999511719</ele>
        <time>2018-05-09T07:16:42.000Z</time>
      </trkpt>
      <trkpt lat="44.24847" lon="7.04744">
        <ele>1948.1999511719</ele>
        <time>2018-05-09T07:16:44.000Z</time>
      </trkpt>
      <trkpt lat="44.24848" lon="7.04744">
        <ele>1948.1999511719</ele>
        <time>2018-05-09T07:16:45.000Z</time>
      </trkpt>
      <trkpt lat="44.24848" lon="7.04744">
        <ele>1948.1999511719</ele>
        <time>2018-05-09T07:16:47.000Z</time>
      </trkpt>
      <trkpt lat="44.2485" lon="7.04744">
        <ele>1948.1999511719</ele>
        <time>2018-05-09T07:16:51.000Z</time>
      </trkpt>
      <trkpt lat="44.2485" lon="7.04744">
        <ele>1948.1999511719</ele>
        <time>2018-05-09T07:16:52.000Z</time>
      </trkpt>
      <trkpt lat="44.2485" lon="7.04744">
        <ele>1948.1999511719</ele>
        <time>2018-05-09T07:16:53.000Z</time>
      </trkpt>
      <trkpt lat="44.24853" lon="7.04741">
        <ele>1948.1999511719</ele>
        <time>2018-05-09T07:17:08.000Z</time>
      </trkpt>
      <trkpt lat="44.24856" lon="7.04735">
        <ele>1948.1999511719</ele>
        <time>2018-05-09T07:17:16.000Z</time>
      </trkpt>
      <trkpt lat="44.24854" lon="7.04734">
        <ele>1948.1999511719</ele>
        <time>2018-05-09T07:17:25.000Z</time>
      </trkpt>
      <trkpt lat="44.24852" lon="7.04737">
        <ele>1948.1999511719</ele>
        <time>2018-05-09T07:17:29.000Z</time>
      </trkpt>
      <trkpt lat="44.24851" lon="7.04739">
        <ele>1948.1999511719</ele>
        <time>2018-05-09T07:17:30.000Z</time>
      </trkpt>
      <trkpt lat="44.2485" lon="7.0474">
        <ele>1948.1999511719</ele>
        <time>2018-05-09T07:17:31.000Z</time>
      </trkpt>
      <trkpt lat="44.24849" lon="7.0474">
        <ele>1948.1999511719</ele>
        <time>2018-05-09T07:17:32.000Z</time>
      </trkpt>
      <trkpt lat="44.24848" lon="7.0474">
        <ele>1948.1999511719</ele>
        <time>2018-05-09T07:17:35.000Z</time>
      </trkpt>
      <trkpt lat="44.24845" lon="7.04745">
        <ele>1948.1999511719</ele>
        <time>2018-05-09T07:17:47.000Z</time>
      </trkpt>
      <trkpt lat="44.24846" lon="7.04744">
        <ele>1948.1999511719</ele>
        <time>2018-05-09T07:17:52.000Z</time>
      </trkpt>
      <trkpt lat="44.24846" lon="7.04743">
        <ele>1948.1999511719</ele>
        <time>2018-05-09T07:17:56.000Z</time>
      </trkpt>
      <trkpt lat="44.24845" lon="7.04745">
        <ele>1948.1999511719</ele>
        <time>2018-05-09T07:18:02.000Z</time>
      </trkpt>
      <trkpt lat="44.24844" lon="7.04745">
        <ele>1948.1999511719</ele>
        <time>2018-05-09T07:18:05.000Z</time>
      </trkpt>
      <trkpt lat="44.24845" lon="7.04744">
        <ele>1948.1999511719</ele>
        <time>2018-05-09T07:18:06.000Z</time>
      </trkpt>
      <trkpt lat="44.24845" lon="7.04744">
        <ele>1948.1999511719</ele>
        <time>2018-05-09T07:18:08.000Z</time>
      </trkpt>
      <trkpt lat="44.24847" lon="7.04743">
        <ele>1948.1999511719</ele>
        <time>2018-05-09T07:18:11.000Z</time>
      </trkpt>
      <trkpt lat="44.24848" lon="7.04744">
        <ele>1948.1999511719</ele>
        <time>2018-05-09T07:18:15.000Z</time>
      </trkpt>
      <trkpt lat="44.24847" lon="7.04744">
        <ele>1948.1999511719</ele>
        <time>2018-05-09T07:18:19.000Z</time>
      </trkpt>
      <trkpt lat="44.24847" lon="7.04743">
        <ele>1948.1999511719</ele>
        <time>2018-05-09T07:18:23.000Z</time>
      </trkpt>
      <trkpt lat="44.24846" lon="7.04742">
        <ele>1948.1999511719</ele>
        <time>2018-05-09T07:18:26.000Z</time>
      </trkpt>
      <trkpt lat="44.24847" lon="7.04741">
        <ele>1948.1999511719</ele>
        <time>2018-05-09T07:18:28.000Z</time>
      </trkpt>
      <trkpt lat="44.24848" lon="7.0474">
        <ele>1948.1999511719</ele>
        <time>2018-05-09T07:18:30.000Z</time>
      </trkpt>
      <trkpt lat="44.24849" lon="7.0474">
        <ele>1948.1999511719</ele>
        <time>2018-05-09T07:18:31.000Z</time>
      </trkpt>
      <trkpt lat="44.24849" lon="7.0474">
        <ele>1948.1999511719</ele>
        <time>2018-05-09T07:18:32.000Z</time>
      </trkpt>
      <trkpt lat="44.2485" lon="7.04737">
        <ele>1948.1999511719</ele>
        <time>2018-05-09T07:18:35.000Z</time>
      </trkpt>
      <trkpt lat="44.2485" lon="7.04735">
        <ele>1948.1999511719</ele>
        <time>2018-05-09T07:18:37.000Z</time>
      </trkpt>
      <trkpt lat="44.2485" lon="7.04737">
        <ele>1948.1999511719</ele>
        <time>2018-05-09T07:18:39.000Z</time>
      </trkpt>
      <trkpt lat="44.24851" lon="7.04737">
        <ele>1948.1999511719</ele>
        <time>2018-05-09T07:18:40.000Z</time>
      </trkpt>
      <trkpt lat="44.24852" lon="7.04736">
        <ele>1948.1999511719</ele>
        <time>2018-05-09T07:18:42.000Z</time>
      </trkpt>
      <trkpt lat="44.24852" lon="7.04735">
        <ele>1948.1999511719</ele>
        <time>2018-05-09T07:18:44.000Z</time>
      </trkpt>
      <trkpt lat="44.24851" lon="7.04737">
        <ele>1948.1999511719</ele>
        <time>2018-05-09T07:18:46.000Z</time>
      </trkpt>
      <trkpt lat="44.24851" lon="7.04738">
        <ele>1948.1999511719</ele>
        <time>2018-05-09T07:18:49.000Z</time>
      </trkpt>
      <trkpt lat="44.2485" lon="7.04738">
        <ele>1948.1999511719</ele>
        <time>2018-05-09T07:18:52.000Z</time>
      </trkpt>
      <trkpt lat="44.24849" lon="7.04739">
        <ele>1948.1999511719</ele>
        <time>2018-05-09T07:18:55.000Z</time>
      </trkpt>
      <trkpt lat="44.24849" lon="7.04739">
        <ele>1948.1999511719</ele>
        <time>2018-05-09T07:18:58.000Z</time>
      </trkpt>
      <trkpt lat="44.2485" lon="7.04739">
        <ele>1948.1999511719</ele>
        <time>2018-05-09T07:18:59.000Z</time>
      </trkpt>
      <trkpt lat="44.24851" lon="7.04738">
        <ele>1948.1999511719</ele>
        <time>2018-05-09T07:19:06.000Z</time>
      </trkpt>
      <trkpt lat="44.2485" lon="7.04738">
        <ele>1948.1999511719</ele>
        <time>2018-05-09T07:19:08.000Z</time>
      </trkpt>
      <trkpt lat="44.2485" lon="7.04738">
        <ele>1948.1999511719</ele>
        <time>2018-05-09T07:19:11.000Z</time>
      </trkpt>
      <trkpt lat="44.2485" lon="7.04737">
        <ele>1948.1999511719</ele>
        <time>2018-05-09T07:19:13.000Z</time>
      </trkpt>
      <trkpt lat="44.2485" lon="7.04737">
        <ele>1948.1999511719</ele>
        <time>2018-05-09T07:19:15.000Z</time>
      </trkpt>
      <trkpt lat="44.2485" lon="7.04736">
        <ele>1948.1999511719</ele>
        <time>2018-05-09T07:19:18.000Z</time>
      </trkpt>
      <trkpt lat="44.24851" lon="7.04738">
        <ele>1948.1999511719</ele>
        <time>2018-05-09T07:19:26.000Z</time>
      </trkpt>
      <trkpt lat="44.24852" lon="7.04738">
        <ele>1948.1999511719</ele>
        <time>2018-05-09T07:19:28.000Z</time>
      </trkpt>
      <trkpt lat="44.24852" lon="7.04738">
        <ele>1948.1999511719</ele>
        <time>2018-05-09T07:19:29.000Z</time>
      </trkpt>
      <trkpt lat="44.24851" lon="7.04738">
        <ele>1948.1999511719</ele>
        <time>2018-05-09T07:19:32.000Z</time>
      </trkpt>
      <trkpt lat="44.2485" lon="7.04741">
        <ele>1948.1999511719</ele>
        <time>2018-05-09T07:19:43.000Z</time>
      </trkpt>
      <trkpt lat="44.24849" lon="7.04741">
        <ele>1948.1999511719</ele>
        <time>2018-05-09T07:19:44.000Z</time>
      </trkpt>
      <trkpt lat="44.24849" lon="7.04741">
        <ele>1948.1999511719</ele>
        <time>2018-05-09T07:19:45.000Z</time>
      </trkpt>
      <trkpt lat="44.24849" lon="7.04742">
        <ele>1948.1999511719</ele>
        <time>2018-05-09T07:19:49.000Z</time>
      </trkpt>
      <trkpt lat="44.24851" lon="7.04742">
        <ele>1948.1999511719</ele>
        <time>2018-05-09T07:19:52.000Z</time>
      </trkpt>
      <trkpt lat="44.24852" lon="7.04741">
        <ele>1948.1999511719</ele>
        <time>2018-05-09T07:19:58.000Z</time>
      </trkpt>
      <trkpt lat="44.24851" lon="7.04738">
        <ele>1948.1999511719</ele>
        <time>2018-05-09T07:20:06.000Z</time>
      </trkpt>
      <trkpt lat="44.2485" lon="7.04738">
        <ele>1948.1999511719</ele>
        <time>2018-05-09T07:20:07.000Z</time>
      </trkpt>
      <trkpt lat="44.2485" lon="7.04739">
        <ele>1948.1999511719</ele>
        <time>2018-05-09T07:20:09.000Z</time>
      </trkpt>
      <trkpt lat="44.2485" lon="7.04742">
        <ele>1948.1999511719</ele>
        <time>2018-05-09T07:20:12.000Z</time>
      </trkpt>
      <trkpt lat="44.2485" lon="7.04742">
        <ele>1948.1999511719</ele>
        <time>2018-05-09T07:20:14.000Z</time>
      </trkpt>
      <trkpt lat="44.24851" lon="7.0474">
        <ele>1948.1999511719</ele>
        <time>2018-05-09T07:20:23.000Z</time>
      </trkpt>
      <trkpt lat="44.2485" lon="7.04739">
        <ele>1948.1999511719</ele>
        <time>2018-05-09T07:20:32.000Z</time>
      </trkpt>
      <trkpt lat="44.2485" lon="7.04739">
        <ele>1948.1999511719</ele>
        <time>2018-05-09T07:20:34.000Z</time>
      </trkpt>
      <trkpt lat="44.24849" lon="7.04739">
        <ele>1948.1999511719</ele>
        <time>2018-05-09T07:20:37.000Z</time>
      </trkpt>
      <trkpt lat="44.24849" lon="7.04739">
        <ele>1948.1999511719</ele>
        <time>2018-05-09T07:20:42.000Z</time>
      </trkpt>
      <trkpt lat="44.24849" lon="7.04739">
        <ele>1948.1999511719</ele>
        <time>2018-05-09T07:20:50.000Z</time>
      </trkpt>
      <trkpt lat="44.2485" lon="7.04739">
        <ele>1948.1999511719</ele>
        <time>2018-05-09T07:20:52.000Z</time>
      </trkpt>
      <trkpt lat="44.24853" lon="7.04738">
        <ele>1948.1999511719</ele>
        <time>2018-05-09T07:20:56.000Z</time>
      </trkpt>
      <trkpt lat="44.24854" lon="7.04737">
        <ele>1948.1999511719</ele>
        <time>2018-05-09T07:20:58.000Z</time>
      </trkpt>
      <trkpt lat="44.24854" lon="7.0474">
        <ele>1948.1999511719</ele>
        <time>2018-05-09T07:21:04.000Z</time>
      </trkpt>
      <trkpt lat="44.24855" lon="7.0474">
        <ele>1948.1999511719</ele>
        <time>2018-05-09T07:21:10.000Z</time>
      </trkpt>
      <trkpt lat="44.24854" lon="7.0474">
        <ele>1948.1999511719</ele>
        <time>2018-05-09T07:21:13.000Z</time>
      </trkpt>
      <trkpt lat="44.24854" lon="7.0474">
        <ele>1948.1999511719</ele>
        <time>2018-05-09T07:21:15.000Z</time>
      </trkpt>
      <trkpt lat="44.24854" lon="7.0474">
        <ele>1948.1999511719</ele>
        <time>2018-05-09T07:21:16.000Z</time>
      </trkpt>
      <trkpt lat="44.24854" lon="7.0474">
        <ele>1948.1999511719</ele>
        <time>2018-05-09T07:21:17.000Z</time>
      </trkpt>
      <trkpt lat="44.24853" lon="7.0474">
        <ele>1948.1999511719</ele>
        <time>2018-05-09T07:21:19.000Z</time>
      </trkpt>
      <trkpt lat="44.24853" lon="7.04739">
        <ele>1948.1999511719</ele>
        <time>2018-05-09T07:21:25.000Z</time>
      </trkpt>
      <trkpt lat="44.24852" lon="7.04739">
        <ele>1948.1999511719</ele>
        <time>2018-05-09T07:21:26.000Z</time>
      </trkpt>
      <trkpt lat="44.24852" lon="7.04739">
        <ele>1948.1999511719</ele>
        <time>2018-05-09T07:21:27.000Z</time>
      </trkpt>
      <trkpt lat="44.24852" lon="7.04739">
        <ele>1948.1999511719</ele>
        <time>2018-05-09T07:21:28.000Z</time>
      </trkpt>
      <trkpt lat="44.24851" lon="7.04739">
        <ele>1948.1999511719</ele>
        <time>2018-05-09T07:21:29.000Z</time>
      </trkpt>
      <trkpt lat="44.24851" lon="7.04739">
        <ele>1948.1999511719</ele>
        <time>2018-05-09T07:21:31.000Z</time>
      </trkpt>
      <trkpt lat="44.2485" lon="7.04739">
        <ele>1948.1999511719</ele>
        <time>2018-05-09T07:21:32.000Z</time>
      </trkpt>
      <trkpt lat="44.2485" lon="7.04739">
        <ele>1948.1999511719</ele>
        <time>2018-05-09T07:21:34.000Z</time>
      </trkpt>
      <trkpt lat="44.24849" lon="7.0474">
        <ele>1948.1999511719</ele>
        <time>2018-05-09T07:21:36.000Z</time>
      </trkpt>
      <trkpt lat="44.2485" lon="7.0474">
        <ele>1948.1999511719</ele>
        <time>2018-05-09T07:21:37.000Z</time>
      </trkpt>
      <trkpt lat="44.2485" lon="7.0474">
        <ele>1948.1999511719</ele>
        <time>2018-05-09T07:21:39.000Z</time>
      </trkpt>
      <trkpt lat="44.2485" lon="7.0474">
        <ele>1948.1999511719</ele>
        <time>2018-05-09T07:21:42.000Z</time>
      </trkpt>
      <trkpt lat="44.24848" lon="7.0474">
        <ele>1948.1999511719</ele>
        <time>2018-05-09T07:21:46.000Z</time>
      </trkpt>
      <trkpt lat="44.24848" lon="7.04742">
        <ele>1948.1999511719</ele>
        <time>2018-05-09T07:21:50.000Z</time>
      </trkpt>
      <trkpt lat="44.24848" lon="7.04743">
        <ele>1948.1999511719</ele>
        <time>2018-05-09T07:21:51.000Z</time>
      </trkpt>
      <trkpt lat="44.24848" lon="7.04743">
        <ele>1948.1999511719</ele>
        <time>2018-05-09T07:21:52.000Z</time>
      </trkpt>
      <trkpt lat="44.24849" lon="7.04742">
        <ele>1948.1999511719</ele>
        <time>2018-05-09T07:21:55.000Z</time>
      </trkpt>
      <trkpt lat="44.24849" lon="7.04743">
        <ele>1948.1999511719</ele>
        <time>2018-05-09T07:22:02.000Z</time>
      </trkpt>
      <trkpt lat="44.24849" lon="7.04743">
        <ele>1948.1999511719</ele>
        <time>2018-05-09T07:22:03.000Z</time>
      </trkpt>
      <trkpt lat="44.24847" lon="7.04745">
        <ele>1948.1999511719</ele>
        <time>2018-05-09T07:22:12.000Z</time>
      </trkpt>
      <trkpt lat="44.24847" lon="7.04744">
        <ele>1948.1999511719</ele>
        <time>2018-05-09T07:22:13.000Z</time>
      </trkpt>
      <trkpt lat="44.24847" lon="7.04744">
        <ele>1948.1999511719</ele>
        <time>2018-05-09T07:22:15.000Z</time>
      </trkpt>
      <trkpt lat="44.24847" lon="7.04743">
        <ele>1948.1999511719</ele>
        <time>2018-05-09T07:22:16.000Z</time>
      </trkpt>
      <trkpt lat="44.24848" lon="7.04743">
        <ele>1948.1999511719</ele>
        <time>2018-05-09T07:22:17.000Z</time>
      </trkpt>
      <trkpt lat="44.24849" lon="7.04742">
        <ele>1948.1999511719</ele>
        <time>2018-05-09T07:22:29.000Z</time>
      </trkpt>
      <trkpt lat="44.2485" lon="7.04741">
        <ele>1948.1999511719</ele>
        <time>2018-05-09T07:22:31.000Z</time>
      </trkpt>
      <trkpt lat="44.24851" lon="7.0474">
        <ele>1948.1999511719</ele>
        <time>2018-05-09T07:22:32.000Z</time>
      </trkpt>
      <trkpt lat="44.24855" lon="7.04738">
        <ele>1948.1999511719</ele>
        <time>2018-05-09T07:22:36.000Z</time>
      </trkpt>
      <trkpt lat="44.24852" lon="7.04738">
        <ele>1948.1999511719</ele>
        <time>2018-05-09T07:22:46.000Z</time>
      </trkpt>
      <trkpt lat="44.24852" lon="7.0474">
        <ele>1948.1999511719</ele>
        <time>2018-05-09T07:22:56.000Z</time>
      </trkpt>
      <trkpt lat="44.24852" lon="7.0474">
        <ele>1948.1999511719</ele>
        <time>2018-05-09T07:22:57.000Z</time>
      </trkpt>
      <trkpt lat="44.24852" lon="7.0474">
        <ele>1948.1999511719</ele>
        <time>2018-05-09T07:22:59.000Z</time>
      </trkpt>
      <trkpt lat="44.2485" lon="7.04741">
        <ele>1948.1999511719</ele>
        <time>2018-05-09T07:23:02.000Z</time>
      </trkpt>
      <trkpt lat="44.24849" lon="7.04741">
        <ele>1948.1999511719</ele>
        <time>2018-05-09T07:23:05.000Z</time>
      </trkpt>
      <trkpt lat="44.24847" lon="7.04744">
        <ele>1948.1999511719</ele>
        <time>2018-05-09T07:23:11.000Z</time>
      </trkpt>
      <trkpt lat="44.24847" lon="7.04747">
        <ele>1948.1999511719</ele>
        <time>2018-05-09T07:23:13.000Z</time>
      </trkpt>
      <trkpt lat="44.24846" lon="7.04752">
        <ele>1947.4000244141</ele>
        <time>2018-05-09T07:23:16.000Z</time>
      </trkpt>
      <trkpt lat="44.24845" lon="7.04754">
        <ele>1946.8000488281</ele>
        <time>2018-05-09T07:23:17.000Z</time>
      </trkpt>
      <trkpt lat="44.24844" lon="7.0476">
        <ele>1945.5999755859</ele>
        <time>2018-05-09T07:23:20.000Z</time>
      </trkpt>
      <trkpt lat="44.24843" lon="7.04771">
        <ele>1944.8000488281</ele>
        <time>2018-05-09T07:23:26.000Z</time>
      </trkpt>
      <trkpt lat="44.24842" lon="7.04772">
        <ele>1944.5999755859</ele>
        <time>2018-05-09T07:23:27.000Z</time>
      </trkpt>
      <trkpt lat="44.24842" lon="7.04773">
        <ele>1944</ele>
        <time>2018-05-09T07:23:30.000Z</time>
      </trkpt>
      <trkpt lat="44.24841" lon="7.04773">
        <ele>1944</ele>
        <time>2018-05-09T07:23:32.000Z</time>
      </trkpt>
      <trkpt lat="44.24837" lon="7.04771">
        <ele>1943.8000488281</ele>
        <time>2018-05-09T07:23:35.000Z</time>
      </trkpt>
      <trkpt lat="44.24837" lon="7.0477">
        <ele>1943.5999755859</ele>
        <time>2018-05-09T07:23:36.000Z</time>
      </trkpt>
      <trkpt lat="44.24836" lon="7.04769">
        <ele>1943.4000244141</ele>
        <time>2018-05-09T07:23:37.000Z</time>
      </trkpt>
      <trkpt lat="44.24834" lon="7.04765">
        <ele>1942.1999511719</ele>
        <time>2018-05-09T07:23:40.000Z</time>
      </trkpt>
      <trkpt lat="44.24831" lon="7.0476">
        <ele>1941.1999511719</ele>
        <time>2018-05-09T07:23:43.000Z</time>
      </trkpt>
      <trkpt lat="44.24828" lon="7.04756">
        <ele>1940.1999511719</ele>
        <time>2018-05-09T07:23:46.000Z</time>
      </trkpt>
      <trkpt lat="44.24817" lon="7.04747">
        <ele>1938.8000488281</ele>
        <time>2018-05-09T07:23:50.000Z</time>
      </trkpt>
      <trkpt lat="44.24813" lon="7.04744">
        <ele>1937.5999755859</ele>
        <time>2018-05-09T07:23:52.000Z</time>
      </trkpt>
      <trkpt lat="44.24809" lon="7.04741">
        <ele>1936</ele>
        <time>2018-05-09T07:23:54.000Z</time>
      </trkpt>
      <trkpt lat="44.24805" lon="7.0474">
        <ele>1934.8000488281</ele>
        <time>2018-05-09T07:23:56.000Z</time>
      </trkpt>
      <trkpt lat="44.24803" lon="7.04739">
        <ele>1934.4000244141</ele>
        <time>2018-05-09T07:23:57.000Z</time>
      </trkpt>
      <trkpt lat="44.24801" lon="7.0474">
        <ele>1933.8000488281</ele>
        <time>2018-05-09T07:23:59.000Z</time>
      </trkpt>
      <trkpt lat="44.24795" lon="7.0474">
        <ele>1932.8000488281</ele>
        <time>2018-05-09T07:24:03.000Z</time>
      </trkpt>
      <trkpt lat="44.24789" lon="7.0474">
        <ele>1932.1999511719</ele>
        <time>2018-05-09T07:24:06.000Z</time>
      </trkpt>
      <trkpt lat="44.24786" lon="7.04738">
        <ele>1932.1999511719</ele>
        <time>2018-05-09T07:24:09.000Z</time>
      </trkpt>
      <trkpt lat="44.24784" lon="7.04737">
        <ele>1932</ele>
        <time>2018-05-09T07:24:11.000Z</time>
      </trkpt>
      <trkpt lat="44.24781" lon="7.0474">
        <ele>1931.8000488281</ele>
        <time>2018-05-09T07:24:16.000Z</time>
      </trkpt>
      <trkpt lat="44.24781" lon="7.04739">
        <ele>1931.8000488281</ele>
        <time>2018-05-09T07:24:17.000Z</time>
      </trkpt>
      <trkpt lat="44.24782" lon="7.04741">
        <ele>1931.4000244141</ele>
        <time>2018-05-09T07:24:38.000Z</time>
      </trkpt>
      <trkpt lat="44.24783" lon="7.0474">
        <ele>1931.4000244141</ele>
        <time>2018-05-09T07:24:41.000Z</time>
      </trkpt>
      <trkpt lat="44.2478" lon="7.04739">
        <ele>1931.1999511719</ele>
        <time>2018-05-09T07:24:50.000Z</time>
      </trkpt>
      <trkpt lat="44.24776" lon="7.04741">
        <ele>1931.1999511719</ele>
        <time>2018-05-09T07:24:52.000Z</time>
      </trkpt>
      <trkpt lat="44.24768" lon="7.04746">
        <ele>1931.1999511719</ele>
        <time>2018-05-09T07:24:59.000Z</time>
      </trkpt>
      <trkpt lat="44.24762" lon="7.04811">
        <ele>1931.1999511719</ele>
        <time>2018-05-09T07:25:02.000Z</time>
      </trkpt>
      <trkpt lat="44.2476" lon="7.04807">
        <ele>1931.1999511719</ele>
        <time>2018-05-09T07:25:05.000Z</time>
      </trkpt>
      <trkpt lat="44.24767" lon="7.04792">
        <ele>1931.1999511719</ele>
        <time>2018-05-09T07:25:11.000Z</time>
      </trkpt>
      <trkpt lat="44.2477" lon="7.04766">
        <ele>1931.1999511719</ele>
        <time>2018-05-09T07:25:15.000Z</time>
      </trkpt>
      <trkpt lat="44.24774" lon="7.04764">
        <ele>1931.1999511719</ele>
        <time>2018-05-09T07:25:17.000Z</time>
      </trkpt>
      <trkpt lat="44.24783" lon="7.04761">
        <ele>1931.1999511719</ele>
        <time>2018-05-09T07:25:20.000Z</time>
      </trkpt>
      <trkpt lat="44.24784" lon="7.04759">
        <ele>1931.1999511719</ele>
        <time>2018-05-09T07:25:21.000Z</time>
      </trkpt>
      <trkpt lat="44.24783" lon="7.04747">
        <ele>1931.1999511719</ele>
        <time>2018-05-09T07:25:32.000Z</time>
      </trkpt>
      <trkpt lat="44.24783" lon="7.04749">
        <ele>1931.1999511719</ele>
        <time>2018-05-09T07:25:34.000Z</time>
      </trkpt>
      <trkpt lat="44.24785" lon="7.04748">
        <ele>1931.1999511719</ele>
        <time>2018-05-09T07:25:45.000Z</time>
      </trkpt>
      <trkpt lat="44.24782" lon="7.04743">
        <ele>1931.1999511719</ele>
        <time>2018-05-09T07:25:47.000Z</time>
      </trkpt>
      <trkpt lat="44.24783" lon="7.04742">
        <ele>1931.1999511719</ele>
        <time>2018-05-09T07:25:48.000Z</time>
      </trkpt>
      <trkpt lat="44.24782" lon="7.04742">
        <ele>1931.1999511719</ele>
        <time>2018-05-09T07:25:49.000Z</time>
      </trkpt>
      <trkpt lat="44.24782" lon="7.04743">
        <ele>1931.4000244141</ele>
        <time>2018-05-09T07:25:50.000Z</time>
      </trkpt>
      <trkpt lat="44.24781" lon="7.04743">
        <ele>1931.4000244141</ele>
        <time>2018-05-09T07:25:51.000Z</time>
      </trkpt>
      <trkpt lat="44.2478" lon="7.04743">
        <ele>1931.5999755859</ele>
        <time>2018-05-09T07:25:52.000Z</time>
      </trkpt>
      <trkpt lat="44.24778" lon="7.04744">
        <ele>1931.5999755859</ele>
        <time>2018-05-09T07:25:53.000Z</time>
      </trkpt>
      <trkpt lat="44.24769" lon="7.0475">
        <ele>1931.5999755859</ele>
        <time>2018-05-09T07:25:57.000Z</time>
      </trkpt>
      <trkpt lat="44.24764" lon="7.04754">
        <ele>1931.4000244141</ele>
        <time>2018-05-09T07:26:00.000Z</time>
      </trkpt>
      <trkpt lat="44.24757" lon="7.04757">
        <ele>1931.4000244141</ele>
        <time>2018-05-09T07:26:05.000Z</time>
      </trkpt>
      <trkpt lat="44.24756" lon="7.04757">
        <ele>1931.1999511719</ele>
        <time>2018-05-09T07:26:06.000Z</time>
      </trkpt>
      <trkpt lat="44.24752" lon="7.04757">
        <ele>1931.1999511719</ele>
        <time>2018-05-09T07:26:10.000Z</time>
      </trkpt>
      <trkpt lat="44.24747" lon="7.0476">
        <ele>1931</ele>
        <time>2018-05-09T07:26:14.000Z</time>
      </trkpt>
      <trkpt lat="44.24745" lon="7.04763">
        <ele>1931</ele>
        <time>2018-05-09T07:26:15.000Z</time>
      </trkpt>
      <trkpt lat="44.24739" lon="7.04768">
        <ele>1931</ele>
        <time>2018-05-09T07:26:18.000Z</time>
      </trkpt>
      <trkpt lat="44.24736" lon="7.04771">
        <ele>1930.8000488281</ele>
        <time>2018-05-09T07:26:21.000Z</time>
      </trkpt>
      <trkpt lat="44.24735" lon="7.04772">
        <ele>1930.8000488281</ele>
        <time>2018-05-09T07:26:22.000Z</time>
      </trkpt>
      <trkpt lat="44.24732" lon="7.04776">
        <ele>1930.8000488281</ele>
        <time>2018-05-09T07:26:25.000Z</time>
      </trkpt>
      <trkpt lat="44.24727" lon="7.0478">
        <ele>1930.8000488281</ele>
        <time>2018-05-09T07:26:27.000Z</time>
      </trkpt>
      <trkpt lat="44.24718" lon="7.04792">
        <ele>1930.5999755859</ele>
        <time>2018-05-09T07:26:35.000Z</time>
      </trkpt>
      <trkpt lat="44.24717" lon="7.04794">
        <ele>1930.5999755859</ele>
        <time>2018-05-09T07:26:36.000Z</time>
      </trkpt>
      <trkpt lat="44.24718" lon="7.04801">
        <ele>1930.4000244141</ele>
        <time>2018-05-09T07:26:38.000Z</time>
      </trkpt>
      <trkpt lat="44.24711" lon="7.04804">
        <ele>1930.4000244141</ele>
        <time>2018-05-09T07:26:41.000Z</time>
      </trkpt>
      <trkpt lat="44.24697" lon="7.04805">
        <ele>1930.4000244141</ele>
        <time>2018-05-09T07:26:50.000Z</time>
      </trkpt>
      <trkpt lat="44.24696" lon="7.04804">
        <ele>1930.5999755859</ele>
        <time>2018-05-09T07:26:52.000Z</time>
      </trkpt>
      <trkpt lat="44.24696" lon="7.04804">
        <ele>1930.8000488281</ele>
        <time>2018-05-09T07:26:54.000Z</time>
      </trkpt>
      <trkpt lat="44.24693" lon="7.04807">
        <ele>1930.8000488281</ele>
        <time>2018-05-09T07:26:58.000Z</time>
      </trkpt>
      <trkpt lat="44.24693" lon="7.04808">
        <ele>1931</ele>
        <time>2018-05-09T07:27:01.000Z</time>
      </trkpt>
      <trkpt lat="44.24691" lon="7.0481">
        <ele>1931</ele>
        <time>2018-05-09T07:27:02.000Z</time>
      </trkpt>
      <trkpt lat="44.24692" lon="7.04815">
        <ele>1931.1999511719</ele>
        <time>2018-05-09T07:27:05.000Z</time>
      </trkpt>
      <trkpt lat="44.24693" lon="7.04817">
        <ele>1931</ele>
        <time>2018-05-09T07:27:07.000Z</time>
      </trkpt>
      <trkpt lat="44.24694" lon="7.04821">
        <ele>1930.8000488281</ele>
        <time>2018-05-09T07:27:13.000Z</time>
      </trkpt>
      <trkpt lat="44.24693" lon="7.04821">
        <ele>1930.8000488281</ele>
        <time>2018-05-09T07:27:15.000Z</time>
      </trkpt>
      <trkpt lat="44.24692" lon="7.04821">
        <ele>1930.8000488281</ele>
        <time>2018-05-09T07:27:16.000Z</time>
      </trkpt>
      <trkpt lat="44.24687" lon="7.04822">
        <ele>1930.8000488281</ele>
        <time>2018-05-09T07:27:17.000Z</time>
      </trkpt>
      <trkpt lat="44.24685" lon="7.04821">
        <ele>1931</ele>
        <time>2018-05-09T07:27:18.000Z</time>
      </trkpt>
      <trkpt lat="44.24681" lon="7.04822">
        <ele>1931</ele>
        <time>2018-05-09T07:27:20.000Z</time>
      </trkpt>
      <trkpt lat="44.24678" lon="7.04822">
        <ele>1931.1999511719</ele>
        <time>2018-05-09T07:27:22.000Z</time>
      </trkpt>
      <trkpt lat="44.24674" lon="7.04823">
        <ele>1931.4000244141</ele>
        <time>2018-05-09T07:27:26.000Z</time>
      </trkpt>
      <trkpt lat="44.2467" lon="7.04825">
        <ele>1931.8000488281</ele>
        <time>2018-05-09T07:27:29.000Z</time>
      </trkpt>
      <trkpt lat="44.24668" lon="7.04826">
        <ele>1931.8000488281</ele>
        <time>2018-05-09T07:27:30.000Z</time>
      </trkpt>
      <trkpt lat="44.24667" lon="7.04826">
        <ele>1931.8000488281</ele>
        <time>2018-05-09T07:27:31.000Z</time>
      </trkpt>
      <trkpt lat="44.24666" lon="7.04826">
        <ele>1931.8000488281</ele>
        <time>2018-05-09T07:27:33.000Z</time>
      </trkpt>
      <trkpt lat="44.24652" lon="7.04828">
        <ele>1932.4000244141</ele>
        <time>2018-05-09T07:27:41.000Z</time>
      </trkpt>
      <trkpt lat="44.24648" lon="7.04829">
        <ele>1932.8000488281</ele>
        <time>2018-05-09T07:27:48.000Z</time>
      </trkpt>
      <trkpt lat="44.24648" lon="7.04828">
        <ele>1933.4000244141</ele>
        <time>2018-05-09T07:27:51.000Z</time>
      </trkpt>
      <trkpt lat="44.24645" lon="7.04829">
        <ele>1934</ele>
        <time>2018-05-09T07:27:57.000Z</time>
      </trkpt>
      <trkpt lat="44.24637" lon="7.04836">
        <ele>1935</ele>
        <time>2018-05-09T07:28:06.000Z</time>
      </trkpt>
      <trkpt lat="44.24636" lon="7.04838">
        <ele>1935.5999755859</ele>
        <time>2018-05-09T07:28:11.000Z</time>
      </trkpt>
      <trkpt lat="44.24638" lon="7.04838">
        <ele>1936</ele>
        <time>2018-05-09T07:28:13.000Z</time>
      </trkpt>
      <trkpt lat="44.24644" lon="7.04828">
        <ele>1936.4000244141</ele>
        <time>2018-05-09T07:28:17.000Z</time>
      </trkpt>
      <trkpt lat="44.24637" lon="7.0483">
        <ele>1937.1999511719</ele>
        <time>2018-05-09T07:28:24.000Z</time>
      </trkpt>
      <trkpt lat="44.24637" lon="7.04829">
        <ele>1937.4000244141</ele>
        <time>2018-05-09T07:28:27.000Z</time>
      </trkpt>
      <trkpt lat="44.2463" lon="7.04831">
        <ele>1938.1999511719</ele>
        <time>2018-05-09T07:28:32.000Z</time>
      </trkpt>
      <trkpt lat="44.24628" lon="7.04831">
        <ele>1938.1999511719</ele>
        <time>2018-05-09T07:28:33.000Z</time>
      </trkpt>
      <trkpt lat="44.24624" lon="7.04831">
        <ele>1938.5999755859</ele>
        <time>2018-05-09T07:28:36.000Z</time>
      </trkpt>
      <trkpt lat="44.24617" lon="7.04833">
        <ele>1939.1999511719</ele>
        <time>2018-05-09T07:28:41.000Z</time>
      </trkpt>
      <trkpt lat="44.24617" lon="7.04833">
        <ele>1939.4000244141</ele>
        <time>2018-05-09T07:28:42.000Z</time>
      </trkpt>
      <trkpt lat="44.24613" lon="7.04833">
        <ele>1940.1999511719</ele>
        <time>2018-05-09T07:28:46.000Z</time>
      </trkpt>
      <trkpt lat="44.24614" lon="7.04832">
        <ele>1940.4000244141</ele>
        <time>2018-05-09T07:28:48.000Z</time>
      </trkpt>
      <trkpt lat="44.24616" lon="7.04831">
        <ele>1940.5999755859</ele>
        <time>2018-05-09T07:28:50.000Z</time>
      </trkpt>
      <trkpt lat="44.24615" lon="7.04832">
        <ele>1940.5999755859</ele>
        <time>2018-05-09T07:28:51.000Z</time>
      </trkpt>
      <trkpt lat="44.24612" lon="7.04835">
        <ele>1940.8000488281</ele>
        <time>2018-05-09T07:28:54.000Z</time>
      </trkpt>
      <trkpt lat="44.24609" lon="7.04832">
        <ele>1941.4000244141</ele>
        <time>2018-05-09T07:28:59.000Z</time>
      </trkpt>
      <trkpt lat="44.24612" lon="7.04827">
        <ele>1942.5999755859</ele>
        <time>2018-05-09T07:29:06.000Z</time>
      </trkpt>
      <trkpt lat="44.24613" lon="7.04826">
        <ele>1943</ele>
        <time>2018-05-09T07:29:08.000Z</time>
      </trkpt>
      <trkpt lat="44.24612" lon="7.04827">
        <ele>1943.5999755859</ele>
        <time>2018-05-09T07:29:14.000Z</time>
      </trkpt>
      <trkpt lat="44.24598" lon="7.04831">
        <ele>1944.8000488281</ele>
        <time>2018-05-09T07:29:22.000Z</time>
      </trkpt>
      <trkpt lat="44.24588" lon="7.0483">
        <ele>1945.1999511719</ele>
        <time>2018-05-09T07:29:29.000Z</time>
      </trkpt>
      <trkpt lat="44.24588" lon="7.04832">
        <ele>1945.8000488281</ele>
        <time>2018-05-09T07:29:33.000Z</time>
      </trkpt>
      <trkpt lat="44.24585" lon="7.04837">
        <ele>1946</ele>
        <time>2018-05-09T07:29:37.000Z</time>
      </trkpt>
      <trkpt lat="44.24538" lon="7.0485">
        <ele>1946.5999755859</ele>
        <time>2018-05-09T07:29:43.000Z</time>
      </trkpt>
      <trkpt lat="44.24534" lon="7.0485">
        <ele>1947</ele>
        <time>2018-05-09T07:29:44.000Z</time>
      </trkpt>
      <trkpt lat="44.24531" lon="7.04849">
        <ele>1947.8000488281</ele>
        <time>2018-05-09T07:29:48.000Z</time>
      </trkpt>
      <trkpt lat="44.24533" lon="7.04846">
        <ele>1948</ele>
        <time>2018-05-09T07:29:50.000Z</time>
      </trkpt>
      <trkpt lat="44.24585" lon="7.0482">
        <ele>1948.5999755859</ele>
        <time>2018-05-09T07:29:53.000Z</time>
      </trkpt>
      <trkpt lat="44.24579" lon="7.04824">
        <ele>1949</ele>
        <time>2018-05-09T07:29:56.000Z</time>
      </trkpt>
      <trkpt lat="44.24579" lon="7.04826">
        <ele>1949.4000244141</ele>
        <time>2018-05-09T07:29:59.000Z</time>
      </trkpt>
      <trkpt lat="44.24576" lon="7.04827">
        <ele>1950.1999511719</ele>
        <time>2018-05-09T07:30:04.000Z</time>
      </trkpt>
      <trkpt lat="44.24564" lon="7.0483">
        <ele>1951</ele>
        <time>2018-05-09T07:30:12.000Z</time>
      </trkpt>
      <trkpt lat="44.24562" lon="7.04831">
        <ele>1951.1999511719</ele>
        <time>2018-05-09T07:30:13.000Z</time>
      </trkpt>
      <trkpt lat="44.24561" lon="7.0483">
        <ele>1951.5999755859</ele>
        <time>2018-05-09T07:30:15.000Z</time>
      </trkpt>
      <trkpt lat="44.24558" lon="7.04831">
        <ele>1952</ele>
        <time>2018-05-09T07:30:18.000Z</time>
      </trkpt>
      <trkpt lat="44.24557" lon="7.04831">
        <ele>1952.1999511719</ele>
        <time>2018-05-09T07:30:19.000Z</time>
      </trkpt>
      <trkpt lat="44.24544" lon="7.04836">
        <ele>1953.1999511719</ele>
        <time>2018-05-09T07:30:37.000Z</time>
      </trkpt>
      <trkpt lat="44.24547" lon="7.04835">
        <ele>1953</ele>
        <time>2018-05-09T07:30:42.000Z</time>
      </trkpt>
      <trkpt lat="44.24549" lon="7.04835">
        <ele>1953.1999511719</ele>
        <time>2018-05-09T07:30:45.000Z</time>
      </trkpt>
      <trkpt lat="44.24533" lon="7.04843">
        <ele>1953.1999511719</ele>
        <time>2018-05-09T07:30:49.000Z</time>
      </trkpt>
      <trkpt lat="44.2453" lon="7.04843">
        <ele>1953.1999511719</ele>
        <time>2018-05-09T07:30:51.000Z</time>
      </trkpt>
      <trkpt lat="44.24532" lon="7.04843">
        <ele>1953.1999511719</ele>
        <time>2018-05-09T07:30:53.000Z</time>
      </trkpt>
      <trkpt lat="44.24531" lon="7.04837">
        <ele>1953.1999511719</ele>
        <time>2018-05-09T07:30:56.000Z</time>
      </trkpt>
      <trkpt lat="44.24543" lon="7.04834">
        <ele>1953.1999511719</ele>
        <time>2018-05-09T07:30:59.000Z</time>
      </trkpt>
      <trkpt lat="44.24545" lon="7.04834">
        <ele>1953.1999511719</ele>
        <time>2018-05-09T07:31:04.000Z</time>
      </trkpt>
      <trkpt lat="44.24546" lon="7.04833">
        <ele>1953.4000244141</ele>
        <time>2018-05-09T07:31:05.000Z</time>
      </trkpt>
      <trkpt lat="44.24559" lon="7.0483">
        <ele>1953.4000244141</ele>
        <time>2018-05-09T07:31:09.000Z</time>
      </trkpt>
      <trkpt lat="44.24561" lon="7.0483">
        <ele>1953.5999755859</ele>
        <time>2018-05-09T07:31:11.000Z</time>
      </trkpt>
      <trkpt lat="44.24558" lon="7.04829">
        <ele>1953.5999755859</ele>
        <time>2018-05-09T07:31:14.000Z</time>
      </trkpt>
      <trkpt lat="44.24556" lon="7.04828">
        <ele>1953.5999755859</ele>
        <time>2018-05-09T07:31:15.000Z</time>
      </trkpt>
      <trkpt lat="44.24565" lon="7.04828">
        <ele>1953.5999755859</ele>
        <time>2018-05-09T07:31:20.000Z</time>
      </trkpt>
      <trkpt lat="44.24572" lon="7.04829">
        <ele>1953.5999755859</ele>
        <time>2018-05-09T07:31:25.000Z</time>
      </trkpt>
      <trkpt lat="44.24582" lon="7.04827">
        <ele>1953.8000488281</ele>
        <time>2018-05-09T07:31:32.000Z</time>
      </trkpt>
      <trkpt lat="44.24582" lon="7.04829">
        <ele>1954</ele>
        <time>2018-05-09T07:31:35.000Z</time>
      </trkpt>
      <trkpt lat="44.24582" lon="7.0483">
        <ele>1954</ele>
        <time>2018-05-09T07:31:38.000Z</time>
      </trkpt>
      <trkpt lat="44.2458" lon="7.04831">
        <ele>1954</ele>
        <time>2018-05-09T07:31:39.000Z</time>
      </trkpt>
      <trkpt lat="44.2458" lon="7.04831">
        <ele>1954</ele>
        <time>2018-05-09T07:31:40.000Z</time>
      </trkpt>
      <trkpt lat="44.2457" lon="7.04834">
        <ele>1954.1999511719</ele>
        <time>2018-05-09T07:31:45.000Z</time>
      </trkpt>
      <trkpt lat="44.24565" lon="7.04836">
        <ele>1954.4000244141</ele>
        <time>2018-05-09T07:31:46.000Z</time>
      </trkpt>
      <trkpt lat="44.24564" lon="7.04836">
        <ele>1954.4000244141</ele>
        <time>2018-05-09T07:31:47.000Z</time>
      </trkpt>
      <trkpt lat="44.24561" lon="7.04837">
        <ele>1954.5999755859</ele>
        <time>2018-05-09T07:31:48.000Z</time>
      </trkpt>
      <trkpt lat="44.2455" lon="7.04835">
        <ele>1955.1999511719</ele>
        <time>2018-05-09T07:31:52.000Z</time>
      </trkpt>
      <trkpt lat="44.24542" lon="7.04835">
        <ele>1955.5999755859</ele>
        <time>2018-05-09T07:31:55.000Z</time>
      </trkpt>
      <trkpt lat="44.2454" lon="7.04835">
        <ele>1955.8000488281</ele>
        <time>2018-05-09T07:31:56.000Z</time>
      </trkpt>
      <trkpt lat="44.24536" lon="7.04836">
        <ele>1955.8000488281</ele>
        <time>2018-05-09T07:31:57.000Z</time>
      </trkpt>
      <trkpt lat="44.24533" lon="7.04836">
        <ele>1956</ele>
        <time>2018-05-09T07:31:58.000Z</time>
      </trkpt>
      <trkpt lat="44.24526" lon="7.04837">
        <ele>1956.4000244141</ele>
        <time>2018-05-09T07:32:01.000Z</time>
      </trkpt>
      <trkpt lat="44.24513" lon="7.04843">
        <ele>1957.4000244141</ele>
        <time>2018-05-09T07:32:07.000Z</time>
      </trkpt>
      <trkpt lat="44.24511" lon="7.04844">
        <ele>1957.5999755859</ele>
        <time>2018-05-09T07:32:08.000Z</time>
      </trkpt>
      <trkpt lat="44.24505" lon="7.04844">
        <ele>1958.1999511719</ele>
        <time>2018-05-09T07:32:11.000Z</time>
      </trkpt>
      <trkpt lat="44.24508" lon="7.04842">
        <ele>1958.5999755859</ele>
        <time>2018-05-09T07:32:13.000Z</time>
      </trkpt>
      <trkpt lat="44.24508" lon="7.04841">
        <ele>1959</ele>
        <time>2018-05-09T07:32:14.000Z</time>
      </trkpt>
      <trkpt lat="44.24506" lon="7.04838">
        <ele>1959.5999755859</ele>
        <time>2018-05-09T07:32:18.000Z</time>
      </trkpt>
      <trkpt lat="44.24504" lon="7.04838">
        <ele>1959.5999755859</ele>
        <time>2018-05-09T07:32:19.000Z</time>
      </trkpt>
      <trkpt lat="44.24497" lon="7.04841">
        <ele>1960.8000488281</ele>
        <time>2018-05-09T07:32:24.000Z</time>
      </trkpt>
      <trkpt lat="44.24498" lon="7.04844">
        <ele>1960.8000488281</ele>
        <time>2018-05-09T07:32:25.000Z</time>
      </trkpt>
      <trkpt lat="44.24496" lon="7.04844">
        <ele>1960.8000488281</ele>
        <time>2018-05-09T07:32:26.000Z</time>
      </trkpt>
      <trkpt lat="44.24475" lon="7.04842">
        <ele>1961</ele>
        <time>2018-05-09T07:32:30.000Z</time>
      </trkpt>
      <trkpt lat="44.2447" lon="7.04844">
        <ele>1961.1999511719</ele>
        <time>2018-05-09T07:32:37.000Z</time>
      </trkpt>
      <trkpt lat="44.24481" lon="7.04845">
        <ele>1961</ele>
        <time>2018-05-09T07:32:45.000Z</time>
      </trkpt>
      <trkpt lat="44.24486" lon="7.04845">
        <ele>1961.1999511719</ele>
        <time>2018-05-09T07:32:51.000Z</time>
      </trkpt>
      <trkpt lat="44.24486" lon="7.04846">
        <ele>1961.1999511719</ele>
        <time>2018-05-09T07:32:54.000Z</time>
      </trkpt>
      <trkpt lat="44.24486" lon="7.04847">
        <ele>1961.1999511719</ele>
        <time>2018-05-09T07:32:55.000Z</time>
      </trkpt>
      <trkpt lat="44.24485" lon="7.04847">
        <ele>1961.4000244141</ele>
        <time>2018-05-09T07:32:56.000Z</time>
      </trkpt>
      <trkpt lat="44.24486" lon="7.04847">
        <ele>1961.4000244141</ele>
        <time>2018-05-09T07:32:57.000Z</time>
      </trkpt>
      <trkpt lat="44.24488" lon="7.04846">
        <ele>1961.5999755859</ele>
        <time>2018-05-09T07:32:59.000Z</time>
      </trkpt>
      <trkpt lat="44.24486" lon="7.04851">
        <ele>1961.5999755859</ele>
        <time>2018-05-09T07:33:03.000Z</time>
      </trkpt>
      <trkpt lat="44.24486" lon="7.04851">
        <ele>1961.4000244141</ele>
        <time>2018-05-09T07:33:04.000Z</time>
      </trkpt>
      <trkpt lat="44.24493" lon="7.04848">
        <ele>1961.1999511719</ele>
        <time>2018-05-09T07:33:06.000Z</time>
      </trkpt>
      <trkpt lat="44.24494" lon="7.04848">
        <ele>1961.1999511719</ele>
        <time>2018-05-09T07:33:09.000Z</time>
      </trkpt>
      <trkpt lat="44.24499" lon="7.04846">
        <ele>1961.5999755859</ele>
        <time>2018-05-09T07:33:12.000Z</time>
      </trkpt>
      <trkpt lat="44.24503" lon="7.04844">
        <ele>1961.8000488281</ele>
        <time>2018-05-09T07:33:14.000Z</time>
      </trkpt>
      <trkpt lat="44.24508" lon="7.04843">
        <ele>1962</ele>
        <time>2018-05-09T07:33:18.000Z</time>
      </trkpt>
      <trkpt lat="44.24508" lon="7.04844">
        <ele>1962</ele>
        <time>2018-05-09T07:33:20.000Z</time>
      </trkpt>
      <trkpt lat="44.24522" lon="7.04836">
        <ele>1962</ele>
        <time>2018-05-09T07:33:21.000Z</time>
      </trkpt>
      <trkpt lat="44.24523" lon="7.04836">
        <ele>1962</ele>
        <time>2018-05-09T07:33:22.000Z</time>
      </trkpt>
      <trkpt lat="44.24532" lon="7.04832">
        <ele>1961.5999755859</ele>
        <time>2018-05-09T07:33:27.000Z</time>
      </trkpt>
      <trkpt lat="44.24532" lon="7.04835">
        <ele>1961.5999755859</ele>
        <time>2018-05-09T07:33:31.000Z</time>
      </trkpt>
      <trkpt lat="44.24534" lon="7.04836">
        <ele>1961.4000244141</ele>
        <time>2018-05-09T07:33:32.000Z</time>
      </trkpt>
      <trkpt lat="44.24531" lon="7.04836">
        <ele>1961.5999755859</ele>
        <time>2018-05-09T07:33:40.000Z</time>
      </trkpt>
      <trkpt lat="44.24529" lon="7.04836">
        <ele>1961.8000488281</ele>
        <time>2018-05-09T07:33:43.000Z</time>
      </trkpt>
      <trkpt lat="44.24529" lon="7.04838">
        <ele>1961.5999755859</ele>
        <time>2018-05-09T07:33:47.000Z</time>
      </trkpt>
      <trkpt lat="44.2453" lon="7.04838">
        <ele>1961.5999755859</ele>
        <time>2018-05-09T07:33:48.000Z</time>
      </trkpt>
      <trkpt lat="44.24531" lon="7.04838">
        <ele>1961.4000244141</ele>
        <time>2018-05-09T07:33:49.000Z</time>
      </trkpt>
      <trkpt lat="44.24536" lon="7.04837">
        <ele>1961.1999511719</ele>
        <time>2018-05-09T07:33:53.000Z</time>
      </trkpt>
      <trkpt lat="44.24535" lon="7.0484">
        <ele>1961.1999511719</ele>
        <time>2018-05-09T07:33:56.000Z</time>
      </trkpt>
      <trkpt lat="44.24531" lon="7.0484">
        <ele>1961.8000488281</ele>
        <time>2018-05-09T07:34:01.000Z</time>
      </trkpt>
      <trkpt lat="44.2453" lon="7.0484">
        <ele>1961.8000488281</ele>
        <time>2018-05-09T07:34:02.000Z</time>
      </trkpt>
      <trkpt lat="44.24529" lon="7.04841">
        <ele>1961.8000488281</ele>
        <time>2018-05-09T07:34:03.000Z</time>
      </trkpt>
      <trkpt lat="44.24528" lon="7.04842">
        <ele>1961.5999755859</ele>
        <time>2018-05-09T07:34:04.000Z</time>
      </trkpt>
      <trkpt lat="44.24525" lon="7.04842">
        <ele>1961.5999755859</ele>
        <time>2018-05-09T07:34:07.000Z</time>
      </trkpt>
      <trkpt lat="44.24511" lon="7.04851">
        <ele>1961.4000244141</ele>
        <time>2018-05-09T07:34:09.000Z</time>
      </trkpt>
      <trkpt lat="44.24501" lon="7.04853">
        <ele>1961.4000244141</ele>
        <time>2018-05-09T07:34:12.000Z</time>
      </trkpt>
      <trkpt lat="44.24488" lon="7.04853">
        <ele>1961.1999511719</ele>
        <time>2018-05-09T07:34:14.000Z</time>
      </trkpt>
      <trkpt lat="44.24488" lon="7.04851">
        <ele>1961</ele>
        <time>2018-05-09T07:34:15.000Z</time>
      </trkpt>
      <trkpt lat="44.24505" lon="7.04844">
        <ele>1960.8000488281</ele>
        <time>2018-05-09T07:34:20.000Z</time>
      </trkpt>
      <trkpt lat="44.24507" lon="7.04842">
        <ele>1960.8000488281</ele>
        <time>2018-05-09T07:34:22.000Z</time>
      </trkpt>
      <trkpt lat="44.24506" lon="7.04843">
        <ele>1961</ele>
        <time>2018-05-09T07:34:24.000Z</time>
      </trkpt>
      <trkpt lat="44.24504" lon="7.04843">
        <ele>1961.4000244141</ele>
        <time>2018-05-09T07:34:27.000Z</time>
      </trkpt>
      <trkpt lat="44.24503" lon="7.04843">
        <ele>1961.8000488281</ele>
        <time>2018-05-09T07:34:28.000Z</time>
      </trkpt>
      <trkpt lat="44.24502" lon="7.04843">
        <ele>1962</ele>
        <time>2018-05-09T07:34:29.000Z</time>
      </trkpt>
      <trkpt lat="44.245" lon="7.04844">
        <ele>1962.5999755859</ele>
        <time>2018-05-09T07:34:32.000Z</time>
      </trkpt>
      <trkpt lat="44.24496" lon="7.04846">
        <ele>1962.8000488281</ele>
        <time>2018-05-09T07:34:35.000Z</time>
      </trkpt>
      <trkpt lat="44.24495" lon="7.04847">
        <ele>1963</ele>
        <time>2018-05-09T07:34:36.000Z</time>
      </trkpt>
      <trkpt lat="44.24491" lon="7.04847">
        <ele>1964</ele>
        <time>2018-05-09T07:34:39.000Z</time>
      </trkpt>
      <trkpt lat="44.24486" lon="7.04849">
        <ele>1964.5999755859</ele>
        <time>2018-05-09T07:34:42.000Z</time>
      </trkpt>
      <trkpt lat="44.24484" lon="7.04849">
        <ele>1965</ele>
        <time>2018-05-09T07:34:44.000Z</time>
      </trkpt>
      <trkpt lat="44.24484" lon="7.04849">
        <ele>1965.4000244141</ele>
        <time>2018-05-09T07:34:45.000Z</time>
      </trkpt>
      <trkpt lat="44.24484" lon="7.04849">
        <ele>1965.8000488281</ele>
        <time>2018-05-09T07:34:47.000Z</time>
      </trkpt>
      <trkpt lat="44.24484" lon="7.04848">
        <ele>1966.1999511719</ele>
        <time>2018-05-09T07:34:49.000Z</time>
      </trkpt>
      <trkpt lat="44.24483" lon="7.04849">
        <ele>1966.1999511719</ele>
        <time>2018-05-09T07:34:51.000Z</time>
      </trkpt>
      <trkpt lat="44.24483" lon="7.04848">
        <ele>1966.5999755859</ele>
        <time>2018-05-09T07:34:54.000Z</time>
      </trkpt>
      <trkpt lat="44.24484" lon="7.04848">
        <ele>1967.1999511719</ele>
        <time>2018-05-09T07:34:57.000Z</time>
      </trkpt>
      <trkpt lat="44.24484" lon="7.04848">
        <ele>1967.4000244141</ele>
        <time>2018-05-09T07:34:58.000Z</time>
      </trkpt>
      <trkpt lat="44.24485" lon="7.04847">
        <ele>1968</ele>
        <time>2018-05-09T07:35:00.000Z</time>
      </trkpt>
      <trkpt lat="44.24485" lon="7.04846">
        <ele>1968.4000244141</ele>
        <time>2018-05-09T07:35:01.000Z</time>
      </trkpt>
      <trkpt lat="44.24478" lon="7.04847">
        <ele>1969.1999511719</ele>
        <time>2018-05-09T07:35:06.000Z</time>
      </trkpt>
      <trkpt lat="44.24476" lon="7.04847">
        <ele>1969.4000244141</ele>
        <time>2018-05-09T07:35:07.000Z</time>
      </trkpt>
      <trkpt lat="44.24477" lon="7.04848">
        <ele>1969.5999755859</ele>
        <time>2018-05-09T07:35:09.000Z</time>
      </trkpt>
      <trkpt lat="44.24479" lon="7.0485">
        <ele>1969.8000488281</ele>
        <time>2018-05-09T07:35:10.000Z</time>
      </trkpt>
      <trkpt lat="44.24481" lon="7.04853">
        <ele>1970.1999511719</ele>
        <time>2018-05-09T07:35:12.000Z</time>
      </trkpt>
      <trkpt lat="44.24483" lon="7.04853">
        <ele>1970.5999755859</ele>
        <time>2018-05-09T07:35:13.000Z</time>
      </trkpt>
      <trkpt lat="44.24486" lon="7.04854">
        <ele>1971.1999511719</ele>
        <time>2018-05-09T07:35:15.000Z</time>
      </trkpt>
      <trkpt lat="44.2449" lon="7.04857">
        <ele>1971.5999755859</ele>
        <time>2018-05-09T07:35:18.000Z</time>
      </trkpt>
      <trkpt lat="44.24492" lon="7.04862">
        <ele>1972.5999755859</ele>
        <time>2018-05-09T07:35:23.000Z</time>
      </trkpt>
      <trkpt lat="44.24493" lon="7.04863">
        <ele>1972.8000488281</ele>
        <time>2018-05-09T07:35:24.000Z</time>
      </trkpt>
      <trkpt lat="44.24494" lon="7.04863">
        <ele>1973</ele>
        <time>2018-05-09T07:35:25.000Z</time>
      </trkpt>
      <trkpt lat="44.24496" lon="7.04865">
        <ele>1973.4000244141</ele>
        <time>2018-05-09T07:35:27.000Z</time>
      </trkpt>
      <trkpt lat="44.24498" lon="7.04869">
        <ele>1974</ele>
        <time>2018-05-09T07:35:30.000Z</time>
      </trkpt>
      <trkpt lat="44.24497" lon="7.04872">
        <ele>1974.1999511719</ele>
        <time>2018-05-09T07:35:32.000Z</time>
      </trkpt>
      <trkpt lat="44.24496" lon="7.04877">
        <ele>1975.1999511719</ele>
        <time>2018-05-09T07:35:37.000Z</time>
      </trkpt>
      <trkpt lat="44.24495" lon="7.04878">
        <ele>1975.4000244141</ele>
        <time>2018-05-09T07:35:39.000Z</time>
      </trkpt>
      <trkpt lat="44.24495" lon="7.04881">
        <ele>1976</ele>
        <time>2018-05-09T07:35:42.000Z</time>
      </trkpt>
      <trkpt lat="44.24491" lon="7.04882">
        <ele>1976.1999511719</ele>
        <time>2018-05-09T07:35:43.000Z</time>
      </trkpt>
      <trkpt lat="44.24491" lon="7.04884">
        <ele>1976.4000244141</ele>
        <time>2018-05-09T07:35:45.000Z</time>
      </trkpt>
      <trkpt lat="44.24493" lon="7.04887">
        <ele>1977.1999511719</ele>
        <time>2018-05-09T07:35:51.000Z</time>
      </trkpt>
      <trkpt lat="44.24492" lon="7.04887">
        <ele>1977.4000244141</ele>
        <time>2018-05-09T07:35:52.000Z</time>
      </trkpt>
      <trkpt lat="44.24492" lon="7.04888">
        <ele>1977.8000488281</ele>
        <time>2018-05-09T07:35:55.000Z</time>
      </trkpt>
      <trkpt lat="44.24493" lon="7.04888">
        <ele>1978</ele>
        <time>2018-05-09T07:35:57.000Z</time>
      </trkpt>
      <trkpt lat="44.24487" lon="7.04883">
        <ele>1978.1999511719</ele>
        <time>2018-05-09T07:36:10.000Z</time>
      </trkpt>
      <trkpt lat="44.24484" lon="7.04883">
        <ele>1978.5999755859</ele>
        <time>2018-05-09T07:36:12.000Z</time>
      </trkpt>
      <trkpt lat="44.24482" lon="7.04883">
        <ele>1979.1999511719</ele>
        <time>2018-05-09T07:36:15.000Z</time>
      </trkpt>
      <trkpt lat="44.2448" lon="7.04883">
        <ele>1979.5999755859</ele>
        <time>2018-05-09T07:36:17.000Z</time>
      </trkpt>
      <trkpt lat="44.24476" lon="7.04885">
        <ele>1979.8000488281</ele>
        <time>2018-05-09T07:36:18.000Z</time>
      </trkpt>
      <trkpt lat="44.24471" lon="7.04884">
        <ele>1980.8000488281</ele>
        <time>2018-05-09T07:36:24.000Z</time>
      </trkpt>
      <trkpt lat="44.24468" lon="7.0488">
        <ele>1982</ele>
        <time>2018-05-09T07:36:32.000Z</time>
      </trkpt>
      <trkpt lat="44.24469" lon="7.0488">
        <ele>1982.1999511719</ele>
        <time>2018-05-09T07:36:33.000Z</time>
      </trkpt>
      <trkpt lat="44.24468" lon="7.0488">
        <ele>1982.8000488281</ele>
        <time>2018-05-09T07:36:37.000Z</time>
      </trkpt>
      <trkpt lat="44.24467" lon="7.0488">
        <ele>1983</ele>
        <time>2018-05-09T07:36:38.000Z</time>
      </trkpt>
      <trkpt lat="44.24464" lon="7.04881">
        <ele>1984.1999511719</ele>
        <time>2018-05-09T07:36:44.000Z</time>
      </trkpt>
      <trkpt lat="44.24461" lon="7.04883">
        <ele>1985.1999511719</ele>
        <time>2018-05-09T07:36:50.000Z</time>
      </trkpt>
      <trkpt lat="44.24458" lon="7.04886">
        <ele>1986.1999511719</ele>
        <time>2018-05-09T07:36:56.000Z</time>
      </trkpt>
      <trkpt lat="44.24453" lon="7.04886">
        <ele>1987.1999511719</ele>
        <time>2018-05-09T07:37:05.000Z</time>
      </trkpt>
      <trkpt lat="44.24445" lon="7.04883">
        <ele>1988.5999755859</ele>
        <time>2018-05-09T07:37:12.000Z</time>
      </trkpt>
      <trkpt lat="44.24445" lon="7.04877">
        <ele>1989.5999755859</ele>
        <time>2018-05-09T07:37:18.000Z</time>
      </trkpt>
      <trkpt lat="44.24445" lon="7.04874">
        <ele>1990.1999511719</ele>
        <time>2018-05-09T07:37:21.000Z</time>
      </trkpt>
      <trkpt lat="44.24444" lon="7.04871">
        <ele>1990.4000244141</ele>
        <time>2018-05-09T07:37:24.000Z</time>
      </trkpt>
      <trkpt lat="44.24442" lon="7.04869">
        <ele>1990.8000488281</ele>
        <time>2018-05-09T07:37:26.000Z</time>
      </trkpt>
      <trkpt lat="44.2444" lon="7.04867">
        <ele>1991.1999511719</ele>
        <time>2018-05-09T07:37:28.000Z</time>
      </trkpt>
      <trkpt lat="44.24441" lon="7.04865">
        <ele>1991.5999755859</ele>
        <time>2018-05-09T07:37:30.000Z</time>
      </trkpt>
      <trkpt lat="44.24441" lon="7.04865">
        <ele>1991.8000488281</ele>
        <time>2018-05-09T07:37:31.000Z</time>
      </trkpt>
      <trkpt lat="44.24438" lon="7.04861">
        <ele>1993</ele>
        <time>2018-05-09T07:37:36.000Z</time>
      </trkpt>
      <trkpt lat="44.24437" lon="7.0486">
        <ele>1994</ele>
        <time>2018-05-09T07:37:41.000Z</time>
      </trkpt>
      <trkpt lat="44.24439" lon="7.04865">
        <ele>1995</ele>
        <time>2018-05-09T07:38:00.000Z</time>
      </trkpt>
      <trkpt lat="44.24433" lon="7.0487">
        <ele>1995.8000488281</ele>
        <time>2018-05-09T07:38:05.000Z</time>
      </trkpt>
      <trkpt lat="44.24431" lon="7.04872">
        <ele>1996</ele>
        <time>2018-05-09T07:38:07.000Z</time>
      </trkpt>
      <trkpt lat="44.24431" lon="7.04873">
        <ele>1996.1999511719</ele>
        <time>2018-05-09T07:38:08.000Z</time>
      </trkpt>
      <trkpt lat="44.2442" lon="7.04886">
        <ele>1997.1999511719</ele>
        <time>2018-05-09T07:38:20.000Z</time>
      </trkpt>
      <trkpt lat="44.24414" lon="7.04891">
        <ele>1998.4000244141</ele>
        <time>2018-05-09T07:38:25.000Z</time>
      </trkpt>
      <trkpt lat="44.24411" lon="7.04895">
        <ele>1999.4000244141</ele>
        <time>2018-05-09T07:38:31.000Z</time>
      </trkpt>
      <trkpt lat="44.24414" lon="7.04899">
        <ele>2000.5999755859</ele>
        <time>2018-05-09T07:38:39.000Z</time>
      </trkpt>
      <trkpt lat="44.244" lon="7.04903">
        <ele>2001.1999511719</ele>
        <time>2018-05-09T07:38:45.000Z</time>
      </trkpt>
      <trkpt lat="44.24403" lon="7.04907">
        <ele>2001.4000244141</ele>
        <time>2018-05-09T07:38:50.000Z</time>
      </trkpt>
      <trkpt lat="44.24404" lon="7.04908">
        <ele>2001.5999755859</ele>
        <time>2018-05-09T07:38:51.000Z</time>
      </trkpt>
      <trkpt lat="44.24407" lon="7.04907">
        <ele>2002.4000244141</ele>
        <time>2018-05-09T07:38:56.000Z</time>
      </trkpt>
      <trkpt lat="44.24408" lon="7.04907">
        <ele>2002.5999755859</ele>
        <time>2018-05-09T07:38:58.000Z</time>
      </trkpt>
      <trkpt lat="44.24398" lon="7.04908">
        <ele>2003.4000244141</ele>
        <time>2018-05-09T07:39:04.000Z</time>
      </trkpt>
      <trkpt lat="44.24398" lon="7.04909">
        <ele>2003.8000488281</ele>
        <time>2018-05-09T07:39:05.000Z</time>
      </trkpt>
      <trkpt lat="44.24398" lon="7.04908">
        <ele>2004.1999511719</ele>
        <time>2018-05-09T07:39:06.000Z</time>
      </trkpt>
      <trkpt lat="44.24398" lon="7.04906">
        <ele>2004.8000488281</ele>
        <time>2018-05-09T07:39:10.000Z</time>
      </trkpt>
      <trkpt lat="44.24397" lon="7.04905">
        <ele>2004.8000488281</ele>
        <time>2018-05-09T07:39:11.000Z</time>
      </trkpt>
      <trkpt lat="44.24398" lon="7.04901">
        <ele>2006</ele>
        <time>2018-05-09T07:39:17.000Z</time>
      </trkpt>
      <trkpt lat="44.24399" lon="7.04899">
        <ele>2007</ele>
        <time>2018-05-09T07:39:24.000Z</time>
      </trkpt>
      <trkpt lat="44.24417" lon="7.04891">
        <ele>2007.1999511719</ele>
        <time>2018-05-09T07:39:34.000Z</time>
      </trkpt>
      <trkpt lat="44.24426" lon="7.04892">
        <ele>2007.1999511719</ele>
        <time>2018-05-09T07:39:38.000Z</time>
      </trkpt>
      <trkpt lat="44.24423" lon="7.04891">
        <ele>2007.1999511719</ele>
        <time>2018-05-09T07:39:40.000Z</time>
      </trkpt>
      <trkpt lat="44.24419" lon="7.04895">
        <ele>2007.1999511719</ele>
        <time>2018-05-09T07:39:43.000Z</time>
      </trkpt>
      <trkpt lat="44.24418" lon="7.04899">
        <ele>2007.1999511719</ele>
        <time>2018-05-09T07:39:46.000Z</time>
      </trkpt>
      <trkpt lat="44.24409" lon="7.04898">
        <ele>2007.1999511719</ele>
        <time>2018-05-09T07:39:52.000Z</time>
      </trkpt>
      <trkpt lat="44.24409" lon="7.04896">
        <ele>2007</ele>
        <time>2018-05-09T07:39:54.000Z</time>
      </trkpt>
      <trkpt lat="44.24409" lon="7.04896">
        <ele>2007</ele>
        <time>2018-05-09T07:39:55.000Z</time>
      </trkpt>
      <trkpt lat="44.24408" lon="7.04895">
        <ele>2007.1999511719</ele>
        <time>2018-05-09T07:39:56.000Z</time>
      </trkpt>
      <trkpt lat="44.24407" lon="7.04893">
        <ele>2007.5999755859</ele>
        <time>2018-05-09T07:39:58.000Z</time>
      </trkpt>
      <trkpt lat="44.24404" lon="7.0489">
        <ele>2008.1999511719</ele>
        <time>2018-05-09T07:40:01.000Z</time>
      </trkpt>
      <trkpt lat="44.244" lon="7.04885">
        <ele>2009.1999511719</ele>
        <time>2018-05-09T07:40:05.000Z</time>
      </trkpt>
      <trkpt lat="44.244" lon="7.04884">
        <ele>2009.5999755859</ele>
        <time>2018-05-09T07:40:07.000Z</time>
      </trkpt>
      <trkpt lat="44.24398" lon="7.0488">
        <ele>2010.1999511719</ele>
        <time>2018-05-09T07:40:12.000Z</time>
      </trkpt>
      <trkpt lat="44.24399" lon="7.0488">
        <ele>2010.4000244141</ele>
        <time>2018-05-09T07:40:13.000Z</time>
      </trkpt>
      <trkpt lat="44.24398" lon="7.04879">
        <ele>2011</ele>
        <time>2018-05-09T07:40:15.000Z</time>
      </trkpt>
      <trkpt lat="44.24397" lon="7.04879">
        <ele>2011.4000244141</ele>
        <time>2018-05-09T07:40:17.000Z</time>
      </trkpt>
      <trkpt lat="44.24396" lon="7.04879">
        <ele>2011.5999755859</ele>
        <time>2018-05-09T07:40:18.000Z</time>
      </trkpt>
      <trkpt lat="44.24406" lon="7.04875">
        <ele>2012.1999511719</ele>
        <time>2018-05-09T07:40:22.000Z</time>
      </trkpt>
      <trkpt lat="44.24405" lon="7.04884">
        <ele>2012.8000488281</ele>
        <time>2018-05-09T07:40:25.000Z</time>
      </trkpt>
      <trkpt lat="44.24404" lon="7.04886">
        <ele>2012.8000488281</ele>
        <time>2018-05-09T07:40:26.000Z</time>
      </trkpt>
      <trkpt lat="44.24404" lon="7.04888">
        <ele>2013</ele>
        <time>2018-05-09T07:40:27.000Z</time>
      </trkpt>
      <trkpt lat="44.24404" lon="7.0489">
        <ele>2013.4000244141</ele>
        <time>2018-05-09T07:40:29.000Z</time>
      </trkpt>
      <trkpt lat="44.24408" lon="7.04892">
        <ele>2013.8000488281</ele>
        <time>2018-05-09T07:40:31.000Z</time>
      </trkpt>
      <trkpt lat="44.24402" lon="7.04903">
        <ele>2014.1999511719</ele>
        <time>2018-05-09T07:40:40.000Z</time>
      </trkpt>
      <trkpt lat="44.24402" lon="7.04904">
        <ele>2014.4000244141</ele>
        <time>2018-05-09T07:40:41.000Z</time>
      </trkpt>
      <trkpt lat="44.24403" lon="7.04904">
        <ele>2014.8000488281</ele>
        <time>2018-05-09T07:40:43.000Z</time>
      </trkpt>
      <trkpt lat="44.24403" lon="7.04903">
        <ele>2015.1999511719</ele>
        <time>2018-05-09T07:40:44.000Z</time>
      </trkpt>
      <trkpt lat="44.24401" lon="7.04903">
        <ele>2015.8000488281</ele>
        <time>2018-05-09T07:40:48.000Z</time>
      </trkpt>
      <trkpt lat="44.24397" lon="7.04902">
        <ele>2016.4000244141</ele>
        <time>2018-05-09T07:40:54.000Z</time>
      </trkpt>
      <trkpt lat="44.24395" lon="7.04905">
        <ele>2017</ele>
        <time>2018-05-09T07:40:58.000Z</time>
      </trkpt>
      <trkpt lat="44.24392" lon="7.04907">
        <ele>2017.8000488281</ele>
        <time>2018-05-09T07:41:01.000Z</time>
      </trkpt>
      <trkpt lat="44.24391" lon="7.04909">
        <ele>2018.1999511719</ele>
        <time>2018-05-09T07:41:03.000Z</time>
      </trkpt>
      <trkpt lat="44.24397" lon="7.04911">
        <ele>2019.1999511719</ele>
        <time>2018-05-09T07:41:10.000Z</time>
      </trkpt>
      <trkpt lat="44.24395" lon="7.04914">
        <ele>2019.5999755859</ele>
        <time>2018-05-09T07:41:13.000Z</time>
      </trkpt>
      <trkpt lat="44.24394" lon="7.04918">
        <ele>2020.4000244141</ele>
        <time>2018-05-09T07:41:17.000Z</time>
      </trkpt>
      <trkpt lat="44.24383" lon="7.04916">
        <ele>2021.4000244141</ele>
        <time>2018-05-09T07:41:37.000Z</time>
      </trkpt>
      <trkpt lat="44.24377" lon="7.04913">
        <ele>2022.5999755859</ele>
        <time>2018-05-09T07:41:44.000Z</time>
      </trkpt>
      <trkpt lat="44.24374" lon="7.04911">
        <ele>2023.5999755859</ele>
        <time>2018-05-09T07:41:49.000Z</time>
      </trkpt>
      <trkpt lat="44.24372" lon="7.04908">
        <ele>2024.8000488281</ele>
        <time>2018-05-09T07:41:55.000Z</time>
      </trkpt>
      <trkpt lat="44.24367" lon="7.04905">
        <ele>2025.8000488281</ele>
        <time>2018-05-09T07:42:02.000Z</time>
      </trkpt>
      <trkpt lat="44.24364" lon="7.04903">
        <ele>2026.8000488281</ele>
        <time>2018-05-09T07:42:07.000Z</time>
      </trkpt>
      <trkpt lat="44.24365" lon="7.04906">
        <ele>2028</ele>
        <time>2018-05-09T07:42:14.000Z</time>
      </trkpt>
      <trkpt lat="44.24364" lon="7.04914">
        <ele>2029</ele>
        <time>2018-05-09T07:42:21.000Z</time>
      </trkpt>
      <trkpt lat="44.24367" lon="7.04918">
        <ele>2030.1999511719</ele>
        <time>2018-05-09T07:42:27.000Z</time>
      </trkpt>
      <trkpt lat="44.24365" lon="7.04923">
        <ele>2030.5999755859</ele>
        <time>2018-05-09T07:42:44.000Z</time>
      </trkpt>
      <trkpt lat="44.24364" lon="7.04928">
        <ele>2030.8000488281</ele>
        <time>2018-05-09T07:42:48.000Z</time>
      </trkpt>
      <trkpt lat="44.24364" lon="7.04929">
        <ele>2031.1999511719</ele>
        <time>2018-05-09T07:42:50.000Z</time>
      </trkpt>
      <trkpt lat="44.24364" lon="7.0493">
        <ele>2031.4000244141</ele>
        <time>2018-05-09T07:42:51.000Z</time>
      </trkpt>
      <trkpt lat="44.24365" lon="7.04931">
        <ele>2031.5999755859</ele>
        <time>2018-05-09T07:42:52.000Z</time>
      </trkpt>
      <trkpt lat="44.24365" lon="7.04932">
        <ele>2031.8000488281</ele>
        <time>2018-05-09T07:42:53.000Z</time>
      </trkpt>
      <trkpt lat="44.24365" lon="7.04937">
        <ele>2032.4000244141</ele>
        <time>2018-05-09T07:42:58.000Z</time>
      </trkpt>
      <trkpt lat="44.24368" lon="7.04938">
        <ele>2032.8000488281</ele>
        <time>2018-05-09T07:43:00.000Z</time>
      </trkpt>
      <trkpt lat="44.2437" lon="7.04938">
        <ele>2033.1999511719</ele>
        <time>2018-05-09T07:43:02.000Z</time>
      </trkpt>
      <trkpt lat="44.24372" lon="7.0494">
        <ele>2033.5999755859</ele>
        <time>2018-05-09T07:43:05.000Z</time>
      </trkpt>
      <trkpt lat="44.24373" lon="7.0494">
        <ele>2033.8000488281</ele>
        <time>2018-05-09T07:43:06.000Z</time>
      </trkpt>
      <trkpt lat="44.24371" lon="7.04943">
        <ele>2034.5999755859</ele>
        <time>2018-05-09T07:43:11.000Z</time>
      </trkpt>
      <trkpt lat="44.24366" lon="7.04944">
        <ele>2034.8000488281</ele>
        <time>2018-05-09T07:43:16.000Z</time>
      </trkpt>
      <trkpt lat="44.24367" lon="7.04944">
        <ele>2034.8000488281</ele>
        <time>2018-05-09T07:43:21.000Z</time>
      </trkpt>
      <trkpt lat="44.24362" lon="7.04939">
        <ele>2035.5999755859</ele>
        <time>2018-05-09T07:43:32.000Z</time>
      </trkpt>
      <trkpt lat="44.24361" lon="7.04939">
        <ele>2035.8000488281</ele>
        <time>2018-05-09T07:43:33.000Z</time>
      </trkpt>
      <trkpt lat="44.24356" lon="7.04938">
        <ele>2036.5999755859</ele>
        <time>2018-05-09T07:43:38.000Z</time>
      </trkpt>
      <trkpt lat="44.24355" lon="7.04938">
        <ele>2036.8000488281</ele>
        <time>2018-05-09T07:43:40.000Z</time>
      </trkpt>
      <trkpt lat="44.24352" lon="7.04936">
        <ele>2038</ele>
        <time>2018-05-09T07:43:46.000Z</time>
      </trkpt>
      <trkpt lat="44.24355" lon="7.04934">
        <ele>2038.1999511719</ele>
        <time>2018-05-09T07:43:58.000Z</time>
      </trkpt>
      <trkpt lat="44.24353" lon="7.04933">
        <ele>2038.4000244141</ele>
        <time>2018-05-09T07:44:01.000Z</time>
      </trkpt>
      <trkpt lat="44.24352" lon="7.04932">
        <ele>2038.4000244141</ele>
        <time>2018-05-09T07:44:02.000Z</time>
      </trkpt>
      <trkpt lat="44.24351" lon="7.04932">
        <ele>2038.8000488281</ele>
        <time>2018-05-09T07:44:05.000Z</time>
      </trkpt>
      <trkpt lat="44.24349" lon="7.04931">
        <ele>2039</ele>
        <time>2018-05-09T07:44:07.000Z</time>
      </trkpt>
      <trkpt lat="44.24345" lon="7.04931">
        <ele>2040</ele>
        <time>2018-05-09T07:44:13.000Z</time>
      </trkpt>
      <trkpt lat="44.24344" lon="7.0493">
        <ele>2040.1999511719</ele>
        <time>2018-05-09T07:44:14.000Z</time>
      </trkpt>
      <trkpt lat="44.24338" lon="7.04931">
        <ele>2041.1999511719</ele>
        <time>2018-05-09T07:44:21.000Z</time>
      </trkpt>
      <trkpt lat="44.24337" lon="7.04928">
        <ele>2042</ele>
        <time>2018-05-09T07:44:25.000Z</time>
      </trkpt>
      <trkpt lat="44.24337" lon="7.04929">
        <ele>2042.1999511719</ele>
        <time>2018-05-09T07:44:27.000Z</time>
      </trkpt>
      <trkpt lat="44.24336" lon="7.0493">
        <ele>2043.1999511719</ele>
        <time>2018-05-09T07:44:35.000Z</time>
      </trkpt>
      <trkpt lat="44.24337" lon="7.04938">
        <ele>2043.8000488281</ele>
        <time>2018-05-09T07:44:46.000Z</time>
      </trkpt>
      <trkpt lat="44.24338" lon="7.0494">
        <ele>2044</ele>
        <time>2018-05-09T07:44:48.000Z</time>
      </trkpt>
      <trkpt lat="44.2434" lon="7.04941">
        <ele>2044.4000244141</ele>
        <time>2018-05-09T07:44:50.000Z</time>
      </trkpt>
      <trkpt lat="44.24342" lon="7.04945">
        <ele>2045.4000244141</ele>
        <time>2018-05-09T07:44:57.000Z</time>
      </trkpt>
      <trkpt lat="44.24343" lon="7.04951">
        <ele>2046.4000244141</ele>
        <time>2018-05-09T07:45:06.000Z</time>
      </trkpt>
      <trkpt lat="44.24342" lon="7.04958">
        <ele>2047.4000244141</ele>
        <time>2018-05-09T07:45:12.000Z</time>
      </trkpt>
      <trkpt lat="44.24345" lon="7.04959">
        <ele>2048.6000976562</ele>
        <time>2018-05-09T07:45:20.000Z</time>
      </trkpt>
      <trkpt lat="44.24335" lon="7.04971">
        <ele>2048.6000976562</ele>
        <time>2018-05-09T07:45:33.000Z</time>
      </trkpt>
      <trkpt lat="44.24336" lon="7.04972">
        <ele>2049.1999511719</ele>
        <time>2018-05-09T07:45:36.000Z</time>
      </trkpt>
      <trkpt lat="44.24339" lon="7.04972">
        <ele>2049.6000976562</ele>
        <time>2018-05-09T07:45:38.000Z</time>
      </trkpt>
      <trkpt lat="44.24342" lon="7.04976">
        <ele>2050.8000488281</ele>
        <time>2018-05-09T07:45:48.000Z</time>
      </trkpt>
      <trkpt lat="44.24342" lon="7.04972">
        <ele>2050.8000488281</ele>
        <time>2018-05-09T07:45:54.000Z</time>
      </trkpt>
      <trkpt lat="44.24339" lon="7.04969">
        <ele>2051.6000976562</ele>
        <time>2018-05-09T07:46:04.000Z</time>
      </trkpt>
      <trkpt lat="44.2434" lon="7.04968">
        <ele>2051.8000488281</ele>
        <time>2018-05-09T07:46:05.000Z</time>
      </trkpt>
      <trkpt lat="44.24336" lon="7.04968">
        <ele>2052.3999023438</ele>
        <time>2018-05-09T07:46:13.000Z</time>
      </trkpt>
      <trkpt lat="44.24333" lon="7.04969">
        <ele>2052.8000488281</ele>
        <time>2018-05-09T07:46:17.000Z</time>
      </trkpt>
      <trkpt lat="44.24326" lon="7.04966">
        <ele>2053.8000488281</ele>
        <time>2018-05-09T07:46:32.000Z</time>
      </trkpt>
      <trkpt lat="44.24321" lon="7.04963">
        <ele>2055</ele>
        <time>2018-05-09T07:46:38.000Z</time>
      </trkpt>
      <trkpt lat="44.2432" lon="7.0496">
        <ele>2055.6000976562</ele>
        <time>2018-05-09T07:46:42.000Z</time>
      </trkpt>
      <trkpt lat="44.2432" lon="7.04958">
        <ele>2056</ele>
        <time>2018-05-09T07:46:45.000Z</time>
      </trkpt>
      <trkpt lat="44.24317" lon="7.04956">
        <ele>2056.8000488281</ele>
        <time>2018-05-09T07:46:49.000Z</time>
      </trkpt>
      <trkpt lat="44.24316" lon="7.04956">
        <ele>2057</ele>
        <time>2018-05-09T07:46:50.000Z</time>
      </trkpt>
      <trkpt lat="44.24316" lon="7.04955">
        <ele>2057.3999023438</ele>
        <time>2018-05-09T07:46:53.000Z</time>
      </trkpt>
      <trkpt lat="44.24315" lon="7.04955">
        <ele>2057.6000976562</ele>
        <time>2018-05-09T07:46:54.000Z</time>
      </trkpt>
      <trkpt lat="44.24314" lon="7.04954">
        <ele>2058.1999511719</ele>
        <time>2018-05-09T07:46:59.000Z</time>
      </trkpt>
      <trkpt lat="44.24314" lon="7.04954">
        <ele>2058.6000976562</ele>
        <time>2018-05-09T07:47:02.000Z</time>
      </trkpt>
      <trkpt lat="44.24315" lon="7.04954">
        <ele>2059.1999511719</ele>
        <time>2018-05-09T07:47:09.000Z</time>
      </trkpt>
      <trkpt lat="44.24317" lon="7.04955">
        <ele>2059.8000488281</ele>
        <time>2018-05-09T07:47:16.000Z</time>
      </trkpt>
      <trkpt lat="44.24315" lon="7.0496">
        <ele>2060.3999023438</ele>
        <time>2018-05-09T07:47:21.000Z</time>
      </trkpt>
      <trkpt lat="44.24315" lon="7.04961">
        <ele>2060.3999023438</ele>
        <time>2018-05-09T07:47:23.000Z</time>
      </trkpt>
      <trkpt lat="44.24313" lon="7.04969">
        <ele>2061.3999023438</ele>
        <time>2018-05-09T07:47:31.000Z</time>
      </trkpt>
      <trkpt lat="44.24308" lon="7.04981">
        <ele>2062.3999023438</ele>
        <time>2018-05-09T07:47:39.000Z</time>
      </trkpt>
      <trkpt lat="44.24306" lon="7.04984">
        <ele>2062.6000976562</ele>
        <time>2018-05-09T07:47:41.000Z</time>
      </trkpt>
      <trkpt lat="44.24304" lon="7.04988">
        <ele>2063.1999511719</ele>
        <time>2018-05-09T07:47:46.000Z</time>
      </trkpt>
      <trkpt lat="44.24304" lon="7.0499">
        <ele>2063.6000976562</ele>
        <time>2018-05-09T07:47:49.000Z</time>
      </trkpt>
      <trkpt lat="44.24307" lon="7.0499">
        <ele>2064</ele>
        <time>2018-05-09T07:47:52.000Z</time>
      </trkpt>
      <trkpt lat="44.24309" lon="7.04992">
        <ele>2064.1999511719</ele>
        <time>2018-05-09T07:47:55.000Z</time>
      </trkpt>
      <trkpt lat="44.24312" lon="7.04993">
        <ele>2064.3999023438</ele>
        <time>2018-05-09T07:47:58.000Z</time>
      </trkpt>
      <trkpt lat="44.24314" lon="7.04994">
        <ele>2064.8000488281</ele>
        <time>2018-05-09T07:48:00.000Z</time>
      </trkpt>
      <trkpt lat="44.24316" lon="7.04995">
        <ele>2065.1999511719</ele>
        <time>2018-05-09T07:48:02.000Z</time>
      </trkpt>
      <trkpt lat="44.24317" lon="7.04997">
        <ele>2065.8000488281</ele>
        <time>2018-05-09T07:48:06.000Z</time>
      </trkpt>
      <trkpt lat="44.24315" lon="7.04996">
        <ele>2066.3999023438</ele>
        <time>2018-05-09T07:48:17.000Z</time>
      </trkpt>
      <trkpt lat="44.24312" lon="7.04994">
        <ele>2067</ele>
        <time>2018-05-09T07:48:24.000Z</time>
      </trkpt>
      <trkpt lat="44.24306" lon="7.04989">
        <ele>2067.6000976562</ele>
        <time>2018-05-09T07:48:30.000Z</time>
      </trkpt>
      <trkpt lat="44.24304" lon="7.04987">
        <ele>2068</ele>
        <time>2018-05-09T07:48:34.000Z</time>
      </trkpt>
      <trkpt lat="44.24301" lon="7.04982">
        <ele>2069.1999511719</ele>
        <time>2018-05-09T07:48:41.000Z</time>
      </trkpt>
      <trkpt lat="44.24299" lon="7.04978">
        <ele>2070.1999511719</ele>
        <time>2018-05-09T07:48:49.000Z</time>
      </trkpt>
      <trkpt lat="44.24298" lon="7.04978">
        <ele>2070.1999511719</ele>
        <time>2018-05-09T07:48:50.000Z</time>
      </trkpt>
      <trkpt lat="44.24293" lon="7.04977">
        <ele>2071</ele>
        <time>2018-05-09T07:48:54.000Z</time>
      </trkpt>
      <trkpt lat="44.24291" lon="7.0498">
        <ele>2071.1999511719</ele>
        <time>2018-05-09T07:48:56.000Z</time>
      </trkpt>
      <trkpt lat="44.24287" lon="7.04969">
        <ele>2071.3999023438</ele>
        <time>2018-05-09T07:49:14.000Z</time>
      </trkpt>
      <trkpt lat="44.24287" lon="7.04968">
        <ele>2071.6000976562</ele>
        <time>2018-05-09T07:49:16.000Z</time>
      </trkpt>
      <trkpt lat="44.2429" lon="7.0497">
        <ele>2072.1999511719</ele>
        <time>2018-05-09T07:49:19.000Z</time>
      </trkpt>
      <trkpt lat="44.24291" lon="7.04971">
        <ele>2072.3999023438</ele>
        <time>2018-05-09T07:49:20.000Z</time>
      </trkpt>
      <trkpt lat="44.2429" lon="7.04963">
        <ele>2073.6000976562</ele>
        <time>2018-05-09T07:49:35.000Z</time>
      </trkpt>
      <trkpt lat="44.24291" lon="7.04962">
        <ele>2073.8000488281</ele>
        <time>2018-05-09T07:49:36.000Z</time>
      </trkpt>
      <trkpt lat="44.24292" lon="7.04961">
        <ele>2074.1999511719</ele>
        <time>2018-05-09T07:49:39.000Z</time>
      </trkpt>
      <trkpt lat="44.24291" lon="7.04956">
        <ele>2074.6000976562</ele>
        <time>2018-05-09T07:49:46.000Z</time>
      </trkpt>
      <trkpt lat="44.24289" lon="7.04959">
        <ele>2075.6000976562</ele>
        <time>2018-05-09T07:49:52.000Z</time>
      </trkpt>
      <trkpt lat="44.24277" lon="7.04978">
        <ele>2076.6000976562</ele>
        <time>2018-05-09T07:50:10.000Z</time>
      </trkpt>
      <trkpt lat="44.24277" lon="7.04979">
        <ele>2076.6000976562</ele>
        <time>2018-05-09T07:50:11.000Z</time>
      </trkpt>
      <trkpt lat="44.24277" lon="7.04981">
        <ele>2077</ele>
        <time>2018-05-09T07:50:15.000Z</time>
      </trkpt>
      <trkpt lat="44.24279" lon="7.04984">
        <ele>2077.8000488281</ele>
        <time>2018-05-09T07:50:23.000Z</time>
      </trkpt>
      <trkpt lat="44.24282" lon="7.0499">
        <ele>2078.8000488281</ele>
        <time>2018-05-09T07:50:30.000Z</time>
      </trkpt>
      <trkpt lat="44.24282" lon="7.0499">
        <ele>2078.8000488281</ele>
        <time>2018-05-09T07:50:31.000Z</time>
      </trkpt>
      <trkpt lat="44.24283" lon="7.04993">
        <ele>2079.1999511719</ele>
        <time>2018-05-09T07:50:34.000Z</time>
      </trkpt>
      <trkpt lat="44.24282" lon="7.04995">
        <ele>2079.6000976562</ele>
        <time>2018-05-09T07:50:38.000Z</time>
      </trkpt>
      <trkpt lat="44.24281" lon="7.04997">
        <ele>2080</ele>
        <time>2018-05-09T07:50:43.000Z</time>
      </trkpt>
      <trkpt lat="44.24271" lon="7.05007">
        <ele>2081</ele>
        <time>2018-05-09T07:50:50.000Z</time>
      </trkpt>
      <trkpt lat="44.24271" lon="7.05009">
        <ele>2081</ele>
        <time>2018-05-09T07:50:51.000Z</time>
      </trkpt>
      <trkpt lat="44.24269" lon="7.0501">
        <ele>2081.3999023438</ele>
        <time>2018-05-09T07:50:54.000Z</time>
      </trkpt>
      <trkpt lat="44.24268" lon="7.05007">
        <ele>2082</ele>
        <time>2018-05-09T07:51:02.000Z</time>
      </trkpt>
      <trkpt lat="44.24279" lon="7.05001">
        <ele>2081.8000488281</ele>
        <time>2018-05-09T07:51:08.000Z</time>
      </trkpt>
      <trkpt lat="44.2427" lon="7.05001">
        <ele>2081.8000488281</ele>
        <time>2018-05-09T07:51:12.000Z</time>
      </trkpt>
      <trkpt lat="44.24265" lon="7.04996">
        <ele>2082.6000976562</ele>
        <time>2018-05-09T07:51:19.000Z</time>
      </trkpt>
      <trkpt lat="44.24262" lon="7.04994">
        <ele>2083</ele>
        <time>2018-05-09T07:51:21.000Z</time>
      </trkpt>
      <trkpt lat="44.24257" lon="7.0499">
        <ele>2083.6000976562</ele>
        <time>2018-05-09T07:51:24.000Z</time>
      </trkpt>
      <trkpt lat="44.24257" lon="7.04987">
        <ele>2084.1999511719</ele>
        <time>2018-05-09T07:51:27.000Z</time>
      </trkpt>
      <trkpt lat="44.24266" lon="7.04985">
        <ele>2085.1999511719</ele>
        <time>2018-05-09T07:51:34.000Z</time>
      </trkpt>
      <trkpt lat="44.2427" lon="7.04981">
        <ele>2086.1999511719</ele>
        <time>2018-05-09T07:51:41.000Z</time>
      </trkpt>
      <trkpt lat="44.24264" lon="7.04971">
        <ele>2087.1999511719</ele>
        <time>2018-05-09T07:51:49.000Z</time>
      </trkpt>
      <trkpt lat="44.2426" lon="7.04966">
        <ele>2087.8000488281</ele>
        <time>2018-05-09T07:51:59.000Z</time>
      </trkpt>
      <trkpt lat="44.2426" lon="7.04964">
        <ele>2088.3999023438</ele>
        <time>2018-05-09T07:52:03.000Z</time>
      </trkpt>
      <trkpt lat="44.2426" lon="7.04963">
        <ele>2088.3999023438</ele>
        <time>2018-05-09T07:52:04.000Z</time>
      </trkpt>
      <trkpt lat="44.24263" lon="7.04967">
        <ele>2089.3999023438</ele>
        <time>2018-05-09T07:52:14.000Z</time>
      </trkpt>
      <trkpt lat="44.24259" lon="7.04981">
        <ele>2089.8000488281</ele>
        <time>2018-05-09T07:52:22.000Z</time>
      </trkpt>
      <trkpt lat="44.24258" lon="7.04982">
        <ele>2089.8000488281</ele>
        <time>2018-05-09T07:52:23.000Z</time>
      </trkpt>
      <trkpt lat="44.24255" lon="7.04988">
        <ele>2090.1999511719</ele>
        <time>2018-05-09T07:52:27.000Z</time>
      </trkpt>
      <trkpt lat="44.24254" lon="7.04989">
        <ele>2090.3999023438</ele>
        <time>2018-05-09T07:52:29.000Z</time>
      </trkpt>
      <trkpt lat="44.24255" lon="7.0499">
        <ele>2090.6000976562</ele>
        <time>2018-05-09T07:52:30.000Z</time>
      </trkpt>
      <trkpt lat="44.24255" lon="7.04995">
        <ele>2091.3999023438</ele>
        <time>2018-05-09T07:52:37.000Z</time>
      </trkpt>
      <trkpt lat="44.24264" lon="7.04988">
        <ele>2092.3999023438</ele>
        <time>2018-05-09T07:52:48.000Z</time>
      </trkpt>
      <trkpt lat="44.24264" lon="7.04989">
        <ele>2092.6000976562</ele>
        <time>2018-05-09T07:52:50.000Z</time>
      </trkpt>
      <trkpt lat="44.24264" lon="7.04994">
        <ele>2093.1999511719</ele>
        <time>2018-05-09T07:52:56.000Z</time>
      </trkpt>
      <trkpt lat="44.24262" lon="7.04996">
        <ele>2093.6000976562</ele>
        <time>2018-05-09T07:52:58.000Z</time>
      </trkpt>
      <trkpt lat="44.24254" lon="7.04998">
        <ele>2094.8000488281</ele>
        <time>2018-05-09T07:53:05.000Z</time>
      </trkpt>
      <trkpt lat="44.24256" lon="7.05006">
        <ele>2095.8000488281</ele>
        <time>2018-05-09T07:53:13.000Z</time>
      </trkpt>
      <trkpt lat="44.2426" lon="7.05015">
        <ele>2096.8000488281</ele>
        <time>2018-05-09T07:53:22.000Z</time>
      </trkpt>
      <trkpt lat="44.24255" lon="7.05014">
        <ele>2097.8000488281</ele>
        <time>2018-05-09T07:53:36.000Z</time>
      </trkpt>
      <trkpt lat="44.24254" lon="7.05013">
        <ele>2098</ele>
        <time>2018-05-09T07:53:39.000Z</time>
      </trkpt>
      <trkpt lat="44.24241" lon="7.05015">
        <ele>2098.8000488281</ele>
        <time>2018-05-09T07:53:54.000Z</time>
      </trkpt>
      <trkpt lat="44.24241" lon="7.05005">
        <ele>2098.6000976562</ele>
        <time>2018-05-09T07:54:01.000Z</time>
      </trkpt>
      <trkpt lat="44.24243" lon="7.05005">
        <ele>2098.6000976562</ele>
        <time>2018-05-09T07:54:03.000Z</time>
      </trkpt>
      <trkpt lat="44.24243" lon="7.05004">
        <ele>2098.6000976562</ele>
        <time>2018-05-09T07:54:05.000Z</time>
      </trkpt>
      <trkpt lat="44.24246" lon="7.05007">
        <ele>2098.6000976562</ele>
        <time>2018-05-09T07:54:09.000Z</time>
      </trkpt>
      <trkpt lat="44.24248" lon="7.05006">
        <ele>2098.8000488281</ele>
        <time>2018-05-09T07:54:16.000Z</time>
      </trkpt>
      <trkpt lat="44.24247" lon="7.05004">
        <ele>2099</ele>
        <time>2018-05-09T07:54:27.000Z</time>
      </trkpt>
      <trkpt lat="44.24249" lon="7.05006">
        <ele>2100.1999511719</ele>
        <time>2018-05-09T07:54:36.000Z</time>
      </trkpt>
      <trkpt lat="44.24248" lon="7.05005">
        <ele>2101.1999511719</ele>
        <time>2018-05-09T07:54:44.000Z</time>
      </trkpt>
      <trkpt lat="44.24248" lon="7.05004">
        <ele>2101.3999023438</ele>
        <time>2018-05-09T07:54:46.000Z</time>
      </trkpt>
      <trkpt lat="44.24246" lon="7.04998">
        <ele>2102.1999511719</ele>
        <time>2018-05-09T07:54:58.000Z</time>
      </trkpt>
      <trkpt lat="44.24254" lon="7.05001">
        <ele>2102.8000488281</ele>
        <time>2018-05-09T07:55:01.000Z</time>
      </trkpt>
      <trkpt lat="44.24268" lon="7.0501">
        <ele>2103.1999511719</ele>
        <time>2018-05-09T07:55:05.000Z</time>
      </trkpt>
      <trkpt lat="44.24261" lon="7.05006">
        <ele>2104.1999511719</ele>
        <time>2018-05-09T07:55:11.000Z</time>
      </trkpt>
      <trkpt lat="44.2426" lon="7.05005">
        <ele>2104.3999023438</ele>
        <time>2018-05-09T07:55:12.000Z</time>
      </trkpt>
      <trkpt lat="44.24266" lon="7.05005">
        <ele>2105.6000976562</ele>
        <time>2018-05-09T07:55:21.000Z</time>
      </trkpt>
      <trkpt lat="44.24238" lon="7.04985">
        <ele>2106.6000976562</ele>
        <time>2018-05-09T07:55:27.000Z</time>
      </trkpt>
      <trkpt lat="44.24231" lon="7.04977">
        <ele>2107.1999511719</ele>
        <time>2018-05-09T07:55:33.000Z</time>
      </trkpt>
      <trkpt lat="44.24229" lon="7.04975">
        <ele>2108</ele>
        <time>2018-05-09T07:55:37.000Z</time>
      </trkpt>
      <trkpt lat="44.24228" lon="7.04978">
        <ele>2109</ele>
        <time>2018-05-09T07:55:44.000Z</time>
      </trkpt>
      <trkpt lat="44.2421" lon="7.04999">
        <ele>2110.1999511719</ele>
        <time>2018-05-09T07:55:59.000Z</time>
      </trkpt>
      <trkpt lat="44.24211" lon="7.05004">
        <ele>2111.1999511719</ele>
        <time>2018-05-09T07:56:06.000Z</time>
      </trkpt>
      <trkpt lat="44.24212" lon="7.05006">
        <ele>2112.3999023438</ele>
        <time>2018-05-09T07:56:14.000Z</time>
      </trkpt>
      <trkpt lat="44.24214" lon="7.05011">
        <ele>2113.3999023438</ele>
        <time>2018-05-09T07:56:20.000Z</time>
      </trkpt>
      <trkpt lat="44.24216" lon="7.05018">
        <ele>2114.3999023438</ele>
        <time>2018-05-09T07:56:26.000Z</time>
      </trkpt>
      <trkpt lat="44.24212" lon="7.05028">
        <ele>2115.6000976562</ele>
        <time>2018-05-09T07:56:33.000Z</time>
      </trkpt>
      <trkpt lat="44.24213" lon="7.05027">
        <ele>2116</ele>
        <time>2018-05-09T07:56:36.000Z</time>
      </trkpt>
      <trkpt lat="44.24211" lon="7.05019">
        <ele>2116</ele>
        <time>2018-05-09T07:56:41.000Z</time>
      </trkpt>
      <trkpt lat="44.24217" lon="7.05009">
        <ele>2116.1999511719</ele>
        <time>2018-05-09T07:56:55.000Z</time>
      </trkpt>
      <trkpt lat="44.24215" lon="7.05007">
        <ele>2116.8000488281</ele>
        <time>2018-05-09T07:56:58.000Z</time>
      </trkpt>
      <trkpt lat="44.24214" lon="7.05006">
        <ele>2117.1999511719</ele>
        <time>2018-05-09T07:57:00.000Z</time>
      </trkpt>
      <trkpt lat="44.24213" lon="7.05005">
        <ele>2117.3999023438</ele>
        <time>2018-05-09T07:57:03.000Z</time>
      </trkpt>
      <trkpt lat="44.24213" lon="7.05004">
        <ele>2118</ele>
        <time>2018-05-09T07:57:06.000Z</time>
      </trkpt>
      <trkpt lat="44.24212" lon="7.04999">
        <ele>2119</ele>
        <time>2018-05-09T07:57:12.000Z</time>
      </trkpt>
      <trkpt lat="44.24212" lon="7.04996">
        <ele>2120.1999511719</ele>
        <time>2018-05-09T07:57:19.000Z</time>
      </trkpt>
      <trkpt lat="44.24206" lon="7.0499">
        <ele>2121.3999023438</ele>
        <time>2018-05-09T07:57:28.000Z</time>
      </trkpt>
      <trkpt lat="44.24199" lon="7.04983">
        <ele>2122.3999023438</ele>
        <time>2018-05-09T07:57:35.000Z</time>
      </trkpt>
      <trkpt lat="44.24196" lon="7.04979">
        <ele>2123</ele>
        <time>2018-05-09T07:57:39.000Z</time>
      </trkpt>
      <trkpt lat="44.24194" lon="7.04977">
        <ele>2123.3999023438</ele>
        <time>2018-05-09T07:57:41.000Z</time>
      </trkpt>
      <trkpt lat="44.24196" lon="7.04975">
        <ele>2124.6000976562</ele>
        <time>2018-05-09T07:57:46.000Z</time>
      </trkpt>
      <trkpt lat="44.24192" lon="7.04972">
        <ele>2125.1999511719</ele>
        <time>2018-05-09T07:57:49.000Z</time>
      </trkpt>
      <trkpt lat="44.24191" lon="7.04972">
        <ele>2125.3999023438</ele>
        <time>2018-05-09T07:57:53.000Z</time>
      </trkpt>
      <trkpt lat="44.24187" lon="7.04971">
        <ele>2125.3999023438</ele>
        <time>2018-05-09T07:57:57.000Z</time>
      </trkpt>
      <trkpt lat="44.24189" lon="7.0497">
        <ele>2125.6000976562</ele>
        <time>2018-05-09T07:58:02.000Z</time>
      </trkpt>
      <trkpt lat="44.24188" lon="7.04968">
        <ele>2126</ele>
        <time>2018-05-09T07:58:04.000Z</time>
      </trkpt>
      <trkpt lat="44.24187" lon="7.04964">
        <ele>2126.6000976562</ele>
        <time>2018-05-09T07:58:09.000Z</time>
      </trkpt>
      <trkpt lat="44.24186" lon="7.04964">
        <ele>2126.8000488281</ele>
        <time>2018-05-09T07:58:10.000Z</time>
      </trkpt>
      <trkpt lat="44.24184" lon="7.04961">
        <ele>2127.1999511719</ele>
        <time>2018-05-09T07:58:13.000Z</time>
      </trkpt>
      <trkpt lat="44.24182" lon="7.04959">
        <ele>2127.8000488281</ele>
        <time>2018-05-09T07:58:17.000Z</time>
      </trkpt>
      <trkpt lat="44.24182" lon="7.04959">
        <ele>2128.1999511719</ele>
        <time>2018-05-09T07:58:19.000Z</time>
      </trkpt>
      <trkpt lat="44.24179" lon="7.04957">
        <ele>2128.8000488281</ele>
        <time>2018-05-09T07:58:23.000Z</time>
      </trkpt>
      <trkpt lat="44.24179" lon="7.04957">
        <ele>2129</ele>
        <time>2018-05-09T07:58:24.000Z</time>
      </trkpt>
      <trkpt lat="44.24176" lon="7.04954">
        <ele>2130</ele>
        <time>2018-05-09T07:58:33.000Z</time>
      </trkpt>
      <trkpt lat="44.24175" lon="7.04952">
        <ele>2130.6000976562</ele>
        <time>2018-05-09T07:58:39.000Z</time>
      </trkpt>
      <trkpt lat="44.24169" lon="7.04947">
        <ele>2130.8000488281</ele>
        <time>2018-05-09T07:58:50.000Z</time>
      </trkpt>
      <trkpt lat="44.24168" lon="7.04946">
        <ele>2131</ele>
        <time>2018-05-09T07:58:51.000Z</time>
      </trkpt>
      <trkpt lat="44.24168" lon="7.04945">
        <ele>2131</ele>
        <time>2018-05-09T07:58:52.000Z</time>
      </trkpt>
      <trkpt lat="44.24167" lon="7.04943">
        <ele>2131.3999023438</ele>
        <time>2018-05-09T07:58:55.000Z</time>
      </trkpt>
      <trkpt lat="44.24166" lon="7.04941">
        <ele>2132</ele>
        <time>2018-05-09T07:58:58.000Z</time>
      </trkpt>
      <trkpt lat="44.24165" lon="7.04941">
        <ele>2132.1999511719</ele>
        <time>2018-05-09T07:58:59.000Z</time>
      </trkpt>
      <trkpt lat="44.24162" lon="7.04937">
        <ele>2133.1999511719</ele>
        <time>2018-05-09T07:59:07.000Z</time>
      </trkpt>
      <trkpt lat="44.24162" lon="7.04935">
        <ele>2134.1999511719</ele>
        <time>2018-05-09T07:59:12.000Z</time>
      </trkpt>
      <trkpt lat="44.24164" lon="7.04934">
        <ele>2134.8000488281</ele>
        <time>2018-05-09T07:59:29.000Z</time>
      </trkpt>
      <trkpt lat="44.24164" lon="7.04933">
        <ele>2134.8000488281</ele>
        <time>2018-05-09T07:59:32.000Z</time>
      </trkpt>
      <trkpt lat="44.24164" lon="7.04932">
        <ele>2134.8000488281</ele>
        <time>2018-05-09T07:59:34.000Z</time>
      </trkpt>
      <trkpt lat="44.24163" lon="7.04929">
        <ele>2135</ele>
        <time>2018-05-09T07:59:39.000Z</time>
      </trkpt>
      <trkpt lat="44.24162" lon="7.04926">
        <ele>2135.1999511719</ele>
        <time>2018-05-09T07:59:42.000Z</time>
      </trkpt>
      <trkpt lat="44.24161" lon="7.04924">
        <ele>2135.8000488281</ele>
        <time>2018-05-09T07:59:45.000Z</time>
      </trkpt>
      <trkpt lat="44.24161" lon="7.04923">
        <ele>2136.3999023438</ele>
        <time>2018-05-09T07:59:49.000Z</time>
      </trkpt>
      <trkpt lat="44.24164" lon="7.04924">
        <ele>2137.3999023438</ele>
        <time>2018-05-09T07:59:57.000Z</time>
      </trkpt>
      <trkpt lat="44.24165" lon="7.04925">
        <ele>2137.3999023438</ele>
        <time>2018-05-09T07:59:59.000Z</time>
      </trkpt>
      <trkpt lat="44.24163" lon="7.04931">
        <ele>2138.6000976562</ele>
        <time>2018-05-09T08:00:11.000Z</time>
      </trkpt>
      <trkpt lat="44.24159" lon="7.04935">
        <ele>2139.1999511719</ele>
        <time>2018-05-09T08:00:15.000Z</time>
      </trkpt>
      <trkpt lat="44.24158" lon="7.04937">
        <ele>2139.6000976562</ele>
        <time>2018-05-09T08:00:17.000Z</time>
      </trkpt>
      <trkpt lat="44.24155" lon="7.04945">
        <ele>2140.8000488281</ele>
        <time>2018-05-09T08:00:26.000Z</time>
      </trkpt>
      <trkpt lat="44.24146" lon="7.04951">
        <ele>2141.8000488281</ele>
        <time>2018-05-09T08:00:33.000Z</time>
      </trkpt>
      <trkpt lat="44.24143" lon="7.04956">
        <ele>2142.8000488281</ele>
        <time>2018-05-09T08:00:38.000Z</time>
      </trkpt>
      <trkpt lat="44.24142" lon="7.04957">
        <ele>2143</ele>
        <time>2018-05-09T08:00:40.000Z</time>
      </trkpt>
      <trkpt lat="44.24139" lon="7.0496">
        <ele>2144</ele>
        <time>2018-05-09T08:00:45.000Z</time>
      </trkpt>
      <trkpt lat="44.24141" lon="7.04961">
        <ele>2144.1999511719</ele>
        <time>2018-05-09T08:00:49.000Z</time>
      </trkpt>
      <trkpt lat="44.2414" lon="7.04962">
        <ele>2144.6000976562</ele>
        <time>2018-05-09T08:00:51.000Z</time>
      </trkpt>
      <trkpt lat="44.24139" lon="7.04965">
        <ele>2145</ele>
        <time>2018-05-09T08:00:54.000Z</time>
      </trkpt>
      <trkpt lat="44.24139" lon="7.04969">
        <ele>2146</ele>
        <time>2018-05-09T08:01:00.000Z</time>
      </trkpt>
      <trkpt lat="44.24139" lon="7.04969">
        <ele>2146</ele>
        <time>2018-05-09T08:01:01.000Z</time>
      </trkpt>
      <trkpt lat="44.24141" lon="7.04972">
        <ele>2146.6000976562</ele>
        <time>2018-05-09T08:01:04.000Z</time>
      </trkpt>
      <trkpt lat="44.24142" lon="7.04974">
        <ele>2147.1999511719</ele>
        <time>2018-05-09T08:01:07.000Z</time>
      </trkpt>
      <trkpt lat="44.24141" lon="7.04977">
        <ele>2147.8000488281</ele>
        <time>2018-05-09T08:01:10.000Z</time>
      </trkpt>
      <trkpt lat="44.24136" lon="7.04982">
        <ele>2148.3999023438</ele>
        <time>2018-05-09T08:01:14.000Z</time>
      </trkpt>
      <trkpt lat="44.24135" lon="7.04984">
        <ele>2148.3999023438</ele>
        <time>2018-05-09T08:01:15.000Z</time>
      </trkpt>
      <trkpt lat="44.2413" lon="7.04983">
        <ele>2149.3999023438</ele>
        <time>2018-05-09T08:01:23.000Z</time>
      </trkpt>
      <trkpt lat="44.24129" lon="7.04983">
        <ele>2149.3999023438</ele>
        <time>2018-05-09T08:01:24.000Z</time>
      </trkpt>
      <trkpt lat="44.24128" lon="7.04994">
        <ele>2149.6000976562</ele>
        <time>2018-05-09T08:01:33.000Z</time>
      </trkpt>
      <trkpt lat="44.24146" lon="7.05">
        <ele>2149.6000976562</ele>
        <time>2018-05-09T08:01:37.000Z</time>
      </trkpt>
      <trkpt lat="44.24141" lon="7.04995">
        <ele>2149.8000488281</ele>
        <time>2018-05-09T08:01:40.000Z</time>
      </trkpt>
      <trkpt lat="44.24133" lon="7.0499">
        <ele>2150.3999023438</ele>
        <time>2018-05-09T08:01:44.000Z</time>
      </trkpt>
      <trkpt lat="44.24133" lon="7.0499">
        <ele>2150.6000976562</ele>
        <time>2018-05-09T08:01:45.000Z</time>
      </trkpt>
      <trkpt lat="44.24132" lon="7.04991">
        <ele>2151</ele>
        <time>2018-05-09T08:01:47.000Z</time>
      </trkpt>
      <trkpt lat="44.24131" lon="7.0499">
        <ele>2151.6000976562</ele>
        <time>2018-05-09T08:01:50.000Z</time>
      </trkpt>
      <trkpt lat="44.2413" lon="7.04996">
        <ele>2152.6000976562</ele>
        <time>2018-05-09T08:02:09.000Z</time>
      </trkpt>
      <trkpt lat="44.24132" lon="7.04993">
        <ele>2153.6000976562</ele>
        <time>2018-05-09T08:02:13.000Z</time>
      </trkpt>
      <trkpt lat="44.24131" lon="7.04992">
        <ele>2153.6000976562</ele>
        <time>2018-05-09T08:02:14.000Z</time>
      </trkpt>
      <trkpt lat="44.2412" lon="7.04988">
        <ele>2154.8000488281</ele>
        <time>2018-05-09T08:02:23.000Z</time>
      </trkpt>
      <trkpt lat="44.24116" lon="7.04985">
        <ele>2156</ele>
        <time>2018-05-09T08:02:29.000Z</time>
      </trkpt>
      <trkpt lat="44.2411" lon="7.0498">
        <ele>2157</ele>
        <time>2018-05-09T08:02:36.000Z</time>
      </trkpt>
      <trkpt lat="44.24109" lon="7.04978">
        <ele>2158</ele>
        <time>2018-05-09T08:02:42.000Z</time>
      </trkpt>
      <trkpt lat="44.24106" lon="7.04975">
        <ele>2159</ele>
        <time>2018-05-09T08:02:49.000Z</time>
      </trkpt>
      <trkpt lat="44.24105" lon="7.04975">
        <ele>2159.1999511719</ele>
        <time>2018-05-09T08:02:50.000Z</time>
      </trkpt>
      <trkpt lat="44.24103" lon="7.04974">
        <ele>2159.6000976562</ele>
        <time>2018-05-09T08:02:52.000Z</time>
      </trkpt>
      <trkpt lat="44.24102" lon="7.04973">
        <ele>2159.8000488281</ele>
        <time>2018-05-09T08:02:53.000Z</time>
      </trkpt>
      <trkpt lat="44.24099" lon="7.04971">
        <ele>2160.1999511719</ele>
        <time>2018-05-09T08:02:55.000Z</time>
      </trkpt>
      <trkpt lat="44.24097" lon="7.0497">
        <ele>2160.3999023438</ele>
        <time>2018-05-09T08:02:56.000Z</time>
      </trkpt>
      <trkpt lat="44.24098" lon="7.04971">
        <ele>2160.3999023438</ele>
        <time>2018-05-09T08:02:57.000Z</time>
      </trkpt>
      <trkpt lat="44.24098" lon="7.04972">
        <ele>2160.6000976562</ele>
        <time>2018-05-09T08:02:58.000Z</time>
      </trkpt>
      <trkpt lat="44.24097" lon="7.04972">
        <ele>2161.1999511719</ele>
        <time>2018-05-09T08:03:04.000Z</time>
      </trkpt>
      <trkpt lat="44.24094" lon="7.04973">
        <ele>2162.3999023438</ele>
        <time>2018-05-09T08:03:10.000Z</time>
      </trkpt>
      <trkpt lat="44.24093" lon="7.04976">
        <ele>2163.3999023438</ele>
        <time>2018-05-09T08:03:15.000Z</time>
      </trkpt>
      <trkpt lat="44.24093" lon="7.04973">
        <ele>2164.3999023438</ele>
        <time>2018-05-09T08:03:22.000Z</time>
      </trkpt>
      <trkpt lat="44.24091" lon="7.04977">
        <ele>2165.3999023438</ele>
        <time>2018-05-09T08:03:32.000Z</time>
      </trkpt>
      <trkpt lat="44.2409" lon="7.04977">
        <ele>2165.3999023438</ele>
        <time>2018-05-09T08:03:33.000Z</time>
      </trkpt>
      <trkpt lat="44.24085" lon="7.04981">
        <ele>2166.6000976562</ele>
        <time>2018-05-09T08:03:41.000Z</time>
      </trkpt>
      <trkpt lat="44.24081" lon="7.04978">
        <ele>2167</ele>
        <time>2018-05-09T08:03:46.000Z</time>
      </trkpt>
      <trkpt lat="44.24077" lon="7.04978">
        <ele>2167.6000976562</ele>
        <time>2018-05-09T08:03:49.000Z</time>
      </trkpt>
      <trkpt lat="44.24075" lon="7.0498">
        <ele>2168.1999511719</ele>
        <time>2018-05-09T08:03:56.000Z</time>
      </trkpt>
      <trkpt lat="44.24075" lon="7.0498">
        <ele>2168.6000976562</ele>
        <time>2018-05-09T08:03:59.000Z</time>
      </trkpt>
      <trkpt lat="44.24068" lon="7.04978">
        <ele>2169.6000976562</ele>
        <time>2018-05-09T08:04:06.000Z</time>
      </trkpt>
      <trkpt lat="44.24064" lon="7.04978">
        <ele>2170.8000488281</ele>
        <time>2018-05-09T08:04:11.000Z</time>
      </trkpt>
      <trkpt lat="44.24064" lon="7.04979">
        <ele>2171</ele>
        <time>2018-05-09T08:04:12.000Z</time>
      </trkpt>
      <trkpt lat="44.24059" lon="7.0498">
        <ele>2171.6000976562</ele>
        <time>2018-05-09T08:04:17.000Z</time>
      </trkpt>
      <trkpt lat="44.24058" lon="7.04979">
        <ele>2171.8000488281</ele>
        <time>2018-05-09T08:04:18.000Z</time>
      </trkpt>
      <trkpt lat="44.24049" lon="7.04991">
        <ele>2172</ele>
        <time>2018-05-09T08:04:38.000Z</time>
      </trkpt>
      <trkpt lat="44.24054" lon="7.04993">
        <ele>2172</ele>
        <time>2018-05-09T08:04:40.000Z</time>
      </trkpt>
      <trkpt lat="44.24049" lon="7.04986">
        <ele>2171.8000488281</ele>
        <time>2018-05-09T08:04:43.000Z</time>
      </trkpt>
      <trkpt lat="44.24045" lon="7.04982">
        <ele>2171.8000488281</ele>
        <time>2018-05-09T08:04:44.000Z</time>
      </trkpt>
      <trkpt lat="44.24041" lon="7.04979">
        <ele>2171.8000488281</ele>
        <time>2018-05-09T08:04:47.000Z</time>
      </trkpt>
      <trkpt lat="44.24042" lon="7.04974">
        <ele>2172.3999023438</ele>
        <time>2018-05-09T08:04:56.000Z</time>
      </trkpt>
      <trkpt lat="44.24043" lon="7.04974">
        <ele>2172.3999023438</ele>
        <time>2018-05-09T08:04:58.000Z</time>
      </trkpt>
      <trkpt lat="44.24046" lon="7.04975">
        <ele>2172.6000976562</ele>
        <time>2018-05-09T08:05:01.000Z</time>
      </trkpt>
      <trkpt lat="44.24047" lon="7.04975">
        <ele>2172.6000976562</ele>
        <time>2018-05-09T08:05:04.000Z</time>
      </trkpt>
      <trkpt lat="44.24048" lon="7.04975">
        <ele>2172.3999023438</ele>
        <time>2018-05-09T08:05:06.000Z</time>
      </trkpt>
      <trkpt lat="44.24058" lon="7.04984">
        <ele>2172.3999023438</ele>
        <time>2018-05-09T08:05:16.000Z</time>
      </trkpt>
      <trkpt lat="44.24058" lon="7.04987">
        <ele>2172.8000488281</ele>
        <time>2018-05-09T08:05:19.000Z</time>
      </trkpt>
      <trkpt lat="44.24057" lon="7.04988">
        <ele>2172.8000488281</ele>
        <time>2018-05-09T08:05:20.000Z</time>
      </trkpt>
      <trkpt lat="44.24051" lon="7.04987">
        <ele>2173.8000488281</ele>
        <time>2018-05-09T08:05:25.000Z</time>
      </trkpt>
      <trkpt lat="44.2405" lon="7.04987">
        <ele>2174</ele>
        <time>2018-05-09T08:05:26.000Z</time>
      </trkpt>
      <trkpt lat="44.24047" lon="7.04985">
        <ele>2174.1999511719</ele>
        <time>2018-05-09T08:05:29.000Z</time>
      </trkpt>
      <trkpt lat="44.24043" lon="7.04986">
        <ele>2175</ele>
        <time>2018-05-09T08:05:33.000Z</time>
      </trkpt>
      <trkpt lat="44.24041" lon="7.04985">
        <ele>2175.3999023438</ele>
        <time>2018-05-09T08:05:35.000Z</time>
      </trkpt>
      <trkpt lat="44.24038" lon="7.04984">
        <ele>2175.8000488281</ele>
        <time>2018-05-09T08:05:38.000Z</time>
      </trkpt>
      <trkpt lat="44.24034" lon="7.04983">
        <ele>2176</ele>
        <time>2018-05-09T08:05:41.000Z</time>
      </trkpt>
      <trkpt lat="44.24029" lon="7.04982">
        <ele>2176.6000976562</ele>
        <time>2018-05-09T08:05:44.000Z</time>
      </trkpt>
      <trkpt lat="44.24026" lon="7.04983">
        <ele>2177</ele>
        <time>2018-05-09T08:05:47.000Z</time>
      </trkpt>
      <trkpt lat="44.24023" lon="7.04984">
        <ele>2177.1999511719</ele>
        <time>2018-05-09T08:05:49.000Z</time>
      </trkpt>
      <trkpt lat="44.24019" lon="7.04984">
        <ele>2177.6000976562</ele>
        <time>2018-05-09T08:05:52.000Z</time>
      </trkpt>
      <trkpt lat="44.24025" lon="7.0499">
        <ele>2178</ele>
        <time>2018-05-09T08:06:09.000Z</time>
      </trkpt>
      <trkpt lat="44.24026" lon="7.04988">
        <ele>2177.8000488281</ele>
        <time>2018-05-09T08:06:15.000Z</time>
      </trkpt>
      <trkpt lat="44.24015" lon="7.04988">
        <ele>2177.8000488281</ele>
        <time>2018-05-09T08:06:24.000Z</time>
      </trkpt>
      <trkpt lat="44.24013" lon="7.04985">
        <ele>2178</ele>
        <time>2018-05-09T08:06:27.000Z</time>
      </trkpt>
      <trkpt lat="44.24013" lon="7.04985">
        <ele>2177.8000488281</ele>
        <time>2018-05-09T08:06:29.000Z</time>
      </trkpt>
      <trkpt lat="44.24015" lon="7.04986">
        <ele>2178</ele>
        <time>2018-05-09T08:06:32.000Z</time>
      </trkpt>
      <trkpt lat="44.24017" lon="7.04987">
        <ele>2177.8000488281</ele>
        <time>2018-05-09T08:06:34.000Z</time>
      </trkpt>
      <trkpt lat="44.24017" lon="7.04987">
        <ele>2177.8000488281</ele>
        <time>2018-05-09T08:06:35.000Z</time>
      </trkpt>
      <trkpt lat="44.24023" lon="7.04989">
        <ele>2177.8000488281</ele>
        <time>2018-05-09T08:06:39.000Z</time>
      </trkpt>
      <trkpt lat="44.24023" lon="7.04987">
        <ele>2177.8000488281</ele>
        <time>2018-05-09T08:06:43.000Z</time>
      </trkpt>
      <trkpt lat="44.24023" lon="7.04986">
        <ele>2177.8000488281</ele>
        <time>2018-05-09T08:06:44.000Z</time>
      </trkpt>
      <trkpt lat="44.24023" lon="7.04987">
        <ele>2177.8000488281</ele>
        <time>2018-05-09T08:06:47.000Z</time>
      </trkpt>
      <trkpt lat="44.24024" lon="7.04987">
        <ele>2177.8000488281</ele>
        <time>2018-05-09T08:06:48.000Z</time>
      </trkpt>
      <trkpt lat="44.24024" lon="7.04988">
        <ele>2177.8000488281</ele>
        <time>2018-05-09T08:06:49.000Z</time>
      </trkpt>
      <trkpt lat="44.24027" lon="7.04989">
        <ele>2177.8000488281</ele>
        <time>2018-05-09T08:06:53.000Z</time>
      </trkpt>
      <trkpt lat="44.24027" lon="7.0499">
        <ele>2178</ele>
        <time>2018-05-09T08:06:54.000Z</time>
      </trkpt>
      <trkpt lat="44.24028" lon="7.04991">
        <ele>2178</ele>
        <time>2018-05-09T08:06:55.000Z</time>
      </trkpt>
      <trkpt lat="44.24029" lon="7.04992">
        <ele>2178</ele>
        <time>2018-05-09T08:06:56.000Z</time>
      </trkpt>
      <trkpt lat="44.24025" lon="7.0498">
        <ele>2178</ele>
        <time>2018-05-09T08:07:14.000Z</time>
      </trkpt>
      <trkpt lat="44.24033" lon="7.04986">
        <ele>2178</ele>
        <time>2018-05-09T08:07:25.000Z</time>
      </trkpt>
      <trkpt lat="44.24031" lon="7.04985">
        <ele>2178</ele>
        <time>2018-05-09T08:07:27.000Z</time>
      </trkpt>
      <trkpt lat="44.24028" lon="7.04985">
        <ele>2178</ele>
        <time>2018-05-09T08:07:30.000Z</time>
      </trkpt>
      <trkpt lat="44.24028" lon="7.04985">
        <ele>2178</ele>
        <time>2018-05-09T08:07:32.000Z</time>
      </trkpt>
      <trkpt lat="44.24028" lon="7.04985">
        <ele>2178</ele>
        <time>2018-05-09T08:07:33.000Z</time>
      </trkpt>
      <trkpt lat="44.24026" lon="7.04988">
        <ele>2178</ele>
        <time>2018-05-09T08:07:34.000Z</time>
      </trkpt>
      <trkpt lat="44.24021" lon="7.04993">
        <ele>2178</ele>
        <time>2018-05-09T08:07:37.000Z</time>
      </trkpt>
      <trkpt lat="44.2402" lon="7.04994">
        <ele>2178</ele>
        <time>2018-05-09T08:07:38.000Z</time>
      </trkpt>
      <trkpt lat="44.24016" lon="7.04994">
        <ele>2178</ele>
        <time>2018-05-09T08:07:40.000Z</time>
      </trkpt>
      <trkpt lat="44.24014" lon="7.04995">
        <ele>2178</ele>
        <time>2018-05-09T08:07:46.000Z</time>
      </trkpt>
      <trkpt lat="44.24016" lon="7.04995">
        <ele>2178</ele>
        <time>2018-05-09T08:07:48.000Z</time>
      </trkpt>
      <trkpt lat="44.24018" lon="7.04996">
        <ele>2178</ele>
        <time>2018-05-09T08:07:50.000Z</time>
      </trkpt>
      <trkpt lat="44.24019" lon="7.04997">
        <ele>2178</ele>
        <time>2018-05-09T08:07:55.000Z</time>
      </trkpt>
      <trkpt lat="44.24019" lon="7.04995">
        <ele>2178</ele>
        <time>2018-05-09T08:07:58.000Z</time>
      </trkpt>
      <trkpt lat="44.24021" lon="7.04996">
        <ele>2178</ele>
        <time>2018-05-09T08:07:59.000Z</time>
      </trkpt>
      <trkpt lat="44.24022" lon="7.04994">
        <ele>2178</ele>
        <time>2018-05-09T08:08:02.000Z</time>
      </trkpt>
      <trkpt lat="44.24021" lon="7.04994">
        <ele>2178</ele>
        <time>2018-05-09T08:08:04.000Z</time>
      </trkpt>
      <trkpt lat="44.2402" lon="7.04994">
        <ele>2178</ele>
        <time>2018-05-09T08:08:06.000Z</time>
      </trkpt>
      <trkpt lat="44.24021" lon="7.04995">
        <ele>2178</ele>
        <time>2018-05-09T08:08:09.000Z</time>
      </trkpt>
      <trkpt lat="44.24022" lon="7.04991">
        <ele>2178</ele>
        <time>2018-05-09T08:08:12.000Z</time>
      </trkpt>
      <trkpt lat="44.24023" lon="7.0499">
        <ele>2178</ele>
        <time>2018-05-09T08:08:13.000Z</time>
      </trkpt>
      <trkpt lat="44.24017" lon="7.04996">
        <ele>2178</ele>
        <time>2018-05-09T08:08:19.000Z</time>
      </trkpt>
      <trkpt lat="44.24016" lon="7.04994">
        <ele>2178</ele>
        <time>2018-05-09T08:08:21.000Z</time>
      </trkpt>
      <trkpt lat="44.24016" lon="7.04994">
        <ele>2178</ele>
        <time>2018-05-09T08:08:22.000Z</time>
      </trkpt>
      <trkpt lat="44.24011" lon="7.04998">
        <ele>2178</ele>
        <time>2018-05-09T08:08:28.000Z</time>
      </trkpt>
      <trkpt lat="44.24015" lon="7.04992">
        <ele>2178</ele>
        <time>2018-05-09T08:08:34.000Z</time>
      </trkpt>
      <trkpt lat="44.24013" lon="7.04988">
        <ele>2178</ele>
        <time>2018-05-09T08:08:37.000Z</time>
      </trkpt>
      <trkpt lat="44.24016" lon="7.04987">
        <ele>2178</ele>
        <time>2018-05-09T08:08:42.000Z</time>
      </trkpt>
      <trkpt lat="44.24016" lon="7.04986">
        <ele>2178</ele>
        <time>2018-05-09T08:08:49.000Z</time>
      </trkpt>
      <trkpt lat="44.24017" lon="7.04986">
        <ele>2178</ele>
        <time>2018-05-09T08:08:51.000Z</time>
      </trkpt>
      <trkpt lat="44.2402" lon="7.04987">
        <ele>2178</ele>
        <time>2018-05-09T08:08:59.000Z</time>
      </trkpt>
      <trkpt lat="44.24022" lon="7.04988">
        <ele>2178</ele>
        <time>2018-05-09T08:09:02.000Z</time>
      </trkpt>
      <trkpt lat="44.24024" lon="7.04988">
        <ele>2178</ele>
        <time>2018-05-09T08:09:04.000Z</time>
      </trkpt>
      <trkpt lat="44.24026" lon="7.04989">
        <ele>2178</ele>
        <time>2018-05-09T08:09:06.000Z</time>
      </trkpt>
      <trkpt lat="44.2403" lon="7.04992">
        <ele>2178</ele>
        <time>2018-05-09T08:09:09.000Z</time>
      </trkpt>
      <trkpt lat="44.24027" lon="7.04989">
        <ele>2178</ele>
        <time>2018-05-09T08:09:44.000Z</time>
      </trkpt>
      <trkpt lat="44.24027" lon="7.0499">
        <ele>2178</ele>
        <time>2018-05-09T08:09:46.000Z</time>
      </trkpt>
      <trkpt lat="44.24027" lon="7.0499">
        <ele>2178</ele>
        <time>2018-05-09T08:09:50.000Z</time>
      </trkpt>
      <trkpt lat="44.24027" lon="7.04991">
        <ele>2178</ele>
        <time>2018-05-09T08:10:00.000Z</time>
      </trkpt>
      <trkpt lat="44.24027" lon="7.04991">
        <ele>2178</ele>
        <time>2018-05-09T08:10:02.000Z</time>
      </trkpt>
      <trkpt lat="44.24027" lon="7.04991">
        <ele>2178</ele>
        <time>2018-05-09T08:10:08.000Z</time>
      </trkpt>
      <trkpt lat="44.2402" lon="7.04984">
        <ele>2178</ele>
        <time>2018-05-09T08:10:33.000Z</time>
      </trkpt>
      <trkpt lat="44.24025" lon="7.04987">
        <ele>2178</ele>
        <time>2018-05-09T08:10:41.000Z</time>
      </trkpt>
      <trkpt lat="44.24022" lon="7.04988">
        <ele>2178</ele>
        <time>2018-05-09T08:10:47.000Z</time>
      </trkpt>
      <trkpt lat="44.24022" lon="7.04986">
        <ele>2178</ele>
        <time>2018-05-09T08:10:51.000Z</time>
      </trkpt>
      <trkpt lat="44.24022" lon="7.04984">
        <ele>2178</ele>
        <time>2018-05-09T08:10:55.000Z</time>
      </trkpt>
      <trkpt lat="44.24021" lon="7.04984">
        <ele>2178</ele>
        <time>2018-05-09T08:10:58.000Z</time>
      </trkpt>
      <trkpt lat="44.24021" lon="7.04989">
        <ele>2178</ele>
        <time>2018-05-09T08:11:04.000Z</time>
      </trkpt>
      <trkpt lat="44.24022" lon="7.0499">
        <ele>2178</ele>
        <time>2018-05-09T08:11:05.000Z</time>
      </trkpt>
      <trkpt lat="44.24022" lon="7.04992">
        <ele>2178</ele>
        <time>2018-05-09T08:11:08.000Z</time>
      </trkpt>
      <trkpt lat="44.24027" lon="7.04989">
        <ele>2178</ele>
        <time>2018-05-09T08:11:42.000Z</time>
      </trkpt>
      <trkpt lat="44.24027" lon="7.04992">
        <ele>2178</ele>
        <time>2018-05-09T08:11:46.000Z</time>
      </trkpt>
      <trkpt lat="44.24026" lon="7.04993">
        <ele>2178</ele>
        <time>2018-05-09T08:11:49.000Z</time>
      </trkpt>
      <trkpt lat="44.24026" lon="7.04994">
        <ele>2178</ele>
        <time>2018-05-09T08:11:56.000Z</time>
      </trkpt>
      <trkpt lat="44.24026" lon="7.04994">
        <ele>2178</ele>
        <time>2018-05-09T08:12:06.000Z</time>
      </trkpt>
      <trkpt lat="44.24024" lon="7.04992">
        <ele>2178</ele>
        <time>2018-05-09T08:12:10.000Z</time>
      </trkpt>
      <trkpt lat="44.24033" lon="7.04989">
        <ele>2178</ele>
        <time>2018-05-09T08:12:27.000Z</time>
      </trkpt>
      <trkpt lat="44.24029" lon="7.04989">
        <ele>2178</ele>
        <time>2018-05-09T08:12:30.000Z</time>
      </trkpt>
      <trkpt lat="44.24028" lon="7.04989">
        <ele>2178</ele>
        <time>2018-05-09T08:12:31.000Z</time>
      </trkpt>
      <trkpt lat="44.24021" lon="7.0499">
        <ele>2178</ele>
        <time>2018-05-09T08:12:33.000Z</time>
      </trkpt>
      <trkpt lat="44.24016" lon="7.0499">
        <ele>2178</ele>
        <time>2018-05-09T08:12:36.000Z</time>
      </trkpt>
      <trkpt lat="44.24014" lon="7.04993">
        <ele>2178</ele>
        <time>2018-05-09T08:12:42.000Z</time>
      </trkpt>
      <trkpt lat="44.24014" lon="7.04996">
        <ele>2178</ele>
        <time>2018-05-09T08:12:47.000Z</time>
      </trkpt>
      <trkpt lat="44.24004" lon="7.04994">
        <ele>2178</ele>
        <time>2018-05-09T08:12:55.000Z</time>
      </trkpt>
      <trkpt lat="44.24002" lon="7.04994">
        <ele>2178</ele>
        <time>2018-05-09T08:12:58.000Z</time>
      </trkpt>
      <trkpt lat="44.24001" lon="7.04995">
        <ele>2180</ele>
        <time>2018-05-09T08:13:00.000Z</time>
      </trkpt>
      <trkpt lat="44.24" lon="7.04996">
        <ele>2180</ele>
        <time>2018-05-09T08:13:02.000Z</time>
      </trkpt>
      <trkpt lat="44.23999" lon="7.04995">
        <ele>2180.1999511719</ele>
        <time>2018-05-09T08:13:04.000Z</time>
      </trkpt>
      <trkpt lat="44.23999" lon="7.04995">
        <ele>2180.6000976562</ele>
        <time>2018-05-09T08:13:05.000Z</time>
      </trkpt>
      <trkpt lat="44.23992" lon="7.05005">
        <ele>2181.1999511719</ele>
        <time>2018-05-09T08:13:14.000Z</time>
      </trkpt>
      <trkpt lat="44.23987" lon="7.05007">
        <ele>2181.6000976562</ele>
        <time>2018-05-09T08:13:18.000Z</time>
      </trkpt>
      <trkpt lat="44.23979" lon="7.05006">
        <ele>2181.8000488281</ele>
        <time>2018-05-09T08:13:21.000Z</time>
      </trkpt>
      <trkpt lat="44.23973" lon="7.05004">
        <ele>2182.1999511719</ele>
        <time>2018-05-09T08:13:24.000Z</time>
      </trkpt>
      <trkpt lat="44.23978" lon="7.05009">
        <ele>2182.3999023438</ele>
        <time>2018-05-09T08:13:26.000Z</time>
      </trkpt>
      <trkpt lat="44.23975" lon="7.05008">
        <ele>2182.8000488281</ele>
        <time>2018-05-09T08:13:29.000Z</time>
      </trkpt>
      <trkpt lat="44.23972" lon="7.05007">
        <ele>2183.1999511719</ele>
        <time>2018-05-09T08:13:31.000Z</time>
      </trkpt>
      <trkpt lat="44.2397" lon="7.05006">
        <ele>2183.3999023438</ele>
        <time>2018-05-09T08:13:32.000Z</time>
      </trkpt>
      <trkpt lat="44.23959" lon="7.05">
        <ele>2183.8000488281</ele>
        <time>2018-05-09T08:13:35.000Z</time>
      </trkpt>
      <trkpt lat="44.23957" lon="7.05">
        <ele>2184.3999023438</ele>
        <time>2018-05-09T08:13:39.000Z</time>
      </trkpt>
      <trkpt lat="44.23952" lon="7.05003">
        <ele>2185.6000976562</ele>
        <time>2018-05-09T08:13:48.000Z</time>
      </trkpt>
      <trkpt lat="44.23947" lon="7.05005">
        <ele>2186.6000976562</ele>
        <time>2018-05-09T08:13:53.000Z</time>
      </trkpt>
      <trkpt lat="44.2394" lon="7.05009">
        <ele>2187.1999511719</ele>
        <time>2018-05-09T08:13:59.000Z</time>
      </trkpt>
      <trkpt lat="44.23938" lon="7.05012">
        <ele>2187.1999511719</ele>
        <time>2018-05-09T08:14:03.000Z</time>
      </trkpt>
      <trkpt lat="44.23938" lon="7.05012">
        <ele>2187.3999023438</ele>
        <time>2018-05-09T08:14:04.000Z</time>
      </trkpt>
      <trkpt lat="44.23935" lon="7.05011">
        <ele>2187.3999023438</ele>
        <time>2018-05-09T08:14:08.000Z</time>
      </trkpt>
      <trkpt lat="44.23935" lon="7.05013">
        <ele>2187.3999023438</ele>
        <time>2018-05-09T08:14:10.000Z</time>
      </trkpt>
      <trkpt lat="44.23934" lon="7.05018">
        <ele>2187.6000976562</ele>
        <time>2018-05-09T08:14:13.000Z</time>
      </trkpt>
      <trkpt lat="44.23933" lon="7.0502">
        <ele>2187.6000976562</ele>
        <time>2018-05-09T08:14:15.000Z</time>
      </trkpt>
      <trkpt lat="44.23933" lon="7.05021">
        <ele>2187.8000488281</ele>
        <time>2018-05-09T08:14:16.000Z</time>
      </trkpt>
      <trkpt lat="44.23929" lon="7.05023">
        <ele>2188</ele>
        <time>2018-05-09T08:14:19.000Z</time>
      </trkpt>
      <trkpt lat="44.23926" lon="7.05026">
        <ele>2188.6000976562</ele>
        <time>2018-05-09T08:14:23.000Z</time>
      </trkpt>
      <trkpt lat="44.23926" lon="7.05026">
        <ele>2188.6000976562</ele>
        <time>2018-05-09T08:14:24.000Z</time>
      </trkpt>
      <trkpt lat="44.23925" lon="7.05026">
        <ele>2188.8000488281</ele>
        <time>2018-05-09T08:14:25.000Z</time>
      </trkpt>
      <trkpt lat="44.23919" lon="7.05026">
        <ele>2189</ele>
        <time>2018-05-09T08:14:29.000Z</time>
      </trkpt>
      <trkpt lat="44.23909" lon="7.05023">
        <ele>2189.6000976562</ele>
        <time>2018-05-09T08:14:35.000Z</time>
      </trkpt>
      <trkpt lat="44.23907" lon="7.05023">
        <ele>2189.8000488281</ele>
        <time>2018-05-09T08:14:36.000Z</time>
      </trkpt>
      <trkpt lat="44.23901" lon="7.05022">
        <ele>2190.8000488281</ele>
        <time>2018-05-09T08:14:42.000Z</time>
      </trkpt>
      <trkpt lat="44.239" lon="7.05022">
        <ele>2191</ele>
        <time>2018-05-09T08:14:43.000Z</time>
      </trkpt>
      <trkpt lat="44.23898" lon="7.05021">
        <ele>2191</ele>
        <time>2018-05-09T08:14:45.000Z</time>
      </trkpt>
      <trkpt lat="44.23898" lon="7.05023">
        <ele>2191.3999023438</ele>
        <time>2018-05-09T08:14:48.000Z</time>
      </trkpt>
      <trkpt lat="44.23891" lon="7.05023">
        <ele>2192</ele>
        <time>2018-05-09T08:14:54.000Z</time>
      </trkpt>
      <trkpt lat="44.23891" lon="7.05027">
        <ele>2192.3999023438</ele>
        <time>2018-05-09T08:14:57.000Z</time>
      </trkpt>
      <trkpt lat="44.23891" lon="7.05031">
        <ele>2193</ele>
        <time>2018-05-09T08:15:04.000Z</time>
      </trkpt>
      <trkpt lat="44.23891" lon="7.05032">
        <ele>2193.1999511719</ele>
        <time>2018-05-09T08:15:05.000Z</time>
      </trkpt>
      <trkpt lat="44.23889" lon="7.05031">
        <ele>2193.6000976562</ele>
        <time>2018-05-09T08:15:08.000Z</time>
      </trkpt>
      <trkpt lat="44.23885" lon="7.05033">
        <ele>2194.1999511719</ele>
        <time>2018-05-09T08:15:12.000Z</time>
      </trkpt>
      <trkpt lat="44.23886" lon="7.05037">
        <ele>2194.8000488281</ele>
        <time>2018-05-09T08:15:16.000Z</time>
      </trkpt>
      <trkpt lat="44.2388" lon="7.05036">
        <ele>2195.3999023438</ele>
        <time>2018-05-09T08:15:20.000Z</time>
      </trkpt>
      <trkpt lat="44.23877" lon="7.05035">
        <ele>2196</ele>
        <time>2018-05-09T08:15:24.000Z</time>
      </trkpt>
      <trkpt lat="44.23876" lon="7.05036">
        <ele>2196.3999023438</ele>
        <time>2018-05-09T08:15:26.000Z</time>
      </trkpt>
      <trkpt lat="44.23869" lon="7.05031">
        <ele>2196.6000976562</ele>
        <time>2018-05-09T08:15:29.000Z</time>
      </trkpt>
      <trkpt lat="44.23868" lon="7.05031">
        <ele>2196.3999023438</ele>
        <time>2018-05-09T08:15:33.000Z</time>
      </trkpt>
      <trkpt lat="44.23866" lon="7.0503">
        <ele>2196.3999023438</ele>
        <time>2018-05-09T08:15:34.000Z</time>
      </trkpt>
      <trkpt lat="44.23865" lon="7.0503">
        <ele>2196.6000976562</ele>
        <time>2018-05-09T08:15:35.000Z</time>
      </trkpt>
      <trkpt lat="44.23864" lon="7.05029">
        <ele>2196.6000976562</ele>
        <time>2018-05-09T08:15:36.000Z</time>
      </trkpt>
      <trkpt lat="44.23862" lon="7.05029">
        <ele>2196.8000488281</ele>
        <time>2018-05-09T08:15:37.000Z</time>
      </trkpt>
      <trkpt lat="44.23859" lon="7.0503">
        <ele>2197.3999023438</ele>
        <time>2018-05-09T08:15:42.000Z</time>
      </trkpt>
      <trkpt lat="44.2385" lon="7.0503">
        <ele>2198.3999023438</ele>
        <time>2018-05-09T08:15:48.000Z</time>
      </trkpt>
      <trkpt lat="44.2385" lon="7.0503">
        <ele>2198.3999023438</ele>
        <time>2018-05-09T08:15:49.000Z</time>
      </trkpt>
      <trkpt lat="44.23845" lon="7.05034">
        <ele>2199.3999023438</ele>
        <time>2018-05-09T08:15:57.000Z</time>
      </trkpt>
      <trkpt lat="44.23843" lon="7.05038">
        <ele>2200.6000976562</ele>
        <time>2018-05-09T08:16:06.000Z</time>
      </trkpt>
      <trkpt lat="44.2384" lon="7.05041">
        <ele>2201.6000976562</ele>
        <time>2018-05-09T08:16:13.000Z</time>
      </trkpt>
      <trkpt lat="44.23839" lon="7.05042">
        <ele>2201.8000488281</ele>
        <time>2018-05-09T08:16:15.000Z</time>
      </trkpt>
      <trkpt lat="44.23837" lon="7.05043">
        <ele>2202</ele>
        <time>2018-05-09T08:16:17.000Z</time>
      </trkpt>
      <trkpt lat="44.23836" lon="7.05044">
        <ele>2202.6000976562</ele>
        <time>2018-05-09T08:16:20.000Z</time>
      </trkpt>
      <trkpt lat="44.23834" lon="7.05043">
        <ele>2202.8000488281</ele>
        <time>2018-05-09T08:16:22.000Z</time>
      </trkpt>
      <trkpt lat="44.23833" lon="7.05042">
        <ele>2202.8000488281</ele>
        <time>2018-05-09T08:16:26.000Z</time>
      </trkpt>
      <trkpt lat="44.23825" lon="7.0504">
        <ele>2202.6000976562</ele>
        <time>2018-05-09T08:16:30.000Z</time>
      </trkpt>
      <trkpt lat="44.23822" lon="7.05039">
        <ele>2202.8000488281</ele>
        <time>2018-05-09T08:16:32.000Z</time>
      </trkpt>
      <trkpt lat="44.23822" lon="7.05044">
        <ele>2203</ele>
        <time>2018-05-09T08:16:45.000Z</time>
      </trkpt>
      <trkpt lat="44.2382" lon="7.05044">
        <ele>2203.1999511719</ele>
        <time>2018-05-09T08:16:51.000Z</time>
      </trkpt>
      <trkpt lat="44.2382" lon="7.05043">
        <ele>2203.1999511719</ele>
        <time>2018-05-09T08:16:53.000Z</time>
      </trkpt>
      <trkpt lat="44.23819" lon="7.05042">
        <ele>2203.1999511719</ele>
        <time>2018-05-09T08:16:55.000Z</time>
      </trkpt>
      <trkpt lat="44.23816" lon="7.05042">
        <ele>2203.3999023438</ele>
        <time>2018-05-09T08:17:00.000Z</time>
      </trkpt>
      <trkpt lat="44.23815" lon="7.05042">
        <ele>2203.3999023438</ele>
        <time>2018-05-09T08:17:01.000Z</time>
      </trkpt>
      <trkpt lat="44.23814" lon="7.05042">
        <ele>2203.6000976562</ele>
        <time>2018-05-09T08:17:02.000Z</time>
      </trkpt>
      <trkpt lat="44.23812" lon="7.05042">
        <ele>2204</ele>
        <time>2018-05-09T08:17:04.000Z</time>
      </trkpt>
      <trkpt lat="44.23812" lon="7.05044">
        <ele>2204.3999023438</ele>
        <time>2018-05-09T08:17:06.000Z</time>
      </trkpt>
      <trkpt lat="44.23812" lon="7.05046">
        <ele>2204.6000976562</ele>
        <time>2018-05-09T08:17:07.000Z</time>
      </trkpt>
      <trkpt lat="44.23811" lon="7.05046">
        <ele>2204.6000976562</ele>
        <time>2018-05-09T08:17:08.000Z</time>
      </trkpt>
      <trkpt lat="44.23812" lon="7.05048">
        <ele>2204.8000488281</ele>
        <time>2018-05-09T08:17:11.000Z</time>
      </trkpt>
      <trkpt lat="44.23814" lon="7.0505">
        <ele>2205</ele>
        <time>2018-05-09T08:17:12.000Z</time>
      </trkpt>
      <trkpt lat="44.23812" lon="7.05049">
        <ele>2205.8000488281</ele>
        <time>2018-05-09T08:17:17.000Z</time>
      </trkpt>
      <trkpt lat="44.2381" lon="7.05048">
        <ele>2206.1999511719</ele>
        <time>2018-05-09T08:17:19.000Z</time>
      </trkpt>
      <trkpt lat="44.23806" lon="7.05049">
        <ele>2207.1999511719</ele>
        <time>2018-05-09T08:17:26.000Z</time>
      </trkpt>
      <trkpt lat="44.23799" lon="7.05049">
        <ele>2208</ele>
        <time>2018-05-09T08:17:32.000Z</time>
      </trkpt>
      <trkpt lat="44.23798" lon="7.05048">
        <ele>2208.1999511719</ele>
        <time>2018-05-09T08:17:33.000Z</time>
      </trkpt>
      <trkpt lat="44.23795" lon="7.05048">
        <ele>2208.8000488281</ele>
        <time>2018-05-09T08:17:37.000Z</time>
      </trkpt>
      <trkpt lat="44.23793" lon="7.05048">
        <ele>2209.3999023438</ele>
        <time>2018-05-09T08:17:40.000Z</time>
      </trkpt>
      <trkpt lat="44.23791" lon="7.0505">
        <ele>2210</ele>
        <time>2018-05-09T08:17:44.000Z</time>
      </trkpt>
      <trkpt lat="44.23793" lon="7.05054">
        <ele>2210.6000976562</ele>
        <time>2018-05-09T08:17:49.000Z</time>
      </trkpt>
      <trkpt lat="44.23789" lon="7.05057">
        <ele>2211.6000976562</ele>
        <time>2018-05-09T08:17:55.000Z</time>
      </trkpt>
      <trkpt lat="44.23781" lon="7.05057">
        <ele>2212.6000976562</ele>
        <time>2018-05-09T08:18:04.000Z</time>
      </trkpt>
      <trkpt lat="44.2378" lon="7.05058">
        <ele>2213</ele>
        <time>2018-05-09T08:18:06.000Z</time>
      </trkpt>
      <trkpt lat="44.23779" lon="7.05058">
        <ele>2213.1999511719</ele>
        <time>2018-05-09T08:18:09.000Z</time>
      </trkpt>
      <trkpt lat="44.23777" lon="7.05056">
        <ele>2213.8000488281</ele>
        <time>2018-05-09T08:18:12.000Z</time>
      </trkpt>
      <trkpt lat="44.23792" lon="7.0508">
        <ele>2214</ele>
        <time>2018-05-09T08:18:30.000Z</time>
      </trkpt>
      <trkpt lat="44.23788" lon="7.05079">
        <ele>2214</ele>
        <time>2018-05-09T08:18:33.000Z</time>
      </trkpt>
      <trkpt lat="44.23786" lon="7.05077">
        <ele>2214</ele>
        <time>2018-05-09T08:18:35.000Z</time>
      </trkpt>
      <trkpt lat="44.23787" lon="7.05071">
        <ele>2214</ele>
        <time>2018-05-09T08:18:37.000Z</time>
      </trkpt>
      <trkpt lat="44.23785" lon="7.05063">
        <ele>2213.8000488281</ele>
        <time>2018-05-09T08:18:41.000Z</time>
      </trkpt>
      <trkpt lat="44.23783" lon="7.05062">
        <ele>2213.8000488281</ele>
        <time>2018-05-09T08:18:42.000Z</time>
      </trkpt>
      <trkpt lat="44.23782" lon="7.05058">
        <ele>2213.8000488281</ele>
        <time>2018-05-09T08:18:44.000Z</time>
      </trkpt>
      <trkpt lat="44.23791" lon="7.05067">
        <ele>2214</ele>
        <time>2018-05-09T08:18:50.000Z</time>
      </trkpt>
      <trkpt lat="44.2379" lon="7.05066">
        <ele>2214.1999511719</ele>
        <time>2018-05-09T08:18:51.000Z</time>
      </trkpt>
      <trkpt lat="44.23788" lon="7.05066">
        <ele>2214.1999511719</ele>
        <time>2018-05-09T08:18:52.000Z</time>
      </trkpt>
      <trkpt lat="44.23781" lon="7.05061">
        <ele>2214.1999511719</ele>
        <time>2018-05-09T08:18:57.000Z</time>
      </trkpt>
      <trkpt lat="44.23781" lon="7.05064">
        <ele>2214</ele>
        <time>2018-05-09T08:19:09.000Z</time>
      </trkpt>
      <trkpt lat="44.2378" lon="7.05063">
        <ele>2214.1999511719</ele>
        <time>2018-05-09T08:19:13.000Z</time>
      </trkpt>
      <trkpt lat="44.23776" lon="7.05065">
        <ele>2214.8000488281</ele>
        <time>2018-05-09T08:19:17.000Z</time>
      </trkpt>
      <trkpt lat="44.23775" lon="7.05066">
        <ele>2215</ele>
        <time>2018-05-09T08:19:18.000Z</time>
      </trkpt>
      <trkpt lat="44.23774" lon="7.05068">
        <ele>2215.3999023438</ele>
        <time>2018-05-09T08:19:21.000Z</time>
      </trkpt>
      <trkpt lat="44.23773" lon="7.05069">
        <ele>2215.8000488281</ele>
        <time>2018-05-09T08:19:24.000Z</time>
      </trkpt>
      <trkpt lat="44.23773" lon="7.0507">
        <ele>2216</ele>
        <time>2018-05-09T08:19:25.000Z</time>
      </trkpt>
      <trkpt lat="44.23773" lon="7.05071">
        <ele>2216.3999023438</ele>
        <time>2018-05-09T08:19:26.000Z</time>
      </trkpt>
      <trkpt lat="44.23771" lon="7.05073">
        <ele>2216.8000488281</ele>
        <time>2018-05-09T08:19:29.000Z</time>
      </trkpt>
      <trkpt lat="44.2377" lon="7.05075">
        <ele>2217.1999511719</ele>
        <time>2018-05-09T08:19:32.000Z</time>
      </trkpt>
      <trkpt lat="44.2377" lon="7.05079">
        <ele>2217.8000488281</ele>
        <time>2018-05-09T08:19:36.000Z</time>
      </trkpt>
      <trkpt lat="44.23766" lon="7.05079">
        <ele>2218</ele>
        <time>2018-05-09T08:19:40.000Z</time>
      </trkpt>
      <trkpt lat="44.23765" lon="7.05079">
        <ele>2218.1999511719</ele>
        <time>2018-05-09T08:19:41.000Z</time>
      </trkpt>
      <trkpt lat="44.23762" lon="7.05078">
        <ele>2218.8000488281</ele>
        <time>2018-05-09T08:19:43.000Z</time>
      </trkpt>
      <trkpt lat="44.23761" lon="7.05078">
        <ele>2218.8000488281</ele>
        <time>2018-05-09T08:19:44.000Z</time>
      </trkpt>
      <trkpt lat="44.23757" lon="7.05079">
        <ele>2219.1999511719</ele>
        <time>2018-05-09T08:19:48.000Z</time>
      </trkpt>
      <trkpt lat="44.23743" lon="7.0508">
        <ele>2220.3999023438</ele>
        <time>2018-05-09T08:19:56.000Z</time>
      </trkpt>
      <trkpt lat="44.2374" lon="7.0508">
        <ele>2220.6000976562</ele>
        <time>2018-05-09T08:19:58.000Z</time>
      </trkpt>
      <trkpt lat="44.2374" lon="7.05085">
        <ele>2221</ele>
        <time>2018-05-09T08:20:02.000Z</time>
      </trkpt>
      <trkpt lat="44.23736" lon="7.05086">
        <ele>2221.6000976562</ele>
        <time>2018-05-09T08:20:05.000Z</time>
      </trkpt>
      <trkpt lat="44.23735" lon="7.05085">
        <ele>2221.8000488281</ele>
        <time>2018-05-09T08:20:06.000Z</time>
      </trkpt>
      <trkpt lat="44.23726" lon="7.05089">
        <ele>2222.6000976562</ele>
        <time>2018-05-09T08:20:14.000Z</time>
      </trkpt>
      <trkpt lat="44.23726" lon="7.0509">
        <ele>2222.8000488281</ele>
        <time>2018-05-09T08:20:15.000Z</time>
      </trkpt>
      <trkpt lat="44.23726" lon="7.05092">
        <ele>2223</ele>
        <time>2018-05-09T08:20:16.000Z</time>
      </trkpt>
      <trkpt lat="44.23732" lon="7.05102">
        <ele>2223.6000976562</ele>
        <time>2018-05-09T08:20:21.000Z</time>
      </trkpt>
      <trkpt lat="44.23733" lon="7.05103">
        <ele>2223.8000488281</ele>
        <time>2018-05-09T08:20:22.000Z</time>
      </trkpt>
      <trkpt lat="44.23731" lon="7.05105">
        <ele>2224.1999511719</ele>
        <time>2018-05-09T08:20:26.000Z</time>
      </trkpt>
      <trkpt lat="44.2373" lon="7.05108">
        <ele>2224.6000976562</ele>
        <time>2018-05-09T08:20:29.000Z</time>
      </trkpt>
      <trkpt lat="44.23724" lon="7.05106">
        <ele>2224.8000488281</ele>
        <time>2018-05-09T08:20:33.000Z</time>
      </trkpt>
      <trkpt lat="44.2372" lon="7.05104">
        <ele>2225</ele>
        <time>2018-05-09T08:20:36.000Z</time>
      </trkpt>
      <trkpt lat="44.23719" lon="7.05105">
        <ele>2225.6000976562</ele>
        <time>2018-05-09T08:20:40.000Z</time>
      </trkpt>
      <trkpt lat="44.23719" lon="7.05107">
        <ele>2225.6000976562</ele>
        <time>2018-05-09T08:20:41.000Z</time>
      </trkpt>
      <trkpt lat="44.23719" lon="7.05107">
        <ele>2225.8000488281</ele>
        <time>2018-05-09T08:20:42.000Z</time>
      </trkpt>
      <trkpt lat="44.23717" lon="7.05109">
        <ele>2226</ele>
        <time>2018-05-09T08:20:45.000Z</time>
      </trkpt>
      <trkpt lat="44.23714" lon="7.05111">
        <ele>2226.3999023438</ele>
        <time>2018-05-09T08:20:49.000Z</time>
      </trkpt>
      <trkpt lat="44.23708" lon="7.0511">
        <ele>2226.8000488281</ele>
        <time>2018-05-09T08:20:53.000Z</time>
      </trkpt>
      <trkpt lat="44.23702" lon="7.05113">
        <ele>2227.6000976562</ele>
        <time>2018-05-09T08:20:59.000Z</time>
      </trkpt>
      <trkpt lat="44.23703" lon="7.05115">
        <ele>2227.8000488281</ele>
        <time>2018-05-09T08:21:01.000Z</time>
      </trkpt>
      <trkpt lat="44.23701" lon="7.05114">
        <ele>2227.8000488281</ele>
        <time>2018-05-09T08:21:03.000Z</time>
      </trkpt>
      <trkpt lat="44.237" lon="7.05114">
        <ele>2228</ele>
        <time>2018-05-09T08:21:04.000Z</time>
      </trkpt>
      <trkpt lat="44.23698" lon="7.05115">
        <ele>2228.1999511719</ele>
        <time>2018-05-09T08:21:06.000Z</time>
      </trkpt>
      <trkpt lat="44.23698" lon="7.05121">
        <ele>2228.6000976562</ele>
        <time>2018-05-09T08:21:10.000Z</time>
      </trkpt>
      <trkpt lat="44.23701" lon="7.05126">
        <ele>2229</ele>
        <time>2018-05-09T08:21:13.000Z</time>
      </trkpt>
      <trkpt lat="44.23699" lon="7.05127">
        <ele>2229.3999023438</ele>
        <time>2018-05-09T08:21:16.000Z</time>
      </trkpt>
      <trkpt lat="44.23698" lon="7.05127">
        <ele>2229.6000976562</ele>
        <time>2018-05-09T08:21:17.000Z</time>
      </trkpt>
      <trkpt lat="44.23695" lon="7.05128">
        <ele>2230.1999511719</ele>
        <time>2018-05-09T08:21:21.000Z</time>
      </trkpt>
      <trkpt lat="44.23693" lon="7.05129">
        <ele>2230.3999023438</ele>
        <time>2018-05-09T08:21:24.000Z</time>
      </trkpt>
      <trkpt lat="44.23692" lon="7.0513">
        <ele>2230.6000976562</ele>
        <time>2018-05-09T08:21:26.000Z</time>
      </trkpt>
      <trkpt lat="44.2369" lon="7.0513">
        <ele>2230.8000488281</ele>
        <time>2018-05-09T08:21:27.000Z</time>
      </trkpt>
      <trkpt lat="44.23682" lon="7.05123">
        <ele>2231</ele>
        <time>2018-05-09T08:21:29.000Z</time>
      </trkpt>
      <trkpt lat="44.23682" lon="7.05122">
        <ele>2231.1999511719</ele>
        <time>2018-05-09T08:21:30.000Z</time>
      </trkpt>
      <trkpt lat="44.23676" lon="7.05125">
        <ele>2231.8000488281</ele>
        <time>2018-05-09T08:21:42.000Z</time>
      </trkpt>
      <trkpt lat="44.23671" lon="7.05123">
        <ele>2232.1999511719</ele>
        <time>2018-05-09T08:21:45.000Z</time>
      </trkpt>
      <trkpt lat="44.2367" lon="7.05123">
        <ele>2232.6000976562</ele>
        <time>2018-05-09T08:21:47.000Z</time>
      </trkpt>
      <trkpt lat="44.23666" lon="7.05124">
        <ele>2233</ele>
        <time>2018-05-09T08:21:53.000Z</time>
      </trkpt>
      <trkpt lat="44.23666" lon="7.05124">
        <ele>2233</ele>
        <time>2018-05-09T08:21:54.000Z</time>
      </trkpt>
      <trkpt lat="44.23666" lon="7.05126">
        <ele>2233.3999023438</ele>
        <time>2018-05-09T08:21:57.000Z</time>
      </trkpt>
      <trkpt lat="44.23662" lon="7.05127">
        <ele>2234</ele>
        <time>2018-05-09T08:22:02.000Z</time>
      </trkpt>
      <trkpt lat="44.23661" lon="7.05128">
        <ele>2234.1999511719</ele>
        <time>2018-05-09T08:22:05.000Z</time>
      </trkpt>
      <trkpt lat="44.2366" lon="7.05129">
        <ele>2234.3999023438</ele>
        <time>2018-05-09T08:22:07.000Z</time>
      </trkpt>
      <trkpt lat="44.23657" lon="7.05128">
        <ele>2234.8000488281</ele>
        <time>2018-05-09T08:22:11.000Z</time>
      </trkpt>
      <trkpt lat="44.23657" lon="7.05127">
        <ele>2235</ele>
        <time>2018-05-09T08:22:12.000Z</time>
      </trkpt>
      <trkpt lat="44.23656" lon="7.05128">
        <ele>2235.3999023438</ele>
        <time>2018-05-09T08:22:20.000Z</time>
      </trkpt>
      <trkpt lat="44.23652" lon="7.05128">
        <ele>2235.6000976562</ele>
        <time>2018-05-09T08:22:24.000Z</time>
      </trkpt>
      <trkpt lat="44.23649" lon="7.05128">
        <ele>2235.8000488281</ele>
        <time>2018-05-09T08:22:26.000Z</time>
      </trkpt>
      <trkpt lat="44.23648" lon="7.05128">
        <ele>2236</ele>
        <time>2018-05-09T08:22:27.000Z</time>
      </trkpt>
      <trkpt lat="44.23644" lon="7.05124">
        <ele>2236.6000976562</ele>
        <time>2018-05-09T08:22:33.000Z</time>
      </trkpt>
      <trkpt lat="44.23642" lon="7.05124">
        <ele>2236.8000488281</ele>
        <time>2018-05-09T08:22:34.000Z</time>
      </trkpt>
      <trkpt lat="44.2364" lon="7.05125">
        <ele>2237</ele>
        <time>2018-05-09T08:22:37.000Z</time>
      </trkpt>
      <trkpt lat="44.23639" lon="7.05125">
        <ele>2237.1999511719</ele>
        <time>2018-05-09T08:22:38.000Z</time>
      </trkpt>
      <trkpt lat="44.23637" lon="7.05129">
        <ele>2237.6000976562</ele>
        <time>2018-05-09T08:22:42.000Z</time>
      </trkpt>
      <trkpt lat="44.23631" lon="7.05134">
        <ele>2238.3999023438</ele>
        <time>2018-05-09T08:22:49.000Z</time>
      </trkpt>
      <trkpt lat="44.2363" lon="7.05135">
        <ele>2238.3999023438</ele>
        <time>2018-05-09T08:22:51.000Z</time>
      </trkpt>
      <trkpt lat="44.23626" lon="7.05134">
        <ele>2238.6000976562</ele>
        <time>2018-05-09T08:22:54.000Z</time>
      </trkpt>
      <trkpt lat="44.23625" lon="7.05134">
        <ele>2238.8000488281</ele>
        <time>2018-05-09T08:22:55.000Z</time>
      </trkpt>
      <trkpt lat="44.23624" lon="7.05135">
        <ele>2239</ele>
        <time>2018-05-09T08:22:57.000Z</time>
      </trkpt>
      <trkpt lat="44.23618" lon="7.05131">
        <ele>2239.6000976562</ele>
        <time>2018-05-09T08:23:03.000Z</time>
      </trkpt>
      <trkpt lat="44.23619" lon="7.05134">
        <ele>2239.6000976562</ele>
        <time>2018-05-09T08:23:06.000Z</time>
      </trkpt>
      <trkpt lat="44.23614" lon="7.05134">
        <ele>2239.8000488281</ele>
        <time>2018-05-09T08:23:10.000Z</time>
      </trkpt>
      <trkpt lat="44.23612" lon="7.05134">
        <ele>2240</ele>
        <time>2018-05-09T08:23:12.000Z</time>
      </trkpt>
      <trkpt lat="44.2361" lon="7.05134">
        <ele>2240.1999511719</ele>
        <time>2018-05-09T08:23:14.000Z</time>
      </trkpt>
      <trkpt lat="44.2361" lon="7.05135">
        <ele>2240.3999023438</ele>
        <time>2018-05-09T08:23:15.000Z</time>
      </trkpt>
      <trkpt lat="44.23607" lon="7.05137">
        <ele>2240.6000976562</ele>
        <time>2018-05-09T08:23:18.000Z</time>
      </trkpt>
      <trkpt lat="44.23606" lon="7.05138">
        <ele>2240.8000488281</ele>
        <time>2018-05-09T08:23:19.000Z</time>
      </trkpt>
      <trkpt lat="44.23603" lon="7.05138">
        <ele>2241</ele>
        <time>2018-05-09T08:23:20.000Z</time>
      </trkpt>
      <trkpt lat="44.23598" lon="7.0514">
        <ele>2241.8000488281</ele>
        <time>2018-05-09T08:23:25.000Z</time>
      </trkpt>
      <trkpt lat="44.23596" lon="7.05141">
        <ele>2242</ele>
        <time>2018-05-09T08:23:27.000Z</time>
      </trkpt>
      <trkpt lat="44.23592" lon="7.05144">
        <ele>2243</ele>
        <time>2018-05-09T08:23:38.000Z</time>
      </trkpt>
      <trkpt lat="44.23593" lon="7.05145">
        <ele>2243.3999023438</ele>
        <time>2018-05-09T08:23:40.000Z</time>
      </trkpt>
      <trkpt lat="44.23592" lon="7.05146">
        <ele>2243.6000976562</ele>
        <time>2018-05-09T08:23:41.000Z</time>
      </trkpt>
      <trkpt lat="44.23592" lon="7.05147">
        <ele>2243.8000488281</ele>
        <time>2018-05-09T08:23:43.000Z</time>
      </trkpt>
      <trkpt lat="44.2359" lon="7.05148">
        <ele>2244.1999511719</ele>
        <time>2018-05-09T08:23:46.000Z</time>
      </trkpt>
      <trkpt lat="44.23583" lon="7.05149">
        <ele>2244.3999023438</ele>
        <time>2018-05-09T08:23:52.000Z</time>
      </trkpt>
      <trkpt lat="44.23574" lon="7.05146">
        <ele>2245.3999023438</ele>
        <time>2018-05-09T08:23:58.000Z</time>
      </trkpt>
      <trkpt lat="44.23567" lon="7.05137">
        <ele>2246</ele>
        <time>2018-05-09T08:24:04.000Z</time>
      </trkpt>
      <trkpt lat="44.23568" lon="7.05138">
        <ele>2246.1999511719</ele>
        <time>2018-05-09T08:24:05.000Z</time>
      </trkpt>
      <trkpt lat="44.23568" lon="7.05139">
        <ele>2246.1999511719</ele>
        <time>2018-05-09T08:24:06.000Z</time>
      </trkpt>
      <trkpt lat="44.23568" lon="7.0514">
        <ele>2246.3999023438</ele>
        <time>2018-05-09T08:24:07.000Z</time>
      </trkpt>
      <trkpt lat="44.23568" lon="7.0514">
        <ele>2246.3999023438</ele>
        <time>2018-05-09T08:24:08.000Z</time>
      </trkpt>
      <trkpt lat="44.23568" lon="7.05141">
        <ele>2246.6000976562</ele>
        <time>2018-05-09T08:24:10.000Z</time>
      </trkpt>
      <trkpt lat="44.23564" lon="7.05142">
        <ele>2247.3999023438</ele>
        <time>2018-05-09T08:24:18.000Z</time>
      </trkpt>
      <trkpt lat="44.23559" lon="7.05147">
        <ele>2248.1999511719</ele>
        <time>2018-05-09T08:24:29.000Z</time>
      </trkpt>
      <trkpt lat="44.23559" lon="7.05148">
        <ele>2248.6000976562</ele>
        <time>2018-05-09T08:24:31.000Z</time>
      </trkpt>
      <trkpt lat="44.23559" lon="7.05154">
        <ele>2249.1999511719</ele>
        <time>2018-05-09T08:24:37.000Z</time>
      </trkpt>
      <trkpt lat="44.23555" lon="7.05153">
        <ele>2249.6000976562</ele>
        <time>2018-05-09T08:24:42.000Z</time>
      </trkpt>
      <trkpt lat="44.23551" lon="7.0515">
        <ele>2250</ele>
        <time>2018-05-09T08:24:46.000Z</time>
      </trkpt>
      <trkpt lat="44.2355" lon="7.0515">
        <ele>2250</ele>
        <time>2018-05-09T08:24:47.000Z</time>
      </trkpt>
      <trkpt lat="44.23545" lon="7.05149">
        <ele>2250.6000976562</ele>
        <time>2018-05-09T08:24:51.000Z</time>
      </trkpt>
      <trkpt lat="44.23544" lon="7.05149">
        <ele>2250.6000976562</ele>
        <time>2018-05-09T08:24:52.000Z</time>
      </trkpt>
      <trkpt lat="44.23538" lon="7.05151">
        <ele>2251.8000488281</ele>
        <time>2018-05-09T08:25:03.000Z</time>
      </trkpt>
      <trkpt lat="44.23536" lon="7.05153">
        <ele>2252.1999511719</ele>
        <time>2018-05-09T08:25:06.000Z</time>
      </trkpt>
      <trkpt lat="44.23534" lon="7.05154">
        <ele>2252.3999023438</ele>
        <time>2018-05-09T08:25:10.000Z</time>
      </trkpt>
      <trkpt lat="44.23532" lon="7.05154">
        <ele>2252.8000488281</ele>
        <time>2018-05-09T08:25:15.000Z</time>
      </trkpt>
      <trkpt lat="44.23531" lon="7.05154">
        <ele>2253</ele>
        <time>2018-05-09T08:25:17.000Z</time>
      </trkpt>
      <trkpt lat="44.23526" lon="7.05153">
        <ele>2253.6000976562</ele>
        <time>2018-05-09T08:25:24.000Z</time>
      </trkpt>
      <trkpt lat="44.23523" lon="7.05153">
        <ele>2253.8000488281</ele>
        <time>2018-05-09T08:25:27.000Z</time>
      </trkpt>
      <trkpt lat="44.23518" lon="7.05152">
        <ele>2254.3999023438</ele>
        <time>2018-05-09T08:25:31.000Z</time>
      </trkpt>
      <trkpt lat="44.23516" lon="7.05151">
        <ele>2254.6000976562</ele>
        <time>2018-05-09T08:25:33.000Z</time>
      </trkpt>
      <trkpt lat="44.23515" lon="7.05148">
        <ele>2254.8000488281</ele>
        <time>2018-05-09T08:25:36.000Z</time>
      </trkpt>
      <trkpt lat="44.2351" lon="7.05148">
        <ele>2255.3999023438</ele>
        <time>2018-05-09T08:25:42.000Z</time>
      </trkpt>
      <trkpt lat="44.23507" lon="7.05148">
        <ele>2255.6000976562</ele>
        <time>2018-05-09T08:25:45.000Z</time>
      </trkpt>
      <trkpt lat="44.23507" lon="7.05148">
        <ele>2255.6000976562</ele>
        <time>2018-05-09T08:25:46.000Z</time>
      </trkpt>
      <trkpt lat="44.23507" lon="7.05149">
        <ele>2255.8000488281</ele>
        <time>2018-05-09T08:25:47.000Z</time>
      </trkpt>
      <trkpt lat="44.23506" lon="7.0515">
        <ele>2256</ele>
        <time>2018-05-09T08:25:49.000Z</time>
      </trkpt>
      <trkpt lat="44.23506" lon="7.0515">
        <ele>2256.1999511719</ele>
        <time>2018-05-09T08:25:50.000Z</time>
      </trkpt>
      <trkpt lat="44.23507" lon="7.05151">
        <ele>2256.3999023438</ele>
        <time>2018-05-09T08:25:51.000Z</time>
      </trkpt>
      <trkpt lat="44.23506" lon="7.05152">
        <ele>2256.6000976562</ele>
        <time>2018-05-09T08:25:52.000Z</time>
      </trkpt>
      <trkpt lat="44.23506" lon="7.05153">
        <ele>2256.8000488281</ele>
        <time>2018-05-09T08:25:54.000Z</time>
      </trkpt>
      <trkpt lat="44.23506" lon="7.05154">
        <ele>2257</ele>
        <time>2018-05-09T08:25:55.000Z</time>
      </trkpt>
      <trkpt lat="44.23496" lon="7.05164">
        <ele>2258</ele>
        <time>2018-05-09T08:26:06.000Z</time>
      </trkpt>
      <trkpt lat="44.23495" lon="7.05164">
        <ele>2258</ele>
        <time>2018-05-09T08:26:07.000Z</time>
      </trkpt>
      <trkpt lat="44.23495" lon="7.05164">
        <ele>2258.1999511719</ele>
        <time>2018-05-09T08:26:08.000Z</time>
      </trkpt>
      <trkpt lat="44.2349" lon="7.05164">
        <ele>2259</ele>
        <time>2018-05-09T08:26:18.000Z</time>
      </trkpt>
      <trkpt lat="44.23487" lon="7.05163">
        <ele>2260.1999511719</ele>
        <time>2018-05-09T08:26:26.000Z</time>
      </trkpt>
      <trkpt lat="44.2348" lon="7.05162">
        <ele>2260.8000488281</ele>
        <time>2018-05-09T08:26:34.000Z</time>
      </trkpt>
      <trkpt lat="44.23477" lon="7.0516">
        <ele>2261.3999023438</ele>
        <time>2018-05-09T08:26:36.000Z</time>
      </trkpt>
      <trkpt lat="44.23476" lon="7.0516">
        <ele>2261.3999023438</ele>
        <time>2018-05-09T08:26:37.000Z</time>
      </trkpt>
      <trkpt lat="44.23475" lon="7.0516">
        <ele>2261.6000976562</ele>
        <time>2018-05-09T08:26:39.000Z</time>
      </trkpt>
      <trkpt lat="44.2347" lon="7.05161">
        <ele>2262.3999023438</ele>
        <time>2018-05-09T08:26:45.000Z</time>
      </trkpt>
      <trkpt lat="44.2347" lon="7.05161">
        <ele>2262.6000976562</ele>
        <time>2018-05-09T08:26:46.000Z</time>
      </trkpt>
      <trkpt lat="44.23468" lon="7.05161">
        <ele>2262.8000488281</ele>
        <time>2018-05-09T08:26:49.000Z</time>
      </trkpt>
      <trkpt lat="44.23467" lon="7.05166">
        <ele>2263.6000976562</ele>
        <time>2018-05-09T08:26:56.000Z</time>
      </trkpt>
      <trkpt lat="44.23465" lon="7.05168">
        <ele>2264.6000976562</ele>
        <time>2018-05-09T08:27:03.000Z</time>
      </trkpt>
      <trkpt lat="44.23464" lon="7.05168">
        <ele>2264.8000488281</ele>
        <time>2018-05-09T08:27:05.000Z</time>
      </trkpt>
      <trkpt lat="44.23456" lon="7.05163">
        <ele>2265.6000976562</ele>
        <time>2018-05-09T08:27:14.000Z</time>
      </trkpt>
      <trkpt lat="44.23451" lon="7.0516">
        <ele>2266.8000488281</ele>
        <time>2018-05-09T08:27:24.000Z</time>
      </trkpt>
      <trkpt lat="44.2345" lon="7.0516">
        <ele>2267</ele>
        <time>2018-05-09T08:27:26.000Z</time>
      </trkpt>
      <trkpt lat="44.23449" lon="7.0516">
        <ele>2267.1999511719</ele>
        <time>2018-05-09T08:27:27.000Z</time>
      </trkpt>
      <trkpt lat="44.23449" lon="7.0516">
        <ele>2267.1999511719</ele>
        <time>2018-05-09T08:27:28.000Z</time>
      </trkpt>
      <trkpt lat="44.23444" lon="7.05159">
        <ele>2267.8000488281</ele>
        <time>2018-05-09T08:27:33.000Z</time>
      </trkpt>
      <trkpt lat="44.23444" lon="7.05158">
        <ele>2268</ele>
        <time>2018-05-09T08:27:34.000Z</time>
      </trkpt>
      <trkpt lat="44.23438" lon="7.05154">
        <ele>2269</ele>
        <time>2018-05-09T08:27:42.000Z</time>
      </trkpt>
      <trkpt lat="44.23436" lon="7.05152">
        <ele>2269.3999023438</ele>
        <time>2018-05-09T08:27:47.000Z</time>
      </trkpt>
      <trkpt lat="44.23435" lon="7.05152">
        <ele>2269.6000976562</ele>
        <time>2018-05-09T08:27:48.000Z</time>
      </trkpt>
      <trkpt lat="44.23435" lon="7.05152">
        <ele>2269.6000976562</ele>
        <time>2018-05-09T08:27:49.000Z</time>
      </trkpt>
      <trkpt lat="44.23437" lon="7.05155">
        <ele>2270</ele>
        <time>2018-05-09T08:27:51.000Z</time>
      </trkpt>
      <trkpt lat="44.23436" lon="7.05157">
        <ele>2270.3999023438</ele>
        <time>2018-05-09T08:27:54.000Z</time>
      </trkpt>
      <trkpt lat="44.23433" lon="7.05157">
        <ele>2271</ele>
        <time>2018-05-09T08:28:00.000Z</time>
      </trkpt>
      <trkpt lat="44.23426" lon="7.05156">
        <ele>2272.1999511719</ele>
        <time>2018-05-09T08:28:08.000Z</time>
      </trkpt>
      <trkpt lat="44.23422" lon="7.05155">
        <ele>2273.1999511719</ele>
        <time>2018-05-09T08:28:18.000Z</time>
      </trkpt>
      <trkpt lat="44.23416" lon="7.05153">
        <ele>2274.1999511719</ele>
        <time>2018-05-09T08:28:29.000Z</time>
      </trkpt>
      <trkpt lat="44.2341" lon="7.05151">
        <ele>2275.3999023438</ele>
        <time>2018-05-09T08:28:40.000Z</time>
      </trkpt>
      <trkpt lat="44.23406" lon="7.0515">
        <ele>2276.3999023438</ele>
        <time>2018-05-09T08:28:49.000Z</time>
      </trkpt>
      <trkpt lat="44.234" lon="7.0515">
        <ele>2277.3999023438</ele>
        <time>2018-05-09T08:28:58.000Z</time>
      </trkpt>
      <trkpt lat="44.23397" lon="7.05151">
        <ele>2277.6000976562</ele>
        <time>2018-05-09T08:29:02.000Z</time>
      </trkpt>
      <trkpt lat="44.23395" lon="7.05151">
        <ele>2278.3999023438</ele>
        <time>2018-05-09T08:29:08.000Z</time>
      </trkpt>
      <trkpt lat="44.2339" lon="7.05151">
        <ele>2279.6000976562</ele>
        <time>2018-05-09T08:29:17.000Z</time>
      </trkpt>
      <trkpt lat="44.23384" lon="7.0515">
        <ele>2280.6000976562</ele>
        <time>2018-05-09T08:29:27.000Z</time>
      </trkpt>
      <trkpt lat="44.23382" lon="7.0515">
        <ele>2281</ele>
        <time>2018-05-09T08:29:32.000Z</time>
      </trkpt>
      <trkpt lat="44.23381" lon="7.0515">
        <ele>2281</ele>
        <time>2018-05-09T08:29:33.000Z</time>
      </trkpt>
      <trkpt lat="44.23379" lon="7.05149">
        <ele>2281.3999023438</ele>
        <time>2018-05-09T08:29:38.000Z</time>
      </trkpt>
      <trkpt lat="44.23378" lon="7.05149">
        <ele>2281.6000976562</ele>
        <time>2018-05-09T08:29:39.000Z</time>
      </trkpt>
      <trkpt lat="44.23378" lon="7.05149">
        <ele>2281.6000976562</ele>
        <time>2018-05-09T08:29:40.000Z</time>
      </trkpt>
      <trkpt lat="44.23375" lon="7.05149">
        <ele>2282.1999511719</ele>
        <time>2018-05-09T08:29:45.000Z</time>
      </trkpt>
      <trkpt lat="44.23374" lon="7.0515">
        <ele>2282.3999023438</ele>
        <time>2018-05-09T08:29:47.000Z</time>
      </trkpt>
      <trkpt lat="44.23371" lon="7.0515">
        <ele>2282.8000488281</ele>
        <time>2018-05-09T08:29:51.000Z</time>
      </trkpt>
      <trkpt lat="44.2337" lon="7.0515">
        <ele>2282.8000488281</ele>
        <time>2018-05-09T08:29:52.000Z</time>
      </trkpt>
      <trkpt lat="44.23367" lon="7.0515">
        <ele>2283.1999511719</ele>
        <time>2018-05-09T08:29:55.000Z</time>
      </trkpt>
      <trkpt lat="44.23363" lon="7.0515">
        <ele>2283.8000488281</ele>
        <time>2018-05-09T08:30:01.000Z</time>
      </trkpt>
      <trkpt lat="44.2336" lon="7.0515">
        <ele>2284.6000976562</ele>
        <time>2018-05-09T08:30:07.000Z</time>
      </trkpt>
      <trkpt lat="44.2336" lon="7.0515">
        <ele>2284.6000976562</ele>
        <time>2018-05-09T08:30:08.000Z</time>
      </trkpt>
      <trkpt lat="44.23358" lon="7.0515">
        <ele>2285</ele>
        <time>2018-05-09T08:30:11.000Z</time>
      </trkpt>
      <trkpt lat="44.23352" lon="7.05148">
        <ele>2285.8000488281</ele>
        <time>2018-05-09T08:30:19.000Z</time>
      </trkpt>
      <trkpt lat="44.23352" lon="7.05148">
        <ele>2285.8000488281</ele>
        <time>2018-05-09T08:30:20.000Z</time>
      </trkpt>
      <trkpt lat="44.23351" lon="7.05148">
        <ele>2286</ele>
        <time>2018-05-09T08:30:21.000Z</time>
      </trkpt>
      <trkpt lat="44.23347" lon="7.05146">
        <ele>2287.1999511719</ele>
        <time>2018-05-09T08:30:30.000Z</time>
      </trkpt>
      <trkpt lat="44.23342" lon="7.05146">
        <ele>2288.1999511719</ele>
        <time>2018-05-09T08:30:38.000Z</time>
      </trkpt>
      <trkpt lat="44.23336" lon="7.05147">
        <ele>2289.3999023438</ele>
        <time>2018-05-09T08:30:48.000Z</time>
      </trkpt>
      <trkpt lat="44.23334" lon="7.05148">
        <ele>2289.6000976562</ele>
        <time>2018-05-09T08:30:51.000Z</time>
      </trkpt>
      <trkpt lat="44.2333" lon="7.05147">
        <ele>2290.3999023438</ele>
        <time>2018-05-09T08:30:55.000Z</time>
      </trkpt>
      <trkpt lat="44.23328" lon="7.05145">
        <ele>2290.8000488281</ele>
        <time>2018-05-09T08:30:58.000Z</time>
      </trkpt>
      <trkpt lat="44.23326" lon="7.05144">
        <ele>2291.6000976562</ele>
        <time>2018-05-09T08:31:02.000Z</time>
      </trkpt>
      <trkpt lat="44.2332" lon="7.05145">
        <ele>2292.6000976562</ele>
        <time>2018-05-09T08:31:10.000Z</time>
      </trkpt>
      <trkpt lat="44.23315" lon="7.05146">
        <ele>2293.8000488281</ele>
        <time>2018-05-09T08:31:16.000Z</time>
      </trkpt>
      <trkpt lat="44.23313" lon="7.05147">
        <ele>2294.6000976562</ele>
        <time>2018-05-09T08:31:21.000Z</time>
      </trkpt>
      <trkpt lat="44.23313" lon="7.05148">
        <ele>2294.8000488281</ele>
        <time>2018-05-09T08:31:22.000Z</time>
      </trkpt>
      <trkpt lat="44.23311" lon="7.05152">
        <ele>2296</ele>
        <time>2018-05-09T08:31:27.000Z</time>
      </trkpt>
      <trkpt lat="44.23308" lon="7.05157">
        <ele>2297</ele>
        <time>2018-05-09T08:31:33.000Z</time>
      </trkpt>
      <trkpt lat="44.23306" lon="7.05158">
        <ele>2298</ele>
        <time>2018-05-09T08:31:40.000Z</time>
      </trkpt>
      <trkpt lat="44.23303" lon="7.05155">
        <ele>2298.8000488281</ele>
        <time>2018-05-09T08:31:44.000Z</time>
      </trkpt>
      <trkpt lat="44.23303" lon="7.05153">
        <ele>2299.1999511719</ele>
        <time>2018-05-09T08:31:46.000Z</time>
      </trkpt>
      <trkpt lat="44.23297" lon="7.05148">
        <ele>2300.1999511719</ele>
        <time>2018-05-09T08:31:55.000Z</time>
      </trkpt>
      <trkpt lat="44.23293" lon="7.05146">
        <ele>2301.3999023438</ele>
        <time>2018-05-09T08:32:01.000Z</time>
      </trkpt>
      <trkpt lat="44.23285" lon="7.05147">
        <ele>2302.3999023438</ele>
        <time>2018-05-09T08:32:08.000Z</time>
      </trkpt>
      <trkpt lat="44.23282" lon="7.05147">
        <ele>2303.6000976562</ele>
        <time>2018-05-09T08:32:13.000Z</time>
      </trkpt>
      <trkpt lat="44.23277" lon="7.05144">
        <ele>2304.6000976562</ele>
        <time>2018-05-09T08:32:21.000Z</time>
      </trkpt>
      <trkpt lat="44.23274" lon="7.05144">
        <ele>2305.6000976562</ele>
        <time>2018-05-09T08:32:27.000Z</time>
      </trkpt>
      <trkpt lat="44.23268" lon="7.05143">
        <ele>2306.6000976562</ele>
        <time>2018-05-09T08:32:35.000Z</time>
      </trkpt>
      <trkpt lat="44.23264" lon="7.05144">
        <ele>2307.8000488281</ele>
        <time>2018-05-09T08:32:41.000Z</time>
      </trkpt>
      <trkpt lat="44.2326" lon="7.05145">
        <ele>2308.8000488281</ele>
        <time>2018-05-09T08:32:47.000Z</time>
      </trkpt>
      <trkpt lat="44.23259" lon="7.05145">
        <ele>2310</ele>
        <time>2018-05-09T08:32:55.000Z</time>
      </trkpt>
      <trkpt lat="44.23261" lon="7.05142">
        <ele>2310</ele>
        <time>2018-05-09T08:33:02.000Z</time>
      </trkpt>
      <trkpt lat="44.2326" lon="7.05144">
        <ele>2310.1999511719</ele>
        <time>2018-05-09T08:33:12.000Z</time>
      </trkpt>
      <trkpt lat="44.2326" lon="7.05144">
        <ele>2310.3999023438</ele>
        <time>2018-05-09T08:33:17.000Z</time>
      </trkpt>
      <trkpt lat="44.2326" lon="7.05144">
        <ele>2310.3999023438</ele>
        <time>2018-05-09T08:33:19.000Z</time>
      </trkpt>
      <trkpt lat="44.2326" lon="7.05145">
        <ele>2310.3999023438</ele>
        <time>2018-05-09T08:33:21.000Z</time>
      </trkpt>
      <trkpt lat="44.23259" lon="7.05145">
        <ele>2310.6000976562</ele>
        <time>2018-05-09T08:33:26.000Z</time>
      </trkpt>
      <trkpt lat="44.23259" lon="7.05145">
        <ele>2310.6000976562</ele>
        <time>2018-05-09T08:33:29.000Z</time>
      </trkpt>
      <trkpt lat="44.23259" lon="7.05144">
        <ele>2310.6000976562</ele>
        <time>2018-05-09T08:33:31.000Z</time>
      </trkpt>
      <trkpt lat="44.23259" lon="7.05144">
        <ele>2310.6000976562</ele>
        <time>2018-05-09T08:33:38.000Z</time>
      </trkpt>
      <trkpt lat="44.23259" lon="7.05144">
        <ele>2310.6000976562</ele>
        <time>2018-05-09T08:33:39.000Z</time>
      </trkpt>
      <trkpt lat="44.2326" lon="7.05144">
        <ele>2310.6000976562</ele>
        <time>2018-05-09T08:33:43.000Z</time>
      </trkpt>
      <trkpt lat="44.2326" lon="7.05144">
        <ele>2310.6000976562</ele>
        <time>2018-05-09T08:33:45.000Z</time>
      </trkpt>
      <trkpt lat="44.23261" lon="7.05144">
        <ele>2310.6000976562</ele>
        <time>2018-05-09T08:33:48.000Z</time>
      </trkpt>
      <trkpt lat="44.23261" lon="7.05143">
        <ele>2310.6000976562</ele>
        <time>2018-05-09T08:33:52.000Z</time>
      </trkpt>
      <trkpt lat="44.2326" lon="7.05143">
        <ele>2310.6000976562</ele>
        <time>2018-05-09T08:33:59.000Z</time>
      </trkpt>
      <trkpt lat="44.2326" lon="7.05142">
        <ele>2310.3999023438</ele>
        <time>2018-05-09T08:34:03.000Z</time>
      </trkpt>
      <trkpt lat="44.2326" lon="7.05142">
        <ele>2310.3999023438</ele>
        <time>2018-05-09T08:34:04.000Z</time>
      </trkpt>
      <trkpt lat="44.23259" lon="7.05142">
        <ele>2310.3999023438</ele>
        <time>2018-05-09T08:34:05.000Z</time>
      </trkpt>
      <trkpt lat="44.23258" lon="7.05143">
        <ele>2310.3999023438</ele>
        <time>2018-05-09T08:34:06.000Z</time>
      </trkpt>
      <trkpt lat="44.23257" lon="7.05144">
        <ele>2310.3999023438</ele>
        <time>2018-05-09T08:34:07.000Z</time>
      </trkpt>
      <trkpt lat="44.23256" lon="7.05144">
        <ele>2310.1999511719</ele>
        <time>2018-05-09T08:34:09.000Z</time>
      </trkpt>
      <trkpt lat="44.23256" lon="7.05144">
        <ele>2310.1999511719</ele>
        <time>2018-05-09T08:34:11.000Z</time>
      </trkpt>
      <trkpt lat="44.23256" lon="7.05145">
        <ele>2310.1999511719</ele>
        <time>2018-05-09T08:34:16.000Z</time>
      </trkpt>
      <trkpt lat="44.23256" lon="7.05145">
        <ele>2310.1999511719</ele>
        <time>2018-05-09T08:34:19.000Z</time>
      </trkpt>
      <trkpt lat="44.23257" lon="7.05144">
        <ele>2310.1999511719</ele>
        <time>2018-05-09T08:34:23.000Z</time>
      </trkpt>
      <trkpt lat="44.23257" lon="7.05144">
        <ele>2310.1999511719</ele>
        <time>2018-05-09T08:34:24.000Z</time>
      </trkpt>
      <trkpt lat="44.23257" lon="7.05144">
        <ele>2310.1999511719</ele>
        <time>2018-05-09T08:34:25.000Z</time>
      </trkpt>
      <trkpt lat="44.23258" lon="7.05144">
        <ele>2310.1999511719</ele>
        <time>2018-05-09T08:34:27.000Z</time>
      </trkpt>
      <trkpt lat="44.23258" lon="7.05144">
        <ele>2310.1999511719</ele>
        <time>2018-05-09T08:34:28.000Z</time>
      </trkpt>
      <trkpt lat="44.23258" lon="7.05144">
        <ele>2310.1999511719</ele>
        <time>2018-05-09T08:34:29.000Z</time>
      </trkpt>
      <trkpt lat="44.23258" lon="7.05144">
        <ele>2310.1999511719</ele>
        <time>2018-05-09T08:34:30.000Z</time>
      </trkpt>
      <trkpt lat="44.23258" lon="7.05144">
        <ele>2310.1999511719</ele>
        <time>2018-05-09T08:34:32.000Z</time>
      </trkpt>
      <trkpt lat="44.23258" lon="7.05144">
        <ele>2310.1999511719</ele>
        <time>2018-05-09T08:34:35.000Z</time>
      </trkpt>
      <trkpt lat="44.23262" lon="7.05143">
        <ele>2310.1999511719</ele>
        <time>2018-05-09T08:34:49.000Z</time>
      </trkpt>
      <trkpt lat="44.23262" lon="7.05143">
        <ele>2310.1999511719</ele>
        <time>2018-05-09T08:34:50.000Z</time>
      </trkpt>
      <trkpt lat="44.23262" lon="7.05143">
        <ele>2310.1999511719</ele>
        <time>2018-05-09T08:34:51.000Z</time>
      </trkpt>
      <trkpt lat="44.23261" lon="7.05144">
        <ele>2310.1999511719</ele>
        <time>2018-05-09T08:34:54.000Z</time>
      </trkpt>
      <trkpt lat="44.23261" lon="7.05144">
        <ele>2310.1999511719</ele>
        <time>2018-05-09T08:34:55.000Z</time>
      </trkpt>
      <trkpt lat="44.2326" lon="7.05144">
        <ele>2310.1999511719</ele>
        <time>2018-05-09T08:35:03.000Z</time>
      </trkpt>
      <trkpt lat="44.23259" lon="7.05143">
        <ele>2310.1999511719</ele>
        <time>2018-05-09T08:35:09.000Z</time>
      </trkpt>
      <trkpt lat="44.23259" lon="7.05142">
        <ele>2310.1999511719</ele>
        <time>2018-05-09T08:35:10.000Z</time>
      </trkpt>
      <trkpt lat="44.23259" lon="7.05142">
        <ele>2310.1999511719</ele>
        <time>2018-05-09T08:35:11.000Z</time>
      </trkpt>
      <trkpt lat="44.23256" lon="7.0515">
        <ele>2310.1999511719</ele>
        <time>2018-05-09T08:35:19.000Z</time>
      </trkpt>
      <trkpt lat="44.23258" lon="7.05147">
        <ele>2310.1999511719</ele>
        <time>2018-05-09T08:35:21.000Z</time>
      </trkpt>
      <trkpt lat="44.23258" lon="7.05145">
        <ele>2310.1999511719</ele>
        <time>2018-05-09T08:35:24.000Z</time>
      </trkpt>
      <trkpt lat="44.23258" lon="7.05145">
        <ele>2310.1999511719</ele>
        <time>2018-05-09T08:35:27.000Z</time>
      </trkpt>
      <trkpt lat="44.23258" lon="7.05144">
        <ele>2310</ele>
        <time>2018-05-09T08:35:36.000Z</time>
      </trkpt>
      <trkpt lat="44.23258" lon="7.05144">
        <ele>2310</ele>
        <time>2018-05-09T08:35:38.000Z</time>
      </trkpt>
      <trkpt lat="44.23257" lon="7.05145">
        <ele>2310.1999511719</ele>
        <time>2018-05-09T08:35:42.000Z</time>
      </trkpt>
      <trkpt lat="44.23257" lon="7.05145">
        <ele>2310.1999511719</ele>
        <time>2018-05-09T08:35:46.000Z</time>
      </trkpt>
      <trkpt lat="44.23258" lon="7.05144">
        <ele>2310.3999023438</ele>
        <time>2018-05-09T08:35:50.000Z</time>
      </trkpt>
      <trkpt lat="44.23258" lon="7.05144">
        <ele>2310.3999023438</ele>
        <time>2018-05-09T08:35:53.000Z</time>
      </trkpt>
      <trkpt lat="44.23259" lon="7.05144">
        <ele>2310.3999023438</ele>
        <time>2018-05-09T08:35:56.000Z</time>
      </trkpt>
      <trkpt lat="44.23258" lon="7.05145">
        <ele>2310.3999023438</ele>
        <time>2018-05-09T08:36:03.000Z</time>
      </trkpt>
      <trkpt lat="44.23258" lon="7.05145">
        <ele>2310.3999023438</ele>
        <time>2018-05-09T08:36:07.000Z</time>
      </trkpt>
      <trkpt lat="44.23259" lon="7.05141">
        <ele>2310.3999023438</ele>
        <time>2018-05-09T08:36:15.000Z</time>
      </trkpt>
      <trkpt lat="44.23259" lon="7.05142">
        <ele>2310.3999023438</ele>
        <time>2018-05-09T08:36:18.000Z</time>
      </trkpt>
      <trkpt lat="44.23257" lon="7.05143">
        <ele>2310</ele>
        <time>2018-05-09T08:36:36.000Z</time>
      </trkpt>
      <trkpt lat="44.23257" lon="7.05142">
        <ele>2310</ele>
        <time>2018-05-09T08:36:40.000Z</time>
      </trkpt>
      <trkpt lat="44.23257" lon="7.05143">
        <ele>2310</ele>
        <time>2018-05-09T08:36:44.000Z</time>
      </trkpt>
      <trkpt lat="44.23257" lon="7.05143">
        <ele>2310</ele>
        <time>2018-05-09T08:36:46.000Z</time>
      </trkpt>
      <trkpt lat="44.23257" lon="7.05143">
        <ele>2310</ele>
        <time>2018-05-09T08:36:56.000Z</time>
      </trkpt>
      <trkpt lat="44.23256" lon="7.05144">
        <ele>2310</ele>
        <time>2018-05-09T08:36:58.000Z</time>
      </trkpt>
      <trkpt lat="44.23256" lon="7.05144">
        <ele>2310</ele>
        <time>2018-05-09T08:37:00.000Z</time>
      </trkpt>
      <trkpt lat="44.23257" lon="7.05144">
        <ele>2310</ele>
        <time>2018-05-09T08:37:02.000Z</time>
      </trkpt>
      <trkpt lat="44.23257" lon="7.05144">
        <ele>2310</ele>
        <time>2018-05-09T08:37:03.000Z</time>
      </trkpt>
      <trkpt lat="44.23257" lon="7.05144">
        <ele>2310</ele>
        <time>2018-05-09T08:37:04.000Z</time>
      </trkpt>
      <trkpt lat="44.23258" lon="7.05144">
        <ele>2310</ele>
        <time>2018-05-09T08:37:05.000Z</time>
      </trkpt>
      <trkpt lat="44.23258" lon="7.05143">
        <ele>2310</ele>
        <time>2018-05-09T08:37:06.000Z</time>
      </trkpt>
      <trkpt lat="44.23258" lon="7.05144">
        <ele>2310</ele>
        <time>2018-05-09T08:37:08.000Z</time>
      </trkpt>
      <trkpt lat="44.23258" lon="7.05144">
        <ele>2310</ele>
        <time>2018-05-09T08:37:13.000Z</time>
      </trkpt>
      <trkpt lat="44.23259" lon="7.05144">
        <ele>2310</ele>
        <time>2018-05-09T08:37:14.000Z</time>
      </trkpt>
      <trkpt lat="44.23259" lon="7.05144">
        <ele>2310</ele>
        <time>2018-05-09T08:37:19.000Z</time>
      </trkpt>
      <trkpt lat="44.23258" lon="7.05145">
        <ele>2310</ele>
        <time>2018-05-09T08:37:23.000Z</time>
      </trkpt>
      <trkpt lat="44.23258" lon="7.05145">
        <ele>2310</ele>
        <time>2018-05-09T08:37:24.000Z</time>
      </trkpt>
      <trkpt lat="44.23258" lon="7.05145">
        <ele>2310</ele>
        <time>2018-05-09T08:37:26.000Z</time>
      </trkpt>
      <trkpt lat="44.23258" lon="7.05145">
        <ele>2310</ele>
        <time>2018-05-09T08:37:29.000Z</time>
      </trkpt>
      <trkpt lat="44.23258" lon="7.05144">
        <ele>2310</ele>
        <time>2018-05-09T08:37:32.000Z</time>
      </trkpt>
      <trkpt lat="44.23258" lon="7.05144">
        <ele>2310</ele>
        <time>2018-05-09T08:37:34.000Z</time>
      </trkpt>
      <trkpt lat="44.23259" lon="7.05144">
        <ele>2310</ele>
        <time>2018-05-09T08:37:39.000Z</time>
      </trkpt>
      <trkpt lat="44.23259" lon="7.05144">
        <ele>2310</ele>
        <time>2018-05-09T08:37:42.000Z</time>
      </trkpt>
      <trkpt lat="44.23259" lon="7.05144">
        <ele>2310</ele>
        <time>2018-05-09T08:37:44.000Z</time>
      </trkpt>
      <trkpt lat="44.23258" lon="7.05144">
        <ele>2310</ele>
        <time>2018-05-09T08:37:53.000Z</time>
      </trkpt>
      <trkpt lat="44.23259" lon="7.05144">
        <ele>2310</ele>
        <time>2018-05-09T08:37:58.000Z</time>
      </trkpt>
      <trkpt lat="44.23259" lon="7.05144">
        <ele>2310</ele>
        <time>2018-05-09T08:38:08.000Z</time>
      </trkpt>
      <trkpt lat="44.2326" lon="7.05143">
        <ele>2310</ele>
        <time>2018-05-09T08:38:17.000Z</time>
      </trkpt>
      <trkpt lat="44.23263" lon="7.05138">
        <ele>2310</ele>
        <time>2018-05-09T08:38:26.000Z</time>
      </trkpt>
      <trkpt lat="44.23261" lon="7.0514">
        <ele>2310</ele>
        <time>2018-05-09T08:38:32.000Z</time>
      </trkpt>
      <trkpt lat="44.23259" lon="7.05141">
        <ele>2310</ele>
        <time>2018-05-09T08:38:38.000Z</time>
      </trkpt>
      <trkpt lat="44.23259" lon="7.05141">
        <ele>2310</ele>
        <time>2018-05-09T08:38:41.000Z</time>
      </trkpt>
      <trkpt lat="44.23259" lon="7.05141">
        <ele>2310</ele>
        <time>2018-05-09T08:38:42.000Z</time>
      </trkpt>
      <trkpt lat="44.23258" lon="7.05142">
        <ele>2310</ele>
        <time>2018-05-09T08:38:48.000Z</time>
      </trkpt>
      <trkpt lat="44.23258" lon="7.05142">
        <ele>2310</ele>
        <time>2018-05-09T08:38:52.000Z</time>
      </trkpt>
      <trkpt lat="44.23258" lon="7.05142">
        <ele>2310</ele>
        <time>2018-05-09T08:38:55.000Z</time>
      </trkpt>
      <trkpt lat="44.23258" lon="7.05142">
        <ele>2310</ele>
        <time>2018-05-09T08:39:03.000Z</time>
      </trkpt>
      <trkpt lat="44.23257" lon="7.05142">
        <ele>2310</ele>
        <time>2018-05-09T08:39:09.000Z</time>
      </trkpt>
      <trkpt lat="44.23257" lon="7.05142">
        <ele>2310</ele>
        <time>2018-05-09T08:39:10.000Z</time>
      </trkpt>
      <trkpt lat="44.23256" lon="7.05143">
        <ele>2310</ele>
        <time>2018-05-09T08:39:11.000Z</time>
      </trkpt>
      <trkpt lat="44.23254" lon="7.05144">
        <ele>2310</ele>
        <time>2018-05-09T08:39:14.000Z</time>
      </trkpt>
      <trkpt lat="44.23254" lon="7.05144">
        <ele>2310</ele>
        <time>2018-05-09T08:39:15.000Z</time>
      </trkpt>
      <trkpt lat="44.23254" lon="7.05144">
        <ele>2310</ele>
        <time>2018-05-09T08:39:16.000Z</time>
      </trkpt>
      <trkpt lat="44.23255" lon="7.05144">
        <ele>2310</ele>
        <time>2018-05-09T08:39:19.000Z</time>
      </trkpt>
      <trkpt lat="44.23255" lon="7.05144">
        <ele>2310</ele>
        <time>2018-05-09T08:39:20.000Z</time>
      </trkpt>
      <trkpt lat="44.23256" lon="7.05144">
        <ele>2310</ele>
        <time>2018-05-09T08:39:22.000Z</time>
      </trkpt>
      <trkpt lat="44.23256" lon="7.05144">
        <ele>2310</ele>
        <time>2018-05-09T08:39:23.000Z</time>
      </trkpt>
      <trkpt lat="44.23256" lon="7.05144">
        <ele>2310</ele>
        <time>2018-05-09T08:39:27.000Z</time>
      </trkpt>
      <trkpt lat="44.23256" lon="7.05144">
        <ele>2310</ele>
        <time>2018-05-09T08:39:32.000Z</time>
      </trkpt>
      <trkpt lat="44.23256" lon="7.05144">
        <ele>2310</ele>
        <time>2018-05-09T08:39:34.000Z</time>
      </trkpt>
      <trkpt lat="44.23256" lon="7.05144">
        <ele>2310</ele>
        <time>2018-05-09T08:39:35.000Z</time>
      </trkpt>
      <trkpt lat="44.23256" lon="7.05144">
        <ele>2310</ele>
        <time>2018-05-09T08:39:37.000Z</time>
      </trkpt>
      <trkpt lat="44.23257" lon="7.05144">
        <ele>2310</ele>
        <time>2018-05-09T08:39:40.000Z</time>
      </trkpt>
      <trkpt lat="44.23257" lon="7.05144">
        <ele>2310</ele>
        <time>2018-05-09T08:39:44.000Z</time>
      </trkpt>
      <trkpt lat="44.23257" lon="7.05144">
        <ele>2310</ele>
        <time>2018-05-09T08:39:46.000Z</time>
      </trkpt>
      <trkpt lat="44.23256" lon="7.05144">
        <ele>2310</ele>
        <time>2018-05-09T08:39:50.000Z</time>
      </trkpt>
      <trkpt lat="44.23256" lon="7.05143">
        <ele>2310</ele>
        <time>2018-05-09T08:39:52.000Z</time>
      </trkpt>
      <trkpt lat="44.23256" lon="7.05143">
        <ele>2310</ele>
        <time>2018-05-09T08:39:54.000Z</time>
      </trkpt>
      <trkpt lat="44.23257" lon="7.05142">
        <ele>2310</ele>
        <time>2018-05-09T08:39:56.000Z</time>
      </trkpt>
      <trkpt lat="44.23257" lon="7.05142">
        <ele>2310</ele>
        <time>2018-05-09T08:39:58.000Z</time>
      </trkpt>
      <trkpt lat="44.23257" lon="7.05142">
        <ele>2310</ele>
        <time>2018-05-09T08:39:59.000Z</time>
      </trkpt>
      <trkpt lat="44.23257" lon="7.05142">
        <ele>2310</ele>
        <time>2018-05-09T08:40:01.000Z</time>
      </trkpt>
      <trkpt lat="44.23257" lon="7.05142">
        <ele>2310</ele>
        <time>2018-05-09T08:40:05.000Z</time>
      </trkpt>
      <trkpt lat="44.23258" lon="7.05142">
        <ele>2310</ele>
        <time>2018-05-09T08:40:07.000Z</time>
      </trkpt>
      <trkpt lat="44.23259" lon="7.05143">
        <ele>2310</ele>
        <time>2018-05-09T08:40:10.000Z</time>
      </trkpt>
      <trkpt lat="44.2326" lon="7.05139">
        <ele>2310</ele>
        <time>2018-05-09T08:40:16.000Z</time>
      </trkpt>
      <trkpt lat="44.23262" lon="7.05138">
        <ele>2310</ele>
        <time>2018-05-09T08:40:19.000Z</time>
      </trkpt>
      <trkpt lat="44.23262" lon="7.05139">
        <ele>2310</ele>
        <time>2018-05-09T08:40:25.000Z</time>
      </trkpt>
      <trkpt lat="44.23263" lon="7.05142">
        <ele>2310</ele>
        <time>2018-05-09T08:40:30.000Z</time>
      </trkpt>
      <trkpt lat="44.23263" lon="7.05143">
        <ele>2310</ele>
        <time>2018-05-09T08:40:33.000Z</time>
      </trkpt>
      <trkpt lat="44.23262" lon="7.05144">
        <ele>2310</ele>
        <time>2018-05-09T08:40:37.000Z</time>
      </trkpt>
      <trkpt lat="44.23262" lon="7.05144">
        <ele>2310</ele>
        <time>2018-05-09T08:40:38.000Z</time>
      </trkpt>
      <trkpt lat="44.23262" lon="7.05144">
        <ele>2310</ele>
        <time>2018-05-09T08:40:41.000Z</time>
      </trkpt>
      <trkpt lat="44.23262" lon="7.05144">
        <ele>2310</ele>
        <time>2018-05-09T08:40:42.000Z</time>
      </trkpt>
      <trkpt lat="44.23261" lon="7.05144">
        <ele>2310</ele>
        <time>2018-05-09T08:40:44.000Z</time>
      </trkpt>
      <trkpt lat="44.2326" lon="7.05144">
        <ele>2310</ele>
        <time>2018-05-09T08:40:46.000Z</time>
      </trkpt>
      <trkpt lat="44.23259" lon="7.05144">
        <ele>2310</ele>
        <time>2018-05-09T08:40:52.000Z</time>
      </trkpt>
      <trkpt lat="44.23259" lon="7.05144">
        <ele>2310</ele>
        <time>2018-05-09T08:40:56.000Z</time>
      </trkpt>
      <trkpt lat="44.23258" lon="7.05143">
        <ele>2310</ele>
        <time>2018-05-09T08:41:00.000Z</time>
      </trkpt>
      <trkpt lat="44.23258" lon="7.05143">
        <ele>2310</ele>
        <time>2018-05-09T08:41:05.000Z</time>
      </trkpt>
      <trkpt lat="44.23258" lon="7.05144">
        <ele>2310</ele>
        <time>2018-05-09T08:41:09.000Z</time>
      </trkpt>
      <trkpt lat="44.23258" lon="7.05144">
        <ele>2310</ele>
        <time>2018-05-09T08:41:14.000Z</time>
      </trkpt>
      <trkpt lat="44.23261" lon="7.0514">
        <ele>2310</ele>
        <time>2018-05-09T08:41:26.000Z</time>
      </trkpt>
      <trkpt lat="44.2326" lon="7.05142">
        <ele>2310</ele>
        <time>2018-05-09T08:41:30.000Z</time>
      </trkpt>
      <trkpt lat="44.23258" lon="7.05144">
        <ele>2310</ele>
        <time>2018-05-09T08:41:32.000Z</time>
      </trkpt>
      <trkpt lat="44.23252" lon="7.0515">
        <ele>2310</ele>
        <time>2018-05-09T08:41:35.000Z</time>
      </trkpt>
      <trkpt lat="44.23254" lon="7.05149">
        <ele>2310</ele>
        <time>2018-05-09T08:41:41.000Z</time>
      </trkpt>
      <trkpt lat="44.23256" lon="7.05147">
        <ele>2310</ele>
        <time>2018-05-09T08:41:43.000Z</time>
      </trkpt>
      <trkpt lat="44.23258" lon="7.05148">
        <ele>2310</ele>
        <time>2018-05-09T08:41:54.000Z</time>
      </trkpt>
      <trkpt lat="44.23257" lon="7.05148">
        <ele>2310</ele>
        <time>2018-05-09T08:41:57.000Z</time>
      </trkpt>
      <trkpt lat="44.23257" lon="7.0515">
        <ele>2310</ele>
        <time>2018-05-09T08:42:00.000Z</time>
      </trkpt>
      <trkpt lat="44.23257" lon="7.05148">
        <ele>2310</ele>
        <time>2018-05-09T08:42:08.000Z</time>
      </trkpt>
      <trkpt lat="44.23259" lon="7.05146">
        <ele>2310</ele>
        <time>2018-05-09T08:42:16.000Z</time>
      </trkpt>
      <trkpt lat="44.23258" lon="7.05146">
        <ele>2310</ele>
        <time>2018-05-09T08:42:19.000Z</time>
      </trkpt>
      <trkpt lat="44.23258" lon="7.05146">
        <ele>2310</ele>
        <time>2018-05-09T08:42:20.000Z</time>
      </trkpt>
      <trkpt lat="44.23258" lon="7.05147">
        <ele>2310</ele>
        <time>2018-05-09T08:42:21.000Z</time>
      </trkpt>
      <trkpt lat="44.23256" lon="7.05146">
        <ele>2310</ele>
        <time>2018-05-09T08:42:25.000Z</time>
      </trkpt>
      <trkpt lat="44.23254" lon="7.05144">
        <ele>2310</ele>
        <time>2018-05-09T08:42:37.000Z</time>
      </trkpt>
      <trkpt lat="44.23249" lon="7.05142">
        <ele>2310</ele>
        <time>2018-05-09T08:42:48.000Z</time>
      </trkpt>
      <trkpt lat="44.23247" lon="7.05141">
        <ele>2311.1999511719</ele>
        <time>2018-05-09T08:42:53.000Z</time>
      </trkpt>
      <trkpt lat="44.23246" lon="7.0514">
        <ele>2311.8000488281</ele>
        <time>2018-05-09T08:42:56.000Z</time>
      </trkpt>
      <trkpt lat="44.23245" lon="7.05139">
        <ele>2312.1999511719</ele>
        <time>2018-05-09T08:43:01.000Z</time>
      </trkpt>
      <trkpt lat="44.23244" lon="7.05139">
        <ele>2312.3999023438</ele>
        <time>2018-05-09T08:43:03.000Z</time>
      </trkpt>
      <trkpt lat="44.23241" lon="7.05141">
        <ele>2313.1999511719</ele>
        <time>2018-05-09T08:43:09.000Z</time>
      </trkpt>
      <trkpt lat="44.23238" lon="7.0514">
        <ele>2313.3999023438</ele>
        <time>2018-05-09T08:43:20.000Z</time>
      </trkpt>
      <trkpt lat="44.23233" lon="7.05137">
        <ele>2314.3999023438</ele>
        <time>2018-05-09T08:43:31.000Z</time>
      </trkpt>
      <trkpt lat="44.23232" lon="7.05134">
        <ele>2315.6000976562</ele>
        <time>2018-05-09T08:43:40.000Z</time>
      </trkpt>
      <trkpt lat="44.23229" lon="7.05132">
        <ele>2316.6000976562</ele>
        <time>2018-05-09T08:43:52.000Z</time>
      </trkpt>
      <trkpt lat="44.23224" lon="7.05131">
        <ele>2317.8000488281</ele>
        <time>2018-05-09T08:43:58.000Z</time>
      </trkpt>
      <trkpt lat="44.23221" lon="7.05131">
        <ele>2318.3999023438</ele>
        <time>2018-05-09T08:44:02.000Z</time>
      </trkpt>
      <trkpt lat="44.2322" lon="7.05133">
        <ele>2318.6000976562</ele>
        <time>2018-05-09T08:44:04.000Z</time>
      </trkpt>
      <trkpt lat="44.2322" lon="7.05133">
        <ele>2318.8000488281</ele>
        <time>2018-05-09T08:44:05.000Z</time>
      </trkpt>
      <trkpt lat="44.2322" lon="7.05135">
        <ele>2319.3999023438</ele>
        <time>2018-05-09T08:44:08.000Z</time>
      </trkpt>
      <trkpt lat="44.23218" lon="7.05139">
        <ele>2320</ele>
        <time>2018-05-09T08:44:12.000Z</time>
      </trkpt>
      <trkpt lat="44.23217" lon="7.0514">
        <ele>2320.1999511719</ele>
        <time>2018-05-09T08:44:14.000Z</time>
      </trkpt>
      <trkpt lat="44.23217" lon="7.05144">
        <ele>2320.8000488281</ele>
        <time>2018-05-09T08:44:19.000Z</time>
      </trkpt>
      <trkpt lat="44.23217" lon="7.05145">
        <ele>2321</ele>
        <time>2018-05-09T08:44:20.000Z</time>
      </trkpt>
      <trkpt lat="44.23218" lon="7.05146">
        <ele>2321.3999023438</ele>
        <time>2018-05-09T08:44:24.000Z</time>
      </trkpt>
      <trkpt lat="44.23216" lon="7.05149">
        <ele>2322</ele>
        <time>2018-05-09T08:44:31.000Z</time>
      </trkpt>
      <trkpt lat="44.23215" lon="7.05153">
        <ele>2323</ele>
        <time>2018-05-09T08:44:38.000Z</time>
      </trkpt>
      <trkpt lat="44.23215" lon="7.05153">
        <ele>2323.1999511719</ele>
        <time>2018-05-09T08:44:39.000Z</time>
      </trkpt>
      <trkpt lat="44.2321" lon="7.05153">
        <ele>2323.8000488281</ele>
        <time>2018-05-09T08:44:45.000Z</time>
      </trkpt>
      <trkpt lat="44.23206" lon="7.0515">
        <ele>2324.1999511719</ele>
        <time>2018-05-09T08:44:51.000Z</time>
      </trkpt>
      <trkpt lat="44.23203" lon="7.05149">
        <ele>2325.3999023438</ele>
        <time>2018-05-09T08:44:58.000Z</time>
      </trkpt>
      <trkpt lat="44.232" lon="7.05144">
        <ele>2326.6000976562</ele>
        <time>2018-05-09T08:45:07.000Z</time>
      </trkpt>
      <trkpt lat="44.23195" lon="7.05142">
        <ele>2327.6000976562</ele>
        <time>2018-05-09T08:45:18.000Z</time>
      </trkpt>
      <trkpt lat="44.23197" lon="7.05143">
        <ele>2328.8000488281</ele>
        <time>2018-05-09T08:45:25.000Z</time>
      </trkpt>
      <trkpt lat="44.23198" lon="7.05147">
        <ele>2329.1999511719</ele>
        <time>2018-05-09T08:45:29.000Z</time>
      </trkpt>
      <trkpt lat="44.23198" lon="7.05149">
        <ele>2329.3999023438</ele>
        <time>2018-05-09T08:45:30.000Z</time>
      </trkpt>
      <trkpt lat="44.23197" lon="7.05152">
        <ele>2329.8000488281</ele>
        <time>2018-05-09T08:45:33.000Z</time>
      </trkpt>
      <trkpt lat="44.23195" lon="7.0516">
        <ele>2330.8000488281</ele>
        <time>2018-05-09T08:45:41.000Z</time>
      </trkpt>
      <trkpt lat="44.23196" lon="7.05165">
        <ele>2332</ele>
        <time>2018-05-09T08:45:50.000Z</time>
      </trkpt>
      <trkpt lat="44.23191" lon="7.0516">
        <ele>2333</ele>
        <time>2018-05-09T08:46:00.000Z</time>
      </trkpt>
      <trkpt lat="44.23183" lon="7.05155">
        <ele>2334</ele>
        <time>2018-05-09T08:46:11.000Z</time>
      </trkpt>
      <trkpt lat="44.2318" lon="7.05151">
        <ele>2335</ele>
        <time>2018-05-09T08:46:20.000Z</time>
      </trkpt>
      <trkpt lat="44.23177" lon="7.05148">
        <ele>2336.1999511719</ele>
        <time>2018-05-09T08:46:28.000Z</time>
      </trkpt>
      <trkpt lat="44.23175" lon="7.05145">
        <ele>2337</ele>
        <time>2018-05-09T08:46:36.000Z</time>
      </trkpt>
      <trkpt lat="44.23174" lon="7.05145">
        <ele>2337.1999511719</ele>
        <time>2018-05-09T08:46:37.000Z</time>
      </trkpt>
      <trkpt lat="44.2317" lon="7.05142">
        <ele>2338.1999511719</ele>
        <time>2018-05-09T08:46:47.000Z</time>
      </trkpt>
      <trkpt lat="44.23167" lon="7.0514">
        <ele>2339.1999511719</ele>
        <time>2018-05-09T08:46:54.000Z</time>
      </trkpt>
      <trkpt lat="44.23164" lon="7.05138">
        <ele>2340.3999023438</ele>
        <time>2018-05-09T08:47:03.000Z</time>
      </trkpt>
      <trkpt lat="44.23159" lon="7.05135">
        <ele>2341.3999023438</ele>
        <time>2018-05-09T08:47:13.000Z</time>
      </trkpt>
      <trkpt lat="44.23157" lon="7.05134">
        <ele>2342.1999511719</ele>
        <time>2018-05-09T08:47:18.000Z</time>
      </trkpt>
      <trkpt lat="44.23156" lon="7.05134">
        <ele>2342.6000976562</ele>
        <time>2018-05-09T08:47:20.000Z</time>
      </trkpt>
      <trkpt lat="44.23153" lon="7.05132">
        <ele>2343.1999511719</ele>
        <time>2018-05-09T08:47:26.000Z</time>
      </trkpt>
      <trkpt lat="44.23151" lon="7.05132">
        <ele>2343.6000976562</ele>
        <time>2018-05-09T08:47:29.000Z</time>
      </trkpt>
      <trkpt lat="44.23147" lon="7.05129">
        <ele>2344.6000976562</ele>
        <time>2018-05-09T08:47:37.000Z</time>
      </trkpt>
      <trkpt lat="44.23142" lon="7.05127">
        <ele>2345.6000976562</ele>
        <time>2018-05-09T08:47:46.000Z</time>
      </trkpt>
      <trkpt lat="44.23139" lon="7.05124">
        <ele>2346.8000488281</ele>
        <time>2018-05-09T08:47:53.000Z</time>
      </trkpt>
      <trkpt lat="44.23136" lon="7.05122">
        <ele>2347.8000488281</ele>
        <time>2018-05-09T08:48:01.000Z</time>
      </trkpt>
      <trkpt lat="44.23131" lon="7.05119">
        <ele>2348.8000488281</ele>
        <time>2018-05-09T08:48:10.000Z</time>
      </trkpt>
      <trkpt lat="44.23128" lon="7.05119">
        <ele>2350</ele>
        <time>2018-05-09T08:48:19.000Z</time>
      </trkpt>
      <trkpt lat="44.23126" lon="7.05124">
        <ele>2351</ele>
        <time>2018-05-09T08:48:28.000Z</time>
      </trkpt>
      <trkpt lat="44.23124" lon="7.05129">
        <ele>2352</ele>
        <time>2018-05-09T08:48:35.000Z</time>
      </trkpt>
      <trkpt lat="44.23123" lon="7.05132">
        <ele>2352.3999023438</ele>
        <time>2018-05-09T08:48:39.000Z</time>
      </trkpt>
      <trkpt lat="44.23122" lon="7.05133">
        <ele>2352.6000976562</ele>
        <time>2018-05-09T08:48:40.000Z</time>
      </trkpt>
      <trkpt lat="44.23122" lon="7.05135">
        <ele>2353.1999511719</ele>
        <time>2018-05-09T08:48:44.000Z</time>
      </trkpt>
      <trkpt lat="44.23121" lon="7.0514">
        <ele>2354.1999511719</ele>
        <time>2018-05-09T08:48:53.000Z</time>
      </trkpt>
      <trkpt lat="44.23118" lon="7.05146">
        <ele>2355.3999023438</ele>
        <time>2018-05-09T08:49:02.000Z</time>
      </trkpt>
      <trkpt lat="44.23116" lon="7.0515">
        <ele>2356.3999023438</ele>
        <time>2018-05-09T08:49:11.000Z</time>
      </trkpt>
      <trkpt lat="44.23112" lon="7.05151">
        <ele>2357.3999023438</ele>
        <time>2018-05-09T08:49:19.000Z</time>
      </trkpt>
      <trkpt lat="44.23109" lon="7.05148">
        <ele>2358.3999023438</ele>
        <time>2018-05-09T08:49:27.000Z</time>
      </trkpt>
      <trkpt lat="44.23106" lon="7.05146">
        <ele>2359.6000976562</ele>
        <time>2018-05-09T08:49:36.000Z</time>
      </trkpt>
      <trkpt lat="44.23101" lon="7.05144">
        <ele>2360.6000976562</ele>
        <time>2018-05-09T08:49:50.000Z</time>
      </trkpt>
      <trkpt lat="44.23098" lon="7.05142">
        <ele>2361.6000976562</ele>
        <time>2018-05-09T08:49:56.000Z</time>
      </trkpt>
      <trkpt lat="44.23093" lon="7.05141">
        <ele>2362.8000488281</ele>
        <time>2018-05-09T08:50:05.000Z</time>
      </trkpt>
      <trkpt lat="44.23092" lon="7.05142">
        <ele>2363.8000488281</ele>
        <time>2018-05-09T08:50:13.000Z</time>
      </trkpt>
      <trkpt lat="44.23089" lon="7.0515">
        <ele>2365</ele>
        <time>2018-05-09T08:50:24.000Z</time>
      </trkpt>
      <trkpt lat="44.23088" lon="7.05154">
        <ele>2366</ele>
        <time>2018-05-09T08:50:31.000Z</time>
      </trkpt>
      <trkpt lat="44.23086" lon="7.05163">
        <ele>2367.1999511719</ele>
        <time>2018-05-09T08:50:39.000Z</time>
      </trkpt>
      <trkpt lat="44.23083" lon="7.05166">
        <ele>2368</ele>
        <time>2018-05-09T08:50:46.000Z</time>
      </trkpt>
      <trkpt lat="44.23083" lon="7.05167">
        <ele>2368.1999511719</ele>
        <time>2018-05-09T08:50:47.000Z</time>
      </trkpt>
      <trkpt lat="44.23079" lon="7.05167">
        <ele>2369.1999511719</ele>
        <time>2018-05-09T08:50:55.000Z</time>
      </trkpt>
      <trkpt lat="44.23076" lon="7.05164">
        <ele>2370.1999511719</ele>
        <time>2018-05-09T08:51:03.000Z</time>
      </trkpt>
      <trkpt lat="44.23074" lon="7.05163">
        <ele>2371.3999023438</ele>
        <time>2018-05-09T08:51:10.000Z</time>
      </trkpt>
      <trkpt lat="44.23073" lon="7.05162">
        <ele>2371.3999023438</ele>
        <time>2018-05-09T08:51:15.000Z</time>
      </trkpt>
      <trkpt lat="44.23072" lon="7.05161">
        <ele>2371.6000976562</ele>
        <time>2018-05-09T08:51:17.000Z</time>
      </trkpt>
      <trkpt lat="44.23072" lon="7.0516">
        <ele>2371.8000488281</ele>
        <time>2018-05-09T08:51:19.000Z</time>
      </trkpt>
      <trkpt lat="44.23071" lon="7.05159">
        <ele>2372.3999023438</ele>
        <time>2018-05-09T08:51:22.000Z</time>
      </trkpt>
      <trkpt lat="44.23069" lon="7.05156">
        <ele>2373.3999023438</ele>
        <time>2018-05-09T08:51:28.000Z</time>
      </trkpt>
      <trkpt lat="44.23068" lon="7.05155">
        <ele>2373.3999023438</ele>
        <time>2018-05-09T08:51:29.000Z</time>
      </trkpt>
      <trkpt lat="44.23065" lon="7.05153">
        <ele>2374.6000976562</ele>
        <time>2018-05-09T08:51:37.000Z</time>
      </trkpt>
      <trkpt lat="44.23061" lon="7.0515">
        <ele>2375.6000976562</ele>
        <time>2018-05-09T08:51:47.000Z</time>
      </trkpt>
      <trkpt lat="44.23057" lon="7.05147">
        <ele>2376.6000976562</ele>
        <time>2018-05-09T08:51:55.000Z</time>
      </trkpt>
      <trkpt lat="44.23054" lon="7.05144">
        <ele>2377.3999023438</ele>
        <time>2018-05-09T08:52:01.000Z</time>
      </trkpt>
      <trkpt lat="44.23053" lon="7.05143">
        <ele>2377.8000488281</ele>
        <time>2018-05-09T08:52:03.000Z</time>
      </trkpt>
      <trkpt lat="44.23049" lon="7.05137">
        <ele>2378.8000488281</ele>
        <time>2018-05-09T08:52:15.000Z</time>
      </trkpt>
      <trkpt lat="44.23048" lon="7.05132">
        <ele>2379.8000488281</ele>
        <time>2018-05-09T08:52:23.000Z</time>
      </trkpt>
      <trkpt lat="44.23047" lon="7.05127">
        <ele>2380.8000488281</ele>
        <time>2018-05-09T08:52:30.000Z</time>
      </trkpt>
      <trkpt lat="44.23046" lon="7.05124">
        <ele>2381.3999023438</ele>
        <time>2018-05-09T08:52:35.000Z</time>
      </trkpt>
      <trkpt lat="44.23045" lon="7.05122">
        <ele>2382</ele>
        <time>2018-05-09T08:52:39.000Z</time>
      </trkpt>
      <trkpt lat="44.23044" lon="7.05121">
        <ele>2383</ele>
        <time>2018-05-09T08:52:52.000Z</time>
      </trkpt>
      <trkpt lat="44.23044" lon="7.05121">
        <ele>2383</ele>
        <time>2018-05-09T08:52:58.000Z</time>
      </trkpt>
      <trkpt lat="44.23044" lon="7.05121">
        <ele>2383.1999511719</ele>
        <time>2018-05-09T08:53:00.000Z</time>
      </trkpt>
      <trkpt lat="44.23044" lon="7.05121">
        <ele>2383.1999511719</ele>
        <time>2018-05-09T08:53:02.000Z</time>
      </trkpt>
      <trkpt lat="44.23044" lon="7.05121">
        <ele>2383.1999511719</ele>
        <time>2018-05-09T08:53:07.000Z</time>
      </trkpt>
      <trkpt lat="44.23044" lon="7.05121">
        <ele>2383.1999511719</ele>
        <time>2018-05-09T08:53:09.000Z</time>
      </trkpt>
      <trkpt lat="44.23044" lon="7.05121">
        <ele>2383.1999511719</ele>
        <time>2018-05-09T08:53:10.000Z</time>
      </trkpt>
      <trkpt lat="44.23044" lon="7.05121">
        <ele>2383.1999511719</ele>
        <time>2018-05-09T08:53:12.000Z</time>
      </trkpt>
      <trkpt lat="44.23045" lon="7.05121">
        <ele>2383</ele>
        <time>2018-05-09T08:53:17.000Z</time>
      </trkpt>
      <trkpt lat="44.23045" lon="7.05121">
        <ele>2383</ele>
        <time>2018-05-09T08:53:18.000Z</time>
      </trkpt>
      <trkpt lat="44.23045" lon="7.05121">
        <ele>2383.1999511719</ele>
        <time>2018-05-09T08:53:19.000Z</time>
      </trkpt>
      <trkpt lat="44.23043" lon="7.05122">
        <ele>2383</ele>
        <time>2018-05-09T08:53:36.000Z</time>
      </trkpt>
      <trkpt lat="44.23044" lon="7.05122">
        <ele>2383</ele>
        <time>2018-05-09T08:53:38.000Z</time>
      </trkpt>
      <trkpt lat="44.23045" lon="7.05121">
        <ele>2383.1999511719</ele>
        <time>2018-05-09T08:53:41.000Z</time>
      </trkpt>
      <trkpt lat="44.23045" lon="7.05121">
        <ele>2383.1999511719</ele>
        <time>2018-05-09T08:53:42.000Z</time>
      </trkpt>
      <trkpt lat="44.23046" lon="7.05121">
        <ele>2383.1999511719</ele>
        <time>2018-05-09T08:53:43.000Z</time>
      </trkpt>
      <trkpt lat="44.23046" lon="7.05122">
        <ele>2383.1999511719</ele>
        <time>2018-05-09T08:53:44.000Z</time>
      </trkpt>
      <trkpt lat="44.23045" lon="7.05122">
        <ele>2383.1999511719</ele>
        <time>2018-05-09T08:53:45.000Z</time>
      </trkpt>
      <trkpt lat="44.23045" lon="7.05123">
        <ele>2383.1999511719</ele>
        <time>2018-05-09T08:53:46.000Z</time>
      </trkpt>
      <trkpt lat="44.23045" lon="7.05123">
        <ele>2383.1999511719</ele>
        <time>2018-05-09T08:53:47.000Z</time>
      </trkpt>
      <trkpt lat="44.23045" lon="7.05123">
        <ele>2383.3999023438</ele>
        <time>2018-05-09T08:53:48.000Z</time>
      </trkpt>
      <trkpt lat="44.23045" lon="7.05122">
        <ele>2383.3999023438</ele>
        <time>2018-05-09T08:53:52.000Z</time>
      </trkpt>
      <trkpt lat="44.23045" lon="7.05121">
        <ele>2383.3999023438</ele>
        <time>2018-05-09T08:53:54.000Z</time>
      </trkpt>
      <trkpt lat="44.23045" lon="7.0512">
        <ele>2383.1999511719</ele>
        <time>2018-05-09T08:53:56.000Z</time>
      </trkpt>
      <trkpt lat="44.23044" lon="7.05118">
        <ele>2383.3999023438</ele>
        <time>2018-05-09T08:53:59.000Z</time>
      </trkpt>
      <trkpt lat="44.23042" lon="7.05116">
        <ele>2384</ele>
        <time>2018-05-09T08:54:02.000Z</time>
      </trkpt>
      <trkpt lat="44.23039" lon="7.05115">
        <ele>2384.6000976562</ele>
        <time>2018-05-09T08:54:06.000Z</time>
      </trkpt>
      <trkpt lat="44.23038" lon="7.05115">
        <ele>2384.8000488281</ele>
        <time>2018-05-09T08:54:07.000Z</time>
      </trkpt>
      <trkpt lat="44.23037" lon="7.05114">
        <ele>2385.1999511719</ele>
        <time>2018-05-09T08:54:09.000Z</time>
      </trkpt>
      <trkpt lat="44.23036" lon="7.05113">
        <ele>2385.3999023438</ele>
        <time>2018-05-09T08:54:10.000Z</time>
      </trkpt>
      <trkpt lat="44.23034" lon="7.05113">
        <ele>2386.3999023438</ele>
        <time>2018-05-09T08:54:15.000Z</time>
      </trkpt>
      <trkpt lat="44.23034" lon="7.05114">
        <ele>2387</ele>
        <time>2018-05-09T08:54:18.000Z</time>
      </trkpt>
      <trkpt lat="44.23034" lon="7.05114">
        <ele>2387.3999023438</ele>
        <time>2018-05-09T08:54:19.000Z</time>
      </trkpt>
      <trkpt lat="44.23033" lon="7.05117">
        <ele>2388</ele>
        <time>2018-05-09T08:54:22.000Z</time>
      </trkpt>
      <trkpt lat="44.23031" lon="7.05121">
        <ele>2388.3999023438</ele>
        <time>2018-05-09T08:54:25.000Z</time>
      </trkpt>
      <trkpt lat="44.23029" lon="7.05125">
        <ele>2389.3999023438</ele>
        <time>2018-05-09T08:54:32.000Z</time>
      </trkpt>
      <trkpt lat="44.23023" lon="7.05129">
        <ele>2390.3999023438</ele>
        <time>2018-05-09T08:54:37.000Z</time>
      </trkpt>
      <trkpt lat="44.23023" lon="7.05129">
        <ele>2390.6000976562</ele>
        <time>2018-05-09T08:54:38.000Z</time>
      </trkpt>
      <trkpt lat="44.23019" lon="7.05125">
        <ele>2391.8000488281</ele>
        <time>2018-05-09T08:54:44.000Z</time>
      </trkpt>
      <trkpt lat="44.23016" lon="7.0512">
        <ele>2392.8000488281</ele>
        <time>2018-05-09T08:54:51.000Z</time>
      </trkpt>
      <trkpt lat="44.23012" lon="7.05118">
        <ele>2394</ele>
        <time>2018-05-09T08:54:58.000Z</time>
      </trkpt>
      <trkpt lat="44.23011" lon="7.05122">
        <ele>2395</ele>
        <time>2018-05-09T08:55:04.000Z</time>
      </trkpt>
      <trkpt lat="44.23007" lon="7.0513">
        <ele>2396.1999511719</ele>
        <time>2018-05-09T08:55:13.000Z</time>
      </trkpt>
      <trkpt lat="44.23004" lon="7.05133">
        <ele>2397.1999511719</ele>
        <time>2018-05-09T08:55:21.000Z</time>
      </trkpt>
      <trkpt lat="44.23001" lon="7.05137">
        <ele>2398.1999511719</ele>
        <time>2018-05-09T08:55:27.000Z</time>
      </trkpt>
      <trkpt lat="44.22996" lon="7.05143">
        <ele>2399.3999023438</ele>
        <time>2018-05-09T08:55:35.000Z</time>
      </trkpt>
      <trkpt lat="44.22993" lon="7.05145">
        <ele>2400.3999023438</ele>
        <time>2018-05-09T08:55:41.000Z</time>
      </trkpt>
      <trkpt lat="44.22992" lon="7.05147">
        <ele>2401.6000976562</ele>
        <time>2018-05-09T08:55:50.000Z</time>
      </trkpt>
      <trkpt lat="44.2299" lon="7.0515">
        <ele>2402.6000976562</ele>
        <time>2018-05-09T08:55:56.000Z</time>
      </trkpt>
      <trkpt lat="44.22988" lon="7.05151">
        <ele>2403.1999511719</ele>
        <time>2018-05-09T08:55:59.000Z</time>
      </trkpt>
      <trkpt lat="44.22987" lon="7.05152">
        <ele>2403.6000976562</ele>
        <time>2018-05-09T08:56:02.000Z</time>
      </trkpt>
      <trkpt lat="44.22988" lon="7.05153">
        <ele>2404.1999511719</ele>
        <time>2018-05-09T08:56:17.000Z</time>
      </trkpt>
      <trkpt lat="44.22985" lon="7.05156">
        <ele>2404.8000488281</ele>
        <time>2018-05-09T08:56:20.000Z</time>
      </trkpt>
      <trkpt lat="44.22983" lon="7.0516">
        <ele>2405.6000976562</ele>
        <time>2018-05-09T08:56:24.000Z</time>
      </trkpt>
      <trkpt lat="44.22982" lon="7.05161">
        <ele>2405.8000488281</ele>
        <time>2018-05-09T08:56:26.000Z</time>
      </trkpt>
      <trkpt lat="44.22982" lon="7.05162">
        <ele>2406</ele>
        <time>2018-05-09T08:56:27.000Z</time>
      </trkpt>
      <trkpt lat="44.22978" lon="7.05166">
        <ele>2407</ele>
        <time>2018-05-09T08:56:33.000Z</time>
      </trkpt>
      <trkpt lat="44.22974" lon="7.05169">
        <ele>2408.1999511719</ele>
        <time>2018-05-09T08:56:39.000Z</time>
      </trkpt>
      <trkpt lat="44.22971" lon="7.05173">
        <ele>2409.3999023438</ele>
        <time>2018-05-09T08:56:48.000Z</time>
      </trkpt>
      <trkpt lat="44.22969" lon="7.05176">
        <ele>2410.3999023438</ele>
        <time>2018-05-09T08:56:53.000Z</time>
      </trkpt>
      <trkpt lat="44.22964" lon="7.05174">
        <ele>2411.6000976562</ele>
        <time>2018-05-09T08:56:58.000Z</time>
      </trkpt>
      <trkpt lat="44.22963" lon="7.05172">
        <ele>2411.8000488281</ele>
        <time>2018-05-09T08:57:01.000Z</time>
      </trkpt>
      <trkpt lat="44.22967" lon="7.05171">
        <ele>2411.8000488281</ele>
        <time>2018-05-09T08:57:16.000Z</time>
      </trkpt>
      <trkpt lat="44.22967" lon="7.0517">
        <ele>2411.8000488281</ele>
        <time>2018-05-09T08:57:30.000Z</time>
      </trkpt>
      <trkpt lat="44.22966" lon="7.05171">
        <ele>2411.8000488281</ele>
        <time>2018-05-09T08:57:33.000Z</time>
      </trkpt>
      <trkpt lat="44.22966" lon="7.05171">
        <ele>2411.8000488281</ele>
        <time>2018-05-09T08:57:34.000Z</time>
      </trkpt>
      <trkpt lat="44.22966" lon="7.05171">
        <ele>2411.8000488281</ele>
        <time>2018-05-09T08:57:36.000Z</time>
      </trkpt>
      <trkpt lat="44.22967" lon="7.05172">
        <ele>2412</ele>
        <time>2018-05-09T08:57:44.000Z</time>
      </trkpt>
      <trkpt lat="44.22968" lon="7.05172">
        <ele>2412</ele>
        <time>2018-05-09T08:57:45.000Z</time>
      </trkpt>
      <trkpt lat="44.22967" lon="7.0517">
        <ele>2411.8000488281</ele>
        <time>2018-05-09T08:58:00.000Z</time>
      </trkpt>
      <trkpt lat="44.22966" lon="7.0517">
        <ele>2412</ele>
        <time>2018-05-09T08:58:09.000Z</time>
      </trkpt>
      <trkpt lat="44.22967" lon="7.05169">
        <ele>2411.8000488281</ele>
        <time>2018-05-09T08:58:13.000Z</time>
      </trkpt>
      <trkpt lat="44.22967" lon="7.05169">
        <ele>2411.8000488281</ele>
        <time>2018-05-09T08:58:15.000Z</time>
      </trkpt>
      <trkpt lat="44.22966" lon="7.05169">
        <ele>2411.8000488281</ele>
        <time>2018-05-09T08:58:18.000Z</time>
      </trkpt>
      <trkpt lat="44.22965" lon="7.05169">
        <ele>2412</ele>
        <time>2018-05-09T08:58:23.000Z</time>
      </trkpt>
      <trkpt lat="44.22965" lon="7.05169">
        <ele>2412</ele>
        <time>2018-05-09T08:58:24.000Z</time>
      </trkpt>
      <trkpt lat="44.22965" lon="7.05169">
        <ele>2412</ele>
        <time>2018-05-09T08:58:25.000Z</time>
      </trkpt>
      <trkpt lat="44.22966" lon="7.05169">
        <ele>2412</ele>
        <time>2018-05-09T08:58:28.000Z</time>
      </trkpt>
      <trkpt lat="44.22968" lon="7.0517">
        <ele>2412</ele>
        <time>2018-05-09T08:58:34.000Z</time>
      </trkpt>
      <trkpt lat="44.22968" lon="7.05171">
        <ele>2412</ele>
        <time>2018-05-09T08:58:37.000Z</time>
      </trkpt>
      <trkpt lat="44.22968" lon="7.05171">
        <ele>2412</ele>
        <time>2018-05-09T08:58:38.000Z</time>
      </trkpt>
      <trkpt lat="44.22968" lon="7.05171">
        <ele>2412</ele>
        <time>2018-05-09T08:58:39.000Z</time>
      </trkpt>
      <trkpt lat="44.22967" lon="7.05171">
        <ele>2412</ele>
        <time>2018-05-09T08:58:40.000Z</time>
      </trkpt>
      <trkpt lat="44.22967" lon="7.05171">
        <ele>2412</ele>
        <time>2018-05-09T08:58:41.000Z</time>
      </trkpt>
      <trkpt lat="44.22967" lon="7.05171">
        <ele>2412</ele>
        <time>2018-05-09T08:58:42.000Z</time>
      </trkpt>
      <trkpt lat="44.22967" lon="7.0517">
        <ele>2412</ele>
        <time>2018-05-09T08:58:44.000Z</time>
      </trkpt>
      <trkpt lat="44.22966" lon="7.0517">
        <ele>2412</ele>
        <time>2018-05-09T08:58:52.000Z</time>
      </trkpt>
      <trkpt lat="44.22967" lon="7.05169">
        <ele>2412</ele>
        <time>2018-05-09T08:59:01.000Z</time>
      </trkpt>
      <trkpt lat="44.22968" lon="7.05168">
        <ele>2412</ele>
        <time>2018-05-09T08:59:05.000Z</time>
      </trkpt>
      <trkpt lat="44.22968" lon="7.05167">
        <ele>2412</ele>
        <time>2018-05-09T08:59:07.000Z</time>
      </trkpt>
      <trkpt lat="44.22967" lon="7.05166">
        <ele>2412</ele>
        <time>2018-05-09T08:59:09.000Z</time>
      </trkpt>
      <trkpt lat="44.22966" lon="7.05164">
        <ele>2412</ele>
        <time>2018-05-09T08:59:12.000Z</time>
      </trkpt>
      <trkpt lat="44.22964" lon="7.05162">
        <ele>2412</ele>
        <time>2018-05-09T08:59:18.000Z</time>
      </trkpt>
      <trkpt lat="44.22963" lon="7.05161">
        <ele>2412</ele>
        <time>2018-05-09T08:59:22.000Z</time>
      </trkpt>
      <trkpt lat="44.22962" lon="7.05161">
        <ele>2412</ele>
        <time>2018-05-09T08:59:23.000Z</time>
      </trkpt>
      <trkpt lat="44.22959" lon="7.05156">
        <ele>2412</ele>
        <time>2018-05-09T08:59:30.000Z</time>
      </trkpt>
      <trkpt lat="44.22959" lon="7.05155">
        <ele>2413</ele>
        <time>2018-05-09T08:59:32.000Z</time>
      </trkpt>
      <trkpt lat="44.22957" lon="7.05152">
        <ele>2413.8000488281</ele>
        <time>2018-05-09T08:59:37.000Z</time>
      </trkpt>
      <trkpt lat="44.22958" lon="7.0515">
        <ele>2414</ele>
        <time>2018-05-09T08:59:44.000Z</time>
      </trkpt>
      <trkpt lat="44.22958" lon="7.05148">
        <ele>2414</ele>
        <time>2018-05-09T08:59:48.000Z</time>
      </trkpt>
      <trkpt lat="44.22955" lon="7.05145">
        <ele>2415</ele>
        <time>2018-05-09T08:59:57.000Z</time>
      </trkpt>
      <trkpt lat="44.22953" lon="7.05143">
        <ele>2416.1999511719</ele>
        <time>2018-05-09T09:00:04.000Z</time>
      </trkpt>
      <trkpt lat="44.22953" lon="7.05143">
        <ele>2416.6000976562</ele>
        <time>2018-05-09T09:00:11.000Z</time>
      </trkpt>
      <trkpt lat="44.2295" lon="7.05149">
        <ele>2417.1999511719</ele>
        <time>2018-05-09T09:00:19.000Z</time>
      </trkpt>
      <trkpt lat="44.22949" lon="7.05151">
        <ele>2417.6000976562</ele>
        <time>2018-05-09T09:00:22.000Z</time>
      </trkpt>
      <trkpt lat="44.22948" lon="7.05154">
        <ele>2418.3999023438</ele>
        <time>2018-05-09T09:00:26.000Z</time>
      </trkpt>
      <trkpt lat="44.22945" lon="7.0516">
        <ele>2419.3999023438</ele>
        <time>2018-05-09T09:00:33.000Z</time>
      </trkpt>
      <trkpt lat="44.22942" lon="7.05169">
        <ele>2420.6000976562</ele>
        <time>2018-05-09T09:00:39.000Z</time>
      </trkpt>
      <trkpt lat="44.22941" lon="7.05172">
        <ele>2421.1999511719</ele>
        <time>2018-05-09T09:00:43.000Z</time>
      </trkpt>
      <trkpt lat="44.2294" lon="7.05172">
        <ele>2421.6000976562</ele>
        <time>2018-05-09T09:00:45.000Z</time>
      </trkpt>
      <trkpt lat="44.22939" lon="7.05174">
        <ele>2422.8000488281</ele>
        <time>2018-05-09T09:00:51.000Z</time>
      </trkpt>
      <trkpt lat="44.22936" lon="7.05178">
        <ele>2423.8000488281</ele>
        <time>2018-05-09T09:00:57.000Z</time>
      </trkpt>
      <trkpt lat="44.22934" lon="7.0518">
        <ele>2424.8000488281</ele>
        <time>2018-05-09T09:01:03.000Z</time>
      </trkpt>
      <trkpt lat="44.22933" lon="7.05179">
        <ele>2426</ele>
        <time>2018-05-09T09:01:08.000Z</time>
      </trkpt>
      <trkpt lat="44.22931" lon="7.05182">
        <ele>2426.3999023438</ele>
        <time>2018-05-09T09:01:14.000Z</time>
      </trkpt>
      <trkpt lat="44.22929" lon="7.05185">
        <ele>2427</ele>
        <time>2018-05-09T09:01:18.000Z</time>
      </trkpt>
      <trkpt lat="44.22929" lon="7.05186">
        <ele>2427.3999023438</ele>
        <time>2018-05-09T09:01:20.000Z</time>
      </trkpt>
      <trkpt lat="44.22928" lon="7.05188">
        <ele>2427.6000976562</ele>
        <time>2018-05-09T09:01:22.000Z</time>
      </trkpt>
      <trkpt lat="44.22926" lon="7.0519">
        <ele>2428.1999511719</ele>
        <time>2018-05-09T09:01:25.000Z</time>
      </trkpt>
      <trkpt lat="44.22925" lon="7.05192">
        <ele>2428.6000976562</ele>
        <time>2018-05-09T09:01:27.000Z</time>
      </trkpt>
      <trkpt lat="44.22924" lon="7.05194">
        <ele>2429</ele>
        <time>2018-05-09T09:01:29.000Z</time>
      </trkpt>
      <trkpt lat="44.22923" lon="7.05195">
        <ele>2429.1999511719</ele>
        <time>2018-05-09T09:01:31.000Z</time>
      </trkpt>
      <trkpt lat="44.22922" lon="7.05196">
        <ele>2429.3999023438</ele>
        <time>2018-05-09T09:01:32.000Z</time>
      </trkpt>
      <trkpt lat="44.22921" lon="7.05196">
        <ele>2429.6000976562</ele>
        <time>2018-05-09T09:01:34.000Z</time>
      </trkpt>
      <trkpt lat="44.22921" lon="7.05197">
        <ele>2429.8000488281</ele>
        <time>2018-05-09T09:01:35.000Z</time>
      </trkpt>
      <trkpt lat="44.22919" lon="7.05198">
        <ele>2430.1999511719</ele>
        <time>2018-05-09T09:01:38.000Z</time>
      </trkpt>
      <trkpt lat="44.22919" lon="7.05198">
        <ele>2430.6000976562</ele>
        <time>2018-05-09T09:01:41.000Z</time>
      </trkpt>
      <trkpt lat="44.22922" lon="7.05198">
        <ele>2430.8000488281</ele>
        <time>2018-05-09T09:02:00.000Z</time>
      </trkpt>
      <trkpt lat="44.2292" lon="7.052">
        <ele>2430.8000488281</ele>
        <time>2018-05-09T09:02:04.000Z</time>
      </trkpt>
      <trkpt lat="44.2292" lon="7.05199">
        <ele>2430.8000488281</ele>
        <time>2018-05-09T09:02:09.000Z</time>
      </trkpt>
      <trkpt lat="44.2292" lon="7.05199">
        <ele>2430.8000488281</ele>
        <time>2018-05-09T09:02:11.000Z</time>
      </trkpt>
      <trkpt lat="44.22921" lon="7.05199">
        <ele>2430.8000488281</ele>
        <time>2018-05-09T09:02:12.000Z</time>
      </trkpt>
      <trkpt lat="44.22921" lon="7.052">
        <ele>2431</ele>
        <time>2018-05-09T09:02:19.000Z</time>
      </trkpt>
      <trkpt lat="44.22919" lon="7.05201">
        <ele>2431.1999511719</ele>
        <time>2018-05-09T09:02:23.000Z</time>
      </trkpt>
      <trkpt lat="44.22918" lon="7.05202">
        <ele>2432</ele>
        <time>2018-05-09T09:02:26.000Z</time>
      </trkpt>
      <trkpt lat="44.22918" lon="7.05202">
        <ele>2432.1999511719</ele>
        <time>2018-05-09T09:02:28.000Z</time>
      </trkpt>
      <trkpt lat="44.22917" lon="7.05203">
        <ele>2432.3999023438</ele>
        <time>2018-05-09T09:02:30.000Z</time>
      </trkpt>
      <trkpt lat="44.22917" lon="7.05203">
        <ele>2432.3999023438</ele>
        <time>2018-05-09T09:02:31.000Z</time>
      </trkpt>
      <trkpt lat="44.22916" lon="7.05203">
        <ele>2432.3999023438</ele>
        <time>2018-05-09T09:02:32.000Z</time>
      </trkpt>
      <trkpt lat="44.22916" lon="7.05204">
        <ele>2432.3999023438</ele>
        <time>2018-05-09T09:02:33.000Z</time>
      </trkpt>
      <trkpt lat="44.22915" lon="7.05206">
        <ele>2432.3999023438</ele>
        <time>2018-05-09T09:02:36.000Z</time>
      </trkpt>
      <trkpt lat="44.22911" lon="7.0521">
        <ele>2433.6000976562</ele>
        <time>2018-05-09T09:02:43.000Z</time>
      </trkpt>
      <trkpt lat="44.22908" lon="7.05213">
        <ele>2434.8000488281</ele>
        <time>2018-05-09T09:02:49.000Z</time>
      </trkpt>
      <trkpt lat="44.22905" lon="7.05214">
        <ele>2435.3999023438</ele>
        <time>2018-05-09T09:02:53.000Z</time>
      </trkpt>
      <trkpt lat="44.22904" lon="7.05215">
        <ele>2435.6000976562</ele>
        <time>2018-05-09T09:02:56.000Z</time>
      </trkpt>
      <trkpt lat="44.22903" lon="7.05215">
        <ele>2435.8000488281</ele>
        <time>2018-05-09T09:02:57.000Z</time>
      </trkpt>
      <trkpt lat="44.22902" lon="7.05215">
        <ele>2435.8000488281</ele>
        <time>2018-05-09T09:03:01.000Z</time>
      </trkpt>
      <trkpt lat="44.22899" lon="7.05213">
        <ele>2435.8000488281</ele>
        <time>2018-05-09T09:03:07.000Z</time>
      </trkpt>
      <trkpt lat="44.229" lon="7.05211">
        <ele>2436.1999511719</ele>
        <time>2018-05-09T09:03:22.000Z</time>
      </trkpt>
      <trkpt lat="44.22901" lon="7.05207">
        <ele>2436.1999511719</ele>
        <time>2018-05-09T09:03:35.000Z</time>
      </trkpt>
      <trkpt lat="44.229" lon="7.05205">
        <ele>2436.8000488281</ele>
        <time>2018-05-09T09:03:38.000Z</time>
      </trkpt>
      <trkpt lat="44.22899" lon="7.052">
        <ele>2437.6000976562</ele>
        <time>2018-05-09T09:03:44.000Z</time>
      </trkpt>
      <trkpt lat="44.22898" lon="7.05198">
        <ele>2438</ele>
        <time>2018-05-09T09:03:46.000Z</time>
      </trkpt>
      <trkpt lat="44.22898" lon="7.05192">
        <ele>2439.1999511719</ele>
        <time>2018-05-09T09:03:54.000Z</time>
      </trkpt>
      <trkpt lat="44.22897" lon="7.05186">
        <ele>2440.3999023438</ele>
        <time>2018-05-09T09:04:02.000Z</time>
      </trkpt>
      <trkpt lat="44.22897" lon="7.05183">
        <ele>2441.1999511719</ele>
        <time>2018-05-09T09:04:07.000Z</time>
      </trkpt>
      <trkpt lat="44.22896" lon="7.05182">
        <ele>2441.6000976562</ele>
        <time>2018-05-09T09:04:09.000Z</time>
      </trkpt>
      <trkpt lat="44.22896" lon="7.05179">
        <ele>2442.6000976562</ele>
        <time>2018-05-09T09:04:14.000Z</time>
      </trkpt>
      <trkpt lat="44.22895" lon="7.05174">
        <ele>2443</ele>
        <time>2018-05-09T09:04:24.000Z</time>
      </trkpt>
      <trkpt lat="44.22895" lon="7.05175">
        <ele>2443.6000976562</ele>
        <time>2018-05-09T09:04:28.000Z</time>
      </trkpt>
      <trkpt lat="44.22895" lon="7.05175">
        <ele>2443.8000488281</ele>
        <time>2018-05-09T09:04:30.000Z</time>
      </trkpt>
      <trkpt lat="44.22896" lon="7.05175">
        <ele>2443.8000488281</ele>
        <time>2018-05-09T09:04:32.000Z</time>
      </trkpt>
      <trkpt lat="44.22896" lon="7.05175">
        <ele>2443.6000976562</ele>
        <time>2018-05-09T09:04:34.000Z</time>
      </trkpt>
      <trkpt lat="44.22896" lon="7.05175">
        <ele>2443.6000976562</ele>
        <time>2018-05-09T09:04:36.000Z</time>
      </trkpt>
      <trkpt lat="44.22892" lon="7.05185">
        <ele>2444.8000488281</ele>
        <time>2018-05-09T09:04:51.000Z</time>
      </trkpt>
      <trkpt lat="44.22892" lon="7.05186">
        <ele>2444.8000488281</ele>
        <time>2018-05-09T09:04:52.000Z</time>
      </trkpt>
      <trkpt lat="44.22891" lon="7.05186">
        <ele>2445</ele>
        <time>2018-05-09T09:04:53.000Z</time>
      </trkpt>
      <trkpt lat="44.22889" lon="7.0519">
        <ele>2445.6000976562</ele>
        <time>2018-05-09T09:04:57.000Z</time>
      </trkpt>
      <trkpt lat="44.22889" lon="7.05191">
        <ele>2445.8000488281</ele>
        <time>2018-05-09T09:04:58.000Z</time>
      </trkpt>
      <trkpt lat="44.22889" lon="7.05191">
        <ele>2445.8000488281</ele>
        <time>2018-05-09T09:04:59.000Z</time>
      </trkpt>
      <trkpt lat="44.22888" lon="7.05193">
        <ele>2446</ele>
        <time>2018-05-09T09:05:01.000Z</time>
      </trkpt>
      <trkpt lat="44.22886" lon="7.05198">
        <ele>2446.8000488281</ele>
        <time>2018-05-09T09:05:09.000Z</time>
      </trkpt>
      <trkpt lat="44.22885" lon="7.05202">
        <ele>2447.8000488281</ele>
        <time>2018-05-09T09:05:15.000Z</time>
      </trkpt>
      <trkpt lat="44.22881" lon="7.05208">
        <ele>2449</ele>
        <time>2018-05-09T09:05:23.000Z</time>
      </trkpt>
      <trkpt lat="44.22878" lon="7.05212">
        <ele>2450</ele>
        <time>2018-05-09T09:05:30.000Z</time>
      </trkpt>
      <trkpt lat="44.22876" lon="7.05217">
        <ele>2451.1999511719</ele>
        <time>2018-05-09T09:05:37.000Z</time>
      </trkpt>
      <trkpt lat="44.22877" lon="7.05218">
        <ele>2452.1999511719</ele>
        <time>2018-05-09T09:05:46.000Z</time>
      </trkpt>
      <trkpt lat="44.22875" lon="7.05222">
        <ele>2453</ele>
        <time>2018-05-09T09:06:18.000Z</time>
      </trkpt>
      <trkpt lat="44.22875" lon="7.05222">
        <ele>2453</ele>
        <time>2018-05-09T09:06:21.000Z</time>
      </trkpt>
      <trkpt lat="44.22875" lon="7.05224">
        <ele>2453.1999511719</ele>
        <time>2018-05-09T09:06:27.000Z</time>
      </trkpt>
      <trkpt lat="44.22875" lon="7.05223">
        <ele>2453.1999511719</ele>
        <time>2018-05-09T09:06:29.000Z</time>
      </trkpt>
      <trkpt lat="44.22874" lon="7.05223">
        <ele>2453.1999511719</ele>
        <time>2018-05-09T09:06:35.000Z</time>
      </trkpt>
      <trkpt lat="44.22875" lon="7.05223">
        <ele>2452.8000488281</ele>
        <time>2018-05-09T09:06:38.000Z</time>
      </trkpt>
      <trkpt lat="44.22875" lon="7.05222">
        <ele>2452.8000488281</ele>
        <time>2018-05-09T09:06:39.000Z</time>
      </trkpt>
      <trkpt lat="44.22875" lon="7.05222">
        <ele>2452.8000488281</ele>
        <time>2018-05-09T09:06:40.000Z</time>
      </trkpt>
      <trkpt lat="44.22874" lon="7.05218">
        <ele>2453.1999511719</ele>
        <time>2018-05-09T09:07:01.000Z</time>
      </trkpt>
      <trkpt lat="44.22874" lon="7.05218">
        <ele>2453.3999023438</ele>
        <time>2018-05-09T09:07:03.000Z</time>
      </trkpt>
      <trkpt lat="44.22874" lon="7.05218">
        <ele>2453.6000976562</ele>
        <time>2018-05-09T09:07:09.000Z</time>
      </trkpt>
      <trkpt lat="44.22874" lon="7.05218">
        <ele>2453.8000488281</ele>
        <time>2018-05-09T09:07:14.000Z</time>
      </trkpt>
      <trkpt lat="44.22874" lon="7.05218">
        <ele>2453.8000488281</ele>
        <time>2018-05-09T09:07:23.000Z</time>
      </trkpt>
      <trkpt lat="44.22873" lon="7.05218">
        <ele>2453.8000488281</ele>
        <time>2018-05-09T09:07:31.000Z</time>
      </trkpt>
      <trkpt lat="44.22873" lon="7.05219">
        <ele>2454</ele>
        <time>2018-05-09T09:07:44.000Z</time>
      </trkpt>
      <trkpt lat="44.22872" lon="7.05219">
        <ele>2454</ele>
        <time>2018-05-09T09:07:46.000Z</time>
      </trkpt>
      <trkpt lat="44.22872" lon="7.05219">
        <ele>2454</ele>
        <time>2018-05-09T09:07:50.000Z</time>
      </trkpt>
      <trkpt lat="44.22874" lon="7.05218">
        <ele>2453.8000488281</ele>
        <time>2018-05-09T09:08:06.000Z</time>
      </trkpt>
      <trkpt lat="44.22873" lon="7.05218">
        <ele>2453.8000488281</ele>
        <time>2018-05-09T09:08:11.000Z</time>
      </trkpt>
      <trkpt lat="44.22873" lon="7.05219">
        <ele>2453.8000488281</ele>
        <time>2018-05-09T09:08:18.000Z</time>
      </trkpt>
      <trkpt lat="44.22873" lon="7.05219">
        <ele>2453.8000488281</ele>
        <time>2018-05-09T09:08:22.000Z</time>
      </trkpt>
      <trkpt lat="44.22873" lon="7.05219">
        <ele>2453.6000976562</ele>
        <time>2018-05-09T09:08:26.000Z</time>
      </trkpt>
      <trkpt lat="44.22872" lon="7.05215">
        <ele>2454.1999511719</ele>
        <time>2018-05-09T09:08:35.000Z</time>
      </trkpt>
      <trkpt lat="44.22871" lon="7.05214">
        <ele>2454.6000976562</ele>
        <time>2018-05-09T09:08:39.000Z</time>
      </trkpt>
      <trkpt lat="44.2287" lon="7.05211">
        <ele>2455.1999511719</ele>
        <time>2018-05-09T09:08:43.000Z</time>
      </trkpt>
      <trkpt lat="44.22869" lon="7.05209">
        <ele>2455.6000976562</ele>
        <time>2018-05-09T09:08:47.000Z</time>
      </trkpt>
      <trkpt lat="44.22869" lon="7.05208">
        <ele>2456</ele>
        <time>2018-05-09T09:08:51.000Z</time>
      </trkpt>
      <trkpt lat="44.22869" lon="7.05208">
        <ele>2456.1999511719</ele>
        <time>2018-05-09T09:08:52.000Z</time>
      </trkpt>
      <trkpt lat="44.22863" lon="7.05206">
        <ele>2457.3999023438</ele>
        <time>2018-05-09T09:09:16.000Z</time>
      </trkpt>
      <trkpt lat="44.22864" lon="7.05202">
        <ele>2458.3999023438</ele>
        <time>2018-05-09T09:09:33.000Z</time>
      </trkpt>
      <trkpt lat="44.22864" lon="7.05202">
        <ele>2459</ele>
        <time>2018-05-09T09:09:40.000Z</time>
      </trkpt>
      <trkpt lat="44.22864" lon="7.05202">
        <ele>2459.1999511719</ele>
        <time>2018-05-09T09:09:41.000Z</time>
      </trkpt>
      <trkpt lat="44.22866" lon="7.05203">
        <ele>2459.1999511719</ele>
        <time>2018-05-09T09:09:52.000Z</time>
      </trkpt>
      <trkpt lat="44.22867" lon="7.05202">
        <ele>2459</ele>
        <time>2018-05-09T09:09:56.000Z</time>
      </trkpt>
      <trkpt lat="44.22866" lon="7.05202">
        <ele>2459</ele>
        <time>2018-05-09T09:10:04.000Z</time>
      </trkpt>
      <trkpt lat="44.22866" lon="7.05201">
        <ele>2459</ele>
        <time>2018-05-09T09:10:08.000Z</time>
      </trkpt>
      <trkpt lat="44.22866" lon="7.05201">
        <ele>2459.1999511719</ele>
        <time>2018-05-09T09:10:12.000Z</time>
      </trkpt>
      <trkpt lat="44.22866" lon="7.05201">
        <ele>2459.1999511719</ele>
        <time>2018-05-09T09:10:19.000Z</time>
      </trkpt>
      <trkpt lat="44.22866" lon="7.05201">
        <ele>2459.1999511719</ele>
        <time>2018-05-09T09:10:23.000Z</time>
      </trkpt>
      <trkpt lat="44.22866" lon="7.052">
        <ele>2459.1999511719</ele>
        <time>2018-05-09T09:10:27.000Z</time>
      </trkpt>
      <trkpt lat="44.22866" lon="7.052">
        <ele>2459.3999023438</ele>
        <time>2018-05-09T09:10:35.000Z</time>
      </trkpt>
      <trkpt lat="44.22867" lon="7.052">
        <ele>2459.3999023438</ele>
        <time>2018-05-09T09:10:38.000Z</time>
      </trkpt>
      <trkpt lat="44.22867" lon="7.05199">
        <ele>2459.1999511719</ele>
        <time>2018-05-09T09:10:42.000Z</time>
      </trkpt>
      <trkpt lat="44.22868" lon="7.05199">
        <ele>2459.3999023438</ele>
        <time>2018-05-09T09:10:46.000Z</time>
      </trkpt>
      <trkpt lat="44.22867" lon="7.05199">
        <ele>2459.1999511719</ele>
        <time>2018-05-09T09:10:49.000Z</time>
      </trkpt>
      <trkpt lat="44.22867" lon="7.05199">
        <ele>2459</ele>
        <time>2018-05-09T09:10:59.000Z</time>
      </trkpt>
      <trkpt lat="44.22866" lon="7.05201">
        <ele>2459.1999511719</ele>
        <time>2018-05-09T09:11:11.000Z</time>
      </trkpt>
      <trkpt lat="44.22866" lon="7.05201">
        <ele>2458.8000488281</ele>
        <time>2018-05-09T09:11:16.000Z</time>
      </trkpt>
      <trkpt lat="44.22868" lon="7.052">
        <ele>2458.8000488281</ele>
        <time>2018-05-09T09:11:22.000Z</time>
      </trkpt>
      <trkpt lat="44.22868" lon="7.052">
        <ele>2458.8000488281</ele>
        <time>2018-05-09T09:11:23.000Z</time>
      </trkpt>
      <trkpt lat="44.22868" lon="7.052">
        <ele>2458.8000488281</ele>
        <time>2018-05-09T09:11:25.000Z</time>
      </trkpt>
      <trkpt lat="44.22869" lon="7.052">
        <ele>2458.8000488281</ele>
        <time>2018-05-09T09:11:29.000Z</time>
      </trkpt>
      <trkpt lat="44.22868" lon="7.052">
        <ele>2459</ele>
        <time>2018-05-09T09:11:35.000Z</time>
      </trkpt>
      <trkpt lat="44.22868" lon="7.052">
        <ele>2458.8000488281</ele>
        <time>2018-05-09T09:11:38.000Z</time>
      </trkpt>
      <trkpt lat="44.22868" lon="7.052">
        <ele>2458.3999023438</ele>
        <time>2018-05-09T09:11:41.000Z</time>
      </trkpt>
      <trkpt lat="44.22868" lon="7.052">
        <ele>2458.3999023438</ele>
        <time>2018-05-09T09:11:44.000Z</time>
      </trkpt>
      <trkpt lat="44.22868" lon="7.05198">
        <ele>2458.8000488281</ele>
        <time>2018-05-09T09:11:52.000Z</time>
      </trkpt>
      <trkpt lat="44.22867" lon="7.05199">
        <ele>2458.8000488281</ele>
        <time>2018-05-09T09:12:09.000Z</time>
      </trkpt>
      <trkpt lat="44.22867" lon="7.052">
        <ele>2458.6000976562</ele>
        <time>2018-05-09T09:12:16.000Z</time>
      </trkpt>
      <trkpt lat="44.22866" lon="7.052">
        <ele>2458.8000488281</ele>
        <time>2018-05-09T09:12:18.000Z</time>
      </trkpt>
      <trkpt lat="44.22867" lon="7.05199">
        <ele>2459</ele>
        <time>2018-05-09T09:12:27.000Z</time>
      </trkpt>
      <trkpt lat="44.22866" lon="7.052">
        <ele>2458.3999023438</ele>
        <time>2018-05-09T09:12:36.000Z</time>
      </trkpt>
      <trkpt lat="44.22866" lon="7.052">
        <ele>2458.6000976562</ele>
        <time>2018-05-09T09:12:38.000Z</time>
      </trkpt>
      <trkpt lat="44.22866" lon="7.05199">
        <ele>2458.8000488281</ele>
        <time>2018-05-09T09:12:42.000Z</time>
      </trkpt>
      <trkpt lat="44.22866" lon="7.05197">
        <ele>2459</ele>
        <time>2018-05-09T09:12:45.000Z</time>
      </trkpt>
      <trkpt lat="44.22865" lon="7.05195">
        <ele>2459.3999023438</ele>
        <time>2018-05-09T09:12:50.000Z</time>
      </trkpt>
      <trkpt lat="44.22865" lon="7.05195">
        <ele>2459.3999023438</ele>
        <time>2018-05-09T09:12:51.000Z</time>
      </trkpt>
      <trkpt lat="44.22864" lon="7.05195">
        <ele>2460</ele>
        <time>2018-05-09T09:12:55.000Z</time>
      </trkpt>
      <trkpt lat="44.22864" lon="7.05194">
        <ele>2460.6000976562</ele>
        <time>2018-05-09T09:12:58.000Z</time>
      </trkpt>
      <trkpt lat="44.22864" lon="7.05193">
        <ele>2461.1999511719</ele>
        <time>2018-05-09T09:13:00.000Z</time>
      </trkpt>
      <trkpt lat="44.22864" lon="7.05193">
        <ele>2461.8000488281</ele>
        <time>2018-05-09T09:13:03.000Z</time>
      </trkpt>
      <trkpt lat="44.22864" lon="7.05192">
        <ele>2462.1999511719</ele>
        <time>2018-05-09T09:13:06.000Z</time>
      </trkpt>
      <trkpt lat="44.22863" lon="7.05192">
        <ele>2462.6000976562</ele>
        <time>2018-05-09T09:13:10.000Z</time>
      </trkpt>
      <trkpt lat="44.22861" lon="7.05193">
        <ele>2462.8000488281</ele>
        <time>2018-05-09T09:13:17.000Z</time>
      </trkpt>
      <trkpt lat="44.22861" lon="7.05194">
        <ele>2463.8000488281</ele>
        <time>2018-05-09T09:13:23.000Z</time>
      </trkpt>
      <trkpt lat="44.22861" lon="7.05193">
        <ele>2465</ele>
        <time>2018-05-09T09:13:37.000Z</time>
      </trkpt>
      <trkpt lat="44.2286" lon="7.05192">
        <ele>2466.1999511719</ele>
        <time>2018-05-09T09:13:43.000Z</time>
      </trkpt>
      <trkpt lat="44.2286" lon="7.05191">
        <ele>2467.1999511719</ele>
        <time>2018-05-09T09:13:47.000Z</time>
      </trkpt>
      <trkpt lat="44.22859" lon="7.0519">
        <ele>2467.3999023438</ele>
        <time>2018-05-09T09:13:56.000Z</time>
      </trkpt>
      <trkpt lat="44.22859" lon="7.0519">
        <ele>2467.8000488281</ele>
        <time>2018-05-09T09:14:16.000Z</time>
      </trkpt>
      <trkpt lat="44.22859" lon="7.05189">
        <ele>2468.3999023438</ele>
        <time>2018-05-09T09:14:19.000Z</time>
      </trkpt>
      <trkpt lat="44.22861" lon="7.0519">
        <ele>2468</ele>
        <time>2018-05-09T09:14:27.000Z</time>
      </trkpt>
      <trkpt lat="44.22857" lon="7.05195">
        <ele>2467.8000488281</ele>
        <time>2018-05-09T09:14:40.000Z</time>
      </trkpt>
      <trkpt lat="44.22858" lon="7.05194">
        <ele>2467.3999023438</ele>
        <time>2018-05-09T09:14:43.000Z</time>
      </trkpt>
      <trkpt lat="44.22856" lon="7.05192">
        <ele>2467.6000976562</ele>
        <time>2018-05-09T09:14:48.000Z</time>
      </trkpt>
      <trkpt lat="44.22857" lon="7.05192">
        <ele>2467.6000976562</ele>
        <time>2018-05-09T09:14:50.000Z</time>
      </trkpt>
      <trkpt lat="44.22857" lon="7.05191">
        <ele>2467.6000976562</ele>
        <time>2018-05-09T09:14:52.000Z</time>
      </trkpt>
      <trkpt lat="44.22857" lon="7.05191">
        <ele>2467.6000976562</ele>
        <time>2018-05-09T09:14:54.000Z</time>
      </trkpt>
      <trkpt lat="44.22857" lon="7.05191">
        <ele>2467.6000976562</ele>
        <time>2018-05-09T09:14:56.000Z</time>
      </trkpt>
      <trkpt lat="44.22858" lon="7.0519">
        <ele>2467.8000488281</ele>
        <time>2018-05-09T09:15:09.000Z</time>
      </trkpt>
      <trkpt lat="44.22858" lon="7.0519">
        <ele>2467.6000976562</ele>
        <time>2018-05-09T09:15:15.000Z</time>
      </trkpt>
      <trkpt lat="44.22858" lon="7.0519">
        <ele>2467.6000976562</ele>
        <time>2018-05-09T09:15:16.000Z</time>
      </trkpt>
      <trkpt lat="44.22858" lon="7.0519">
        <ele>2467.6000976562</ele>
        <time>2018-05-09T09:15:17.000Z</time>
      </trkpt>
      <trkpt lat="44.22858" lon="7.0519">
        <ele>2467.8000488281</ele>
        <time>2018-05-09T09:15:18.000Z</time>
      </trkpt>
      <trkpt lat="44.22858" lon="7.0519">
        <ele>2468</ele>
        <time>2018-05-09T09:15:21.000Z</time>
      </trkpt>
      <trkpt lat="44.22858" lon="7.0519">
        <ele>2468</ele>
        <time>2018-05-09T09:15:24.000Z</time>
      </trkpt>
      <trkpt lat="44.22858" lon="7.0519">
        <ele>2468.1999511719</ele>
        <time>2018-05-09T09:15:26.000Z</time>
      </trkpt>
      <trkpt lat="44.22858" lon="7.0519">
        <ele>2468.1999511719</ele>
        <time>2018-05-09T09:15:27.000Z</time>
      </trkpt>
      <trkpt lat="44.22858" lon="7.05191">
        <ele>2468.1999511719</ele>
        <time>2018-05-09T09:15:30.000Z</time>
      </trkpt>
      <trkpt lat="44.22858" lon="7.05191">
        <ele>2468.1999511719</ele>
        <time>2018-05-09T09:15:33.000Z</time>
      </trkpt>
      <trkpt lat="44.22858" lon="7.05192">
        <ele>2467.6000976562</ele>
        <time>2018-05-09T09:15:41.000Z</time>
      </trkpt>
      <trkpt lat="44.22858" lon="7.05193">
        <ele>2467.8000488281</ele>
        <time>2018-05-09T09:15:49.000Z</time>
      </trkpt>
      <trkpt lat="44.22858" lon="7.05192">
        <ele>2468</ele>
        <time>2018-05-09T09:15:54.000Z</time>
      </trkpt>
      <trkpt lat="44.22858" lon="7.05192">
        <ele>2468.3999023438</ele>
        <time>2018-05-09T09:15:58.000Z</time>
      </trkpt>
      <trkpt lat="44.22859" lon="7.05192">
        <ele>2468.6000976562</ele>
        <time>2018-05-09T09:15:59.000Z</time>
      </trkpt>
      <trkpt lat="44.22859" lon="7.05192">
        <ele>2468.6000976562</ele>
        <time>2018-05-09T09:16:00.000Z</time>
      </trkpt>
      <trkpt lat="44.22859" lon="7.05191">
        <ele>2468.6000976562</ele>
        <time>2018-05-09T09:16:04.000Z</time>
      </trkpt>
      <trkpt lat="44.22858" lon="7.05192">
        <ele>2468.6000976562</ele>
        <time>2018-05-09T09:16:05.000Z</time>
      </trkpt>
      <trkpt lat="44.22858" lon="7.05192">
        <ele>2468.3999023438</ele>
        <time>2018-05-09T09:16:07.000Z</time>
      </trkpt>
      <trkpt lat="44.22856" lon="7.0519">
        <ele>2467.3999023438</ele>
        <time>2018-05-09T09:16:16.000Z</time>
      </trkpt>
      <trkpt lat="44.22856" lon="7.0519">
        <ele>2467.1999511719</ele>
        <time>2018-05-09T09:16:17.000Z</time>
      </trkpt>
      <trkpt lat="44.22856" lon="7.0519">
        <ele>2467</ele>
        <time>2018-05-09T09:16:18.000Z</time>
      </trkpt>
      <trkpt lat="44.22857" lon="7.05189">
        <ele>2467.3999023438</ele>
        <time>2018-05-09T09:16:21.000Z</time>
      </trkpt>
      <trkpt lat="44.22856" lon="7.05187">
        <ele>2468.1999511719</ele>
        <time>2018-05-09T09:16:24.000Z</time>
      </trkpt>
      <trkpt lat="44.22856" lon="7.05186">
        <ele>2468.3999023438</ele>
        <time>2018-05-09T09:16:25.000Z</time>
      </trkpt>
      <trkpt lat="44.22856" lon="7.05186">
        <ele>2468.3999023438</ele>
        <time>2018-05-09T09:16:26.000Z</time>
      </trkpt>
      <trkpt lat="44.22855" lon="7.05187">
        <ele>2468.3999023438</ele>
        <time>2018-05-09T09:16:28.000Z</time>
      </trkpt>
      <trkpt lat="44.22855" lon="7.05189">
        <ele>2468.1999511719</ele>
        <time>2018-05-09T09:16:30.000Z</time>
      </trkpt>
      <trkpt lat="44.22854" lon="7.05192">
        <ele>2467.6000976562</ele>
        <time>2018-05-09T09:16:32.000Z</time>
      </trkpt>
      <trkpt lat="44.22854" lon="7.05193">
        <ele>2467.1999511719</ele>
        <time>2018-05-09T09:16:33.000Z</time>
      </trkpt>
      <trkpt lat="44.22854" lon="7.05194">
        <ele>2467</ele>
        <time>2018-05-09T09:16:34.000Z</time>
      </trkpt>
      <trkpt lat="44.22853" lon="7.05196">
        <ele>2466.1999511719</ele>
        <time>2018-05-09T09:16:40.000Z</time>
      </trkpt>
      <trkpt lat="44.2285" lon="7.05196">
        <ele>2465.1999511719</ele>
        <time>2018-05-09T09:16:48.000Z</time>
      </trkpt>
      <trkpt lat="44.22852" lon="7.05195">
        <ele>2465.1999511719</ele>
        <time>2018-05-09T09:16:56.000Z</time>
      </trkpt>
      <trkpt lat="44.22853" lon="7.05195">
        <ele>2465.1999511719</ele>
        <time>2018-05-09T09:17:00.000Z</time>
      </trkpt>
      <trkpt lat="44.22854" lon="7.05197">
        <ele>2465.6000976562</ele>
        <time>2018-05-09T09:17:03.000Z</time>
      </trkpt>
      <trkpt lat="44.22855" lon="7.05198">
        <ele>2466.1999511719</ele>
        <time>2018-05-09T09:17:06.000Z</time>
      </trkpt>
      <trkpt lat="44.22855" lon="7.05196">
        <ele>2466.6000976562</ele>
        <time>2018-05-09T09:17:09.000Z</time>
      </trkpt>
      <trkpt lat="44.22856" lon="7.05195">
        <ele>2467</ele>
        <time>2018-05-09T09:17:12.000Z</time>
      </trkpt>
      <trkpt lat="44.22856" lon="7.05194">
        <ele>2467.1999511719</ele>
        <time>2018-05-09T09:17:13.000Z</time>
      </trkpt>
      <trkpt lat="44.22855" lon="7.05189">
        <ele>2467.1999511719</ele>
        <time>2018-05-09T09:17:19.000Z</time>
      </trkpt>
      <trkpt lat="44.22859" lon="7.05184">
        <ele>2466.8000488281</ele>
        <time>2018-05-09T09:17:31.000Z</time>
      </trkpt>
      <trkpt lat="44.22861" lon="7.05184">
        <ele>2467</ele>
        <time>2018-05-09T09:17:36.000Z</time>
      </trkpt>
      <trkpt lat="44.22861" lon="7.05184">
        <ele>2467.1999511719</ele>
        <time>2018-05-09T09:17:37.000Z</time>
      </trkpt>
      <trkpt lat="44.22861" lon="7.05183">
        <ele>2467.1999511719</ele>
        <time>2018-05-09T09:17:38.000Z</time>
      </trkpt>
      <trkpt lat="44.2286" lon="7.05182">
        <ele>2467.3999023438</ele>
        <time>2018-05-09T09:17:42.000Z</time>
      </trkpt>
      <trkpt lat="44.2286" lon="7.05185">
        <ele>2467.3999023438</ele>
        <time>2018-05-09T09:17:45.000Z</time>
      </trkpt>
      <trkpt lat="44.2286" lon="7.05187">
        <ele>2467.8000488281</ele>
        <time>2018-05-09T09:17:50.000Z</time>
      </trkpt>
      <trkpt lat="44.22859" lon="7.05187">
        <ele>2468</ele>
        <time>2018-05-09T09:17:52.000Z</time>
      </trkpt>
      <trkpt lat="44.22861" lon="7.05187">
        <ele>2468</ele>
        <time>2018-05-09T09:18:04.000Z</time>
      </trkpt>
      <trkpt lat="44.2286" lon="7.05186">
        <ele>2467.6000976562</ele>
        <time>2018-05-09T09:18:07.000Z</time>
      </trkpt>
      <trkpt lat="44.22857" lon="7.05189">
        <ele>2467.3999023438</ele>
        <time>2018-05-09T09:18:21.000Z</time>
      </trkpt>
      <trkpt lat="44.22856" lon="7.05189">
        <ele>2467.1999511719</ele>
        <time>2018-05-09T09:18:24.000Z</time>
      </trkpt>
      <trkpt lat="44.22856" lon="7.05189">
        <ele>2467.3999023438</ele>
        <time>2018-05-09T09:18:30.000Z</time>
      </trkpt>
      <trkpt lat="44.22855" lon="7.05188">
        <ele>2467.6000976562</ele>
        <time>2018-05-09T09:18:32.000Z</time>
      </trkpt>
      <trkpt lat="44.22855" lon="7.05187">
        <ele>2467.6000976562</ele>
        <time>2018-05-09T09:18:33.000Z</time>
      </trkpt>
      <trkpt lat="44.22855" lon="7.05187">
        <ele>2467.8000488281</ele>
        <time>2018-05-09T09:18:34.000Z</time>
      </trkpt>
      <trkpt lat="44.22858" lon="7.05189">
        <ele>2468</ele>
        <time>2018-05-09T09:18:50.000Z</time>
      </trkpt>
      <trkpt lat="44.22857" lon="7.0519">
        <ele>2468.1999511719</ele>
        <time>2018-05-09T09:18:52.000Z</time>
      </trkpt>
      <trkpt lat="44.22857" lon="7.05191">
        <ele>2468.1999511719</ele>
        <time>2018-05-09T09:18:54.000Z</time>
      </trkpt>
      <trkpt lat="44.22857" lon="7.05191">
        <ele>2468.3999023438</ele>
        <time>2018-05-09T09:18:57.000Z</time>
      </trkpt>
      <trkpt lat="44.22856" lon="7.05191">
        <ele>2467.8000488281</ele>
        <time>2018-05-09T09:19:04.000Z</time>
      </trkpt>
      <trkpt lat="44.22855" lon="7.05191">
        <ele>2467.8000488281</ele>
        <time>2018-05-09T09:19:06.000Z</time>
      </trkpt>
      <trkpt lat="44.22855" lon="7.05189">
        <ele>2467.8000488281</ele>
        <time>2018-05-09T09:19:12.000Z</time>
      </trkpt>
      <trkpt lat="44.22856" lon="7.05186">
        <ele>2467.6000976562</ele>
        <time>2018-05-09T09:19:31.000Z</time>
      </trkpt>
      <trkpt lat="44.22855" lon="7.05186">
        <ele>2467.8000488281</ele>
        <time>2018-05-09T09:19:39.000Z</time>
      </trkpt>
      <trkpt lat="44.22855" lon="7.05184">
        <ele>2468</ele>
        <time>2018-05-09T09:19:43.000Z</time>
      </trkpt>
      <trkpt lat="44.22859" lon="7.05184">
        <ele>2467.8000488281</ele>
        <time>2018-05-09T09:19:56.000Z</time>
      </trkpt>
      <trkpt lat="44.22859" lon="7.05185">
        <ele>2467.8000488281</ele>
        <time>2018-05-09T09:19:58.000Z</time>
      </trkpt>
      <trkpt lat="44.22862" lon="7.05191">
        <ele>2467.8000488281</ele>
        <time>2018-05-09T09:20:12.000Z</time>
      </trkpt>
      <trkpt lat="44.22856" lon="7.05185">
        <ele>2467.8000488281</ele>
        <time>2018-05-09T09:20:29.000Z</time>
      </trkpt>
      <trkpt lat="44.22855" lon="7.05186">
        <ele>2467.8000488281</ele>
        <time>2018-05-09T09:20:33.000Z</time>
      </trkpt>
      <trkpt lat="44.22855" lon="7.05187">
        <ele>2467.8000488281</ele>
        <time>2018-05-09T09:20:40.000Z</time>
      </trkpt>
      <trkpt lat="44.22853" lon="7.05186">
        <ele>2467.8000488281</ele>
        <time>2018-05-09T09:20:48.000Z</time>
      </trkpt>
      <trkpt lat="44.22854" lon="7.05186">
        <ele>2467.8000488281</ele>
        <time>2018-05-09T09:20:52.000Z</time>
      </trkpt>
      <trkpt lat="44.22854" lon="7.05187">
        <ele>2467.8000488281</ele>
        <time>2018-05-09T09:20:54.000Z</time>
      </trkpt>
      <trkpt lat="44.22855" lon="7.05186">
        <ele>2471.1999511719</ele>
        <time>2018-05-09T09:21:04.000Z</time>
      </trkpt>
      <trkpt lat="44.22855" lon="7.05187">
        <ele>2470.3999023438</ele>
        <time>2018-05-09T09:21:07.000Z</time>
      </trkpt>
      <trkpt lat="44.22854" lon="7.05187">
        <ele>2469.6000976562</ele>
        <time>2018-05-09T09:21:08.000Z</time>
      </trkpt>
      <trkpt lat="44.22854" lon="7.05187">
        <ele>2468.8000488281</ele>
        <time>2018-05-09T09:21:14.000Z</time>
      </trkpt>
      <trkpt lat="44.22854" lon="7.05189">
        <ele>2469</ele>
        <time>2018-05-09T09:21:18.000Z</time>
      </trkpt>
      <trkpt lat="44.22853" lon="7.05183">
        <ele>2469.1999511719</ele>
        <time>2018-05-09T09:21:29.000Z</time>
      </trkpt>
      <trkpt lat="44.22856" lon="7.0519">
        <ele>2469</ele>
        <time>2018-05-09T09:21:35.000Z</time>
      </trkpt>
      <trkpt lat="44.22856" lon="7.0519">
        <ele>2468.6000976562</ele>
        <time>2018-05-09T09:21:38.000Z</time>
      </trkpt>
      <trkpt lat="44.22855" lon="7.05189">
        <ele>2469.3999023438</ele>
        <time>2018-05-09T09:21:44.000Z</time>
      </trkpt>
      <trkpt lat="44.22854" lon="7.05184">
        <ele>2468.8000488281</ele>
        <time>2018-05-09T09:21:50.000Z</time>
      </trkpt>
      <trkpt lat="44.22853" lon="7.05183">
        <ele>2468.6000976562</ele>
        <time>2018-05-09T09:21:53.000Z</time>
      </trkpt>
      <trkpt lat="44.22853" lon="7.05187">
        <ele>2468.3999023438</ele>
        <time>2018-05-09T09:22:03.000Z</time>
      </trkpt>
      <trkpt lat="44.22853" lon="7.05186">
        <ele>2468.1999511719</ele>
        <time>2018-05-09T09:22:06.000Z</time>
      </trkpt>
      <trkpt lat="44.22851" lon="7.05182">
        <ele>2467.6000976562</ele>
        <time>2018-05-09T09:22:13.000Z</time>
      </trkpt>
      <trkpt lat="44.22852" lon="7.05184">
        <ele>2467.6000976562</ele>
        <time>2018-05-09T09:22:18.000Z</time>
      </trkpt>
      <trkpt lat="44.22853" lon="7.05183">
        <ele>2467.6000976562</ele>
        <time>2018-05-09T09:22:23.000Z</time>
      </trkpt>
      <trkpt lat="44.22854" lon="7.05189">
        <ele>2467.8000488281</ele>
        <time>2018-05-09T09:22:32.000Z</time>
      </trkpt>
      <trkpt lat="44.22854" lon="7.0519">
        <ele>2467.8000488281</ele>
        <time>2018-05-09T09:22:39.000Z</time>
      </trkpt>
      <trkpt lat="44.22852" lon="7.05191">
        <ele>2468.3999023438</ele>
        <time>2018-05-09T09:22:47.000Z</time>
      </trkpt>
      <trkpt lat="44.22853" lon="7.05186">
        <ele>2468</ele>
        <time>2018-05-09T09:22:51.000Z</time>
      </trkpt>
      <trkpt lat="44.22853" lon="7.05186">
        <ele>2468</ele>
        <time>2018-05-09T09:22:53.000Z</time>
      </trkpt>
      <trkpt lat="44.22852" lon="7.05183">
        <ele>2467.6000976562</ele>
        <time>2018-05-09T09:23:03.000Z</time>
      </trkpt>
      <trkpt lat="44.22858" lon="7.05189">
        <ele>2467.8000488281</ele>
        <time>2018-05-09T09:23:15.000Z</time>
      </trkpt>
      <trkpt lat="44.22858" lon="7.05188">
        <ele>2467.8000488281</ele>
        <time>2018-05-09T09:23:20.000Z</time>
      </trkpt>
      <trkpt lat="44.22858" lon="7.05188">
        <ele>2467.8000488281</ele>
        <time>2018-05-09T09:23:22.000Z</time>
      </trkpt>
      <trkpt lat="44.22858" lon="7.05188">
        <ele>2467.8000488281</ele>
        <time>2018-05-09T09:23:24.000Z</time>
      </trkpt>
      <trkpt lat="44.22857" lon="7.05187">
        <ele>2467.8000488281</ele>
        <time>2018-05-09T09:23:27.000Z</time>
      </trkpt>
      <trkpt lat="44.22857" lon="7.05186">
        <ele>2467.8000488281</ele>
        <time>2018-05-09T09:23:28.000Z</time>
      </trkpt>
      <trkpt lat="44.22855" lon="7.05186">
        <ele>2467.8000488281</ele>
        <time>2018-05-09T09:23:33.000Z</time>
      </trkpt>
      <trkpt lat="44.22854" lon="7.05186">
        <ele>2467.8000488281</ele>
        <time>2018-05-09T09:23:37.000Z</time>
      </trkpt>
      <trkpt lat="44.22854" lon="7.05186">
        <ele>2467.8000488281</ele>
        <time>2018-05-09T09:23:41.000Z</time>
      </trkpt>
      <trkpt lat="44.22852" lon="7.05185">
        <ele>2467.8000488281</ele>
        <time>2018-05-09T09:23:48.000Z</time>
      </trkpt>
      <trkpt lat="44.22853" lon="7.05185">
        <ele>2467.8000488281</ele>
        <time>2018-05-09T09:24:00.000Z</time>
      </trkpt>
      <trkpt lat="44.22854" lon="7.05187">
        <ele>2467.8000488281</ele>
        <time>2018-05-09T09:24:02.000Z</time>
      </trkpt>
      <trkpt lat="44.22857" lon="7.05192">
        <ele>2468</ele>
        <time>2018-05-09T09:24:08.000Z</time>
      </trkpt>
      <trkpt lat="44.22857" lon="7.05192">
        <ele>2468.1999511719</ele>
        <time>2018-05-09T09:24:12.000Z</time>
      </trkpt>
      <trkpt lat="44.22856" lon="7.05192">
        <ele>2468</ele>
        <time>2018-05-09T09:24:13.000Z</time>
      </trkpt>
      <trkpt lat="44.22856" lon="7.05189">
        <ele>2467.8000488281</ele>
        <time>2018-05-09T09:24:20.000Z</time>
      </trkpt>
      <trkpt lat="44.22858" lon="7.05184">
        <ele>2467.8000488281</ele>
        <time>2018-05-09T09:24:25.000Z</time>
      </trkpt>
      <trkpt lat="44.22857" lon="7.05179">
        <ele>2468.1999511719</ele>
        <time>2018-05-09T09:24:37.000Z</time>
      </trkpt>
      <trkpt lat="44.22855" lon="7.05181">
        <ele>2467.8000488281</ele>
        <time>2018-05-09T09:24:42.000Z</time>
      </trkpt>
      <trkpt lat="44.22855" lon="7.05181">
        <ele>2467.8000488281</ele>
        <time>2018-05-09T09:24:43.000Z</time>
      </trkpt>
      <trkpt lat="44.22855" lon="7.05181">
        <ele>2468</ele>
        <time>2018-05-09T09:24:45.000Z</time>
      </trkpt>
      <trkpt lat="44.22858" lon="7.05184">
        <ele>2467.6000976562</ele>
        <time>2018-05-09T09:24:48.000Z</time>
      </trkpt>
      <trkpt lat="44.22858" lon="7.05186">
        <ele>2467.3999023438</ele>
        <time>2018-05-09T09:24:49.000Z</time>
      </trkpt>
      <trkpt lat="44.22859" lon="7.05187">
        <ele>2467.1999511719</ele>
        <time>2018-05-09T09:24:50.000Z</time>
      </trkpt>
      <trkpt lat="44.2286" lon="7.05193">
        <ele>2466.6000976562</ele>
        <time>2018-05-09T09:24:52.000Z</time>
      </trkpt>
      <trkpt lat="44.22861" lon="7.05197">
        <ele>2466.1999511719</ele>
        <time>2018-05-09T09:24:53.000Z</time>
      </trkpt>
      <trkpt lat="44.22863" lon="7.05202">
        <ele>2464.8000488281</ele>
        <time>2018-05-09T09:24:56.000Z</time>
      </trkpt>
      <trkpt lat="44.22863" lon="7.05204">
        <ele>2463.3999023438</ele>
        <time>2018-05-09T09:24:58.000Z</time>
      </trkpt>
      <trkpt lat="44.22864" lon="7.05205">
        <ele>2463</ele>
        <time>2018-05-09T09:25:03.000Z</time>
      </trkpt>
      <trkpt lat="44.22865" lon="7.05207">
        <ele>2462.3999023438</ele>
        <time>2018-05-09T09:25:09.000Z</time>
      </trkpt>
      <trkpt lat="44.22867" lon="7.05209">
        <ele>2461.1999511719</ele>
        <time>2018-05-09T09:25:14.000Z</time>
      </trkpt>
      <trkpt lat="44.22866" lon="7.05209">
        <ele>2460.1999511719</ele>
        <time>2018-05-09T09:25:17.000Z</time>
      </trkpt>
      <trkpt lat="44.22866" lon="7.05203">
        <ele>2459.1999511719</ele>
        <time>2018-05-09T09:25:30.000Z</time>
      </trkpt>
      <trkpt lat="44.22868" lon="7.052">
        <ele>2458.6000976562</ele>
        <time>2018-05-09T09:25:31.000Z</time>
      </trkpt>
      <trkpt lat="44.22872" lon="7.05199">
        <ele>2457.3999023438</ele>
        <time>2018-05-09T09:25:33.000Z</time>
      </trkpt>
      <trkpt lat="44.22877" lon="7.05207">
        <ele>2455.1999511719</ele>
        <time>2018-05-09T09:25:35.000Z</time>
      </trkpt>
      <trkpt lat="44.22879" lon="7.0521">
        <ele>2453.6000976562</ele>
        <time>2018-05-09T09:25:36.000Z</time>
      </trkpt>
      <trkpt lat="44.22879" lon="7.05212">
        <ele>2451.8000488281</ele>
        <time>2018-05-09T09:25:37.000Z</time>
      </trkpt>
      <trkpt lat="44.2288" lon="7.05212">
        <ele>2450.6000976562</ele>
        <time>2018-05-09T09:25:38.000Z</time>
      </trkpt>
      <trkpt lat="44.22883" lon="7.05212">
        <ele>2449.1999511719</ele>
        <time>2018-05-09T09:25:40.000Z</time>
      </trkpt>
      <trkpt lat="44.22887" lon="7.05205">
        <ele>2448</ele>
        <time>2018-05-09T09:25:42.000Z</time>
      </trkpt>
      <trkpt lat="44.22889" lon="7.05199">
        <ele>2446</ele>
        <time>2018-05-09T09:25:44.000Z</time>
      </trkpt>
      <trkpt lat="44.22889" lon="7.05198">
        <ele>2445.1999511719</ele>
        <time>2018-05-09T09:25:45.000Z</time>
      </trkpt>
      <trkpt lat="44.22889" lon="7.05197">
        <ele>2444.6000976562</ele>
        <time>2018-05-09T09:25:46.000Z</time>
      </trkpt>
      <trkpt lat="44.22892" lon="7.05196">
        <ele>2443.3999023438</ele>
        <time>2018-05-09T09:25:49.000Z</time>
      </trkpt>
      <trkpt lat="44.22895" lon="7.05204">
        <ele>2442.3999023438</ele>
        <time>2018-05-09T09:25:51.000Z</time>
      </trkpt>
      <trkpt lat="44.22896" lon="7.05208">
        <ele>2441.6000976562</ele>
        <time>2018-05-09T09:25:52.000Z</time>
      </trkpt>
      <trkpt lat="44.22898" lon="7.05213">
        <ele>2439.8000488281</ele>
        <time>2018-05-09T09:25:54.000Z</time>
      </trkpt>
      <trkpt lat="44.22903" lon="7.05212">
        <ele>2438.6000976562</ele>
        <time>2018-05-09T09:25:56.000Z</time>
      </trkpt>
      <trkpt lat="44.22905" lon="7.05208">
        <ele>2438</ele>
        <time>2018-05-09T09:25:57.000Z</time>
      </trkpt>
      <trkpt lat="44.22907" lon="7.05205">
        <ele>2437.1999511719</ele>
        <time>2018-05-09T09:25:58.000Z</time>
      </trkpt>
      <trkpt lat="44.2291" lon="7.05199">
        <ele>2435.1999511719</ele>
        <time>2018-05-09T09:26:00.000Z</time>
      </trkpt>
      <trkpt lat="44.22915" lon="7.05197">
        <ele>2433.6000976562</ele>
        <time>2018-05-09T09:26:02.000Z</time>
      </trkpt>
      <trkpt lat="44.22917" lon="7.052">
        <ele>2432.8000488281</ele>
        <time>2018-05-09T09:26:03.000Z</time>
      </trkpt>
      <trkpt lat="44.22917" lon="7.05203">
        <ele>2432.1999511719</ele>
        <time>2018-05-09T09:26:04.000Z</time>
      </trkpt>
      <trkpt lat="44.22917" lon="7.05204">
        <ele>2431.1999511719</ele>
        <time>2018-05-09T09:26:05.000Z</time>
      </trkpt>
      <trkpt lat="44.22917" lon="7.05205">
        <ele>2430.3999023438</ele>
        <time>2018-05-09T09:26:06.000Z</time>
      </trkpt>
      <trkpt lat="44.22917" lon="7.05205">
        <ele>2429.8000488281</ele>
        <time>2018-05-09T09:26:07.000Z</time>
      </trkpt>
      <trkpt lat="44.22918" lon="7.05205">
        <ele>2429.1999511719</ele>
        <time>2018-05-09T09:26:09.000Z</time>
      </trkpt>
      <trkpt lat="44.22918" lon="7.05205">
        <ele>2429</ele>
        <time>2018-05-09T09:26:10.000Z</time>
      </trkpt>
      <trkpt lat="44.22918" lon="7.05205">
        <ele>2428.8000488281</ele>
        <time>2018-05-09T09:26:15.000Z</time>
      </trkpt>
      <trkpt lat="44.22916" lon="7.05207">
        <ele>2428.8000488281</ele>
        <time>2018-05-09T09:26:18.000Z</time>
      </trkpt>
      <trkpt lat="44.22915" lon="7.05208">
        <ele>2428.8000488281</ele>
        <time>2018-05-09T09:26:21.000Z</time>
      </trkpt>
      <trkpt lat="44.22914" lon="7.05207">
        <ele>2428.8000488281</ele>
        <time>2018-05-09T09:26:28.000Z</time>
      </trkpt>
      <trkpt lat="44.22915" lon="7.05205">
        <ele>2428.8000488281</ele>
        <time>2018-05-09T09:26:32.000Z</time>
      </trkpt>
      <trkpt lat="44.22914" lon="7.05205">
        <ele>2429</ele>
        <time>2018-05-09T09:26:41.000Z</time>
      </trkpt>
      <trkpt lat="44.22914" lon="7.05205">
        <ele>2429</ele>
        <time>2018-05-09T09:26:45.000Z</time>
      </trkpt>
      <trkpt lat="44.22914" lon="7.05204">
        <ele>2429</ele>
        <time>2018-05-09T09:26:46.000Z</time>
      </trkpt>
      <trkpt lat="44.22914" lon="7.05205">
        <ele>2429.1999511719</ele>
        <time>2018-05-09T09:26:48.000Z</time>
      </trkpt>
      <trkpt lat="44.22914" lon="7.05205">
        <ele>2429.1999511719</ele>
        <time>2018-05-09T09:26:51.000Z</time>
      </trkpt>
      <trkpt lat="44.22913" lon="7.05206">
        <ele>2428.8000488281</ele>
        <time>2018-05-09T09:27:00.000Z</time>
      </trkpt>
      <trkpt lat="44.22913" lon="7.05206">
        <ele>2428.8000488281</ele>
        <time>2018-05-09T09:27:02.000Z</time>
      </trkpt>
      <trkpt lat="44.22915" lon="7.05206">
        <ele>2429</ele>
        <time>2018-05-09T09:27:07.000Z</time>
      </trkpt>
      <trkpt lat="44.22914" lon="7.05207">
        <ele>2428.8000488281</ele>
        <time>2018-05-09T09:27:13.000Z</time>
      </trkpt>
      <trkpt lat="44.22914" lon="7.05207">
        <ele>2428.6000976562</ele>
        <time>2018-05-09T09:27:15.000Z</time>
      </trkpt>
      <trkpt lat="44.22915" lon="7.05206">
        <ele>2428.8000488281</ele>
        <time>2018-05-09T09:27:17.000Z</time>
      </trkpt>
      <trkpt lat="44.22917" lon="7.05203">
        <ele>2428.8000488281</ele>
        <time>2018-05-09T09:27:20.000Z</time>
      </trkpt>
      <trkpt lat="44.22922" lon="7.052">
        <ele>2428.8000488281</ele>
        <time>2018-05-09T09:27:40.000Z</time>
      </trkpt>
      <trkpt lat="44.22922" lon="7.052">
        <ele>2428.8000488281</ele>
        <time>2018-05-09T09:27:41.000Z</time>
      </trkpt>
      <trkpt lat="44.22922" lon="7.052">
        <ele>2428.8000488281</ele>
        <time>2018-05-09T09:27:42.000Z</time>
      </trkpt>
      <trkpt lat="44.22922" lon="7.05201">
        <ele>2428.8000488281</ele>
        <time>2018-05-09T09:27:43.000Z</time>
      </trkpt>
      <trkpt lat="44.22921" lon="7.05201">
        <ele>2428.8000488281</ele>
        <time>2018-05-09T09:27:45.000Z</time>
      </trkpt>
      <trkpt lat="44.22925" lon="7.05201">
        <ele>2428.8000488281</ele>
        <time>2018-05-09T09:28:01.000Z</time>
      </trkpt>
      <trkpt lat="44.22925" lon="7.052">
        <ele>2428.8000488281</ele>
        <time>2018-05-09T09:28:02.000Z</time>
      </trkpt>
      <trkpt lat="44.22922" lon="7.05203">
        <ele>2428.8000488281</ele>
        <time>2018-05-09T09:28:07.000Z</time>
      </trkpt>
      <trkpt lat="44.22918" lon="7.05204">
        <ele>2428.8000488281</ele>
        <time>2018-05-09T09:28:25.000Z</time>
      </trkpt>
      <trkpt lat="44.22918" lon="7.05205">
        <ele>2428.8000488281</ele>
        <time>2018-05-09T09:28:26.000Z</time>
      </trkpt>
      <trkpt lat="44.22919" lon="7.05205">
        <ele>2428.8000488281</ele>
        <time>2018-05-09T09:28:29.000Z</time>
      </trkpt>
      <trkpt lat="44.22918" lon="7.05205">
        <ele>2428.8000488281</ele>
        <time>2018-05-09T09:28:30.000Z</time>
      </trkpt>
      <trkpt lat="44.22917" lon="7.05204">
        <ele>2428.8000488281</ele>
        <time>2018-05-09T09:28:40.000Z</time>
      </trkpt>
      <trkpt lat="44.22914" lon="7.05206">
        <ele>2428.8000488281</ele>
        <time>2018-05-09T09:28:49.000Z</time>
      </trkpt>
      <trkpt lat="44.22914" lon="7.05206">
        <ele>2428.8000488281</ele>
        <time>2018-05-09T09:28:53.000Z</time>
      </trkpt>
      <trkpt lat="44.22914" lon="7.05206">
        <ele>2428.8000488281</ele>
        <time>2018-05-09T09:28:55.000Z</time>
      </trkpt>
      <trkpt lat="44.22914" lon="7.05206">
        <ele>2428.8000488281</ele>
        <time>2018-05-09T09:28:56.000Z</time>
      </trkpt>
      <trkpt lat="44.22914" lon="7.05206">
        <ele>2428.8000488281</ele>
        <time>2018-05-09T09:28:57.000Z</time>
      </trkpt>
      <trkpt lat="44.22913" lon="7.05207">
        <ele>2428.8000488281</ele>
        <time>2018-05-09T09:29:00.000Z</time>
      </trkpt>
      <trkpt lat="44.22913" lon="7.05207">
        <ele>2428.8000488281</ele>
        <time>2018-05-09T09:29:01.000Z</time>
      </trkpt>
      <trkpt lat="44.22913" lon="7.05207">
        <ele>2428.8000488281</ele>
        <time>2018-05-09T09:29:02.000Z</time>
      </trkpt>
      <trkpt lat="44.22912" lon="7.05207">
        <ele>2428.8000488281</ele>
        <time>2018-05-09T09:29:04.000Z</time>
      </trkpt>
      <trkpt lat="44.22911" lon="7.05207">
        <ele>2428.8000488281</ele>
        <time>2018-05-09T09:29:05.000Z</time>
      </trkpt>
      <trkpt lat="44.2291" lon="7.05207">
        <ele>2428.8000488281</ele>
        <time>2018-05-09T09:29:06.000Z</time>
      </trkpt>
      <trkpt lat="44.2291" lon="7.05207">
        <ele>2428.8000488281</ele>
        <time>2018-05-09T09:29:08.000Z</time>
      </trkpt>
      <trkpt lat="44.22911" lon="7.05208">
        <ele>2428.8000488281</ele>
        <time>2018-05-09T09:29:10.000Z</time>
      </trkpt>
      <trkpt lat="44.22912" lon="7.05208">
        <ele>2428.8000488281</ele>
        <time>2018-05-09T09:29:14.000Z</time>
      </trkpt>
      <trkpt lat="44.22913" lon="7.05208">
        <ele>2428.8000488281</ele>
        <time>2018-05-09T09:29:15.000Z</time>
      </trkpt>
      <trkpt lat="44.22914" lon="7.05208">
        <ele>2428.8000488281</ele>
        <time>2018-05-09T09:29:16.000Z</time>
      </trkpt>
      <trkpt lat="44.22914" lon="7.05208">
        <ele>2428.8000488281</ele>
        <time>2018-05-09T09:29:18.000Z</time>
      </trkpt>
      <trkpt lat="44.22914" lon="7.05209">
        <ele>2428.8000488281</ele>
        <time>2018-05-09T09:29:21.000Z</time>
      </trkpt>
      <trkpt lat="44.22913" lon="7.05209">
        <ele>2428.8000488281</ele>
        <time>2018-05-09T09:29:23.000Z</time>
      </trkpt>
      <trkpt lat="44.22912" lon="7.0521">
        <ele>2428.8000488281</ele>
        <time>2018-05-09T09:29:28.000Z</time>
      </trkpt>
      <trkpt lat="44.22912" lon="7.0521">
        <ele>2428.8000488281</ele>
        <time>2018-05-09T09:29:30.000Z</time>
      </trkpt>
      <trkpt lat="44.22912" lon="7.0521">
        <ele>2428.8000488281</ele>
        <time>2018-05-09T09:29:31.000Z</time>
      </trkpt>
      <trkpt lat="44.22911" lon="7.0521">
        <ele>2428.8000488281</ele>
        <time>2018-05-09T09:29:35.000Z</time>
      </trkpt>
      <trkpt lat="44.2291" lon="7.0521">
        <ele>2428.8000488281</ele>
        <time>2018-05-09T09:29:37.000Z</time>
      </trkpt>
      <trkpt lat="44.2291" lon="7.0521">
        <ele>2428.8000488281</ele>
        <time>2018-05-09T09:29:38.000Z</time>
      </trkpt>
      <trkpt lat="44.2291" lon="7.0521">
        <ele>2428.8000488281</ele>
        <time>2018-05-09T09:29:39.000Z</time>
      </trkpt>
      <trkpt lat="44.22909" lon="7.05211">
        <ele>2428.8000488281</ele>
        <time>2018-05-09T09:29:41.000Z</time>
      </trkpt>
      <trkpt lat="44.22909" lon="7.05211">
        <ele>2428.8000488281</ele>
        <time>2018-05-09T09:29:47.000Z</time>
      </trkpt>
      <trkpt lat="44.22921" lon="7.05206">
        <ele>2428.8000488281</ele>
        <time>2018-05-09T09:29:54.000Z</time>
      </trkpt>
      <trkpt lat="44.22922" lon="7.05208">
        <ele>2428.8000488281</ele>
        <time>2018-05-09T09:29:55.000Z</time>
      </trkpt>
      <trkpt lat="44.22924" lon="7.05211">
        <ele>2428.8000488281</ele>
        <time>2018-05-09T09:29:56.000Z</time>
      </trkpt>
      <trkpt lat="44.22927" lon="7.05215">
        <ele>2427.6000976562</ele>
        <time>2018-05-09T09:29:57.000Z</time>
      </trkpt>
      <trkpt lat="44.22931" lon="7.05219">
        <ele>2425.6000976562</ele>
        <time>2018-05-09T09:29:58.000Z</time>
      </trkpt>
      <trkpt lat="44.22933" lon="7.05221">
        <ele>2423.8000488281</ele>
        <time>2018-05-09T09:29:59.000Z</time>
      </trkpt>
      <trkpt lat="44.22945" lon="7.05203">
        <ele>2423.1999511719</ele>
        <time>2018-05-09T09:30:04.000Z</time>
      </trkpt>
      <trkpt lat="44.22951" lon="7.05202">
        <ele>2422.8000488281</ele>
        <time>2018-05-09T09:30:05.000Z</time>
      </trkpt>
      <trkpt lat="44.22956" lon="7.05205">
        <ele>2422.1999511719</ele>
        <time>2018-05-09T09:30:06.000Z</time>
      </trkpt>
      <trkpt lat="44.2296" lon="7.05211">
        <ele>2421</ele>
        <time>2018-05-09T09:30:07.000Z</time>
      </trkpt>
      <trkpt lat="44.22964" lon="7.05216">
        <ele>2419</ele>
        <time>2018-05-09T09:30:08.000Z</time>
      </trkpt>
      <trkpt lat="44.22967" lon="7.05219">
        <ele>2416.8000488281</ele>
        <time>2018-05-09T09:30:09.000Z</time>
      </trkpt>
      <trkpt lat="44.22969" lon="7.05219">
        <ele>2414.8000488281</ele>
        <time>2018-05-09T09:30:10.000Z</time>
      </trkpt>
      <trkpt lat="44.22972" lon="7.05216">
        <ele>2413.1999511719</ele>
        <time>2018-05-09T09:30:11.000Z</time>
      </trkpt>
      <trkpt lat="44.22976" lon="7.05212">
        <ele>2411.8000488281</ele>
        <time>2018-05-09T09:30:12.000Z</time>
      </trkpt>
      <trkpt lat="44.22981" lon="7.0521">
        <ele>2410.6000976562</ele>
        <time>2018-05-09T09:30:13.000Z</time>
      </trkpt>
      <trkpt lat="44.22988" lon="7.0521">
        <ele>2408.8000488281</ele>
        <time>2018-05-09T09:30:14.000Z</time>
      </trkpt>
      <trkpt lat="44.22994" lon="7.05212">
        <ele>2407</ele>
        <time>2018-05-09T09:30:15.000Z</time>
      </trkpt>
      <trkpt lat="44.22998" lon="7.05217">
        <ele>2404.8000488281</ele>
        <time>2018-05-09T09:30:16.000Z</time>
      </trkpt>
      <trkpt lat="44.23001" lon="7.05222">
        <ele>2403.3999023438</ele>
        <time>2018-05-09T09:30:17.000Z</time>
      </trkpt>
      <trkpt lat="44.23005" lon="7.05224">
        <ele>2402.1999511719</ele>
        <time>2018-05-09T09:30:18.000Z</time>
      </trkpt>
      <trkpt lat="44.23009" lon="7.05219">
        <ele>2400.6000976562</ele>
        <time>2018-05-09T09:30:20.000Z</time>
      </trkpt>
      <trkpt lat="44.23012" lon="7.05212">
        <ele>2399</ele>
        <time>2018-05-09T09:30:22.000Z</time>
      </trkpt>
      <trkpt lat="44.2302" lon="7.05212">
        <ele>2398</ele>
        <time>2018-05-09T09:30:24.000Z</time>
      </trkpt>
      <trkpt lat="44.23025" lon="7.0522">
        <ele>2396</ele>
        <time>2018-05-09T09:30:26.000Z</time>
      </trkpt>
      <trkpt lat="44.23027" lon="7.05225">
        <ele>2394.6000976562</ele>
        <time>2018-05-09T09:30:27.000Z</time>
      </trkpt>
      <trkpt lat="44.23029" lon="7.05228">
        <ele>2393.6000976562</ele>
        <time>2018-05-09T09:30:28.000Z</time>
      </trkpt>
      <trkpt lat="44.23034" lon="7.05225">
        <ele>2392</ele>
        <time>2018-05-09T09:30:30.000Z</time>
      </trkpt>
      <trkpt lat="44.23038" lon="7.05216">
        <ele>2390.1999511719</ele>
        <time>2018-05-09T09:30:32.000Z</time>
      </trkpt>
      <trkpt lat="44.23046" lon="7.05214">
        <ele>2388.3999023438</ele>
        <time>2018-05-09T09:30:34.000Z</time>
      </trkpt>
      <trkpt lat="44.23048" lon="7.05216">
        <ele>2387.1999511719</ele>
        <time>2018-05-09T09:30:35.000Z</time>
      </trkpt>
      <trkpt lat="44.23048" lon="7.05218">
        <ele>2386</ele>
        <time>2018-05-09T09:30:36.000Z</time>
      </trkpt>
      <trkpt lat="44.23046" lon="7.05219">
        <ele>2384.3999023438</ele>
        <time>2018-05-09T09:30:38.000Z</time>
      </trkpt>
      <trkpt lat="44.23047" lon="7.05219">
        <ele>2383.8000488281</ele>
        <time>2018-05-09T09:30:50.000Z</time>
      </trkpt>
      <trkpt lat="44.2305" lon="7.0522">
        <ele>2384</ele>
        <time>2018-05-09T09:31:01.000Z</time>
      </trkpt>
      <trkpt lat="44.2305" lon="7.05219">
        <ele>2383.8000488281</ele>
        <time>2018-05-09T09:31:03.000Z</time>
      </trkpt>
      <trkpt lat="44.2305" lon="7.05218">
        <ele>2383.6000976562</ele>
        <time>2018-05-09T09:31:06.000Z</time>
      </trkpt>
      <trkpt lat="44.23049" lon="7.0522">
        <ele>2383.6000976562</ele>
        <time>2018-05-09T09:31:08.000Z</time>
      </trkpt>
      <trkpt lat="44.23049" lon="7.0522">
        <ele>2383.6000976562</ele>
        <time>2018-05-09T09:31:09.000Z</time>
      </trkpt>
      <trkpt lat="44.23053" lon="7.05223">
        <ele>2383.3999023438</ele>
        <time>2018-05-09T09:31:14.000Z</time>
      </trkpt>
      <trkpt lat="44.23059" lon="7.05219">
        <ele>2383</ele>
        <time>2018-05-09T09:31:16.000Z</time>
      </trkpt>
      <trkpt lat="44.23066" lon="7.0521">
        <ele>2381.3999023438</ele>
        <time>2018-05-09T09:31:18.000Z</time>
      </trkpt>
      <trkpt lat="44.23072" lon="7.05209">
        <ele>2380.6000976562</ele>
        <time>2018-05-09T09:31:19.000Z</time>
      </trkpt>
      <trkpt lat="44.23078" lon="7.0521">
        <ele>2379.6000976562</ele>
        <time>2018-05-09T09:31:20.000Z</time>
      </trkpt>
      <trkpt lat="44.23083" lon="7.05213">
        <ele>2378.6000976562</ele>
        <time>2018-05-09T09:31:21.000Z</time>
      </trkpt>
      <trkpt lat="44.2309" lon="7.05215">
        <ele>2377.1999511719</ele>
        <time>2018-05-09T09:31:22.000Z</time>
      </trkpt>
      <trkpt lat="44.23096" lon="7.05214">
        <ele>2375.3999023438</ele>
        <time>2018-05-09T09:31:23.000Z</time>
      </trkpt>
      <trkpt lat="44.23099" lon="7.05211">
        <ele>2373.8000488281</ele>
        <time>2018-05-09T09:31:24.000Z</time>
      </trkpt>
      <trkpt lat="44.23102" lon="7.05206">
        <ele>2372.3999023438</ele>
        <time>2018-05-09T09:31:25.000Z</time>
      </trkpt>
      <trkpt lat="44.23106" lon="7.052">
        <ele>2371.1999511719</ele>
        <time>2018-05-09T09:31:26.000Z</time>
      </trkpt>
      <trkpt lat="44.2311" lon="7.05198">
        <ele>2370.1999511719</ele>
        <time>2018-05-09T09:31:27.000Z</time>
      </trkpt>
      <trkpt lat="44.23114" lon="7.052">
        <ele>2368.8000488281</ele>
        <time>2018-05-09T09:31:28.000Z</time>
      </trkpt>
      <trkpt lat="44.23118" lon="7.05202">
        <ele>2367.3999023438</ele>
        <time>2018-05-09T09:31:29.000Z</time>
      </trkpt>
      <trkpt lat="44.23124" lon="7.05202">
        <ele>2366</ele>
        <time>2018-05-09T09:31:30.000Z</time>
      </trkpt>
      <trkpt lat="44.23127" lon="7.05201">
        <ele>2364.8000488281</ele>
        <time>2018-05-09T09:31:31.000Z</time>
      </trkpt>
      <trkpt lat="44.23128" lon="7.05196">
        <ele>2364</ele>
        <time>2018-05-09T09:31:32.000Z</time>
      </trkpt>
      <trkpt lat="44.2313" lon="7.05191">
        <ele>2363</ele>
        <time>2018-05-09T09:31:33.000Z</time>
      </trkpt>
      <trkpt lat="44.23133" lon="7.05188">
        <ele>2362</ele>
        <time>2018-05-09T09:31:34.000Z</time>
      </trkpt>
      <trkpt lat="44.23137" lon="7.05186">
        <ele>2360.6000976562</ele>
        <time>2018-05-09T09:31:35.000Z</time>
      </trkpt>
      <trkpt lat="44.23139" lon="7.05183">
        <ele>2359</ele>
        <time>2018-05-09T09:31:36.000Z</time>
      </trkpt>
      <trkpt lat="44.23141" lon="7.05178">
        <ele>2357.8000488281</ele>
        <time>2018-05-09T09:31:37.000Z</time>
      </trkpt>
      <trkpt lat="44.23144" lon="7.05176">
        <ele>2356.3999023438</ele>
        <time>2018-05-09T09:31:38.000Z</time>
      </trkpt>
      <trkpt lat="44.23148" lon="7.05175">
        <ele>2355</ele>
        <time>2018-05-09T09:31:39.000Z</time>
      </trkpt>
      <trkpt lat="44.23152" lon="7.05177">
        <ele>2353</ele>
        <time>2018-05-09T09:31:40.000Z</time>
      </trkpt>
      <trkpt lat="44.23156" lon="7.05179">
        <ele>2351.1999511719</ele>
        <time>2018-05-09T09:31:41.000Z</time>
      </trkpt>
      <trkpt lat="44.23161" lon="7.05178">
        <ele>2349.6000976562</ele>
        <time>2018-05-09T09:31:42.000Z</time>
      </trkpt>
      <trkpt lat="44.23164" lon="7.05174">
        <ele>2348.6000976562</ele>
        <time>2018-05-09T09:31:43.000Z</time>
      </trkpt>
      <trkpt lat="44.23165" lon="7.05167">
        <ele>2347.3999023438</ele>
        <time>2018-05-09T09:31:44.000Z</time>
      </trkpt>
      <trkpt lat="44.23167" lon="7.05161">
        <ele>2346</ele>
        <time>2018-05-09T09:31:45.000Z</time>
      </trkpt>
      <trkpt lat="44.2317" lon="7.05156">
        <ele>2344.6000976562</ele>
        <time>2018-05-09T09:31:46.000Z</time>
      </trkpt>
      <trkpt lat="44.23174" lon="7.05155">
        <ele>2343</ele>
        <time>2018-05-09T09:31:47.000Z</time>
      </trkpt>
      <trkpt lat="44.2318" lon="7.05159">
        <ele>2341</ele>
        <time>2018-05-09T09:31:48.000Z</time>
      </trkpt>
      <trkpt lat="44.23186" lon="7.05162">
        <ele>2339</ele>
        <time>2018-05-09T09:31:49.000Z</time>
      </trkpt>
      <trkpt lat="44.23191" lon="7.05163">
        <ele>2337</ele>
        <time>2018-05-09T09:31:50.000Z</time>
      </trkpt>
      <trkpt lat="44.23194" lon="7.05158">
        <ele>2335.3999023438</ele>
        <time>2018-05-09T09:31:51.000Z</time>
      </trkpt>
      <trkpt lat="44.23196" lon="7.05151">
        <ele>2334</ele>
        <time>2018-05-09T09:31:52.000Z</time>
      </trkpt>
      <trkpt lat="44.23199" lon="7.05145">
        <ele>2332.6000976562</ele>
        <time>2018-05-09T09:31:53.000Z</time>
      </trkpt>
      <trkpt lat="44.23203" lon="7.05141">
        <ele>2331.1999511719</ele>
        <time>2018-05-09T09:31:54.000Z</time>
      </trkpt>
      <trkpt lat="44.23209" lon="7.05138">
        <ele>2329.6000976562</ele>
        <time>2018-05-09T09:31:55.000Z</time>
      </trkpt>
      <trkpt lat="44.23217" lon="7.0514">
        <ele>2327.3999023438</ele>
        <time>2018-05-09T09:31:56.000Z</time>
      </trkpt>
      <trkpt lat="44.23225" lon="7.05144">
        <ele>2325.3999023438</ele>
        <time>2018-05-09T09:31:57.000Z</time>
      </trkpt>
      <trkpt lat="44.23233" lon="7.05147">
        <ele>2323</ele>
        <time>2018-05-09T09:31:58.000Z</time>
      </trkpt>
      <trkpt lat="44.23241" lon="7.05153">
        <ele>2320.8000488281</ele>
        <time>2018-05-09T09:31:59.000Z</time>
      </trkpt>
      <trkpt lat="44.23247" lon="7.05157">
        <ele>2318.1999511719</ele>
        <time>2018-05-09T09:32:00.000Z</time>
      </trkpt>
      <trkpt lat="44.23253" lon="7.05159">
        <ele>2315.8000488281</ele>
        <time>2018-05-09T09:32:01.000Z</time>
      </trkpt>
      <trkpt lat="44.23258" lon="7.05156">
        <ele>2313.8000488281</ele>
        <time>2018-05-09T09:32:02.000Z</time>
      </trkpt>
      <trkpt lat="44.23262" lon="7.05149">
        <ele>2312.3999023438</ele>
        <time>2018-05-09T09:32:03.000Z</time>
      </trkpt>
      <trkpt lat="44.23266" lon="7.05142">
        <ele>2311.1999511719</ele>
        <time>2018-05-09T09:32:04.000Z</time>
      </trkpt>
      <trkpt lat="44.23271" lon="7.05135">
        <ele>2309.8000488281</ele>
        <time>2018-05-09T09:32:05.000Z</time>
      </trkpt>
      <trkpt lat="44.23277" lon="7.05132">
        <ele>2308.3999023438</ele>
        <time>2018-05-09T09:32:06.000Z</time>
      </trkpt>
      <trkpt lat="44.23283" lon="7.05134">
        <ele>2307</ele>
        <time>2018-05-09T09:32:07.000Z</time>
      </trkpt>
      <trkpt lat="44.23287" lon="7.05137">
        <ele>2305.8000488281</ele>
        <time>2018-05-09T09:32:08.000Z</time>
      </trkpt>
      <trkpt lat="44.23292" lon="7.05141">
        <ele>2304.3999023438</ele>
        <time>2018-05-09T09:32:09.000Z</time>
      </trkpt>
      <trkpt lat="44.23296" lon="7.05144">
        <ele>2303.1999511719</ele>
        <time>2018-05-09T09:32:10.000Z</time>
      </trkpt>
      <trkpt lat="44.23301" lon="7.05147">
        <ele>2302.1999511719</ele>
        <time>2018-05-09T09:32:11.000Z</time>
      </trkpt>
      <trkpt lat="44.23312" lon="7.05155">
        <ele>2301</ele>
        <time>2018-05-09T09:32:13.000Z</time>
      </trkpt>
      <trkpt lat="44.23319" lon="7.05157">
        <ele>2300.1999511719</ele>
        <time>2018-05-09T09:32:14.000Z</time>
      </trkpt>
      <trkpt lat="44.23326" lon="7.05155">
        <ele>2298.8000488281</ele>
        <time>2018-05-09T09:32:15.000Z</time>
      </trkpt>
      <trkpt lat="44.23332" lon="7.05151">
        <ele>2297.1999511719</ele>
        <time>2018-05-09T09:32:16.000Z</time>
      </trkpt>
      <trkpt lat="44.23338" lon="7.05147">
        <ele>2295.1999511719</ele>
        <time>2018-05-09T09:32:17.000Z</time>
      </trkpt>
      <trkpt lat="44.23344" lon="7.05146">
        <ele>2293.3999023438</ele>
        <time>2018-05-09T09:32:18.000Z</time>
      </trkpt>
      <trkpt lat="44.2335" lon="7.05149">
        <ele>2291.3999023438</ele>
        <time>2018-05-09T09:32:19.000Z</time>
      </trkpt>
      <trkpt lat="44.23354" lon="7.05154">
        <ele>2289.6000976562</ele>
        <time>2018-05-09T09:32:20.000Z</time>
      </trkpt>
      <trkpt lat="44.23356" lon="7.05159">
        <ele>2288.1999511719</ele>
        <time>2018-05-09T09:32:21.000Z</time>
      </trkpt>
      <trkpt lat="44.23356" lon="7.05161">
        <ele>2286.8000488281</ele>
        <time>2018-05-09T09:32:22.000Z</time>
      </trkpt>
      <trkpt lat="44.23356" lon="7.05162">
        <ele>2285.8000488281</ele>
        <time>2018-05-09T09:32:23.000Z</time>
      </trkpt>
      <trkpt lat="44.23355" lon="7.05162">
        <ele>2284.8000488281</ele>
        <time>2018-05-09T09:32:25.000Z</time>
      </trkpt>
      <trkpt lat="44.23354" lon="7.05161">
        <ele>2284.3999023438</ele>
        <time>2018-05-09T09:32:30.000Z</time>
      </trkpt>
      <trkpt lat="44.23349" lon="7.05166">
        <ele>2284.6000976562</ele>
        <time>2018-05-09T09:32:41.000Z</time>
      </trkpt>
      <trkpt lat="44.23351" lon="7.0516">
        <ele>2284.1999511719</ele>
        <time>2018-05-09T09:32:58.000Z</time>
      </trkpt>
      <trkpt lat="44.23352" lon="7.05159">
        <ele>2284.3999023438</ele>
        <time>2018-05-09T09:33:03.000Z</time>
      </trkpt>
      <trkpt lat="44.23358" lon="7.05155">
        <ele>2284.6000976562</ele>
        <time>2018-05-09T09:33:12.000Z</time>
      </trkpt>
      <trkpt lat="44.23362" lon="7.05153">
        <ele>2284.3999023438</ele>
        <time>2018-05-09T09:33:13.000Z</time>
      </trkpt>
      <trkpt lat="44.23379" lon="7.0515">
        <ele>2283.1999511719</ele>
        <time>2018-05-09T09:33:16.000Z</time>
      </trkpt>
      <trkpt lat="44.2339" lon="7.05152">
        <ele>2281.6000976562</ele>
        <time>2018-05-09T09:33:18.000Z</time>
      </trkpt>
      <trkpt lat="44.23395" lon="7.05154">
        <ele>2280.6000976562</ele>
        <time>2018-05-09T09:33:19.000Z</time>
      </trkpt>
      <trkpt lat="44.234" lon="7.05155">
        <ele>2279.6000976562</ele>
        <time>2018-05-09T09:33:20.000Z</time>
      </trkpt>
      <trkpt lat="44.2341" lon="7.05158">
        <ele>2278</ele>
        <time>2018-05-09T09:33:22.000Z</time>
      </trkpt>
      <trkpt lat="44.2342" lon="7.0516">
        <ele>2276.3999023438</ele>
        <time>2018-05-09T09:33:24.000Z</time>
      </trkpt>
      <trkpt lat="44.23431" lon="7.05162">
        <ele>2274.8000488281</ele>
        <time>2018-05-09T09:33:26.000Z</time>
      </trkpt>
      <trkpt lat="44.23441" lon="7.05164">
        <ele>2273.1999511719</ele>
        <time>2018-05-09T09:33:28.000Z</time>
      </trkpt>
      <trkpt lat="44.23446" lon="7.05165">
        <ele>2272.3999023438</ele>
        <time>2018-05-09T09:33:29.000Z</time>
      </trkpt>
      <trkpt lat="44.23453" lon="7.05166">
        <ele>2271.1999511719</ele>
        <time>2018-05-09T09:33:30.000Z</time>
      </trkpt>
      <trkpt lat="44.23459" lon="7.05167">
        <ele>2270.1999511719</ele>
        <time>2018-05-09T09:33:31.000Z</time>
      </trkpt>
      <trkpt lat="44.23465" lon="7.05169">
        <ele>2268.8000488281</ele>
        <time>2018-05-09T09:33:32.000Z</time>
      </trkpt>
      <trkpt lat="44.23471" lon="7.05171">
        <ele>2267.6000976562</ele>
        <time>2018-05-09T09:33:33.000Z</time>
      </trkpt>
      <trkpt lat="44.23477" lon="7.05171">
        <ele>2266.1999511719</ele>
        <time>2018-05-09T09:33:34.000Z</time>
      </trkpt>
      <trkpt lat="44.23483" lon="7.05172">
        <ele>2265</ele>
        <time>2018-05-09T09:33:35.000Z</time>
      </trkpt>
      <trkpt lat="44.23489" lon="7.05172">
        <ele>2263.8000488281</ele>
        <time>2018-05-09T09:33:36.000Z</time>
      </trkpt>
      <trkpt lat="44.23494" lon="7.05173">
        <ele>2262.8000488281</ele>
        <time>2018-05-09T09:33:37.000Z</time>
      </trkpt>
      <trkpt lat="44.235" lon="7.05173">
        <ele>2261.6000976562</ele>
        <time>2018-05-09T09:33:38.000Z</time>
      </trkpt>
      <trkpt lat="44.23507" lon="7.05171">
        <ele>2260.3999023438</ele>
        <time>2018-05-09T09:33:39.000Z</time>
      </trkpt>
      <trkpt lat="44.23514" lon="7.05168">
        <ele>2259.3999023438</ele>
        <time>2018-05-09T09:33:40.000Z</time>
      </trkpt>
      <trkpt lat="44.23521" lon="7.05165">
        <ele>2258.1999511719</ele>
        <time>2018-05-09T09:33:41.000Z</time>
      </trkpt>
      <trkpt lat="44.23529" lon="7.05164">
        <ele>2257</ele>
        <time>2018-05-09T09:33:42.000Z</time>
      </trkpt>
      <trkpt lat="44.23536" lon="7.05163">
        <ele>2256</ele>
        <time>2018-05-09T09:33:43.000Z</time>
      </trkpt>
      <trkpt lat="44.23543" lon="7.05163">
        <ele>2255</ele>
        <time>2018-05-09T09:33:44.000Z</time>
      </trkpt>
      <trkpt lat="44.23551" lon="7.05162">
        <ele>2254</ele>
        <time>2018-05-09T09:33:45.000Z</time>
      </trkpt>
      <trkpt lat="44.23558" lon="7.05162">
        <ele>2252.8000488281</ele>
        <time>2018-05-09T09:33:46.000Z</time>
      </trkpt>
      <trkpt lat="44.23565" lon="7.0516">
        <ele>2251.3999023438</ele>
        <time>2018-05-09T09:33:47.000Z</time>
      </trkpt>
      <trkpt lat="44.23571" lon="7.0516">
        <ele>2250.3999023438</ele>
        <time>2018-05-09T09:33:48.000Z</time>
      </trkpt>
      <trkpt lat="44.23585" lon="7.05158">
        <ele>2248.6000976562</ele>
        <time>2018-05-09T09:33:50.000Z</time>
      </trkpt>
      <trkpt lat="44.23592" lon="7.05155">
        <ele>2247.3999023438</ele>
        <time>2018-05-09T09:33:51.000Z</time>
      </trkpt>
      <trkpt lat="44.23605" lon="7.0515">
        <ele>2245.3999023438</ele>
        <time>2018-05-09T09:33:53.000Z</time>
      </trkpt>
      <trkpt lat="44.23619" lon="7.05147">
        <ele>2243.1999511719</ele>
        <time>2018-05-09T09:33:55.000Z</time>
      </trkpt>
      <trkpt lat="44.23625" lon="7.05146">
        <ele>2242.1999511719</ele>
        <time>2018-05-09T09:33:56.000Z</time>
      </trkpt>
      <trkpt lat="44.2363" lon="7.05145">
        <ele>2241</ele>
        <time>2018-05-09T09:33:57.000Z</time>
      </trkpt>
      <trkpt lat="44.23636" lon="7.05144">
        <ele>2240</ele>
        <time>2018-05-09T09:33:58.000Z</time>
      </trkpt>
      <trkpt lat="44.23646" lon="7.0514">
        <ele>2238.1999511719</ele>
        <time>2018-05-09T09:34:00.000Z</time>
      </trkpt>
      <trkpt lat="44.23655" lon="7.05138">
        <ele>2236.6000976562</ele>
        <time>2018-05-09T09:34:02.000Z</time>
      </trkpt>
      <trkpt lat="44.23664" lon="7.05135">
        <ele>2235.1999511719</ele>
        <time>2018-05-09T09:34:04.000Z</time>
      </trkpt>
      <trkpt lat="44.23674" lon="7.05132">
        <ele>2233.8000488281</ele>
        <time>2018-05-09T09:34:06.000Z</time>
      </trkpt>
      <trkpt lat="44.23684" lon="7.05129">
        <ele>2232.6000976562</ele>
        <time>2018-05-09T09:34:08.000Z</time>
      </trkpt>
      <trkpt lat="44.23689" lon="7.05128">
        <ele>2232.1999511719</ele>
        <time>2018-05-09T09:34:09.000Z</time>
      </trkpt>
      <trkpt lat="44.23695" lon="7.05126">
        <ele>2231.6000976562</ele>
        <time>2018-05-09T09:34:10.000Z</time>
      </trkpt>
      <trkpt lat="44.237" lon="7.05125">
        <ele>2231</ele>
        <time>2018-05-09T09:34:11.000Z</time>
      </trkpt>
      <trkpt lat="44.23711" lon="7.0512">
        <ele>2229.6000976562</ele>
        <time>2018-05-09T09:34:13.000Z</time>
      </trkpt>
      <trkpt lat="44.23722" lon="7.05113">
        <ele>2228.1999511719</ele>
        <time>2018-05-09T09:34:15.000Z</time>
      </trkpt>
      <trkpt lat="44.23732" lon="7.05105">
        <ele>2226.6000976562</ele>
        <time>2018-05-09T09:34:17.000Z</time>
      </trkpt>
      <trkpt lat="44.23742" lon="7.05096">
        <ele>2225</ele>
        <time>2018-05-09T09:34:19.000Z</time>
      </trkpt>
      <trkpt lat="44.2375" lon="7.05088">
        <ele>2223.1999511719</ele>
        <time>2018-05-09T09:34:21.000Z</time>
      </trkpt>
      <trkpt lat="44.23757" lon="7.0508">
        <ele>2221.6000976562</ele>
        <time>2018-05-09T09:34:23.000Z</time>
      </trkpt>
      <trkpt lat="44.23764" lon="7.05073">
        <ele>2220</ele>
        <time>2018-05-09T09:34:25.000Z</time>
      </trkpt>
      <trkpt lat="44.23771" lon="7.05069">
        <ele>2218.3999023438</ele>
        <time>2018-05-09T09:34:27.000Z</time>
      </trkpt>
      <trkpt lat="44.23774" lon="7.05067">
        <ele>2217.6000976562</ele>
        <time>2018-05-09T09:34:28.000Z</time>
      </trkpt>
      <trkpt lat="44.23777" lon="7.05065">
        <ele>2217</ele>
        <time>2018-05-09T09:34:29.000Z</time>
      </trkpt>
      <trkpt lat="44.23784" lon="7.05061">
        <ele>2215.8000488281</ele>
        <time>2018-05-09T09:34:31.000Z</time>
      </trkpt>
      <trkpt lat="44.23792" lon="7.05068">
        <ele>2214.3999023438</ele>
        <time>2018-05-09T09:34:34.000Z</time>
      </trkpt>
      <trkpt lat="44.23793" lon="7.05068">
        <ele>2214</ele>
        <time>2018-05-09T09:34:35.000Z</time>
      </trkpt>
      <trkpt lat="44.23791" lon="7.05068">
        <ele>2213.1999511719</ele>
        <time>2018-05-09T09:34:38.000Z</time>
      </trkpt>
      <trkpt lat="44.2379" lon="7.05068">
        <ele>2213</ele>
        <time>2018-05-09T09:34:40.000Z</time>
      </trkpt>
      <trkpt lat="44.23791" lon="7.05068">
        <ele>2213</ele>
        <time>2018-05-09T09:34:50.000Z</time>
      </trkpt>
      <trkpt lat="44.23792" lon="7.05069">
        <ele>2213</ele>
        <time>2018-05-09T09:34:55.000Z</time>
      </trkpt>
      <trkpt lat="44.23789" lon="7.05068">
        <ele>2212.6000976562</ele>
        <time>2018-05-09T09:35:02.000Z</time>
      </trkpt>
      <trkpt lat="44.23789" lon="7.05069">
        <ele>2212.8000488281</ele>
        <time>2018-05-09T09:35:09.000Z</time>
      </trkpt>
      <trkpt lat="44.23789" lon="7.05069">
        <ele>2212.8000488281</ele>
        <time>2018-05-09T09:35:10.000Z</time>
      </trkpt>
      <trkpt lat="44.23789" lon="7.05069">
        <ele>2212.8000488281</ele>
        <time>2018-05-09T09:35:11.000Z</time>
      </trkpt>
      <trkpt lat="44.23789" lon="7.0507">
        <ele>2213</ele>
        <time>2018-05-09T09:35:18.000Z</time>
      </trkpt>
      <trkpt lat="44.23789" lon="7.05071">
        <ele>2213</ele>
        <time>2018-05-09T09:35:22.000Z</time>
      </trkpt>
      <trkpt lat="44.23791" lon="7.05071">
        <ele>2213</ele>
        <time>2018-05-09T09:35:26.000Z</time>
      </trkpt>
      <trkpt lat="44.23796" lon="7.05062">
        <ele>2213</ele>
        <time>2018-05-09T09:35:40.000Z</time>
      </trkpt>
      <trkpt lat="44.23795" lon="7.05062">
        <ele>2213</ele>
        <time>2018-05-09T09:35:42.000Z</time>
      </trkpt>
      <trkpt lat="44.23793" lon="7.0506">
        <ele>2212.8000488281</ele>
        <time>2018-05-09T09:35:44.000Z</time>
      </trkpt>
      <trkpt lat="44.23797" lon="7.0506">
        <ele>2212.6000976562</ele>
        <time>2018-05-09T09:35:55.000Z</time>
      </trkpt>
      <trkpt lat="44.23798" lon="7.05061">
        <ele>2212</ele>
        <time>2018-05-09T09:36:01.000Z</time>
      </trkpt>
      <trkpt lat="44.238" lon="7.0506">
        <ele>2212.1999511719</ele>
        <time>2018-05-09T09:36:02.000Z</time>
      </trkpt>
      <trkpt lat="44.23802" lon="7.0506">
        <ele>2212.1999511719</ele>
        <time>2018-05-09T09:36:03.000Z</time>
      </trkpt>
      <trkpt lat="44.23805" lon="7.0506">
        <ele>2212</ele>
        <time>2018-05-09T09:36:04.000Z</time>
      </trkpt>
      <trkpt lat="44.23823" lon="7.05057">
        <ele>2210.8000488281</ele>
        <time>2018-05-09T09:36:08.000Z</time>
      </trkpt>
      <trkpt lat="44.23835" lon="7.05055">
        <ele>2209.6000976562</ele>
        <time>2018-05-09T09:36:10.000Z</time>
      </trkpt>
      <trkpt lat="44.23847" lon="7.05053">
        <ele>2208</ele>
        <time>2018-05-09T09:36:12.000Z</time>
      </trkpt>
      <trkpt lat="44.23853" lon="7.05052">
        <ele>2207</ele>
        <time>2018-05-09T09:36:13.000Z</time>
      </trkpt>
      <trkpt lat="44.23859" lon="7.05051">
        <ele>2205.8000488281</ele>
        <time>2018-05-09T09:36:14.000Z</time>
      </trkpt>
      <trkpt lat="44.23864" lon="7.0505">
        <ele>2205</ele>
        <time>2018-05-09T09:36:15.000Z</time>
      </trkpt>
      <trkpt lat="44.23869" lon="7.05049">
        <ele>2204</ele>
        <time>2018-05-09T09:36:16.000Z</time>
      </trkpt>
      <trkpt lat="44.23879" lon="7.05046">
        <ele>2202.1999511719</ele>
        <time>2018-05-09T09:36:18.000Z</time>
      </trkpt>
      <trkpt lat="44.2389" lon="7.05045">
        <ele>2200.3999023438</ele>
        <time>2018-05-09T09:36:20.000Z</time>
      </trkpt>
      <trkpt lat="44.23901" lon="7.05042">
        <ele>2198.6000976562</ele>
        <time>2018-05-09T09:36:22.000Z</time>
      </trkpt>
      <trkpt lat="44.23907" lon="7.0504">
        <ele>2197.6000976562</ele>
        <time>2018-05-09T09:36:23.000Z</time>
      </trkpt>
      <trkpt lat="44.23912" lon="7.05038">
        <ele>2196.6000976562</ele>
        <time>2018-05-09T09:36:24.000Z</time>
      </trkpt>
      <trkpt lat="44.23918" lon="7.05036">
        <ele>2195.3999023438</ele>
        <time>2018-05-09T09:36:25.000Z</time>
      </trkpt>
      <trkpt lat="44.23923" lon="7.05034">
        <ele>2194.1999511719</ele>
        <time>2018-05-09T09:36:26.000Z</time>
      </trkpt>
      <trkpt lat="44.23929" lon="7.05033">
        <ele>2192.8000488281</ele>
        <time>2018-05-09T09:36:27.000Z</time>
      </trkpt>
      <trkpt lat="44.23934" lon="7.05032">
        <ele>2191.8000488281</ele>
        <time>2018-05-09T09:36:28.000Z</time>
      </trkpt>
      <trkpt lat="44.2394" lon="7.0503">
        <ele>2190.8000488281</ele>
        <time>2018-05-09T09:36:29.000Z</time>
      </trkpt>
      <trkpt lat="44.23946" lon="7.05027">
        <ele>2189.8000488281</ele>
        <time>2018-05-09T09:36:30.000Z</time>
      </trkpt>
      <trkpt lat="44.2395" lon="7.05024">
        <ele>2188.6000976562</ele>
        <time>2018-05-09T09:36:31.000Z</time>
      </trkpt>
      <trkpt lat="44.23955" lon="7.05022">
        <ele>2187.6000976562</ele>
        <time>2018-05-09T09:36:32.000Z</time>
      </trkpt>
      <trkpt lat="44.23958" lon="7.05021">
        <ele>2186.3999023438</ele>
        <time>2018-05-09T09:36:33.000Z</time>
      </trkpt>
      <trkpt lat="44.23961" lon="7.05018">
        <ele>2185</ele>
        <time>2018-05-09T09:36:35.000Z</time>
      </trkpt>
      <trkpt lat="44.23962" lon="7.05017">
        <ele>2184.6000976562</ele>
        <time>2018-05-09T09:36:36.000Z</time>
      </trkpt>
      <trkpt lat="44.23965" lon="7.05013">
        <ele>2184.1999511719</ele>
        <time>2018-05-09T09:36:38.000Z</time>
      </trkpt>
      <trkpt lat="44.23967" lon="7.05013">
        <ele>2184.1999511719</ele>
        <time>2018-05-09T09:36:39.000Z</time>
      </trkpt>
      <trkpt lat="44.23977" lon="7.05012">
        <ele>2183.8000488281</ele>
        <time>2018-05-09T09:36:42.000Z</time>
      </trkpt>
      <trkpt lat="44.23988" lon="7.05009">
        <ele>2183.1999511719</ele>
        <time>2018-05-09T09:36:44.000Z</time>
      </trkpt>
      <trkpt lat="44.23993" lon="7.05006">
        <ele>2182.6000976562</ele>
        <time>2018-05-09T09:36:45.000Z</time>
      </trkpt>
      <trkpt lat="44.24004" lon="7.05002">
        <ele>2181</ele>
        <time>2018-05-09T09:36:47.000Z</time>
      </trkpt>
      <trkpt lat="44.24013" lon="7.04997">
        <ele>2179.6000976562</ele>
        <time>2018-05-09T09:36:49.000Z</time>
      </trkpt>
      <trkpt lat="44.24017" lon="7.04996">
        <ele>2179</ele>
        <time>2018-05-09T09:36:50.000Z</time>
      </trkpt>
      <trkpt lat="44.24021" lon="7.04995">
        <ele>2178.1999511719</ele>
        <time>2018-05-09T09:36:51.000Z</time>
      </trkpt>
      <trkpt lat="44.24028" lon="7.04994">
        <ele>2177.1999511719</ele>
        <time>2018-05-09T09:36:53.000Z</time>
      </trkpt>
      <trkpt lat="44.24037" lon="7.04989">
        <ele>2175.8000488281</ele>
        <time>2018-05-09T09:36:56.000Z</time>
      </trkpt>
      <trkpt lat="44.24043" lon="7.04987">
        <ele>2174.8000488281</ele>
        <time>2018-05-09T09:36:58.000Z</time>
      </trkpt>
      <trkpt lat="44.24044" lon="7.04988">
        <ele>2173.8000488281</ele>
        <time>2018-05-09T09:37:01.000Z</time>
      </trkpt>
      <trkpt lat="44.2404" lon="7.04988">
        <ele>2173</ele>
        <time>2018-05-09T09:37:16.000Z</time>
      </trkpt>
      <trkpt lat="44.2404" lon="7.04989">
        <ele>2173.3999023438</ele>
        <time>2018-05-09T09:37:25.000Z</time>
      </trkpt>
      <trkpt lat="44.2404" lon="7.0499">
        <ele>2173.1999511719</ele>
        <time>2018-05-09T09:37:31.000Z</time>
      </trkpt>
      <trkpt lat="44.2404" lon="7.0499">
        <ele>2172.8000488281</ele>
        <time>2018-05-09T09:37:42.000Z</time>
      </trkpt>
      <trkpt lat="44.24039" lon="7.0499">
        <ele>2172.8000488281</ele>
        <time>2018-05-09T09:37:43.000Z</time>
      </trkpt>
      <trkpt lat="44.24039" lon="7.0499">
        <ele>2172.8000488281</ele>
        <time>2018-05-09T09:37:44.000Z</time>
      </trkpt>
      <trkpt lat="44.2404" lon="7.0499">
        <ele>2172.8000488281</ele>
        <time>2018-05-09T09:37:47.000Z</time>
      </trkpt>
      <trkpt lat="44.2405" lon="7.04987">
        <ele>2172.8000488281</ele>
        <time>2018-05-09T09:37:54.000Z</time>
      </trkpt>
      <trkpt lat="44.2406" lon="7.04985">
        <ele>2172.1999511719</ele>
        <time>2018-05-09T09:37:56.000Z</time>
      </trkpt>
      <trkpt lat="44.24065" lon="7.04982">
        <ele>2171.8000488281</ele>
        <time>2018-05-09T09:37:57.000Z</time>
      </trkpt>
      <trkpt lat="44.24069" lon="7.04979">
        <ele>2171</ele>
        <time>2018-05-09T09:37:58.000Z</time>
      </trkpt>
      <trkpt lat="44.24074" lon="7.04978">
        <ele>2170</ele>
        <time>2018-05-09T09:37:59.000Z</time>
      </trkpt>
      <trkpt lat="44.2408" lon="7.04977">
        <ele>2168.8000488281</ele>
        <time>2018-05-09T09:38:00.000Z</time>
      </trkpt>
      <trkpt lat="44.24085" lon="7.04978">
        <ele>2167.3999023438</ele>
        <time>2018-05-09T09:38:01.000Z</time>
      </trkpt>
      <trkpt lat="44.24089" lon="7.04978">
        <ele>2166</ele>
        <time>2018-05-09T09:38:02.000Z</time>
      </trkpt>
      <trkpt lat="44.24093" lon="7.04978">
        <ele>2165.1999511719</ele>
        <time>2018-05-09T09:38:03.000Z</time>
      </trkpt>
      <trkpt lat="44.24097" lon="7.04977">
        <ele>2164.1999511719</ele>
        <time>2018-05-09T09:38:04.000Z</time>
      </trkpt>
      <trkpt lat="44.241" lon="7.04972">
        <ele>2163.3999023438</ele>
        <time>2018-05-09T09:38:05.000Z</time>
      </trkpt>
      <trkpt lat="44.24103" lon="7.04967">
        <ele>2162.3999023438</ele>
        <time>2018-05-09T09:38:06.000Z</time>
      </trkpt>
      <trkpt lat="44.24107" lon="7.04965">
        <ele>2161.6000976562</ele>
        <time>2018-05-09T09:38:07.000Z</time>
      </trkpt>
      <trkpt lat="44.24111" lon="7.04965">
        <ele>2160.3999023438</ele>
        <time>2018-05-09T09:38:08.000Z</time>
      </trkpt>
      <trkpt lat="44.24113" lon="7.04967">
        <ele>2159.1999511719</ele>
        <time>2018-05-09T09:38:09.000Z</time>
      </trkpt>
      <trkpt lat="44.24115" lon="7.04969">
        <ele>2157.8000488281</ele>
        <time>2018-05-09T09:38:10.000Z</time>
      </trkpt>
      <trkpt lat="44.2412" lon="7.04974">
        <ele>2156.1999511719</ele>
        <time>2018-05-09T09:38:12.000Z</time>
      </trkpt>
      <trkpt lat="44.24127" lon="7.04979">
        <ele>2154.8000488281</ele>
        <time>2018-05-09T09:38:14.000Z</time>
      </trkpt>
      <trkpt lat="44.2413" lon="7.04979">
        <ele>2154</ele>
        <time>2018-05-09T09:38:15.000Z</time>
      </trkpt>
      <trkpt lat="44.24132" lon="7.04976">
        <ele>2152.8000488281</ele>
        <time>2018-05-09T09:38:16.000Z</time>
      </trkpt>
      <trkpt lat="44.24134" lon="7.04972">
        <ele>2151.6000976562</ele>
        <time>2018-05-09T09:38:17.000Z</time>
      </trkpt>
      <trkpt lat="44.24137" lon="7.04969">
        <ele>2150.1999511719</ele>
        <time>2018-05-09T09:38:18.000Z</time>
      </trkpt>
      <trkpt lat="44.24142" lon="7.04969">
        <ele>2148.6000976562</ele>
        <time>2018-05-09T09:38:19.000Z</time>
      </trkpt>
      <trkpt lat="44.24146" lon="7.04973">
        <ele>2147</ele>
        <time>2018-05-09T09:38:20.000Z</time>
      </trkpt>
      <trkpt lat="44.24151" lon="7.04976">
        <ele>2145.1999511719</ele>
        <time>2018-05-09T09:38:21.000Z</time>
      </trkpt>
      <trkpt lat="44.24155" lon="7.04978">
        <ele>2143.6000976562</ele>
        <time>2018-05-09T09:38:22.000Z</time>
      </trkpt>
      <trkpt lat="44.24157" lon="7.04979">
        <ele>2142.1999511719</ele>
        <time>2018-05-09T09:38:23.000Z</time>
      </trkpt>
      <trkpt lat="44.2416" lon="7.04977">
        <ele>2140.8000488281</ele>
        <time>2018-05-09T09:38:24.000Z</time>
      </trkpt>
      <trkpt lat="44.24162" lon="7.04972">
        <ele>2139.6000976562</ele>
        <time>2018-05-09T09:38:25.000Z</time>
      </trkpt>
      <trkpt lat="44.24166" lon="7.04969">
        <ele>2138.6000976562</ele>
        <time>2018-05-09T09:38:26.000Z</time>
      </trkpt>
      <trkpt lat="44.24171" lon="7.04969">
        <ele>2137.3999023438</ele>
        <time>2018-05-09T09:38:27.000Z</time>
      </trkpt>
      <trkpt lat="44.24176" lon="7.04971">
        <ele>2135.8000488281</ele>
        <time>2018-05-09T09:38:28.000Z</time>
      </trkpt>
      <trkpt lat="44.24182" lon="7.04974">
        <ele>2134.1999511719</ele>
        <time>2018-05-09T09:38:29.000Z</time>
      </trkpt>
      <trkpt lat="44.24187" lon="7.04978">
        <ele>2133</ele>
        <time>2018-05-09T09:38:30.000Z</time>
      </trkpt>
      <trkpt lat="44.24192" lon="7.04982">
        <ele>2131.6000976562</ele>
        <time>2018-05-09T09:38:31.000Z</time>
      </trkpt>
      <trkpt lat="44.24195" lon="7.04984">
        <ele>2130</ele>
        <time>2018-05-09T09:38:32.000Z</time>
      </trkpt>
      <trkpt lat="44.24195" lon="7.04985">
        <ele>2128.1999511719</ele>
        <time>2018-05-09T09:38:33.000Z</time>
      </trkpt>
      <trkpt lat="44.24194" lon="7.04986">
        <ele>2126.8000488281</ele>
        <time>2018-05-09T09:38:34.000Z</time>
      </trkpt>
      <trkpt lat="44.24194" lon="7.04986">
        <ele>2125.1999511719</ele>
        <time>2018-05-09T09:38:36.000Z</time>
      </trkpt>
      <trkpt lat="44.24198" lon="7.05002">
        <ele>2124.3999023438</ele>
        <time>2018-05-09T09:38:55.000Z</time>
      </trkpt>
      <trkpt lat="44.24195" lon="7.04998">
        <ele>2124.3999023438</ele>
        <time>2018-05-09T09:39:05.000Z</time>
      </trkpt>
      <trkpt lat="44.24193" lon="7.04998">
        <ele>2124.3999023438</ele>
        <time>2018-05-09T09:39:08.000Z</time>
      </trkpt>
      <trkpt lat="44.24193" lon="7.04997">
        <ele>2124.3999023438</ele>
        <time>2018-05-09T09:39:10.000Z</time>
      </trkpt>
      <trkpt lat="44.24195" lon="7.05002">
        <ele>2124.6000976562</ele>
        <time>2018-05-09T09:39:22.000Z</time>
      </trkpt>
      <trkpt lat="44.24196" lon="7.0499">
        <ele>2124</ele>
        <time>2018-05-09T09:39:27.000Z</time>
      </trkpt>
      <trkpt lat="44.24204" lon="7.04987">
        <ele>2122</ele>
        <time>2018-05-09T09:39:29.000Z</time>
      </trkpt>
      <trkpt lat="44.24208" lon="7.04989">
        <ele>2120.3999023438</ele>
        <time>2018-05-09T09:39:30.000Z</time>
      </trkpt>
      <trkpt lat="44.2421" lon="7.04985">
        <ele>2118.3999023438</ele>
        <time>2018-05-09T09:39:31.000Z</time>
      </trkpt>
      <trkpt lat="44.24213" lon="7.04978">
        <ele>2116.3999023438</ele>
        <time>2018-05-09T09:39:32.000Z</time>
      </trkpt>
      <trkpt lat="44.24216" lon="7.04974">
        <ele>2114.3999023438</ele>
        <time>2018-05-09T09:39:33.000Z</time>
      </trkpt>
      <trkpt lat="44.24221" lon="7.04972">
        <ele>2112.3999023438</ele>
        <time>2018-05-09T09:39:34.000Z</time>
      </trkpt>
      <trkpt lat="44.24226" lon="7.04971">
        <ele>2110.3999023438</ele>
        <time>2018-05-09T09:39:35.000Z</time>
      </trkpt>
      <trkpt lat="44.24232" lon="7.04971">
        <ele>2108.1999511719</ele>
        <time>2018-05-09T09:39:36.000Z</time>
      </trkpt>
      <trkpt lat="44.24236" lon="7.0497">
        <ele>2105.8000488281</ele>
        <time>2018-05-09T09:39:37.000Z</time>
      </trkpt>
      <trkpt lat="44.24239" lon="7.04966">
        <ele>2103.3999023438</ele>
        <time>2018-05-09T09:39:38.000Z</time>
      </trkpt>
      <trkpt lat="44.24243" lon="7.04963">
        <ele>2101.3999023438</ele>
        <time>2018-05-09T09:39:39.000Z</time>
      </trkpt>
      <trkpt lat="44.24248" lon="7.0496">
        <ele>2099.3999023438</ele>
        <time>2018-05-09T09:39:40.000Z</time>
      </trkpt>
      <trkpt lat="44.24254" lon="7.04959">
        <ele>2097.1999511719</ele>
        <time>2018-05-09T09:39:41.000Z</time>
      </trkpt>
      <trkpt lat="44.24258" lon="7.04967">
        <ele>2095.1999511719</ele>
        <time>2018-05-09T09:39:42.000Z</time>
      </trkpt>
      <trkpt lat="44.24261" lon="7.04967">
        <ele>2093</ele>
        <time>2018-05-09T09:39:43.000Z</time>
      </trkpt>
      <trkpt lat="44.24263" lon="7.04964">
        <ele>2091</ele>
        <time>2018-05-09T09:39:44.000Z</time>
      </trkpt>
      <trkpt lat="44.24265" lon="7.04959">
        <ele>2089.1999511719</ele>
        <time>2018-05-09T09:39:45.000Z</time>
      </trkpt>
      <trkpt lat="44.24269" lon="7.04956">
        <ele>2087.6000976562</ele>
        <time>2018-05-09T09:39:46.000Z</time>
      </trkpt>
      <trkpt lat="44.24274" lon="7.04955">
        <ele>2086.1999511719</ele>
        <time>2018-05-09T09:39:47.000Z</time>
      </trkpt>
      <trkpt lat="44.24279" lon="7.04954">
        <ele>2084.6000976562</ele>
        <time>2018-05-09T09:39:48.000Z</time>
      </trkpt>
      <trkpt lat="44.24283" lon="7.04959">
        <ele>2082.3999023438</ele>
        <time>2018-05-09T09:39:49.000Z</time>
      </trkpt>
      <trkpt lat="44.24286" lon="7.04959">
        <ele>2080.3999023438</ele>
        <time>2018-05-09T09:39:50.000Z</time>
      </trkpt>
      <trkpt lat="44.24288" lon="7.04957">
        <ele>2078.1999511719</ele>
        <time>2018-05-09T09:39:51.000Z</time>
      </trkpt>
      <trkpt lat="44.24289" lon="7.04952">
        <ele>2076.1999511719</ele>
        <time>2018-05-09T09:39:52.000Z</time>
      </trkpt>
      <trkpt lat="44.24292" lon="7.0495">
        <ele>2074.1999511719</ele>
        <time>2018-05-09T09:39:53.000Z</time>
      </trkpt>
      <trkpt lat="44.24295" lon="7.04946">
        <ele>2072.3999023438</ele>
        <time>2018-05-09T09:39:54.000Z</time>
      </trkpt>
      <trkpt lat="44.24298" lon="7.04944">
        <ele>2070.6000976562</ele>
        <time>2018-05-09T09:39:55.000Z</time>
      </trkpt>
      <trkpt lat="44.24302" lon="7.04943">
        <ele>2069.1999511719</ele>
        <time>2018-05-09T09:39:56.000Z</time>
      </trkpt>
      <trkpt lat="44.24306" lon="7.04943">
        <ele>2067.8000488281</ele>
        <time>2018-05-09T09:39:57.000Z</time>
      </trkpt>
      <trkpt lat="44.24309" lon="7.04945">
        <ele>2066.3999023438</ele>
        <time>2018-05-09T09:39:58.000Z</time>
      </trkpt>
      <trkpt lat="44.24314" lon="7.04948">
        <ele>2064.8000488281</ele>
        <time>2018-05-09T09:39:59.000Z</time>
      </trkpt>
      <trkpt lat="44.24319" lon="7.04952">
        <ele>2063.3999023438</ele>
        <time>2018-05-09T09:40:00.000Z</time>
      </trkpt>
      <trkpt lat="44.24322" lon="7.04954">
        <ele>2061.8000488281</ele>
        <time>2018-05-09T09:40:01.000Z</time>
      </trkpt>
      <trkpt lat="44.24323" lon="7.04951">
        <ele>2060.1999511719</ele>
        <time>2018-05-09T09:40:02.000Z</time>
      </trkpt>
      <trkpt lat="44.24324" lon="7.04946">
        <ele>2058.6000976562</ele>
        <time>2018-05-09T09:40:03.000Z</time>
      </trkpt>
      <trkpt lat="44.24341" lon="7.04939">
        <ele>2052</ele>
        <time>2018-05-09T09:40:07.000Z</time>
      </trkpt>
      <trkpt lat="44.24343" lon="7.04926">
        <ele>2047.1999511719</ele>
        <time>2018-05-09T09:40:09.000Z</time>
      </trkpt>
      <trkpt lat="44.24345" lon="7.04918">
        <ele>2045</ele>
        <time>2018-05-09T09:40:10.000Z</time>
      </trkpt>
      <trkpt lat="44.2435" lon="7.04915">
        <ele>2042.8000488281</ele>
        <time>2018-05-09T09:40:11.000Z</time>
      </trkpt>
      <trkpt lat="44.24358" lon="7.04917">
        <ele>2040.5999755859</ele>
        <time>2018-05-09T09:40:12.000Z</time>
      </trkpt>
      <trkpt lat="44.24364" lon="7.04918">
        <ele>2037.8000488281</ele>
        <time>2018-05-09T09:40:13.000Z</time>
      </trkpt>
      <trkpt lat="44.2437" lon="7.04917">
        <ele>2035.1999511719</ele>
        <time>2018-05-09T09:40:14.000Z</time>
      </trkpt>
      <trkpt lat="44.24373" lon="7.04912">
        <ele>2032.5999755859</ele>
        <time>2018-05-09T09:40:15.000Z</time>
      </trkpt>
      <trkpt lat="44.24376" lon="7.04906">
        <ele>2030.5999755859</ele>
        <time>2018-05-09T09:40:16.000Z</time>
      </trkpt>
      <trkpt lat="44.24382" lon="7.049">
        <ele>2028.5999755859</ele>
        <time>2018-05-09T09:40:17.000Z</time>
      </trkpt>
      <trkpt lat="44.24383" lon="7.04893">
        <ele>2026.5999755859</ele>
        <time>2018-05-09T09:40:18.000Z</time>
      </trkpt>
      <trkpt lat="44.24388" lon="7.04893">
        <ele>2024.4000244141</ele>
        <time>2018-05-09T09:40:19.000Z</time>
      </trkpt>
      <trkpt lat="44.24393" lon="7.04891">
        <ele>2022.4000244141</ele>
        <time>2018-05-09T09:40:20.000Z</time>
      </trkpt>
      <trkpt lat="44.24396" lon="7.04887">
        <ele>2020.1999511719</ele>
        <time>2018-05-09T09:40:21.000Z</time>
      </trkpt>
      <trkpt lat="44.24398" lon="7.04881">
        <ele>2018.1999511719</ele>
        <time>2018-05-09T09:40:22.000Z</time>
      </trkpt>
      <trkpt lat="44.24401" lon="7.04876">
        <ele>2016.1999511719</ele>
        <time>2018-05-09T09:40:23.000Z</time>
      </trkpt>
      <trkpt lat="44.24406" lon="7.04877">
        <ele>2014.4000244141</ele>
        <time>2018-05-09T09:40:24.000Z</time>
      </trkpt>
      <trkpt lat="44.24412" lon="7.0488">
        <ele>2012.4000244141</ele>
        <time>2018-05-09T09:40:25.000Z</time>
      </trkpt>
      <trkpt lat="44.24417" lon="7.04882">
        <ele>2010.1999511719</ele>
        <time>2018-05-09T09:40:26.000Z</time>
      </trkpt>
      <trkpt lat="44.24422" lon="7.04881">
        <ele>2008</ele>
        <time>2018-05-09T09:40:27.000Z</time>
      </trkpt>
      <trkpt lat="44.24426" lon="7.04878">
        <ele>2006</ele>
        <time>2018-05-09T09:40:28.000Z</time>
      </trkpt>
      <trkpt lat="44.24429" lon="7.04873">
        <ele>2004</ele>
        <time>2018-05-09T09:40:29.000Z</time>
      </trkpt>
      <trkpt lat="44.24431" lon="7.04869">
        <ele>2002.1999511719</ele>
        <time>2018-05-09T09:40:30.000Z</time>
      </trkpt>
      <trkpt lat="44.24434" lon="7.04865">
        <ele>2000.8000488281</ele>
        <time>2018-05-09T09:40:31.000Z</time>
      </trkpt>
      <trkpt lat="44.24432" lon="7.04863">
        <ele>1999.5999755859</ele>
        <time>2018-05-09T09:40:32.000Z</time>
      </trkpt>
      <trkpt lat="44.24434" lon="7.04864">
        <ele>1998.5999755859</ele>
        <time>2018-05-09T09:40:33.000Z</time>
      </trkpt>
      <trkpt lat="44.24439" lon="7.04867">
        <ele>1997.5999755859</ele>
        <time>2018-05-09T09:40:34.000Z</time>
      </trkpt>
      <trkpt lat="44.24443" lon="7.04867">
        <ele>1996.1999511719</ele>
        <time>2018-05-09T09:40:35.000Z</time>
      </trkpt>
      <trkpt lat="44.24448" lon="7.04865">
        <ele>1994.1999511719</ele>
        <time>2018-05-09T09:40:36.000Z</time>
      </trkpt>
      <trkpt lat="44.24451" lon="7.04861">
        <ele>1991.5999755859</ele>
        <time>2018-05-09T09:40:37.000Z</time>
      </trkpt>
      <trkpt lat="44.24455" lon="7.04858">
        <ele>1989.1999511719</ele>
        <time>2018-05-09T09:40:38.000Z</time>
      </trkpt>
      <trkpt lat="44.2446" lon="7.04856">
        <ele>1987</ele>
        <time>2018-05-09T09:40:39.000Z</time>
      </trkpt>
      <trkpt lat="44.24466" lon="7.04859">
        <ele>1985.1999511719</ele>
        <time>2018-05-09T09:40:40.000Z</time>
      </trkpt>
      <trkpt lat="44.24473" lon="7.0486">
        <ele>1983.4000244141</ele>
        <time>2018-05-09T09:40:41.000Z</time>
      </trkpt>
      <trkpt lat="44.24479" lon="7.04862">
        <ele>1981</ele>
        <time>2018-05-09T09:40:42.000Z</time>
      </trkpt>
      <trkpt lat="44.24485" lon="7.04863">
        <ele>1978.5999755859</ele>
        <time>2018-05-09T09:40:43.000Z</time>
      </trkpt>
      <trkpt lat="44.24489" lon="7.0486">
        <ele>1976.1999511719</ele>
        <time>2018-05-09T09:40:44.000Z</time>
      </trkpt>
      <trkpt lat="44.24492" lon="7.04857">
        <ele>1974.5999755859</ele>
        <time>2018-05-09T09:40:45.000Z</time>
      </trkpt>
      <trkpt lat="44.24498" lon="7.04849">
        <ele>1973.1999511719</ele>
        <time>2018-05-09T09:40:46.000Z</time>
      </trkpt>
      <trkpt lat="44.245" lon="7.0485">
        <ele>1971.5999755859</ele>
        <time>2018-05-09T09:40:47.000Z</time>
      </trkpt>
      <trkpt lat="44.24501" lon="7.04851">
        <ele>1969.5999755859</ele>
        <time>2018-05-09T09:40:48.000Z</time>
      </trkpt>
      <trkpt lat="44.24501" lon="7.04853">
        <ele>1967.8000488281</ele>
        <time>2018-05-09T09:40:49.000Z</time>
      </trkpt>
      <trkpt lat="44.245" lon="7.04856">
        <ele>1966.1999511719</ele>
        <time>2018-05-09T09:40:50.000Z</time>
      </trkpt>
      <trkpt lat="44.24499" lon="7.04858">
        <ele>1964.5999755859</ele>
        <time>2018-05-09T09:40:52.000Z</time>
      </trkpt>
      <trkpt lat="44.24498" lon="7.04859">
        <ele>1964</ele>
        <time>2018-05-09T09:40:54.000Z</time>
      </trkpt>
      <trkpt lat="44.24497" lon="7.0486">
        <ele>1963.8000488281</ele>
        <time>2018-05-09T09:40:57.000Z</time>
      </trkpt>
      <trkpt lat="44.24497" lon="7.0486">
        <ele>1963.8000488281</ele>
        <time>2018-05-09T09:40:59.000Z</time>
      </trkpt>
      <trkpt lat="44.24496" lon="7.04861">
        <ele>1964</ele>
        <time>2018-05-09T09:41:03.000Z</time>
      </trkpt>
      <trkpt lat="44.24496" lon="7.04858">
        <ele>1964</ele>
        <time>2018-05-09T09:41:07.000Z</time>
      </trkpt>
      <trkpt lat="44.24511" lon="7.04847">
        <ele>1964</ele>
        <time>2018-05-09T09:41:16.000Z</time>
      </trkpt>
      <trkpt lat="44.24493" lon="7.04849">
        <ele>1964</ele>
        <time>2018-05-09T09:41:24.000Z</time>
      </trkpt>
      <trkpt lat="44.24491" lon="7.04867">
        <ele>1964</ele>
        <time>2018-05-09T09:41:30.000Z</time>
      </trkpt>
      <trkpt lat="44.24494" lon="7.04876">
        <ele>1963.5999755859</ele>
        <time>2018-05-09T09:41:32.000Z</time>
      </trkpt>
      <trkpt lat="44.24496" lon="7.04881">
        <ele>1963.4000244141</ele>
        <time>2018-05-09T09:41:33.000Z</time>
      </trkpt>
      <trkpt lat="44.24511" lon="7.04878">
        <ele>1961.8000488281</ele>
        <time>2018-05-09T09:41:36.000Z</time>
      </trkpt>
      <trkpt lat="44.24519" lon="7.04881">
        <ele>1960.8000488281</ele>
        <time>2018-05-09T09:41:38.000Z</time>
      </trkpt>
      <trkpt lat="44.24527" lon="7.04885">
        <ele>1959.4000244141</ele>
        <time>2018-05-09T09:41:40.000Z</time>
      </trkpt>
      <trkpt lat="44.24534" lon="7.04885">
        <ele>1958.4000244141</ele>
        <time>2018-05-09T09:41:42.000Z</time>
      </trkpt>
      <trkpt lat="44.24549" lon="7.04885">
        <ele>1957.1999511719</ele>
        <time>2018-05-09T09:41:45.000Z</time>
      </trkpt>
      <trkpt lat="44.24559" lon="7.0489">
        <ele>1955.8000488281</ele>
        <time>2018-05-09T09:41:48.000Z</time>
      </trkpt>
      <trkpt lat="44.24571" lon="7.0489">
        <ele>1954.5999755859</ele>
        <time>2018-05-09T09:41:51.000Z</time>
      </trkpt>
      <trkpt lat="44.24578" lon="7.04883">
        <ele>1953.1999511719</ele>
        <time>2018-05-09T09:41:53.000Z</time>
      </trkpt>
      <trkpt lat="44.24581" lon="7.04879">
        <ele>1952.1999511719</ele>
        <time>2018-05-09T09:41:54.000Z</time>
      </trkpt>
      <trkpt lat="44.24585" lon="7.04875">
        <ele>1951</ele>
        <time>2018-05-09T09:41:55.000Z</time>
      </trkpt>
      <trkpt lat="44.24591" lon="7.04871">
        <ele>1949.5999755859</ele>
        <time>2018-05-09T09:41:56.000Z</time>
      </trkpt>
      <trkpt lat="44.24597" lon="7.04863">
        <ele>1948.1999511719</ele>
        <time>2018-05-09T09:41:57.000Z</time>
      </trkpt>
      <trkpt lat="44.24603" lon="7.04856">
        <ele>1946.8000488281</ele>
        <time>2018-05-09T09:41:58.000Z</time>
      </trkpt>
      <trkpt lat="44.2461" lon="7.04851">
        <ele>1945.5999755859</ele>
        <time>2018-05-09T09:41:59.000Z</time>
      </trkpt>
      <trkpt lat="44.24618" lon="7.04849">
        <ele>1944</ele>
        <time>2018-05-09T09:42:00.000Z</time>
      </trkpt>
      <trkpt lat="44.24626" lon="7.04845">
        <ele>1941.8000488281</ele>
        <time>2018-05-09T09:42:01.000Z</time>
      </trkpt>
      <trkpt lat="44.24632" lon="7.04841">
        <ele>1939.4000244141</ele>
        <time>2018-05-09T09:42:02.000Z</time>
      </trkpt>
      <trkpt lat="44.24638" lon="7.04835">
        <ele>1937</ele>
        <time>2018-05-09T09:42:03.000Z</time>
      </trkpt>
      <trkpt lat="44.24643" lon="7.04831">
        <ele>1935.4000244141</ele>
        <time>2018-05-09T09:42:04.000Z</time>
      </trkpt>
      <trkpt lat="44.24649" lon="7.04828">
        <ele>1934</ele>
        <time>2018-05-09T09:42:05.000Z</time>
      </trkpt>
      <trkpt lat="44.24655" lon="7.04827">
        <ele>1933</ele>
        <time>2018-05-09T09:42:06.000Z</time>
      </trkpt>
      <trkpt lat="44.2466" lon="7.04827">
        <ele>1931.8000488281</ele>
        <time>2018-05-09T09:42:07.000Z</time>
      </trkpt>
      <trkpt lat="44.24665" lon="7.04827">
        <ele>1931</ele>
        <time>2018-05-09T09:42:08.000Z</time>
      </trkpt>
      <trkpt lat="44.2467" lon="7.04826">
        <ele>1930</ele>
        <time>2018-05-09T09:42:09.000Z</time>
      </trkpt>
      <trkpt lat="44.24674" lon="7.04825">
        <ele>1929.1999511719</ele>
        <time>2018-05-09T09:42:10.000Z</time>
      </trkpt>
      <trkpt lat="44.24677" lon="7.04824">
        <ele>1928.5999755859</ele>
        <time>2018-05-09T09:42:11.000Z</time>
      </trkpt>
      <trkpt lat="44.24683" lon="7.0482">
        <ele>1927.4000244141</ele>
        <time>2018-05-09T09:42:13.000Z</time>
      </trkpt>
      <trkpt lat="44.24691" lon="7.04816">
        <ele>1926.4000244141</ele>
        <time>2018-05-09T09:42:17.000Z</time>
      </trkpt>
      <trkpt lat="44.24693" lon="7.04814">
        <ele>1926.1999511719</ele>
        <time>2018-05-09T09:42:19.000Z</time>
      </trkpt>
      <trkpt lat="44.24696" lon="7.04808">
        <ele>1926.1999511719</ele>
        <time>2018-05-09T09:42:21.000Z</time>
      </trkpt>
      <trkpt lat="44.24697" lon="7.04806">
        <ele>1926.1999511719</ele>
        <time>2018-05-09T09:42:22.000Z</time>
      </trkpt>
      <trkpt lat="44.24699" lon="7.04801">
        <ele>1926.1999511719</ele>
        <time>2018-05-09T09:42:24.000Z</time>
      </trkpt>
      <trkpt lat="44.24699" lon="7.048">
        <ele>1926.1999511719</ele>
        <time>2018-05-09T09:42:26.000Z</time>
      </trkpt>
      <trkpt lat="44.24699" lon="7.04798">
        <ele>1926.1999511719</ele>
        <time>2018-05-09T09:42:28.000Z</time>
      </trkpt>
      <trkpt lat="44.24702" lon="7.04793">
        <ele>1926.1999511719</ele>
        <time>2018-05-09T09:42:31.000Z</time>
      </trkpt>
      <trkpt lat="44.24706" lon="7.04789">
        <ele>1926.1999511719</ele>
        <time>2018-05-09T09:42:34.000Z</time>
      </trkpt>
      <trkpt lat="44.24707" lon="7.04788">
        <ele>1926.1999511719</ele>
        <time>2018-05-09T09:42:35.000Z</time>
      </trkpt>
      <trkpt lat="44.24708" lon="7.04788">
        <ele>1926</ele>
        <time>2018-05-09T09:42:38.000Z</time>
      </trkpt>
      <trkpt lat="44.24708" lon="7.04789">
        <ele>1926</ele>
        <time>2018-05-09T09:42:40.000Z</time>
      </trkpt>
      <trkpt lat="44.24711" lon="7.0479">
        <ele>1926</ele>
        <time>2018-05-09T09:42:42.000Z</time>
      </trkpt>
      <trkpt lat="44.24715" lon="7.0479">
        <ele>1926.1999511719</ele>
        <time>2018-05-09T09:42:44.000Z</time>
      </trkpt>
      <trkpt lat="44.2472" lon="7.04791">
        <ele>1926.1999511719</ele>
        <time>2018-05-09T09:42:47.000Z</time>
      </trkpt>
      <trkpt lat="44.24723" lon="7.04798">
        <ele>1925.5999755859</ele>
        <time>2018-05-09T09:42:52.000Z</time>
      </trkpt>
      <trkpt lat="44.24724" lon="7.048">
        <ele>1925.4000244141</ele>
        <time>2018-05-09T09:42:54.000Z</time>
      </trkpt>
      <trkpt lat="44.24724" lon="7.04801">
        <ele>1925.4000244141</ele>
        <time>2018-05-09T09:42:55.000Z</time>
      </trkpt>
      <trkpt lat="44.24725" lon="7.04789">
        <ele>1925</ele>
        <time>2018-05-09T09:43:12.000Z</time>
      </trkpt>
      <trkpt lat="44.24726" lon="7.0479">
        <ele>1925</ele>
        <time>2018-05-09T09:43:13.000Z</time>
      </trkpt>
      <trkpt lat="44.24722" lon="7.04813">
        <ele>1925.4000244141</ele>
        <time>2018-05-09T09:43:23.000Z</time>
      </trkpt>
      <trkpt lat="44.24718" lon="7.04814">
        <ele>1925.4000244141</ele>
        <time>2018-05-09T09:43:25.000Z</time>
      </trkpt>
      <trkpt lat="44.24721" lon="7.0481">
        <ele>1925.4000244141</ele>
        <time>2018-05-09T09:43:34.000Z</time>
      </trkpt>
      <trkpt lat="44.24721" lon="7.04808">
        <ele>1925.4000244141</ele>
        <time>2018-05-09T09:43:39.000Z</time>
      </trkpt>
      <trkpt lat="44.24719" lon="7.04807">
        <ele>1925.4000244141</ele>
        <time>2018-05-09T09:43:43.000Z</time>
      </trkpt>
      <trkpt lat="44.24718" lon="7.04807">
        <ele>1925.1999511719</ele>
        <time>2018-05-09T09:43:51.000Z</time>
      </trkpt>
      <trkpt lat="44.24718" lon="7.04807">
        <ele>1925.1999511719</ele>
        <time>2018-05-09T09:43:53.000Z</time>
      </trkpt>
      <trkpt lat="44.24719" lon="7.04807">
        <ele>1925.1999511719</ele>
        <time>2018-05-09T09:43:55.000Z</time>
      </trkpt>
      <trkpt lat="44.24717" lon="7.04804">
        <ele>1925.1999511719</ele>
        <time>2018-05-09T09:43:58.000Z</time>
      </trkpt>
      <trkpt lat="44.24717" lon="7.04802">
        <ele>1925.1999511719</ele>
        <time>2018-05-09T09:44:00.000Z</time>
      </trkpt>
      <trkpt lat="44.24715" lon="7.04808">
        <ele>1925.1999511719</ele>
        <time>2018-05-09T09:44:13.000Z</time>
      </trkpt>
      <trkpt lat="44.24722" lon="7.04799">
        <ele>1925.1999511719</ele>
        <time>2018-05-09T09:44:20.000Z</time>
      </trkpt>
      <trkpt lat="44.24724" lon="7.04791">
        <ele>1925</ele>
        <time>2018-05-09T09:44:28.000Z</time>
      </trkpt>
      <trkpt lat="44.24726" lon="7.0479">
        <ele>1925</ele>
        <time>2018-05-09T09:44:30.000Z</time>
      </trkpt>
      <trkpt lat="44.24727" lon="7.0479">
        <ele>1925</ele>
        <time>2018-05-09T09:44:31.000Z</time>
      </trkpt>
      <trkpt lat="44.24728" lon="7.04789">
        <ele>1925</ele>
        <time>2018-05-09T09:44:32.000Z</time>
      </trkpt>
      <trkpt lat="44.24729" lon="7.04787">
        <ele>1925.1999511719</ele>
        <time>2018-05-09T09:44:33.000Z</time>
      </trkpt>
      <trkpt lat="44.24731" lon="7.04785">
        <ele>1925.1999511719</ele>
        <time>2018-05-09T09:44:34.000Z</time>
      </trkpt>
      <trkpt lat="44.24732" lon="7.04782">
        <ele>1925.1999511719</ele>
        <time>2018-05-09T09:44:35.000Z</time>
      </trkpt>
      <trkpt lat="44.24734" lon="7.04781">
        <ele>1925.4000244141</ele>
        <time>2018-05-09T09:44:36.000Z</time>
      </trkpt>
      <trkpt lat="44.24744" lon="7.04771">
        <ele>1925.4000244141</ele>
        <time>2018-05-09T09:44:42.000Z</time>
      </trkpt>
      <trkpt lat="44.24751" lon="7.04763">
        <ele>1925.1999511719</ele>
        <time>2018-05-09T09:44:47.000Z</time>
      </trkpt>
      <trkpt lat="44.24754" lon="7.04762">
        <ele>1925.1999511719</ele>
        <time>2018-05-09T09:44:49.000Z</time>
      </trkpt>
      <trkpt lat="44.24754" lon="7.04761">
        <ele>1925.1999511719</ele>
        <time>2018-05-09T09:44:50.000Z</time>
      </trkpt>
      <trkpt lat="44.24755" lon="7.0476">
        <ele>1925.4000244141</ele>
        <time>2018-05-09T09:44:52.000Z</time>
      </trkpt>
      <trkpt lat="44.24756" lon="7.04758">
        <ele>1925.4000244141</ele>
        <time>2018-05-09T09:44:53.000Z</time>
      </trkpt>
      <trkpt lat="44.24757" lon="7.04755">
        <ele>1925.5999755859</ele>
        <time>2018-05-09T09:44:57.000Z</time>
      </trkpt>
      <trkpt lat="44.24762" lon="7.04751">
        <ele>1925.8000488281</ele>
        <time>2018-05-09T09:45:03.000Z</time>
      </trkpt>
      <trkpt lat="44.24764" lon="7.0475">
        <ele>1925.5999755859</ele>
        <time>2018-05-09T09:45:06.000Z</time>
      </trkpt>
      <trkpt lat="44.24766" lon="7.04749">
        <ele>1925.5999755859</ele>
        <time>2018-05-09T09:45:08.000Z</time>
      </trkpt>
      <trkpt lat="44.24767" lon="7.04747">
        <ele>1925.8000488281</ele>
        <time>2018-05-09T09:45:10.000Z</time>
      </trkpt>
      <trkpt lat="44.24768" lon="7.04746">
        <ele>1925.8000488281</ele>
        <time>2018-05-09T09:45:11.000Z</time>
      </trkpt>
      <trkpt lat="44.24769" lon="7.04738">
        <ele>1926</ele>
        <time>2018-05-09T09:45:24.000Z</time>
      </trkpt>
      <trkpt lat="44.24768" lon="7.04741">
        <ele>1926</ele>
        <time>2018-05-09T09:45:26.000Z</time>
      </trkpt>
      <trkpt lat="44.24767" lon="7.04742">
        <ele>1926</ele>
        <time>2018-05-09T09:45:28.000Z</time>
      </trkpt>
      <trkpt lat="44.24769" lon="7.04739">
        <ele>1926</ele>
        <time>2018-05-09T09:45:33.000Z</time>
      </trkpt>
      <trkpt lat="44.24771" lon="7.04737">
        <ele>1925.8000488281</ele>
        <time>2018-05-09T09:45:35.000Z</time>
      </trkpt>
      <trkpt lat="44.24772" lon="7.04736">
        <ele>1925.8000488281</ele>
        <time>2018-05-09T09:45:36.000Z</time>
      </trkpt>
      <trkpt lat="44.24773" lon="7.04733">
        <ele>1925.8000488281</ele>
        <time>2018-05-09T09:45:39.000Z</time>
      </trkpt>
      <trkpt lat="44.24773" lon="7.04733">
        <ele>1925.8000488281</ele>
        <time>2018-05-09T09:45:42.000Z</time>
      </trkpt>
      <trkpt lat="44.24775" lon="7.04749">
        <ele>1926</ele>
        <time>2018-05-09T09:45:53.000Z</time>
      </trkpt>
      <trkpt lat="44.24776" lon="7.04748">
        <ele>1925.8000488281</ele>
        <time>2018-05-09T09:46:00.000Z</time>
      </trkpt>
      <trkpt lat="44.2478" lon="7.04738">
        <ele>1926</ele>
        <time>2018-05-09T09:46:04.000Z</time>
      </trkpt>
      <trkpt lat="44.24783" lon="7.04735">
        <ele>1926</ele>
        <time>2018-05-09T09:46:06.000Z</time>
      </trkpt>
      <trkpt lat="44.24787" lon="7.04731">
        <ele>1926</ele>
        <time>2018-05-09T09:46:08.000Z</time>
      </trkpt>
      <trkpt lat="44.2479" lon="7.04728">
        <ele>1926.4000244141</ele>
        <time>2018-05-09T09:46:11.000Z</time>
      </trkpt>
      <trkpt lat="44.24791" lon="7.04727">
        <ele>1926.4000244141</ele>
        <time>2018-05-09T09:46:12.000Z</time>
      </trkpt>
      <trkpt lat="44.24791" lon="7.04727">
        <ele>1926.4000244141</ele>
        <time>2018-05-09T09:46:13.000Z</time>
      </trkpt>
      <trkpt lat="44.24792" lon="7.04729">
        <ele>1926.4000244141</ele>
        <time>2018-05-09T09:46:15.000Z</time>
      </trkpt>
      <trkpt lat="44.24794" lon="7.04729">
        <ele>1926.4000244141</ele>
        <time>2018-05-09T09:46:17.000Z</time>
      </trkpt>
      <trkpt lat="44.24798" lon="7.04729">
        <ele>1926.5999755859</ele>
        <time>2018-05-09T09:46:20.000Z</time>
      </trkpt>
      <trkpt lat="44.24796" lon="7.04733">
        <ele>1926.5999755859</ele>
        <time>2018-05-09T09:46:23.000Z</time>
      </trkpt>
      <trkpt lat="44.24797" lon="7.04735">
        <ele>1926.5999755859</ele>
        <time>2018-05-09T09:46:24.000Z</time>
      </trkpt>
      <trkpt lat="44.24798" lon="7.04735">
        <ele>1926.5999755859</ele>
        <time>2018-05-09T09:46:25.000Z</time>
      </trkpt>
      <trkpt lat="44.24799" lon="7.04735">
        <ele>1926.5999755859</ele>
        <time>2018-05-09T09:46:26.000Z</time>
      </trkpt>
      <trkpt lat="44.24801" lon="7.04735">
        <ele>1926.8000488281</ele>
        <time>2018-05-09T09:46:29.000Z</time>
      </trkpt>
      <trkpt lat="44.24802" lon="7.04737">
        <ele>1926.8000488281</ele>
        <time>2018-05-09T09:46:31.000Z</time>
      </trkpt>
      <trkpt lat="44.24805" lon="7.0474">
        <ele>1927.1999511719</ele>
        <time>2018-05-09T09:46:35.000Z</time>
      </trkpt>
      <trkpt lat="44.24806" lon="7.0474">
        <ele>1927.1999511719</ele>
        <time>2018-05-09T09:46:36.000Z</time>
      </trkpt>
      <trkpt lat="44.24809" lon="7.04742">
        <ele>1927.4000244141</ele>
        <time>2018-05-09T09:46:38.000Z</time>
      </trkpt>
      <trkpt lat="44.24811" lon="7.04743">
        <ele>1927.5999755859</ele>
        <time>2018-05-09T09:46:41.000Z</time>
      </trkpt>
      <trkpt lat="44.24812" lon="7.04743">
        <ele>1927.5999755859</ele>
        <time>2018-05-09T09:46:42.000Z</time>
      </trkpt>
      <trkpt lat="44.24812" lon="7.04745">
        <ele>1927.8000488281</ele>
        <time>2018-05-09T09:46:45.000Z</time>
      </trkpt>
      <trkpt lat="44.24816" lon="7.04747">
        <ele>1928.1999511719</ele>
        <time>2018-05-09T09:46:51.000Z</time>
      </trkpt>
      <trkpt lat="44.24817" lon="7.04747">
        <ele>1928.4000244141</ele>
        <time>2018-05-09T09:46:52.000Z</time>
      </trkpt>
      <trkpt lat="44.24818" lon="7.04749">
        <ele>1928.4000244141</ele>
        <time>2018-05-09T09:46:53.000Z</time>
      </trkpt>
      <trkpt lat="44.24821" lon="7.04753">
        <ele>1929</ele>
        <time>2018-05-09T09:46:58.000Z</time>
      </trkpt>
      <trkpt lat="44.24824" lon="7.04757">
        <ele>1929.1999511719</ele>
        <time>2018-05-09T09:47:02.000Z</time>
      </trkpt>
      <trkpt lat="44.24825" lon="7.04762">
        <ele>1929.4000244141</ele>
        <time>2018-05-09T09:47:06.000Z</time>
      </trkpt>
      <trkpt lat="44.24825" lon="7.04764">
        <ele>1929.5999755859</ele>
        <time>2018-05-09T09:47:07.000Z</time>
      </trkpt>
      <trkpt lat="44.24827" lon="7.04774">
        <ele>1930.1999511719</ele>
        <time>2018-05-09T09:47:15.000Z</time>
      </trkpt>
      <trkpt lat="44.24827" lon="7.04776">
        <ele>1930.1999511719</ele>
        <time>2018-05-09T09:47:18.000Z</time>
      </trkpt>
      <trkpt lat="44.24827" lon="7.04778">
        <ele>1930.5999755859</ele>
        <time>2018-05-09T09:47:20.000Z</time>
      </trkpt>
      <trkpt lat="44.24827" lon="7.0478">
        <ele>1930.8000488281</ele>
        <time>2018-05-09T09:47:22.000Z</time>
      </trkpt>
      <trkpt lat="44.24827" lon="7.04783">
        <ele>1931.1999511719</ele>
        <time>2018-05-09T09:47:25.000Z</time>
      </trkpt>
      <trkpt lat="44.24827" lon="7.04787">
        <ele>1931.5999755859</ele>
        <time>2018-05-09T09:47:28.000Z</time>
      </trkpt>
      <trkpt lat="44.2483" lon="7.04791">
        <ele>1931.8000488281</ele>
        <time>2018-05-09T09:47:33.000Z</time>
      </trkpt>
      <trkpt lat="44.24832" lon="7.04795">
        <ele>1932</ele>
        <time>2018-05-09T09:47:37.000Z</time>
      </trkpt>
      <trkpt lat="44.24833" lon="7.04797">
        <ele>1932.1999511719</ele>
        <time>2018-05-09T09:47:40.000Z</time>
      </trkpt>
      <trkpt lat="44.24833" lon="7.04801">
        <ele>1932.5999755859</ele>
        <time>2018-05-09T09:47:44.000Z</time>
      </trkpt>
      <trkpt lat="44.24834" lon="7.04804">
        <ele>1932.8000488281</ele>
        <time>2018-05-09T09:47:46.000Z</time>
      </trkpt>
      <trkpt lat="44.24835" lon="7.04806">
        <ele>1932.8000488281</ele>
        <time>2018-05-09T09:47:48.000Z</time>
      </trkpt>
      <trkpt lat="44.24836" lon="7.04808">
        <ele>1933</ele>
        <time>2018-05-09T09:47:50.000Z</time>
      </trkpt>
      <trkpt lat="44.24841" lon="7.04812">
        <ele>1933.5999755859</ele>
        <time>2018-05-09T09:47:56.000Z</time>
      </trkpt>
      <trkpt lat="44.24842" lon="7.04811">
        <ele>1933.8000488281</ele>
        <time>2018-05-09T09:47:57.000Z</time>
      </trkpt>
      <trkpt lat="44.24842" lon="7.0481">
        <ele>1933.8000488281</ele>
        <time>2018-05-09T09:47:58.000Z</time>
      </trkpt>
      <trkpt lat="44.24842" lon="7.0481">
        <ele>1933.8000488281</ele>
        <time>2018-05-09T09:48:00.000Z</time>
      </trkpt>
      <trkpt lat="44.24842" lon="7.04807">
        <ele>1933.8000488281</ele>
        <time>2018-05-09T09:48:02.000Z</time>
      </trkpt>
      <trkpt lat="44.24842" lon="7.04806">
        <ele>1933.8000488281</ele>
        <time>2018-05-09T09:48:03.000Z</time>
      </trkpt>
      <trkpt lat="44.24842" lon="7.04802">
        <ele>1933.8000488281</ele>
        <time>2018-05-09T09:48:05.000Z</time>
      </trkpt>
      <trkpt lat="44.24843" lon="7.04801">
        <ele>1934.1999511719</ele>
        <time>2018-05-09T09:48:06.000Z</time>
      </trkpt>
      <trkpt lat="44.24844" lon="7.04793">
        <ele>1934.8000488281</ele>
        <time>2018-05-09T09:48:11.000Z</time>
      </trkpt>
      <trkpt lat="44.24843" lon="7.04792">
        <ele>1935</ele>
        <time>2018-05-09T09:48:13.000Z</time>
      </trkpt>
      <trkpt lat="44.24842" lon="7.0479">
        <ele>1935.1999511719</ele>
        <time>2018-05-09T09:48:15.000Z</time>
      </trkpt>
      <trkpt lat="44.2484" lon="7.04784">
        <ele>1935.5999755859</ele>
        <time>2018-05-09T09:48:19.000Z</time>
      </trkpt>
      <trkpt lat="44.24841" lon="7.04782">
        <ele>1936</ele>
        <time>2018-05-09T09:48:21.000Z</time>
      </trkpt>
      <trkpt lat="44.24841" lon="7.04781">
        <ele>1936</ele>
        <time>2018-05-09T09:48:22.000Z</time>
      </trkpt>
      <trkpt lat="44.24841" lon="7.04781">
        <ele>1936.1999511719</ele>
        <time>2018-05-09T09:48:23.000Z</time>
      </trkpt>
      <trkpt lat="44.24839" lon="7.04781">
        <ele>1936.4000244141</ele>
        <time>2018-05-09T09:48:25.000Z</time>
      </trkpt>
      <trkpt lat="44.2484" lon="7.04777">
        <ele>1937</ele>
        <time>2018-05-09T09:48:31.000Z</time>
      </trkpt>
      <trkpt lat="44.2484" lon="7.04776">
        <ele>1937.4000244141</ele>
        <time>2018-05-09T09:48:34.000Z</time>
      </trkpt>
      <trkpt lat="44.2484" lon="7.04776">
        <ele>1937.5999755859</ele>
        <time>2018-05-09T09:48:35.000Z</time>
      </trkpt>
      <trkpt lat="44.24839" lon="7.04773">
        <ele>1938</ele>
        <time>2018-05-09T09:48:38.000Z</time>
      </trkpt>
      <trkpt lat="44.24839" lon="7.0477">
        <ele>1938.1999511719</ele>
        <time>2018-05-09T09:48:41.000Z</time>
      </trkpt>
      <trkpt lat="44.2484" lon="7.04758">
        <ele>1939.1999511719</ele>
        <time>2018-05-09T09:48:50.000Z</time>
      </trkpt>
      <trkpt lat="44.2484" lon="7.04755">
        <ele>1939.5999755859</ele>
        <time>2018-05-09T09:48:53.000Z</time>
      </trkpt>
      <trkpt lat="44.2484" lon="7.0475">
        <ele>1940.1999511719</ele>
        <time>2018-05-09T09:48:57.000Z</time>
      </trkpt>
      <trkpt lat="44.2484" lon="7.04749">
        <ele>1940.4000244141</ele>
        <time>2018-05-09T09:48:58.000Z</time>
      </trkpt>
      <trkpt lat="44.24844" lon="7.04739">
        <ele>1941.4000244141</ele>
        <time>2018-05-09T09:49:11.000Z</time>
      </trkpt>
      <trkpt lat="44.24845" lon="7.04737">
        <ele>1941.8000488281</ele>
        <time>2018-05-09T09:49:13.000Z</time>
      </trkpt>
      <trkpt lat="44.24845" lon="7.04737">
        <ele>1941.8000488281</ele>
        <time>2018-05-09T09:49:14.000Z</time>
      </trkpt>
      <trkpt lat="44.24845" lon="7.04736">
        <ele>1942</ele>
        <time>2018-05-09T09:49:16.000Z</time>
      </trkpt>
      <trkpt lat="44.24849" lon="7.04741">
        <ele>1942.4000244141</ele>
        <time>2018-05-09T09:49:22.000Z</time>
      </trkpt>
      <trkpt lat="44.2486" lon="7.04739">
        <ele>1943.4000244141</ele>
        <time>2018-05-09T09:49:34.000Z</time>
      </trkpt>
      <trkpt lat="44.24861" lon="7.04739">
        <ele>1943.5999755859</ele>
        <time>2018-05-09T09:49:35.000Z</time>
      </trkpt>
      <trkpt lat="44.24863" lon="7.04738">
        <ele>1943.5999755859</ele>
        <time>2018-05-09T09:49:38.000Z</time>
      </trkpt>
      <trkpt lat="44.24865" lon="7.04738">
        <ele>1943.8000488281</ele>
        <time>2018-05-09T09:49:40.000Z</time>
      </trkpt>
      <trkpt lat="44.24866" lon="7.04737">
        <ele>1944</ele>
        <time>2018-05-09T09:49:42.000Z</time>
      </trkpt>
      <trkpt lat="44.24868" lon="7.04734">
        <ele>1944</ele>
        <time>2018-05-09T09:49:46.000Z</time>
      </trkpt>
      <trkpt lat="44.24869" lon="7.04732">
        <ele>1944.1999511719</ele>
        <time>2018-05-09T09:49:48.000Z</time>
      </trkpt>
      <trkpt lat="44.2487" lon="7.0473">
        <ele>1944.5999755859</ele>
        <time>2018-05-09T09:49:51.000Z</time>
      </trkpt>
      <trkpt lat="44.2487" lon="7.0473">
        <ele>1944.5999755859</ele>
        <time>2018-05-09T09:50:00.000Z</time>
      </trkpt>
      <trkpt lat="44.24871" lon="7.0473">
        <ele>1944.5999755859</ele>
        <time>2018-05-09T09:50:07.000Z</time>
      </trkpt>
      <trkpt lat="44.24872" lon="7.04729">
        <ele>1944.5999755859</ele>
        <time>2018-05-09T09:50:11.000Z</time>
      </trkpt>
      <trkpt lat="44.24873" lon="7.04729">
        <ele>1944.4000244141</ele>
        <time>2018-05-09T09:50:12.000Z</time>
      </trkpt>
      <trkpt lat="44.24875" lon="7.04729">
        <ele>1944.4000244141</ele>
        <time>2018-05-09T09:50:13.000Z</time>
      </trkpt>
      <trkpt lat="44.24875" lon="7.0473">
        <ele>1944.4000244141</ele>
        <time>2018-05-09T09:50:14.000Z</time>
      </trkpt>
      <trkpt lat="44.24874" lon="7.0473">
        <ele>1944.4000244141</ele>
        <time>2018-05-09T09:50:15.000Z</time>
      </trkpt>
      <trkpt lat="44.24875" lon="7.0473">
        <ele>1944.5999755859</ele>
        <time>2018-05-09T09:50:17.000Z</time>
      </trkpt>
      <trkpt lat="44.24873" lon="7.0473">
        <ele>1944.8000488281</ele>
        <time>2018-05-09T09:50:18.000Z</time>
      </trkpt>
      <trkpt lat="44.24872" lon="7.04729">
        <ele>1944.8000488281</ele>
        <time>2018-05-09T09:50:20.000Z</time>
      </trkpt>
      <trkpt lat="44.24869" lon="7.04729">
        <ele>1944.4000244141</ele>
        <time>2018-05-09T09:50:25.000Z</time>
      </trkpt>
      <trkpt lat="44.24865" lon="7.04735">
        <ele>1944.4000244141</ele>
        <time>2018-05-09T09:50:38.000Z</time>
      </trkpt>
      <trkpt lat="44.24865" lon="7.04734">
        <ele>1944.4000244141</ele>
        <time>2018-05-09T09:50:39.000Z</time>
      </trkpt>
      <trkpt lat="44.24865" lon="7.04734">
        <ele>1944.4000244141</ele>
        <time>2018-05-09T09:50:40.000Z</time>
      </trkpt>
      <trkpt lat="44.24865" lon="7.04733">
        <ele>1944.1999511719</ele>
        <time>2018-05-09T09:50:41.000Z</time>
      </trkpt>
      <trkpt lat="44.24865" lon="7.04733">
        <ele>1944.1999511719</ele>
        <time>2018-05-09T09:50:43.000Z</time>
      </trkpt>
      <trkpt lat="44.24868" lon="7.04734">
        <ele>1944.8000488281</ele>
        <time>2018-05-09T09:50:57.000Z</time>
      </trkpt>
      <trkpt lat="44.24872" lon="7.04732">
        <ele>1944.8000488281</ele>
        <time>2018-05-09T09:50:59.000Z</time>
      </trkpt>
      <trkpt lat="44.24874" lon="7.04729">
        <ele>1944.8000488281</ele>
        <time>2018-05-09T09:51:05.000Z</time>
      </trkpt>
      <trkpt lat="44.2487" lon="7.04729">
        <ele>1944.8000488281</ele>
        <time>2018-05-09T09:51:12.000Z</time>
      </trkpt>
      <trkpt lat="44.24868" lon="7.04727">
        <ele>1945</ele>
        <time>2018-05-09T09:51:19.000Z</time>
      </trkpt>
      <trkpt lat="44.24864" lon="7.04726">
        <ele>1945</ele>
        <time>2018-05-09T09:51:23.000Z</time>
      </trkpt>
      <trkpt lat="44.24862" lon="7.04726">
        <ele>1945</ele>
        <time>2018-05-09T09:51:25.000Z</time>
      </trkpt>
      <trkpt lat="44.24862" lon="7.04726">
        <ele>1944.8000488281</ele>
        <time>2018-05-09T09:51:27.000Z</time>
      </trkpt>
      <trkpt lat="44.24866" lon="7.04731">
        <ele>1944.8000488281</ele>
        <time>2018-05-09T09:51:34.000Z</time>
      </trkpt>
      <trkpt lat="44.2487" lon="7.04729">
        <ele>1944.8000488281</ele>
        <time>2018-05-09T09:51:39.000Z</time>
      </trkpt>
      <trkpt lat="44.2487" lon="7.04729">
        <ele>1944.8000488281</ele>
        <time>2018-05-09T09:51:40.000Z</time>
      </trkpt>
      <trkpt lat="44.24873" lon="7.04731">
        <ele>1944.8000488281</ele>
        <time>2018-05-09T09:51:44.000Z</time>
      </trkpt>
      <trkpt lat="44.24874" lon="7.04737">
        <ele>1944.8000488281</ele>
        <time>2018-05-09T09:51:49.000Z</time>
      </trkpt>
      <trkpt lat="44.24874" lon="7.04738">
        <ele>1944.8000488281</ele>
        <time>2018-05-09T09:51:51.000Z</time>
      </trkpt>
      <trkpt lat="44.24874" lon="7.04739">
        <ele>1944.4000244141</ele>
        <time>2018-05-09T09:51:56.000Z</time>
      </trkpt>
      <trkpt lat="44.24873" lon="7.0474">
        <ele>1944.1999511719</ele>
        <time>2018-05-09T09:52:00.000Z</time>
      </trkpt>
      <trkpt lat="44.24871" lon="7.0474">
        <ele>1944.1999511719</ele>
        <time>2018-05-09T09:52:04.000Z</time>
      </trkpt>
      <trkpt lat="44.2487" lon="7.0474">
        <ele>1944.1999511719</ele>
        <time>2018-05-09T09:52:06.000Z</time>
      </trkpt>
      <trkpt lat="44.2487" lon="7.04739">
        <ele>1944</ele>
        <time>2018-05-09T09:52:08.000Z</time>
      </trkpt>
      <trkpt lat="44.24872" lon="7.04738">
        <ele>1944</ele>
        <time>2018-05-09T09:52:14.000Z</time>
      </trkpt>
      <trkpt lat="44.24873" lon="7.04738">
        <ele>1944.1999511719</ele>
        <time>2018-05-09T09:52:19.000Z</time>
      </trkpt>
      <trkpt lat="44.24873" lon="7.04738">
        <ele>1944.1999511719</ele>
        <time>2018-05-09T09:52:20.000Z</time>
      </trkpt>
      <trkpt lat="44.24874" lon="7.04738">
        <ele>1944.1999511719</ele>
        <time>2018-05-09T09:52:23.000Z</time>
      </trkpt>
      <trkpt lat="44.24875" lon="7.04738">
        <ele>1944.1999511719</ele>
        <time>2018-05-09T09:52:24.000Z</time>
      </trkpt>
      <trkpt lat="44.24875" lon="7.04738">
        <ele>1944.4000244141</ele>
        <time>2018-05-09T09:52:26.000Z</time>
      </trkpt>
      <trkpt lat="44.24874" lon="7.04736">
        <ele>1944.4000244141</ele>
        <time>2018-05-09T09:52:28.000Z</time>
      </trkpt>
      <trkpt lat="44.24874" lon="7.04736">
        <ele>1944.5999755859</ele>
        <time>2018-05-09T09:52:33.000Z</time>
      </trkpt>
      <trkpt lat="44.24872" lon="7.04736">
        <ele>1944.4000244141</ele>
        <time>2018-05-09T09:52:35.000Z</time>
      </trkpt>
      <trkpt lat="44.24869" lon="7.04737">
        <ele>1944.1999511719</ele>
        <time>2018-05-09T09:52:40.000Z</time>
      </trkpt>
      <trkpt lat="44.24868" lon="7.04737">
        <ele>1944.5999755859</ele>
        <time>2018-05-09T09:52:48.000Z</time>
      </trkpt>
      <trkpt lat="44.24868" lon="7.04737">
        <ele>1944.5999755859</ele>
        <time>2018-05-09T09:52:54.000Z</time>
      </trkpt>
      <trkpt lat="44.24867" lon="7.04738">
        <ele>1944.5999755859</ele>
        <time>2018-05-09T09:52:56.000Z</time>
      </trkpt>
      <trkpt lat="44.24867" lon="7.04738">
        <ele>1944.5999755859</ele>
        <time>2018-05-09T09:52:57.000Z</time>
      </trkpt>
      <trkpt lat="44.24866" lon="7.04739">
        <ele>1944.5999755859</ele>
        <time>2018-05-09T09:52:58.000Z</time>
      </trkpt>
      <trkpt lat="44.24866" lon="7.04739">
        <ele>1944.5999755859</ele>
        <time>2018-05-09T09:53:00.000Z</time>
      </trkpt>
      <trkpt lat="44.24866" lon="7.0474">
        <ele>1944.5999755859</ele>
        <time>2018-05-09T09:53:01.000Z</time>
      </trkpt>
      <trkpt lat="44.24866" lon="7.0474">
        <ele>1944.5999755859</ele>
        <time>2018-05-09T09:53:03.000Z</time>
      </trkpt>
      <trkpt lat="44.24865" lon="7.04739">
        <ele>1944.4000244141</ele>
        <time>2018-05-09T09:53:07.000Z</time>
      </trkpt>
      <trkpt lat="44.24865" lon="7.04739">
        <ele>1944.1999511719</ele>
        <time>2018-05-09T09:53:08.000Z</time>
      </trkpt>
      <trkpt lat="44.24866" lon="7.04738">
        <ele>1944.4000244141</ele>
        <time>2018-05-09T09:53:10.000Z</time>
      </trkpt>
      <trkpt lat="44.24866" lon="7.04738">
        <ele>1944.4000244141</ele>
        <time>2018-05-09T09:53:12.000Z</time>
      </trkpt>
      <trkpt lat="44.24866" lon="7.04738">
        <ele>1944.4000244141</ele>
        <time>2018-05-09T09:53:13.000Z</time>
      </trkpt>
      <trkpt lat="44.24868" lon="7.04738">
        <ele>1944.4000244141</ele>
        <time>2018-05-09T09:53:22.000Z</time>
      </trkpt>
      <trkpt lat="44.24869" lon="7.04739">
        <ele>1944.4000244141</ele>
        <time>2018-05-09T09:53:24.000Z</time>
      </trkpt>
      <trkpt lat="44.2487" lon="7.04739">
        <ele>1944.4000244141</ele>
        <time>2018-05-09T09:53:25.000Z</time>
      </trkpt>
      <trkpt lat="44.24871" lon="7.04739">
        <ele>1944.4000244141</ele>
        <time>2018-05-09T09:53:28.000Z</time>
      </trkpt>
      <trkpt lat="44.24871" lon="7.04739">
        <ele>1944.4000244141</ele>
        <time>2018-05-09T09:53:29.000Z</time>
      </trkpt>
      <trkpt lat="44.24871" lon="7.0474">
        <ele>1944.4000244141</ele>
        <time>2018-05-09T09:53:30.000Z</time>
      </trkpt>
      <trkpt lat="44.24872" lon="7.0474">
        <ele>1944.4000244141</ele>
        <time>2018-05-09T09:53:33.000Z</time>
      </trkpt>
      <trkpt lat="44.24871" lon="7.04742">
        <ele>1944.4000244141</ele>
        <time>2018-05-09T09:53:38.000Z</time>
      </trkpt>
      <trkpt lat="44.24871" lon="7.04739">
        <ele>1944.4000244141</ele>
        <time>2018-05-09T09:53:40.000Z</time>
      </trkpt>
      <trkpt lat="44.24872" lon="7.04738">
        <ele>1944.4000244141</ele>
        <time>2018-05-09T09:53:42.000Z</time>
      </trkpt>
      <trkpt lat="44.24871" lon="7.04738">
        <ele>1944.4000244141</ele>
        <time>2018-05-09T09:53:45.000Z</time>
      </trkpt>
      <trkpt lat="44.24871" lon="7.04738">
        <ele>1944.4000244141</ele>
        <time>2018-05-09T09:53:48.000Z</time>
      </trkpt>
      <trkpt lat="44.24872" lon="7.04738">
        <ele>1944.4000244141</ele>
        <time>2018-05-09T09:53:52.000Z</time>
      </trkpt>
      <trkpt lat="44.24871" lon="7.04737">
        <ele>1944.4000244141</ele>
        <time>2018-05-09T09:54:02.000Z</time>
      </trkpt>
      <trkpt lat="44.24881" lon="7.04736">
        <ele>1944.4000244141</ele>
        <time>2018-05-09T09:54:16.000Z</time>
      </trkpt>
      <trkpt lat="44.24883" lon="7.04737">
        <ele>1944.4000244141</ele>
        <time>2018-05-09T09:54:18.000Z</time>
      </trkpt>
      <trkpt lat="44.24879" lon="7.04738">
        <ele>1944.4000244141</ele>
        <time>2018-05-09T09:54:20.000Z</time>
      </trkpt>
      <trkpt lat="44.24875" lon="7.04738">
        <ele>1944.4000244141</ele>
        <time>2018-05-09T09:54:25.000Z</time>
      </trkpt>
      <trkpt lat="44.24873" lon="7.04737">
        <ele>1944.4000244141</ele>
        <time>2018-05-09T09:54:27.000Z</time>
      </trkpt>
      <trkpt lat="44.24872" lon="7.04737">
        <ele>1944</ele>
        <time>2018-05-09T09:54:29.000Z</time>
      </trkpt>
      <trkpt lat="44.24871" lon="7.04736">
        <ele>1944.1999511719</ele>
        <time>2018-05-09T09:54:30.000Z</time>
      </trkpt>
      <trkpt lat="44.24866" lon="7.0474">
        <ele>1943.8000488281</ele>
        <time>2018-05-09T09:54:59.000Z</time>
      </trkpt>
      <trkpt lat="44.24865" lon="7.0474">
        <ele>1943.5999755859</ele>
        <time>2018-05-09T09:55:07.000Z</time>
      </trkpt>
      <trkpt lat="44.2487" lon="7.04738">
        <ele>1943.8000488281</ele>
        <time>2018-05-09T09:55:16.000Z</time>
      </trkpt>
      <trkpt lat="44.24874" lon="7.04738">
        <ele>1943.8000488281</ele>
        <time>2018-05-09T09:55:18.000Z</time>
      </trkpt>
      <trkpt lat="44.24873" lon="7.04738">
        <ele>1943.8000488281</ele>
        <time>2018-05-09T09:55:20.000Z</time>
      </trkpt>
      <trkpt lat="44.24871" lon="7.04736">
        <ele>1944</ele>
        <time>2018-05-09T09:55:26.000Z</time>
      </trkpt>
      <trkpt lat="44.2487" lon="7.04736">
        <ele>1944</ele>
        <time>2018-05-09T09:55:31.000Z</time>
      </trkpt>
      <trkpt lat="44.24867" lon="7.04737">
        <ele>1944</ele>
        <time>2018-05-09T09:55:33.000Z</time>
      </trkpt>
      <trkpt lat="44.24865" lon="7.04738">
        <ele>1944</ele>
        <time>2018-05-09T09:55:34.000Z</time>
      </trkpt>
      <trkpt lat="44.24864" lon="7.04737">
        <ele>1944</ele>
        <time>2018-05-09T09:55:35.000Z</time>
      </trkpt>
      <trkpt lat="44.24863" lon="7.04739">
        <ele>1944</ele>
        <time>2018-05-09T09:55:36.000Z</time>
      </trkpt>
      <trkpt lat="44.24862" lon="7.04738">
        <ele>1944.1999511719</ele>
        <time>2018-05-09T09:55:38.000Z</time>
      </trkpt>
      <trkpt lat="44.24862" lon="7.04736">
        <ele>1944.1999511719</ele>
        <time>2018-05-09T09:55:39.000Z</time>
      </trkpt>
      <trkpt lat="44.24861" lon="7.04732">
        <ele>1944.4000244141</ele>
        <time>2018-05-09T09:55:43.000Z</time>
      </trkpt>
      <trkpt lat="44.24861" lon="7.04728">
        <ele>1944.4000244141</ele>
        <time>2018-05-09T09:55:47.000Z</time>
      </trkpt>
      <trkpt lat="44.24861" lon="7.04723">
        <ele>1945</ele>
        <time>2018-05-09T09:55:51.000Z</time>
      </trkpt>
      <trkpt lat="44.24862" lon="7.04721">
        <ele>1945.4000244141</ele>
        <time>2018-05-09T09:55:53.000Z</time>
      </trkpt>
      <trkpt lat="44.24862" lon="7.0472">
        <ele>1945.5999755859</ele>
        <time>2018-05-09T09:55:54.000Z</time>
      </trkpt>
      <trkpt lat="44.24862" lon="7.04719">
        <ele>1945.8000488281</ele>
        <time>2018-05-09T09:55:55.000Z</time>
      </trkpt>
      <trkpt lat="44.24863" lon="7.04717">
        <ele>1946</ele>
        <time>2018-05-09T09:55:56.000Z</time>
      </trkpt>
      <trkpt lat="44.24863" lon="7.04716">
        <ele>1946.1999511719</ele>
        <time>2018-05-09T09:55:58.000Z</time>
      </trkpt>
      <trkpt lat="44.24863" lon="7.04714">
        <ele>1946.5999755859</ele>
        <time>2018-05-09T09:56:00.000Z</time>
      </trkpt>
      <trkpt lat="44.24862" lon="7.04713">
        <ele>1946.5999755859</ele>
        <time>2018-05-09T09:56:01.000Z</time>
      </trkpt>
      <trkpt lat="44.24862" lon="7.0471">
        <ele>1947.1999511719</ele>
        <time>2018-05-09T09:56:04.000Z</time>
      </trkpt>
      <trkpt lat="44.24862" lon="7.04708">
        <ele>1947.5999755859</ele>
        <time>2018-05-09T09:56:06.000Z</time>
      </trkpt>
      <trkpt lat="44.24861" lon="7.04704">
        <ele>1948.4000244141</ele>
        <time>2018-05-09T09:56:11.000Z</time>
      </trkpt>
      <trkpt lat="44.2486" lon="7.04703">
        <ele>1948.8000488281</ele>
        <time>2018-05-09T09:56:13.000Z</time>
      </trkpt>
      <trkpt lat="44.24858" lon="7.04702">
        <ele>1949.8000488281</ele>
        <time>2018-05-09T09:56:18.000Z</time>
      </trkpt>
      <trkpt lat="44.24857" lon="7.04699">
        <ele>1950.8000488281</ele>
        <time>2018-05-09T09:56:26.000Z</time>
      </trkpt>
      <trkpt lat="44.24851" lon="7.04712">
        <ele>1951.1999511719</ele>
        <time>2018-05-09T09:57:00.000Z</time>
      </trkpt>
      <trkpt lat="44.2485" lon="7.04715">
        <ele>1951.1999511719</ele>
        <time>2018-05-09T09:57:01.000Z</time>
      </trkpt>
      <trkpt lat="44.24849" lon="7.04716">
        <ele>1951.4000244141</ele>
        <time>2018-05-09T09:57:02.000Z</time>
      </trkpt>
      <trkpt lat="44.24849" lon="7.04715">
        <ele>1951.4000244141</ele>
        <time>2018-05-09T09:57:03.000Z</time>
      </trkpt>
      <trkpt lat="44.24852" lon="7.04704">
        <ele>1952</ele>
        <time>2018-05-09T09:57:13.000Z</time>
      </trkpt>
      <trkpt lat="44.24851" lon="7.04697">
        <ele>1953.1999511719</ele>
        <time>2018-05-09T09:57:23.000Z</time>
      </trkpt>
      <trkpt lat="44.2485" lon="7.04691">
        <ele>1953.8000488281</ele>
        <time>2018-05-09T09:57:39.000Z</time>
      </trkpt>
      <trkpt lat="44.2485" lon="7.0469">
        <ele>1954.1999511719</ele>
        <time>2018-05-09T09:57:40.000Z</time>
      </trkpt>
      <trkpt lat="44.2485" lon="7.04689">
        <ele>1954.5999755859</ele>
        <time>2018-05-09T09:57:42.000Z</time>
      </trkpt>
      <trkpt lat="44.24851" lon="7.04688">
        <ele>1955.1999511719</ele>
        <time>2018-05-09T09:57:45.000Z</time>
      </trkpt>
      <trkpt lat="44.24851" lon="7.04687">
        <ele>1955.5999755859</ele>
        <time>2018-05-09T09:57:47.000Z</time>
      </trkpt>
      <trkpt lat="44.24849" lon="7.04688">
        <ele>1956.1999511719</ele>
        <time>2018-05-09T09:57:50.000Z</time>
      </trkpt>
      <trkpt lat="44.24848" lon="7.04687">
        <ele>1956.4000244141</ele>
        <time>2018-05-09T09:57:51.000Z</time>
      </trkpt>
      <trkpt lat="44.24846" lon="7.04688">
        <ele>1957</ele>
        <time>2018-05-09T09:57:54.000Z</time>
      </trkpt>
      <trkpt lat="44.24846" lon="7.04687">
        <ele>1957.1999511719</ele>
        <time>2018-05-09T09:57:55.000Z</time>
      </trkpt>
      <trkpt lat="44.24845" lon="7.04686">
        <ele>1957.4000244141</ele>
        <time>2018-05-09T09:57:56.000Z</time>
      </trkpt>
      <trkpt lat="44.24847" lon="7.04692">
        <ele>1957.5999755859</ele>
        <time>2018-05-09T09:58:09.000Z</time>
      </trkpt>
      <trkpt lat="44.24846" lon="7.04691">
        <ele>1957.5999755859</ele>
        <time>2018-05-09T09:58:13.000Z</time>
      </trkpt>
      <trkpt lat="44.24843" lon="7.04695">
        <ele>1957.5999755859</ele>
        <time>2018-05-09T09:58:18.000Z</time>
      </trkpt>
      <trkpt lat="44.24842" lon="7.04694">
        <ele>1957.5999755859</ele>
        <time>2018-05-09T09:58:21.000Z</time>
      </trkpt>
      <trkpt lat="44.24843" lon="7.04693">
        <ele>1957.5999755859</ele>
        <time>2018-05-09T09:58:24.000Z</time>
      </trkpt>
      <trkpt lat="44.24841" lon="7.0469">
        <ele>1958</ele>
        <time>2018-05-09T09:58:29.000Z</time>
      </trkpt>
      <trkpt lat="44.24841" lon="7.04689">
        <ele>1958.1999511719</ele>
        <time>2018-05-09T09:58:30.000Z</time>
      </trkpt>
      <trkpt lat="44.2484" lon="7.04686">
        <ele>1958.8000488281</ele>
        <time>2018-05-09T09:58:32.000Z</time>
      </trkpt>
      <trkpt lat="44.24839" lon="7.04686">
        <ele>1959</ele>
        <time>2018-05-09T09:58:33.000Z</time>
      </trkpt>
      <trkpt lat="44.24838" lon="7.04687">
        <ele>1959.1999511719</ele>
        <time>2018-05-09T09:58:34.000Z</time>
      </trkpt>
      <trkpt lat="44.24837" lon="7.04686">
        <ele>1959.4000244141</ele>
        <time>2018-05-09T09:58:35.000Z</time>
      </trkpt>
      <trkpt lat="44.24836" lon="7.04686">
        <ele>1959.5999755859</ele>
        <time>2018-05-09T09:58:36.000Z</time>
      </trkpt>
      <trkpt lat="44.24835" lon="7.04685">
        <ele>1959.5999755859</ele>
        <time>2018-05-09T09:58:37.000Z</time>
      </trkpt>
      <trkpt lat="44.24833" lon="7.04683">
        <ele>1959.8000488281</ele>
        <time>2018-05-09T09:58:39.000Z</time>
      </trkpt>
      <trkpt lat="44.24833" lon="7.04682">
        <ele>1959.8000488281</ele>
        <time>2018-05-09T09:58:40.000Z</time>
      </trkpt>
      <trkpt lat="44.24831" lon="7.04681">
        <ele>1960</ele>
        <time>2018-05-09T09:58:43.000Z</time>
      </trkpt>
      <trkpt lat="44.2483" lon="7.04681">
        <ele>1960</ele>
        <time>2018-05-09T09:58:44.000Z</time>
      </trkpt>
      <trkpt lat="44.2483" lon="7.04677">
        <ele>1960.1999511719</ele>
        <time>2018-05-09T09:58:46.000Z</time>
      </trkpt>
      <trkpt lat="44.24829" lon="7.04675">
        <ele>1960.4000244141</ele>
        <time>2018-05-09T09:58:47.000Z</time>
      </trkpt>
      <trkpt lat="44.24829" lon="7.04675">
        <ele>1960.5999755859</ele>
        <time>2018-05-09T09:58:48.000Z</time>
      </trkpt>
      <trkpt lat="44.24832" lon="7.04666">
        <ele>1961.1999511719</ele>
        <time>2018-05-09T09:58:56.000Z</time>
      </trkpt>
      <trkpt lat="44.24832" lon="7.04668">
        <ele>1961.1999511719</ele>
        <time>2018-05-09T09:58:58.000Z</time>
      </trkpt>
      <trkpt lat="44.24833" lon="7.04668">
        <ele>1961.1999511719</ele>
        <time>2018-05-09T09:58:59.000Z</time>
      </trkpt>
      <trkpt lat="44.24834" lon="7.04671">
        <ele>1961.5999755859</ele>
        <time>2018-05-09T09:59:06.000Z</time>
      </trkpt>
      <trkpt lat="44.24837" lon="7.04671">
        <ele>1962.8000488281</ele>
        <time>2018-05-09T09:59:11.000Z</time>
      </trkpt>
      <trkpt lat="44.24837" lon="7.04674">
        <ele>1963.5999755859</ele>
        <time>2018-05-09T09:59:14.000Z</time>
      </trkpt>
      <trkpt lat="44.24835" lon="7.04676">
        <ele>1964</ele>
        <time>2018-05-09T09:59:17.000Z</time>
      </trkpt>
      <trkpt lat="44.2483" lon="7.0468">
        <ele>1964.5999755859</ele>
        <time>2018-05-09T09:59:21.000Z</time>
      </trkpt>
      <trkpt lat="44.24829" lon="7.04681">
        <ele>1964.5999755859</ele>
        <time>2018-05-09T09:59:23.000Z</time>
      </trkpt>
      <trkpt lat="44.24829" lon="7.04681">
        <ele>1964.8000488281</ele>
        <time>2018-05-09T09:59:26.000Z</time>
      </trkpt>
      <trkpt lat="44.24828" lon="7.0468">
        <ele>1965</ele>
        <time>2018-05-09T09:59:29.000Z</time>
      </trkpt>
      <trkpt lat="44.24827" lon="7.04682">
        <ele>1966</ele>
        <time>2018-05-09T09:59:36.000Z</time>
      </trkpt>
      <trkpt lat="44.24827" lon="7.04682">
        <ele>1966.1999511719</ele>
        <time>2018-05-09T09:59:38.000Z</time>
      </trkpt>
      <trkpt lat="44.2482" lon="7.04694">
        <ele>1967.1999511719</ele>
        <time>2018-05-09T09:59:42.000Z</time>
      </trkpt>
      <trkpt lat="44.24801" lon="7.04746">
        <ele>1968</ele>
        <time>2018-05-09T09:59:53.000Z</time>
      </trkpt>
      <trkpt lat="44.24811" lon="7.04754">
        <ele>1968</ele>
        <time>2018-05-09T09:59:57.000Z</time>
      </trkpt>
      <trkpt lat="44.24816" lon="7.04729">
        <ele>1967.5999755859</ele>
        <time>2018-05-09T10:00:01.000Z</time>
      </trkpt>
      <trkpt lat="44.24821" lon="7.04714">
        <ele>1967.5999755859</ele>
        <time>2018-05-09T10:00:05.000Z</time>
      </trkpt>
      <trkpt lat="44.24823" lon="7.04705">
        <ele>1967.5999755859</ele>
        <time>2018-05-09T10:00:08.000Z</time>
      </trkpt>
      <trkpt lat="44.24828" lon="7.04685">
        <ele>1967.4000244141</ele>
        <time>2018-05-09T10:00:13.000Z</time>
      </trkpt>
      <trkpt lat="44.24827" lon="7.04682">
        <ele>1967.5999755859</ele>
        <time>2018-05-09T10:00:16.000Z</time>
      </trkpt>
      <trkpt lat="44.24826" lon="7.04681">
        <ele>1967.5999755859</ele>
        <time>2018-05-09T10:00:19.000Z</time>
      </trkpt>
      <trkpt lat="44.24826" lon="7.0468">
        <ele>1967.5999755859</ele>
        <time>2018-05-09T10:00:22.000Z</time>
      </trkpt>
      <trkpt lat="44.24826" lon="7.04677">
        <ele>1967.4000244141</ele>
        <time>2018-05-09T10:00:24.000Z</time>
      </trkpt>
      <trkpt lat="44.24826" lon="7.04676">
        <ele>1967.4000244141</ele>
        <time>2018-05-09T10:00:26.000Z</time>
      </trkpt>
      <trkpt lat="44.2482" lon="7.04664">
        <ele>1968</ele>
        <time>2018-05-09T10:04:24.000Z</time>
      </trkpt>
      <trkpt lat="44.24829" lon="7.04677">
        <ele>1967.8000488281</ele>
        <time>2018-05-09T10:04:27.000Z</time>
      </trkpt>
      <trkpt lat="44.2483" lon="7.04674">
        <ele>1967.8000488281</ele>
        <time>2018-05-09T10:04:28.000Z</time>
      </trkpt>
      <trkpt lat="44.24832" lon="7.04673">
        <ele>1967.8000488281</ele>
        <time>2018-05-09T10:04:30.000Z</time>
      </trkpt>
      <trkpt lat="44.24837" lon="7.04667">
        <ele>1968.1999511719</ele>
        <time>2018-05-09T10:04:34.000Z</time>
      </trkpt>
      <trkpt lat="44.24837" lon="7.04669">
        <ele>1968</ele>
        <time>2018-05-09T10:04:36.000Z</time>
      </trkpt>
      <trkpt lat="44.24837" lon="7.04674">
        <ele>1967.8000488281</ele>
        <time>2018-05-09T10:04:39.000Z</time>
      </trkpt>
      <trkpt lat="44.24837" lon="7.04676">
        <ele>1967</ele>
        <time>2018-05-09T10:04:42.000Z</time>
      </trkpt>
      <trkpt lat="44.24836" lon="7.04675">
        <ele>1966.5999755859</ele>
        <time>2018-05-09T10:04:43.000Z</time>
      </trkpt>
      <trkpt lat="44.24837" lon="7.04674">
        <ele>1966</ele>
        <time>2018-05-09T10:04:46.000Z</time>
      </trkpt>
      <trkpt lat="44.24837" lon="7.04672">
        <ele>1965.8000488281</ele>
        <time>2018-05-09T10:04:47.000Z</time>
      </trkpt>
      <trkpt lat="44.24836" lon="7.04674">
        <ele>1965.4000244141</ele>
        <time>2018-05-09T10:04:50.000Z</time>
      </trkpt>
      <trkpt lat="44.24831" lon="7.04684">
        <ele>1964.8000488281</ele>
        <time>2018-05-09T10:04:55.000Z</time>
      </trkpt>
      <trkpt lat="44.24831" lon="7.04684">
        <ele>1964.5999755859</ele>
        <time>2018-05-09T10:04:57.000Z</time>
      </trkpt>
      <trkpt lat="44.24833" lon="7.04682">
        <ele>1964.5999755859</ele>
        <time>2018-05-09T10:05:03.000Z</time>
      </trkpt>
      <trkpt lat="44.24832" lon="7.04682">
        <ele>1964.4000244141</ele>
        <time>2018-05-09T10:05:05.000Z</time>
      </trkpt>
      <trkpt lat="44.24831" lon="7.04681">
        <ele>1964</ele>
        <time>2018-05-09T10:05:07.000Z</time>
      </trkpt>
      <trkpt lat="44.24831" lon="7.04681">
        <ele>1963.5999755859</ele>
        <time>2018-05-09T10:05:08.000Z</time>
      </trkpt>
      <trkpt lat="44.24831" lon="7.0468">
        <ele>1962.8000488281</ele>
        <time>2018-05-09T10:05:11.000Z</time>
      </trkpt>
      <trkpt lat="44.24833" lon="7.0468">
        <ele>1962.4000244141</ele>
        <time>2018-05-09T10:05:12.000Z</time>
      </trkpt>
      <trkpt lat="44.24833" lon="7.0468">
        <ele>1962</ele>
        <time>2018-05-09T10:05:13.000Z</time>
      </trkpt>
      <trkpt lat="44.24835" lon="7.04681">
        <ele>1961.5999755859</ele>
        <time>2018-05-09T10:05:15.000Z</time>
      </trkpt>
      <trkpt lat="44.24836" lon="7.04684">
        <ele>1961</ele>
        <time>2018-05-09T10:05:17.000Z</time>
      </trkpt>
      <trkpt lat="44.24837" lon="7.04685">
        <ele>1960.5999755859</ele>
        <time>2018-05-09T10:05:19.000Z</time>
      </trkpt>
      <trkpt lat="44.24838" lon="7.04689">
        <ele>1959.8000488281</ele>
        <time>2018-05-09T10:05:23.000Z</time>
      </trkpt>
      <trkpt lat="44.24838" lon="7.04692">
        <ele>1959</ele>
        <time>2018-05-09T10:05:25.000Z</time>
      </trkpt>
      <trkpt lat="44.24838" lon="7.04692">
        <ele>1958.8000488281</ele>
        <time>2018-05-09T10:05:26.000Z</time>
      </trkpt>
      <trkpt lat="44.24839" lon="7.04691">
        <ele>1958.4000244141</ele>
        <time>2018-05-09T10:05:28.000Z</time>
      </trkpt>
      <trkpt lat="44.24838" lon="7.04693">
        <ele>1957.5999755859</ele>
        <time>2018-05-09T10:05:32.000Z</time>
      </trkpt>
      <trkpt lat="44.24843" lon="7.04685">
        <ele>1957</ele>
        <time>2018-05-09T10:05:39.000Z</time>
      </trkpt>
      <trkpt lat="44.24843" lon="7.04685">
        <ele>1956.5999755859</ele>
        <time>2018-05-09T10:05:41.000Z</time>
      </trkpt>
      <trkpt lat="44.24843" lon="7.04685">
        <ele>1956.4000244141</ele>
        <time>2018-05-09T10:05:42.000Z</time>
      </trkpt>
      <trkpt lat="44.24843" lon="7.04688">
        <ele>1955.8000488281</ele>
        <time>2018-05-09T10:05:44.000Z</time>
      </trkpt>
      <trkpt lat="44.24843" lon="7.0469">
        <ele>1955.4000244141</ele>
        <time>2018-05-09T10:05:46.000Z</time>
      </trkpt>
      <trkpt lat="44.24844" lon="7.04694">
        <ele>1954.5999755859</ele>
        <time>2018-05-09T10:05:59.000Z</time>
      </trkpt>
      <trkpt lat="44.24845" lon="7.04697">
        <ele>1954.4000244141</ele>
        <time>2018-05-09T10:06:04.000Z</time>
      </trkpt>
      <trkpt lat="44.24847" lon="7.04704">
        <ele>1953</ele>
        <time>2018-05-09T10:06:13.000Z</time>
      </trkpt>
      <trkpt lat="44.24846" lon="7.04704">
        <ele>1952</ele>
        <time>2018-05-09T10:06:20.000Z</time>
      </trkpt>
      <trkpt lat="44.24846" lon="7.04707">
        <ele>1951.4000244141</ele>
        <time>2018-05-09T10:06:24.000Z</time>
      </trkpt>
      <trkpt lat="44.24847" lon="7.04708">
        <ele>1951</ele>
        <time>2018-05-09T10:06:36.000Z</time>
      </trkpt>
      <trkpt lat="44.24848" lon="7.04712">
        <ele>1950.5999755859</ele>
        <time>2018-05-09T10:06:41.000Z</time>
      </trkpt>
      <trkpt lat="44.24848" lon="7.04714">
        <ele>1949.8000488281</ele>
        <time>2018-05-09T10:06:45.000Z</time>
      </trkpt>
      <trkpt lat="44.24851" lon="7.04717">
        <ele>1949.4000244141</ele>
        <time>2018-05-09T10:06:51.000Z</time>
      </trkpt>
      <trkpt lat="44.24853" lon="7.04717">
        <ele>1949</ele>
        <time>2018-05-09T10:06:53.000Z</time>
      </trkpt>
      <trkpt lat="44.24853" lon="7.04719">
        <ele>1948.8000488281</ele>
        <time>2018-05-09T10:06:54.000Z</time>
      </trkpt>
      <trkpt lat="44.24854" lon="7.04722">
        <ele>1948.1999511719</ele>
        <time>2018-05-09T10:06:56.000Z</time>
      </trkpt>
      <trkpt lat="44.24856" lon="7.04724">
        <ele>1947.5999755859</ele>
        <time>2018-05-09T10:06:58.000Z</time>
      </trkpt>
      <trkpt lat="44.24859" lon="7.04729">
        <ele>1946.4000244141</ele>
        <time>2018-05-09T10:07:02.000Z</time>
      </trkpt>
      <trkpt lat="44.24861" lon="7.04732">
        <ele>1945.8000488281</ele>
        <time>2018-05-09T10:07:05.000Z</time>
      </trkpt>
      <trkpt lat="44.24863" lon="7.04735">
        <ele>1945.1999511719</ele>
        <time>2018-05-09T10:07:08.000Z</time>
      </trkpt>
      <trkpt lat="44.24863" lon="7.04736">
        <ele>1944.8000488281</ele>
        <time>2018-05-09T10:07:10.000Z</time>
      </trkpt>
      <trkpt lat="44.24864" lon="7.04737">
        <ele>1944.5999755859</ele>
        <time>2018-05-09T10:07:11.000Z</time>
      </trkpt>
      <trkpt lat="44.24864" lon="7.04738">
        <ele>1944.5999755859</ele>
        <time>2018-05-09T10:07:12.000Z</time>
      </trkpt>
      <trkpt lat="44.24864" lon="7.04738">
        <ele>1944.4000244141</ele>
        <time>2018-05-09T10:07:13.000Z</time>
      </trkpt>
      <trkpt lat="44.24864" lon="7.04738">
        <ele>1944.1999511719</ele>
        <time>2018-05-09T10:07:14.000Z</time>
      </trkpt>
      <trkpt lat="44.24864" lon="7.04739">
        <ele>1944.1999511719</ele>
        <time>2018-05-09T10:07:15.000Z</time>
      </trkpt>
      <trkpt lat="44.24865" lon="7.0474">
        <ele>1944.1999511719</ele>
        <time>2018-05-09T10:07:20.000Z</time>
      </trkpt>
      <trkpt lat="44.24867" lon="7.04739">
        <ele>1944.4000244141</ele>
        <time>2018-05-09T10:07:25.000Z</time>
      </trkpt>
      <trkpt lat="44.24868" lon="7.04741">
        <ele>1944.1999511719</ele>
        <time>2018-05-09T10:07:31.000Z</time>
      </trkpt>
      <trkpt lat="44.24869" lon="7.04742">
        <ele>1944.1999511719</ele>
        <time>2018-05-09T10:07:32.000Z</time>
      </trkpt>
      <trkpt lat="44.24869" lon="7.04742">
        <ele>1944.1999511719</ele>
        <time>2018-05-09T10:07:33.000Z</time>
      </trkpt>
      <trkpt lat="44.24869" lon="7.04742">
        <ele>1944.1999511719</ele>
        <time>2018-05-09T10:07:36.000Z</time>
      </trkpt>
      <trkpt lat="44.24869" lon="7.04742">
        <ele>1944.1999511719</ele>
        <time>2018-05-09T10:07:39.000Z</time>
      </trkpt>
      <trkpt lat="44.24867" lon="7.04737">
        <ele>1944.1999511719</ele>
        <time>2018-05-09T10:07:46.000Z</time>
      </trkpt>
      <trkpt lat="44.24866" lon="7.04737">
        <ele>1944.1999511719</ele>
        <time>2018-05-09T10:07:47.000Z</time>
      </trkpt>
      <trkpt lat="44.24866" lon="7.04737">
        <ele>1944.1999511719</ele>
        <time>2018-05-09T10:07:49.000Z</time>
      </trkpt>
      <trkpt lat="44.24866" lon="7.04737">
        <ele>1944.1999511719</ele>
        <time>2018-05-09T10:07:51.000Z</time>
      </trkpt>
      <trkpt lat="44.2487" lon="7.04741">
        <ele>1944.4000244141</ele>
        <time>2018-05-09T10:07:59.000Z</time>
      </trkpt>
      <trkpt lat="44.24869" lon="7.04741">
        <ele>1944.1999511719</ele>
        <time>2018-05-09T10:08:08.000Z</time>
      </trkpt>
      <trkpt lat="44.24869" lon="7.04741">
        <ele>1944.1999511719</ele>
        <time>2018-05-09T10:08:14.000Z</time>
      </trkpt>
      <trkpt lat="44.24868" lon="7.0474">
        <ele>1944</ele>
        <time>2018-05-09T10:08:19.000Z</time>
      </trkpt>
      <trkpt lat="44.2487" lon="7.0474">
        <ele>1943.8000488281</ele>
        <time>2018-05-09T10:08:31.000Z</time>
      </trkpt>
      <trkpt lat="44.2487" lon="7.0474">
        <ele>1943.8000488281</ele>
        <time>2018-05-09T10:08:32.000Z</time>
      </trkpt>
      <trkpt lat="44.2487" lon="7.0474">
        <ele>1943.8000488281</ele>
        <time>2018-05-09T10:08:33.000Z</time>
      </trkpt>
      <trkpt lat="44.2487" lon="7.04739">
        <ele>1943.5999755859</ele>
        <time>2018-05-09T10:08:39.000Z</time>
      </trkpt>
      <trkpt lat="44.2487" lon="7.04739">
        <ele>1943.5999755859</ele>
        <time>2018-05-09T10:08:41.000Z</time>
      </trkpt>
      <trkpt lat="44.24873" lon="7.04735">
        <ele>1944.1999511719</ele>
        <time>2018-05-09T10:08:51.000Z</time>
      </trkpt>
      <trkpt lat="44.24874" lon="7.04735">
        <ele>1944.1999511719</ele>
        <time>2018-05-09T10:08:53.000Z</time>
      </trkpt>
      <trkpt lat="44.24872" lon="7.04734">
        <ele>1943.8000488281</ele>
        <time>2018-05-09T10:09:00.000Z</time>
      </trkpt>
      <trkpt lat="44.24871" lon="7.04735">
        <ele>1944</ele>
        <time>2018-05-09T10:09:04.000Z</time>
      </trkpt>
      <trkpt lat="44.24869" lon="7.04736">
        <ele>1943.8000488281</ele>
        <time>2018-05-09T10:09:08.000Z</time>
      </trkpt>
      <trkpt lat="44.24868" lon="7.04735">
        <ele>1943.8000488281</ele>
        <time>2018-05-09T10:09:10.000Z</time>
      </trkpt>
      <trkpt lat="44.24868" lon="7.04736">
        <ele>1943.5999755859</ele>
        <time>2018-05-09T10:09:14.000Z</time>
      </trkpt>
      <trkpt lat="44.24869" lon="7.04735">
        <ele>1943.4000244141</ele>
        <time>2018-05-09T10:09:22.000Z</time>
      </trkpt>
      <trkpt lat="44.24869" lon="7.04735">
        <ele>1943.4000244141</ele>
        <time>2018-05-09T10:09:29.000Z</time>
      </trkpt>
      <trkpt lat="44.2487" lon="7.04735">
        <ele>1943.4000244141</ele>
        <time>2018-05-09T10:09:31.000Z</time>
      </trkpt>
      <trkpt lat="44.2487" lon="7.04735">
        <ele>1943.4000244141</ele>
        <time>2018-05-09T10:09:33.000Z</time>
      </trkpt>
      <trkpt lat="44.2487" lon="7.04736">
        <ele>1943.4000244141</ele>
        <time>2018-05-09T10:09:40.000Z</time>
      </trkpt>
      <trkpt lat="44.2487" lon="7.04737">
        <ele>1943.4000244141</ele>
        <time>2018-05-09T10:09:44.000Z</time>
      </trkpt>
      <trkpt lat="44.2487" lon="7.04738">
        <ele>1943.4000244141</ele>
        <time>2018-05-09T10:09:45.000Z</time>
      </trkpt>
      <trkpt lat="44.2487" lon="7.04738">
        <ele>1943.4000244141</ele>
        <time>2018-05-09T10:09:46.000Z</time>
      </trkpt>
      <trkpt lat="44.24868" lon="7.04734">
        <ele>1943.4000244141</ele>
        <time>2018-05-09T10:10:07.000Z</time>
      </trkpt>
      <trkpt lat="44.24869" lon="7.04733">
        <ele>1943.4000244141</ele>
        <time>2018-05-09T10:10:10.000Z</time>
      </trkpt>
      <trkpt lat="44.24872" lon="7.04733">
        <ele>1943.4000244141</ele>
        <time>2018-05-09T10:10:16.000Z</time>
      </trkpt>
      <trkpt lat="44.24872" lon="7.04733">
        <ele>1943.4000244141</ele>
        <time>2018-05-09T10:10:20.000Z</time>
      </trkpt>
      <trkpt lat="44.24872" lon="7.04732">
        <ele>1943.4000244141</ele>
        <time>2018-05-09T10:10:23.000Z</time>
      </trkpt>
      <trkpt lat="44.24872" lon="7.04734">
        <ele>1943.4000244141</ele>
        <time>2018-05-09T10:10:27.000Z</time>
      </trkpt>
      <trkpt lat="44.24871" lon="7.04735">
        <ele>1943.4000244141</ele>
        <time>2018-05-09T10:10:28.000Z</time>
      </trkpt>
      <trkpt lat="44.2487" lon="7.04736">
        <ele>1943.4000244141</ele>
        <time>2018-05-09T10:10:29.000Z</time>
      </trkpt>
      <trkpt lat="44.2487" lon="7.04737">
        <ele>1943.4000244141</ele>
        <time>2018-05-09T10:10:31.000Z</time>
      </trkpt>
      <trkpt lat="44.24871" lon="7.04732">
        <ele>1943.4000244141</ele>
        <time>2018-05-09T10:10:33.000Z</time>
      </trkpt>
      <trkpt lat="44.24872" lon="7.04729">
        <ele>1943.4000244141</ele>
        <time>2018-05-09T10:10:35.000Z</time>
      </trkpt>
      <trkpt lat="44.24874" lon="7.04726">
        <ele>1943.4000244141</ele>
        <time>2018-05-09T10:10:38.000Z</time>
      </trkpt>
      <trkpt lat="44.24874" lon="7.04725">
        <ele>1943.4000244141</ele>
        <time>2018-05-09T10:10:39.000Z</time>
      </trkpt>
      <trkpt lat="44.24873" lon="7.04727">
        <ele>1943.4000244141</ele>
        <time>2018-05-09T10:10:46.000Z</time>
      </trkpt>
      <trkpt lat="44.24873" lon="7.04728">
        <ele>1943.4000244141</ele>
        <time>2018-05-09T10:10:47.000Z</time>
      </trkpt>
      <trkpt lat="44.24873" lon="7.04728">
        <ele>1943.4000244141</ele>
        <time>2018-05-09T10:10:48.000Z</time>
      </trkpt>
      <trkpt lat="44.24873" lon="7.04728">
        <ele>1943.4000244141</ele>
        <time>2018-05-09T10:10:52.000Z</time>
      </trkpt>
      <trkpt lat="44.24872" lon="7.04729">
        <ele>1943.4000244141</ele>
        <time>2018-05-09T10:10:57.000Z</time>
      </trkpt>
      <trkpt lat="44.24872" lon="7.0473">
        <ele>1943.4000244141</ele>
        <time>2018-05-09T10:11:01.000Z</time>
      </trkpt>
      <trkpt lat="44.24872" lon="7.0473">
        <ele>1943.4000244141</ele>
        <time>2018-05-09T10:11:02.000Z</time>
      </trkpt>
      <trkpt lat="44.24872" lon="7.04731">
        <ele>1943.4000244141</ele>
        <time>2018-05-09T10:11:03.000Z</time>
      </trkpt>
      <trkpt lat="44.24871" lon="7.04732">
        <ele>1943.4000244141</ele>
        <time>2018-05-09T10:11:06.000Z</time>
      </trkpt>
      <trkpt lat="44.24869" lon="7.04734">
        <ele>1943.4000244141</ele>
        <time>2018-05-09T10:11:12.000Z</time>
      </trkpt>
      <trkpt lat="44.24869" lon="7.04734">
        <ele>1943.4000244141</ele>
        <time>2018-05-09T10:11:16.000Z</time>
      </trkpt>
      <trkpt lat="44.24869" lon="7.04735">
        <ele>1943.4000244141</ele>
        <time>2018-05-09T10:11:18.000Z</time>
      </trkpt>
      <trkpt lat="44.24872" lon="7.04733">
        <ele>1943.4000244141</ele>
        <time>2018-05-09T10:11:34.000Z</time>
      </trkpt>
      <trkpt lat="44.24872" lon="7.04732">
        <ele>1943.4000244141</ele>
        <time>2018-05-09T10:11:36.000Z</time>
      </trkpt>
      <trkpt lat="44.24869" lon="7.04735">
        <ele>1943.4000244141</ele>
        <time>2018-05-09T10:11:43.000Z</time>
      </trkpt>
      <trkpt lat="44.24869" lon="7.04736">
        <ele>1943.4000244141</ele>
        <time>2018-05-09T10:11:46.000Z</time>
      </trkpt>
      <trkpt lat="44.24869" lon="7.04735">
        <ele>1943.4000244141</ele>
        <time>2018-05-09T10:11:58.000Z</time>
      </trkpt>
      <trkpt lat="44.24869" lon="7.04735">
        <ele>1943.4000244141</ele>
        <time>2018-05-09T10:11:59.000Z</time>
      </trkpt>
      <trkpt lat="44.24869" lon="7.04735">
        <ele>1943.4000244141</ele>
        <time>2018-05-09T10:12:04.000Z</time>
      </trkpt>
      <trkpt lat="44.24869" lon="7.04735">
        <ele>1943.4000244141</ele>
        <time>2018-05-09T10:12:05.000Z</time>
      </trkpt>
      <trkpt lat="44.2487" lon="7.04735">
        <ele>1943.4000244141</ele>
        <time>2018-05-09T10:12:07.000Z</time>
      </trkpt>
      <trkpt lat="44.24871" lon="7.04735">
        <ele>1943.4000244141</ele>
        <time>2018-05-09T10:12:10.000Z</time>
      </trkpt>
      <trkpt lat="44.2487" lon="7.04735">
        <ele>1943.4000244141</ele>
        <time>2018-05-09T10:12:12.000Z</time>
      </trkpt>
      <trkpt lat="44.2487" lon="7.04734">
        <ele>1943.4000244141</ele>
        <time>2018-05-09T10:12:16.000Z</time>
      </trkpt>
      <trkpt lat="44.24871" lon="7.04735">
        <ele>1943.4000244141</ele>
        <time>2018-05-09T10:12:31.000Z</time>
      </trkpt>
      <trkpt lat="44.24872" lon="7.04735">
        <ele>1943.4000244141</ele>
        <time>2018-05-09T10:12:34.000Z</time>
      </trkpt>
      <trkpt lat="44.24872" lon="7.04733">
        <ele>1943.4000244141</ele>
        <time>2018-05-09T10:12:38.000Z</time>
      </trkpt>
      <trkpt lat="44.24872" lon="7.04732">
        <ele>1943.4000244141</ele>
        <time>2018-05-09T10:12:43.000Z</time>
      </trkpt>
      <trkpt lat="44.24872" lon="7.04734">
        <ele>1943.4000244141</ele>
        <time>2018-05-09T10:12:54.000Z</time>
      </trkpt>
      <trkpt lat="44.24872" lon="7.04735">
        <ele>1943.4000244141</ele>
        <time>2018-05-09T10:12:59.000Z</time>
      </trkpt>
      <trkpt lat="44.24872" lon="7.04735">
        <ele>1943.4000244141</ele>
        <time>2018-05-09T10:13:17.000Z</time>
      </trkpt>
      <trkpt lat="44.2487" lon="7.04735">
        <ele>1943.4000244141</ele>
        <time>2018-05-09T10:13:21.000Z</time>
      </trkpt>
      <trkpt lat="44.24871" lon="7.04733">
        <ele>1943.4000244141</ele>
        <time>2018-05-09T10:13:26.000Z</time>
      </trkpt>
      <trkpt lat="44.24871" lon="7.04733">
        <ele>1943.4000244141</ele>
        <time>2018-05-09T10:13:28.000Z</time>
      </trkpt>
      <trkpt lat="44.2487" lon="7.04734">
        <ele>1943.4000244141</ele>
        <time>2018-05-09T10:13:31.000Z</time>
      </trkpt>
      <trkpt lat="44.2487" lon="7.04732">
        <ele>1943.4000244141</ele>
        <time>2018-05-09T10:13:41.000Z</time>
      </trkpt>
      <trkpt lat="44.24872" lon="7.04731">
        <ele>1943.4000244141</ele>
        <time>2018-05-09T10:13:45.000Z</time>
      </trkpt>
      <trkpt lat="44.24871" lon="7.04733">
        <ele>1943.4000244141</ele>
        <time>2018-05-09T10:13:49.000Z</time>
      </trkpt>
      <trkpt lat="44.24871" lon="7.04735">
        <ele>1943.4000244141</ele>
        <time>2018-05-09T10:13:51.000Z</time>
      </trkpt>
      <trkpt lat="44.24871" lon="7.04736">
        <ele>1943.4000244141</ele>
        <time>2018-05-09T10:13:53.000Z</time>
      </trkpt>
      <trkpt lat="44.2487" lon="7.04737">
        <ele>1943.4000244141</ele>
        <time>2018-05-09T10:13:54.000Z</time>
      </trkpt>
      <trkpt lat="44.24869" lon="7.04739">
        <ele>1943.4000244141</ele>
        <time>2018-05-09T10:13:56.000Z</time>
      </trkpt>
      <trkpt lat="44.24868" lon="7.04741">
        <ele>1943.4000244141</ele>
        <time>2018-05-09T10:13:59.000Z</time>
      </trkpt>
      <trkpt lat="44.24869" lon="7.04741">
        <ele>1943.4000244141</ele>
        <time>2018-05-09T10:14:03.000Z</time>
      </trkpt>
      <trkpt lat="44.24868" lon="7.04741">
        <ele>1943.4000244141</ele>
        <time>2018-05-09T10:14:06.000Z</time>
      </trkpt>
      <trkpt lat="44.24869" lon="7.04741">
        <ele>1943.4000244141</ele>
        <time>2018-05-09T10:14:10.000Z</time>
      </trkpt>
      <trkpt lat="44.24868" lon="7.04741">
        <ele>1943.4000244141</ele>
        <time>2018-05-09T10:14:12.000Z</time>
      </trkpt>
      <trkpt lat="44.24869" lon="7.04741">
        <ele>1943.4000244141</ele>
        <time>2018-05-09T10:14:15.000Z</time>
      </trkpt>
      <trkpt lat="44.24869" lon="7.04741">
        <ele>1943.4000244141</ele>
        <time>2018-05-09T10:14:17.000Z</time>
      </trkpt>
      <trkpt lat="44.24863" lon="7.04739">
        <ele>1943.4000244141</ele>
        <time>2018-05-09T10:14:29.000Z</time>
      </trkpt>
      <trkpt lat="44.24865" lon="7.04737">
        <ele>1943.4000244141</ele>
        <time>2018-05-09T10:14:34.000Z</time>
      </trkpt>
      <trkpt lat="44.24868" lon="7.04737">
        <ele>1943.4000244141</ele>
        <time>2018-05-09T10:14:51.000Z</time>
      </trkpt>
      <trkpt lat="44.24869" lon="7.04737">
        <ele>1943.4000244141</ele>
        <time>2018-05-09T10:14:55.000Z</time>
      </trkpt>
      <trkpt lat="44.24869" lon="7.04737">
        <ele>1943.4000244141</ele>
        <time>2018-05-09T10:14:58.000Z</time>
      </trkpt>
      <trkpt lat="44.24869" lon="7.04736">
        <ele>1943.4000244141</ele>
        <time>2018-05-09T10:15:02.000Z</time>
      </trkpt>
      <trkpt lat="44.24869" lon="7.04736">
        <ele>1943.4000244141</ele>
        <time>2018-05-09T10:15:06.000Z</time>
      </trkpt>
      <trkpt lat="44.24869" lon="7.04736">
        <ele>1943.4000244141</ele>
        <time>2018-05-09T10:15:10.000Z</time>
      </trkpt>
      <trkpt lat="44.2487" lon="7.04734">
        <ele>1943.4000244141</ele>
        <time>2018-05-09T10:15:16.000Z</time>
      </trkpt>
      <trkpt lat="44.24871" lon="7.04733">
        <ele>1943.4000244141</ele>
        <time>2018-05-09T10:15:20.000Z</time>
      </trkpt>
      <trkpt lat="44.2487" lon="7.04733">
        <ele>1943.4000244141</ele>
        <time>2018-05-09T10:15:33.000Z</time>
      </trkpt>
      <trkpt lat="44.2487" lon="7.04735">
        <ele>1943.4000244141</ele>
        <time>2018-05-09T10:15:42.000Z</time>
      </trkpt>
      <trkpt lat="44.2487" lon="7.04735">
        <ele>1943.4000244141</ele>
        <time>2018-05-09T10:15:44.000Z</time>
      </trkpt>
      <trkpt lat="44.2487" lon="7.04735">
        <ele>1943.4000244141</ele>
        <time>2018-05-09T10:15:45.000Z</time>
      </trkpt>
      <trkpt lat="44.2487" lon="7.04735">
        <ele>1943.4000244141</ele>
        <time>2018-05-09T10:15:46.000Z</time>
      </trkpt>
      <trkpt lat="44.2487" lon="7.04736">
        <ele>1943.4000244141</ele>
        <time>2018-05-09T10:15:50.000Z</time>
      </trkpt>
      <trkpt lat="44.2487" lon="7.04737">
        <ele>1943.4000244141</ele>
        <time>2018-05-09T10:15:52.000Z</time>
      </trkpt>
      <trkpt lat="44.24869" lon="7.04737">
        <ele>1943.4000244141</ele>
        <time>2018-05-09T10:15:54.000Z</time>
      </trkpt>
      <trkpt lat="44.24869" lon="7.04738">
        <ele>1943.4000244141</ele>
        <time>2018-05-09T10:16:02.000Z</time>
      </trkpt>
      <trkpt lat="44.24869" lon="7.04738">
        <ele>1943.4000244141</ele>
        <time>2018-05-09T10:16:05.000Z</time>
      </trkpt>
      <trkpt lat="44.24869" lon="7.04738">
        <ele>1943.4000244141</ele>
        <time>2018-05-09T10:16:09.000Z</time>
      </trkpt>
      <trkpt lat="44.24869" lon="7.04738">
        <ele>1943.4000244141</ele>
        <time>2018-05-09T10:16:13.000Z</time>
      </trkpt>
      <trkpt lat="44.24868" lon="7.04737">
        <ele>1943.4000244141</ele>
        <time>2018-05-09T10:16:39.000Z</time>
      </trkpt>
      <trkpt lat="44.24869" lon="7.04737">
        <ele>1943.4000244141</ele>
        <time>2018-05-09T10:16:44.000Z</time>
      </trkpt>
      <trkpt lat="44.24872" lon="7.04737">
        <ele>1943.4000244141</ele>
        <time>2018-05-09T10:16:48.000Z</time>
      </trkpt>
      <trkpt lat="44.24873" lon="7.04737">
        <ele>1943.4000244141</ele>
        <time>2018-05-09T10:16:51.000Z</time>
      </trkpt>
      <trkpt lat="44.24872" lon="7.04737">
        <ele>1943.4000244141</ele>
        <time>2018-05-09T10:16:56.000Z</time>
      </trkpt>
      <trkpt lat="44.24872" lon="7.04737">
        <ele>1943.4000244141</ele>
        <time>2018-05-09T10:16:59.000Z</time>
      </trkpt>
      <trkpt lat="44.24871" lon="7.04739">
        <ele>1943.4000244141</ele>
        <time>2018-05-09T10:17:03.000Z</time>
      </trkpt>
      <trkpt lat="44.24871" lon="7.04733">
        <ele>1943.4000244141</ele>
        <time>2018-05-09T10:17:08.000Z</time>
      </trkpt>
      <trkpt lat="44.2487" lon="7.04734">
        <ele>1943.4000244141</ele>
        <time>2018-05-09T10:17:13.000Z</time>
      </trkpt>
      <trkpt lat="44.2487" lon="7.04734">
        <ele>1943.4000244141</ele>
        <time>2018-05-09T10:17:15.000Z</time>
      </trkpt>
      <trkpt lat="44.2487" lon="7.04735">
        <ele>1943.4000244141</ele>
        <time>2018-05-09T10:17:27.000Z</time>
      </trkpt>
      <trkpt lat="44.24871" lon="7.04738">
        <ele>1943.4000244141</ele>
        <time>2018-05-09T10:17:40.000Z</time>
      </trkpt>
      <trkpt lat="44.2487" lon="7.04739">
        <ele>1943.4000244141</ele>
        <time>2018-05-09T10:17:45.000Z</time>
      </trkpt>
      <trkpt lat="44.24869" lon="7.04739">
        <ele>1943.4000244141</ele>
        <time>2018-05-09T10:17:47.000Z</time>
      </trkpt>
      <trkpt lat="44.24869" lon="7.04738">
        <ele>1943.4000244141</ele>
        <time>2018-05-09T10:17:48.000Z</time>
      </trkpt>
      <trkpt lat="44.24869" lon="7.04738">
        <ele>1943.4000244141</ele>
        <time>2018-05-09T10:17:49.000Z</time>
      </trkpt>
      <trkpt lat="44.2487" lon="7.04737">
        <ele>1943.4000244141</ele>
        <time>2018-05-09T10:17:51.000Z</time>
      </trkpt>
      <trkpt lat="44.24872" lon="7.04733">
        <ele>1943.4000244141</ele>
        <time>2018-05-09T10:17:57.000Z</time>
      </trkpt>
      <trkpt lat="44.24872" lon="7.04731">
        <ele>1943.4000244141</ele>
        <time>2018-05-09T10:18:00.000Z</time>
      </trkpt>
      <trkpt lat="44.24873" lon="7.0473">
        <ele>1943.4000244141</ele>
        <time>2018-05-09T10:18:04.000Z</time>
      </trkpt>
      <trkpt lat="44.24873" lon="7.04729">
        <ele>1943.4000244141</ele>
        <time>2018-05-09T10:18:08.000Z</time>
      </trkpt>
      <trkpt lat="44.24873" lon="7.04729">
        <ele>1943.4000244141</ele>
        <time>2018-05-09T10:18:10.000Z</time>
      </trkpt>
      <trkpt lat="44.2487" lon="7.04734">
        <ele>1943.4000244141</ele>
        <time>2018-05-09T10:18:13.000Z</time>
      </trkpt>
      <trkpt lat="44.2487" lon="7.04734">
        <ele>1943.4000244141</ele>
        <time>2018-05-09T10:18:15.000Z</time>
      </trkpt>
      <trkpt lat="44.24869" lon="7.04736">
        <ele>1943.4000244141</ele>
        <time>2018-05-09T10:18:21.000Z</time>
      </trkpt>
      <trkpt lat="44.24869" lon="7.04738">
        <ele>1943.4000244141</ele>
        <time>2018-05-09T10:18:26.000Z</time>
      </trkpt>
      <trkpt lat="44.2487" lon="7.0474">
        <ele>1943.4000244141</ele>
        <time>2018-05-09T10:18:35.000Z</time>
      </trkpt>
      <trkpt lat="44.24871" lon="7.04738">
        <ele>1943.4000244141</ele>
        <time>2018-05-09T10:18:46.000Z</time>
      </trkpt>
      <trkpt lat="44.24871" lon="7.04737">
        <ele>1943.4000244141</ele>
        <time>2018-05-09T10:18:48.000Z</time>
      </trkpt>
      <trkpt lat="44.24872" lon="7.04736">
        <ele>1943.4000244141</ele>
        <time>2018-05-09T10:18:54.000Z</time>
      </trkpt>
      <trkpt lat="44.24871" lon="7.04733">
        <ele>1943.4000244141</ele>
        <time>2018-05-09T10:19:13.000Z</time>
      </trkpt>
      <trkpt lat="44.24868" lon="7.04735">
        <ele>1943.4000244141</ele>
        <time>2018-05-09T10:19:22.000Z</time>
      </trkpt>
      <trkpt lat="44.24868" lon="7.04735">
        <ele>1943.4000244141</ele>
        <time>2018-05-09T10:19:23.000Z</time>
      </trkpt>
      <trkpt lat="44.24868" lon="7.04735">
        <ele>1943.4000244141</ele>
        <time>2018-05-09T10:19:24.000Z</time>
      </trkpt>
      <trkpt lat="44.2487" lon="7.04727">
        <ele>1943.4000244141</ele>
        <time>2018-05-09T10:19:46.000Z</time>
      </trkpt>
      <trkpt lat="44.24871" lon="7.04727">
        <ele>1943.4000244141</ele>
        <time>2018-05-09T10:19:50.000Z</time>
      </trkpt>
      <trkpt lat="44.24871" lon="7.04727">
        <ele>1943.4000244141</ele>
        <time>2018-05-09T10:19:52.000Z</time>
      </trkpt>
      <trkpt lat="44.24871" lon="7.04728">
        <ele>1943.4000244141</ele>
        <time>2018-05-09T10:19:54.000Z</time>
      </trkpt>
      <trkpt lat="44.2487" lon="7.04728">
        <ele>1943.4000244141</ele>
        <time>2018-05-09T10:20:00.000Z</time>
      </trkpt>
      <trkpt lat="44.2487" lon="7.04729">
        <ele>1943.4000244141</ele>
        <time>2018-05-09T10:20:04.000Z</time>
      </trkpt>
      <trkpt lat="44.2487" lon="7.04729">
        <ele>1943.4000244141</ele>
        <time>2018-05-09T10:20:07.000Z</time>
      </trkpt>
      <trkpt lat="44.2487" lon="7.04729">
        <ele>1943.4000244141</ele>
        <time>2018-05-09T10:20:08.000Z</time>
      </trkpt>
      <trkpt lat="44.2487" lon="7.04729">
        <ele>1943.4000244141</ele>
        <time>2018-05-09T10:20:09.000Z</time>
      </trkpt>
      <trkpt lat="44.2487" lon="7.04729">
        <ele>1943.4000244141</ele>
        <time>2018-05-09T10:20:10.000Z</time>
      </trkpt>
      <trkpt lat="44.2487" lon="7.04729">
        <ele>1943.4000244141</ele>
        <time>2018-05-09T10:20:11.000Z</time>
      </trkpt>
      <trkpt lat="44.2487" lon="7.0473">
        <ele>1943.4000244141</ele>
        <time>2018-05-09T10:20:12.000Z</time>
      </trkpt>
      <trkpt lat="44.2487" lon="7.0473">
        <ele>1943.4000244141</ele>
        <time>2018-05-09T10:20:13.000Z</time>
      </trkpt>
      <trkpt lat="44.2487" lon="7.0473">
        <ele>1943.4000244141</ele>
        <time>2018-05-09T10:20:14.000Z</time>
      </trkpt>
      <trkpt lat="44.24871" lon="7.04729">
        <ele>1943.4000244141</ele>
        <time>2018-05-09T10:20:21.000Z</time>
      </trkpt>
      <trkpt lat="44.24871" lon="7.0473">
        <ele>1943.4000244141</ele>
        <time>2018-05-09T10:20:26.000Z</time>
      </trkpt>
      <trkpt lat="44.2487" lon="7.04731">
        <ele>1943.4000244141</ele>
        <time>2018-05-09T10:20:30.000Z</time>
      </trkpt>
      <trkpt lat="44.2487" lon="7.04731">
        <ele>1943.4000244141</ele>
        <time>2018-05-09T10:20:31.000Z</time>
      </trkpt>
      <trkpt lat="44.2487" lon="7.04731">
        <ele>1943.4000244141</ele>
        <time>2018-05-09T10:20:33.000Z</time>
      </trkpt>
      <trkpt lat="44.24871" lon="7.04731">
        <ele>1943.4000244141</ele>
        <time>2018-05-09T10:20:36.000Z</time>
      </trkpt>
      <trkpt lat="44.24871" lon="7.0473">
        <ele>1943.4000244141</ele>
        <time>2018-05-09T10:20:37.000Z</time>
      </trkpt>
      <trkpt lat="44.24871" lon="7.0473">
        <ele>1943.4000244141</ele>
        <time>2018-05-09T10:20:38.000Z</time>
      </trkpt>
      <trkpt lat="44.24871" lon="7.04732">
        <ele>1943.4000244141</ele>
        <time>2018-05-09T10:20:42.000Z</time>
      </trkpt>
      <trkpt lat="44.24868" lon="7.04735">
        <ele>1943.4000244141</ele>
        <time>2018-05-09T10:20:55.000Z</time>
      </trkpt>
      <trkpt lat="44.24868" lon="7.04736">
        <ele>1943.4000244141</ele>
        <time>2018-05-09T10:21:02.000Z</time>
      </trkpt>
      <trkpt lat="44.24868" lon="7.04737">
        <ele>1943.4000244141</ele>
        <time>2018-05-09T10:21:04.000Z</time>
      </trkpt>
      <trkpt lat="44.24867" lon="7.04738">
        <ele>1943.4000244141</ele>
        <time>2018-05-09T10:21:06.000Z</time>
      </trkpt>
      <trkpt lat="44.24867" lon="7.04738">
        <ele>1943.4000244141</ele>
        <time>2018-05-09T10:21:08.000Z</time>
      </trkpt>
      <trkpt lat="44.24868" lon="7.04738">
        <ele>1943.4000244141</ele>
        <time>2018-05-09T10:21:16.000Z</time>
      </trkpt>
      <trkpt lat="44.24868" lon="7.04736">
        <ele>1943.4000244141</ele>
        <time>2018-05-09T10:21:19.000Z</time>
      </trkpt>
      <trkpt lat="44.24868" lon="7.04736">
        <ele>1943.4000244141</ele>
        <time>2018-05-09T10:21:22.000Z</time>
      </trkpt>
      <trkpt lat="44.24868" lon="7.04737">
        <ele>1943.4000244141</ele>
        <time>2018-05-09T10:21:27.000Z</time>
      </trkpt>
      <trkpt lat="44.2487" lon="7.04734">
        <ele>1943.4000244141</ele>
        <time>2018-05-09T10:21:38.000Z</time>
      </trkpt>
      <trkpt lat="44.2487" lon="7.04738">
        <ele>1943.4000244141</ele>
        <time>2018-05-09T10:21:44.000Z</time>
      </trkpt>
      <trkpt lat="44.2487" lon="7.04739">
        <ele>1943.4000244141</ele>
        <time>2018-05-09T10:21:46.000Z</time>
      </trkpt>
      <trkpt lat="44.24871" lon="7.04738">
        <ele>1943.4000244141</ele>
        <time>2018-05-09T10:21:50.000Z</time>
      </trkpt>
      <trkpt lat="44.24871" lon="7.04738">
        <ele>1943.4000244141</ele>
        <time>2018-05-09T10:21:51.000Z</time>
      </trkpt>
      <trkpt lat="44.24872" lon="7.04736">
        <ele>1943.4000244141</ele>
        <time>2018-05-09T10:21:55.000Z</time>
      </trkpt>
      <trkpt lat="44.24871" lon="7.04734">
        <ele>1943.4000244141</ele>
        <time>2018-05-09T10:21:57.000Z</time>
      </trkpt>
      <trkpt lat="44.2487" lon="7.04733">
        <ele>1943.4000244141</ele>
        <time>2018-05-09T10:21:59.000Z</time>
      </trkpt>
      <trkpt lat="44.2487" lon="7.04733">
        <ele>1943.4000244141</ele>
        <time>2018-05-09T10:22:03.000Z</time>
      </trkpt>
      <trkpt lat="44.24874" lon="7.04736">
        <ele>1943.4000244141</ele>
        <time>2018-05-09T10:22:23.000Z</time>
      </trkpt>
      <trkpt lat="44.24874" lon="7.04736">
        <ele>1943.4000244141</ele>
        <time>2018-05-09T10:22:26.000Z</time>
      </trkpt>
      <trkpt lat="44.24865" lon="7.04734">
        <ele>1943.4000244141</ele>
        <time>2018-05-09T10:22:40.000Z</time>
      </trkpt>
      <trkpt lat="44.24867" lon="7.04735">
        <ele>1943.4000244141</ele>
        <time>2018-05-09T10:22:53.000Z</time>
      </trkpt>
      <trkpt lat="44.24867" lon="7.04735">
        <ele>1943.4000244141</ele>
        <time>2018-05-09T10:22:55.000Z</time>
      </trkpt>
      <trkpt lat="44.24869" lon="7.04735">
        <ele>1943.4000244141</ele>
        <time>2018-05-09T10:23:02.000Z</time>
      </trkpt>
      <trkpt lat="44.24871" lon="7.04735">
        <ele>1943.4000244141</ele>
        <time>2018-05-09T10:23:09.000Z</time>
      </trkpt>
      <trkpt lat="44.24872" lon="7.04736">
        <ele>1943.4000244141</ele>
        <time>2018-05-09T10:23:13.000Z</time>
      </trkpt>
      <trkpt lat="44.24872" lon="7.04738">
        <ele>1943.4000244141</ele>
        <time>2018-05-09T10:23:20.000Z</time>
      </trkpt>
      <trkpt lat="44.24871" lon="7.04736">
        <ele>1943.4000244141</ele>
        <time>2018-05-09T10:23:34.000Z</time>
      </trkpt>
      <trkpt lat="44.24871" lon="7.04736">
        <ele>1943.4000244141</ele>
        <time>2018-05-09T10:23:39.000Z</time>
      </trkpt>
      <trkpt lat="44.24871" lon="7.04736">
        <ele>1943.4000244141</ele>
        <time>2018-05-09T10:23:48.000Z</time>
      </trkpt>
      <trkpt lat="44.2487" lon="7.04736">
        <ele>1943.4000244141</ele>
        <time>2018-05-09T10:23:50.000Z</time>
      </trkpt>
      <trkpt lat="44.24869" lon="7.04736">
        <ele>1943.4000244141</ele>
        <time>2018-05-09T10:23:59.000Z</time>
      </trkpt>
      <trkpt lat="44.24869" lon="7.04736">
        <ele>1943.4000244141</ele>
        <time>2018-05-09T10:24:05.000Z</time>
      </trkpt>
      <trkpt lat="44.24869" lon="7.04735">
        <ele>1943.4000244141</ele>
        <time>2018-05-09T10:24:08.000Z</time>
      </trkpt>
      <trkpt lat="44.24869" lon="7.04735">
        <ele>1943.4000244141</ele>
        <time>2018-05-09T10:24:09.000Z</time>
      </trkpt>
      <trkpt lat="44.24869" lon="7.04735">
        <ele>1943.4000244141</ele>
        <time>2018-05-09T10:24:13.000Z</time>
      </trkpt>
      <trkpt lat="44.2487" lon="7.04735">
        <ele>1943.4000244141</ele>
        <time>2018-05-09T10:24:22.000Z</time>
      </trkpt>
      <trkpt lat="44.2487" lon="7.04735">
        <ele>1943.4000244141</ele>
        <time>2018-05-09T10:24:25.000Z</time>
      </trkpt>
      <trkpt lat="44.2487" lon="7.04736">
        <ele>1943.4000244141</ele>
        <time>2018-05-09T10:24:26.000Z</time>
      </trkpt>
      <trkpt lat="44.24874" lon="7.04736">
        <ele>1943.4000244141</ele>
        <time>2018-05-09T10:24:35.000Z</time>
      </trkpt>
      <trkpt lat="44.24876" lon="7.04735">
        <ele>1943.4000244141</ele>
        <time>2018-05-09T10:24:40.000Z</time>
      </trkpt>
      <trkpt lat="44.24873" lon="7.04735">
        <ele>1943.4000244141</ele>
        <time>2018-05-09T10:24:50.000Z</time>
      </trkpt>
      <trkpt lat="44.24873" lon="7.04734">
        <ele>1943.4000244141</ele>
        <time>2018-05-09T10:24:57.000Z</time>
      </trkpt>
      <trkpt lat="44.24873" lon="7.04734">
        <ele>1943.4000244141</ele>
        <time>2018-05-09T10:24:59.000Z</time>
      </trkpt>
      <trkpt lat="44.24873" lon="7.04733">
        <ele>1943.4000244141</ele>
        <time>2018-05-09T10:25:01.000Z</time>
      </trkpt>
      <trkpt lat="44.24873" lon="7.04734">
        <ele>1943.4000244141</ele>
        <time>2018-05-09T10:25:02.000Z</time>
      </trkpt>
      <trkpt lat="44.24872" lon="7.04735">
        <ele>1943.4000244141</ele>
        <time>2018-05-09T10:25:11.000Z</time>
      </trkpt>
      <trkpt lat="44.24872" lon="7.04736">
        <ele>1943.4000244141</ele>
        <time>2018-05-09T10:25:13.000Z</time>
      </trkpt>
      <trkpt lat="44.24872" lon="7.04736">
        <ele>1943.4000244141</ele>
        <time>2018-05-09T10:25:15.000Z</time>
      </trkpt>
      <trkpt lat="44.24871" lon="7.04735">
        <ele>1943.4000244141</ele>
        <time>2018-05-09T10:25:18.000Z</time>
      </trkpt>
      <trkpt lat="44.24871" lon="7.04735">
        <ele>1943.4000244141</ele>
        <time>2018-05-09T10:25:24.000Z</time>
      </trkpt>
      <trkpt lat="44.2487" lon="7.04734">
        <ele>1943.4000244141</ele>
        <time>2018-05-09T10:25:28.000Z</time>
      </trkpt>
      <trkpt lat="44.2487" lon="7.04735">
        <ele>1943.4000244141</ele>
        <time>2018-05-09T10:25:33.000Z</time>
      </trkpt>
      <trkpt lat="44.24869" lon="7.04736">
        <ele>1943.4000244141</ele>
        <time>2018-05-09T10:25:35.000Z</time>
      </trkpt>
      <trkpt lat="44.24868" lon="7.04736">
        <ele>1943.4000244141</ele>
        <time>2018-05-09T10:25:39.000Z</time>
      </trkpt>
      <trkpt lat="44.24868" lon="7.04736">
        <ele>1943.4000244141</ele>
        <time>2018-05-09T10:25:40.000Z</time>
      </trkpt>
      <trkpt lat="44.2487" lon="7.04738">
        <ele>1943.4000244141</ele>
        <time>2018-05-09T10:25:47.000Z</time>
      </trkpt>
      <trkpt lat="44.24871" lon="7.04739">
        <ele>1943.4000244141</ele>
        <time>2018-05-09T10:25:52.000Z</time>
      </trkpt>
      <trkpt lat="44.24871" lon="7.04739">
        <ele>1943.4000244141</ele>
        <time>2018-05-09T10:25:53.000Z</time>
      </trkpt>
      <trkpt lat="44.24871" lon="7.04739">
        <ele>1943.4000244141</ele>
        <time>2018-05-09T10:25:54.000Z</time>
      </trkpt>
      <trkpt lat="44.24871" lon="7.04739">
        <ele>1943.4000244141</ele>
        <time>2018-05-09T10:25:58.000Z</time>
      </trkpt>
      <trkpt lat="44.24871" lon="7.04739">
        <ele>1943.4000244141</ele>
        <time>2018-05-09T10:26:05.000Z</time>
      </trkpt>
      <trkpt lat="44.2487" lon="7.04739">
        <ele>1943.4000244141</ele>
        <time>2018-05-09T10:26:06.000Z</time>
      </trkpt>
      <trkpt lat="44.2487" lon="7.04739">
        <ele>1943.4000244141</ele>
        <time>2018-05-09T10:26:08.000Z</time>
      </trkpt>
      <trkpt lat="44.2487" lon="7.04738">
        <ele>1943.4000244141</ele>
        <time>2018-05-09T10:26:11.000Z</time>
      </trkpt>
      <trkpt lat="44.2487" lon="7.04737">
        <ele>1943.4000244141</ele>
        <time>2018-05-09T10:26:12.000Z</time>
      </trkpt>
      <trkpt lat="44.24871" lon="7.04737">
        <ele>1943.4000244141</ele>
        <time>2018-05-09T10:26:13.000Z</time>
      </trkpt>
      <trkpt lat="44.24871" lon="7.04735">
        <ele>1943.4000244141</ele>
        <time>2018-05-09T10:26:17.000Z</time>
      </trkpt>
      <trkpt lat="44.24872" lon="7.04732">
        <ele>1943.4000244141</ele>
        <time>2018-05-09T10:26:19.000Z</time>
      </trkpt>
      <trkpt lat="44.24869" lon="7.04735">
        <ele>1943.4000244141</ele>
        <time>2018-05-09T10:26:23.000Z</time>
      </trkpt>
      <trkpt lat="44.24868" lon="7.04736">
        <ele>1943.4000244141</ele>
        <time>2018-05-09T10:26:26.000Z</time>
      </trkpt>
      <trkpt lat="44.24868" lon="7.04738">
        <ele>1943.4000244141</ele>
        <time>2018-05-09T10:26:29.000Z</time>
      </trkpt>
      <trkpt lat="44.24868" lon="7.04739">
        <ele>1943.4000244141</ele>
        <time>2018-05-09T10:26:33.000Z</time>
      </trkpt>
      <trkpt lat="44.24867" lon="7.04738">
        <ele>1943.4000244141</ele>
        <time>2018-05-09T10:26:37.000Z</time>
      </trkpt>
      <trkpt lat="44.24867" lon="7.04738">
        <ele>1943.4000244141</ele>
        <time>2018-05-09T10:26:40.000Z</time>
      </trkpt>
      <trkpt lat="44.24867" lon="7.04738">
        <ele>1943.4000244141</ele>
        <time>2018-05-09T10:26:41.000Z</time>
      </trkpt>
      <trkpt lat="44.24867" lon="7.04738">
        <ele>1943.4000244141</ele>
        <time>2018-05-09T10:26:43.000Z</time>
      </trkpt>
      <trkpt lat="44.24868" lon="7.04739">
        <ele>1943.4000244141</ele>
        <time>2018-05-09T10:26:46.000Z</time>
      </trkpt>
      <trkpt lat="44.24867" lon="7.04739">
        <ele>1943.4000244141</ele>
        <time>2018-05-09T10:26:52.000Z</time>
      </trkpt>
      <trkpt lat="44.24868" lon="7.04739">
        <ele>1943.4000244141</ele>
        <time>2018-05-09T10:26:59.000Z</time>
      </trkpt>
      <trkpt lat="44.24868" lon="7.04737">
        <ele>1943.4000244141</ele>
        <time>2018-05-09T10:27:06.000Z</time>
      </trkpt>
      <trkpt lat="44.24868" lon="7.04737">
        <ele>1943.4000244141</ele>
        <time>2018-05-09T10:27:11.000Z</time>
      </trkpt>
      <trkpt lat="44.24869" lon="7.04733">
        <ele>1943.4000244141</ele>
        <time>2018-05-09T10:27:20.000Z</time>
      </trkpt>
      <trkpt lat="44.24869" lon="7.04733">
        <ele>1943.4000244141</ele>
        <time>2018-05-09T10:27:21.000Z</time>
      </trkpt>
      <trkpt lat="44.24869" lon="7.04735">
        <ele>1943.4000244141</ele>
        <time>2018-05-09T10:27:23.000Z</time>
      </trkpt>
      <trkpt lat="44.2487" lon="7.04736">
        <ele>1943.4000244141</ele>
        <time>2018-05-09T10:27:26.000Z</time>
      </trkpt>
      <trkpt lat="44.24871" lon="7.04742">
        <ele>1943.4000244141</ele>
        <time>2018-05-09T10:27:34.000Z</time>
      </trkpt>
      <trkpt lat="44.24871" lon="7.04733">
        <ele>1943.4000244141</ele>
        <time>2018-05-09T10:27:43.000Z</time>
      </trkpt>
      <trkpt lat="44.24871" lon="7.04732">
        <ele>1943.4000244141</ele>
        <time>2018-05-09T10:27:48.000Z</time>
      </trkpt>
      <trkpt lat="44.24871" lon="7.04735">
        <ele>1943.4000244141</ele>
        <time>2018-05-09T10:27:58.000Z</time>
      </trkpt>
      <trkpt lat="44.24872" lon="7.04736">
        <ele>1943.4000244141</ele>
        <time>2018-05-09T10:27:59.000Z</time>
      </trkpt>
      <trkpt lat="44.24872" lon="7.04736">
        <ele>1943.4000244141</ele>
        <time>2018-05-09T10:28:03.000Z</time>
      </trkpt>
      <trkpt lat="44.24872" lon="7.04735">
        <ele>1943.4000244141</ele>
        <time>2018-05-09T10:28:05.000Z</time>
      </trkpt>
      <trkpt lat="44.24873" lon="7.04732">
        <ele>1943.4000244141</ele>
        <time>2018-05-09T10:28:08.000Z</time>
      </trkpt>
      <trkpt lat="44.24872" lon="7.0473">
        <ele>1943.4000244141</ele>
        <time>2018-05-09T10:28:09.000Z</time>
      </trkpt>
      <trkpt lat="44.24873" lon="7.04729">
        <ele>1943.4000244141</ele>
        <time>2018-05-09T10:28:13.000Z</time>
      </trkpt>
      <trkpt lat="44.24873" lon="7.04729">
        <ele>1943.4000244141</ele>
        <time>2018-05-09T10:28:14.000Z</time>
      </trkpt>
      <trkpt lat="44.24873" lon="7.04729">
        <ele>1943.4000244141</ele>
        <time>2018-05-09T10:28:15.000Z</time>
      </trkpt>
      <trkpt lat="44.24873" lon="7.0473">
        <ele>1943.4000244141</ele>
        <time>2018-05-09T10:28:17.000Z</time>
      </trkpt>
      <trkpt lat="44.24873" lon="7.04727">
        <ele>1943.4000244141</ele>
        <time>2018-05-09T10:28:21.000Z</time>
      </trkpt>
      <trkpt lat="44.24873" lon="7.04728">
        <ele>1943.4000244141</ele>
        <time>2018-05-09T10:28:23.000Z</time>
      </trkpt>
      <trkpt lat="44.24874" lon="7.04728">
        <ele>1943.4000244141</ele>
        <time>2018-05-09T10:28:24.000Z</time>
      </trkpt>
      <trkpt lat="44.24875" lon="7.04728">
        <ele>1943.4000244141</ele>
        <time>2018-05-09T10:28:28.000Z</time>
      </trkpt>
      <trkpt lat="44.24875" lon="7.0473">
        <ele>1943.4000244141</ele>
        <time>2018-05-09T10:28:29.000Z</time>
      </trkpt>
      <trkpt lat="44.24874" lon="7.04732">
        <ele>1943.4000244141</ele>
        <time>2018-05-09T10:28:31.000Z</time>
      </trkpt>
      <trkpt lat="44.24874" lon="7.04731">
        <ele>1943.4000244141</ele>
        <time>2018-05-09T10:28:32.000Z</time>
      </trkpt>
      <trkpt lat="44.24873" lon="7.04731">
        <ele>1943.4000244141</ele>
        <time>2018-05-09T10:28:33.000Z</time>
      </trkpt>
      <trkpt lat="44.24872" lon="7.04728">
        <ele>1943.4000244141</ele>
        <time>2018-05-09T10:28:44.000Z</time>
      </trkpt>
      <trkpt lat="44.24871" lon="7.04735">
        <ele>1943.4000244141</ele>
        <time>2018-05-09T10:28:50.000Z</time>
      </trkpt>
      <trkpt lat="44.24872" lon="7.04736">
        <ele>1943.4000244141</ele>
        <time>2018-05-09T10:28:56.000Z</time>
      </trkpt>
      <trkpt lat="44.24872" lon="7.04736">
        <ele>1943.4000244141</ele>
        <time>2018-05-09T10:28:57.000Z</time>
      </trkpt>
      <trkpt lat="44.24872" lon="7.04736">
        <ele>1943.4000244141</ele>
        <time>2018-05-09T10:28:59.000Z</time>
      </trkpt>
      <trkpt lat="44.24872" lon="7.04737">
        <ele>1943.4000244141</ele>
        <time>2018-05-09T10:29:02.000Z</time>
      </trkpt>
      <trkpt lat="44.24872" lon="7.04737">
        <ele>1943.4000244141</ele>
        <time>2018-05-09T10:29:05.000Z</time>
      </trkpt>
      <trkpt lat="44.24872" lon="7.04736">
        <ele>1943.4000244141</ele>
        <time>2018-05-09T10:29:12.000Z</time>
      </trkpt>
      <trkpt lat="44.24872" lon="7.04736">
        <ele>1943.4000244141</ele>
        <time>2018-05-09T10:29:13.000Z</time>
      </trkpt>
      <trkpt lat="44.24872" lon="7.04735">
        <ele>1943.4000244141</ele>
        <time>2018-05-09T10:29:21.000Z</time>
      </trkpt>
      <trkpt lat="44.24871" lon="7.04735">
        <ele>1943.4000244141</ele>
        <time>2018-05-09T10:29:24.000Z</time>
      </trkpt>
      <trkpt lat="44.24872" lon="7.04736">
        <ele>1943.4000244141</ele>
        <time>2018-05-09T10:29:38.000Z</time>
      </trkpt>
      <trkpt lat="44.24872" lon="7.04736">
        <ele>1943.4000244141</ele>
        <time>2018-05-09T10:29:40.000Z</time>
      </trkpt>
      <trkpt lat="44.24872" lon="7.04736">
        <ele>1943.4000244141</ele>
        <time>2018-05-09T10:29:41.000Z</time>
      </trkpt>
      <trkpt lat="44.24872" lon="7.04736">
        <ele>1943.4000244141</ele>
        <time>2018-05-09T10:29:42.000Z</time>
      </trkpt>
      <trkpt lat="44.24872" lon="7.04736">
        <ele>1943.4000244141</ele>
        <time>2018-05-09T10:29:47.000Z</time>
      </trkpt>
      <trkpt lat="44.24872" lon="7.04736">
        <ele>1943.4000244141</ele>
        <time>2018-05-09T10:29:49.000Z</time>
      </trkpt>
      <trkpt lat="44.24871" lon="7.04736">
        <ele>1943.4000244141</ele>
        <time>2018-05-09T10:29:55.000Z</time>
      </trkpt>
      <trkpt lat="44.24871" lon="7.04736">
        <ele>1943.4000244141</ele>
        <time>2018-05-09T10:29:56.000Z</time>
      </trkpt>
      <trkpt lat="44.2487" lon="7.04736">
        <ele>1943.4000244141</ele>
        <time>2018-05-09T10:29:58.000Z</time>
      </trkpt>
      <trkpt lat="44.2487" lon="7.04736">
        <ele>1943.4000244141</ele>
        <time>2018-05-09T10:30:00.000Z</time>
      </trkpt>
      <trkpt lat="44.2487" lon="7.04737">
        <ele>1943.4000244141</ele>
        <time>2018-05-09T10:30:02.000Z</time>
      </trkpt>
      <trkpt lat="44.24869" lon="7.04737">
        <ele>1943.4000244141</ele>
        <time>2018-05-09T10:30:04.000Z</time>
      </trkpt>
      <trkpt lat="44.24869" lon="7.04737">
        <ele>1943.4000244141</ele>
        <time>2018-05-09T10:30:06.000Z</time>
      </trkpt>
      <trkpt lat="44.24869" lon="7.04737">
        <ele>1943.4000244141</ele>
        <time>2018-05-09T10:30:08.000Z</time>
      </trkpt>
      <trkpt lat="44.24869" lon="7.04738">
        <ele>1943.4000244141</ele>
        <time>2018-05-09T10:30:13.000Z</time>
      </trkpt>
      <trkpt lat="44.24869" lon="7.04737">
        <ele>1943.4000244141</ele>
        <time>2018-05-09T10:30:18.000Z</time>
      </trkpt>
      <trkpt lat="44.24869" lon="7.04737">
        <ele>1943.4000244141</ele>
        <time>2018-05-09T10:30:19.000Z</time>
      </trkpt>
      <trkpt lat="44.2487" lon="7.04737">
        <ele>1943.4000244141</ele>
        <time>2018-05-09T10:30:21.000Z</time>
      </trkpt>
      <trkpt lat="44.24871" lon="7.04736">
        <ele>1943.4000244141</ele>
        <time>2018-05-09T10:30:23.000Z</time>
      </trkpt>
      <trkpt lat="44.24871" lon="7.04736">
        <ele>1943.4000244141</ele>
        <time>2018-05-09T10:30:25.000Z</time>
      </trkpt>
      <trkpt lat="44.24871" lon="7.04736">
        <ele>1943.4000244141</ele>
        <time>2018-05-09T10:30:26.000Z</time>
      </trkpt>
      <trkpt lat="44.2487" lon="7.04736">
        <ele>1943.4000244141</ele>
        <time>2018-05-09T10:30:32.000Z</time>
      </trkpt>
      <trkpt lat="44.2487" lon="7.04736">
        <ele>1943.4000244141</ele>
        <time>2018-05-09T10:30:34.000Z</time>
      </trkpt>
      <trkpt lat="44.24869" lon="7.04738">
        <ele>1943.4000244141</ele>
        <time>2018-05-09T10:30:36.000Z</time>
      </trkpt>
      <trkpt lat="44.24869" lon="7.04738">
        <ele>1943.4000244141</ele>
        <time>2018-05-09T10:30:38.000Z</time>
      </trkpt>
      <trkpt lat="44.24869" lon="7.04738">
        <ele>1943.4000244141</ele>
        <time>2018-05-09T10:30:39.000Z</time>
      </trkpt>
      <trkpt lat="44.24869" lon="7.04738">
        <ele>1943.4000244141</ele>
        <time>2018-05-09T10:30:41.000Z</time>
      </trkpt>
      <trkpt lat="44.24868" lon="7.04739">
        <ele>1943.4000244141</ele>
        <time>2018-05-09T10:30:49.000Z</time>
      </trkpt>
      <trkpt lat="44.24867" lon="7.0474">
        <ele>1943.4000244141</ele>
        <time>2018-05-09T10:30:52.000Z</time>
      </trkpt>
      <trkpt lat="44.24866" lon="7.04741">
        <ele>1943.4000244141</ele>
        <time>2018-05-09T10:30:56.000Z</time>
      </trkpt>
      <trkpt lat="44.24867" lon="7.04741">
        <ele>1943.4000244141</ele>
        <time>2018-05-09T10:30:59.000Z</time>
      </trkpt>
      <trkpt lat="44.24866" lon="7.04741">
        <ele>1943.4000244141</ele>
        <time>2018-05-09T10:31:02.000Z</time>
      </trkpt>
      <trkpt lat="44.24868" lon="7.04738">
        <ele>1943.4000244141</ele>
        <time>2018-05-09T10:31:08.000Z</time>
      </trkpt>
      <trkpt lat="44.24868" lon="7.04736">
        <ele>1943.4000244141</ele>
        <time>2018-05-09T10:31:11.000Z</time>
      </trkpt>
      <trkpt lat="44.24867" lon="7.0473">
        <ele>1943.4000244141</ele>
        <time>2018-05-09T10:31:14.000Z</time>
      </trkpt>
      <trkpt lat="44.2487" lon="7.0473">
        <ele>1944</ele>
        <time>2018-05-09T10:31:30.000Z</time>
      </trkpt>
      <trkpt lat="44.24869" lon="7.04733">
        <ele>1944</ele>
        <time>2018-05-09T10:31:32.000Z</time>
      </trkpt>
      <trkpt lat="44.24869" lon="7.04736">
        <ele>1944</ele>
        <time>2018-05-09T10:31:36.000Z</time>
      </trkpt>
      <trkpt lat="44.24869" lon="7.04734">
        <ele>1944</ele>
        <time>2018-05-09T10:31:43.000Z</time>
      </trkpt>
      <trkpt lat="44.24869" lon="7.04733">
        <ele>1944</ele>
        <time>2018-05-09T10:31:50.000Z</time>
      </trkpt>
      <trkpt lat="44.2487" lon="7.04731">
        <ele>1944</ele>
        <time>2018-05-09T10:31:55.000Z</time>
      </trkpt>
      <trkpt lat="44.2487" lon="7.04731">
        <ele>1944</ele>
        <time>2018-05-09T10:32:00.000Z</time>
      </trkpt>
      <trkpt lat="44.24871" lon="7.0473">
        <ele>1944</ele>
        <time>2018-05-09T10:32:01.000Z</time>
      </trkpt>
      <trkpt lat="44.24872" lon="7.04732">
        <ele>1944</ele>
        <time>2018-05-09T10:32:06.000Z</time>
      </trkpt>
      <trkpt lat="44.2487" lon="7.0473">
        <ele>1943.8000488281</ele>
        <time>2018-05-09T10:32:17.000Z</time>
      </trkpt>
      <trkpt lat="44.24869" lon="7.04731">
        <ele>1944</ele>
        <time>2018-05-09T10:32:21.000Z</time>
      </trkpt>
      <trkpt lat="44.2487" lon="7.04732">
        <ele>1944.1999511719</ele>
        <time>2018-05-09T10:32:24.000Z</time>
      </trkpt>
      <trkpt lat="44.24871" lon="7.04735">
        <ele>1944.1999511719</ele>
        <time>2018-05-09T10:32:29.000Z</time>
      </trkpt>
      <trkpt lat="44.24871" lon="7.04735">
        <ele>1944.1999511719</ele>
        <time>2018-05-09T10:32:33.000Z</time>
      </trkpt>
      <trkpt lat="44.24874" lon="7.04734">
        <ele>1944.1999511719</ele>
        <time>2018-05-09T10:32:37.000Z</time>
      </trkpt>
      <trkpt lat="44.24879" lon="7.04735">
        <ele>1944</ele>
        <time>2018-05-09T10:33:02.000Z</time>
      </trkpt>
      <trkpt lat="44.24877" lon="7.04735">
        <ele>1944.1999511719</ele>
        <time>2018-05-09T10:33:10.000Z</time>
      </trkpt>
      <trkpt lat="44.24876" lon="7.04735">
        <ele>1944.1999511719</ele>
        <time>2018-05-09T10:33:11.000Z</time>
      </trkpt>
      <trkpt lat="44.24876" lon="7.04735">
        <ele>1944.1999511719</ele>
        <time>2018-05-09T10:33:12.000Z</time>
      </trkpt>
      <trkpt lat="44.24875" lon="7.04735">
        <ele>1944.1999511719</ele>
        <time>2018-05-09T10:33:20.000Z</time>
      </trkpt>
      <trkpt lat="44.24875" lon="7.04736">
        <ele>1944.1999511719</ele>
        <time>2018-05-09T10:33:24.000Z</time>
      </trkpt>
      <trkpt lat="44.24876" lon="7.04736">
        <ele>1944.1999511719</ele>
        <time>2018-05-09T10:33:25.000Z</time>
      </trkpt>
      <trkpt lat="44.24876" lon="7.04736">
        <ele>1944.1999511719</ele>
        <time>2018-05-09T10:33:26.000Z</time>
      </trkpt>
      <trkpt lat="44.24878" lon="7.04736">
        <ele>1944</ele>
        <time>2018-05-09T10:33:28.000Z</time>
      </trkpt>
      <trkpt lat="44.24879" lon="7.04736">
        <ele>1944.1999511719</ele>
        <time>2018-05-09T10:33:30.000Z</time>
      </trkpt>
      <trkpt lat="44.24875" lon="7.04737">
        <ele>1944.1999511719</ele>
        <time>2018-05-09T10:33:38.000Z</time>
      </trkpt>
      <trkpt lat="44.24875" lon="7.04736">
        <ele>1944.4000244141</ele>
        <time>2018-05-09T10:33:42.000Z</time>
      </trkpt>
      <trkpt lat="44.24873" lon="7.04736">
        <ele>1944.4000244141</ele>
        <time>2018-05-09T10:33:50.000Z</time>
      </trkpt>
      <trkpt lat="44.24872" lon="7.04736">
        <ele>1944.5999755859</ele>
        <time>2018-05-09T10:34:00.000Z</time>
      </trkpt>
      <trkpt lat="44.24872" lon="7.04736">
        <ele>1944.4000244141</ele>
        <time>2018-05-09T10:34:03.000Z</time>
      </trkpt>
      <trkpt lat="44.24872" lon="7.04735">
        <ele>1944.4000244141</ele>
        <time>2018-05-09T10:34:08.000Z</time>
      </trkpt>
      <trkpt lat="44.24872" lon="7.04735">
        <ele>1944.4000244141</ele>
        <time>2018-05-09T10:34:12.000Z</time>
      </trkpt>
      <trkpt lat="44.2487" lon="7.04736">
        <ele>1944.4000244141</ele>
        <time>2018-05-09T10:34:15.000Z</time>
      </trkpt>
      <trkpt lat="44.2487" lon="7.04736">
        <ele>1944.4000244141</ele>
        <time>2018-05-09T10:34:18.000Z</time>
      </trkpt>
      <trkpt lat="44.24872" lon="7.04737">
        <ele>1944.1999511719</ele>
        <time>2018-05-09T10:34:34.000Z</time>
      </trkpt>
      <trkpt lat="44.24875" lon="7.04736">
        <ele>1944.4000244141</ele>
        <time>2018-05-09T10:34:39.000Z</time>
      </trkpt>
      <trkpt lat="44.24872" lon="7.04739">
        <ele>1944.5999755859</ele>
        <time>2018-05-09T10:34:42.000Z</time>
      </trkpt>
      <trkpt lat="44.24871" lon="7.0474">
        <ele>1944.8000488281</ele>
        <time>2018-05-09T10:34:46.000Z</time>
      </trkpt>
      <trkpt lat="44.24871" lon="7.04739">
        <ele>1944.8000488281</ele>
        <time>2018-05-09T10:34:48.000Z</time>
      </trkpt>
      <trkpt lat="44.24869" lon="7.0474">
        <ele>1944.5999755859</ele>
        <time>2018-05-09T10:34:55.000Z</time>
      </trkpt>
      <trkpt lat="44.24867" lon="7.04742">
        <ele>1944.8000488281</ele>
        <time>2018-05-09T10:35:02.000Z</time>
      </trkpt>
      <trkpt lat="44.2487" lon="7.04742">
        <ele>1944.8000488281</ele>
        <time>2018-05-09T10:35:10.000Z</time>
      </trkpt>
      <trkpt lat="44.24871" lon="7.04741">
        <ele>1944.8000488281</ele>
        <time>2018-05-09T10:35:16.000Z</time>
      </trkpt>
      <trkpt lat="44.2487" lon="7.04741">
        <ele>1944.8000488281</ele>
        <time>2018-05-09T10:35:17.000Z</time>
      </trkpt>
      <trkpt lat="44.24867" lon="7.04738">
        <ele>1944.5999755859</ele>
        <time>2018-05-09T10:35:24.000Z</time>
      </trkpt>
      <trkpt lat="44.24866" lon="7.0474">
        <ele>1944.4000244141</ele>
        <time>2018-05-09T10:35:28.000Z</time>
      </trkpt>
      <trkpt lat="44.24866" lon="7.04741">
        <ele>1944.5999755859</ele>
        <time>2018-05-09T10:35:38.000Z</time>
      </trkpt>
      <trkpt lat="44.24867" lon="7.04741">
        <ele>1944.5999755859</ele>
        <time>2018-05-09T10:35:41.000Z</time>
      </trkpt>
      <trkpt lat="44.24869" lon="7.04739">
        <ele>1944.4000244141</ele>
        <time>2018-05-09T10:35:57.000Z</time>
      </trkpt>
      <trkpt lat="44.24869" lon="7.0474">
        <ele>1944.4000244141</ele>
        <time>2018-05-09T10:36:09.000Z</time>
      </trkpt>
      <trkpt lat="44.24869" lon="7.0474">
        <ele>1944.4000244141</ele>
        <time>2018-05-09T10:36:16.000Z</time>
      </trkpt>
      <trkpt lat="44.24869" lon="7.0474">
        <ele>1944.4000244141</ele>
        <time>2018-05-09T10:36:20.000Z</time>
      </trkpt>
      <trkpt lat="44.24869" lon="7.04739">
        <ele>1944.4000244141</ele>
        <time>2018-05-09T10:36:25.000Z</time>
      </trkpt>
      <trkpt lat="44.2487" lon="7.04739">
        <ele>1944.4000244141</ele>
        <time>2018-05-09T10:36:27.000Z</time>
      </trkpt>
      <trkpt lat="44.24869" lon="7.04739">
        <ele>1944.4000244141</ele>
        <time>2018-05-09T10:36:29.000Z</time>
      </trkpt>
      <trkpt lat="44.24869" lon="7.04739">
        <ele>1944.4000244141</ele>
        <time>2018-05-09T10:36:30.000Z</time>
      </trkpt>
      <trkpt lat="44.24869" lon="7.04738">
        <ele>1944.4000244141</ele>
        <time>2018-05-09T10:36:32.000Z</time>
      </trkpt>
      <trkpt lat="44.24869" lon="7.04738">
        <ele>1944.4000244141</ele>
        <time>2018-05-09T10:36:35.000Z</time>
      </trkpt>
      <trkpt lat="44.24869" lon="7.04738">
        <ele>1944.4000244141</ele>
        <time>2018-05-09T10:36:36.000Z</time>
      </trkpt>
      <trkpt lat="44.24869" lon="7.04738">
        <ele>1944.4000244141</ele>
        <time>2018-05-09T10:36:38.000Z</time>
      </trkpt>
      <trkpt lat="44.2487" lon="7.04738">
        <ele>1944.4000244141</ele>
        <time>2018-05-09T10:36:42.000Z</time>
      </trkpt>
      <trkpt lat="44.24871" lon="7.04736">
        <ele>1944.4000244141</ele>
        <time>2018-05-09T10:36:46.000Z</time>
      </trkpt>
      <trkpt lat="44.24871" lon="7.04736">
        <ele>1944.4000244141</ele>
        <time>2018-05-09T10:36:47.000Z</time>
      </trkpt>
      <trkpt lat="44.24871" lon="7.04737">
        <ele>1944.4000244141</ele>
        <time>2018-05-09T10:36:48.000Z</time>
      </trkpt>
      <trkpt lat="44.24871" lon="7.04737">
        <ele>1944.4000244141</ele>
        <time>2018-05-09T10:36:49.000Z</time>
      </trkpt>
      <trkpt lat="44.24871" lon="7.04737">
        <ele>1944.4000244141</ele>
        <time>2018-05-09T10:36:50.000Z</time>
      </trkpt>
      <trkpt lat="44.24871" lon="7.04737">
        <ele>1944.4000244141</ele>
        <time>2018-05-09T10:36:51.000Z</time>
      </trkpt>
      <trkpt lat="44.24871" lon="7.04737">
        <ele>1944.4000244141</ele>
        <time>2018-05-09T10:36:52.000Z</time>
      </trkpt>
      <trkpt lat="44.24871" lon="7.04737">
        <ele>1944.4000244141</ele>
        <time>2018-05-09T10:36:54.000Z</time>
      </trkpt>
      <trkpt lat="44.2487" lon="7.04739">
        <ele>1944.4000244141</ele>
        <time>2018-05-09T10:36:55.000Z</time>
      </trkpt>
      <trkpt lat="44.2487" lon="7.0474">
        <ele>1944.4000244141</ele>
        <time>2018-05-09T10:36:58.000Z</time>
      </trkpt>
      <trkpt lat="44.24869" lon="7.0474">
        <ele>1944.4000244141</ele>
        <time>2018-05-09T10:36:59.000Z</time>
      </trkpt>
      <trkpt lat="44.24869" lon="7.04741">
        <ele>1944.4000244141</ele>
        <time>2018-05-09T10:37:01.000Z</time>
      </trkpt>
      <trkpt lat="44.24869" lon="7.04741">
        <ele>1944.4000244141</ele>
        <time>2018-05-09T10:37:02.000Z</time>
      </trkpt>
      <trkpt lat="44.24869" lon="7.0474">
        <ele>1944.4000244141</ele>
        <time>2018-05-09T10:37:10.000Z</time>
      </trkpt>
      <trkpt lat="44.2487" lon="7.04739">
        <ele>1944.4000244141</ele>
        <time>2018-05-09T10:37:14.000Z</time>
      </trkpt>
      <trkpt lat="44.24871" lon="7.04736">
        <ele>1944.4000244141</ele>
        <time>2018-05-09T10:37:25.000Z</time>
      </trkpt>
      <trkpt lat="44.2487" lon="7.04737">
        <ele>1944.4000244141</ele>
        <time>2018-05-09T10:37:30.000Z</time>
      </trkpt>
      <trkpt lat="44.2487" lon="7.04736">
        <ele>1944.4000244141</ele>
        <time>2018-05-09T10:37:35.000Z</time>
      </trkpt>
      <trkpt lat="44.24871" lon="7.04736">
        <ele>1944.4000244141</ele>
        <time>2018-05-09T10:37:37.000Z</time>
      </trkpt>
      <trkpt lat="44.24871" lon="7.04737">
        <ele>1944.4000244141</ele>
        <time>2018-05-09T10:37:38.000Z</time>
      </trkpt>
      <trkpt lat="44.24871" lon="7.04736">
        <ele>1944.4000244141</ele>
        <time>2018-05-09T10:37:41.000Z</time>
      </trkpt>
      <trkpt lat="44.24871" lon="7.04735">
        <ele>1944.4000244141</ele>
        <time>2018-05-09T10:37:42.000Z</time>
      </trkpt>
      <trkpt lat="44.2487" lon="7.04734">
        <ele>1944.4000244141</ele>
        <time>2018-05-09T10:37:49.000Z</time>
      </trkpt>
      <trkpt lat="44.2487" lon="7.04734">
        <ele>1944.4000244141</ele>
        <time>2018-05-09T10:37:51.000Z</time>
      </trkpt>
      <trkpt lat="44.2487" lon="7.04734">
        <ele>1944.4000244141</ele>
        <time>2018-05-09T10:37:58.000Z</time>
      </trkpt>
      <trkpt lat="44.2487" lon="7.04735">
        <ele>1944.4000244141</ele>
        <time>2018-05-09T10:38:00.000Z</time>
      </trkpt>
      <trkpt lat="44.24872" lon="7.04736">
        <ele>1944.4000244141</ele>
        <time>2018-05-09T10:38:04.000Z</time>
      </trkpt>
      <trkpt lat="44.24871" lon="7.04736">
        <ele>1944.4000244141</ele>
        <time>2018-05-09T10:38:09.000Z</time>
      </trkpt>
      <trkpt lat="44.24871" lon="7.04736">
        <ele>1944.4000244141</ele>
        <time>2018-05-09T10:38:11.000Z</time>
      </trkpt>
      <trkpt lat="44.24871" lon="7.04736">
        <ele>1944.4000244141</ele>
        <time>2018-05-09T10:38:17.000Z</time>
      </trkpt>
      <trkpt lat="44.24869" lon="7.04736">
        <ele>1944.4000244141</ele>
        <time>2018-05-09T10:38:23.000Z</time>
      </trkpt>
      <trkpt lat="44.24869" lon="7.04737">
        <ele>1944.4000244141</ele>
        <time>2018-05-09T10:38:27.000Z</time>
      </trkpt>
      <trkpt lat="44.24869" lon="7.04737">
        <ele>1944.4000244141</ele>
        <time>2018-05-09T10:38:29.000Z</time>
      </trkpt>
      <trkpt lat="44.24869" lon="7.04736">
        <ele>1944.4000244141</ele>
        <time>2018-05-09T10:38:34.000Z</time>
      </trkpt>
      <trkpt lat="44.2487" lon="7.04731">
        <ele>1944.4000244141</ele>
        <time>2018-05-09T10:38:37.000Z</time>
      </trkpt>
      <trkpt lat="44.24871" lon="7.04731">
        <ele>1944.4000244141</ele>
        <time>2018-05-09T10:38:40.000Z</time>
      </trkpt>
      <trkpt lat="44.24873" lon="7.04732">
        <ele>1944.4000244141</ele>
        <time>2018-05-09T10:38:43.000Z</time>
      </trkpt>
      <trkpt lat="44.24874" lon="7.04732">
        <ele>1944.4000244141</ele>
        <time>2018-05-09T10:38:46.000Z</time>
      </trkpt>
      <trkpt lat="44.24875" lon="7.04731">
        <ele>1944.4000244141</ele>
        <time>2018-05-09T10:38:48.000Z</time>
      </trkpt>
      <trkpt lat="44.24877" lon="7.04731">
        <ele>1944.4000244141</ele>
        <time>2018-05-09T10:38:51.000Z</time>
      </trkpt>
      <trkpt lat="44.24876" lon="7.04729">
        <ele>1944.4000244141</ele>
        <time>2018-05-09T10:38:56.000Z</time>
      </trkpt>
      <trkpt lat="44.24876" lon="7.0473">
        <ele>1944.4000244141</ele>
        <time>2018-05-09T10:38:59.000Z</time>
      </trkpt>
      <trkpt lat="44.24877" lon="7.04732">
        <ele>1944.4000244141</ele>
        <time>2018-05-09T10:39:09.000Z</time>
      </trkpt>
      <trkpt lat="44.24877" lon="7.04732">
        <ele>1944.4000244141</ele>
        <time>2018-05-09T10:39:12.000Z</time>
      </trkpt>
      <trkpt lat="44.24875" lon="7.04733">
        <ele>1944.4000244141</ele>
        <time>2018-05-09T10:39:15.000Z</time>
      </trkpt>
      <trkpt lat="44.24876" lon="7.04733">
        <ele>1944.4000244141</ele>
        <time>2018-05-09T10:39:18.000Z</time>
      </trkpt>
      <trkpt lat="44.24875" lon="7.04733">
        <ele>1944.4000244141</ele>
        <time>2018-05-09T10:39:23.000Z</time>
      </trkpt>
      <trkpt lat="44.24874" lon="7.04733">
        <ele>1944.4000244141</ele>
        <time>2018-05-09T10:39:27.000Z</time>
      </trkpt>
      <trkpt lat="44.24874" lon="7.04733">
        <ele>1944.4000244141</ele>
        <time>2018-05-09T10:39:29.000Z</time>
      </trkpt>
      <trkpt lat="44.24875" lon="7.04732">
        <ele>1944.4000244141</ele>
        <time>2018-05-09T10:40:17.000Z</time>
      </trkpt>
      <trkpt lat="44.24876" lon="7.04729">
        <ele>1944.4000244141</ele>
        <time>2018-05-09T10:40:26.000Z</time>
      </trkpt>
      <trkpt lat="44.24878" lon="7.04728">
        <ele>1944.4000244141</ele>
        <time>2018-05-09T10:40:28.000Z</time>
      </trkpt>
      <trkpt lat="44.24876" lon="7.04729">
        <ele>1944.4000244141</ele>
        <time>2018-05-09T10:40:33.000Z</time>
      </trkpt>
      <trkpt lat="44.24875" lon="7.04729">
        <ele>1944.4000244141</ele>
        <time>2018-05-09T10:40:36.000Z</time>
      </trkpt>
      <trkpt lat="44.24876" lon="7.04731">
        <ele>1944.4000244141</ele>
        <time>2018-05-09T10:40:45.000Z</time>
      </trkpt>
      <trkpt lat="44.24877" lon="7.04729">
        <ele>1944.4000244141</ele>
        <time>2018-05-09T10:40:49.000Z</time>
      </trkpt>
      <trkpt lat="44.24878" lon="7.04726">
        <ele>1944.4000244141</ele>
        <time>2018-05-09T10:40:54.000Z</time>
      </trkpt>
      <trkpt lat="44.24877" lon="7.04728">
        <ele>1944.4000244141</ele>
        <time>2018-05-09T10:41:01.000Z</time>
      </trkpt>
      <trkpt lat="44.24881" lon="7.04727">
        <ele>1944.4000244141</ele>
        <time>2018-05-09T10:41:05.000Z</time>
      </trkpt>
      <trkpt lat="44.24882" lon="7.04726">
        <ele>1944.4000244141</ele>
        <time>2018-05-09T10:41:06.000Z</time>
      </trkpt>
      <trkpt lat="44.24888" lon="7.04728">
        <ele>1944</ele>
        <time>2018-05-09T10:41:10.000Z</time>
      </trkpt>
      <trkpt lat="44.24902" lon="7.04727">
        <ele>1943.4000244141</ele>
        <time>2018-05-09T10:41:18.000Z</time>
      </trkpt>
      <trkpt lat="44.24909" lon="7.04725">
        <ele>1943.1999511719</ele>
        <time>2018-05-09T10:41:22.000Z</time>
      </trkpt>
      <trkpt lat="44.24917" lon="7.04721">
        <ele>1942.8000488281</ele>
        <time>2018-05-09T10:41:26.000Z</time>
      </trkpt>
      <trkpt lat="44.24933" lon="7.04721">
        <ele>1942.1999511719</ele>
        <time>2018-05-09T10:41:42.000Z</time>
      </trkpt>
      <trkpt lat="44.24936" lon="7.04721">
        <ele>1942</ele>
        <time>2018-05-09T10:41:44.000Z</time>
      </trkpt>
      <trkpt lat="44.24942" lon="7.04719">
        <ele>1941.8000488281</ele>
        <time>2018-05-09T10:41:50.000Z</time>
      </trkpt>
      <trkpt lat="44.24942" lon="7.04718">
        <ele>1941.5999755859</ele>
        <time>2018-05-09T10:41:52.000Z</time>
      </trkpt>
      <trkpt lat="44.24943" lon="7.04717">
        <ele>1941.4000244141</ele>
        <time>2018-05-09T10:41:57.000Z</time>
      </trkpt>
      <trkpt lat="44.2495" lon="7.04716">
        <ele>1940.8000488281</ele>
        <time>2018-05-09T10:42:02.000Z</time>
      </trkpt>
      <trkpt lat="44.24953" lon="7.04715">
        <ele>1940.5999755859</ele>
        <time>2018-05-09T10:42:06.000Z</time>
      </trkpt>
      <trkpt lat="44.24953" lon="7.04714">
        <ele>1940.5999755859</ele>
        <time>2018-05-09T10:42:18.000Z</time>
      </trkpt>
      <trkpt lat="44.24954" lon="7.04714">
        <ele>1940.5999755859</ele>
        <time>2018-05-09T10:42:21.000Z</time>
      </trkpt>
      <trkpt lat="44.24955" lon="7.04714">
        <ele>1940.5999755859</ele>
        <time>2018-05-09T10:42:23.000Z</time>
      </trkpt>
      <trkpt lat="44.24954" lon="7.0471">
        <ele>1940.8000488281</ele>
        <time>2018-05-09T10:42:34.000Z</time>
      </trkpt>
      <trkpt lat="44.24953" lon="7.04707">
        <ele>1941</ele>
        <time>2018-05-09T10:42:40.000Z</time>
      </trkpt>
      <trkpt lat="44.24951" lon="7.04707">
        <ele>1941.1999511719</ele>
        <time>2018-05-09T10:42:48.000Z</time>
      </trkpt>
      <trkpt lat="44.24951" lon="7.04708">
        <ele>1941</ele>
        <time>2018-05-09T10:42:51.000Z</time>
      </trkpt>
      <trkpt lat="44.24951" lon="7.04709">
        <ele>1941</ele>
        <time>2018-05-09T10:42:52.000Z</time>
      </trkpt>
      <trkpt lat="44.2495" lon="7.0471">
        <ele>1941</ele>
        <time>2018-05-09T10:42:53.000Z</time>
      </trkpt>
      <trkpt lat="44.2495" lon="7.04712">
        <ele>1941</ele>
        <time>2018-05-09T10:42:54.000Z</time>
      </trkpt>
      <trkpt lat="44.24949" lon="7.04712">
        <ele>1941</ele>
        <time>2018-05-09T10:42:56.000Z</time>
      </trkpt>
      <trkpt lat="44.24949" lon="7.04714">
        <ele>1941</ele>
        <time>2018-05-09T10:42:59.000Z</time>
      </trkpt>
      <trkpt lat="44.2495" lon="7.0472">
        <ele>1941</ele>
        <time>2018-05-09T10:43:05.000Z</time>
      </trkpt>
      <trkpt lat="44.2495" lon="7.0472">
        <ele>1941</ele>
        <time>2018-05-09T10:43:07.000Z</time>
      </trkpt>
      <trkpt lat="44.24949" lon="7.0472">
        <ele>1941</ele>
        <time>2018-05-09T10:43:09.000Z</time>
      </trkpt>
      <trkpt lat="44.24949" lon="7.04721">
        <ele>1941</ele>
        <time>2018-05-09T10:43:10.000Z</time>
      </trkpt>
      <trkpt lat="44.24949" lon="7.04721">
        <ele>1940.8000488281</ele>
        <time>2018-05-09T10:43:12.000Z</time>
      </trkpt>
      <trkpt lat="44.24948" lon="7.04723">
        <ele>1940.8000488281</ele>
        <time>2018-05-09T10:43:15.000Z</time>
      </trkpt>
      <trkpt lat="44.24948" lon="7.04723">
        <ele>1940.8000488281</ele>
        <time>2018-05-09T10:43:16.000Z</time>
      </trkpt>
      <trkpt lat="44.24948" lon="7.04722">
        <ele>1940.8000488281</ele>
        <time>2018-05-09T10:43:19.000Z</time>
      </trkpt>
      <trkpt lat="44.24948" lon="7.04722">
        <ele>1940.8000488281</ele>
        <time>2018-05-09T10:43:20.000Z</time>
      </trkpt>
      <trkpt lat="44.24948" lon="7.0472">
        <ele>1940.8000488281</ele>
        <time>2018-05-09T10:43:23.000Z</time>
      </trkpt>
      <trkpt lat="44.24949" lon="7.04719">
        <ele>1940.8000488281</ele>
        <time>2018-05-09T10:43:25.000Z</time>
      </trkpt>
      <trkpt lat="44.2495" lon="7.04717">
        <ele>1940.8000488281</ele>
        <time>2018-05-09T10:43:27.000Z</time>
      </trkpt>
      <trkpt lat="44.24955" lon="7.04714">
        <ele>1940.8000488281</ele>
        <time>2018-05-09T10:43:32.000Z</time>
      </trkpt>
      <trkpt lat="44.24957" lon="7.04714">
        <ele>1940.8000488281</ele>
        <time>2018-05-09T10:43:33.000Z</time>
      </trkpt>
      <trkpt lat="44.24963" lon="7.04714">
        <ele>1940.8000488281</ele>
        <time>2018-05-09T10:43:35.000Z</time>
      </trkpt>
      <trkpt lat="44.24967" lon="7.04714">
        <ele>1939</ele>
        <time>2018-05-09T10:43:36.000Z</time>
      </trkpt>
      <trkpt lat="44.24971" lon="7.04714">
        <ele>1938.5999755859</ele>
        <time>2018-05-09T10:43:37.000Z</time>
      </trkpt>
      <trkpt lat="44.24975" lon="7.04713">
        <ele>1937</ele>
        <time>2018-05-09T10:43:38.000Z</time>
      </trkpt>
      <trkpt lat="44.24983" lon="7.0471">
        <ele>1936</ele>
        <time>2018-05-09T10:43:40.000Z</time>
      </trkpt>
      <trkpt lat="44.2499" lon="7.04709">
        <ele>1936.1999511719</ele>
        <time>2018-05-09T10:43:42.000Z</time>
      </trkpt>
      <trkpt lat="44.24999" lon="7.04708">
        <ele>1935</ele>
        <time>2018-05-09T10:43:44.000Z</time>
      </trkpt>
      <trkpt lat="44.25007" lon="7.047">
        <ele>1933</ele>
        <time>2018-05-09T10:43:46.000Z</time>
      </trkpt>
      <trkpt lat="44.2501" lon="7.04696">
        <ele>1932</ele>
        <time>2018-05-09T10:43:47.000Z</time>
      </trkpt>
      <trkpt lat="44.25015" lon="7.04691">
        <ele>1930.1999511719</ele>
        <time>2018-05-09T10:43:49.000Z</time>
      </trkpt>
      <trkpt lat="44.25019" lon="7.04688">
        <ele>1929</ele>
        <time>2018-05-09T10:43:51.000Z</time>
      </trkpt>
      <trkpt lat="44.25028" lon="7.04688">
        <ele>1927.8000488281</ele>
        <time>2018-05-09T10:43:54.000Z</time>
      </trkpt>
      <trkpt lat="44.25032" lon="7.04696">
        <ele>1926.1999511719</ele>
        <time>2018-05-09T10:43:56.000Z</time>
      </trkpt>
      <trkpt lat="44.25032" lon="7.04699">
        <ele>1924.8000488281</ele>
        <time>2018-05-09T10:43:57.000Z</time>
      </trkpt>
      <trkpt lat="44.25034" lon="7.047">
        <ele>1923</ele>
        <time>2018-05-09T10:43:58.000Z</time>
      </trkpt>
      <trkpt lat="44.25036" lon="7.04702">
        <ele>1921.5999755859</ele>
        <time>2018-05-09T10:43:59.000Z</time>
      </trkpt>
      <trkpt lat="44.25038" lon="7.04702">
        <ele>1920.5999755859</ele>
        <time>2018-05-09T10:44:01.000Z</time>
      </trkpt>
      <trkpt lat="44.25039" lon="7.04702">
        <ele>1920.4000244141</ele>
        <time>2018-05-09T10:44:02.000Z</time>
      </trkpt>
      <trkpt lat="44.25042" lon="7.047">
        <ele>1920.1999511719</ele>
        <time>2018-05-09T10:44:05.000Z</time>
      </trkpt>
      <trkpt lat="44.25048" lon="7.04694">
        <ele>1920</ele>
        <time>2018-05-09T10:44:07.000Z</time>
      </trkpt>
      <trkpt lat="44.25059" lon="7.04688">
        <ele>1919.1999511719</ele>
        <time>2018-05-09T10:44:09.000Z</time>
      </trkpt>
      <trkpt lat="44.25065" lon="7.04687">
        <ele>1918</ele>
        <time>2018-05-09T10:44:10.000Z</time>
      </trkpt>
      <trkpt lat="44.2507" lon="7.04685">
        <ele>1916.5999755859</ele>
        <time>2018-05-09T10:44:11.000Z</time>
      </trkpt>
      <trkpt lat="44.25074" lon="7.04684">
        <ele>1914.8000488281</ele>
        <time>2018-05-09T10:44:12.000Z</time>
      </trkpt>
      <trkpt lat="44.25077" lon="7.04683">
        <ele>1913.1999511719</ele>
        <time>2018-05-09T10:44:13.000Z</time>
      </trkpt>
      <trkpt lat="44.25081" lon="7.04684">
        <ele>1911.5999755859</ele>
        <time>2018-05-09T10:44:14.000Z</time>
      </trkpt>
      <trkpt lat="44.25084" lon="7.04686">
        <ele>1910</ele>
        <time>2018-05-09T10:44:15.000Z</time>
      </trkpt>
      <trkpt lat="44.25087" lon="7.04687">
        <ele>1908.8000488281</ele>
        <time>2018-05-09T10:44:16.000Z</time>
      </trkpt>
      <trkpt lat="44.25095" lon="7.04689">
        <ele>1906.8000488281</ele>
        <time>2018-05-09T10:44:18.000Z</time>
      </trkpt>
      <trkpt lat="44.25098" lon="7.04691">
        <ele>1905.8000488281</ele>
        <time>2018-05-09T10:44:19.000Z</time>
      </trkpt>
      <trkpt lat="44.25099" lon="7.04696">
        <ele>1904.4000244141</ele>
        <time>2018-05-09T10:44:20.000Z</time>
      </trkpt>
      <trkpt lat="44.25101" lon="7.047">
        <ele>1903</ele>
        <time>2018-05-09T10:44:21.000Z</time>
      </trkpt>
      <trkpt lat="44.25102" lon="7.04704">
        <ele>1901.8000488281</ele>
        <time>2018-05-09T10:44:22.000Z</time>
      </trkpt>
      <trkpt lat="44.25104" lon="7.04709">
        <ele>1900.4000244141</ele>
        <time>2018-05-09T10:44:23.000Z</time>
      </trkpt>
      <trkpt lat="44.25107" lon="7.04712">
        <ele>1899.4000244141</ele>
        <time>2018-05-09T10:44:24.000Z</time>
      </trkpt>
      <trkpt lat="44.25116" lon="7.04711">
        <ele>1897.5999755859</ele>
        <time>2018-05-09T10:44:26.000Z</time>
      </trkpt>
      <trkpt lat="44.25126" lon="7.04705">
        <ele>1895.8000488281</ele>
        <time>2018-05-09T10:44:28.000Z</time>
      </trkpt>
      <trkpt lat="44.25129" lon="7.04703">
        <ele>1894.4000244141</ele>
        <time>2018-05-09T10:44:29.000Z</time>
      </trkpt>
      <trkpt lat="44.25131" lon="7.04702">
        <ele>1893.1999511719</ele>
        <time>2018-05-09T10:44:30.000Z</time>
      </trkpt>
      <trkpt lat="44.25136" lon="7.04702">
        <ele>1891.5999755859</ele>
        <time>2018-05-09T10:44:32.000Z</time>
      </trkpt>
      <trkpt lat="44.25144" lon="7.04704">
        <ele>1890.4000244141</ele>
        <time>2018-05-09T10:44:35.000Z</time>
      </trkpt>
      <trkpt lat="44.25157" lon="7.04705">
        <ele>1888.8000488281</ele>
        <time>2018-05-09T10:44:38.000Z</time>
      </trkpt>
      <trkpt lat="44.25161" lon="7.04703">
        <ele>1887.5999755859</ele>
        <time>2018-05-09T10:44:40.000Z</time>
      </trkpt>
      <trkpt lat="44.25162" lon="7.04703">
        <ele>1886.4000244141</ele>
        <time>2018-05-09T10:44:42.000Z</time>
      </trkpt>
      <trkpt lat="44.25165" lon="7.04703">
        <ele>1885.8000488281</ele>
        <time>2018-05-09T10:44:46.000Z</time>
      </trkpt>
      <trkpt lat="44.25167" lon="7.04703">
        <ele>1885.4000244141</ele>
        <time>2018-05-09T10:44:48.000Z</time>
      </trkpt>
      <trkpt lat="44.25168" lon="7.04702">
        <ele>1885.4000244141</ele>
        <time>2018-05-09T10:44:49.000Z</time>
      </trkpt>
      <trkpt lat="44.25171" lon="7.04701">
        <ele>1885</ele>
        <time>2018-05-09T10:44:51.000Z</time>
      </trkpt>
      <trkpt lat="44.25171" lon="7.047">
        <ele>1884.5999755859</ele>
        <time>2018-05-09T10:44:53.000Z</time>
      </trkpt>
      <trkpt lat="44.25171" lon="7.047">
        <ele>1884.4000244141</ele>
        <time>2018-05-09T10:44:54.000Z</time>
      </trkpt>
      <trkpt lat="44.25184" lon="7.04697">
        <ele>1884.4000244141</ele>
        <time>2018-05-09T10:45:08.000Z</time>
      </trkpt>
      <trkpt lat="44.25176" lon="7.04692">
        <ele>1883.8000488281</ele>
        <time>2018-05-09T10:45:19.000Z</time>
      </trkpt>
      <trkpt lat="44.25176" lon="7.04695">
        <ele>1883.8000488281</ele>
        <time>2018-05-09T10:45:23.000Z</time>
      </trkpt>
      <trkpt lat="44.25177" lon="7.04695">
        <ele>1883.5999755859</ele>
        <time>2018-05-09T10:45:29.000Z</time>
      </trkpt>
      <trkpt lat="44.25177" lon="7.04696">
        <ele>1883.5999755859</ele>
        <time>2018-05-09T10:45:31.000Z</time>
      </trkpt>
      <trkpt lat="44.25177" lon="7.04696">
        <ele>1883.5999755859</ele>
        <time>2018-05-09T10:45:32.000Z</time>
      </trkpt>
      <trkpt lat="44.25175" lon="7.04693">
        <ele>1883.5999755859</ele>
        <time>2018-05-09T10:45:41.000Z</time>
      </trkpt>
      <trkpt lat="44.25173" lon="7.04694">
        <ele>1883.5999755859</ele>
        <time>2018-05-09T10:45:44.000Z</time>
      </trkpt>
      <trkpt lat="44.25173" lon="7.04693">
        <ele>1883.5999755859</ele>
        <time>2018-05-09T10:45:47.000Z</time>
      </trkpt>
      <trkpt lat="44.25187" lon="7.04694">
        <ele>1883.4000244141</ele>
        <time>2018-05-09T10:45:51.000Z</time>
      </trkpt>
      <trkpt lat="44.25192" lon="7.04696">
        <ele>1882.8000488281</ele>
        <time>2018-05-09T10:45:52.000Z</time>
      </trkpt>
      <trkpt lat="44.25201" lon="7.04698">
        <ele>1881</ele>
        <time>2018-05-09T10:45:54.000Z</time>
      </trkpt>
      <trkpt lat="44.2521" lon="7.04699">
        <ele>1879.4000244141</ele>
        <time>2018-05-09T10:45:56.000Z</time>
      </trkpt>
      <trkpt lat="44.25219" lon="7.04699">
        <ele>1878.1999511719</ele>
        <time>2018-05-09T10:45:58.000Z</time>
      </trkpt>
      <trkpt lat="44.25222" lon="7.04698">
        <ele>1877.1999511719</ele>
        <time>2018-05-09T10:45:59.000Z</time>
      </trkpt>
      <trkpt lat="44.25224" lon="7.04697">
        <ele>1876.1999511719</ele>
        <time>2018-05-09T10:46:00.000Z</time>
      </trkpt>
      <trkpt lat="44.25226" lon="7.04696">
        <ele>1875.4000244141</ele>
        <time>2018-05-09T10:46:01.000Z</time>
      </trkpt>
      <trkpt lat="44.25229" lon="7.04696">
        <ele>1874.5999755859</ele>
        <time>2018-05-09T10:46:02.000Z</time>
      </trkpt>
      <trkpt lat="44.25234" lon="7.04695">
        <ele>1873.5999755859</ele>
        <time>2018-05-09T10:46:04.000Z</time>
      </trkpt>
      <trkpt lat="44.25242" lon="7.04701">
        <ele>1872.4000244141</ele>
        <time>2018-05-09T10:46:07.000Z</time>
      </trkpt>
      <trkpt lat="44.25242" lon="7.04707">
        <ele>1870.4000244141</ele>
        <time>2018-05-09T10:46:09.000Z</time>
      </trkpt>
      <trkpt lat="44.25241" lon="7.0471">
        <ele>1869.1999511719</ele>
        <time>2018-05-09T10:46:10.000Z</time>
      </trkpt>
      <trkpt lat="44.25242" lon="7.04713">
        <ele>1868</ele>
        <time>2018-05-09T10:46:11.000Z</time>
      </trkpt>
      <trkpt lat="44.25245" lon="7.04716">
        <ele>1866.8000488281</ele>
        <time>2018-05-09T10:46:12.000Z</time>
      </trkpt>
      <trkpt lat="44.25249" lon="7.04718">
        <ele>1865.8000488281</ele>
        <time>2018-05-09T10:46:13.000Z</time>
      </trkpt>
      <trkpt lat="44.25252" lon="7.04721">
        <ele>1864.8000488281</ele>
        <time>2018-05-09T10:46:14.000Z</time>
      </trkpt>
      <trkpt lat="44.25255" lon="7.04724">
        <ele>1863.5999755859</ele>
        <time>2018-05-09T10:46:15.000Z</time>
      </trkpt>
      <trkpt lat="44.25255" lon="7.04727">
        <ele>1862.4000244141</ele>
        <time>2018-05-09T10:46:16.000Z</time>
      </trkpt>
      <trkpt lat="44.25255" lon="7.04729">
        <ele>1860.8000488281</ele>
        <time>2018-05-09T10:46:17.000Z</time>
      </trkpt>
      <trkpt lat="44.25254" lon="7.04732">
        <ele>1859.1999511719</ele>
        <time>2018-05-09T10:46:18.000Z</time>
      </trkpt>
      <trkpt lat="44.25253" lon="7.04736">
        <ele>1858</ele>
        <time>2018-05-09T10:46:19.000Z</time>
      </trkpt>
      <trkpt lat="44.25252" lon="7.04745">
        <ele>1856.5999755859</ele>
        <time>2018-05-09T10:46:21.000Z</time>
      </trkpt>
      <trkpt lat="44.25251" lon="7.04747">
        <ele>1854.1999511719</ele>
        <time>2018-05-09T10:46:23.000Z</time>
      </trkpt>
      <trkpt lat="44.25251" lon="7.04748">
        <ele>1853</ele>
        <time>2018-05-09T10:46:24.000Z</time>
      </trkpt>
      <trkpt lat="44.25253" lon="7.04755">
        <ele>1851.5999755859</ele>
        <time>2018-05-09T10:46:26.000Z</time>
      </trkpt>
      <trkpt lat="44.25256" lon="7.04758">
        <ele>1850.5999755859</ele>
        <time>2018-05-09T10:46:29.000Z</time>
      </trkpt>
      <trkpt lat="44.25261" lon="7.04759">
        <ele>1850.1999511719</ele>
        <time>2018-05-09T10:46:38.000Z</time>
      </trkpt>
      <trkpt lat="44.25263" lon="7.04759">
        <ele>1850</ele>
        <time>2018-05-09T10:46:56.000Z</time>
      </trkpt>
      <trkpt lat="44.25268" lon="7.04766">
        <ele>1849.5999755859</ele>
        <time>2018-05-09T10:47:03.000Z</time>
      </trkpt>
      <trkpt lat="44.25268" lon="7.04769">
        <ele>1849.1999511719</ele>
        <time>2018-05-09T10:47:04.000Z</time>
      </trkpt>
      <trkpt lat="44.25267" lon="7.04775">
        <ele>1847.4000244141</ele>
        <time>2018-05-09T10:47:06.000Z</time>
      </trkpt>
      <trkpt lat="44.2527" lon="7.04779">
        <ele>1845.8000488281</ele>
        <time>2018-05-09T10:47:08.000Z</time>
      </trkpt>
      <trkpt lat="44.25275" lon="7.04785">
        <ele>1843.5999755859</ele>
        <time>2018-05-09T10:47:10.000Z</time>
      </trkpt>
      <trkpt lat="44.25275" lon="7.04788">
        <ele>1842.4000244141</ele>
        <time>2018-05-09T10:47:11.000Z</time>
      </trkpt>
      <trkpt lat="44.25275" lon="7.0479">
        <ele>1841.1999511719</ele>
        <time>2018-05-09T10:47:12.000Z</time>
      </trkpt>
      <trkpt lat="44.25277" lon="7.0479">
        <ele>1840</ele>
        <time>2018-05-09T10:47:13.000Z</time>
      </trkpt>
      <trkpt lat="44.2528" lon="7.04792">
        <ele>1839</ele>
        <time>2018-05-09T10:47:14.000Z</time>
      </trkpt>
      <trkpt lat="44.2528" lon="7.04795">
        <ele>1838</ele>
        <time>2018-05-09T10:47:15.000Z</time>
      </trkpt>
      <trkpt lat="44.25278" lon="7.04798">
        <ele>1837</ele>
        <time>2018-05-09T10:47:16.000Z</time>
      </trkpt>
      <trkpt lat="44.25277" lon="7.048">
        <ele>1835.8000488281</ele>
        <time>2018-05-09T10:47:17.000Z</time>
      </trkpt>
      <trkpt lat="44.25274" lon="7.04803">
        <ele>1834.4000244141</ele>
        <time>2018-05-09T10:47:19.000Z</time>
      </trkpt>
      <trkpt lat="44.25269" lon="7.0482">
        <ele>1833.1999511719</ele>
        <time>2018-05-09T10:47:24.000Z</time>
      </trkpt>
      <trkpt lat="44.25269" lon="7.04822">
        <ele>1833</ele>
        <time>2018-05-09T10:47:25.000Z</time>
      </trkpt>
      <trkpt lat="44.2527" lon="7.04824">
        <ele>1832.4000244141</ele>
        <time>2018-05-09T10:47:27.000Z</time>
      </trkpt>
      <trkpt lat="44.2527" lon="7.04826">
        <ele>1831.8000488281</ele>
        <time>2018-05-09T10:47:28.000Z</time>
      </trkpt>
      <trkpt lat="44.25274" lon="7.04842">
        <ele>1830.8000488281</ele>
        <time>2018-05-09T10:47:31.000Z</time>
      </trkpt>
      <trkpt lat="44.2528" lon="7.04846">
        <ele>1829.5999755859</ele>
        <time>2018-05-09T10:47:33.000Z</time>
      </trkpt>
      <trkpt lat="44.25283" lon="7.04846">
        <ele>1828.1999511719</ele>
        <time>2018-05-09T10:47:35.000Z</time>
      </trkpt>
      <trkpt lat="44.25284" lon="7.04847">
        <ele>1827.4000244141</ele>
        <time>2018-05-09T10:47:37.000Z</time>
      </trkpt>
      <trkpt lat="44.25287" lon="7.0485">
        <ele>1827.4000244141</ele>
        <time>2018-05-09T10:47:40.000Z</time>
      </trkpt>
      <trkpt lat="44.25291" lon="7.04851">
        <ele>1827.5999755859</ele>
        <time>2018-05-09T10:47:42.000Z</time>
      </trkpt>
      <trkpt lat="44.25303" lon="7.04848">
        <ele>1827.8000488281</ele>
        <time>2018-05-09T10:47:56.000Z</time>
      </trkpt>
      <trkpt lat="44.25302" lon="7.04844">
        <ele>1827.5999755859</ele>
        <time>2018-05-09T10:48:00.000Z</time>
      </trkpt>
      <trkpt lat="44.25297" lon="7.04841">
        <ele>1827.1999511719</ele>
        <time>2018-05-09T10:48:06.000Z</time>
      </trkpt>
      <trkpt lat="44.25296" lon="7.04841">
        <ele>1827.1999511719</ele>
        <time>2018-05-09T10:48:07.000Z</time>
      </trkpt>
      <trkpt lat="44.25294" lon="7.04841">
        <ele>1827</ele>
        <time>2018-05-09T10:48:08.000Z</time>
      </trkpt>
      <trkpt lat="44.25294" lon="7.0484">
        <ele>1827</ele>
        <time>2018-05-09T10:48:09.000Z</time>
      </trkpt>
      <trkpt lat="44.25296" lon="7.04835">
        <ele>1827</ele>
        <time>2018-05-09T10:48:11.000Z</time>
      </trkpt>
      <trkpt lat="44.25298" lon="7.04832">
        <ele>1826.8000488281</ele>
        <time>2018-05-09T10:48:12.000Z</time>
      </trkpt>
      <trkpt lat="44.25303" lon="7.0483">
        <ele>1825.8000488281</ele>
        <time>2018-05-09T10:48:14.000Z</time>
      </trkpt>
      <trkpt lat="44.25307" lon="7.04831">
        <ele>1825</ele>
        <time>2018-05-09T10:48:15.000Z</time>
      </trkpt>
      <trkpt lat="44.25311" lon="7.04832">
        <ele>1824.1999511719</ele>
        <time>2018-05-09T10:48:16.000Z</time>
      </trkpt>
      <trkpt lat="44.2532" lon="7.04832">
        <ele>1823.1999511719</ele>
        <time>2018-05-09T10:48:18.000Z</time>
      </trkpt>
      <trkpt lat="44.25324" lon="7.04831">
        <ele>1822.5999755859</ele>
        <time>2018-05-09T10:48:19.000Z</time>
      </trkpt>
      <trkpt lat="44.25326" lon="7.04829">
        <ele>1821.8000488281</ele>
        <time>2018-05-09T10:48:20.000Z</time>
      </trkpt>
      <trkpt lat="44.25328" lon="7.04826">
        <ele>1820.4000244141</ele>
        <time>2018-05-09T10:48:22.000Z</time>
      </trkpt>
      <trkpt lat="44.2533" lon="7.04825">
        <ele>1820.1999511719</ele>
        <time>2018-05-09T10:48:23.000Z</time>
      </trkpt>
      <trkpt lat="44.25335" lon="7.04827">
        <ele>1819.1999511719</ele>
        <time>2018-05-09T10:48:25.000Z</time>
      </trkpt>
      <trkpt lat="44.25341" lon="7.0483">
        <ele>1818</ele>
        <time>2018-05-09T10:48:27.000Z</time>
      </trkpt>
      <trkpt lat="44.25349" lon="7.04834">
        <ele>1816.5999755859</ele>
        <time>2018-05-09T10:48:29.000Z</time>
      </trkpt>
      <trkpt lat="44.25353" lon="7.0484">
        <ele>1814.8000488281</ele>
        <time>2018-05-09T10:48:31.000Z</time>
      </trkpt>
      <trkpt lat="44.25355" lon="7.04843">
        <ele>1813.8000488281</ele>
        <time>2018-05-09T10:48:32.000Z</time>
      </trkpt>
      <trkpt lat="44.2536" lon="7.04852">
        <ele>1811.5999755859</ele>
        <time>2018-05-09T10:48:34.000Z</time>
      </trkpt>
      <trkpt lat="44.25362" lon="7.04857">
        <ele>1810.4000244141</ele>
        <time>2018-05-09T10:48:35.000Z</time>
      </trkpt>
      <trkpt lat="44.25365" lon="7.0486">
        <ele>1809.1999511719</ele>
        <time>2018-05-09T10:48:36.000Z</time>
      </trkpt>
      <trkpt lat="44.25368" lon="7.04862">
        <ele>1808.1999511719</ele>
        <time>2018-05-09T10:48:37.000Z</time>
      </trkpt>
      <trkpt lat="44.25375" lon="7.04863">
        <ele>1807</ele>
        <time>2018-05-09T10:48:38.000Z</time>
      </trkpt>
      <trkpt lat="44.2538" lon="7.04862">
        <ele>1805.8000488281</ele>
        <time>2018-05-09T10:48:39.000Z</time>
      </trkpt>
      <trkpt lat="44.25382" lon="7.04862">
        <ele>1804.5999755859</ele>
        <time>2018-05-09T10:48:40.000Z</time>
      </trkpt>
      <trkpt lat="44.25387" lon="7.04861">
        <ele>1803</ele>
        <time>2018-05-09T10:48:42.000Z</time>
      </trkpt>
      <trkpt lat="44.25388" lon="7.04861">
        <ele>1802.5999755859</ele>
        <time>2018-05-09T10:48:43.000Z</time>
      </trkpt>
      <trkpt lat="44.25407" lon="7.04864">
        <ele>1801.8000488281</ele>
        <time>2018-05-09T10:48:53.000Z</time>
      </trkpt>
      <trkpt lat="44.2542" lon="7.04864">
        <ele>1800.8000488281</ele>
        <time>2018-05-09T10:48:56.000Z</time>
      </trkpt>
      <trkpt lat="44.25428" lon="7.04865">
        <ele>1799.4000244141</ele>
        <time>2018-05-09T10:48:58.000Z</time>
      </trkpt>
      <trkpt lat="44.25432" lon="7.04867">
        <ele>1798.1999511719</ele>
        <time>2018-05-09T10:49:00.000Z</time>
      </trkpt>
      <trkpt lat="44.25438" lon="7.04867">
        <ele>1797</ele>
        <time>2018-05-09T10:49:02.000Z</time>
      </trkpt>
      <trkpt lat="44.25441" lon="7.04867">
        <ele>1795.4000244141</ele>
        <time>2018-05-09T10:49:04.000Z</time>
      </trkpt>
      <trkpt lat="44.25445" lon="7.04865">
        <ele>1794.1999511719</ele>
        <time>2018-05-09T10:49:07.000Z</time>
      </trkpt>
      <trkpt lat="44.25452" lon="7.04862">
        <ele>1793</ele>
        <time>2018-05-09T10:49:11.000Z</time>
      </trkpt>
      <trkpt lat="44.25458" lon="7.04861">
        <ele>1792</ele>
        <time>2018-05-09T10:49:15.000Z</time>
      </trkpt>
      <trkpt lat="44.25469" lon="7.04846">
        <ele>1791</ele>
        <time>2018-05-09T10:49:37.000Z</time>
      </trkpt>
      <trkpt lat="44.25471" lon="7.04848">
        <ele>1790.8000488281</ele>
        <time>2018-05-09T10:49:38.000Z</time>
      </trkpt>
      <trkpt lat="44.25474" lon="7.04855">
        <ele>1789.5999755859</ele>
        <time>2018-05-09T10:49:40.000Z</time>
      </trkpt>
      <trkpt lat="44.25474" lon="7.04858">
        <ele>1788.5999755859</ele>
        <time>2018-05-09T10:49:41.000Z</time>
      </trkpt>
      <trkpt lat="44.25474" lon="7.04862">
        <ele>1787.8000488281</ele>
        <time>2018-05-09T10:49:42.000Z</time>
      </trkpt>
      <trkpt lat="44.25474" lon="7.04869">
        <ele>1786.5999755859</ele>
        <time>2018-05-09T10:49:45.000Z</time>
      </trkpt>
      <trkpt lat="44.25476" lon="7.04871">
        <ele>1785.8000488281</ele>
        <time>2018-05-09T10:49:48.000Z</time>
      </trkpt>
      <trkpt lat="44.25478" lon="7.04872">
        <ele>1785.5999755859</ele>
        <time>2018-05-09T10:50:01.000Z</time>
      </trkpt>
      <trkpt lat="44.25474" lon="7.04878">
        <ele>1785.4000244141</ele>
        <time>2018-05-09T10:50:06.000Z</time>
      </trkpt>
      <trkpt lat="44.25472" lon="7.04881">
        <ele>1785.4000244141</ele>
        <time>2018-05-09T10:50:07.000Z</time>
      </trkpt>
      <trkpt lat="44.25471" lon="7.04886">
        <ele>1785.1999511719</ele>
        <time>2018-05-09T10:50:10.000Z</time>
      </trkpt>
      <trkpt lat="44.25471" lon="7.04887">
        <ele>1784.8000488281</ele>
        <time>2018-05-09T10:50:12.000Z</time>
      </trkpt>
      <trkpt lat="44.25472" lon="7.04887">
        <ele>1784.8000488281</ele>
        <time>2018-05-09T10:50:13.000Z</time>
      </trkpt>
      <trkpt lat="44.25475" lon="7.04886">
        <ele>1784.5999755859</ele>
        <time>2018-05-09T10:50:16.000Z</time>
      </trkpt>
      <trkpt lat="44.25475" lon="7.04885">
        <ele>1784.5999755859</ele>
        <time>2018-05-09T10:50:17.000Z</time>
      </trkpt>
      <trkpt lat="44.25475" lon="7.04884">
        <ele>1784.4000244141</ele>
        <time>2018-05-09T10:50:18.000Z</time>
      </trkpt>
      <trkpt lat="44.25473" lon="7.04882">
        <ele>1784</ele>
        <time>2018-05-09T10:50:22.000Z</time>
      </trkpt>
      <trkpt lat="44.25478" lon="7.04877">
        <ele>1784</ele>
        <time>2018-05-09T10:50:27.000Z</time>
      </trkpt>
      <trkpt lat="44.2548" lon="7.04873">
        <ele>1784</ele>
        <time>2018-05-09T10:50:29.000Z</time>
      </trkpt>
      <trkpt lat="44.25482" lon="7.04868">
        <ele>1783.1999511719</ele>
        <time>2018-05-09T10:50:31.000Z</time>
      </trkpt>
      <trkpt lat="44.25485" lon="7.04867">
        <ele>1782</ele>
        <time>2018-05-09T10:50:33.000Z</time>
      </trkpt>
      <trkpt lat="44.25486" lon="7.04867">
        <ele>1781</ele>
        <time>2018-05-09T10:50:34.000Z</time>
      </trkpt>
      <trkpt lat="44.25487" lon="7.04866">
        <ele>1780</ele>
        <time>2018-05-09T10:50:35.000Z</time>
      </trkpt>
      <trkpt lat="44.25491" lon="7.04866">
        <ele>1778</ele>
        <time>2018-05-09T10:50:37.000Z</time>
      </trkpt>
      <trkpt lat="44.25493" lon="7.04866">
        <ele>1777</ele>
        <time>2018-05-09T10:50:38.000Z</time>
      </trkpt>
      <trkpt lat="44.25495" lon="7.04865">
        <ele>1775.5999755859</ele>
        <time>2018-05-09T10:50:39.000Z</time>
      </trkpt>
      <trkpt lat="44.25498" lon="7.04864">
        <ele>1774.5999755859</ele>
        <time>2018-05-09T10:50:40.000Z</time>
      </trkpt>
      <trkpt lat="44.25499" lon="7.04863">
        <ele>1773.1999511719</ele>
        <time>2018-05-09T10:50:41.000Z</time>
      </trkpt>
      <trkpt lat="44.255" lon="7.04862">
        <ele>1772</ele>
        <time>2018-05-09T10:50:42.000Z</time>
      </trkpt>
      <trkpt lat="44.25501" lon="7.04862">
        <ele>1770.8000488281</ele>
        <time>2018-05-09T10:50:43.000Z</time>
      </trkpt>
      <trkpt lat="44.25499" lon="7.0486">
        <ele>1769.8000488281</ele>
        <time>2018-05-09T10:50:46.000Z</time>
      </trkpt>
      <trkpt lat="44.25506" lon="7.0486">
        <ele>1769.5999755859</ele>
        <time>2018-05-09T10:51:02.000Z</time>
      </trkpt>
      <trkpt lat="44.25507" lon="7.0486">
        <ele>1769.5999755859</ele>
        <time>2018-05-09T10:51:08.000Z</time>
      </trkpt>
      <trkpt lat="44.25511" lon="7.04858">
        <ele>1769.5999755859</ele>
        <time>2018-05-09T10:51:14.000Z</time>
      </trkpt>
      <trkpt lat="44.25511" lon="7.04857">
        <ele>1769.5999755859</ele>
        <time>2018-05-09T10:51:15.000Z</time>
      </trkpt>
      <trkpt lat="44.25512" lon="7.04855">
        <ele>1769.4000244141</ele>
        <time>2018-05-09T10:51:16.000Z</time>
      </trkpt>
      <trkpt lat="44.25514" lon="7.04855">
        <ele>1769.4000244141</ele>
        <time>2018-05-09T10:51:17.000Z</time>
      </trkpt>
      <trkpt lat="44.25515" lon="7.04854">
        <ele>1769.4000244141</ele>
        <time>2018-05-09T10:51:18.000Z</time>
      </trkpt>
      <trkpt lat="44.25525" lon="7.04854">
        <ele>1768.4000244141</ele>
        <time>2018-05-09T10:51:21.000Z</time>
      </trkpt>
      <trkpt lat="44.25534" lon="7.04852">
        <ele>1767</ele>
        <time>2018-05-09T10:51:23.000Z</time>
      </trkpt>
      <trkpt lat="44.25537" lon="7.04851">
        <ele>1765.8000488281</ele>
        <time>2018-05-09T10:51:24.000Z</time>
      </trkpt>
      <trkpt lat="44.2554" lon="7.04849">
        <ele>1764.5999755859</ele>
        <time>2018-05-09T10:51:25.000Z</time>
      </trkpt>
      <trkpt lat="44.25541" lon="7.04849">
        <ele>1763.5999755859</ele>
        <time>2018-05-09T10:51:26.000Z</time>
      </trkpt>
      <trkpt lat="44.25541" lon="7.04849">
        <ele>1762.8000488281</ele>
        <time>2018-05-09T10:51:27.000Z</time>
      </trkpt>
      <trkpt lat="44.25541" lon="7.04848">
        <ele>1762.1999511719</ele>
        <time>2018-05-09T10:51:28.000Z</time>
      </trkpt>
      <trkpt lat="44.25542" lon="7.04847">
        <ele>1761.4000244141</ele>
        <time>2018-05-09T10:51:38.000Z</time>
      </trkpt>
      <trkpt lat="44.25548" lon="7.04842">
        <ele>1761.4000244141</ele>
        <time>2018-05-09T10:51:44.000Z</time>
      </trkpt>
      <trkpt lat="44.25541" lon="7.04843">
        <ele>1761.4000244141</ele>
        <time>2018-05-09T10:51:49.000Z</time>
      </trkpt>
      <trkpt lat="44.25538" lon="7.04842">
        <ele>1761.4000244141</ele>
        <time>2018-05-09T10:51:51.000Z</time>
      </trkpt>
      <trkpt lat="44.25538" lon="7.04842">
        <ele>1761.1999511719</ele>
        <time>2018-05-09T10:51:54.000Z</time>
      </trkpt>
      <trkpt lat="44.2554" lon="7.04841">
        <ele>1761</ele>
        <time>2018-05-09T10:51:57.000Z</time>
      </trkpt>
      <trkpt lat="44.25541" lon="7.04841">
        <ele>1760.5999755859</ele>
        <time>2018-05-09T10:51:59.000Z</time>
      </trkpt>
      <trkpt lat="44.25545" lon="7.04843">
        <ele>1760.4000244141</ele>
        <time>2018-05-09T10:52:03.000Z</time>
      </trkpt>
      <trkpt lat="44.25546" lon="7.04843">
        <ele>1760.4000244141</ele>
        <time>2018-05-09T10:52:04.000Z</time>
      </trkpt>
      <trkpt lat="44.25547" lon="7.04843">
        <ele>1760.4000244141</ele>
        <time>2018-05-09T10:52:05.000Z</time>
      </trkpt>
      <trkpt lat="44.25552" lon="7.04844">
        <ele>1760.5999755859</ele>
        <time>2018-05-09T10:52:08.000Z</time>
      </trkpt>
      <trkpt lat="44.25553" lon="7.04846">
        <ele>1760.4000244141</ele>
        <time>2018-05-09T10:52:14.000Z</time>
      </trkpt>
      <trkpt lat="44.25552" lon="7.04847">
        <ele>1760.4000244141</ele>
        <time>2018-05-09T10:52:15.000Z</time>
      </trkpt>
      <trkpt lat="44.25551" lon="7.04847">
        <ele>1760.4000244141</ele>
        <time>2018-05-09T10:52:16.000Z</time>
      </trkpt>
      <trkpt lat="44.25549" lon="7.04847">
        <ele>1760.4000244141</ele>
        <time>2018-05-09T10:52:19.000Z</time>
      </trkpt>
      <trkpt lat="44.25549" lon="7.04847">
        <ele>1760.4000244141</ele>
        <time>2018-05-09T10:52:20.000Z</time>
      </trkpt>
      <trkpt lat="44.25549" lon="7.04847">
        <ele>1760.5999755859</ele>
        <time>2018-05-09T10:52:22.000Z</time>
      </trkpt>
      <trkpt lat="44.25549" lon="7.04846">
        <ele>1760.5999755859</ele>
        <time>2018-05-09T10:52:24.000Z</time>
      </trkpt>
      <trkpt lat="44.2555" lon="7.04848">
        <ele>1760.4000244141</ele>
        <time>2018-05-09T10:52:27.000Z</time>
      </trkpt>
      <trkpt lat="44.25553" lon="7.04847">
        <ele>1760.4000244141</ele>
        <time>2018-05-09T10:52:30.000Z</time>
      </trkpt>
      <trkpt lat="44.25553" lon="7.04847">
        <ele>1760.1999511719</ele>
        <time>2018-05-09T10:52:32.000Z</time>
      </trkpt>
      <trkpt lat="44.25556" lon="7.04853">
        <ele>1759.8000488281</ele>
        <time>2018-05-09T10:52:37.000Z</time>
      </trkpt>
      <trkpt lat="44.25553" lon="7.04855">
        <ele>1760</ele>
        <time>2018-05-09T10:52:52.000Z</time>
      </trkpt>
      <trkpt lat="44.25552" lon="7.04855">
        <ele>1760</ele>
        <time>2018-05-09T10:52:57.000Z</time>
      </trkpt>
      <trkpt lat="44.25557" lon="7.04856">
        <ele>1760</ele>
        <time>2018-05-09T10:53:02.000Z</time>
      </trkpt>
      <trkpt lat="44.2556" lon="7.04856">
        <ele>1760</ele>
        <time>2018-05-09T10:53:07.000Z</time>
      </trkpt>
      <trkpt lat="44.25563" lon="7.04856">
        <ele>1760</ele>
        <time>2018-05-09T10:53:09.000Z</time>
      </trkpt>
      <trkpt lat="44.25561" lon="7.04857">
        <ele>1759.8000488281</ele>
        <time>2018-05-09T10:53:10.000Z</time>
      </trkpt>
      <trkpt lat="44.25561" lon="7.04858">
        <ele>1759.8000488281</ele>
        <time>2018-05-09T10:53:11.000Z</time>
      </trkpt>
      <trkpt lat="44.25561" lon="7.04858">
        <ele>1759.8000488281</ele>
        <time>2018-05-09T10:53:13.000Z</time>
      </trkpt>
      <trkpt lat="44.25561" lon="7.04861">
        <ele>1759.8000488281</ele>
        <time>2018-05-09T10:53:29.000Z</time>
      </trkpt>
      <trkpt lat="44.2556" lon="7.04861">
        <ele>1759.8000488281</ele>
        <time>2018-05-09T10:53:35.000Z</time>
      </trkpt>
      <trkpt lat="44.2556" lon="7.04861">
        <ele>1759.8000488281</ele>
        <time>2018-05-09T10:53:38.000Z</time>
      </trkpt>
      <trkpt lat="44.25557" lon="7.04861">
        <ele>1759.8000488281</ele>
        <time>2018-05-09T10:53:43.000Z</time>
      </trkpt>
      <trkpt lat="44.25554" lon="7.04862">
        <ele>1759.8000488281</ele>
        <time>2018-05-09T10:53:49.000Z</time>
      </trkpt>
      <trkpt lat="44.25553" lon="7.04861">
        <ele>1759.8000488281</ele>
        <time>2018-05-09T10:53:58.000Z</time>
      </trkpt>
      <trkpt lat="44.25552" lon="7.04859">
        <ele>1759.8000488281</ele>
        <time>2018-05-09T10:54:00.000Z</time>
      </trkpt>
      <trkpt lat="44.25561" lon="7.04851">
        <ele>1759.8000488281</ele>
        <time>2018-05-09T10:54:06.000Z</time>
      </trkpt>
      <trkpt lat="44.25563" lon="7.04851">
        <ele>1759.8000488281</ele>
        <time>2018-05-09T10:54:08.000Z</time>
      </trkpt>
      <trkpt lat="44.25564" lon="7.04851">
        <ele>1759.5999755859</ele>
        <time>2018-05-09T10:54:14.000Z</time>
      </trkpt>
      <trkpt lat="44.25565" lon="7.04852">
        <ele>1759.5999755859</ele>
        <time>2018-05-09T10:54:16.000Z</time>
      </trkpt>
      <trkpt lat="44.25564" lon="7.04852">
        <ele>1759.5999755859</ele>
        <time>2018-05-09T10:54:21.000Z</time>
      </trkpt>
      <trkpt lat="44.25561" lon="7.04856">
        <ele>1759.8000488281</ele>
        <time>2018-05-09T10:54:30.000Z</time>
      </trkpt>
      <trkpt lat="44.25558" lon="7.04859">
        <ele>1759.5999755859</ele>
        <time>2018-05-09T10:54:37.000Z</time>
      </trkpt>
      <trkpt lat="44.25558" lon="7.04861">
        <ele>1759.8000488281</ele>
        <time>2018-05-09T10:54:40.000Z</time>
      </trkpt>
      <trkpt lat="44.2556" lon="7.04863">
        <ele>1759.8000488281</ele>
        <time>2018-05-09T10:54:44.000Z</time>
      </trkpt>
      <trkpt lat="44.25564" lon="7.04862">
        <ele>1759.8000488281</ele>
        <time>2018-05-09T10:54:51.000Z</time>
      </trkpt>
      <trkpt lat="44.25566" lon="7.04862">
        <ele>1759.8000488281</ele>
        <time>2018-05-09T10:54:57.000Z</time>
      </trkpt>
      <trkpt lat="44.25568" lon="7.04861">
        <ele>1759.8000488281</ele>
        <time>2018-05-09T10:55:00.000Z</time>
      </trkpt>
      <trkpt lat="44.25569" lon="7.04862">
        <ele>1759.8000488281</ele>
        <time>2018-05-09T10:55:04.000Z</time>
      </trkpt>
      <trkpt lat="44.25568" lon="7.04869">
        <ele>1759.8000488281</ele>
        <time>2018-05-09T10:55:08.000Z</time>
      </trkpt>
      <trkpt lat="44.2556" lon="7.04882">
        <ele>1759.8000488281</ele>
        <time>2018-05-09T10:55:18.000Z</time>
      </trkpt>
      <trkpt lat="44.25559" lon="7.04883">
        <ele>1758.5999755859</ele>
        <time>2018-05-09T10:55:19.000Z</time>
      </trkpt>
      <trkpt lat="44.25557" lon="7.04883">
        <ele>1758.1999511719</ele>
        <time>2018-05-09T10:55:20.000Z</time>
      </trkpt>
      <trkpt lat="44.25553" lon="7.04882">
        <ele>1757.5999755859</ele>
        <time>2018-05-09T10:55:22.000Z</time>
      </trkpt>
      <trkpt lat="44.25551" lon="7.04883">
        <ele>1757</ele>
        <time>2018-05-09T10:55:24.000Z</time>
      </trkpt>
      <trkpt lat="44.25543" lon="7.04885">
        <ele>1757.1999511719</ele>
        <time>2018-05-09T10:55:28.000Z</time>
      </trkpt>
      <trkpt lat="44.25539" lon="7.04884">
        <ele>1757</ele>
        <time>2018-05-09T10:55:31.000Z</time>
      </trkpt>
      <trkpt lat="44.25537" lon="7.04885">
        <ele>1757.1999511719</ele>
        <time>2018-05-09T10:55:35.000Z</time>
      </trkpt>
      <trkpt lat="44.25535" lon="7.04885">
        <ele>1757.1999511719</ele>
        <time>2018-05-09T10:55:38.000Z</time>
      </trkpt>
      <trkpt lat="44.25535" lon="7.04885">
        <ele>1757.1999511719</ele>
        <time>2018-05-09T10:55:39.000Z</time>
      </trkpt>
      <trkpt lat="44.25536" lon="7.04887">
        <ele>1757.4000244141</ele>
        <time>2018-05-09T10:55:41.000Z</time>
      </trkpt>
      <trkpt lat="44.2554" lon="7.04893">
        <ele>1757</ele>
        <time>2018-05-09T10:55:50.000Z</time>
      </trkpt>
      <trkpt lat="44.25541" lon="7.04897">
        <ele>1756.8000488281</ele>
        <time>2018-05-09T10:55:54.000Z</time>
      </trkpt>
      <trkpt lat="44.25541" lon="7.04898">
        <ele>1756.8000488281</ele>
        <time>2018-05-09T10:55:57.000Z</time>
      </trkpt>
      <trkpt lat="44.25542" lon="7.049">
        <ele>1756.5999755859</ele>
        <time>2018-05-09T10:55:59.000Z</time>
      </trkpt>
      <trkpt lat="44.25542" lon="7.04902">
        <ele>1756.4000244141</ele>
        <time>2018-05-09T10:56:00.000Z</time>
      </trkpt>
      <trkpt lat="44.25538" lon="7.04906">
        <ele>1755.1999511719</ele>
        <time>2018-05-09T10:56:03.000Z</time>
      </trkpt>
      <trkpt lat="44.25539" lon="7.04908">
        <ele>1755</ele>
        <time>2018-05-09T10:56:05.000Z</time>
      </trkpt>
      <trkpt lat="44.25533" lon="7.04923">
        <ele>1754.4000244141</ele>
        <time>2018-05-09T10:56:11.000Z</time>
      </trkpt>
      <trkpt lat="44.25532" lon="7.04925">
        <ele>1754.1999511719</ele>
        <time>2018-05-09T10:56:13.000Z</time>
      </trkpt>
      <trkpt lat="44.25532" lon="7.04933">
        <ele>1753.4000244141</ele>
        <time>2018-05-09T10:56:18.000Z</time>
      </trkpt>
      <trkpt lat="44.25532" lon="7.04934">
        <ele>1753</ele>
        <time>2018-05-09T10:56:19.000Z</time>
      </trkpt>
      <trkpt lat="44.25533" lon="7.04935">
        <ele>1752.4000244141</ele>
        <time>2018-05-09T10:56:24.000Z</time>
      </trkpt>
      <trkpt lat="44.2553" lon="7.04937">
        <ele>1752.1999511719</ele>
        <time>2018-05-09T10:56:28.000Z</time>
      </trkpt>
      <trkpt lat="44.2553" lon="7.04935">
        <ele>1752.4000244141</ele>
        <time>2018-05-09T10:56:45.000Z</time>
      </trkpt>
      <trkpt lat="44.25535" lon="7.04939">
        <ele>1752</ele>
        <time>2018-05-09T10:56:50.000Z</time>
      </trkpt>
      <trkpt lat="44.25535" lon="7.04939">
        <ele>1751.5999755859</ele>
        <time>2018-05-09T10:56:51.000Z</time>
      </trkpt>
      <trkpt lat="44.2553" lon="7.04943">
        <ele>1751</ele>
        <time>2018-05-09T10:56:57.000Z</time>
      </trkpt>
      <trkpt lat="44.25528" lon="7.04945">
        <ele>1751.1999511719</ele>
        <time>2018-05-09T10:57:00.000Z</time>
      </trkpt>
      <trkpt lat="44.25527" lon="7.04948">
        <ele>1751</ele>
        <time>2018-05-09T10:57:03.000Z</time>
      </trkpt>
      <trkpt lat="44.25527" lon="7.04948">
        <ele>1751</ele>
        <time>2018-05-09T10:57:05.000Z</time>
      </trkpt>
      <trkpt lat="44.25528" lon="7.0495">
        <ele>1750.8000488281</ele>
        <time>2018-05-09T10:57:08.000Z</time>
      </trkpt>
      <trkpt lat="44.25532" lon="7.04953">
        <ele>1749.8000488281</ele>
        <time>2018-05-09T10:57:12.000Z</time>
      </trkpt>
      <trkpt lat="44.25533" lon="7.04956">
        <ele>1748.5999755859</ele>
        <time>2018-05-09T10:57:15.000Z</time>
      </trkpt>
      <trkpt lat="44.25534" lon="7.04957">
        <ele>1748.1999511719</ele>
        <time>2018-05-09T10:57:17.000Z</time>
      </trkpt>
      <trkpt lat="44.25533" lon="7.04958">
        <ele>1747.5999755859</ele>
        <time>2018-05-09T10:57:22.000Z</time>
      </trkpt>
      <trkpt lat="44.25535" lon="7.04958">
        <ele>1747.1999511719</ele>
        <time>2018-05-09T10:57:26.000Z</time>
      </trkpt>
      <trkpt lat="44.25536" lon="7.04959">
        <ele>1747</ele>
        <time>2018-05-09T10:57:27.000Z</time>
      </trkpt>
      <trkpt lat="44.25536" lon="7.04959">
        <ele>1746.4000244141</ele>
        <time>2018-05-09T10:57:29.000Z</time>
      </trkpt>
      <trkpt lat="44.25539" lon="7.04959">
        <ele>1745.8000488281</ele>
        <time>2018-05-09T10:57:32.000Z</time>
      </trkpt>
      <trkpt lat="44.25542" lon="7.04956">
        <ele>1745.5999755859</ele>
        <time>2018-05-09T10:57:34.000Z</time>
      </trkpt>
      <trkpt lat="44.25549" lon="7.04951">
        <ele>1745.5999755859</ele>
        <time>2018-05-09T10:57:37.000Z</time>
      </trkpt>
      <trkpt lat="44.25549" lon="7.0495">
        <ele>1745.5999755859</ele>
        <time>2018-05-09T10:57:38.000Z</time>
      </trkpt>
      <trkpt lat="44.25545" lon="7.04951">
        <ele>1745.4000244141</ele>
        <time>2018-05-09T10:57:40.000Z</time>
      </trkpt>
      <trkpt lat="44.25544" lon="7.04952">
        <ele>1745</ele>
        <time>2018-05-09T10:57:42.000Z</time>
      </trkpt>
      <trkpt lat="44.25544" lon="7.04952">
        <ele>1744.8000488281</ele>
        <time>2018-05-09T10:57:43.000Z</time>
      </trkpt>
      <trkpt lat="44.25544" lon="7.04952">
        <ele>1744.1999511719</ele>
        <time>2018-05-09T10:57:45.000Z</time>
      </trkpt>
      <trkpt lat="44.25542" lon="7.04953">
        <ele>1743.1999511719</ele>
        <time>2018-05-09T10:57:50.000Z</time>
      </trkpt>
      <trkpt lat="44.25541" lon="7.04953">
        <ele>1743</ele>
        <time>2018-05-09T10:57:53.000Z</time>
      </trkpt>
      <trkpt lat="44.25543" lon="7.04955">
        <ele>1742.8000488281</ele>
        <time>2018-05-09T10:57:56.000Z</time>
      </trkpt>
      <trkpt lat="44.25544" lon="7.04955">
        <ele>1742.8000488281</ele>
        <time>2018-05-09T10:57:57.000Z</time>
      </trkpt>
      <trkpt lat="44.25547" lon="7.04954">
        <ele>1742.5999755859</ele>
        <time>2018-05-09T10:57:59.000Z</time>
      </trkpt>
      <trkpt lat="44.25549" lon="7.04952">
        <ele>1742.1999511719</ele>
        <time>2018-05-09T10:58:00.000Z</time>
      </trkpt>
      <trkpt lat="44.25549" lon="7.04949">
        <ele>1741.4000244141</ele>
        <time>2018-05-09T10:58:01.000Z</time>
      </trkpt>
      <trkpt lat="44.2555" lon="7.04947">
        <ele>1740.8000488281</ele>
        <time>2018-05-09T10:58:02.000Z</time>
      </trkpt>
      <trkpt lat="44.2555" lon="7.04946">
        <ele>1740.1999511719</ele>
        <time>2018-05-09T10:58:03.000Z</time>
      </trkpt>
      <trkpt lat="44.2555" lon="7.04946">
        <ele>1739.5999755859</ele>
        <time>2018-05-09T10:58:04.000Z</time>
      </trkpt>
      <trkpt lat="44.25551" lon="7.04944">
        <ele>1739.1999511719</ele>
        <time>2018-05-09T10:58:06.000Z</time>
      </trkpt>
      <trkpt lat="44.25557" lon="7.04938">
        <ele>1739</ele>
        <time>2018-05-09T10:58:17.000Z</time>
      </trkpt>
      <trkpt lat="44.25557" lon="7.04936">
        <ele>1739</ele>
        <time>2018-05-09T10:58:28.000Z</time>
      </trkpt>
      <trkpt lat="44.25557" lon="7.04936">
        <ele>1739</ele>
        <time>2018-05-09T10:58:30.000Z</time>
      </trkpt>
      <trkpt lat="44.25561" lon="7.04937">
        <ele>1738.5999755859</ele>
        <time>2018-05-09T10:58:39.000Z</time>
      </trkpt>
      <trkpt lat="44.2556" lon="7.0494">
        <ele>1737</ele>
        <time>2018-05-09T10:58:42.000Z</time>
      </trkpt>
      <trkpt lat="44.25568" lon="7.04966">
        <ele>1736.4000244141</ele>
        <time>2018-05-09T10:59:00.000Z</time>
      </trkpt>
      <trkpt lat="44.25569" lon="7.0497">
        <ele>1736.1999511719</ele>
        <time>2018-05-09T10:59:04.000Z</time>
      </trkpt>
      <trkpt lat="44.25569" lon="7.04974">
        <ele>1736</ele>
        <time>2018-05-09T10:59:05.000Z</time>
      </trkpt>
      <trkpt lat="44.2557" lon="7.04977">
        <ele>1735</ele>
        <time>2018-05-09T10:59:07.000Z</time>
      </trkpt>
      <trkpt lat="44.2557" lon="7.04975">
        <ele>1734.4000244141</ele>
        <time>2018-05-09T10:59:08.000Z</time>
      </trkpt>
      <trkpt lat="44.25571" lon="7.04974">
        <ele>1733</ele>
        <time>2018-05-09T10:59:10.000Z</time>
      </trkpt>
      <trkpt lat="44.25572" lon="7.04975">
        <ele>1732.1999511719</ele>
        <time>2018-05-09T10:59:11.000Z</time>
      </trkpt>
      <trkpt lat="44.25572" lon="7.04974">
        <ele>1731.5999755859</ele>
        <time>2018-05-09T10:59:12.000Z</time>
      </trkpt>
      <trkpt lat="44.25573" lon="7.0497">
        <ele>1730.4000244141</ele>
        <time>2018-05-09T10:59:14.000Z</time>
      </trkpt>
      <trkpt lat="44.25572" lon="7.04969">
        <ele>1729.1999511719</ele>
        <time>2018-05-09T10:59:17.000Z</time>
      </trkpt>
      <trkpt lat="44.25571" lon="7.04967">
        <ele>1729.1999511719</ele>
        <time>2018-05-09T10:59:18.000Z</time>
      </trkpt>
      <trkpt lat="44.25568" lon="7.04963">
        <ele>1729</ele>
        <time>2018-05-09T10:59:20.000Z</time>
      </trkpt>
      <trkpt lat="44.25567" lon="7.04958">
        <ele>1729</ele>
        <time>2018-05-09T10:59:23.000Z</time>
      </trkpt>
      <trkpt lat="44.25568" lon="7.04956">
        <ele>1729.1999511719</ele>
        <time>2018-05-09T10:59:26.000Z</time>
      </trkpt>
      <trkpt lat="44.25572" lon="7.04953">
        <ele>1729</ele>
        <time>2018-05-09T10:59:30.000Z</time>
      </trkpt>
      <trkpt lat="44.25569" lon="7.04953">
        <ele>1728.5999755859</ele>
        <time>2018-05-09T10:59:33.000Z</time>
      </trkpt>
      <trkpt lat="44.25569" lon="7.04952">
        <ele>1728.1999511719</ele>
        <time>2018-05-09T10:59:35.000Z</time>
      </trkpt>
      <trkpt lat="44.25563" lon="7.04948">
        <ele>1728</ele>
        <time>2018-05-09T10:59:46.000Z</time>
      </trkpt>
      <trkpt lat="44.25562" lon="7.04948">
        <ele>1728.1999511719</ele>
        <time>2018-05-09T10:59:52.000Z</time>
      </trkpt>
      <trkpt lat="44.25559" lon="7.04945">
        <ele>1728.1999511719</ele>
        <time>2018-05-09T10:59:57.000Z</time>
      </trkpt>
      <trkpt lat="44.25556" lon="7.04951">
        <ele>1728.1999511719</ele>
        <time>2018-05-09T11:00:01.000Z</time>
      </trkpt>
      <trkpt lat="44.2556" lon="7.04944">
        <ele>1728</ele>
        <time>2018-05-09T11:00:06.000Z</time>
      </trkpt>
      <trkpt lat="44.25564" lon="7.0494">
        <ele>1727.4000244141</ele>
        <time>2018-05-09T11:00:09.000Z</time>
      </trkpt>
      <trkpt lat="44.25566" lon="7.04939">
        <ele>1727.1999511719</ele>
        <time>2018-05-09T11:00:10.000Z</time>
      </trkpt>
      <trkpt lat="44.25576" lon="7.04932">
        <ele>1726.1999511719</ele>
        <time>2018-05-09T11:00:16.000Z</time>
      </trkpt>
      <trkpt lat="44.2558" lon="7.04928">
        <ele>1725.8000488281</ele>
        <time>2018-05-09T11:00:20.000Z</time>
      </trkpt>
      <trkpt lat="44.25581" lon="7.04925">
        <ele>1725.1999511719</ele>
        <time>2018-05-09T11:00:22.000Z</time>
      </trkpt>
      <trkpt lat="44.25581" lon="7.04923">
        <ele>1725</ele>
        <time>2018-05-09T11:00:23.000Z</time>
      </trkpt>
      <trkpt lat="44.25581" lon="7.04917">
        <ele>1723.8000488281</ele>
        <time>2018-05-09T11:00:27.000Z</time>
      </trkpt>
      <trkpt lat="44.25584" lon="7.04914">
        <ele>1723.1999511719</ele>
        <time>2018-05-09T11:00:30.000Z</time>
      </trkpt>
      <trkpt lat="44.25585" lon="7.04913">
        <ele>1722.8000488281</ele>
        <time>2018-05-09T11:00:31.000Z</time>
      </trkpt>
      <trkpt lat="44.25589" lon="7.04907">
        <ele>1722</ele>
        <time>2018-05-09T11:00:35.000Z</time>
      </trkpt>
      <trkpt lat="44.2559" lon="7.04906">
        <ele>1721.5999755859</ele>
        <time>2018-05-09T11:00:36.000Z</time>
      </trkpt>
      <trkpt lat="44.25592" lon="7.04904">
        <ele>1721</ele>
        <time>2018-05-09T11:00:40.000Z</time>
      </trkpt>
      <trkpt lat="44.25594" lon="7.04898">
        <ele>1720.5999755859</ele>
        <time>2018-05-09T11:00:45.000Z</time>
      </trkpt>
      <trkpt lat="44.25599" lon="7.04889">
        <ele>1719.5999755859</ele>
        <time>2018-05-09T11:00:52.000Z</time>
      </trkpt>
      <trkpt lat="44.25599" lon="7.04888">
        <ele>1719.4000244141</ele>
        <time>2018-05-09T11:00:53.000Z</time>
      </trkpt>
      <trkpt lat="44.25602" lon="7.04884">
        <ele>1718.4000244141</ele>
        <time>2018-05-09T11:00:57.000Z</time>
      </trkpt>
      <trkpt lat="44.25602" lon="7.04882">
        <ele>1718</ele>
        <time>2018-05-09T11:00:59.000Z</time>
      </trkpt>
      <trkpt lat="44.25603" lon="7.04881">
        <ele>1717.4000244141</ele>
        <time>2018-05-09T11:01:03.000Z</time>
      </trkpt>
      <trkpt lat="44.25604" lon="7.04882">
        <ele>1717.4000244141</ele>
        <time>2018-05-09T11:01:04.000Z</time>
      </trkpt>
      <trkpt lat="44.25607" lon="7.04883">
        <ele>1717</ele>
        <time>2018-05-09T11:01:08.000Z</time>
      </trkpt>
      <trkpt lat="44.25608" lon="7.04888">
        <ele>1716.4000244141</ele>
        <time>2018-05-09T11:01:12.000Z</time>
      </trkpt>
      <trkpt lat="44.25611" lon="7.04892">
        <ele>1716.4000244141</ele>
        <time>2018-05-09T11:01:16.000Z</time>
      </trkpt>
      <trkpt lat="44.25612" lon="7.04893">
        <ele>1716.4000244141</ele>
        <time>2018-05-09T11:01:17.000Z</time>
      </trkpt>
      <trkpt lat="44.25613" lon="7.04894">
        <ele>1716.5999755859</ele>
        <time>2018-05-09T11:01:19.000Z</time>
      </trkpt>
      <trkpt lat="44.25615" lon="7.04894">
        <ele>1716.4000244141</ele>
        <time>2018-05-09T11:01:24.000Z</time>
      </trkpt>
      <trkpt lat="44.25617" lon="7.04891">
        <ele>1715.5999755859</ele>
        <time>2018-05-09T11:01:28.000Z</time>
      </trkpt>
      <trkpt lat="44.25618" lon="7.0489">
        <ele>1715.1999511719</ele>
        <time>2018-05-09T11:01:30.000Z</time>
      </trkpt>
      <trkpt lat="44.25619" lon="7.04887">
        <ele>1714.8000488281</ele>
        <time>2018-05-09T11:01:34.000Z</time>
      </trkpt>
      <trkpt lat="44.25621" lon="7.04882">
        <ele>1714.4000244141</ele>
        <time>2018-05-09T11:01:37.000Z</time>
      </trkpt>
      <trkpt lat="44.25624" lon="7.04879">
        <ele>1714.1999511719</ele>
        <time>2018-05-09T11:01:40.000Z</time>
      </trkpt>
      <trkpt lat="44.25623" lon="7.04876">
        <ele>1714</ele>
        <time>2018-05-09T11:01:42.000Z</time>
      </trkpt>
      <trkpt lat="44.25623" lon="7.04871">
        <ele>1713.5999755859</ele>
        <time>2018-05-09T11:01:48.000Z</time>
      </trkpt>
      <trkpt lat="44.25623" lon="7.04868">
        <ele>1713.5999755859</ele>
        <time>2018-05-09T11:01:50.000Z</time>
      </trkpt>
      <trkpt lat="44.25624" lon="7.04867">
        <ele>1713.4000244141</ele>
        <time>2018-05-09T11:01:51.000Z</time>
      </trkpt>
      <trkpt lat="44.25625" lon="7.04864">
        <ele>1713</ele>
        <time>2018-05-09T11:01:54.000Z</time>
      </trkpt>
      <trkpt lat="44.25627" lon="7.04862">
        <ele>1712.8000488281</ele>
        <time>2018-05-09T11:01:56.000Z</time>
      </trkpt>
      <trkpt lat="44.25629" lon="7.0486">
        <ele>1712.4000244141</ele>
        <time>2018-05-09T11:01:58.000Z</time>
      </trkpt>
      <trkpt lat="44.2563" lon="7.0486">
        <ele>1712.1999511719</ele>
        <time>2018-05-09T11:01:59.000Z</time>
      </trkpt>
      <trkpt lat="44.25631" lon="7.04859">
        <ele>1712</ele>
        <time>2018-05-09T11:02:00.000Z</time>
      </trkpt>
      <trkpt lat="44.25634" lon="7.04857">
        <ele>1711.4000244141</ele>
        <time>2018-05-09T11:02:04.000Z</time>
      </trkpt>
      <trkpt lat="44.25637" lon="7.04855">
        <ele>1711</ele>
        <time>2018-05-09T11:02:07.000Z</time>
      </trkpt>
      <trkpt lat="44.25639" lon="7.04854">
        <ele>1710.8000488281</ele>
        <time>2018-05-09T11:02:08.000Z</time>
      </trkpt>
      <trkpt lat="44.25643" lon="7.0485">
        <ele>1710.1999511719</ele>
        <time>2018-05-09T11:02:13.000Z</time>
      </trkpt>
      <trkpt lat="44.25645" lon="7.04849">
        <ele>1709.8000488281</ele>
        <time>2018-05-09T11:02:15.000Z</time>
      </trkpt>
      <trkpt lat="44.25646" lon="7.04849">
        <ele>1709.5999755859</ele>
        <time>2018-05-09T11:02:16.000Z</time>
      </trkpt>
      <trkpt lat="44.25647" lon="7.04848">
        <ele>1709.4000244141</ele>
        <time>2018-05-09T11:02:17.000Z</time>
      </trkpt>
      <trkpt lat="44.2565" lon="7.04846">
        <ele>1709</ele>
        <time>2018-05-09T11:02:20.000Z</time>
      </trkpt>
      <trkpt lat="44.25651" lon="7.04845">
        <ele>1708.8000488281</ele>
        <time>2018-05-09T11:02:21.000Z</time>
      </trkpt>
      <trkpt lat="44.25652" lon="7.04844">
        <ele>1708.5999755859</ele>
        <time>2018-05-09T11:02:22.000Z</time>
      </trkpt>
      <trkpt lat="44.25657" lon="7.04842">
        <ele>1708</ele>
        <time>2018-05-09T11:02:26.000Z</time>
      </trkpt>
      <trkpt lat="44.25659" lon="7.0484">
        <ele>1707.8000488281</ele>
        <time>2018-05-09T11:02:28.000Z</time>
      </trkpt>
      <trkpt lat="44.2566" lon="7.04839">
        <ele>1707.5999755859</ele>
        <time>2018-05-09T11:02:29.000Z</time>
      </trkpt>
      <trkpt lat="44.25661" lon="7.04838">
        <ele>1707.4000244141</ele>
        <time>2018-05-09T11:02:30.000Z</time>
      </trkpt>
      <trkpt lat="44.25661" lon="7.04837">
        <ele>1707.1999511719</ele>
        <time>2018-05-09T11:02:31.000Z</time>
      </trkpt>
      <trkpt lat="44.25664" lon="7.04834">
        <ele>1707</ele>
        <time>2018-05-09T11:02:34.000Z</time>
      </trkpt>
      <trkpt lat="44.25665" lon="7.04833">
        <ele>1706.8000488281</ele>
        <time>2018-05-09T11:02:35.000Z</time>
      </trkpt>
      <trkpt lat="44.25666" lon="7.04832">
        <ele>1706.5999755859</ele>
        <time>2018-05-09T11:02:37.000Z</time>
      </trkpt>
      <trkpt lat="44.25668" lon="7.0483">
        <ele>1706.1999511719</ele>
        <time>2018-05-09T11:02:40.000Z</time>
      </trkpt>
      <trkpt lat="44.25668" lon="7.0483">
        <ele>1706</ele>
        <time>2018-05-09T11:02:41.000Z</time>
      </trkpt>
      <trkpt lat="44.25669" lon="7.04829">
        <ele>1705.8000488281</ele>
        <time>2018-05-09T11:02:42.000Z</time>
      </trkpt>
      <trkpt lat="44.25669" lon="7.04829">
        <ele>1705.5999755859</ele>
        <time>2018-05-09T11:02:43.000Z</time>
      </trkpt>
      <trkpt lat="44.25672" lon="7.04825">
        <ele>1705</ele>
        <time>2018-05-09T11:02:48.000Z</time>
      </trkpt>
      <trkpt lat="44.25674" lon="7.04822">
        <ele>1704.8000488281</ele>
        <time>2018-05-09T11:02:51.000Z</time>
      </trkpt>
      <trkpt lat="44.25674" lon="7.04821">
        <ele>1704.5999755859</ele>
        <time>2018-05-09T11:02:52.000Z</time>
      </trkpt>
      <trkpt lat="44.25678" lon="7.04815">
        <ele>1703.8000488281</ele>
        <time>2018-05-09T11:02:59.000Z</time>
      </trkpt>
      <trkpt lat="44.25679" lon="7.04816">
        <ele>1703.5999755859</ele>
        <time>2018-05-09T11:03:01.000Z</time>
      </trkpt>
      <trkpt lat="44.25681" lon="7.04817">
        <ele>1703.4000244141</ele>
        <time>2018-05-09T11:03:04.000Z</time>
      </trkpt>
      <trkpt lat="44.2568" lon="7.04814">
        <ele>1703</ele>
        <time>2018-05-09T11:03:26.000Z</time>
      </trkpt>
      <trkpt lat="44.25679" lon="7.04817">
        <ele>1703</ele>
        <time>2018-05-09T11:03:29.000Z</time>
      </trkpt>
      <trkpt lat="44.25684" lon="7.04818">
        <ele>1703</ele>
        <time>2018-05-09T11:03:37.000Z</time>
      </trkpt>
      <trkpt lat="44.25686" lon="7.04819">
        <ele>1703</ele>
        <time>2018-05-09T11:03:41.000Z</time>
      </trkpt>
      <trkpt lat="44.25683" lon="7.04816">
        <ele>1703.1999511719</ele>
        <time>2018-05-09T11:04:02.000Z</time>
      </trkpt>
      <trkpt lat="44.25678" lon="7.0482">
        <ele>1703.1999511719</ele>
        <time>2018-05-09T11:04:08.000Z</time>
      </trkpt>
      <trkpt lat="44.25677" lon="7.04819">
        <ele>1703</ele>
        <time>2018-05-09T11:04:22.000Z</time>
      </trkpt>
      <trkpt lat="44.25679" lon="7.04821">
        <ele>1703.1999511719</ele>
        <time>2018-05-09T11:04:25.000Z</time>
      </trkpt>
      <trkpt lat="44.25684" lon="7.04823">
        <ele>1703</ele>
        <time>2018-05-09T11:04:31.000Z</time>
      </trkpt>
      <trkpt lat="44.25683" lon="7.04824">
        <ele>1703</ele>
        <time>2018-05-09T11:04:32.000Z</time>
      </trkpt>
      <trkpt lat="44.25691" lon="7.04827">
        <ele>1703.1999511719</ele>
        <time>2018-05-09T11:04:41.000Z</time>
      </trkpt>
      <trkpt lat="44.25693" lon="7.0483">
        <ele>1703.1999511719</ele>
        <time>2018-05-09T11:04:44.000Z</time>
      </trkpt>
      <trkpt lat="44.25693" lon="7.0483">
        <ele>1703.1999511719</ele>
        <time>2018-05-09T11:04:47.000Z</time>
      </trkpt>
      <trkpt lat="44.25694" lon="7.0483">
        <ele>1703.1999511719</ele>
        <time>2018-05-09T11:04:49.000Z</time>
      </trkpt>
      <trkpt lat="44.25692" lon="7.04829">
        <ele>1703.1999511719</ele>
        <time>2018-05-09T11:04:51.000Z</time>
      </trkpt>
      <trkpt lat="44.25691" lon="7.04816">
        <ele>1702.4000244141</ele>
        <time>2018-05-09T11:04:59.000Z</time>
      </trkpt>
      <trkpt lat="44.25691" lon="7.04815">
        <ele>1702.4000244141</ele>
        <time>2018-05-09T11:05:00.000Z</time>
      </trkpt>
      <trkpt lat="44.25693" lon="7.04813">
        <ele>1701.8000488281</ele>
        <time>2018-05-09T11:05:03.000Z</time>
      </trkpt>
      <trkpt lat="44.25697" lon="7.0481">
        <ele>1701.5999755859</ele>
        <time>2018-05-09T11:05:05.000Z</time>
      </trkpt>
      <trkpt lat="44.25698" lon="7.0481">
        <ele>1701.4000244141</ele>
        <time>2018-05-09T11:05:06.000Z</time>
      </trkpt>
      <trkpt lat="44.25698" lon="7.0481">
        <ele>1701.4000244141</ele>
        <time>2018-05-09T11:05:07.000Z</time>
      </trkpt>
      <trkpt lat="44.25699" lon="7.0481">
        <ele>1701.1999511719</ele>
        <time>2018-05-09T11:05:08.000Z</time>
      </trkpt>
      <trkpt lat="44.25702" lon="7.04808">
        <ele>1700.4000244141</ele>
        <time>2018-05-09T11:05:12.000Z</time>
      </trkpt>
      <trkpt lat="44.25706" lon="7.04807">
        <ele>1699.1999511719</ele>
        <time>2018-05-09T11:05:18.000Z</time>
      </trkpt>
      <trkpt lat="44.25708" lon="7.04806">
        <ele>1699</ele>
        <time>2018-05-09T11:05:20.000Z</time>
      </trkpt>
      <trkpt lat="44.2571" lon="7.04806">
        <ele>1698.8000488281</ele>
        <time>2018-05-09T11:05:21.000Z</time>
      </trkpt>
      <trkpt lat="44.25713" lon="7.04806">
        <ele>1698.4000244141</ele>
        <time>2018-05-09T11:05:24.000Z</time>
      </trkpt>
      <trkpt lat="44.25714" lon="7.04807">
        <ele>1698.1999511719</ele>
        <time>2018-05-09T11:05:25.000Z</time>
      </trkpt>
      <trkpt lat="44.25714" lon="7.04807">
        <ele>1698.1999511719</ele>
        <time>2018-05-09T11:05:26.000Z</time>
      </trkpt>
      <trkpt lat="44.25717" lon="7.04802">
        <ele>1697.1999511719</ele>
        <time>2018-05-09T11:05:32.000Z</time>
      </trkpt>
      <trkpt lat="44.25718" lon="7.04801">
        <ele>1697</ele>
        <time>2018-05-09T11:05:33.000Z</time>
      </trkpt>
      <trkpt lat="44.25719" lon="7.048">
        <ele>1696.8000488281</ele>
        <time>2018-05-09T11:05:34.000Z</time>
      </trkpt>
      <trkpt lat="44.25724" lon="7.04795">
        <ele>1695.8000488281</ele>
        <time>2018-05-09T11:05:39.000Z</time>
      </trkpt>
      <trkpt lat="44.25726" lon="7.0479">
        <ele>1694.8000488281</ele>
        <time>2018-05-09T11:05:44.000Z</time>
      </trkpt>
      <trkpt lat="44.25728" lon="7.04786">
        <ele>1694.1999511719</ele>
        <time>2018-05-09T11:05:49.000Z</time>
      </trkpt>
      <trkpt lat="44.2573" lon="7.04783">
        <ele>1693.8000488281</ele>
        <time>2018-05-09T11:05:52.000Z</time>
      </trkpt>
      <trkpt lat="44.25731" lon="7.04782">
        <ele>1693.5999755859</ele>
        <time>2018-05-09T11:05:53.000Z</time>
      </trkpt>
      <trkpt lat="44.25731" lon="7.0478">
        <ele>1693.4000244141</ele>
        <time>2018-05-09T11:05:54.000Z</time>
      </trkpt>
      <trkpt lat="44.25736" lon="7.04777">
        <ele>1692.8000488281</ele>
        <time>2018-05-09T11:05:57.000Z</time>
      </trkpt>
      <trkpt lat="44.25737" lon="7.04776">
        <ele>1692.5999755859</ele>
        <time>2018-05-09T11:05:58.000Z</time>
      </trkpt>
      <trkpt lat="44.25738" lon="7.04774">
        <ele>1692.5999755859</ele>
        <time>2018-05-09T11:06:00.000Z</time>
      </trkpt>
      <trkpt lat="44.25741" lon="7.04771">
        <ele>1692.1999511719</ele>
        <time>2018-05-09T11:06:03.000Z</time>
      </trkpt>
      <trkpt lat="44.25744" lon="7.04769">
        <ele>1691.5999755859</ele>
        <time>2018-05-09T11:06:06.000Z</time>
      </trkpt>
      <trkpt lat="44.25744" lon="7.04766">
        <ele>1691.4000244141</ele>
        <time>2018-05-09T11:06:08.000Z</time>
      </trkpt>
      <trkpt lat="44.25745" lon="7.04764">
        <ele>1691</ele>
        <time>2018-05-09T11:06:10.000Z</time>
      </trkpt>
      <trkpt lat="44.25746" lon="7.04762">
        <ele>1690.5999755859</ele>
        <time>2018-05-09T11:06:12.000Z</time>
      </trkpt>
      <trkpt lat="44.25748" lon="7.04759">
        <ele>1690</ele>
        <time>2018-05-09T11:06:16.000Z</time>
      </trkpt>
      <trkpt lat="44.25749" lon="7.04757">
        <ele>1689.5999755859</ele>
        <time>2018-05-09T11:06:18.000Z</time>
      </trkpt>
      <trkpt lat="44.25751" lon="7.04751">
        <ele>1688.8000488281</ele>
        <time>2018-05-09T11:06:22.000Z</time>
      </trkpt>
      <trkpt lat="44.25753" lon="7.04748">
        <ele>1688.4000244141</ele>
        <time>2018-05-09T11:06:24.000Z</time>
      </trkpt>
      <trkpt lat="44.25756" lon="7.0474">
        <ele>1687.5999755859</ele>
        <time>2018-05-09T11:06:30.000Z</time>
      </trkpt>
      <trkpt lat="44.25756" lon="7.04739">
        <ele>1687.4000244141</ele>
        <time>2018-05-09T11:06:31.000Z</time>
      </trkpt>
      <trkpt lat="44.25757" lon="7.04736">
        <ele>1687.1999511719</ele>
        <time>2018-05-09T11:06:33.000Z</time>
      </trkpt>
      <trkpt lat="44.25759" lon="7.04734">
        <ele>1686.8000488281</ele>
        <time>2018-05-09T11:06:35.000Z</time>
      </trkpt>
      <trkpt lat="44.2576" lon="7.04729">
        <ele>1686.1999511719</ele>
        <time>2018-05-09T11:06:38.000Z</time>
      </trkpt>
      <trkpt lat="44.25761" lon="7.04728">
        <ele>1686</ele>
        <time>2018-05-09T11:06:39.000Z</time>
      </trkpt>
      <trkpt lat="44.25764" lon="7.04725">
        <ele>1685.5999755859</ele>
        <time>2018-05-09T11:06:41.000Z</time>
      </trkpt>
      <trkpt lat="44.25765" lon="7.04724">
        <ele>1685.5999755859</ele>
        <time>2018-05-09T11:06:42.000Z</time>
      </trkpt>
      <trkpt lat="44.25767" lon="7.04722">
        <ele>1685.1999511719</ele>
        <time>2018-05-09T11:06:44.000Z</time>
      </trkpt>
      <trkpt lat="44.25769" lon="7.04719">
        <ele>1684.8000488281</ele>
        <time>2018-05-09T11:06:46.000Z</time>
      </trkpt>
      <trkpt lat="44.2577" lon="7.04715">
        <ele>1684.1999511719</ele>
        <time>2018-05-09T11:06:50.000Z</time>
      </trkpt>
      <trkpt lat="44.25771" lon="7.04714">
        <ele>1683.8000488281</ele>
        <time>2018-05-09T11:06:52.000Z</time>
      </trkpt>
      <trkpt lat="44.25773" lon="7.04707">
        <ele>1683</ele>
        <time>2018-05-09T11:06:57.000Z</time>
      </trkpt>
      <trkpt lat="44.25775" lon="7.04696">
        <ele>1682</ele>
        <time>2018-05-09T11:07:04.000Z</time>
      </trkpt>
      <trkpt lat="44.25775" lon="7.04695">
        <ele>1682</ele>
        <time>2018-05-09T11:07:05.000Z</time>
      </trkpt>
      <trkpt lat="44.25776" lon="7.04689">
        <ele>1681.1999511719</ele>
        <time>2018-05-09T11:07:09.000Z</time>
      </trkpt>
      <trkpt lat="44.25776" lon="7.04684">
        <ele>1680.8000488281</ele>
        <time>2018-05-09T11:07:12.000Z</time>
      </trkpt>
      <trkpt lat="44.25776" lon="7.04679">
        <ele>1680.1999511719</ele>
        <time>2018-05-09T11:07:16.000Z</time>
      </trkpt>
      <trkpt lat="44.25776" lon="7.04677">
        <ele>1680</ele>
        <time>2018-05-09T11:07:17.000Z</time>
      </trkpt>
      <trkpt lat="44.25777" lon="7.04674">
        <ele>1679.8000488281</ele>
        <time>2018-05-09T11:07:19.000Z</time>
      </trkpt>
      <trkpt lat="44.25776" lon="7.04673">
        <ele>1679.5999755859</ele>
        <time>2018-05-09T11:07:20.000Z</time>
      </trkpt>
      <trkpt lat="44.25775" lon="7.04667">
        <ele>1679.1999511719</ele>
        <time>2018-05-09T11:07:24.000Z</time>
      </trkpt>
      <trkpt lat="44.25774" lon="7.04666">
        <ele>1679</ele>
        <time>2018-05-09T11:07:25.000Z</time>
      </trkpt>
      <trkpt lat="44.25774" lon="7.04663">
        <ele>1678.8000488281</ele>
        <time>2018-05-09T11:07:28.000Z</time>
      </trkpt>
      <trkpt lat="44.25777" lon="7.0466">
        <ele>1678.5999755859</ele>
        <time>2018-05-09T11:07:31.000Z</time>
      </trkpt>
      <trkpt lat="44.25779" lon="7.04657">
        <ele>1678.8000488281</ele>
        <time>2018-05-09T11:07:36.000Z</time>
      </trkpt>
      <trkpt lat="44.25783" lon="7.04654">
        <ele>1679</ele>
        <time>2018-05-09T11:07:41.000Z</time>
      </trkpt>
      <trkpt lat="44.2579" lon="7.04652">
        <ele>1679</ele>
        <time>2018-05-09T11:07:43.000Z</time>
      </trkpt>
      <trkpt lat="44.2579" lon="7.04651">
        <ele>1678.8000488281</ele>
        <time>2018-05-09T11:07:46.000Z</time>
      </trkpt>
      <trkpt lat="44.25794" lon="7.04649">
        <ele>1678.8000488281</ele>
        <time>2018-05-09T11:07:58.000Z</time>
      </trkpt>
      <trkpt lat="44.25801" lon="7.04649">
        <ele>1678.8000488281</ele>
        <time>2018-05-09T11:08:05.000Z</time>
      </trkpt>
      <trkpt lat="44.258" lon="7.04649">
        <ele>1679</ele>
        <time>2018-05-09T11:08:07.000Z</time>
      </trkpt>
      <trkpt lat="44.25788" lon="7.04644">
        <ele>1678.8000488281</ele>
        <time>2018-05-09T11:08:25.000Z</time>
      </trkpt>
      <trkpt lat="44.25785" lon="7.04649">
        <ele>1678.8000488281</ele>
        <time>2018-05-09T11:08:34.000Z</time>
      </trkpt>
      <trkpt lat="44.25786" lon="7.04647">
        <ele>1679</ele>
        <time>2018-05-09T11:08:36.000Z</time>
      </trkpt>
      <trkpt lat="44.25787" lon="7.04643">
        <ele>1679.1999511719</ele>
        <time>2018-05-09T11:08:44.000Z</time>
      </trkpt>
      <trkpt lat="44.25795" lon="7.04636">
        <ele>1678.8000488281</ele>
        <time>2018-05-09T11:08:49.000Z</time>
      </trkpt>
      <trkpt lat="44.25798" lon="7.04629">
        <ele>1677.5999755859</ele>
        <time>2018-05-09T11:08:52.000Z</time>
      </trkpt>
      <trkpt lat="44.25803" lon="7.04621">
        <ele>1676.1999511719</ele>
        <time>2018-05-09T11:08:55.000Z</time>
      </trkpt>
      <trkpt lat="44.2581" lon="7.04609">
        <ele>1674.8000488281</ele>
        <time>2018-05-09T11:08:58.000Z</time>
      </trkpt>
      <trkpt lat="44.25815" lon="7.046">
        <ele>1673.4000244141</ele>
        <time>2018-05-09T11:09:00.000Z</time>
      </trkpt>
      <trkpt lat="44.25817" lon="7.04595">
        <ele>1672.1999511719</ele>
        <time>2018-05-09T11:09:02.000Z</time>
      </trkpt>
      <trkpt lat="44.25819" lon="7.04591">
        <ele>1671.1999511719</ele>
        <time>2018-05-09T11:09:04.000Z</time>
      </trkpt>
      <trkpt lat="44.25825" lon="7.04582">
        <ele>1670</ele>
        <time>2018-05-09T11:09:07.000Z</time>
      </trkpt>
      <trkpt lat="44.25826" lon="7.04579">
        <ele>1669.5999755859</ele>
        <time>2018-05-09T11:09:08.000Z</time>
      </trkpt>
      <trkpt lat="44.25825" lon="7.04577">
        <ele>1669</ele>
        <time>2018-05-09T11:09:09.000Z</time>
      </trkpt>
      <trkpt lat="44.25825" lon="7.04577">
        <ele>1668.4000244141</ele>
        <time>2018-05-09T11:09:10.000Z</time>
      </trkpt>
      <trkpt lat="44.25825" lon="7.04578">
        <ele>1667.5999755859</ele>
        <time>2018-05-09T11:09:12.000Z</time>
      </trkpt>
      <trkpt lat="44.25825" lon="7.04571">
        <ele>1666.5999755859</ele>
        <time>2018-05-09T11:09:19.000Z</time>
      </trkpt>
      <trkpt lat="44.25828" lon="7.04569">
        <ele>1665.8000488281</ele>
        <time>2018-05-09T11:09:23.000Z</time>
      </trkpt>
      <trkpt lat="44.25829" lon="7.04566">
        <ele>1665.5999755859</ele>
        <time>2018-05-09T11:09:26.000Z</time>
      </trkpt>
      <trkpt lat="44.25827" lon="7.04564">
        <ele>1665.5999755859</ele>
        <time>2018-05-09T11:09:27.000Z</time>
      </trkpt>
      <trkpt lat="44.25831" lon="7.04564">
        <ele>1665.1999511719</ele>
        <time>2018-05-09T11:09:45.000Z</time>
      </trkpt>
      <trkpt lat="44.25834" lon="7.04559">
        <ele>1664.4000244141</ele>
        <time>2018-05-09T11:09:55.000Z</time>
      </trkpt>
      <trkpt lat="44.25834" lon="7.0456">
        <ele>1664</ele>
        <time>2018-05-09T11:09:57.000Z</time>
      </trkpt>
      <trkpt lat="44.25837" lon="7.04562">
        <ele>1664.1999511719</ele>
        <time>2018-05-09T11:10:07.000Z</time>
      </trkpt>
      <trkpt lat="44.25837" lon="7.04569">
        <ele>1664</ele>
        <time>2018-05-09T11:10:14.000Z</time>
      </trkpt>
      <trkpt lat="44.25836" lon="7.0457">
        <ele>1664</ele>
        <time>2018-05-09T11:10:21.000Z</time>
      </trkpt>
      <trkpt lat="44.25837" lon="7.0457">
        <ele>1664</ele>
        <time>2018-05-09T11:10:24.000Z</time>
      </trkpt>
      <trkpt lat="44.25838" lon="7.04571">
        <ele>1664</ele>
        <time>2018-05-09T11:10:26.000Z</time>
      </trkpt>
      <trkpt lat="44.25846" lon="7.04573">
        <ele>1664</ele>
        <time>2018-05-09T11:10:44.000Z</time>
      </trkpt>
      <trkpt lat="44.25846" lon="7.04579">
        <ele>1664</ele>
        <time>2018-05-09T11:10:53.000Z</time>
      </trkpt>
      <trkpt lat="44.25848" lon="7.04577">
        <ele>1664</ele>
        <time>2018-05-09T11:10:57.000Z</time>
      </trkpt>
      <trkpt lat="44.25849" lon="7.04569">
        <ele>1664</ele>
        <time>2018-05-09T11:11:01.000Z</time>
      </trkpt>
      <trkpt lat="44.2585" lon="7.04567">
        <ele>1664</ele>
        <time>2018-05-09T11:11:02.000Z</time>
      </trkpt>
      <trkpt lat="44.2585" lon="7.04563">
        <ele>1663.5999755859</ele>
        <time>2018-05-09T11:11:04.000Z</time>
      </trkpt>
      <trkpt lat="44.25849" lon="7.0456">
        <ele>1663.4000244141</ele>
        <time>2018-05-09T11:11:05.000Z</time>
      </trkpt>
      <trkpt lat="44.25847" lon="7.04558">
        <ele>1663.1999511719</ele>
        <time>2018-05-09T11:11:06.000Z</time>
      </trkpt>
      <trkpt lat="44.25847" lon="7.04557">
        <ele>1663.1999511719</ele>
        <time>2018-05-09T11:11:07.000Z</time>
      </trkpt>
      <trkpt lat="44.25845" lon="7.04554">
        <ele>1663</ele>
        <time>2018-05-09T11:11:11.000Z</time>
      </trkpt>
      <trkpt lat="44.25844" lon="7.04552">
        <ele>1663</ele>
        <time>2018-05-09T11:11:13.000Z</time>
      </trkpt>
      <trkpt lat="44.25837" lon="7.04542">
        <ele>1663</ele>
        <time>2018-05-09T11:11:26.000Z</time>
      </trkpt>
      <trkpt lat="44.25833" lon="7.04537">
        <ele>1663.1999511719</ele>
        <time>2018-05-09T11:11:29.000Z</time>
      </trkpt>
      <trkpt lat="44.25841" lon="7.04526">
        <ele>1662.5999755859</ele>
        <time>2018-05-09T11:11:38.000Z</time>
      </trkpt>
      <trkpt lat="44.25843" lon="7.04524">
        <ele>1662.1999511719</ele>
        <time>2018-05-09T11:11:39.000Z</time>
      </trkpt>
      <trkpt lat="44.25855" lon="7.04511">
        <ele>1660.8000488281</ele>
        <time>2018-05-09T11:11:43.000Z</time>
      </trkpt>
      <trkpt lat="44.25864" lon="7.04502">
        <ele>1659.5999755859</ele>
        <time>2018-05-09T11:11:46.000Z</time>
      </trkpt>
      <trkpt lat="44.25865" lon="7.04501">
        <ele>1659.1999511719</ele>
        <time>2018-05-09T11:11:47.000Z</time>
      </trkpt>
      <trkpt lat="44.25866" lon="7.045">
        <ele>1658.8000488281</ele>
        <time>2018-05-09T11:11:49.000Z</time>
      </trkpt>
      <trkpt lat="44.25867" lon="7.04499">
        <ele>1658.5999755859</ele>
        <time>2018-05-09T11:11:51.000Z</time>
      </trkpt>
      <trkpt lat="44.25868" lon="7.04498">
        <ele>1658.5999755859</ele>
        <time>2018-05-09T11:11:52.000Z</time>
      </trkpt>
      <trkpt lat="44.25869" lon="7.04493">
        <ele>1658.8000488281</ele>
        <time>2018-05-09T11:11:56.000Z</time>
      </trkpt>
      <trkpt lat="44.25869" lon="7.04491">
        <ele>1658.8000488281</ele>
        <time>2018-05-09T11:11:58.000Z</time>
      </trkpt>
      <trkpt lat="44.25874" lon="7.04488">
        <ele>1658.8000488281</ele>
        <time>2018-05-09T11:12:13.000Z</time>
      </trkpt>
      <trkpt lat="44.25877" lon="7.0449">
        <ele>1658.8000488281</ele>
        <time>2018-05-09T11:12:19.000Z</time>
      </trkpt>
      <trkpt lat="44.25879" lon="7.0449">
        <ele>1658.5999755859</ele>
        <time>2018-05-09T11:12:26.000Z</time>
      </trkpt>
      <trkpt lat="44.25879" lon="7.0449">
        <ele>1658.5999755859</ele>
        <time>2018-05-09T11:12:33.000Z</time>
      </trkpt>
      <trkpt lat="44.25878" lon="7.04489">
        <ele>1658.5999755859</ele>
        <time>2018-05-09T11:12:35.000Z</time>
      </trkpt>
      <trkpt lat="44.25878" lon="7.0449">
        <ele>1658.8000488281</ele>
        <time>2018-05-09T11:12:39.000Z</time>
      </trkpt>
      <trkpt lat="44.25874" lon="7.04491">
        <ele>1659</ele>
        <time>2018-05-09T11:12:48.000Z</time>
      </trkpt>
      <trkpt lat="44.25873" lon="7.04493">
        <ele>1658.8000488281</ele>
        <time>2018-05-09T11:12:51.000Z</time>
      </trkpt>
      <trkpt lat="44.25873" lon="7.04495">
        <ele>1658.5999755859</ele>
        <time>2018-05-09T11:12:53.000Z</time>
      </trkpt>
      <trkpt lat="44.25873" lon="7.04496">
        <ele>1658.5999755859</ele>
        <time>2018-05-09T11:12:54.000Z</time>
      </trkpt>
      <trkpt lat="44.25872" lon="7.04498">
        <ele>1658.4000244141</ele>
        <time>2018-05-09T11:13:05.000Z</time>
      </trkpt>
      <trkpt lat="44.25872" lon="7.04497">
        <ele>1658.4000244141</ele>
        <time>2018-05-09T11:13:07.000Z</time>
      </trkpt>
      <trkpt lat="44.25874" lon="7.04495">
        <ele>1658.4000244141</ele>
        <time>2018-05-09T11:13:14.000Z</time>
      </trkpt>
      <trkpt lat="44.25875" lon="7.04495">
        <ele>1658.4000244141</ele>
        <time>2018-05-09T11:13:18.000Z</time>
      </trkpt>
      <trkpt lat="44.25875" lon="7.04495">
        <ele>1658.4000244141</ele>
        <time>2018-05-09T11:13:19.000Z</time>
      </trkpt>
      <trkpt lat="44.25875" lon="7.04496">
        <ele>1658.4000244141</ele>
        <time>2018-05-09T11:13:23.000Z</time>
      </trkpt>
      <trkpt lat="44.25874" lon="7.04492">
        <ele>1658.4000244141</ele>
        <time>2018-05-09T11:13:28.000Z</time>
      </trkpt>
      <trkpt lat="44.25874" lon="7.04489">
        <ele>1658.4000244141</ele>
        <time>2018-05-09T11:13:33.000Z</time>
      </trkpt>
      <trkpt lat="44.25873" lon="7.04489">
        <ele>1658.4000244141</ele>
        <time>2018-05-09T11:13:36.000Z</time>
      </trkpt>
      <trkpt lat="44.25874" lon="7.04489">
        <ele>1658.4000244141</ele>
        <time>2018-05-09T11:13:38.000Z</time>
      </trkpt>
      <trkpt lat="44.25871" lon="7.04488">
        <ele>1658.4000244141</ele>
        <time>2018-05-09T11:13:43.000Z</time>
      </trkpt>
      <trkpt lat="44.2587" lon="7.04489">
        <ele>1658.4000244141</ele>
        <time>2018-05-09T11:13:46.000Z</time>
      </trkpt>
      <trkpt lat="44.25868" lon="7.04489">
        <ele>1658.4000244141</ele>
        <time>2018-05-09T11:13:53.000Z</time>
      </trkpt>
      <trkpt lat="44.25863" lon="7.04485">
        <ele>1658.4000244141</ele>
        <time>2018-05-09T11:14:00.000Z</time>
      </trkpt>
      <trkpt lat="44.25863" lon="7.04488">
        <ele>1658.4000244141</ele>
        <time>2018-05-09T11:14:23.000Z</time>
      </trkpt>
      <trkpt lat="44.25863" lon="7.04488">
        <ele>1658.4000244141</ele>
        <time>2018-05-09T11:14:40.000Z</time>
      </trkpt>
      <trkpt lat="44.25862" lon="7.04488">
        <ele>1658.4000244141</ele>
        <time>2018-05-09T11:14:41.000Z</time>
      </trkpt>
      <trkpt lat="44.25861" lon="7.04488">
        <ele>1658.4000244141</ele>
        <time>2018-05-09T11:14:42.000Z</time>
      </trkpt>
      <trkpt lat="44.25859" lon="7.04487">
        <ele>1658.4000244141</ele>
        <time>2018-05-09T11:14:45.000Z</time>
      </trkpt>
      <trkpt lat="44.25861" lon="7.04486">
        <ele>1658.4000244141</ele>
        <time>2018-05-09T11:15:00.000Z</time>
      </trkpt>
      <trkpt lat="44.25861" lon="7.0449">
        <ele>1658.4000244141</ele>
        <time>2018-05-09T11:15:21.000Z</time>
      </trkpt>
      <trkpt lat="44.25859" lon="7.04485">
        <ele>1658.4000244141</ele>
        <time>2018-05-09T11:15:45.000Z</time>
      </trkpt>
      <trkpt lat="44.25858" lon="7.04485">
        <ele>1658.4000244141</ele>
        <time>2018-05-09T11:15:47.000Z</time>
      </trkpt>
      <trkpt lat="44.25862" lon="7.04485">
        <ele>1658.4000244141</ele>
        <time>2018-05-09T11:15:57.000Z</time>
      </trkpt>
      <trkpt lat="44.25866" lon="7.04487">
        <ele>1658.4000244141</ele>
        <time>2018-05-09T11:16:03.000Z</time>
      </trkpt>
      <trkpt lat="44.25866" lon="7.04488">
        <ele>1658.4000244141</ele>
        <time>2018-05-09T11:16:04.000Z</time>
      </trkpt>
      <trkpt lat="44.25868" lon="7.04489">
        <ele>1658.5999755859</ele>
        <time>2018-05-09T11:16:09.000Z</time>
      </trkpt>
      <trkpt lat="44.25869" lon="7.04484">
        <ele>1658.8000488281</ele>
        <time>2018-05-09T11:16:25.000Z</time>
      </trkpt>
      <trkpt lat="44.2587" lon="7.04482">
        <ele>1658.8000488281</ele>
        <time>2018-05-09T11:16:28.000Z</time>
      </trkpt>
      <trkpt lat="44.2587" lon="7.0448">
        <ele>1658.8000488281</ele>
        <time>2018-05-09T11:16:30.000Z</time>
      </trkpt>
      <trkpt lat="44.25869" lon="7.04477">
        <ele>1659</ele>
        <time>2018-05-09T11:16:35.000Z</time>
      </trkpt>
      <trkpt lat="44.25869" lon="7.04475">
        <ele>1659.1999511719</ele>
        <time>2018-05-09T11:16:37.000Z</time>
      </trkpt>
      <trkpt lat="44.25868" lon="7.04474">
        <ele>1659.1999511719</ele>
        <time>2018-05-09T11:16:38.000Z</time>
      </trkpt>
      <trkpt lat="44.25869" lon="7.0447">
        <ele>1659.4000244141</ele>
        <time>2018-05-09T11:16:44.000Z</time>
      </trkpt>
      <trkpt lat="44.25871" lon="7.04467">
        <ele>1659.5999755859</ele>
        <time>2018-05-09T11:16:48.000Z</time>
      </trkpt>
      <trkpt lat="44.2587" lon="7.04466">
        <ele>1659.5999755859</ele>
        <time>2018-05-09T11:16:49.000Z</time>
      </trkpt>
      <trkpt lat="44.25871" lon="7.04465">
        <ele>1659.8000488281</ele>
        <time>2018-05-09T11:16:51.000Z</time>
      </trkpt>
      <trkpt lat="44.25873" lon="7.04463">
        <ele>1660</ele>
        <time>2018-05-09T11:16:54.000Z</time>
      </trkpt>
      <trkpt lat="44.25872" lon="7.04462">
        <ele>1660</ele>
        <time>2018-05-09T11:16:55.000Z</time>
      </trkpt>
      <trkpt lat="44.25871" lon="7.04461">
        <ele>1660.1999511719</ele>
        <time>2018-05-09T11:16:57.000Z</time>
      </trkpt>
      <trkpt lat="44.25872" lon="7.04459">
        <ele>1660.5999755859</ele>
        <time>2018-05-09T11:17:01.000Z</time>
      </trkpt>
      <trkpt lat="44.25872" lon="7.04458">
        <ele>1660.8000488281</ele>
        <time>2018-05-09T11:17:02.000Z</time>
      </trkpt>
      <trkpt lat="44.2587" lon="7.04449">
        <ele>1661.4000244141</ele>
        <time>2018-05-09T11:17:11.000Z</time>
      </trkpt>
      <trkpt lat="44.25869" lon="7.04447">
        <ele>1661.4000244141</ele>
        <time>2018-05-09T11:17:14.000Z</time>
      </trkpt>
      <trkpt lat="44.25868" lon="7.04441">
        <ele>1661.8000488281</ele>
        <time>2018-05-09T11:17:19.000Z</time>
      </trkpt>
      <trkpt lat="44.25868" lon="7.04438">
        <ele>1661.8000488281</ele>
        <time>2018-05-09T11:17:21.000Z</time>
      </trkpt>
      <trkpt lat="44.25868" lon="7.04435">
        <ele>1662</ele>
        <time>2018-05-09T11:17:25.000Z</time>
      </trkpt>
      <trkpt lat="44.25867" lon="7.04432">
        <ele>1662.1999511719</ele>
        <time>2018-05-09T11:17:28.000Z</time>
      </trkpt>
      <trkpt lat="44.25865" lon="7.04424">
        <ele>1662.8000488281</ele>
        <time>2018-05-09T11:17:37.000Z</time>
      </trkpt>
      <trkpt lat="44.25864" lon="7.04423">
        <ele>1662.8000488281</ele>
        <time>2018-05-09T11:17:38.000Z</time>
      </trkpt>
      <trkpt lat="44.25863" lon="7.04422">
        <ele>1662.8000488281</ele>
        <time>2018-05-09T11:17:39.000Z</time>
      </trkpt>
      <trkpt lat="44.25861" lon="7.04417">
        <ele>1663.1999511719</ele>
        <time>2018-05-09T11:17:43.000Z</time>
      </trkpt>
      <trkpt lat="44.25862" lon="7.04416">
        <ele>1663.1999511719</ele>
        <time>2018-05-09T11:17:45.000Z</time>
      </trkpt>
      <trkpt lat="44.25861" lon="7.04413">
        <ele>1663.1999511719</ele>
        <time>2018-05-09T11:17:47.000Z</time>
      </trkpt>
      <trkpt lat="44.2586" lon="7.04412">
        <ele>1663.4000244141</ele>
        <time>2018-05-09T11:17:48.000Z</time>
      </trkpt>
      <trkpt lat="44.2586" lon="7.0441">
        <ele>1663.4000244141</ele>
        <time>2018-05-09T11:17:50.000Z</time>
      </trkpt>
      <trkpt lat="44.2586" lon="7.04404">
        <ele>1663.8000488281</ele>
        <time>2018-05-09T11:17:57.000Z</time>
      </trkpt>
      <trkpt lat="44.2586" lon="7.04402">
        <ele>1663.8000488281</ele>
        <time>2018-05-09T11:17:59.000Z</time>
      </trkpt>
    </trkseg>
  </trk>
</gpx>